<?xml version="1.0" encoding="UTF-8" standalone="no" ?>
<gpx xmlns="http://www.topografix.com/GPX/1/1" xmlns:xsi="http://www.w3.org/2001/XMLSchema-instance" xsi:schemaLocation="http://www.topografix.com/GPX/1/1 http://www.topografix.com/GPX/1/1/gpx.xsd" version="1.1" creator="VisuGPX - https://www.visugpx.com">
  <metadata>
    <name>Rando des moulins Lézat 2017 (réalisé)</name>
    <desc><![CDATA[Rando des moulins Lézat 2017, parcours effectivement réalisé (légèrement différent de la trace OpenRunner).]]></desc>
  </metadata>
  <trk>
    <name><![CDATA[2017-10-07-10-32-47 on GPSies.com]]></name>
    <trkseg>
      <trkpt lat="43.27755" lon="1.34793">
        <ele>191</ele>
        <time>2017-10-07T10:32:47Z</time>
      </trkpt>
      <trkpt lat="43.27754" lon="1.34793">
        <ele>191</ele>
        <time>2017-10-07T10:32:48Z</time>
      </trkpt>
      <trkpt lat="43.27751" lon="1.34792">
        <ele>191</ele>
        <time>2017-10-07T10:32:50Z</time>
      </trkpt>
      <trkpt lat="43.2775" lon="1.34791">
        <ele>190</ele>
        <time>2017-10-07T10:32:51Z</time>
      </trkpt>
      <trkpt lat="43.27747" lon="1.34789">
        <ele>190</ele>
        <time>2017-10-07T10:32:53Z</time>
      </trkpt>
      <trkpt lat="43.27748" lon="1.34787">
        <ele>190</ele>
        <time>2017-10-07T10:32:54Z</time>
      </trkpt>
      <trkpt lat="43.27746" lon="1.34784">
        <ele>190</ele>
        <time>2017-10-07T10:32:58Z</time>
      </trkpt>
      <trkpt lat="43.27746" lon="1.34786">
        <ele>190</ele>
        <time>2017-10-07T10:32:59Z</time>
      </trkpt>
      <trkpt lat="43.27751" lon="1.34793">
        <ele>190</ele>
        <time>2017-10-07T10:33:02Z</time>
      </trkpt>
      <trkpt lat="43.2776" lon="1.34797">
        <ele>190</ele>
        <time>2017-10-07T10:33:06Z</time>
      </trkpt>
      <trkpt lat="43.27763" lon="1.34797">
        <ele>190</ele>
        <time>2017-10-07T10:33:07Z</time>
      </trkpt>
      <trkpt lat="43.27767" lon="1.34797">
        <ele>190</ele>
        <time>2017-10-07T10:33:11Z</time>
      </trkpt>
      <trkpt lat="43.27767" lon="1.34794">
        <ele>190</ele>
        <time>2017-10-07T10:34:19Z</time>
      </trkpt>
      <trkpt lat="43.27767" lon="1.34793">
        <ele>190</ele>
        <time>2017-10-07T10:34:20Z</time>
      </trkpt>
      <trkpt lat="43.27766" lon="1.34793">
        <ele>190</ele>
        <time>2017-10-07T10:34:21Z</time>
      </trkpt>
      <trkpt lat="43.27765" lon="1.34793">
        <ele>190</ele>
        <time>2017-10-07T10:34:22Z</time>
      </trkpt>
      <trkpt lat="43.27765" lon="1.34793">
        <ele>190</ele>
        <time>2017-10-07T10:34:23Z</time>
      </trkpt>
      <trkpt lat="43.27765" lon="1.34794">
        <ele>190</ele>
        <time>2017-10-07T10:34:59Z</time>
      </trkpt>
      <trkpt lat="43.27765" lon="1.34796">
        <ele>190</ele>
        <time>2017-10-07T10:35:00Z</time>
      </trkpt>
      <trkpt lat="43.27766" lon="1.34797">
        <ele>190</ele>
        <time>2017-10-07T10:35:01Z</time>
      </trkpt>
      <trkpt lat="43.27767" lon="1.34796">
        <ele>190</ele>
        <time>2017-10-07T10:35:04Z</time>
      </trkpt>
      <trkpt lat="43.27767" lon="1.34794">
        <ele>190</ele>
        <time>2017-10-07T10:37:27Z</time>
      </trkpt>
      <trkpt lat="43.27763" lon="1.34793">
        <ele>190</ele>
        <time>2017-10-07T10:37:30Z</time>
      </trkpt>
      <trkpt lat="43.27753" lon="1.34791">
        <ele>190</ele>
        <time>2017-10-07T10:37:35Z</time>
      </trkpt>
      <trkpt lat="43.27749" lon="1.3479">
        <ele>190</ele>
        <time>2017-10-07T10:37:37Z</time>
      </trkpt>
      <trkpt lat="43.27748" lon="1.34788">
        <ele>190</ele>
        <time>2017-10-07T10:37:38Z</time>
      </trkpt>
      <trkpt lat="43.27749" lon="1.34782">
        <ele>190</ele>
        <time>2017-10-07T10:37:40Z</time>
      </trkpt>
      <trkpt lat="43.2775" lon="1.34771">
        <ele>190</ele>
        <time>2017-10-07T10:37:43Z</time>
      </trkpt>
      <trkpt lat="43.2775" lon="1.34763">
        <ele>190</ele>
        <time>2017-10-07T10:37:45Z</time>
      </trkpt>
      <trkpt lat="43.2775" lon="1.34759">
        <ele>191</ele>
        <time>2017-10-07T10:37:46Z</time>
      </trkpt>
      <trkpt lat="43.2775" lon="1.34755">
        <ele>191</ele>
        <time>2017-10-07T10:37:47Z</time>
      </trkpt>
      <trkpt lat="43.27751" lon="1.3475">
        <ele>192</ele>
        <time>2017-10-07T10:37:48Z</time>
      </trkpt>
      <trkpt lat="43.27751" lon="1.34746">
        <ele>192</ele>
        <time>2017-10-07T10:37:49Z</time>
      </trkpt>
      <trkpt lat="43.27751" lon="1.34732">
        <ele>192</ele>
        <time>2017-10-07T10:37:53Z</time>
      </trkpt>
      <trkpt lat="43.27751" lon="1.34717">
        <ele>192</ele>
        <time>2017-10-07T10:37:58Z</time>
      </trkpt>
      <trkpt lat="43.27752" lon="1.34715">
        <ele>192</ele>
        <time>2017-10-07T10:37:59Z</time>
      </trkpt>
      <trkpt lat="43.27755" lon="1.34715">
        <ele>192</ele>
        <time>2017-10-07T10:38:00Z</time>
      </trkpt>
      <trkpt lat="43.27762" lon="1.34716">
        <ele>192</ele>
        <time>2017-10-07T10:38:02Z</time>
      </trkpt>
      <trkpt lat="43.27783" lon="1.34718">
        <ele>192</ele>
        <time>2017-10-07T10:38:07Z</time>
      </trkpt>
      <trkpt lat="43.27787" lon="1.34718">
        <ele>192</ele>
        <time>2017-10-07T10:38:08Z</time>
      </trkpt>
      <trkpt lat="43.27819" lon="1.34722">
        <ele>192</ele>
        <time>2017-10-07T10:38:15Z</time>
      </trkpt>
      <trkpt lat="43.27823" lon="1.3472">
        <ele>192</ele>
        <time>2017-10-07T10:38:16Z</time>
      </trkpt>
      <trkpt lat="43.27826" lon="1.34709">
        <ele>192</ele>
        <time>2017-10-07T10:38:18Z</time>
      </trkpt>
      <trkpt lat="43.27825" lon="1.34692">
        <ele>192</ele>
        <time>2017-10-07T10:38:21Z</time>
      </trkpt>
      <trkpt lat="43.27825" lon="1.3468">
        <ele>192</ele>
        <time>2017-10-07T10:38:23Z</time>
      </trkpt>
      <trkpt lat="43.27823" lon="1.34641">
        <ele>192</ele>
        <time>2017-10-07T10:38:30Z</time>
      </trkpt>
      <trkpt lat="43.27823" lon="1.34636">
        <ele>193</ele>
        <time>2017-10-07T10:38:31Z</time>
      </trkpt>
      <trkpt lat="43.27823" lon="1.3463">
        <ele>193</ele>
        <time>2017-10-07T10:38:32Z</time>
      </trkpt>
      <trkpt lat="43.27822" lon="1.34624">
        <ele>194</ele>
        <time>2017-10-07T10:38:33Z</time>
      </trkpt>
      <trkpt lat="43.27822" lon="1.34619">
        <ele>194</ele>
        <time>2017-10-07T10:38:34Z</time>
      </trkpt>
      <trkpt lat="43.27822" lon="1.34596">
        <ele>194</ele>
        <time>2017-10-07T10:38:38Z</time>
      </trkpt>
      <trkpt lat="43.2782" lon="1.34561">
        <ele>194</ele>
        <time>2017-10-07T10:38:45Z</time>
      </trkpt>
      <trkpt lat="43.2782" lon="1.34556">
        <ele>194</ele>
        <time>2017-10-07T10:38:46Z</time>
      </trkpt>
      <trkpt lat="43.2782" lon="1.34552">
        <ele>195</ele>
        <time>2017-10-07T10:38:47Z</time>
      </trkpt>
      <trkpt lat="43.2782" lon="1.34547">
        <ele>195</ele>
        <time>2017-10-07T10:38:48Z</time>
      </trkpt>
      <trkpt lat="43.2782" lon="1.34542">
        <ele>196</ele>
        <time>2017-10-07T10:38:49Z</time>
      </trkpt>
      <trkpt lat="43.2782" lon="1.34537">
        <ele>196</ele>
        <time>2017-10-07T10:38:50Z</time>
      </trkpt>
      <trkpt lat="43.27817" lon="1.34528">
        <ele>196</ele>
        <time>2017-10-07T10:38:52Z</time>
      </trkpt>
      <trkpt lat="43.27804" lon="1.34505">
        <ele>196</ele>
        <time>2017-10-07T10:38:58Z</time>
      </trkpt>
      <trkpt lat="43.27802" lon="1.34501">
        <ele>197</ele>
        <time>2017-10-07T10:38:59Z</time>
      </trkpt>
      <trkpt lat="43.278" lon="1.34497">
        <ele>197</ele>
        <time>2017-10-07T10:39:00Z</time>
      </trkpt>
      <trkpt lat="43.27797" lon="1.34493">
        <ele>198</ele>
        <time>2017-10-07T10:39:01Z</time>
      </trkpt>
      <trkpt lat="43.27795" lon="1.34489">
        <ele>198</ele>
        <time>2017-10-07T10:39:02Z</time>
      </trkpt>
      <trkpt lat="43.27791" lon="1.34479">
        <ele>198</ele>
        <time>2017-10-07T10:39:05Z</time>
      </trkpt>
      <trkpt lat="43.27793" lon="1.34474">
        <ele>198</ele>
        <time>2017-10-07T10:39:06Z</time>
      </trkpt>
      <trkpt lat="43.27801" lon="1.34463">
        <ele>198</ele>
        <time>2017-10-07T10:39:09Z</time>
      </trkpt>
      <trkpt lat="43.27804" lon="1.3446">
        <ele>198</ele>
        <time>2017-10-07T10:39:10Z</time>
      </trkpt>
      <trkpt lat="43.27814" lon="1.34451">
        <ele>198</ele>
        <time>2017-10-07T10:39:13Z</time>
      </trkpt>
      <trkpt lat="43.27825" lon="1.34439">
        <ele>198</ele>
        <time>2017-10-07T10:39:16Z</time>
      </trkpt>
      <trkpt lat="43.27847" lon="1.34419">
        <ele>198</ele>
        <time>2017-10-07T10:39:22Z</time>
      </trkpt>
      <trkpt lat="43.27878" lon="1.3439">
        <ele>198</ele>
        <time>2017-10-07T10:39:31Z</time>
      </trkpt>
      <trkpt lat="43.279" lon="1.3437">
        <ele>198</ele>
        <time>2017-10-07T10:39:37Z</time>
      </trkpt>
      <trkpt lat="43.27904" lon="1.34367">
        <ele>198</ele>
        <time>2017-10-07T10:39:38Z</time>
      </trkpt>
      <trkpt lat="43.27907" lon="1.34365">
        <ele>198</ele>
        <time>2017-10-07T10:39:39Z</time>
      </trkpt>
      <trkpt lat="43.27929" lon="1.34358">
        <ele>198</ele>
        <time>2017-10-07T10:39:44Z</time>
      </trkpt>
      <trkpt lat="43.27934" lon="1.34358">
        <ele>198</ele>
        <time>2017-10-07T10:39:45Z</time>
      </trkpt>
      <trkpt lat="43.27967" lon="1.34355">
        <ele>198</ele>
        <time>2017-10-07T10:39:52Z</time>
      </trkpt>
      <trkpt lat="43.28001" lon="1.34357">
        <ele>198</ele>
        <time>2017-10-07T10:39:59Z</time>
      </trkpt>
      <trkpt lat="43.28006" lon="1.34356">
        <ele>198</ele>
        <time>2017-10-07T10:40:00Z</time>
      </trkpt>
      <trkpt lat="43.28016" lon="1.34356">
        <ele>198</ele>
        <time>2017-10-07T10:40:02Z</time>
      </trkpt>
      <trkpt lat="43.28027" lon="1.34356">
        <ele>198</ele>
        <time>2017-10-07T10:40:04Z</time>
      </trkpt>
      <trkpt lat="43.28061" lon="1.34354">
        <ele>198</ele>
        <time>2017-10-07T10:40:10Z</time>
      </trkpt>
      <trkpt lat="43.28097" lon="1.34348">
        <ele>198</ele>
        <time>2017-10-07T10:40:17Z</time>
      </trkpt>
      <trkpt lat="43.28128" lon="1.34338">
        <ele>198</ele>
        <time>2017-10-07T10:40:23Z</time>
      </trkpt>
      <trkpt lat="43.28159" lon="1.34329">
        <ele>198</ele>
        <time>2017-10-07T10:40:29Z</time>
      </trkpt>
      <trkpt lat="43.28164" lon="1.34329">
        <ele>198</ele>
        <time>2017-10-07T10:40:30Z</time>
      </trkpt>
      <trkpt lat="43.28181" lon="1.34334">
        <ele>198</ele>
        <time>2017-10-07T10:40:33Z</time>
      </trkpt>
      <trkpt lat="43.28197" lon="1.34345">
        <ele>198</ele>
        <time>2017-10-07T10:40:36Z</time>
      </trkpt>
      <trkpt lat="43.28203" lon="1.3435">
        <ele>198</ele>
        <time>2017-10-07T10:40:37Z</time>
      </trkpt>
      <trkpt lat="43.28214" lon="1.3436">
        <ele>198</ele>
        <time>2017-10-07T10:40:39Z</time>
      </trkpt>
      <trkpt lat="43.2822" lon="1.34365">
        <ele>197</ele>
        <time>2017-10-07T10:40:40Z</time>
      </trkpt>
      <trkpt lat="43.28226" lon="1.34369">
        <ele>197</ele>
        <time>2017-10-07T10:40:41Z</time>
      </trkpt>
      <trkpt lat="43.28232" lon="1.34374">
        <ele>196</ele>
        <time>2017-10-07T10:40:42Z</time>
      </trkpt>
      <trkpt lat="43.28239" lon="1.34378">
        <ele>196</ele>
        <time>2017-10-07T10:40:43Z</time>
      </trkpt>
      <trkpt lat="43.28247" lon="1.3438">
        <ele>196</ele>
        <time>2017-10-07T10:40:44Z</time>
      </trkpt>
      <trkpt lat="43.28262" lon="1.34382">
        <ele>196</ele>
        <time>2017-10-07T10:40:46Z</time>
      </trkpt>
      <trkpt lat="43.2827" lon="1.34383">
        <ele>195</ele>
        <time>2017-10-07T10:40:47Z</time>
      </trkpt>
      <trkpt lat="43.28277" lon="1.34383">
        <ele>195</ele>
        <time>2017-10-07T10:40:48Z</time>
      </trkpt>
      <trkpt lat="43.28284" lon="1.34383">
        <ele>194</ele>
        <time>2017-10-07T10:40:49Z</time>
      </trkpt>
      <trkpt lat="43.28291" lon="1.34384">
        <ele>194</ele>
        <time>2017-10-07T10:40:50Z</time>
      </trkpt>
      <trkpt lat="43.28311" lon="1.34385">
        <ele>194</ele>
        <time>2017-10-07T10:40:53Z</time>
      </trkpt>
      <trkpt lat="43.28343" lon="1.34384">
        <ele>194</ele>
        <time>2017-10-07T10:40:59Z</time>
      </trkpt>
      <trkpt lat="43.28358" lon="1.34382">
        <ele>194</ele>
        <time>2017-10-07T10:41:02Z</time>
      </trkpt>
      <trkpt lat="43.28378" lon="1.34378">
        <ele>194</ele>
        <time>2017-10-07T10:41:06Z</time>
      </trkpt>
      <trkpt lat="43.28383" lon="1.34377">
        <ele>194</ele>
        <time>2017-10-07T10:41:07Z</time>
      </trkpt>
      <trkpt lat="43.28403" lon="1.34374">
        <ele>194</ele>
        <time>2017-10-07T10:41:11Z</time>
      </trkpt>
      <trkpt lat="43.28432" lon="1.3437">
        <ele>195</ele>
        <time>2017-10-07T10:41:17Z</time>
      </trkpt>
      <trkpt lat="43.28437" lon="1.3437">
        <ele>195</ele>
        <time>2017-10-07T10:41:18Z</time>
      </trkpt>
      <trkpt lat="43.28442" lon="1.34368">
        <ele>195</ele>
        <time>2017-10-07T10:41:19Z</time>
      </trkpt>
      <trkpt lat="43.28447" lon="1.34368">
        <ele>196</ele>
        <time>2017-10-07T10:41:20Z</time>
      </trkpt>
      <trkpt lat="43.28473" lon="1.34365">
        <ele>196</ele>
        <time>2017-10-07T10:41:25Z</time>
      </trkpt>
      <trkpt lat="43.28518" lon="1.34359">
        <ele>196</ele>
        <time>2017-10-07T10:41:34Z</time>
      </trkpt>
      <trkpt lat="43.28555" lon="1.34359">
        <ele>196</ele>
        <time>2017-10-07T10:41:41Z</time>
      </trkpt>
      <trkpt lat="43.2857" lon="1.3436">
        <ele>195</ele>
        <time>2017-10-07T10:41:44Z</time>
      </trkpt>
      <trkpt lat="43.28575" lon="1.34361">
        <ele>195</ele>
        <time>2017-10-07T10:41:45Z</time>
      </trkpt>
      <trkpt lat="43.28581" lon="1.34362">
        <ele>194</ele>
        <time>2017-10-07T10:41:46Z</time>
      </trkpt>
      <trkpt lat="43.28586" lon="1.34363">
        <ele>194</ele>
        <time>2017-10-07T10:41:47Z</time>
      </trkpt>
      <trkpt lat="43.28591" lon="1.34363">
        <ele>194</ele>
        <time>2017-10-07T10:41:48Z</time>
      </trkpt>
      <trkpt lat="43.28596" lon="1.34362">
        <ele>194</ele>
        <time>2017-10-07T10:41:49Z</time>
      </trkpt>
      <trkpt lat="43.28609" lon="1.34349">
        <ele>194</ele>
        <time>2017-10-07T10:41:52Z</time>
      </trkpt>
      <trkpt lat="43.28615" lon="1.34329">
        <ele>194</ele>
        <time>2017-10-07T10:41:55Z</time>
      </trkpt>
      <trkpt lat="43.28617" lon="1.34322">
        <ele>194</ele>
        <time>2017-10-07T10:41:56Z</time>
      </trkpt>
      <trkpt lat="43.2863" lon="1.34266">
        <ele>194</ele>
        <time>2017-10-07T10:42:04Z</time>
      </trkpt>
      <trkpt lat="43.28635" lon="1.34209">
        <ele>194</ele>
        <time>2017-10-07T10:42:12Z</time>
      </trkpt>
      <trkpt lat="43.28635" lon="1.34181">
        <ele>194</ele>
        <time>2017-10-07T10:42:16Z</time>
      </trkpt>
      <trkpt lat="43.28635" lon="1.3416">
        <ele>194</ele>
        <time>2017-10-07T10:42:19Z</time>
      </trkpt>
      <trkpt lat="43.28635" lon="1.34154">
        <ele>194</ele>
        <time>2017-10-07T10:42:20Z</time>
      </trkpt>
      <trkpt lat="43.28634" lon="1.34147">
        <ele>195</ele>
        <time>2017-10-07T10:42:21Z</time>
      </trkpt>
      <trkpt lat="43.28634" lon="1.34141">
        <ele>195</ele>
        <time>2017-10-07T10:42:22Z</time>
      </trkpt>
      <trkpt lat="43.28633" lon="1.34134">
        <ele>196</ele>
        <time>2017-10-07T10:42:23Z</time>
      </trkpt>
      <trkpt lat="43.28629" lon="1.34114">
        <ele>196</ele>
        <time>2017-10-07T10:42:26Z</time>
      </trkpt>
      <trkpt lat="43.28622" lon="1.34084">
        <ele>197</ele>
        <time>2017-10-07T10:42:31Z</time>
      </trkpt>
      <trkpt lat="43.2862" lon="1.34078">
        <ele>197</ele>
        <time>2017-10-07T10:42:32Z</time>
      </trkpt>
      <trkpt lat="43.28619" lon="1.34072">
        <ele>197</ele>
        <time>2017-10-07T10:42:33Z</time>
      </trkpt>
      <trkpt lat="43.28618" lon="1.34066">
        <ele>198</ele>
        <time>2017-10-07T10:42:34Z</time>
      </trkpt>
      <trkpt lat="43.28614" lon="1.34029">
        <ele>198</ele>
        <time>2017-10-07T10:42:40Z</time>
      </trkpt>
      <trkpt lat="43.28615" lon="1.33999">
        <ele>198</ele>
        <time>2017-10-07T10:42:45Z</time>
      </trkpt>
      <trkpt lat="43.28614" lon="1.33993">
        <ele>199</ele>
        <time>2017-10-07T10:42:46Z</time>
      </trkpt>
      <trkpt lat="43.28614" lon="1.33987">
        <ele>199</ele>
        <time>2017-10-07T10:42:47Z</time>
      </trkpt>
      <trkpt lat="43.28614" lon="1.33982">
        <ele>199</ele>
        <time>2017-10-07T10:42:48Z</time>
      </trkpt>
      <trkpt lat="43.28613" lon="1.33976">
        <ele>200</ele>
        <time>2017-10-07T10:42:49Z</time>
      </trkpt>
      <trkpt lat="43.28611" lon="1.33951">
        <ele>200</ele>
        <time>2017-10-07T10:42:54Z</time>
      </trkpt>
      <trkpt lat="43.28609" lon="1.3394">
        <ele>200</ele>
        <time>2017-10-07T10:42:57Z</time>
      </trkpt>
      <trkpt lat="43.28609" lon="1.33938">
        <ele>201</ele>
        <time>2017-10-07T10:42:58Z</time>
      </trkpt>
      <trkpt lat="43.28608" lon="1.33935">
        <ele>201</ele>
        <time>2017-10-07T10:42:59Z</time>
      </trkpt>
      <trkpt lat="43.28608" lon="1.33934">
        <ele>201</ele>
        <time>2017-10-07T10:43:00Z</time>
      </trkpt>
      <trkpt lat="43.28608" lon="1.33934">
        <ele>202</ele>
        <time>2017-10-07T10:43:01Z</time>
      </trkpt>
      <trkpt lat="43.28608" lon="1.33934">
        <ele>202</ele>
        <time>2017-10-07T10:44:04Z</time>
      </trkpt>
      <trkpt lat="43.28609" lon="1.33934">
        <ele>202</ele>
        <time>2017-10-07T10:44:05Z</time>
      </trkpt>
      <trkpt lat="43.28609" lon="1.33934">
        <ele>202</ele>
        <time>2017-10-07T10:44:06Z</time>
      </trkpt>
      <trkpt lat="43.2861" lon="1.33934">
        <ele>202</ele>
        <time>2017-10-07T10:44:15Z</time>
      </trkpt>
      <trkpt lat="43.28612" lon="1.33934">
        <ele>202</ele>
        <time>2017-10-07T10:44:17Z</time>
      </trkpt>
      <trkpt lat="43.28623" lon="1.33927">
        <ele>202</ele>
        <time>2017-10-07T10:44:22Z</time>
      </trkpt>
      <trkpt lat="43.28643" lon="1.33918">
        <ele>202</ele>
        <time>2017-10-07T10:44:28Z</time>
      </trkpt>
      <trkpt lat="43.28661" lon="1.3391">
        <ele>202</ele>
        <time>2017-10-07T10:44:33Z</time>
      </trkpt>
      <trkpt lat="43.28681" lon="1.339">
        <ele>202</ele>
        <time>2017-10-07T10:44:38Z</time>
      </trkpt>
      <trkpt lat="43.28684" lon="1.33897">
        <ele>203</ele>
        <time>2017-10-07T10:44:39Z</time>
      </trkpt>
      <trkpt lat="43.28687" lon="1.33894">
        <ele>203</ele>
        <time>2017-10-07T10:44:40Z</time>
      </trkpt>
      <trkpt lat="43.2869" lon="1.3389">
        <ele>203</ele>
        <time>2017-10-07T10:44:41Z</time>
      </trkpt>
      <trkpt lat="43.28691" lon="1.33884">
        <ele>204</ele>
        <time>2017-10-07T10:44:42Z</time>
      </trkpt>
      <trkpt lat="43.2869" lon="1.33878">
        <ele>204</ele>
        <time>2017-10-07T10:44:43Z</time>
      </trkpt>
      <trkpt lat="43.28687" lon="1.33866">
        <ele>204</ele>
        <time>2017-10-07T10:44:45Z</time>
      </trkpt>
      <trkpt lat="43.28683" lon="1.33835">
        <ele>204</ele>
        <time>2017-10-07T10:44:51Z</time>
      </trkpt>
      <trkpt lat="43.28685" lon="1.3383">
        <ele>204</ele>
        <time>2017-10-07T10:44:52Z</time>
      </trkpt>
      <trkpt lat="43.28698" lon="1.33826">
        <ele>204</ele>
        <time>2017-10-07T10:44:55Z</time>
      </trkpt>
      <trkpt lat="43.28707" lon="1.33822">
        <ele>204</ele>
        <time>2017-10-07T10:44:57Z</time>
      </trkpt>
      <trkpt lat="43.28711" lon="1.33819">
        <ele>205</ele>
        <time>2017-10-07T10:44:58Z</time>
      </trkpt>
      <trkpt lat="43.28715" lon="1.33815">
        <ele>205</ele>
        <time>2017-10-07T10:44:59Z</time>
      </trkpt>
      <trkpt lat="43.28719" lon="1.33812">
        <ele>205</ele>
        <time>2017-10-07T10:45:00Z</time>
      </trkpt>
      <trkpt lat="43.28722" lon="1.3381">
        <ele>206</ele>
        <time>2017-10-07T10:45:01Z</time>
      </trkpt>
      <trkpt lat="43.2874" lon="1.33795">
        <ele>206</ele>
        <time>2017-10-07T10:45:06Z</time>
      </trkpt>
      <trkpt lat="43.28766" lon="1.33778">
        <ele>206</ele>
        <time>2017-10-07T10:45:13Z</time>
      </trkpt>
      <trkpt lat="43.28769" lon="1.33776">
        <ele>206</ele>
        <time>2017-10-07T10:45:14Z</time>
      </trkpt>
      <trkpt lat="43.28773" lon="1.33772">
        <ele>206</ele>
        <time>2017-10-07T10:45:15Z</time>
      </trkpt>
      <trkpt lat="43.28777" lon="1.3377">
        <ele>206</ele>
        <time>2017-10-07T10:45:16Z</time>
      </trkpt>
      <trkpt lat="43.28782" lon="1.33767">
        <ele>206</ele>
        <time>2017-10-07T10:45:17Z</time>
      </trkpt>
      <trkpt lat="43.28791" lon="1.3376">
        <ele>206</ele>
        <time>2017-10-07T10:45:19Z</time>
      </trkpt>
      <trkpt lat="43.28804" lon="1.33751">
        <ele>206</ele>
        <time>2017-10-07T10:45:22Z</time>
      </trkpt>
      <trkpt lat="43.28822" lon="1.33736">
        <ele>206</ele>
        <time>2017-10-07T10:45:26Z</time>
      </trkpt>
      <trkpt lat="43.28854" lon="1.33711">
        <ele>206</ele>
        <time>2017-10-07T10:45:33Z</time>
      </trkpt>
      <trkpt lat="43.28881" lon="1.33692">
        <ele>206</ele>
        <time>2017-10-07T10:45:39Z</time>
      </trkpt>
      <trkpt lat="43.28896" lon="1.3368">
        <ele>206</ele>
        <time>2017-10-07T10:45:43Z</time>
      </trkpt>
      <trkpt lat="43.28898" lon="1.33676">
        <ele>206</ele>
        <time>2017-10-07T10:45:44Z</time>
      </trkpt>
      <trkpt lat="43.28895" lon="1.33667">
        <ele>206</ele>
        <time>2017-10-07T10:45:46Z</time>
      </trkpt>
      <trkpt lat="43.28891" lon="1.33659">
        <ele>206</ele>
        <time>2017-10-07T10:45:48Z</time>
      </trkpt>
      <trkpt lat="43.28884" lon="1.33644">
        <ele>206</ele>
        <time>2017-10-07T10:45:52Z</time>
      </trkpt>
      <trkpt lat="43.28877" lon="1.33625">
        <ele>206</ele>
        <time>2017-10-07T10:45:57Z</time>
      </trkpt>
      <trkpt lat="43.28876" lon="1.33621">
        <ele>207</ele>
        <time>2017-10-07T10:45:58Z</time>
      </trkpt>
      <trkpt lat="43.28874" lon="1.33618">
        <ele>207</ele>
        <time>2017-10-07T10:45:59Z</time>
      </trkpt>
      <trkpt lat="43.28873" lon="1.33614">
        <ele>208</ele>
        <time>2017-10-07T10:46:00Z</time>
      </trkpt>
      <trkpt lat="43.28871" lon="1.3361">
        <ele>208</ele>
        <time>2017-10-07T10:46:01Z</time>
      </trkpt>
      <trkpt lat="43.28866" lon="1.33592">
        <ele>208</ele>
        <time>2017-10-07T10:46:06Z</time>
      </trkpt>
      <trkpt lat="43.28865" lon="1.33589">
        <ele>209</ele>
        <time>2017-10-07T10:46:07Z</time>
      </trkpt>
      <trkpt lat="43.28863" lon="1.33587">
        <ele>209</ele>
        <time>2017-10-07T10:46:08Z</time>
      </trkpt>
      <trkpt lat="43.28862" lon="1.33584">
        <ele>210</ele>
        <time>2017-10-07T10:46:09Z</time>
      </trkpt>
      <trkpt lat="43.2886" lon="1.33582">
        <ele>210</ele>
        <time>2017-10-07T10:46:10Z</time>
      </trkpt>
      <trkpt lat="43.28857" lon="1.33576">
        <ele>211</ele>
        <time>2017-10-07T10:46:12Z</time>
      </trkpt>
      <trkpt lat="43.28855" lon="1.33574">
        <ele>211</ele>
        <time>2017-10-07T10:46:13Z</time>
      </trkpt>
      <trkpt lat="43.28853" lon="1.33571">
        <ele>211</ele>
        <time>2017-10-07T10:46:14Z</time>
      </trkpt>
      <trkpt lat="43.28851" lon="1.33568">
        <ele>212</ele>
        <time>2017-10-07T10:46:15Z</time>
      </trkpt>
      <trkpt lat="43.28849" lon="1.33565">
        <ele>212</ele>
        <time>2017-10-07T10:46:16Z</time>
      </trkpt>
      <trkpt lat="43.28841" lon="1.33548">
        <ele>213</ele>
        <time>2017-10-07T10:46:22Z</time>
      </trkpt>
      <trkpt lat="43.28839" lon="1.33545">
        <ele>213</ele>
        <time>2017-10-07T10:46:23Z</time>
      </trkpt>
      <trkpt lat="43.28838" lon="1.33543">
        <ele>214</ele>
        <time>2017-10-07T10:46:24Z</time>
      </trkpt>
      <trkpt lat="43.28836" lon="1.33541">
        <ele>214</ele>
        <time>2017-10-07T10:46:25Z</time>
      </trkpt>
      <trkpt lat="43.28834" lon="1.3354">
        <ele>214</ele>
        <time>2017-10-07T10:46:26Z</time>
      </trkpt>
      <trkpt lat="43.28829" lon="1.33539">
        <ele>214</ele>
        <time>2017-10-07T10:46:28Z</time>
      </trkpt>
      <trkpt lat="43.28821" lon="1.33541">
        <ele>215</ele>
        <time>2017-10-07T10:46:31Z</time>
      </trkpt>
      <trkpt lat="43.28818" lon="1.33541">
        <ele>215</ele>
        <time>2017-10-07T10:46:32Z</time>
      </trkpt>
      <trkpt lat="43.28816" lon="1.33542">
        <ele>216</ele>
        <time>2017-10-07T10:46:33Z</time>
      </trkpt>
      <trkpt lat="43.28814" lon="1.33545">
        <ele>216</ele>
        <time>2017-10-07T10:46:34Z</time>
      </trkpt>
      <trkpt lat="43.28812" lon="1.33547">
        <ele>216</ele>
        <time>2017-10-07T10:46:35Z</time>
      </trkpt>
      <trkpt lat="43.28805" lon="1.33553">
        <ele>216</ele>
        <time>2017-10-07T10:46:38Z</time>
      </trkpt>
      <trkpt lat="43.28794" lon="1.33557">
        <ele>216</ele>
        <time>2017-10-07T10:46:42Z</time>
      </trkpt>
      <trkpt lat="43.28793" lon="1.33553">
        <ele>216</ele>
        <time>2017-10-07T10:46:43Z</time>
      </trkpt>
      <trkpt lat="43.28791" lon="1.33543">
        <ele>217</ele>
        <time>2017-10-07T10:46:46Z</time>
      </trkpt>
      <trkpt lat="43.2879" lon="1.3354">
        <ele>217</ele>
        <time>2017-10-07T10:46:47Z</time>
      </trkpt>
      <trkpt lat="43.2879" lon="1.33537">
        <ele>218</ele>
        <time>2017-10-07T10:46:48Z</time>
      </trkpt>
      <trkpt lat="43.28789" lon="1.33533">
        <ele>218</ele>
        <time>2017-10-07T10:46:49Z</time>
      </trkpt>
      <trkpt lat="43.28788" lon="1.33529">
        <ele>219</ele>
        <time>2017-10-07T10:46:50Z</time>
      </trkpt>
      <trkpt lat="43.28783" lon="1.33512">
        <ele>219</ele>
        <time>2017-10-07T10:46:55Z</time>
      </trkpt>
      <trkpt lat="43.28778" lon="1.33494">
        <ele>219</ele>
        <time>2017-10-07T10:47:00Z</time>
      </trkpt>
      <trkpt lat="43.28777" lon="1.3349">
        <ele>220</ele>
        <time>2017-10-07T10:47:01Z</time>
      </trkpt>
      <trkpt lat="43.28776" lon="1.33487">
        <ele>220</ele>
        <time>2017-10-07T10:47:02Z</time>
      </trkpt>
      <trkpt lat="43.28775" lon="1.33483">
        <ele>221</ele>
        <time>2017-10-07T10:47:03Z</time>
      </trkpt>
      <trkpt lat="43.28769" lon="1.33465">
        <ele>221</ele>
        <time>2017-10-07T10:47:08Z</time>
      </trkpt>
      <trkpt lat="43.28759" lon="1.33429">
        <ele>221</ele>
        <time>2017-10-07T10:47:17Z</time>
      </trkpt>
      <trkpt lat="43.28748" lon="1.33391">
        <ele>221</ele>
        <time>2017-10-07T10:47:26Z</time>
      </trkpt>
      <trkpt lat="43.28738" lon="1.33358">
        <ele>221</ele>
        <time>2017-10-07T10:47:34Z</time>
      </trkpt>
      <trkpt lat="43.28737" lon="1.33354">
        <ele>221</ele>
        <time>2017-10-07T10:47:35Z</time>
      </trkpt>
      <trkpt lat="43.28736" lon="1.3335">
        <ele>221</ele>
        <time>2017-10-07T10:47:36Z</time>
      </trkpt>
      <trkpt lat="43.28734" lon="1.33346">
        <ele>222</ele>
        <time>2017-10-07T10:47:37Z</time>
      </trkpt>
      <trkpt lat="43.28734" lon="1.33342">
        <ele>222</ele>
        <time>2017-10-07T10:47:38Z</time>
      </trkpt>
      <trkpt lat="43.28733" lon="1.33338">
        <ele>223</ele>
        <time>2017-10-07T10:47:39Z</time>
      </trkpt>
      <trkpt lat="43.28731" lon="1.3333">
        <ele>223</ele>
        <time>2017-10-07T10:47:41Z</time>
      </trkpt>
      <trkpt lat="43.28718" lon="1.33296">
        <ele>223</ele>
        <time>2017-10-07T10:47:50Z</time>
      </trkpt>
      <trkpt lat="43.28713" lon="1.33286">
        <ele>223</ele>
        <time>2017-10-07T10:47:53Z</time>
      </trkpt>
      <trkpt lat="43.28711" lon="1.33283">
        <ele>224</ele>
        <time>2017-10-07T10:47:54Z</time>
      </trkpt>
      <trkpt lat="43.2871" lon="1.33279">
        <ele>224</ele>
        <time>2017-10-07T10:47:55Z</time>
      </trkpt>
      <trkpt lat="43.28709" lon="1.33276">
        <ele>224</ele>
        <time>2017-10-07T10:47:56Z</time>
      </trkpt>
      <trkpt lat="43.28707" lon="1.33273">
        <ele>225</ele>
        <time>2017-10-07T10:47:57Z</time>
      </trkpt>
      <trkpt lat="43.287" lon="1.33264">
        <ele>225</ele>
        <time>2017-10-07T10:48:01Z</time>
      </trkpt>
      <trkpt lat="43.28698" lon="1.33265">
        <ele>225</ele>
        <time>2017-10-07T10:48:02Z</time>
      </trkpt>
      <trkpt lat="43.28695" lon="1.33267">
        <ele>225</ele>
        <time>2017-10-07T10:48:03Z</time>
      </trkpt>
      <trkpt lat="43.28691" lon="1.33274">
        <ele>225</ele>
        <time>2017-10-07T10:48:05Z</time>
      </trkpt>
      <trkpt lat="43.28681" lon="1.33284">
        <ele>225</ele>
        <time>2017-10-07T10:48:09Z</time>
      </trkpt>
      <trkpt lat="43.28678" lon="1.33285">
        <ele>225</ele>
        <time>2017-10-07T10:48:10Z</time>
      </trkpt>
      <trkpt lat="43.28675" lon="1.33287">
        <ele>226</ele>
        <time>2017-10-07T10:48:11Z</time>
      </trkpt>
      <trkpt lat="43.28672" lon="1.33289">
        <ele>226</ele>
        <time>2017-10-07T10:48:12Z</time>
      </trkpt>
      <trkpt lat="43.28669" lon="1.3329">
        <ele>226</ele>
        <time>2017-10-07T10:48:13Z</time>
      </trkpt>
      <trkpt lat="43.28666" lon="1.33291">
        <ele>227</ele>
        <time>2017-10-07T10:48:14Z</time>
      </trkpt>
      <trkpt lat="43.28649" lon="1.333">
        <ele>227</ele>
        <time>2017-10-07T10:48:20Z</time>
      </trkpt>
      <trkpt lat="43.28643" lon="1.33303">
        <ele>227</ele>
        <time>2017-10-07T10:48:22Z</time>
      </trkpt>
      <trkpt lat="43.2864" lon="1.33304">
        <ele>228</ele>
        <time>2017-10-07T10:48:23Z</time>
      </trkpt>
      <trkpt lat="43.28638" lon="1.33306">
        <ele>228</ele>
        <time>2017-10-07T10:48:24Z</time>
      </trkpt>
      <trkpt lat="43.28635" lon="1.33307">
        <ele>228</ele>
        <time>2017-10-07T10:48:25Z</time>
      </trkpt>
      <trkpt lat="43.28632" lon="1.33309">
        <ele>229</ele>
        <time>2017-10-07T10:48:26Z</time>
      </trkpt>
      <trkpt lat="43.28629" lon="1.33311">
        <ele>229</ele>
        <time>2017-10-07T10:48:27Z</time>
      </trkpt>
      <trkpt lat="43.28605" lon="1.33328">
        <ele>229</ele>
        <time>2017-10-07T10:48:36Z</time>
      </trkpt>
      <trkpt lat="43.28585" lon="1.33334">
        <ele>229</ele>
        <time>2017-10-07T10:48:43Z</time>
      </trkpt>
      <trkpt lat="43.28584" lon="1.33323">
        <ele>229</ele>
        <time>2017-10-07T10:48:46Z</time>
      </trkpt>
      <trkpt lat="43.28592" lon="1.33309">
        <ele>229</ele>
        <time>2017-10-07T10:48:50Z</time>
      </trkpt>
      <trkpt lat="43.28593" lon="1.33306">
        <ele>230</ele>
        <time>2017-10-07T10:48:51Z</time>
      </trkpt>
      <trkpt lat="43.28595" lon="1.33302">
        <ele>230</ele>
        <time>2017-10-07T10:48:52Z</time>
      </trkpt>
      <trkpt lat="43.28597" lon="1.33298">
        <ele>230</ele>
        <time>2017-10-07T10:48:53Z</time>
      </trkpt>
      <trkpt lat="43.28598" lon="1.33294">
        <ele>231</ele>
        <time>2017-10-07T10:48:54Z</time>
      </trkpt>
      <trkpt lat="43.28602" lon="1.33281">
        <ele>231</ele>
        <time>2017-10-07T10:48:57Z</time>
      </trkpt>
      <trkpt lat="43.2861" lon="1.33259">
        <ele>231</ele>
        <time>2017-10-07T10:49:02Z</time>
      </trkpt>
      <trkpt lat="43.28616" lon="1.33245">
        <ele>231</ele>
        <time>2017-10-07T10:49:05Z</time>
      </trkpt>
      <trkpt lat="43.2863" lon="1.33216">
        <ele>231</ele>
        <time>2017-10-07T10:49:11Z</time>
      </trkpt>
      <trkpt lat="43.2865" lon="1.33179">
        <ele>231</ele>
        <time>2017-10-07T10:49:18Z</time>
      </trkpt>
      <trkpt lat="43.28662" lon="1.33156">
        <ele>231</ele>
        <time>2017-10-07T10:49:22Z</time>
      </trkpt>
      <trkpt lat="43.28673" lon="1.33141">
        <ele>231</ele>
        <time>2017-10-07T10:49:25Z</time>
      </trkpt>
      <trkpt lat="43.28685" lon="1.3313">
        <ele>231</ele>
        <time>2017-10-07T10:49:28Z</time>
      </trkpt>
      <trkpt lat="43.28694" lon="1.33125">
        <ele>230</ele>
        <time>2017-10-07T10:49:30Z</time>
      </trkpt>
      <trkpt lat="43.28699" lon="1.33124">
        <ele>230</ele>
        <time>2017-10-07T10:49:31Z</time>
      </trkpt>
      <trkpt lat="43.28703" lon="1.33124">
        <ele>229</ele>
        <time>2017-10-07T10:49:32Z</time>
      </trkpt>
      <trkpt lat="43.28708" lon="1.33125">
        <ele>229</ele>
        <time>2017-10-07T10:49:33Z</time>
      </trkpt>
      <trkpt lat="43.28712" lon="1.33125">
        <ele>229</ele>
        <time>2017-10-07T10:49:34Z</time>
      </trkpt>
      <trkpt lat="43.28717" lon="1.33126">
        <ele>229</ele>
        <time>2017-10-07T10:49:35Z</time>
      </trkpt>
      <trkpt lat="43.28725" lon="1.33125">
        <ele>229</ele>
        <time>2017-10-07T10:49:37Z</time>
      </trkpt>
      <trkpt lat="43.28736" lon="1.3312">
        <ele>229</ele>
        <time>2017-10-07T10:49:40Z</time>
      </trkpt>
      <trkpt lat="43.28748" lon="1.33112">
        <ele>229</ele>
        <time>2017-10-07T10:49:43Z</time>
      </trkpt>
      <trkpt lat="43.28756" lon="1.33104">
        <ele>229</ele>
        <time>2017-10-07T10:49:45Z</time>
      </trkpt>
      <trkpt lat="43.28781" lon="1.33085">
        <ele>229</ele>
        <time>2017-10-07T10:49:50Z</time>
      </trkpt>
      <trkpt lat="43.28785" lon="1.33081">
        <ele>229</ele>
        <time>2017-10-07T10:49:51Z</time>
      </trkpt>
      <trkpt lat="43.2879" lon="1.33076">
        <ele>229</ele>
        <time>2017-10-07T10:49:52Z</time>
      </trkpt>
      <trkpt lat="43.28802" lon="1.33064">
        <ele>229</ele>
        <time>2017-10-07T10:49:55Z</time>
      </trkpt>
      <trkpt lat="43.28811" lon="1.33055">
        <ele>229</ele>
        <time>2017-10-07T10:49:57Z</time>
      </trkpt>
      <trkpt lat="43.28815" lon="1.33051">
        <ele>229</ele>
        <time>2017-10-07T10:49:58Z</time>
      </trkpt>
      <trkpt lat="43.28827" lon="1.33035">
        <ele>229</ele>
        <time>2017-10-07T10:50:01Z</time>
      </trkpt>
      <trkpt lat="43.28833" lon="1.33016">
        <ele>229</ele>
        <time>2017-10-07T10:50:04Z</time>
      </trkpt>
      <trkpt lat="43.28836" lon="1.33002">
        <ele>229</ele>
        <time>2017-10-07T10:50:06Z</time>
      </trkpt>
      <trkpt lat="43.2884" lon="1.32975">
        <ele>229</ele>
        <time>2017-10-07T10:50:10Z</time>
      </trkpt>
      <trkpt lat="43.28846" lon="1.32926">
        <ele>229</ele>
        <time>2017-10-07T10:50:17Z</time>
      </trkpt>
      <trkpt lat="43.28849" lon="1.32898">
        <ele>229</ele>
        <time>2017-10-07T10:50:21Z</time>
      </trkpt>
      <trkpt lat="43.28851" lon="1.32885">
        <ele>229</ele>
        <time>2017-10-07T10:50:23Z</time>
      </trkpt>
      <trkpt lat="43.28854" lon="1.32859">
        <ele>229</ele>
        <time>2017-10-07T10:50:27Z</time>
      </trkpt>
      <trkpt lat="43.28855" lon="1.32853">
        <ele>229</ele>
        <time>2017-10-07T10:50:28Z</time>
      </trkpt>
      <trkpt lat="43.28856" lon="1.32847">
        <ele>230</ele>
        <time>2017-10-07T10:50:29Z</time>
      </trkpt>
      <trkpt lat="43.28856" lon="1.32841">
        <ele>230</ele>
        <time>2017-10-07T10:50:30Z</time>
      </trkpt>
      <trkpt lat="43.28857" lon="1.32835">
        <ele>231</ele>
        <time>2017-10-07T10:50:31Z</time>
      </trkpt>
      <trkpt lat="43.28858" lon="1.32828">
        <ele>231</ele>
        <time>2017-10-07T10:50:32Z</time>
      </trkpt>
      <trkpt lat="43.28861" lon="1.32803">
        <ele>231</ele>
        <time>2017-10-07T10:50:36Z</time>
      </trkpt>
      <trkpt lat="43.28864" lon="1.32777">
        <ele>231</ele>
        <time>2017-10-07T10:50:40Z</time>
      </trkpt>
      <trkpt lat="43.28867" lon="1.32751">
        <ele>231</ele>
        <time>2017-10-07T10:50:44Z</time>
      </trkpt>
      <trkpt lat="43.28868" lon="1.32739">
        <ele>231</ele>
        <time>2017-10-07T10:50:46Z</time>
      </trkpt>
      <trkpt lat="43.28869" lon="1.32732">
        <ele>232</ele>
        <time>2017-10-07T10:50:47Z</time>
      </trkpt>
      <trkpt lat="43.2887" lon="1.32725">
        <ele>232</ele>
        <time>2017-10-07T10:50:48Z</time>
      </trkpt>
      <trkpt lat="43.28871" lon="1.32718">
        <ele>233</ele>
        <time>2017-10-07T10:50:49Z</time>
      </trkpt>
      <trkpt lat="43.28872" lon="1.32712">
        <ele>233</ele>
        <time>2017-10-07T10:50:50Z</time>
      </trkpt>
      <trkpt lat="43.28874" lon="1.32693">
        <ele>233</ele>
        <time>2017-10-07T10:50:53Z</time>
      </trkpt>
      <trkpt lat="43.2888" lon="1.32646">
        <ele>233</ele>
        <time>2017-10-07T10:51:01Z</time>
      </trkpt>
      <trkpt lat="43.28881" lon="1.3264">
        <ele>234</ele>
        <time>2017-10-07T10:51:02Z</time>
      </trkpt>
      <trkpt lat="43.28882" lon="1.32634">
        <ele>234</ele>
        <time>2017-10-07T10:51:03Z</time>
      </trkpt>
      <trkpt lat="43.28883" lon="1.32629">
        <ele>235</ele>
        <time>2017-10-07T10:51:04Z</time>
      </trkpt>
      <trkpt lat="43.28884" lon="1.32623">
        <ele>235</ele>
        <time>2017-10-07T10:51:05Z</time>
      </trkpt>
      <trkpt lat="43.28889" lon="1.32595">
        <ele>235</ele>
        <time>2017-10-07T10:51:10Z</time>
      </trkpt>
      <trkpt lat="43.28892" lon="1.32578">
        <ele>236</ele>
        <time>2017-10-07T10:51:13Z</time>
      </trkpt>
      <trkpt lat="43.28893" lon="1.32573">
        <ele>236</ele>
        <time>2017-10-07T10:51:14Z</time>
      </trkpt>
      <trkpt lat="43.28895" lon="1.32567">
        <ele>236</ele>
        <time>2017-10-07T10:51:15Z</time>
      </trkpt>
      <trkpt lat="43.28896" lon="1.32561">
        <ele>237</ele>
        <time>2017-10-07T10:51:16Z</time>
      </trkpt>
      <trkpt lat="43.28897" lon="1.32555">
        <ele>237</ele>
        <time>2017-10-07T10:51:17Z</time>
      </trkpt>
      <trkpt lat="43.2891" lon="1.32506">
        <ele>238</ele>
        <time>2017-10-07T10:51:26Z</time>
      </trkpt>
      <trkpt lat="43.28911" lon="1.325">
        <ele>238</ele>
        <time>2017-10-07T10:51:27Z</time>
      </trkpt>
      <trkpt lat="43.28913" lon="1.32495">
        <ele>239</ele>
        <time>2017-10-07T10:51:28Z</time>
      </trkpt>
      <trkpt lat="43.28914" lon="1.3249">
        <ele>239</ele>
        <time>2017-10-07T10:51:29Z</time>
      </trkpt>
      <trkpt lat="43.28916" lon="1.32484">
        <ele>239</ele>
        <time>2017-10-07T10:51:30Z</time>
      </trkpt>
      <trkpt lat="43.28922" lon="1.32462">
        <ele>239</ele>
        <time>2017-10-07T10:51:34Z</time>
      </trkpt>
      <trkpt lat="43.28932" lon="1.3243">
        <ele>240</ele>
        <time>2017-10-07T10:51:40Z</time>
      </trkpt>
      <trkpt lat="43.28933" lon="1.32425">
        <ele>240</ele>
        <time>2017-10-07T10:51:41Z</time>
      </trkpt>
      <trkpt lat="43.28935" lon="1.3242">
        <ele>241</ele>
        <time>2017-10-07T10:51:42Z</time>
      </trkpt>
      <trkpt lat="43.28937" lon="1.32415">
        <ele>241</ele>
        <time>2017-10-07T10:51:43Z</time>
      </trkpt>
      <trkpt lat="43.28938" lon="1.3241">
        <ele>241</ele>
        <time>2017-10-07T10:51:44Z</time>
      </trkpt>
      <trkpt lat="43.2894" lon="1.32404">
        <ele>241</ele>
        <time>2017-10-07T10:51:45Z</time>
      </trkpt>
      <trkpt lat="43.28945" lon="1.32387">
        <ele>241</ele>
        <time>2017-10-07T10:51:48Z</time>
      </trkpt>
      <trkpt lat="43.28951" lon="1.32371">
        <ele>241</ele>
        <time>2017-10-07T10:51:51Z</time>
      </trkpt>
      <trkpt lat="43.28969" lon="1.32309">
        <ele>241</ele>
        <time>2017-10-07T10:52:01Z</time>
      </trkpt>
      <trkpt lat="43.28978" lon="1.32281">
        <ele>241</ele>
        <time>2017-10-07T10:52:05Z</time>
      </trkpt>
      <trkpt lat="43.2898" lon="1.32274">
        <ele>241</ele>
        <time>2017-10-07T10:52:06Z</time>
      </trkpt>
      <trkpt lat="43.28986" lon="1.32262">
        <ele>241</ele>
        <time>2017-10-07T10:52:08Z</time>
      </trkpt>
      <trkpt lat="43.2899" lon="1.32257">
        <ele>241</ele>
        <time>2017-10-07T10:52:09Z</time>
      </trkpt>
      <trkpt lat="43.29009" lon="1.32249">
        <ele>241</ele>
        <time>2017-10-07T10:52:13Z</time>
      </trkpt>
      <trkpt lat="43.29018" lon="1.3225">
        <ele>241</ele>
        <time>2017-10-07T10:52:15Z</time>
      </trkpt>
      <trkpt lat="43.29023" lon="1.32252">
        <ele>241</ele>
        <time>2017-10-07T10:52:16Z</time>
      </trkpt>
      <trkpt lat="43.29031" lon="1.32257">
        <ele>241</ele>
        <time>2017-10-07T10:52:18Z</time>
      </trkpt>
      <trkpt lat="43.29038" lon="1.32261">
        <ele>241</ele>
        <time>2017-10-07T10:52:20Z</time>
      </trkpt>
      <trkpt lat="43.29041" lon="1.32263">
        <ele>242</ele>
        <time>2017-10-07T10:52:21Z</time>
      </trkpt>
      <trkpt lat="43.29048" lon="1.32266">
        <ele>243</ele>
        <time>2017-10-07T10:52:23Z</time>
      </trkpt>
      <trkpt lat="43.29051" lon="1.32268">
        <ele>244</ele>
        <time>2017-10-07T10:52:24Z</time>
      </trkpt>
      <trkpt lat="43.29061" lon="1.32274">
        <ele>244</ele>
        <time>2017-10-07T10:52:27Z</time>
      </trkpt>
      <trkpt lat="43.29065" lon="1.32277">
        <ele>244</ele>
        <time>2017-10-07T10:52:28Z</time>
      </trkpt>
      <trkpt lat="43.29069" lon="1.3228">
        <ele>245</ele>
        <time>2017-10-07T10:52:29Z</time>
      </trkpt>
      <trkpt lat="43.29073" lon="1.32282">
        <ele>245</ele>
        <time>2017-10-07T10:52:30Z</time>
      </trkpt>
      <trkpt lat="43.29076" lon="1.32285">
        <ele>246</ele>
        <time>2017-10-07T10:52:31Z</time>
      </trkpt>
      <trkpt lat="43.29095" lon="1.32297">
        <ele>246</ele>
        <time>2017-10-07T10:52:36Z</time>
      </trkpt>
      <trkpt lat="43.29099" lon="1.32299">
        <ele>246</ele>
        <time>2017-10-07T10:52:37Z</time>
      </trkpt>
      <trkpt lat="43.29102" lon="1.32302">
        <ele>247</ele>
        <time>2017-10-07T10:52:38Z</time>
      </trkpt>
      <trkpt lat="43.29106" lon="1.32304">
        <ele>247</ele>
        <time>2017-10-07T10:52:39Z</time>
      </trkpt>
      <trkpt lat="43.2911" lon="1.32305">
        <ele>248</ele>
        <time>2017-10-07T10:52:40Z</time>
      </trkpt>
      <trkpt lat="43.29122" lon="1.32309">
        <ele>248</ele>
        <time>2017-10-07T10:52:43Z</time>
      </trkpt>
      <trkpt lat="43.29131" lon="1.32309">
        <ele>248</ele>
        <time>2017-10-07T10:52:45Z</time>
      </trkpt>
      <trkpt lat="43.29162" lon="1.32298">
        <ele>248</ele>
        <time>2017-10-07T10:52:52Z</time>
      </trkpt>
      <trkpt lat="43.29165" lon="1.32295">
        <ele>248</ele>
        <time>2017-10-07T10:52:53Z</time>
      </trkpt>
      <trkpt lat="43.29171" lon="1.32278">
        <ele>248</ele>
        <time>2017-10-07T10:52:56Z</time>
      </trkpt>
      <trkpt lat="43.29178" lon="1.32242">
        <ele>248</ele>
        <time>2017-10-07T10:53:02Z</time>
      </trkpt>
      <trkpt lat="43.29179" lon="1.32237">
        <ele>249</ele>
        <time>2017-10-07T10:53:03Z</time>
      </trkpt>
      <trkpt lat="43.29181" lon="1.32231">
        <ele>249</ele>
        <time>2017-10-07T10:53:04Z</time>
      </trkpt>
      <trkpt lat="43.29182" lon="1.32226">
        <ele>249</ele>
        <time>2017-10-07T10:53:05Z</time>
      </trkpt>
      <trkpt lat="43.29183" lon="1.3222">
        <ele>250</ele>
        <time>2017-10-07T10:53:06Z</time>
      </trkpt>
      <trkpt lat="43.29187" lon="1.32198">
        <ele>250</ele>
        <time>2017-10-07T10:53:10Z</time>
      </trkpt>
      <trkpt lat="43.29189" lon="1.32188">
        <ele>250</ele>
        <time>2017-10-07T10:53:12Z</time>
      </trkpt>
      <trkpt lat="43.2919" lon="1.32182">
        <ele>251</ele>
        <time>2017-10-07T10:53:13Z</time>
      </trkpt>
      <trkpt lat="43.29191" lon="1.32177">
        <ele>251</ele>
        <time>2017-10-07T10:53:14Z</time>
      </trkpt>
      <trkpt lat="43.29191" lon="1.32171">
        <ele>251</ele>
        <time>2017-10-07T10:53:15Z</time>
      </trkpt>
      <trkpt lat="43.29192" lon="1.32165">
        <ele>252</ele>
        <time>2017-10-07T10:53:16Z</time>
      </trkpt>
      <trkpt lat="43.29192" lon="1.3216">
        <ele>252</ele>
        <time>2017-10-07T10:53:17Z</time>
      </trkpt>
      <trkpt lat="43.29193" lon="1.32121">
        <ele>252</ele>
        <time>2017-10-07T10:53:24Z</time>
      </trkpt>
      <trkpt lat="43.29193" lon="1.32115">
        <ele>253</ele>
        <time>2017-10-07T10:53:25Z</time>
      </trkpt>
      <trkpt lat="43.29193" lon="1.3211">
        <ele>253</ele>
        <time>2017-10-07T10:53:26Z</time>
      </trkpt>
      <trkpt lat="43.29193" lon="1.32104">
        <ele>254</ele>
        <time>2017-10-07T10:53:27Z</time>
      </trkpt>
      <trkpt lat="43.29193" lon="1.32099">
        <ele>254</ele>
        <time>2017-10-07T10:53:28Z</time>
      </trkpt>
      <trkpt lat="43.2919" lon="1.32072">
        <ele>254</ele>
        <time>2017-10-07T10:53:33Z</time>
      </trkpt>
      <trkpt lat="43.29188" lon="1.32055">
        <ele>254</ele>
        <time>2017-10-07T10:53:36Z</time>
      </trkpt>
      <trkpt lat="43.29187" lon="1.3205">
        <ele>255</ele>
        <time>2017-10-07T10:53:37Z</time>
      </trkpt>
      <trkpt lat="43.29186" lon="1.32045">
        <ele>255</ele>
        <time>2017-10-07T10:53:38Z</time>
      </trkpt>
      <trkpt lat="43.29184" lon="1.3204">
        <ele>256</ele>
        <time>2017-10-07T10:53:39Z</time>
      </trkpt>
      <trkpt lat="43.29182" lon="1.32034">
        <ele>256</ele>
        <time>2017-10-07T10:53:40Z</time>
      </trkpt>
      <trkpt lat="43.29181" lon="1.32028">
        <ele>256</ele>
        <time>2017-10-07T10:53:41Z</time>
      </trkpt>
      <trkpt lat="43.29166" lon="1.31986">
        <ele>256</ele>
        <time>2017-10-07T10:53:49Z</time>
      </trkpt>
      <trkpt lat="43.29165" lon="1.3198">
        <ele>256</ele>
        <time>2017-10-07T10:53:50Z</time>
      </trkpt>
      <trkpt lat="43.29165" lon="1.31974">
        <ele>256</ele>
        <time>2017-10-07T10:53:51Z</time>
      </trkpt>
      <trkpt lat="43.29164" lon="1.31968">
        <ele>257</ele>
        <time>2017-10-07T10:53:52Z</time>
      </trkpt>
      <trkpt lat="43.29165" lon="1.31962">
        <ele>257</ele>
        <time>2017-10-07T10:53:53Z</time>
      </trkpt>
      <trkpt lat="43.29165" lon="1.31956">
        <ele>258</ele>
        <time>2017-10-07T10:53:54Z</time>
      </trkpt>
      <trkpt lat="43.29166" lon="1.31949">
        <ele>258</ele>
        <time>2017-10-07T10:53:55Z</time>
      </trkpt>
      <trkpt lat="43.29176" lon="1.31907">
        <ele>258</ele>
        <time>2017-10-07T10:54:02Z</time>
      </trkpt>
      <trkpt lat="43.29187" lon="1.3187">
        <ele>258</ele>
        <time>2017-10-07T10:54:08Z</time>
      </trkpt>
      <trkpt lat="43.29202" lon="1.31825">
        <ele>258</ele>
        <time>2017-10-07T10:54:15Z</time>
      </trkpt>
      <trkpt lat="43.29204" lon="1.31819">
        <ele>258</ele>
        <time>2017-10-07T10:54:16Z</time>
      </trkpt>
      <trkpt lat="43.29214" lon="1.31786">
        <ele>258</ele>
        <time>2017-10-07T10:54:21Z</time>
      </trkpt>
      <trkpt lat="43.29216" lon="1.3178">
        <ele>258</ele>
        <time>2017-10-07T10:54:22Z</time>
      </trkpt>
      <trkpt lat="43.29227" lon="1.31751">
        <ele>258</ele>
        <time>2017-10-07T10:54:27Z</time>
      </trkpt>
      <trkpt lat="43.29232" lon="1.3174">
        <ele>258</ele>
        <time>2017-10-07T10:54:29Z</time>
      </trkpt>
      <trkpt lat="43.29244" lon="1.3171">
        <ele>258</ele>
        <time>2017-10-07T10:54:34Z</time>
      </trkpt>
      <trkpt lat="43.29245" lon="1.31704">
        <ele>258</ele>
        <time>2017-10-07T10:54:35Z</time>
      </trkpt>
      <trkpt lat="43.29243" lon="1.31693">
        <ele>258</ele>
        <time>2017-10-07T10:54:37Z</time>
      </trkpt>
      <trkpt lat="43.29233" lon="1.31689">
        <ele>258</ele>
        <time>2017-10-07T10:54:40Z</time>
      </trkpt>
      <trkpt lat="43.2923" lon="1.31689">
        <ele>258</ele>
        <time>2017-10-07T10:54:41Z</time>
      </trkpt>
      <trkpt lat="43.29205" lon="1.31692">
        <ele>258</ele>
        <time>2017-10-07T10:54:48Z</time>
      </trkpt>
      <trkpt lat="43.29201" lon="1.31693">
        <ele>258</ele>
        <time>2017-10-07T10:54:49Z</time>
      </trkpt>
      <trkpt lat="43.29198" lon="1.31693">
        <ele>259</ele>
        <time>2017-10-07T10:54:50Z</time>
      </trkpt>
      <trkpt lat="43.29195" lon="1.31693">
        <ele>260</ele>
        <time>2017-10-07T10:54:51Z</time>
      </trkpt>
      <trkpt lat="43.29192" lon="1.31693">
        <ele>260</ele>
        <time>2017-10-07T10:54:52Z</time>
      </trkpt>
      <trkpt lat="43.29186" lon="1.31694">
        <ele>260</ele>
        <time>2017-10-07T10:54:54Z</time>
      </trkpt>
      <trkpt lat="43.29181" lon="1.31694">
        <ele>261</ele>
        <time>2017-10-07T10:54:56Z</time>
      </trkpt>
      <trkpt lat="43.29178" lon="1.31694">
        <ele>261</ele>
        <time>2017-10-07T10:54:57Z</time>
      </trkpt>
      <trkpt lat="43.29176" lon="1.31694">
        <ele>262</ele>
        <time>2017-10-07T10:54:58Z</time>
      </trkpt>
      <trkpt lat="43.29173" lon="1.31693">
        <ele>262</ele>
        <time>2017-10-07T10:54:59Z</time>
      </trkpt>
      <trkpt lat="43.29171" lon="1.31693">
        <ele>262</ele>
        <time>2017-10-07T10:55:00Z</time>
      </trkpt>
      <trkpt lat="43.29168" lon="1.31693">
        <ele>262</ele>
        <time>2017-10-07T10:55:01Z</time>
      </trkpt>
      <trkpt lat="43.29164" lon="1.31694">
        <ele>263</ele>
        <time>2017-10-07T10:55:03Z</time>
      </trkpt>
      <trkpt lat="43.29162" lon="1.31695">
        <ele>263</ele>
        <time>2017-10-07T10:55:04Z</time>
      </trkpt>
      <trkpt lat="43.29159" lon="1.31695">
        <ele>264</ele>
        <time>2017-10-07T10:55:05Z</time>
      </trkpt>
      <trkpt lat="43.29157" lon="1.31695">
        <ele>264</ele>
        <time>2017-10-07T10:55:06Z</time>
      </trkpt>
      <trkpt lat="43.29155" lon="1.31694">
        <ele>264</ele>
        <time>2017-10-07T10:55:07Z</time>
      </trkpt>
      <trkpt lat="43.29148" lon="1.31695">
        <ele>265</ele>
        <time>2017-10-07T10:55:10Z</time>
      </trkpt>
      <trkpt lat="43.29145" lon="1.31696">
        <ele>265</ele>
        <time>2017-10-07T10:55:11Z</time>
      </trkpt>
      <trkpt lat="43.29143" lon="1.31696">
        <ele>266</ele>
        <time>2017-10-07T10:55:12Z</time>
      </trkpt>
      <trkpt lat="43.29141" lon="1.31696">
        <ele>266</ele>
        <time>2017-10-07T10:55:13Z</time>
      </trkpt>
      <trkpt lat="43.29138" lon="1.31696">
        <ele>267</ele>
        <time>2017-10-07T10:55:14Z</time>
      </trkpt>
      <trkpt lat="43.29134" lon="1.31697">
        <ele>267</ele>
        <time>2017-10-07T10:55:16Z</time>
      </trkpt>
      <trkpt lat="43.29132" lon="1.31697">
        <ele>268</ele>
        <time>2017-10-07T10:55:17Z</time>
      </trkpt>
      <trkpt lat="43.2913" lon="1.31697">
        <ele>268</ele>
        <time>2017-10-07T10:55:18Z</time>
      </trkpt>
      <trkpt lat="43.29128" lon="1.31697">
        <ele>268</ele>
        <time>2017-10-07T10:55:19Z</time>
      </trkpt>
      <trkpt lat="43.29126" lon="1.31697">
        <ele>269</ele>
        <time>2017-10-07T10:55:20Z</time>
      </trkpt>
      <trkpt lat="43.29121" lon="1.31698">
        <ele>269</ele>
        <time>2017-10-07T10:55:22Z</time>
      </trkpt>
      <trkpt lat="43.29119" lon="1.31698">
        <ele>270</ele>
        <time>2017-10-07T10:55:23Z</time>
      </trkpt>
      <trkpt lat="43.29117" lon="1.31699">
        <ele>270</ele>
        <time>2017-10-07T10:55:24Z</time>
      </trkpt>
      <trkpt lat="43.29115" lon="1.31699">
        <ele>271</ele>
        <time>2017-10-07T10:55:25Z</time>
      </trkpt>
      <trkpt lat="43.29113" lon="1.31699">
        <ele>271</ele>
        <time>2017-10-07T10:55:26Z</time>
      </trkpt>
      <trkpt lat="43.29109" lon="1.317">
        <ele>271</ele>
        <time>2017-10-07T10:55:28Z</time>
      </trkpt>
      <trkpt lat="43.29107" lon="1.31699">
        <ele>272</ele>
        <time>2017-10-07T10:55:29Z</time>
      </trkpt>
      <trkpt lat="43.29105" lon="1.317">
        <ele>272</ele>
        <time>2017-10-07T10:55:30Z</time>
      </trkpt>
      <trkpt lat="43.29103" lon="1.317">
        <ele>273</ele>
        <time>2017-10-07T10:55:31Z</time>
      </trkpt>
      <trkpt lat="43.291" lon="1.317">
        <ele>273</ele>
        <time>2017-10-07T10:55:32Z</time>
      </trkpt>
      <trkpt lat="43.29096" lon="1.317">
        <ele>274</ele>
        <time>2017-10-07T10:55:34Z</time>
      </trkpt>
      <trkpt lat="43.29094" lon="1.31701">
        <ele>274</ele>
        <time>2017-10-07T10:55:35Z</time>
      </trkpt>
      <trkpt lat="43.29092" lon="1.31701">
        <ele>275</ele>
        <time>2017-10-07T10:55:36Z</time>
      </trkpt>
      <trkpt lat="43.2909" lon="1.31701">
        <ele>275</ele>
        <time>2017-10-07T10:55:37Z</time>
      </trkpt>
      <trkpt lat="43.29088" lon="1.31701">
        <ele>276</ele>
        <time>2017-10-07T10:55:38Z</time>
      </trkpt>
      <trkpt lat="43.29084" lon="1.31701">
        <ele>277</ele>
        <time>2017-10-07T10:55:40Z</time>
      </trkpt>
      <trkpt lat="43.29082" lon="1.31701">
        <ele>277</ele>
        <time>2017-10-07T10:55:41Z</time>
      </trkpt>
      <trkpt lat="43.2908" lon="1.31701">
        <ele>277</ele>
        <time>2017-10-07T10:55:42Z</time>
      </trkpt>
      <trkpt lat="43.29078" lon="1.31701">
        <ele>278</ele>
        <time>2017-10-07T10:55:43Z</time>
      </trkpt>
      <trkpt lat="43.29074" lon="1.31701">
        <ele>278</ele>
        <time>2017-10-07T10:55:45Z</time>
      </trkpt>
      <trkpt lat="43.29072" lon="1.317">
        <ele>279</ele>
        <time>2017-10-07T10:55:46Z</time>
      </trkpt>
      <trkpt lat="43.2907" lon="1.317">
        <ele>279</ele>
        <time>2017-10-07T10:55:47Z</time>
      </trkpt>
      <trkpt lat="43.29068" lon="1.31699">
        <ele>280</ele>
        <time>2017-10-07T10:55:48Z</time>
      </trkpt>
      <trkpt lat="43.29066" lon="1.31699">
        <ele>280</ele>
        <time>2017-10-07T10:55:49Z</time>
      </trkpt>
      <trkpt lat="43.29062" lon="1.31699">
        <ele>280</ele>
        <time>2017-10-07T10:55:51Z</time>
      </trkpt>
      <trkpt lat="43.2906" lon="1.31699">
        <ele>280</ele>
        <time>2017-10-07T10:55:52Z</time>
      </trkpt>
      <trkpt lat="43.29057" lon="1.31699">
        <ele>281</ele>
        <time>2017-10-07T10:55:53Z</time>
      </trkpt>
      <trkpt lat="43.29055" lon="1.31699">
        <ele>281</ele>
        <time>2017-10-07T10:55:54Z</time>
      </trkpt>
      <trkpt lat="43.29053" lon="1.31699">
        <ele>282</ele>
        <time>2017-10-07T10:55:55Z</time>
      </trkpt>
      <trkpt lat="43.29051" lon="1.317">
        <ele>282</ele>
        <time>2017-10-07T10:55:56Z</time>
      </trkpt>
      <trkpt lat="43.29044" lon="1.317">
        <ele>282</ele>
        <time>2017-10-07T10:55:59Z</time>
      </trkpt>
      <trkpt lat="43.29027" lon="1.31702">
        <ele>282</ele>
        <time>2017-10-07T10:56:05Z</time>
      </trkpt>
      <trkpt lat="43.29001" lon="1.31705">
        <ele>282</ele>
        <time>2017-10-07T10:56:11Z</time>
      </trkpt>
      <trkpt lat="43.28968" lon="1.31709">
        <ele>282</ele>
        <time>2017-10-07T10:56:18Z</time>
      </trkpt>
      <trkpt lat="43.28958" lon="1.31711">
        <ele>282</ele>
        <time>2017-10-07T10:56:20Z</time>
      </trkpt>
      <trkpt lat="43.28952" lon="1.31711">
        <ele>281</ele>
        <time>2017-10-07T10:56:21Z</time>
      </trkpt>
      <trkpt lat="43.28947" lon="1.31712">
        <ele>281</ele>
        <time>2017-10-07T10:56:22Z</time>
      </trkpt>
      <trkpt lat="43.28941" lon="1.31712">
        <ele>280</ele>
        <time>2017-10-07T10:56:23Z</time>
      </trkpt>
      <trkpt lat="43.28936" lon="1.31713">
        <ele>280</ele>
        <time>2017-10-07T10:56:24Z</time>
      </trkpt>
      <trkpt lat="43.28907" lon="1.31717">
        <ele>280</ele>
        <time>2017-10-07T10:56:30Z</time>
      </trkpt>
      <trkpt lat="43.28903" lon="1.31718">
        <ele>280</ele>
        <time>2017-10-07T10:56:31Z</time>
      </trkpt>
      <trkpt lat="43.28871" lon="1.31722">
        <ele>280</ele>
        <time>2017-10-07T10:56:39Z</time>
      </trkpt>
      <trkpt lat="43.28847" lon="1.31725">
        <ele>280</ele>
        <time>2017-10-07T10:56:45Z</time>
      </trkpt>
      <trkpt lat="43.28815" lon="1.31726">
        <ele>280</ele>
        <time>2017-10-07T10:56:51Z</time>
      </trkpt>
      <trkpt lat="43.28801" lon="1.31721">
        <ele>279</ele>
        <time>2017-10-07T10:56:53Z</time>
      </trkpt>
      <trkpt lat="43.28794" lon="1.31718">
        <ele>279</ele>
        <time>2017-10-07T10:56:54Z</time>
      </trkpt>
      <trkpt lat="43.28786" lon="1.31714">
        <ele>278</ele>
        <time>2017-10-07T10:56:55Z</time>
      </trkpt>
      <trkpt lat="43.28778" lon="1.3171">
        <ele>277</ele>
        <time>2017-10-07T10:56:56Z</time>
      </trkpt>
      <trkpt lat="43.28769" lon="1.31706">
        <ele>277</ele>
        <time>2017-10-07T10:56:57Z</time>
      </trkpt>
      <trkpt lat="43.2876" lon="1.31702">
        <ele>276</ele>
        <time>2017-10-07T10:56:58Z</time>
      </trkpt>
      <trkpt lat="43.2875" lon="1.31697">
        <ele>275</ele>
        <time>2017-10-07T10:56:59Z</time>
      </trkpt>
      <trkpt lat="43.28741" lon="1.31692">
        <ele>274</ele>
        <time>2017-10-07T10:57:00Z</time>
      </trkpt>
      <trkpt lat="43.28731" lon="1.31688">
        <ele>274</ele>
        <time>2017-10-07T10:57:01Z</time>
      </trkpt>
      <trkpt lat="43.28721" lon="1.31683">
        <ele>273</ele>
        <time>2017-10-07T10:57:02Z</time>
      </trkpt>
      <trkpt lat="43.28712" lon="1.31678">
        <ele>272</ele>
        <time>2017-10-07T10:57:03Z</time>
      </trkpt>
      <trkpt lat="43.28702" lon="1.31673">
        <ele>271</ele>
        <time>2017-10-07T10:57:04Z</time>
      </trkpt>
      <trkpt lat="43.28692" lon="1.31668">
        <ele>270</ele>
        <time>2017-10-07T10:57:05Z</time>
      </trkpt>
      <trkpt lat="43.28682" lon="1.31662">
        <ele>270</ele>
        <time>2017-10-07T10:57:06Z</time>
      </trkpt>
      <trkpt lat="43.28672" lon="1.31656">
        <ele>269</ele>
        <time>2017-10-07T10:57:07Z</time>
      </trkpt>
      <trkpt lat="43.28664" lon="1.31648">
        <ele>268</ele>
        <time>2017-10-07T10:57:08Z</time>
      </trkpt>
      <trkpt lat="43.28656" lon="1.31639">
        <ele>267</ele>
        <time>2017-10-07T10:57:09Z</time>
      </trkpt>
      <trkpt lat="43.28649" lon="1.31631">
        <ele>267</ele>
        <time>2017-10-07T10:57:10Z</time>
      </trkpt>
      <trkpt lat="43.28644" lon="1.31623">
        <ele>266</ele>
        <time>2017-10-07T10:57:11Z</time>
      </trkpt>
      <trkpt lat="43.28639" lon="1.31615">
        <ele>265</ele>
        <time>2017-10-07T10:57:12Z</time>
      </trkpt>
      <trkpt lat="43.2863" lon="1.31601">
        <ele>265</ele>
        <time>2017-10-07T10:57:14Z</time>
      </trkpt>
      <trkpt lat="43.28619" lon="1.31582">
        <ele>265</ele>
        <time>2017-10-07T10:57:17Z</time>
      </trkpt>
      <trkpt lat="43.28612" lon="1.31572">
        <ele>266</ele>
        <time>2017-10-07T10:57:19Z</time>
      </trkpt>
      <trkpt lat="43.28609" lon="1.31567">
        <ele>266</ele>
        <time>2017-10-07T10:57:20Z</time>
      </trkpt>
      <trkpt lat="43.28606" lon="1.31563">
        <ele>267</ele>
        <time>2017-10-07T10:57:21Z</time>
      </trkpt>
      <trkpt lat="43.28603" lon="1.31558">
        <ele>267</ele>
        <time>2017-10-07T10:57:22Z</time>
      </trkpt>
      <trkpt lat="43.28601" lon="1.31554">
        <ele>268</ele>
        <time>2017-10-07T10:57:23Z</time>
      </trkpt>
      <trkpt lat="43.28599" lon="1.3155">
        <ele>268</ele>
        <time>2017-10-07T10:57:24Z</time>
      </trkpt>
      <trkpt lat="43.28597" lon="1.31546">
        <ele>269</ele>
        <time>2017-10-07T10:57:25Z</time>
      </trkpt>
      <trkpt lat="43.28595" lon="1.31542">
        <ele>269</ele>
        <time>2017-10-07T10:57:26Z</time>
      </trkpt>
      <trkpt lat="43.28593" lon="1.31538">
        <ele>269</ele>
        <time>2017-10-07T10:57:27Z</time>
      </trkpt>
      <trkpt lat="43.28591" lon="1.31534">
        <ele>270</ele>
        <time>2017-10-07T10:57:28Z</time>
      </trkpt>
      <trkpt lat="43.28589" lon="1.3153">
        <ele>270</ele>
        <time>2017-10-07T10:57:29Z</time>
      </trkpt>
      <trkpt lat="43.28587" lon="1.31526">
        <ele>271</ele>
        <time>2017-10-07T10:57:30Z</time>
      </trkpt>
      <trkpt lat="43.28585" lon="1.31522">
        <ele>271</ele>
        <time>2017-10-07T10:57:31Z</time>
      </trkpt>
      <trkpt lat="43.28583" lon="1.31519">
        <ele>272</ele>
        <time>2017-10-07T10:57:32Z</time>
      </trkpt>
      <trkpt lat="43.28581" lon="1.31515">
        <ele>272</ele>
        <time>2017-10-07T10:57:33Z</time>
      </trkpt>
      <trkpt lat="43.28579" lon="1.31511">
        <ele>273</ele>
        <time>2017-10-07T10:57:34Z</time>
      </trkpt>
      <trkpt lat="43.28578" lon="1.31507">
        <ele>273</ele>
        <time>2017-10-07T10:57:35Z</time>
      </trkpt>
      <trkpt lat="43.28577" lon="1.31503">
        <ele>273</ele>
        <time>2017-10-07T10:57:36Z</time>
      </trkpt>
      <trkpt lat="43.28575" lon="1.31499">
        <ele>274</ele>
        <time>2017-10-07T10:57:37Z</time>
      </trkpt>
      <trkpt lat="43.28573" lon="1.31496">
        <ele>274</ele>
        <time>2017-10-07T10:57:38Z</time>
      </trkpt>
      <trkpt lat="43.28572" lon="1.31492">
        <ele>275</ele>
        <time>2017-10-07T10:57:39Z</time>
      </trkpt>
      <trkpt lat="43.28571" lon="1.31489">
        <ele>275</ele>
        <time>2017-10-07T10:57:40Z</time>
      </trkpt>
      <trkpt lat="43.28569" lon="1.31485">
        <ele>276</ele>
        <time>2017-10-07T10:57:41Z</time>
      </trkpt>
      <trkpt lat="43.28568" lon="1.31482">
        <ele>276</ele>
        <time>2017-10-07T10:57:42Z</time>
      </trkpt>
      <trkpt lat="43.28567" lon="1.31479">
        <ele>276</ele>
        <time>2017-10-07T10:57:43Z</time>
      </trkpt>
      <trkpt lat="43.28566" lon="1.31476">
        <ele>276</ele>
        <time>2017-10-07T10:57:44Z</time>
      </trkpt>
      <trkpt lat="43.28565" lon="1.31473">
        <ele>277</ele>
        <time>2017-10-07T10:57:45Z</time>
      </trkpt>
      <trkpt lat="43.28564" lon="1.3147">
        <ele>277</ele>
        <time>2017-10-07T10:57:46Z</time>
      </trkpt>
      <trkpt lat="43.28563" lon="1.31467">
        <ele>278</ele>
        <time>2017-10-07T10:57:47Z</time>
      </trkpt>
      <trkpt lat="43.28562" lon="1.31465">
        <ele>278</ele>
        <time>2017-10-07T10:57:48Z</time>
      </trkpt>
      <trkpt lat="43.28561" lon="1.31462">
        <ele>279</ele>
        <time>2017-10-07T10:57:49Z</time>
      </trkpt>
      <trkpt lat="43.2856" lon="1.3146">
        <ele>279</ele>
        <time>2017-10-07T10:57:50Z</time>
      </trkpt>
      <trkpt lat="43.28552" lon="1.31446">
        <ele>279</ele>
        <time>2017-10-07T10:57:56Z</time>
      </trkpt>
      <trkpt lat="43.28539" lon="1.31432">
        <ele>279</ele>
        <time>2017-10-07T10:58:00Z</time>
      </trkpt>
      <trkpt lat="43.28535" lon="1.31428">
        <ele>279</ele>
        <time>2017-10-07T10:58:01Z</time>
      </trkpt>
      <trkpt lat="43.28521" lon="1.31416">
        <ele>278</ele>
        <time>2017-10-07T10:58:04Z</time>
      </trkpt>
      <trkpt lat="43.28516" lon="1.31411">
        <ele>278</ele>
        <time>2017-10-07T10:58:05Z</time>
      </trkpt>
      <trkpt lat="43.2851" lon="1.31407">
        <ele>277</ele>
        <time>2017-10-07T10:58:06Z</time>
      </trkpt>
      <trkpt lat="43.28503" lon="1.31402">
        <ele>276</ele>
        <time>2017-10-07T10:58:07Z</time>
      </trkpt>
      <trkpt lat="43.28497" lon="1.31398">
        <ele>275</ele>
        <time>2017-10-07T10:58:08Z</time>
      </trkpt>
      <trkpt lat="43.28491" lon="1.31394">
        <ele>275</ele>
        <time>2017-10-07T10:58:09Z</time>
      </trkpt>
      <trkpt lat="43.28484" lon="1.3139">
        <ele>274</ele>
        <time>2017-10-07T10:58:10Z</time>
      </trkpt>
      <trkpt lat="43.28477" lon="1.31384">
        <ele>273</ele>
        <time>2017-10-07T10:58:11Z</time>
      </trkpt>
      <trkpt lat="43.2847" lon="1.31379">
        <ele>272</ele>
        <time>2017-10-07T10:58:12Z</time>
      </trkpt>
      <trkpt lat="43.28462" lon="1.31373">
        <ele>271</ele>
        <time>2017-10-07T10:58:13Z</time>
      </trkpt>
      <trkpt lat="43.28453" lon="1.31367">
        <ele>271</ele>
        <time>2017-10-07T10:58:14Z</time>
      </trkpt>
      <trkpt lat="43.28444" lon="1.31362">
        <ele>270</ele>
        <time>2017-10-07T10:58:15Z</time>
      </trkpt>
      <trkpt lat="43.28434" lon="1.31357">
        <ele>269</ele>
        <time>2017-10-07T10:58:16Z</time>
      </trkpt>
      <trkpt lat="43.28425" lon="1.31352">
        <ele>268</ele>
        <time>2017-10-07T10:58:17Z</time>
      </trkpt>
      <trkpt lat="43.28416" lon="1.31347">
        <ele>267</ele>
        <time>2017-10-07T10:58:18Z</time>
      </trkpt>
      <trkpt lat="43.28408" lon="1.31342">
        <ele>267</ele>
        <time>2017-10-07T10:58:19Z</time>
      </trkpt>
      <trkpt lat="43.28399" lon="1.31337">
        <ele>266</ele>
        <time>2017-10-07T10:58:20Z</time>
      </trkpt>
      <trkpt lat="43.2839" lon="1.31332">
        <ele>266</ele>
        <time>2017-10-07T10:58:21Z</time>
      </trkpt>
      <trkpt lat="43.28382" lon="1.31327">
        <ele>265</ele>
        <time>2017-10-07T10:58:22Z</time>
      </trkpt>
      <trkpt lat="43.28374" lon="1.31321">
        <ele>264</ele>
        <time>2017-10-07T10:58:23Z</time>
      </trkpt>
      <trkpt lat="43.28366" lon="1.31315">
        <ele>264</ele>
        <time>2017-10-07T10:58:24Z</time>
      </trkpt>
      <trkpt lat="43.28359" lon="1.3131">
        <ele>264</ele>
        <time>2017-10-07T10:58:25Z</time>
      </trkpt>
      <trkpt lat="43.28351" lon="1.31305">
        <ele>263</ele>
        <time>2017-10-07T10:58:26Z</time>
      </trkpt>
      <trkpt lat="43.28344" lon="1.31301">
        <ele>263</ele>
        <time>2017-10-07T10:58:27Z</time>
      </trkpt>
      <trkpt lat="43.28337" lon="1.31297">
        <ele>262</ele>
        <time>2017-10-07T10:58:28Z</time>
      </trkpt>
      <trkpt lat="43.2833" lon="1.31293">
        <ele>262</ele>
        <time>2017-10-07T10:58:29Z</time>
      </trkpt>
      <trkpt lat="43.28317" lon="1.31285">
        <ele>262</ele>
        <time>2017-10-07T10:58:31Z</time>
      </trkpt>
      <trkpt lat="43.28311" lon="1.31281">
        <ele>262</ele>
        <time>2017-10-07T10:58:32Z</time>
      </trkpt>
      <trkpt lat="43.28307" lon="1.31277">
        <ele>261</ele>
        <time>2017-10-07T10:58:33Z</time>
      </trkpt>
      <trkpt lat="43.28302" lon="1.31274">
        <ele>261</ele>
        <time>2017-10-07T10:58:34Z</time>
      </trkpt>
      <trkpt lat="43.28299" lon="1.31271">
        <ele>261</ele>
        <time>2017-10-07T10:58:35Z</time>
      </trkpt>
      <trkpt lat="43.28296" lon="1.31268">
        <ele>260</ele>
        <time>2017-10-07T10:58:36Z</time>
      </trkpt>
      <trkpt lat="43.2829" lon="1.31264">
        <ele>260</ele>
        <time>2017-10-07T10:58:38Z</time>
      </trkpt>
      <trkpt lat="43.28285" lon="1.3126">
        <ele>260</ele>
        <time>2017-10-07T10:58:40Z</time>
      </trkpt>
      <trkpt lat="43.28282" lon="1.31258">
        <ele>260</ele>
        <time>2017-10-07T10:58:41Z</time>
      </trkpt>
      <trkpt lat="43.28278" lon="1.31254">
        <ele>261</ele>
        <time>2017-10-07T10:58:43Z</time>
      </trkpt>
      <trkpt lat="43.28276" lon="1.31252">
        <ele>261</ele>
        <time>2017-10-07T10:58:44Z</time>
      </trkpt>
      <trkpt lat="43.28273" lon="1.3125">
        <ele>262</ele>
        <time>2017-10-07T10:58:45Z</time>
      </trkpt>
      <trkpt lat="43.28271" lon="1.31248">
        <ele>262</ele>
        <time>2017-10-07T10:58:46Z</time>
      </trkpt>
      <trkpt lat="43.28269" lon="1.31246">
        <ele>263</ele>
        <time>2017-10-07T10:58:47Z</time>
      </trkpt>
      <trkpt lat="43.28265" lon="1.31244">
        <ele>263</ele>
        <time>2017-10-07T10:58:49Z</time>
      </trkpt>
      <trkpt lat="43.28263" lon="1.31242">
        <ele>263</ele>
        <time>2017-10-07T10:58:50Z</time>
      </trkpt>
      <trkpt lat="43.28261" lon="1.3124">
        <ele>264</ele>
        <time>2017-10-07T10:58:51Z</time>
      </trkpt>
      <trkpt lat="43.2826" lon="1.31238">
        <ele>264</ele>
        <time>2017-10-07T10:58:52Z</time>
      </trkpt>
      <trkpt lat="43.28258" lon="1.31236">
        <ele>265</ele>
        <time>2017-10-07T10:58:53Z</time>
      </trkpt>
      <trkpt lat="43.28256" lon="1.31234">
        <ele>265</ele>
        <time>2017-10-07T10:58:54Z</time>
      </trkpt>
      <trkpt lat="43.28254" lon="1.31233">
        <ele>265</ele>
        <time>2017-10-07T10:58:55Z</time>
      </trkpt>
      <trkpt lat="43.28252" lon="1.31232">
        <ele>266</ele>
        <time>2017-10-07T10:58:56Z</time>
      </trkpt>
      <trkpt lat="43.2825" lon="1.3123">
        <ele>266</ele>
        <time>2017-10-07T10:58:57Z</time>
      </trkpt>
      <trkpt lat="43.28249" lon="1.31228">
        <ele>266</ele>
        <time>2017-10-07T10:58:58Z</time>
      </trkpt>
      <trkpt lat="43.28247" lon="1.31227">
        <ele>267</ele>
        <time>2017-10-07T10:58:59Z</time>
      </trkpt>
      <trkpt lat="43.28244" lon="1.31224">
        <ele>267</ele>
        <time>2017-10-07T10:59:01Z</time>
      </trkpt>
      <trkpt lat="43.28242" lon="1.31223">
        <ele>268</ele>
        <time>2017-10-07T10:59:02Z</time>
      </trkpt>
      <trkpt lat="43.28241" lon="1.31221">
        <ele>268</ele>
        <time>2017-10-07T10:59:03Z</time>
      </trkpt>
      <trkpt lat="43.28239" lon="1.3122">
        <ele>269</ele>
        <time>2017-10-07T10:59:04Z</time>
      </trkpt>
      <trkpt lat="43.28238" lon="1.31219">
        <ele>269</ele>
        <time>2017-10-07T10:59:05Z</time>
      </trkpt>
      <trkpt lat="43.28233" lon="1.31215">
        <ele>269</ele>
        <time>2017-10-07T10:59:08Z</time>
      </trkpt>
      <trkpt lat="43.28232" lon="1.31214">
        <ele>270</ele>
        <time>2017-10-07T10:59:09Z</time>
      </trkpt>
      <trkpt lat="43.28231" lon="1.31213">
        <ele>270</ele>
        <time>2017-10-07T10:59:10Z</time>
      </trkpt>
      <trkpt lat="43.28229" lon="1.31212">
        <ele>271</ele>
        <time>2017-10-07T10:59:11Z</time>
      </trkpt>
      <trkpt lat="43.28228" lon="1.31211">
        <ele>271</ele>
        <time>2017-10-07T10:59:12Z</time>
      </trkpt>
      <trkpt lat="43.28225" lon="1.31209">
        <ele>271</ele>
        <time>2017-10-07T10:59:14Z</time>
      </trkpt>
      <trkpt lat="43.28223" lon="1.31207">
        <ele>272</ele>
        <time>2017-10-07T10:59:16Z</time>
      </trkpt>
      <trkpt lat="43.28222" lon="1.31206">
        <ele>272</ele>
        <time>2017-10-07T10:59:17Z</time>
      </trkpt>
      <trkpt lat="43.2822" lon="1.31205">
        <ele>272</ele>
        <time>2017-10-07T10:59:18Z</time>
      </trkpt>
      <trkpt lat="43.28219" lon="1.31205">
        <ele>273</ele>
        <time>2017-10-07T10:59:19Z</time>
      </trkpt>
      <trkpt lat="43.28217" lon="1.31204">
        <ele>273</ele>
        <time>2017-10-07T10:59:20Z</time>
      </trkpt>
      <trkpt lat="43.28215" lon="1.31203">
        <ele>273</ele>
        <time>2017-10-07T10:59:22Z</time>
      </trkpt>
      <trkpt lat="43.28214" lon="1.31202">
        <ele>274</ele>
        <time>2017-10-07T10:59:23Z</time>
      </trkpt>
      <trkpt lat="43.28213" lon="1.31201">
        <ele>274</ele>
        <time>2017-10-07T10:59:24Z</time>
      </trkpt>
      <trkpt lat="43.28212" lon="1.312">
        <ele>275</ele>
        <time>2017-10-07T10:59:25Z</time>
      </trkpt>
      <trkpt lat="43.28211" lon="1.31199">
        <ele>275</ele>
        <time>2017-10-07T10:59:26Z</time>
      </trkpt>
      <trkpt lat="43.28209" lon="1.31198">
        <ele>276</ele>
        <time>2017-10-07T10:59:27Z</time>
      </trkpt>
      <trkpt lat="43.28206" lon="1.31195">
        <ele>276</ele>
        <time>2017-10-07T10:59:30Z</time>
      </trkpt>
      <trkpt lat="43.28205" lon="1.31194">
        <ele>276</ele>
        <time>2017-10-07T10:59:31Z</time>
      </trkpt>
      <trkpt lat="43.28203" lon="1.31194">
        <ele>277</ele>
        <time>2017-10-07T10:59:32Z</time>
      </trkpt>
      <trkpt lat="43.28202" lon="1.31193">
        <ele>277</ele>
        <time>2017-10-07T10:59:33Z</time>
      </trkpt>
      <trkpt lat="43.28202" lon="1.31192">
        <ele>278</ele>
        <time>2017-10-07T10:59:34Z</time>
      </trkpt>
      <trkpt lat="43.28198" lon="1.31187">
        <ele>278</ele>
        <time>2017-10-07T10:59:38Z</time>
      </trkpt>
      <trkpt lat="43.28196" lon="1.31186">
        <ele>279</ele>
        <time>2017-10-07T10:59:39Z</time>
      </trkpt>
      <trkpt lat="43.28195" lon="1.31185">
        <ele>279</ele>
        <time>2017-10-07T10:59:40Z</time>
      </trkpt>
      <trkpt lat="43.28194" lon="1.31184">
        <ele>279</ele>
        <time>2017-10-07T10:59:41Z</time>
      </trkpt>
      <trkpt lat="43.28193" lon="1.31183">
        <ele>280</ele>
        <time>2017-10-07T10:59:42Z</time>
      </trkpt>
      <trkpt lat="43.28191" lon="1.31181">
        <ele>280</ele>
        <time>2017-10-07T10:59:44Z</time>
      </trkpt>
      <trkpt lat="43.2819" lon="1.3118">
        <ele>281</ele>
        <time>2017-10-07T10:59:45Z</time>
      </trkpt>
      <trkpt lat="43.28189" lon="1.31179">
        <ele>282</ele>
        <time>2017-10-07T10:59:46Z</time>
      </trkpt>
      <trkpt lat="43.28187" lon="1.31178">
        <ele>282</ele>
        <time>2017-10-07T10:59:47Z</time>
      </trkpt>
      <trkpt lat="43.28184" lon="1.31177">
        <ele>282</ele>
        <time>2017-10-07T10:59:49Z</time>
      </trkpt>
      <trkpt lat="43.28183" lon="1.31177">
        <ele>283</ele>
        <time>2017-10-07T10:59:50Z</time>
      </trkpt>
      <trkpt lat="43.28182" lon="1.31176">
        <ele>283</ele>
        <time>2017-10-07T10:59:51Z</time>
      </trkpt>
      <trkpt lat="43.2818" lon="1.31175">
        <ele>284</ele>
        <time>2017-10-07T10:59:52Z</time>
      </trkpt>
      <trkpt lat="43.28178" lon="1.31173">
        <ele>284</ele>
        <time>2017-10-07T10:59:53Z</time>
      </trkpt>
      <trkpt lat="43.28177" lon="1.31173">
        <ele>284</ele>
        <time>2017-10-07T10:59:54Z</time>
      </trkpt>
      <trkpt lat="43.28173" lon="1.31171">
        <ele>284</ele>
        <time>2017-10-07T10:59:56Z</time>
      </trkpt>
      <trkpt lat="43.28172" lon="1.31169">
        <ele>285</ele>
        <time>2017-10-07T10:59:57Z</time>
      </trkpt>
      <trkpt lat="43.28171" lon="1.31168">
        <ele>285</ele>
        <time>2017-10-07T10:59:58Z</time>
      </trkpt>
      <trkpt lat="43.28169" lon="1.31167">
        <ele>286</ele>
        <time>2017-10-07T10:59:59Z</time>
      </trkpt>
      <trkpt lat="43.28168" lon="1.31166">
        <ele>286</ele>
        <time>2017-10-07T11:00:00Z</time>
      </trkpt>
      <trkpt lat="43.28164" lon="1.31163">
        <ele>286</ele>
        <time>2017-10-07T11:00:03Z</time>
      </trkpt>
      <trkpt lat="43.28162" lon="1.31162">
        <ele>287</ele>
        <time>2017-10-07T11:00:04Z</time>
      </trkpt>
      <trkpt lat="43.28161" lon="1.31161">
        <ele>287</ele>
        <time>2017-10-07T11:00:05Z</time>
      </trkpt>
      <trkpt lat="43.28159" lon="1.3116">
        <ele>287</ele>
        <time>2017-10-07T11:00:06Z</time>
      </trkpt>
      <trkpt lat="43.28158" lon="1.31158">
        <ele>288</ele>
        <time>2017-10-07T11:00:07Z</time>
      </trkpt>
      <trkpt lat="43.28157" lon="1.31157">
        <ele>288</ele>
        <time>2017-10-07T11:00:08Z</time>
      </trkpt>
      <trkpt lat="43.28151" lon="1.31154">
        <ele>288</ele>
        <time>2017-10-07T11:00:12Z</time>
      </trkpt>
      <trkpt lat="43.28139" lon="1.31149">
        <ele>288</ele>
        <time>2017-10-07T11:00:17Z</time>
      </trkpt>
      <trkpt lat="43.28118" lon="1.31136">
        <ele>288</ele>
        <time>2017-10-07T11:00:21Z</time>
      </trkpt>
      <trkpt lat="43.28103" lon="1.31128">
        <ele>288</ele>
        <time>2017-10-07T11:00:23Z</time>
      </trkpt>
      <trkpt lat="43.28096" lon="1.31123">
        <ele>287</ele>
        <time>2017-10-07T11:00:24Z</time>
      </trkpt>
      <trkpt lat="43.28088" lon="1.31118">
        <ele>287</ele>
        <time>2017-10-07T11:00:25Z</time>
      </trkpt>
      <trkpt lat="43.28079" lon="1.31112">
        <ele>286</ele>
        <time>2017-10-07T11:00:26Z</time>
      </trkpt>
      <trkpt lat="43.28069" lon="1.31107">
        <ele>285</ele>
        <time>2017-10-07T11:00:27Z</time>
      </trkpt>
      <trkpt lat="43.2806" lon="1.31101">
        <ele>284</ele>
        <time>2017-10-07T11:00:28Z</time>
      </trkpt>
      <trkpt lat="43.28051" lon="1.31094">
        <ele>283</ele>
        <time>2017-10-07T11:00:29Z</time>
      </trkpt>
      <trkpt lat="43.2804" lon="1.31088">
        <ele>282</ele>
        <time>2017-10-07T11:00:30Z</time>
      </trkpt>
      <trkpt lat="43.2803" lon="1.31082">
        <ele>281</ele>
        <time>2017-10-07T11:00:31Z</time>
      </trkpt>
      <trkpt lat="43.28019" lon="1.31077">
        <ele>280</ele>
        <time>2017-10-07T11:00:32Z</time>
      </trkpt>
      <trkpt lat="43.28009" lon="1.31073">
        <ele>279</ele>
        <time>2017-10-07T11:00:33Z</time>
      </trkpt>
      <trkpt lat="43.27999" lon="1.3107">
        <ele>277</ele>
        <time>2017-10-07T11:00:34Z</time>
      </trkpt>
      <trkpt lat="43.2799" lon="1.31067">
        <ele>276</ele>
        <time>2017-10-07T11:00:35Z</time>
      </trkpt>
      <trkpt lat="43.27982" lon="1.31065">
        <ele>275</ele>
        <time>2017-10-07T11:00:36Z</time>
      </trkpt>
      <trkpt lat="43.2797" lon="1.3106">
        <ele>275</ele>
        <time>2017-10-07T11:00:38Z</time>
      </trkpt>
      <trkpt lat="43.27957" lon="1.31057">
        <ele>276</ele>
        <time>2017-10-07T11:00:41Z</time>
      </trkpt>
      <trkpt lat="43.27954" lon="1.31056">
        <ele>276</ele>
        <time>2017-10-07T11:00:42Z</time>
      </trkpt>
      <trkpt lat="43.27951" lon="1.31055">
        <ele>276</ele>
        <time>2017-10-07T11:00:43Z</time>
      </trkpt>
      <trkpt lat="43.27948" lon="1.31054">
        <ele>277</ele>
        <time>2017-10-07T11:00:44Z</time>
      </trkpt>
      <trkpt lat="43.27945" lon="1.31054">
        <ele>277</ele>
        <time>2017-10-07T11:00:45Z</time>
      </trkpt>
      <trkpt lat="43.27941" lon="1.31052">
        <ele>278</ele>
        <time>2017-10-07T11:00:47Z</time>
      </trkpt>
      <trkpt lat="43.27938" lon="1.31051">
        <ele>278</ele>
        <time>2017-10-07T11:00:48Z</time>
      </trkpt>
      <trkpt lat="43.27935" lon="1.31051">
        <ele>279</ele>
        <time>2017-10-07T11:00:49Z</time>
      </trkpt>
      <trkpt lat="43.27933" lon="1.31051">
        <ele>279</ele>
        <time>2017-10-07T11:00:50Z</time>
      </trkpt>
      <trkpt lat="43.27931" lon="1.3105">
        <ele>279</ele>
        <time>2017-10-07T11:00:51Z</time>
      </trkpt>
      <trkpt lat="43.27926" lon="1.31049">
        <ele>280</ele>
        <time>2017-10-07T11:00:53Z</time>
      </trkpt>
      <trkpt lat="43.27924" lon="1.31049">
        <ele>280</ele>
        <time>2017-10-07T11:00:54Z</time>
      </trkpt>
      <trkpt lat="43.27922" lon="1.31049">
        <ele>281</ele>
        <time>2017-10-07T11:00:55Z</time>
      </trkpt>
      <trkpt lat="43.27919" lon="1.31049">
        <ele>281</ele>
        <time>2017-10-07T11:00:56Z</time>
      </trkpt>
      <trkpt lat="43.27917" lon="1.31049">
        <ele>282</ele>
        <time>2017-10-07T11:00:57Z</time>
      </trkpt>
      <trkpt lat="43.27912" lon="1.31048">
        <ele>283</ele>
        <time>2017-10-07T11:00:59Z</time>
      </trkpt>
      <trkpt lat="43.2791" lon="1.31047">
        <ele>283</ele>
        <time>2017-10-07T11:01:00Z</time>
      </trkpt>
      <trkpt lat="43.27908" lon="1.31047">
        <ele>283</ele>
        <time>2017-10-07T11:01:01Z</time>
      </trkpt>
      <trkpt lat="43.27906" lon="1.31047">
        <ele>284</ele>
        <time>2017-10-07T11:01:02Z</time>
      </trkpt>
      <trkpt lat="43.279" lon="1.31047">
        <ele>284</ele>
        <time>2017-10-07T11:01:05Z</time>
      </trkpt>
      <trkpt lat="43.27897" lon="1.31047">
        <ele>285</ele>
        <time>2017-10-07T11:01:06Z</time>
      </trkpt>
      <trkpt lat="43.27895" lon="1.31046">
        <ele>285</ele>
        <time>2017-10-07T11:01:07Z</time>
      </trkpt>
      <trkpt lat="43.27894" lon="1.31046">
        <ele>285</ele>
        <time>2017-10-07T11:01:08Z</time>
      </trkpt>
      <trkpt lat="43.27891" lon="1.31046">
        <ele>286</ele>
        <time>2017-10-07T11:01:09Z</time>
      </trkpt>
      <trkpt lat="43.27884" lon="1.31042">
        <ele>286</ele>
        <time>2017-10-07T11:01:12Z</time>
      </trkpt>
      <trkpt lat="43.27875" lon="1.31039">
        <ele>286</ele>
        <time>2017-10-07T11:01:16Z</time>
      </trkpt>
      <trkpt lat="43.27873" lon="1.31037">
        <ele>287</ele>
        <time>2017-10-07T11:01:17Z</time>
      </trkpt>
      <trkpt lat="43.27871" lon="1.31037">
        <ele>287</ele>
        <time>2017-10-07T11:01:18Z</time>
      </trkpt>
      <trkpt lat="43.27869" lon="1.31035">
        <ele>288</ele>
        <time>2017-10-07T11:01:19Z</time>
      </trkpt>
      <trkpt lat="43.27867" lon="1.31034">
        <ele>288</ele>
        <time>2017-10-07T11:01:20Z</time>
      </trkpt>
      <trkpt lat="43.27855" lon="1.31026">
        <ele>288</ele>
        <time>2017-10-07T11:01:25Z</time>
      </trkpt>
      <trkpt lat="43.27838" lon="1.31012">
        <ele>288</ele>
        <time>2017-10-07T11:01:32Z</time>
      </trkpt>
      <trkpt lat="43.27827" lon="1.31004">
        <ele>288</ele>
        <time>2017-10-07T11:01:36Z</time>
      </trkpt>
      <trkpt lat="43.27811" lon="1.30994">
        <ele>288</ele>
        <time>2017-10-07T11:01:41Z</time>
      </trkpt>
      <trkpt lat="43.2781" lon="1.3099">
        <ele>288</ele>
        <time>2017-10-07T11:01:42Z</time>
      </trkpt>
      <trkpt lat="43.27809" lon="1.30982">
        <ele>288</ele>
        <time>2017-10-07T11:01:44Z</time>
      </trkpt>
      <trkpt lat="43.27801" lon="1.30971">
        <ele>288</ele>
        <time>2017-10-07T11:01:47Z</time>
      </trkpt>
      <trkpt lat="43.27794" lon="1.30962">
        <ele>288</ele>
        <time>2017-10-07T11:01:49Z</time>
      </trkpt>
      <trkpt lat="43.27786" lon="1.30952">
        <ele>288</ele>
        <time>2017-10-07T11:01:51Z</time>
      </trkpt>
      <trkpt lat="43.27778" lon="1.30943">
        <ele>288</ele>
        <time>2017-10-07T11:01:53Z</time>
      </trkpt>
      <trkpt lat="43.27774" lon="1.30938">
        <ele>287</ele>
        <time>2017-10-07T11:01:54Z</time>
      </trkpt>
      <trkpt lat="43.27769" lon="1.30933">
        <ele>287</ele>
        <time>2017-10-07T11:01:55Z</time>
      </trkpt>
      <trkpt lat="43.27765" lon="1.30928">
        <ele>286</ele>
        <time>2017-10-07T11:01:56Z</time>
      </trkpt>
      <trkpt lat="43.27761" lon="1.30924">
        <ele>286</ele>
        <time>2017-10-07T11:01:57Z</time>
      </trkpt>
      <trkpt lat="43.27752" lon="1.30915">
        <ele>286</ele>
        <time>2017-10-07T11:01:59Z</time>
      </trkpt>
      <trkpt lat="43.27745" lon="1.30907">
        <ele>286</ele>
        <time>2017-10-07T11:02:01Z</time>
      </trkpt>
      <trkpt lat="43.27737" lon="1.30898">
        <ele>286</ele>
        <time>2017-10-07T11:02:03Z</time>
      </trkpt>
      <trkpt lat="43.27725" lon="1.30885">
        <ele>286</ele>
        <time>2017-10-07T11:02:06Z</time>
      </trkpt>
      <trkpt lat="43.27715" lon="1.30876">
        <ele>285</ele>
        <time>2017-10-07T11:02:08Z</time>
      </trkpt>
      <trkpt lat="43.27708" lon="1.30872">
        <ele>285</ele>
        <time>2017-10-07T11:02:09Z</time>
      </trkpt>
      <trkpt lat="43.27701" lon="1.30868">
        <ele>285</ele>
        <time>2017-10-07T11:02:10Z</time>
      </trkpt>
      <trkpt lat="43.27693" lon="1.30864">
        <ele>284</ele>
        <time>2017-10-07T11:02:11Z</time>
      </trkpt>
      <trkpt lat="43.27685" lon="1.3086">
        <ele>283</ele>
        <time>2017-10-07T11:02:12Z</time>
      </trkpt>
      <trkpt lat="43.27676" lon="1.30855">
        <ele>282</ele>
        <time>2017-10-07T11:02:13Z</time>
      </trkpt>
      <trkpt lat="43.27667" lon="1.30852">
        <ele>282</ele>
        <time>2017-10-07T11:02:14Z</time>
      </trkpt>
      <trkpt lat="43.27658" lon="1.30848">
        <ele>281</ele>
        <time>2017-10-07T11:02:15Z</time>
      </trkpt>
      <trkpt lat="43.27648" lon="1.30844">
        <ele>280</ele>
        <time>2017-10-07T11:02:16Z</time>
      </trkpt>
      <trkpt lat="43.27639" lon="1.3084">
        <ele>280</ele>
        <time>2017-10-07T11:02:17Z</time>
      </trkpt>
      <trkpt lat="43.27629" lon="1.30836">
        <ele>279</ele>
        <time>2017-10-07T11:02:18Z</time>
      </trkpt>
      <trkpt lat="43.2762" lon="1.30833">
        <ele>278</ele>
        <time>2017-10-07T11:02:19Z</time>
      </trkpt>
      <trkpt lat="43.2761" lon="1.30829">
        <ele>277</ele>
        <time>2017-10-07T11:02:20Z</time>
      </trkpt>
      <trkpt lat="43.27601" lon="1.30825">
        <ele>276</ele>
        <time>2017-10-07T11:02:21Z</time>
      </trkpt>
      <trkpt lat="43.27591" lon="1.30822">
        <ele>275</ele>
        <time>2017-10-07T11:02:22Z</time>
      </trkpt>
      <trkpt lat="43.27582" lon="1.30818">
        <ele>275</ele>
        <time>2017-10-07T11:02:23Z</time>
      </trkpt>
      <trkpt lat="43.27572" lon="1.30815">
        <ele>274</ele>
        <time>2017-10-07T11:02:24Z</time>
      </trkpt>
      <trkpt lat="43.27563" lon="1.30812">
        <ele>273</ele>
        <time>2017-10-07T11:02:25Z</time>
      </trkpt>
      <trkpt lat="43.27554" lon="1.30808">
        <ele>273</ele>
        <time>2017-10-07T11:02:26Z</time>
      </trkpt>
      <trkpt lat="43.27544" lon="1.30805">
        <ele>272</ele>
        <time>2017-10-07T11:02:27Z</time>
      </trkpt>
      <trkpt lat="43.27536" lon="1.30802">
        <ele>272</ele>
        <time>2017-10-07T11:02:28Z</time>
      </trkpt>
      <trkpt lat="43.27527" lon="1.30799">
        <ele>271</ele>
        <time>2017-10-07T11:02:29Z</time>
      </trkpt>
      <trkpt lat="43.27519" lon="1.30796">
        <ele>271</ele>
        <time>2017-10-07T11:02:30Z</time>
      </trkpt>
      <trkpt lat="43.2751" lon="1.30794">
        <ele>270</ele>
        <time>2017-10-07T11:02:31Z</time>
      </trkpt>
      <trkpt lat="43.27502" lon="1.30792">
        <ele>270</ele>
        <time>2017-10-07T11:02:32Z</time>
      </trkpt>
      <trkpt lat="43.27463" lon="1.30788">
        <ele>269</ele>
        <time>2017-10-07T11:02:37Z</time>
      </trkpt>
      <trkpt lat="43.27456" lon="1.30788">
        <ele>268</ele>
        <time>2017-10-07T11:02:38Z</time>
      </trkpt>
      <trkpt lat="43.27449" lon="1.30788">
        <ele>268</ele>
        <time>2017-10-07T11:02:39Z</time>
      </trkpt>
      <trkpt lat="43.27442" lon="1.30789">
        <ele>268</ele>
        <time>2017-10-07T11:02:40Z</time>
      </trkpt>
      <trkpt lat="43.27435" lon="1.3079">
        <ele>268</ele>
        <time>2017-10-07T11:02:41Z</time>
      </trkpt>
      <trkpt lat="43.27428" lon="1.30791">
        <ele>268</ele>
        <time>2017-10-07T11:02:42Z</time>
      </trkpt>
      <trkpt lat="43.27421" lon="1.30792">
        <ele>268</ele>
        <time>2017-10-07T11:02:43Z</time>
      </trkpt>
      <trkpt lat="43.27394" lon="1.308">
        <ele>268</ele>
        <time>2017-10-07T11:02:47Z</time>
      </trkpt>
      <trkpt lat="43.27384" lon="1.30803">
        <ele>268</ele>
        <time>2017-10-07T11:02:49Z</time>
      </trkpt>
      <trkpt lat="43.27375" lon="1.30807">
        <ele>268</ele>
        <time>2017-10-07T11:02:51Z</time>
      </trkpt>
      <trkpt lat="43.27371" lon="1.30809">
        <ele>269</ele>
        <time>2017-10-07T11:02:52Z</time>
      </trkpt>
      <trkpt lat="43.27367" lon="1.3081">
        <ele>269</ele>
        <time>2017-10-07T11:02:53Z</time>
      </trkpt>
      <trkpt lat="43.27364" lon="1.30812">
        <ele>270</ele>
        <time>2017-10-07T11:02:54Z</time>
      </trkpt>
      <trkpt lat="43.27362" lon="1.30813">
        <ele>270</ele>
        <time>2017-10-07T11:02:55Z</time>
      </trkpt>
      <trkpt lat="43.27353" lon="1.30816">
        <ele>271</ele>
        <time>2017-10-07T11:02:58Z</time>
      </trkpt>
      <trkpt lat="43.27349" lon="1.30817">
        <ele>271</ele>
        <time>2017-10-07T11:02:59Z</time>
      </trkpt>
      <trkpt lat="43.27345" lon="1.30819">
        <ele>271</ele>
        <time>2017-10-07T11:03:00Z</time>
      </trkpt>
      <trkpt lat="43.27341" lon="1.3082">
        <ele>272</ele>
        <time>2017-10-07T11:03:01Z</time>
      </trkpt>
      <trkpt lat="43.27336" lon="1.30822">
        <ele>272</ele>
        <time>2017-10-07T11:03:02Z</time>
      </trkpt>
      <trkpt lat="43.27325" lon="1.30826">
        <ele>272</ele>
        <time>2017-10-07T11:03:04Z</time>
      </trkpt>
      <trkpt lat="43.27318" lon="1.30828">
        <ele>272</ele>
        <time>2017-10-07T11:03:05Z</time>
      </trkpt>
      <trkpt lat="43.27311" lon="1.30831">
        <ele>271</ele>
        <time>2017-10-07T11:03:06Z</time>
      </trkpt>
      <trkpt lat="43.27304" lon="1.30834">
        <ele>271</ele>
        <time>2017-10-07T11:03:07Z</time>
      </trkpt>
      <trkpt lat="43.27296" lon="1.30837">
        <ele>270</ele>
        <time>2017-10-07T11:03:08Z</time>
      </trkpt>
      <trkpt lat="43.27287" lon="1.3084">
        <ele>270</ele>
        <time>2017-10-07T11:03:09Z</time>
      </trkpt>
      <trkpt lat="43.27279" lon="1.30842">
        <ele>269</ele>
        <time>2017-10-07T11:03:10Z</time>
      </trkpt>
      <trkpt lat="43.27271" lon="1.30844">
        <ele>268</ele>
        <time>2017-10-07T11:03:11Z</time>
      </trkpt>
      <trkpt lat="43.27262" lon="1.30845">
        <ele>268</ele>
        <time>2017-10-07T11:03:12Z</time>
      </trkpt>
      <trkpt lat="43.27254" lon="1.30845">
        <ele>268</ele>
        <time>2017-10-07T11:03:13Z</time>
      </trkpt>
      <trkpt lat="43.27238" lon="1.30846">
        <ele>267</ele>
        <time>2017-10-07T11:03:15Z</time>
      </trkpt>
      <trkpt lat="43.27229" lon="1.30846">
        <ele>267</ele>
        <time>2017-10-07T11:03:16Z</time>
      </trkpt>
      <trkpt lat="43.27221" lon="1.30847">
        <ele>267</ele>
        <time>2017-10-07T11:03:17Z</time>
      </trkpt>
      <trkpt lat="43.27212" lon="1.30847">
        <ele>266</ele>
        <time>2017-10-07T11:03:18Z</time>
      </trkpt>
      <trkpt lat="43.27204" lon="1.30847">
        <ele>266</ele>
        <time>2017-10-07T11:03:19Z</time>
      </trkpt>
      <trkpt lat="43.27195" lon="1.30848">
        <ele>266</ele>
        <time>2017-10-07T11:03:20Z</time>
      </trkpt>
      <trkpt lat="43.27187" lon="1.30848">
        <ele>265</ele>
        <time>2017-10-07T11:03:21Z</time>
      </trkpt>
      <trkpt lat="43.2718" lon="1.30848">
        <ele>265</ele>
        <time>2017-10-07T11:03:22Z</time>
      </trkpt>
      <trkpt lat="43.27173" lon="1.30849">
        <ele>265</ele>
        <time>2017-10-07T11:03:23Z</time>
      </trkpt>
      <trkpt lat="43.27167" lon="1.3085">
        <ele>264</ele>
        <time>2017-10-07T11:03:24Z</time>
      </trkpt>
      <trkpt lat="43.27162" lon="1.30852">
        <ele>264</ele>
        <time>2017-10-07T11:03:25Z</time>
      </trkpt>
      <trkpt lat="43.27158" lon="1.30856">
        <ele>263</ele>
        <time>2017-10-07T11:03:26Z</time>
      </trkpt>
      <trkpt lat="43.27156" lon="1.30862">
        <ele>262</ele>
        <time>2017-10-07T11:03:27Z</time>
      </trkpt>
      <trkpt lat="43.27154" lon="1.30868">
        <ele>261</ele>
        <time>2017-10-07T11:03:28Z</time>
      </trkpt>
      <trkpt lat="43.27153" lon="1.30874">
        <ele>261</ele>
        <time>2017-10-07T11:03:29Z</time>
      </trkpt>
      <trkpt lat="43.27152" lon="1.30881">
        <ele>261</ele>
        <time>2017-10-07T11:03:30Z</time>
      </trkpt>
      <trkpt lat="43.27151" lon="1.30888">
        <ele>261</ele>
        <time>2017-10-07T11:03:31Z</time>
      </trkpt>
      <trkpt lat="43.2715" lon="1.30895">
        <ele>261</ele>
        <time>2017-10-07T11:03:32Z</time>
      </trkpt>
      <trkpt lat="43.27151" lon="1.3092">
        <ele>261</ele>
        <time>2017-10-07T11:03:35Z</time>
      </trkpt>
      <trkpt lat="43.27153" lon="1.30937">
        <ele>261</ele>
        <time>2017-10-07T11:03:37Z</time>
      </trkpt>
      <trkpt lat="43.27155" lon="1.30946">
        <ele>260</ele>
        <time>2017-10-07T11:03:38Z</time>
      </trkpt>
      <trkpt lat="43.27156" lon="1.30954">
        <ele>260</ele>
        <time>2017-10-07T11:03:39Z</time>
      </trkpt>
      <trkpt lat="43.27157" lon="1.30962">
        <ele>259</ele>
        <time>2017-10-07T11:03:40Z</time>
      </trkpt>
      <trkpt lat="43.27157" lon="1.30969">
        <ele>259</ele>
        <time>2017-10-07T11:03:41Z</time>
      </trkpt>
      <trkpt lat="43.27155" lon="1.30974">
        <ele>258</ele>
        <time>2017-10-07T11:03:42Z</time>
      </trkpt>
      <trkpt lat="43.27151" lon="1.30978">
        <ele>258</ele>
        <time>2017-10-07T11:03:43Z</time>
      </trkpt>
      <trkpt lat="43.27146" lon="1.30979">
        <ele>257</ele>
        <time>2017-10-07T11:03:44Z</time>
      </trkpt>
      <trkpt lat="43.27141" lon="1.30978">
        <ele>256</ele>
        <time>2017-10-07T11:03:45Z</time>
      </trkpt>
      <trkpt lat="43.27136" lon="1.30977">
        <ele>256</ele>
        <time>2017-10-07T11:03:46Z</time>
      </trkpt>
      <trkpt lat="43.27121" lon="1.30972">
        <ele>256</ele>
        <time>2017-10-07T11:03:49Z</time>
      </trkpt>
      <trkpt lat="43.27111" lon="1.3097">
        <ele>256</ele>
        <time>2017-10-07T11:03:51Z</time>
      </trkpt>
      <trkpt lat="43.27106" lon="1.30968">
        <ele>256</ele>
        <time>2017-10-07T11:03:52Z</time>
      </trkpt>
      <trkpt lat="43.27081" lon="1.30962">
        <ele>256</ele>
        <time>2017-10-07T11:03:58Z</time>
      </trkpt>
      <trkpt lat="43.27071" lon="1.3096">
        <ele>257</ele>
        <time>2017-10-07T11:04:01Z</time>
      </trkpt>
      <trkpt lat="43.27069" lon="1.30959">
        <ele>257</ele>
        <time>2017-10-07T11:04:02Z</time>
      </trkpt>
      <trkpt lat="43.27066" lon="1.30958">
        <ele>258</ele>
        <time>2017-10-07T11:04:03Z</time>
      </trkpt>
      <trkpt lat="43.27063" lon="1.30957">
        <ele>258</ele>
        <time>2017-10-07T11:04:04Z</time>
      </trkpt>
      <trkpt lat="43.2706" lon="1.30956">
        <ele>259</ele>
        <time>2017-10-07T11:04:05Z</time>
      </trkpt>
      <trkpt lat="43.27055" lon="1.30955">
        <ele>259</ele>
        <time>2017-10-07T11:04:07Z</time>
      </trkpt>
      <trkpt lat="43.27052" lon="1.30954">
        <ele>259</ele>
        <time>2017-10-07T11:04:08Z</time>
      </trkpt>
      <trkpt lat="43.2705" lon="1.30953">
        <ele>260</ele>
        <time>2017-10-07T11:04:09Z</time>
      </trkpt>
      <trkpt lat="43.27047" lon="1.30953">
        <ele>260</ele>
        <time>2017-10-07T11:04:10Z</time>
      </trkpt>
      <trkpt lat="43.27044" lon="1.30952">
        <ele>261</ele>
        <time>2017-10-07T11:04:11Z</time>
      </trkpt>
      <trkpt lat="43.27041" lon="1.30951">
        <ele>261</ele>
        <time>2017-10-07T11:04:12Z</time>
      </trkpt>
      <trkpt lat="43.27038" lon="1.30951">
        <ele>262</ele>
        <time>2017-10-07T11:04:13Z</time>
      </trkpt>
      <trkpt lat="43.27036" lon="1.30949">
        <ele>262</ele>
        <time>2017-10-07T11:04:14Z</time>
      </trkpt>
      <trkpt lat="43.27033" lon="1.30948">
        <ele>262</ele>
        <time>2017-10-07T11:04:15Z</time>
      </trkpt>
      <trkpt lat="43.27031" lon="1.30948">
        <ele>263</ele>
        <time>2017-10-07T11:04:16Z</time>
      </trkpt>
      <trkpt lat="43.27026" lon="1.30945">
        <ele>263</ele>
        <time>2017-10-07T11:04:18Z</time>
      </trkpt>
      <trkpt lat="43.27024" lon="1.30943">
        <ele>264</ele>
        <time>2017-10-07T11:04:19Z</time>
      </trkpt>
      <trkpt lat="43.27023" lon="1.3094">
        <ele>264</ele>
        <time>2017-10-07T11:04:20Z</time>
      </trkpt>
      <trkpt lat="43.27021" lon="1.30936">
        <ele>264</ele>
        <time>2017-10-07T11:04:21Z</time>
      </trkpt>
      <trkpt lat="43.27019" lon="1.30933">
        <ele>265</ele>
        <time>2017-10-07T11:04:22Z</time>
      </trkpt>
      <trkpt lat="43.27017" lon="1.30925">
        <ele>265</ele>
        <time>2017-10-07T11:04:24Z</time>
      </trkpt>
      <trkpt lat="43.27017" lon="1.30921">
        <ele>266</ele>
        <time>2017-10-07T11:04:25Z</time>
      </trkpt>
      <trkpt lat="43.27017" lon="1.30916">
        <ele>266</ele>
        <time>2017-10-07T11:04:26Z</time>
      </trkpt>
      <trkpt lat="43.27017" lon="1.30912">
        <ele>267</ele>
        <time>2017-10-07T11:04:27Z</time>
      </trkpt>
      <trkpt lat="43.27017" lon="1.30908">
        <ele>267</ele>
        <time>2017-10-07T11:04:28Z</time>
      </trkpt>
      <trkpt lat="43.27019" lon="1.30886">
        <ele>267</ele>
        <time>2017-10-07T11:04:33Z</time>
      </trkpt>
      <trkpt lat="43.2702" lon="1.30877">
        <ele>267</ele>
        <time>2017-10-07T11:04:35Z</time>
      </trkpt>
      <trkpt lat="43.2702" lon="1.30872">
        <ele>268</ele>
        <time>2017-10-07T11:04:36Z</time>
      </trkpt>
      <trkpt lat="43.27021" lon="1.30868">
        <ele>268</ele>
        <time>2017-10-07T11:04:37Z</time>
      </trkpt>
      <trkpt lat="43.27022" lon="1.30863">
        <ele>269</ele>
        <time>2017-10-07T11:04:38Z</time>
      </trkpt>
      <trkpt lat="43.27022" lon="1.30859">
        <ele>269</ele>
        <time>2017-10-07T11:04:39Z</time>
      </trkpt>
      <trkpt lat="43.27021" lon="1.30842">
        <ele>269</ele>
        <time>2017-10-07T11:04:43Z</time>
      </trkpt>
      <trkpt lat="43.2702" lon="1.30838">
        <ele>270</ele>
        <time>2017-10-07T11:04:44Z</time>
      </trkpt>
      <trkpt lat="43.27019" lon="1.30834">
        <ele>270</ele>
        <time>2017-10-07T11:04:45Z</time>
      </trkpt>
      <trkpt lat="43.27017" lon="1.30831">
        <ele>271</ele>
        <time>2017-10-07T11:04:46Z</time>
      </trkpt>
      <trkpt lat="43.27014" lon="1.30829">
        <ele>271</ele>
        <time>2017-10-07T11:04:47Z</time>
      </trkpt>
      <trkpt lat="43.27001" lon="1.30831">
        <ele>271</ele>
        <time>2017-10-07T11:04:51Z</time>
      </trkpt>
      <trkpt lat="43.26995" lon="1.30834">
        <ele>271</ele>
        <time>2017-10-07T11:04:53Z</time>
      </trkpt>
      <trkpt lat="43.26993" lon="1.30837">
        <ele>272</ele>
        <time>2017-10-07T11:04:54Z</time>
      </trkpt>
      <trkpt lat="43.2699" lon="1.3084">
        <ele>272</ele>
        <time>2017-10-07T11:04:55Z</time>
      </trkpt>
      <trkpt lat="43.26988" lon="1.30843">
        <ele>273</ele>
        <time>2017-10-07T11:04:56Z</time>
      </trkpt>
      <trkpt lat="43.26986" lon="1.30845">
        <ele>273</ele>
        <time>2017-10-07T11:04:57Z</time>
      </trkpt>
      <trkpt lat="43.26977" lon="1.30856">
        <ele>273</ele>
        <time>2017-10-07T11:05:01Z</time>
      </trkpt>
      <trkpt lat="43.26972" lon="1.30863">
        <ele>273</ele>
        <time>2017-10-07T11:05:03Z</time>
      </trkpt>
      <trkpt lat="43.26969" lon="1.30866">
        <ele>274</ele>
        <time>2017-10-07T11:05:04Z</time>
      </trkpt>
      <trkpt lat="43.26967" lon="1.3087">
        <ele>274</ele>
        <time>2017-10-07T11:05:05Z</time>
      </trkpt>
      <trkpt lat="43.26965" lon="1.30873">
        <ele>275</ele>
        <time>2017-10-07T11:05:06Z</time>
      </trkpt>
      <trkpt lat="43.26962" lon="1.30876">
        <ele>275</ele>
        <time>2017-10-07T11:05:07Z</time>
      </trkpt>
      <trkpt lat="43.2696" lon="1.3088">
        <ele>275</ele>
        <time>2017-10-07T11:05:08Z</time>
      </trkpt>
      <trkpt lat="43.26953" lon="1.30895">
        <ele>276</ele>
        <time>2017-10-07T11:05:12Z</time>
      </trkpt>
      <trkpt lat="43.26952" lon="1.30899">
        <ele>276</ele>
        <time>2017-10-07T11:05:13Z</time>
      </trkpt>
      <trkpt lat="43.2695" lon="1.30903">
        <ele>276</ele>
        <time>2017-10-07T11:05:14Z</time>
      </trkpt>
      <trkpt lat="43.26949" lon="1.30906">
        <ele>277</ele>
        <time>2017-10-07T11:05:15Z</time>
      </trkpt>
      <trkpt lat="43.26948" lon="1.3091">
        <ele>277</ele>
        <time>2017-10-07T11:05:16Z</time>
      </trkpt>
      <trkpt lat="43.26939" lon="1.30934">
        <ele>277</ele>
        <time>2017-10-07T11:05:23Z</time>
      </trkpt>
      <trkpt lat="43.26928" lon="1.30963">
        <ele>277</ele>
        <time>2017-10-07T11:05:30Z</time>
      </trkpt>
      <trkpt lat="43.2692" lon="1.30986">
        <ele>277</ele>
        <time>2017-10-07T11:05:35Z</time>
      </trkpt>
      <trkpt lat="43.26905" lon="1.31025">
        <ele>277</ele>
        <time>2017-10-07T11:05:42Z</time>
      </trkpt>
      <trkpt lat="43.26888" lon="1.31059">
        <ele>277</ele>
        <time>2017-10-07T11:05:48Z</time>
      </trkpt>
      <trkpt lat="43.26885" lon="1.31064">
        <ele>277</ele>
        <time>2017-10-07T11:05:49Z</time>
      </trkpt>
      <trkpt lat="43.26864" lon="1.3109">
        <ele>277</ele>
        <time>2017-10-07T11:05:55Z</time>
      </trkpt>
      <trkpt lat="43.26856" lon="1.31095">
        <ele>277</ele>
        <time>2017-10-07T11:05:57Z</time>
      </trkpt>
      <trkpt lat="43.26846" lon="1.31101">
        <ele>278</ele>
        <time>2017-10-07T11:06:00Z</time>
      </trkpt>
      <trkpt lat="43.26842" lon="1.31102">
        <ele>278</ele>
        <time>2017-10-07T11:06:01Z</time>
      </trkpt>
      <trkpt lat="43.26839" lon="1.31103">
        <ele>279</ele>
        <time>2017-10-07T11:06:02Z</time>
      </trkpt>
      <trkpt lat="43.26836" lon="1.31104">
        <ele>279</ele>
        <time>2017-10-07T11:06:03Z</time>
      </trkpt>
      <trkpt lat="43.26833" lon="1.31105">
        <ele>279</ele>
        <time>2017-10-07T11:06:04Z</time>
      </trkpt>
      <trkpt lat="43.26824" lon="1.31108">
        <ele>280</ele>
        <time>2017-10-07T11:06:07Z</time>
      </trkpt>
      <trkpt lat="43.2682" lon="1.31109">
        <ele>280</ele>
        <time>2017-10-07T11:06:08Z</time>
      </trkpt>
      <trkpt lat="43.26817" lon="1.3111">
        <ele>281</ele>
        <time>2017-10-07T11:06:09Z</time>
      </trkpt>
      <trkpt lat="43.26814" lon="1.3111">
        <ele>281</ele>
        <time>2017-10-07T11:06:10Z</time>
      </trkpt>
      <trkpt lat="43.26812" lon="1.31111">
        <ele>282</ele>
        <time>2017-10-07T11:06:11Z</time>
      </trkpt>
      <trkpt lat="43.2681" lon="1.31112">
        <ele>282</ele>
        <time>2017-10-07T11:06:12Z</time>
      </trkpt>
      <trkpt lat="43.26794" lon="1.31116">
        <ele>282</ele>
        <time>2017-10-07T11:06:19Z</time>
      </trkpt>
      <trkpt lat="43.26773" lon="1.3113">
        <ele>282</ele>
        <time>2017-10-07T11:06:25Z</time>
      </trkpt>
      <trkpt lat="43.2677" lon="1.31133">
        <ele>282</ele>
        <time>2017-10-07T11:06:26Z</time>
      </trkpt>
      <trkpt lat="43.26755" lon="1.31148">
        <ele>282</ele>
        <time>2017-10-07T11:06:30Z</time>
      </trkpt>
      <trkpt lat="43.26733" lon="1.31169">
        <ele>282</ele>
        <time>2017-10-07T11:06:35Z</time>
      </trkpt>
      <trkpt lat="43.26729" lon="1.31174">
        <ele>282</ele>
        <time>2017-10-07T11:06:36Z</time>
      </trkpt>
      <trkpt lat="43.26724" lon="1.31178">
        <ele>281</ele>
        <time>2017-10-07T11:06:37Z</time>
      </trkpt>
      <trkpt lat="43.2672" lon="1.31183">
        <ele>281</ele>
        <time>2017-10-07T11:06:38Z</time>
      </trkpt>
      <trkpt lat="43.26715" lon="1.31187">
        <ele>280</ele>
        <time>2017-10-07T11:06:39Z</time>
      </trkpt>
      <trkpt lat="43.2671" lon="1.31191">
        <ele>280</ele>
        <time>2017-10-07T11:06:40Z</time>
      </trkpt>
      <trkpt lat="43.26706" lon="1.31195">
        <ele>280</ele>
        <time>2017-10-07T11:06:41Z</time>
      </trkpt>
      <trkpt lat="43.26697" lon="1.31202">
        <ele>280</ele>
        <time>2017-10-07T11:06:43Z</time>
      </trkpt>
      <trkpt lat="43.26672" lon="1.31222">
        <ele>280</ele>
        <time>2017-10-07T11:06:48Z</time>
      </trkpt>
      <trkpt lat="43.26657" lon="1.31232">
        <ele>279</ele>
        <time>2017-10-07T11:06:51Z</time>
      </trkpt>
      <trkpt lat="43.26651" lon="1.31236">
        <ele>279</ele>
        <time>2017-10-07T11:06:52Z</time>
      </trkpt>
      <trkpt lat="43.26647" lon="1.3124">
        <ele>278</ele>
        <time>2017-10-07T11:06:53Z</time>
      </trkpt>
      <trkpt lat="43.26642" lon="1.31245">
        <ele>278</ele>
        <time>2017-10-07T11:06:54Z</time>
      </trkpt>
      <trkpt lat="43.26638" lon="1.3125">
        <ele>278</ele>
        <time>2017-10-07T11:06:55Z</time>
      </trkpt>
      <trkpt lat="43.2663" lon="1.31261">
        <ele>278</ele>
        <time>2017-10-07T11:06:57Z</time>
      </trkpt>
      <trkpt lat="43.26603" lon="1.31299">
        <ele>278</ele>
        <time>2017-10-07T11:07:05Z</time>
      </trkpt>
      <trkpt lat="43.26585" lon="1.31325">
        <ele>278</ele>
        <time>2017-10-07T11:07:11Z</time>
      </trkpt>
      <trkpt lat="43.26582" lon="1.3133">
        <ele>278</ele>
        <time>2017-10-07T11:07:12Z</time>
      </trkpt>
      <trkpt lat="43.26572" lon="1.31342">
        <ele>278</ele>
        <time>2017-10-07T11:07:15Z</time>
      </trkpt>
      <trkpt lat="43.26568" lon="1.31346">
        <ele>278</ele>
        <time>2017-10-07T11:07:16Z</time>
      </trkpt>
      <trkpt lat="43.26565" lon="1.31351">
        <ele>278</ele>
        <time>2017-10-07T11:07:17Z</time>
      </trkpt>
      <trkpt lat="43.26562" lon="1.31355">
        <ele>279</ele>
        <time>2017-10-07T11:07:18Z</time>
      </trkpt>
      <trkpt lat="43.26559" lon="1.31359">
        <ele>279</ele>
        <time>2017-10-07T11:07:19Z</time>
      </trkpt>
      <trkpt lat="43.26555" lon="1.31363">
        <ele>280</ele>
        <time>2017-10-07T11:07:20Z</time>
      </trkpt>
      <trkpt lat="43.26543" lon="1.31378">
        <ele>280</ele>
        <time>2017-10-07T11:07:24Z</time>
      </trkpt>
      <trkpt lat="43.26527" lon="1.3139">
        <ele>280</ele>
        <time>2017-10-07T11:07:29Z</time>
      </trkpt>
      <trkpt lat="43.26524" lon="1.3139">
        <ele>280</ele>
        <time>2017-10-07T11:07:30Z</time>
      </trkpt>
      <trkpt lat="43.26521" lon="1.3139">
        <ele>281</ele>
        <time>2017-10-07T11:07:31Z</time>
      </trkpt>
      <trkpt lat="43.26518" lon="1.31389">
        <ele>281</ele>
        <time>2017-10-07T11:07:32Z</time>
      </trkpt>
      <trkpt lat="43.26515" lon="1.31387">
        <ele>282</ele>
        <time>2017-10-07T11:07:33Z</time>
      </trkpt>
      <trkpt lat="43.26507" lon="1.31386">
        <ele>282</ele>
        <time>2017-10-07T11:07:35Z</time>
      </trkpt>
      <trkpt lat="43.26498" lon="1.31386">
        <ele>282</ele>
        <time>2017-10-07T11:07:37Z</time>
      </trkpt>
      <trkpt lat="43.26487" lon="1.31384">
        <ele>282</ele>
        <time>2017-10-07T11:07:39Z</time>
      </trkpt>
      <trkpt lat="43.26482" lon="1.31383">
        <ele>282</ele>
        <time>2017-10-07T11:07:40Z</time>
      </trkpt>
      <trkpt lat="43.26476" lon="1.31382">
        <ele>282</ele>
        <time>2017-10-07T11:07:41Z</time>
      </trkpt>
      <trkpt lat="43.26462" lon="1.31379">
        <ele>281</ele>
        <time>2017-10-07T11:07:43Z</time>
      </trkpt>
      <trkpt lat="43.26455" lon="1.31378">
        <ele>281</ele>
        <time>2017-10-07T11:07:44Z</time>
      </trkpt>
      <trkpt lat="43.26448" lon="1.31376">
        <ele>280</ele>
        <time>2017-10-07T11:07:45Z</time>
      </trkpt>
      <trkpt lat="43.26439" lon="1.31375">
        <ele>280</ele>
        <time>2017-10-07T11:07:46Z</time>
      </trkpt>
      <trkpt lat="43.2643" lon="1.31373">
        <ele>279</ele>
        <time>2017-10-07T11:07:47Z</time>
      </trkpt>
      <trkpt lat="43.26421" lon="1.31371">
        <ele>279</ele>
        <time>2017-10-07T11:07:48Z</time>
      </trkpt>
      <trkpt lat="43.26411" lon="1.31369">
        <ele>278</ele>
        <time>2017-10-07T11:07:49Z</time>
      </trkpt>
      <trkpt lat="43.26402" lon="1.31367">
        <ele>277</ele>
        <time>2017-10-07T11:07:50Z</time>
      </trkpt>
      <trkpt lat="43.26392" lon="1.31364">
        <ele>276</ele>
        <time>2017-10-07T11:07:51Z</time>
      </trkpt>
      <trkpt lat="43.26382" lon="1.31361">
        <ele>276</ele>
        <time>2017-10-07T11:07:52Z</time>
      </trkpt>
      <trkpt lat="43.26372" lon="1.31357">
        <ele>275</ele>
        <time>2017-10-07T11:07:53Z</time>
      </trkpt>
      <trkpt lat="43.26363" lon="1.31353">
        <ele>274</ele>
        <time>2017-10-07T11:07:54Z</time>
      </trkpt>
      <trkpt lat="43.26354" lon="1.31349">
        <ele>273</ele>
        <time>2017-10-07T11:07:55Z</time>
      </trkpt>
      <trkpt lat="43.26345" lon="1.31345">
        <ele>273</ele>
        <time>2017-10-07T11:07:56Z</time>
      </trkpt>
      <trkpt lat="43.26336" lon="1.31341">
        <ele>272</ele>
        <time>2017-10-07T11:07:57Z</time>
      </trkpt>
      <trkpt lat="43.26328" lon="1.31337">
        <ele>272</ele>
        <time>2017-10-07T11:07:58Z</time>
      </trkpt>
      <trkpt lat="43.2632" lon="1.31333">
        <ele>271</ele>
        <time>2017-10-07T11:07:59Z</time>
      </trkpt>
      <trkpt lat="43.26312" lon="1.31331">
        <ele>270</ele>
        <time>2017-10-07T11:08:00Z</time>
      </trkpt>
      <trkpt lat="43.26304" lon="1.31329">
        <ele>269</ele>
        <time>2017-10-07T11:08:01Z</time>
      </trkpt>
      <trkpt lat="43.26296" lon="1.31328">
        <ele>268</ele>
        <time>2017-10-07T11:08:02Z</time>
      </trkpt>
      <trkpt lat="43.26289" lon="1.31328">
        <ele>268</ele>
        <time>2017-10-07T11:08:03Z</time>
      </trkpt>
      <trkpt lat="43.26276" lon="1.31328">
        <ele>268</ele>
        <time>2017-10-07T11:08:05Z</time>
      </trkpt>
      <trkpt lat="43.26271" lon="1.31328">
        <ele>268</ele>
        <time>2017-10-07T11:08:06Z</time>
      </trkpt>
      <trkpt lat="43.26265" lon="1.31329">
        <ele>268</ele>
        <time>2017-10-07T11:08:07Z</time>
      </trkpt>
      <trkpt lat="43.2626" lon="1.3133">
        <ele>268</ele>
        <time>2017-10-07T11:08:08Z</time>
      </trkpt>
      <trkpt lat="43.26254" lon="1.31331">
        <ele>268</ele>
        <time>2017-10-07T11:08:09Z</time>
      </trkpt>
      <trkpt lat="43.2625" lon="1.31332">
        <ele>268</ele>
        <time>2017-10-07T11:08:10Z</time>
      </trkpt>
      <trkpt lat="43.26236" lon="1.31337">
        <ele>268</ele>
        <time>2017-10-07T11:08:13Z</time>
      </trkpt>
      <trkpt lat="43.26229" lon="1.31341">
        <ele>268</ele>
        <time>2017-10-07T11:08:15Z</time>
      </trkpt>
      <trkpt lat="43.26227" lon="1.31342">
        <ele>268</ele>
        <time>2017-10-07T11:08:16Z</time>
      </trkpt>
      <trkpt lat="43.26225" lon="1.31343">
        <ele>268</ele>
        <time>2017-10-07T11:08:18Z</time>
      </trkpt>
      <trkpt lat="43.26225" lon="1.31343">
        <ele>268</ele>
        <time>2017-10-07T11:08:19Z</time>
      </trkpt>
      <trkpt lat="43.26225" lon="1.31343">
        <ele>268</ele>
        <time>2017-10-07T11:08:24Z</time>
      </trkpt>
      <trkpt lat="43.26227" lon="1.31342">
        <ele>268</ele>
        <time>2017-10-07T11:08:28Z</time>
      </trkpt>
      <trkpt lat="43.26228" lon="1.31342">
        <ele>268</ele>
        <time>2017-10-07T11:08:29Z</time>
      </trkpt>
      <trkpt lat="43.26231" lon="1.31341">
        <ele>268</ele>
        <time>2017-10-07T11:08:30Z</time>
      </trkpt>
      <trkpt lat="43.26253" lon="1.31332">
        <ele>268</ele>
        <time>2017-10-07T11:08:35Z</time>
      </trkpt>
      <trkpt lat="43.2627" lon="1.31329">
        <ele>268</ele>
        <time>2017-10-07T11:08:38Z</time>
      </trkpt>
      <trkpt lat="43.26279" lon="1.31329">
        <ele>268</ele>
        <time>2017-10-07T11:08:40Z</time>
      </trkpt>
      <trkpt lat="43.26283" lon="1.31328">
        <ele>268</ele>
        <time>2017-10-07T11:08:41Z</time>
      </trkpt>
      <trkpt lat="43.26286" lon="1.31326">
        <ele>267</ele>
        <time>2017-10-07T11:08:42Z</time>
      </trkpt>
      <trkpt lat="43.26287" lon="1.31324">
        <ele>267</ele>
        <time>2017-10-07T11:08:43Z</time>
      </trkpt>
      <trkpt lat="43.26287" lon="1.31324">
        <ele>266</ele>
        <time>2017-10-07T11:08:44Z</time>
      </trkpt>
      <trkpt lat="43.26288" lon="1.31321">
        <ele>266</ele>
        <time>2017-10-07T11:08:48Z</time>
      </trkpt>
      <trkpt lat="43.26288" lon="1.3132">
        <ele>266</ele>
        <time>2017-10-07T11:08:50Z</time>
      </trkpt>
      <trkpt lat="43.26288" lon="1.31321">
        <ele>266</ele>
        <time>2017-10-07T11:09:01Z</time>
      </trkpt>
      <trkpt lat="43.26288" lon="1.31322">
        <ele>266</ele>
        <time>2017-10-07T11:09:02Z</time>
      </trkpt>
      <trkpt lat="43.26289" lon="1.31321">
        <ele>266</ele>
        <time>2017-10-07T11:10:34Z</time>
      </trkpt>
      <trkpt lat="43.26289" lon="1.31319">
        <ele>266</ele>
        <time>2017-10-07T11:10:35Z</time>
      </trkpt>
      <trkpt lat="43.26289" lon="1.31301">
        <ele>266</ele>
        <time>2017-10-07T11:10:40Z</time>
      </trkpt>
      <trkpt lat="43.26288" lon="1.31276">
        <ele>266</ele>
        <time>2017-10-07T11:10:45Z</time>
      </trkpt>
      <trkpt lat="43.26288" lon="1.3127">
        <ele>265</ele>
        <time>2017-10-07T11:10:46Z</time>
      </trkpt>
      <trkpt lat="43.26288" lon="1.31263">
        <ele>265</ele>
        <time>2017-10-07T11:10:47Z</time>
      </trkpt>
      <trkpt lat="43.26288" lon="1.31254">
        <ele>264</ele>
        <time>2017-10-07T11:10:48Z</time>
      </trkpt>
      <trkpt lat="43.26288" lon="1.31247">
        <ele>264</ele>
        <time>2017-10-07T11:10:49Z</time>
      </trkpt>
      <trkpt lat="43.26288" lon="1.31239">
        <ele>264</ele>
        <time>2017-10-07T11:10:50Z</time>
      </trkpt>
      <trkpt lat="43.26289" lon="1.31231">
        <ele>263</ele>
        <time>2017-10-07T11:10:51Z</time>
      </trkpt>
      <trkpt lat="43.2629" lon="1.31222">
        <ele>262</ele>
        <time>2017-10-07T11:10:52Z</time>
      </trkpt>
      <trkpt lat="43.26292" lon="1.31213">
        <ele>262</ele>
        <time>2017-10-07T11:10:53Z</time>
      </trkpt>
      <trkpt lat="43.26295" lon="1.31204">
        <ele>261</ele>
        <time>2017-10-07T11:10:54Z</time>
      </trkpt>
      <trkpt lat="43.26298" lon="1.31196">
        <ele>260</ele>
        <time>2017-10-07T11:10:55Z</time>
      </trkpt>
      <trkpt lat="43.26302" lon="1.31186">
        <ele>260</ele>
        <time>2017-10-07T11:10:56Z</time>
      </trkpt>
      <trkpt lat="43.26306" lon="1.31176">
        <ele>259</ele>
        <time>2017-10-07T11:10:57Z</time>
      </trkpt>
      <trkpt lat="43.26311" lon="1.31166">
        <ele>258</ele>
        <time>2017-10-07T11:10:58Z</time>
      </trkpt>
      <trkpt lat="43.26315" lon="1.31155">
        <ele>257</ele>
        <time>2017-10-07T11:10:59Z</time>
      </trkpt>
      <trkpt lat="43.2632" lon="1.31144">
        <ele>256</ele>
        <time>2017-10-07T11:11:00Z</time>
      </trkpt>
      <trkpt lat="43.26325" lon="1.31132">
        <ele>255</ele>
        <time>2017-10-07T11:11:01Z</time>
      </trkpt>
      <trkpt lat="43.2633" lon="1.3112">
        <ele>254</ele>
        <time>2017-10-07T11:11:02Z</time>
      </trkpt>
      <trkpt lat="43.26335" lon="1.31108">
        <ele>253</ele>
        <time>2017-10-07T11:11:03Z</time>
      </trkpt>
      <trkpt lat="43.2634" lon="1.31097">
        <ele>252</ele>
        <time>2017-10-07T11:11:04Z</time>
      </trkpt>
      <trkpt lat="43.26345" lon="1.31087">
        <ele>251</ele>
        <time>2017-10-07T11:11:05Z</time>
      </trkpt>
      <trkpt lat="43.26349" lon="1.31077">
        <ele>250</ele>
        <time>2017-10-07T11:11:06Z</time>
      </trkpt>
      <trkpt lat="43.26353" lon="1.31067">
        <ele>249</ele>
        <time>2017-10-07T11:11:07Z</time>
      </trkpt>
      <trkpt lat="43.26358" lon="1.31057">
        <ele>248</ele>
        <time>2017-10-07T11:11:08Z</time>
      </trkpt>
      <trkpt lat="43.26362" lon="1.31047">
        <ele>246</ele>
        <time>2017-10-07T11:11:09Z</time>
      </trkpt>
      <trkpt lat="43.26366" lon="1.31037">
        <ele>245</ele>
        <time>2017-10-07T11:11:10Z</time>
      </trkpt>
      <trkpt lat="43.2637" lon="1.31028">
        <ele>244</ele>
        <time>2017-10-07T11:11:11Z</time>
      </trkpt>
      <trkpt lat="43.26374" lon="1.31018">
        <ele>243</ele>
        <time>2017-10-07T11:11:12Z</time>
      </trkpt>
      <trkpt lat="43.26377" lon="1.31009">
        <ele>242</ele>
        <time>2017-10-07T11:11:13Z</time>
      </trkpt>
      <trkpt lat="43.26381" lon="1.30999">
        <ele>241</ele>
        <time>2017-10-07T11:11:14Z</time>
      </trkpt>
      <trkpt lat="43.26384" lon="1.30989">
        <ele>240</ele>
        <time>2017-10-07T11:11:15Z</time>
      </trkpt>
      <trkpt lat="43.26388" lon="1.30979">
        <ele>238</ele>
        <time>2017-10-07T11:11:16Z</time>
      </trkpt>
      <trkpt lat="43.26392" lon="1.30968">
        <ele>237</ele>
        <time>2017-10-07T11:11:17Z</time>
      </trkpt>
      <trkpt lat="43.26396" lon="1.30957">
        <ele>237</ele>
        <time>2017-10-07T11:11:18Z</time>
      </trkpt>
      <trkpt lat="43.26399" lon="1.30945">
        <ele>236</ele>
        <time>2017-10-07T11:11:19Z</time>
      </trkpt>
      <trkpt lat="43.264" lon="1.30933">
        <ele>235</ele>
        <time>2017-10-07T11:11:20Z</time>
      </trkpt>
      <trkpt lat="43.264" lon="1.30921">
        <ele>234</ele>
        <time>2017-10-07T11:11:21Z</time>
      </trkpt>
      <trkpt lat="43.264" lon="1.30909">
        <ele>233</ele>
        <time>2017-10-07T11:11:22Z</time>
      </trkpt>
      <trkpt lat="43.264" lon="1.30897">
        <ele>232</ele>
        <time>2017-10-07T11:11:23Z</time>
      </trkpt>
      <trkpt lat="43.264" lon="1.30885">
        <ele>231</ele>
        <time>2017-10-07T11:11:24Z</time>
      </trkpt>
      <trkpt lat="43.26399" lon="1.30873">
        <ele>230</ele>
        <time>2017-10-07T11:11:25Z</time>
      </trkpt>
      <trkpt lat="43.26399" lon="1.30861">
        <ele>230</ele>
        <time>2017-10-07T11:11:26Z</time>
      </trkpt>
      <trkpt lat="43.26399" lon="1.3085">
        <ele>230</ele>
        <time>2017-10-07T11:11:27Z</time>
      </trkpt>
      <trkpt lat="43.26398" lon="1.30839">
        <ele>229</ele>
        <time>2017-10-07T11:11:28Z</time>
      </trkpt>
      <trkpt lat="43.26398" lon="1.30828">
        <ele>229</ele>
        <time>2017-10-07T11:11:29Z</time>
      </trkpt>
      <trkpt lat="43.26398" lon="1.30818">
        <ele>228</ele>
        <time>2017-10-07T11:11:30Z</time>
      </trkpt>
      <trkpt lat="43.26397" lon="1.30808">
        <ele>228</ele>
        <time>2017-10-07T11:11:31Z</time>
      </trkpt>
      <trkpt lat="43.26397" lon="1.30799">
        <ele>227</ele>
        <time>2017-10-07T11:11:32Z</time>
      </trkpt>
      <trkpt lat="43.26397" lon="1.3079">
        <ele>227</ele>
        <time>2017-10-07T11:11:33Z</time>
      </trkpt>
      <trkpt lat="43.26397" lon="1.30772">
        <ele>227</ele>
        <time>2017-10-07T11:11:35Z</time>
      </trkpt>
      <trkpt lat="43.26396" lon="1.30756">
        <ele>227</ele>
        <time>2017-10-07T11:11:37Z</time>
      </trkpt>
      <trkpt lat="43.26393" lon="1.3075">
        <ele>227</ele>
        <time>2017-10-07T11:11:38Z</time>
      </trkpt>
      <trkpt lat="43.26389" lon="1.30746">
        <ele>226</ele>
        <time>2017-10-07T11:11:39Z</time>
      </trkpt>
      <trkpt lat="43.26384" lon="1.30745">
        <ele>226</ele>
        <time>2017-10-07T11:11:40Z</time>
      </trkpt>
      <trkpt lat="43.2638" lon="1.30746">
        <ele>225</ele>
        <time>2017-10-07T11:11:41Z</time>
      </trkpt>
      <trkpt lat="43.26375" lon="1.30748">
        <ele>225</ele>
        <time>2017-10-07T11:11:42Z</time>
      </trkpt>
      <trkpt lat="43.26365" lon="1.30753">
        <ele>225</ele>
        <time>2017-10-07T11:11:44Z</time>
      </trkpt>
      <trkpt lat="43.26361" lon="1.30756">
        <ele>225</ele>
        <time>2017-10-07T11:11:45Z</time>
      </trkpt>
      <trkpt lat="43.26357" lon="1.30759">
        <ele>225</ele>
        <time>2017-10-07T11:11:46Z</time>
      </trkpt>
      <trkpt lat="43.26352" lon="1.30761">
        <ele>225</ele>
        <time>2017-10-07T11:11:47Z</time>
      </trkpt>
      <trkpt lat="43.26348" lon="1.30764">
        <ele>225</ele>
        <time>2017-10-07T11:11:48Z</time>
      </trkpt>
      <trkpt lat="43.26343" lon="1.30767">
        <ele>225</ele>
        <time>2017-10-07T11:11:49Z</time>
      </trkpt>
      <trkpt lat="43.26334" lon="1.30771">
        <ele>225</ele>
        <time>2017-10-07T11:11:51Z</time>
      </trkpt>
      <trkpt lat="43.26319" lon="1.30778">
        <ele>225</ele>
        <time>2017-10-07T11:11:54Z</time>
      </trkpt>
      <trkpt lat="43.26314" lon="1.3078">
        <ele>225</ele>
        <time>2017-10-07T11:11:55Z</time>
      </trkpt>
      <trkpt lat="43.26276" lon="1.30797">
        <ele>225</ele>
        <time>2017-10-07T11:12:03Z</time>
      </trkpt>
      <trkpt lat="43.26247" lon="1.30811">
        <ele>225</ele>
        <time>2017-10-07T11:12:10Z</time>
      </trkpt>
      <trkpt lat="43.2623" lon="1.30836">
        <ele>225</ele>
        <time>2017-10-07T11:12:15Z</time>
      </trkpt>
      <trkpt lat="43.26224" lon="1.30846">
        <ele>225</ele>
        <time>2017-10-07T11:12:17Z</time>
      </trkpt>
      <trkpt lat="43.26216" lon="1.3085">
        <ele>225</ele>
        <time>2017-10-07T11:12:19Z</time>
      </trkpt>
      <trkpt lat="43.26205" lon="1.30843">
        <ele>225</ele>
        <time>2017-10-07T11:12:22Z</time>
      </trkpt>
      <trkpt lat="43.26202" lon="1.30839">
        <ele>225</ele>
        <time>2017-10-07T11:12:23Z</time>
      </trkpt>
      <trkpt lat="43.2618" lon="1.30813">
        <ele>225</ele>
        <time>2017-10-07T11:12:29Z</time>
      </trkpt>
      <trkpt lat="43.2616" lon="1.30792">
        <ele>226</ele>
        <time>2017-10-07T11:12:34Z</time>
      </trkpt>
      <trkpt lat="43.26156" lon="1.30789">
        <ele>226</ele>
        <time>2017-10-07T11:12:35Z</time>
      </trkpt>
      <trkpt lat="43.26153" lon="1.30785">
        <ele>226</ele>
        <time>2017-10-07T11:12:36Z</time>
      </trkpt>
      <trkpt lat="43.2615" lon="1.30782">
        <ele>227</ele>
        <time>2017-10-07T11:12:37Z</time>
      </trkpt>
      <trkpt lat="43.26146" lon="1.30778">
        <ele>227</ele>
        <time>2017-10-07T11:12:38Z</time>
      </trkpt>
      <trkpt lat="43.26129" lon="1.30761">
        <ele>227</ele>
        <time>2017-10-07T11:12:43Z</time>
      </trkpt>
      <trkpt lat="43.26126" lon="1.30757">
        <ele>228</ele>
        <time>2017-10-07T11:12:44Z</time>
      </trkpt>
      <trkpt lat="43.26122" lon="1.30753">
        <ele>228</ele>
        <time>2017-10-07T11:12:45Z</time>
      </trkpt>
      <trkpt lat="43.26119" lon="1.3075">
        <ele>228</ele>
        <time>2017-10-07T11:12:46Z</time>
      </trkpt>
      <trkpt lat="43.26116" lon="1.30747">
        <ele>229</ele>
        <time>2017-10-07T11:12:47Z</time>
      </trkpt>
      <trkpt lat="43.26112" lon="1.30743">
        <ele>229</ele>
        <time>2017-10-07T11:12:48Z</time>
      </trkpt>
      <trkpt lat="43.261" lon="1.30729">
        <ele>229</ele>
        <time>2017-10-07T11:12:52Z</time>
      </trkpt>
      <trkpt lat="43.26075" lon="1.30703">
        <ele>230</ele>
        <time>2017-10-07T11:13:00Z</time>
      </trkpt>
      <trkpt lat="43.26072" lon="1.307">
        <ele>230</ele>
        <time>2017-10-07T11:13:01Z</time>
      </trkpt>
      <trkpt lat="43.26069" lon="1.30697">
        <ele>231</ele>
        <time>2017-10-07T11:13:02Z</time>
      </trkpt>
      <trkpt lat="43.26066" lon="1.30693">
        <ele>231</ele>
        <time>2017-10-07T11:13:03Z</time>
      </trkpt>
      <trkpt lat="43.26063" lon="1.3069">
        <ele>231</ele>
        <time>2017-10-07T11:13:04Z</time>
      </trkpt>
      <trkpt lat="43.26057" lon="1.30684">
        <ele>231</ele>
        <time>2017-10-07T11:13:06Z</time>
      </trkpt>
      <trkpt lat="43.26042" lon="1.30668">
        <ele>232</ele>
        <time>2017-10-07T11:13:11Z</time>
      </trkpt>
      <trkpt lat="43.26039" lon="1.30665">
        <ele>232</ele>
        <time>2017-10-07T11:13:12Z</time>
      </trkpt>
      <trkpt lat="43.26036" lon="1.30662">
        <ele>233</ele>
        <time>2017-10-07T11:13:13Z</time>
      </trkpt>
      <trkpt lat="43.26033" lon="1.30659">
        <ele>233</ele>
        <time>2017-10-07T11:13:14Z</time>
      </trkpt>
      <trkpt lat="43.26031" lon="1.30656">
        <ele>233</ele>
        <time>2017-10-07T11:13:15Z</time>
      </trkpt>
      <trkpt lat="43.26019" lon="1.30652">
        <ele>234</ele>
        <time>2017-10-07T11:13:19Z</time>
      </trkpt>
      <trkpt lat="43.26017" lon="1.30652">
        <ele>235</ele>
        <time>2017-10-07T11:13:20Z</time>
      </trkpt>
      <trkpt lat="43.26014" lon="1.30653">
        <ele>235</ele>
        <time>2017-10-07T11:13:21Z</time>
      </trkpt>
      <trkpt lat="43.26011" lon="1.30654">
        <ele>235</ele>
        <time>2017-10-07T11:13:22Z</time>
      </trkpt>
      <trkpt lat="43.26006" lon="1.30657">
        <ele>235</ele>
        <time>2017-10-07T11:13:24Z</time>
      </trkpt>
      <trkpt lat="43.26001" lon="1.3066">
        <ele>236</ele>
        <time>2017-10-07T11:13:26Z</time>
      </trkpt>
      <trkpt lat="43.25998" lon="1.30662">
        <ele>236</ele>
        <time>2017-10-07T11:13:27Z</time>
      </trkpt>
      <trkpt lat="43.25996" lon="1.30663">
        <ele>237</ele>
        <time>2017-10-07T11:13:28Z</time>
      </trkpt>
      <trkpt lat="43.25993" lon="1.30664">
        <ele>237</ele>
        <time>2017-10-07T11:13:29Z</time>
      </trkpt>
      <trkpt lat="43.25991" lon="1.30664">
        <ele>238</ele>
        <time>2017-10-07T11:13:30Z</time>
      </trkpt>
      <trkpt lat="43.25984" lon="1.30666">
        <ele>238</ele>
        <time>2017-10-07T11:13:33Z</time>
      </trkpt>
      <trkpt lat="43.25982" lon="1.30667">
        <ele>238</ele>
        <time>2017-10-07T11:13:34Z</time>
      </trkpt>
      <trkpt lat="43.25979" lon="1.30667">
        <ele>238</ele>
        <time>2017-10-07T11:13:35Z</time>
      </trkpt>
      <trkpt lat="43.25976" lon="1.30668">
        <ele>239</ele>
        <time>2017-10-07T11:13:36Z</time>
      </trkpt>
      <trkpt lat="43.25974" lon="1.30669">
        <ele>239</ele>
        <time>2017-10-07T11:13:37Z</time>
      </trkpt>
      <trkpt lat="43.25972" lon="1.3067">
        <ele>240</ele>
        <time>2017-10-07T11:13:38Z</time>
      </trkpt>
      <trkpt lat="43.25967" lon="1.30672">
        <ele>240</ele>
        <time>2017-10-07T11:13:40Z</time>
      </trkpt>
      <trkpt lat="43.25952" lon="1.30679">
        <ele>241</ele>
        <time>2017-10-07T11:13:45Z</time>
      </trkpt>
      <trkpt lat="43.25949" lon="1.30681">
        <ele>241</ele>
        <time>2017-10-07T11:13:46Z</time>
      </trkpt>
      <trkpt lat="43.25946" lon="1.30682">
        <ele>241</ele>
        <time>2017-10-07T11:13:47Z</time>
      </trkpt>
      <trkpt lat="43.25942" lon="1.30684">
        <ele>242</ele>
        <time>2017-10-07T11:13:48Z</time>
      </trkpt>
      <trkpt lat="43.25923" lon="1.30692">
        <ele>242</ele>
        <time>2017-10-07T11:13:54Z</time>
      </trkpt>
      <trkpt lat="43.25906" lon="1.307">
        <ele>242</ele>
        <time>2017-10-07T11:13:59Z</time>
      </trkpt>
      <trkpt lat="43.25903" lon="1.30701">
        <ele>243</ele>
        <time>2017-10-07T11:14:00Z</time>
      </trkpt>
      <trkpt lat="43.259" lon="1.30703">
        <ele>243</ele>
        <time>2017-10-07T11:14:01Z</time>
      </trkpt>
      <trkpt lat="43.25896" lon="1.30704">
        <ele>243</ele>
        <time>2017-10-07T11:14:02Z</time>
      </trkpt>
      <trkpt lat="43.25893" lon="1.30705">
        <ele>244</ele>
        <time>2017-10-07T11:14:03Z</time>
      </trkpt>
      <trkpt lat="43.25867" lon="1.30716">
        <ele>244</ele>
        <time>2017-10-07T11:14:11Z</time>
      </trkpt>
      <trkpt lat="43.25863" lon="1.30717">
        <ele>244</ele>
        <time>2017-10-07T11:14:12Z</time>
      </trkpt>
      <trkpt lat="43.2586" lon="1.30719">
        <ele>245</ele>
        <time>2017-10-07T11:14:13Z</time>
      </trkpt>
      <trkpt lat="43.25857" lon="1.3072">
        <ele>245</ele>
        <time>2017-10-07T11:14:14Z</time>
      </trkpt>
      <trkpt lat="43.25854" lon="1.30722">
        <ele>245</ele>
        <time>2017-10-07T11:14:15Z</time>
      </trkpt>
      <trkpt lat="43.25851" lon="1.30723">
        <ele>246</ele>
        <time>2017-10-07T11:14:16Z</time>
      </trkpt>
      <trkpt lat="43.25841" lon="1.30727">
        <ele>246</ele>
        <time>2017-10-07T11:14:19Z</time>
      </trkpt>
      <trkpt lat="43.25831" lon="1.30732">
        <ele>246</ele>
        <time>2017-10-07T11:14:22Z</time>
      </trkpt>
      <trkpt lat="43.25828" lon="1.30734">
        <ele>247</ele>
        <time>2017-10-07T11:14:23Z</time>
      </trkpt>
      <trkpt lat="43.25824" lon="1.30737">
        <ele>247</ele>
        <time>2017-10-07T11:14:24Z</time>
      </trkpt>
      <trkpt lat="43.25821" lon="1.30739">
        <ele>247</ele>
        <time>2017-10-07T11:14:25Z</time>
      </trkpt>
      <trkpt lat="43.25818" lon="1.30741">
        <ele>248</ele>
        <time>2017-10-07T11:14:26Z</time>
      </trkpt>
      <trkpt lat="43.25812" lon="1.30746">
        <ele>248</ele>
        <time>2017-10-07T11:14:28Z</time>
      </trkpt>
      <trkpt lat="43.25788" lon="1.30768">
        <ele>248</ele>
        <time>2017-10-07T11:14:36Z</time>
      </trkpt>
      <trkpt lat="43.25777" lon="1.30767">
        <ele>248</ele>
        <time>2017-10-07T11:14:39Z</time>
      </trkpt>
      <trkpt lat="43.25774" lon="1.30764">
        <ele>249</ele>
        <time>2017-10-07T11:14:40Z</time>
      </trkpt>
      <trkpt lat="43.25771" lon="1.30761">
        <ele>249</ele>
        <time>2017-10-07T11:14:41Z</time>
      </trkpt>
      <trkpt lat="43.25769" lon="1.30758">
        <ele>250</ele>
        <time>2017-10-07T11:14:42Z</time>
      </trkpt>
      <trkpt lat="43.25767" lon="1.30754">
        <ele>250</ele>
        <time>2017-10-07T11:14:43Z</time>
      </trkpt>
      <trkpt lat="43.25766" lon="1.3075">
        <ele>250</ele>
        <time>2017-10-07T11:14:44Z</time>
      </trkpt>
      <trkpt lat="43.2576" lon="1.30735">
        <ele>250</ele>
        <time>2017-10-07T11:14:48Z</time>
      </trkpt>
      <trkpt lat="43.25759" lon="1.30732">
        <ele>251</ele>
        <time>2017-10-07T11:14:49Z</time>
      </trkpt>
      <trkpt lat="43.25759" lon="1.30729">
        <ele>251</ele>
        <time>2017-10-07T11:14:50Z</time>
      </trkpt>
      <trkpt lat="43.25758" lon="1.30727">
        <ele>252</ele>
        <time>2017-10-07T11:14:51Z</time>
      </trkpt>
      <trkpt lat="43.25757" lon="1.30723">
        <ele>252</ele>
        <time>2017-10-07T11:14:52Z</time>
      </trkpt>
      <trkpt lat="43.25754" lon="1.3071">
        <ele>253</ele>
        <time>2017-10-07T11:14:56Z</time>
      </trkpt>
      <trkpt lat="43.25753" lon="1.30707">
        <ele>253</ele>
        <time>2017-10-07T11:14:57Z</time>
      </trkpt>
      <trkpt lat="43.25752" lon="1.30704">
        <ele>254</ele>
        <time>2017-10-07T11:14:58Z</time>
      </trkpt>
      <trkpt lat="43.25751" lon="1.30701">
        <ele>254</ele>
        <time>2017-10-07T11:14:59Z</time>
      </trkpt>
      <trkpt lat="43.25748" lon="1.30691">
        <ele>255</ele>
        <time>2017-10-07T11:15:02Z</time>
      </trkpt>
      <trkpt lat="43.25747" lon="1.30688">
        <ele>255</ele>
        <time>2017-10-07T11:15:03Z</time>
      </trkpt>
      <trkpt lat="43.25746" lon="1.30685">
        <ele>256</ele>
        <time>2017-10-07T11:15:04Z</time>
      </trkpt>
      <trkpt lat="43.25745" lon="1.30681">
        <ele>256</ele>
        <time>2017-10-07T11:15:05Z</time>
      </trkpt>
      <trkpt lat="43.25744" lon="1.30678">
        <ele>257</ele>
        <time>2017-10-07T11:15:06Z</time>
      </trkpt>
      <trkpt lat="43.2574" lon="1.30665">
        <ele>257</ele>
        <time>2017-10-07T11:15:10Z</time>
      </trkpt>
      <trkpt lat="43.25739" lon="1.30662">
        <ele>257</ele>
        <time>2017-10-07T11:15:11Z</time>
      </trkpt>
      <trkpt lat="43.25738" lon="1.30659">
        <ele>258</ele>
        <time>2017-10-07T11:15:12Z</time>
      </trkpt>
      <trkpt lat="43.25737" lon="1.30656">
        <ele>258</ele>
        <time>2017-10-07T11:15:13Z</time>
      </trkpt>
      <trkpt lat="43.25736" lon="1.30652">
        <ele>259</ele>
        <time>2017-10-07T11:15:14Z</time>
      </trkpt>
      <trkpt lat="43.25732" lon="1.30639">
        <ele>259</ele>
        <time>2017-10-07T11:15:18Z</time>
      </trkpt>
      <trkpt lat="43.25731" lon="1.30636">
        <ele>260</ele>
        <time>2017-10-07T11:15:19Z</time>
      </trkpt>
      <trkpt lat="43.25729" lon="1.30633">
        <ele>260</ele>
        <time>2017-10-07T11:15:20Z</time>
      </trkpt>
      <trkpt lat="43.25728" lon="1.30629">
        <ele>260</ele>
        <time>2017-10-07T11:15:21Z</time>
      </trkpt>
      <trkpt lat="43.25727" lon="1.30626">
        <ele>261</ele>
        <time>2017-10-07T11:15:22Z</time>
      </trkpt>
      <trkpt lat="43.25723" lon="1.30609">
        <ele>261</ele>
        <time>2017-10-07T11:15:27Z</time>
      </trkpt>
      <trkpt lat="43.25722" lon="1.30606">
        <ele>262</ele>
        <time>2017-10-07T11:15:28Z</time>
      </trkpt>
      <trkpt lat="43.25721" lon="1.30603">
        <ele>262</ele>
        <time>2017-10-07T11:15:29Z</time>
      </trkpt>
      <trkpt lat="43.2572" lon="1.30601">
        <ele>263</ele>
        <time>2017-10-07T11:15:30Z</time>
      </trkpt>
      <trkpt lat="43.25718" lon="1.30599">
        <ele>263</ele>
        <time>2017-10-07T11:15:31Z</time>
      </trkpt>
      <trkpt lat="43.25715" lon="1.30599">
        <ele>263</ele>
        <time>2017-10-07T11:15:32Z</time>
      </trkpt>
      <trkpt lat="43.2571" lon="1.30601">
        <ele>263</ele>
        <time>2017-10-07T11:15:34Z</time>
      </trkpt>
      <trkpt lat="43.25709" lon="1.30604">
        <ele>264</ele>
        <time>2017-10-07T11:15:35Z</time>
      </trkpt>
      <trkpt lat="43.25707" lon="1.30606">
        <ele>264</ele>
        <time>2017-10-07T11:15:36Z</time>
      </trkpt>
      <trkpt lat="43.25704" lon="1.30608">
        <ele>265</ele>
        <time>2017-10-07T11:15:37Z</time>
      </trkpt>
      <trkpt lat="43.25701" lon="1.3061">
        <ele>265</ele>
        <time>2017-10-07T11:15:38Z</time>
      </trkpt>
      <trkpt lat="43.25694" lon="1.30615">
        <ele>265</ele>
        <time>2017-10-07T11:15:41Z</time>
      </trkpt>
      <trkpt lat="43.25689" lon="1.30618">
        <ele>266</ele>
        <time>2017-10-07T11:15:43Z</time>
      </trkpt>
      <trkpt lat="43.25687" lon="1.3062">
        <ele>266</ele>
        <time>2017-10-07T11:15:44Z</time>
      </trkpt>
      <trkpt lat="43.25684" lon="1.30621">
        <ele>266</ele>
        <time>2017-10-07T11:15:45Z</time>
      </trkpt>
      <trkpt lat="43.25681" lon="1.30622">
        <ele>267</ele>
        <time>2017-10-07T11:15:46Z</time>
      </trkpt>
      <trkpt lat="43.25679" lon="1.30624">
        <ele>267</ele>
        <time>2017-10-07T11:15:47Z</time>
      </trkpt>
      <trkpt lat="43.25677" lon="1.30626">
        <ele>267</ele>
        <time>2017-10-07T11:15:48Z</time>
      </trkpt>
      <trkpt lat="43.25657" lon="1.30641">
        <ele>267</ele>
        <time>2017-10-07T11:15:57Z</time>
      </trkpt>
      <trkpt lat="43.25644" lon="1.30651">
        <ele>268</ele>
        <time>2017-10-07T11:16:03Z</time>
      </trkpt>
      <trkpt lat="43.25642" lon="1.30653">
        <ele>268</ele>
        <time>2017-10-07T11:16:04Z</time>
      </trkpt>
      <trkpt lat="43.25639" lon="1.30655">
        <ele>269</ele>
        <time>2017-10-07T11:16:05Z</time>
      </trkpt>
      <trkpt lat="43.25637" lon="1.30657">
        <ele>269</ele>
        <time>2017-10-07T11:16:06Z</time>
      </trkpt>
      <trkpt lat="43.25635" lon="1.30659">
        <ele>269</ele>
        <time>2017-10-07T11:16:07Z</time>
      </trkpt>
      <trkpt lat="43.25628" lon="1.3067">
        <ele>269</ele>
        <time>2017-10-07T11:16:10Z</time>
      </trkpt>
      <trkpt lat="43.25626" lon="1.30674">
        <ele>269</ele>
        <time>2017-10-07T11:16:11Z</time>
      </trkpt>
      <trkpt lat="43.25624" lon="1.30679">
        <ele>268</ele>
        <time>2017-10-07T11:16:12Z</time>
      </trkpt>
      <trkpt lat="43.25623" lon="1.30684">
        <ele>267</ele>
        <time>2017-10-07T11:16:13Z</time>
      </trkpt>
      <trkpt lat="43.25619" lon="1.30687">
        <ele>267</ele>
        <time>2017-10-07T11:16:14Z</time>
      </trkpt>
      <trkpt lat="43.25615" lon="1.30689">
        <ele>266</ele>
        <time>2017-10-07T11:16:15Z</time>
      </trkpt>
      <trkpt lat="43.25611" lon="1.30689">
        <ele>266</ele>
        <time>2017-10-07T11:16:16Z</time>
      </trkpt>
      <trkpt lat="43.25607" lon="1.30689">
        <ele>265</ele>
        <time>2017-10-07T11:16:17Z</time>
      </trkpt>
      <trkpt lat="43.25603" lon="1.30687">
        <ele>264</ele>
        <time>2017-10-07T11:16:18Z</time>
      </trkpt>
      <trkpt lat="43.25599" lon="1.30684">
        <ele>263</ele>
        <time>2017-10-07T11:16:19Z</time>
      </trkpt>
      <trkpt lat="43.25595" lon="1.3068">
        <ele>263</ele>
        <time>2017-10-07T11:16:20Z</time>
      </trkpt>
      <trkpt lat="43.25591" lon="1.30675">
        <ele>262</ele>
        <time>2017-10-07T11:16:21Z</time>
      </trkpt>
      <trkpt lat="43.25586" lon="1.3067">
        <ele>261</ele>
        <time>2017-10-07T11:16:22Z</time>
      </trkpt>
      <trkpt lat="43.2558" lon="1.30665">
        <ele>260</ele>
        <time>2017-10-07T11:16:23Z</time>
      </trkpt>
      <trkpt lat="43.25575" lon="1.30661">
        <ele>260</ele>
        <time>2017-10-07T11:16:24Z</time>
      </trkpt>
      <trkpt lat="43.2557" lon="1.30656">
        <ele>259</ele>
        <time>2017-10-07T11:16:25Z</time>
      </trkpt>
      <trkpt lat="43.25566" lon="1.30652">
        <ele>257</ele>
        <time>2017-10-07T11:16:26Z</time>
      </trkpt>
      <trkpt lat="43.2556" lon="1.30653">
        <ele>256</ele>
        <time>2017-10-07T11:16:27Z</time>
      </trkpt>
      <trkpt lat="43.25554" lon="1.30656">
        <ele>255</ele>
        <time>2017-10-07T11:16:28Z</time>
      </trkpt>
      <trkpt lat="43.25548" lon="1.30661">
        <ele>254</ele>
        <time>2017-10-07T11:16:29Z</time>
      </trkpt>
      <trkpt lat="43.25542" lon="1.30668">
        <ele>253</ele>
        <time>2017-10-07T11:16:30Z</time>
      </trkpt>
      <trkpt lat="43.25536" lon="1.30675">
        <ele>252</ele>
        <time>2017-10-07T11:16:31Z</time>
      </trkpt>
      <trkpt lat="43.25528" lon="1.30682">
        <ele>251</ele>
        <time>2017-10-07T11:16:32Z</time>
      </trkpt>
      <trkpt lat="43.2552" lon="1.30689">
        <ele>250</ele>
        <time>2017-10-07T11:16:33Z</time>
      </trkpt>
      <trkpt lat="43.25511" lon="1.30697">
        <ele>249</ele>
        <time>2017-10-07T11:16:34Z</time>
      </trkpt>
      <trkpt lat="43.25504" lon="1.30705">
        <ele>248</ele>
        <time>2017-10-07T11:16:35Z</time>
      </trkpt>
      <trkpt lat="43.25498" lon="1.30713">
        <ele>247</ele>
        <time>2017-10-07T11:16:36Z</time>
      </trkpt>
      <trkpt lat="43.25494" lon="1.30722">
        <ele>246</ele>
        <time>2017-10-07T11:16:37Z</time>
      </trkpt>
      <trkpt lat="43.25492" lon="1.30731">
        <ele>244</ele>
        <time>2017-10-07T11:16:38Z</time>
      </trkpt>
      <trkpt lat="43.25493" lon="1.30739">
        <ele>242</ele>
        <time>2017-10-07T11:16:39Z</time>
      </trkpt>
      <trkpt lat="43.25495" lon="1.30748">
        <ele>241</ele>
        <time>2017-10-07T11:16:40Z</time>
      </trkpt>
      <trkpt lat="43.25498" lon="1.30756">
        <ele>240</ele>
        <time>2017-10-07T11:16:41Z</time>
      </trkpt>
      <trkpt lat="43.255" lon="1.30764">
        <ele>239</ele>
        <time>2017-10-07T11:16:42Z</time>
      </trkpt>
      <trkpt lat="43.25501" lon="1.30772">
        <ele>239</ele>
        <time>2017-10-07T11:16:43Z</time>
      </trkpt>
      <trkpt lat="43.25503" lon="1.30787">
        <ele>239</ele>
        <time>2017-10-07T11:16:45Z</time>
      </trkpt>
      <trkpt lat="43.25504" lon="1.30795">
        <ele>238</ele>
        <time>2017-10-07T11:16:46Z</time>
      </trkpt>
      <trkpt lat="43.25504" lon="1.30803">
        <ele>238</ele>
        <time>2017-10-07T11:16:47Z</time>
      </trkpt>
      <trkpt lat="43.25505" lon="1.3081">
        <ele>238</ele>
        <time>2017-10-07T11:16:48Z</time>
      </trkpt>
      <trkpt lat="43.25506" lon="1.30818">
        <ele>237</ele>
        <time>2017-10-07T11:16:49Z</time>
      </trkpt>
      <trkpt lat="43.25506" lon="1.30826">
        <ele>237</ele>
        <time>2017-10-07T11:16:50Z</time>
      </trkpt>
      <trkpt lat="43.25508" lon="1.30855">
        <ele>237</ele>
        <time>2017-10-07T11:16:54Z</time>
      </trkpt>
      <trkpt lat="43.25509" lon="1.30893">
        <ele>237</ele>
        <time>2017-10-07T11:16:59Z</time>
      </trkpt>
      <trkpt lat="43.25511" lon="1.30933">
        <ele>236</ele>
        <time>2017-10-07T11:17:04Z</time>
      </trkpt>
      <trkpt lat="43.25512" lon="1.30942">
        <ele>236</ele>
        <time>2017-10-07T11:17:05Z</time>
      </trkpt>
      <trkpt lat="43.25513" lon="1.3095">
        <ele>235</ele>
        <time>2017-10-07T11:17:06Z</time>
      </trkpt>
      <trkpt lat="43.25513" lon="1.30958">
        <ele>235</ele>
        <time>2017-10-07T11:17:07Z</time>
      </trkpt>
      <trkpt lat="43.25514" lon="1.30966">
        <ele>235</ele>
        <time>2017-10-07T11:17:08Z</time>
      </trkpt>
      <trkpt lat="43.25521" lon="1.3102">
        <ele>235</ele>
        <time>2017-10-07T11:17:15Z</time>
      </trkpt>
      <trkpt lat="43.25528" lon="1.3107">
        <ele>235</ele>
        <time>2017-10-07T11:17:22Z</time>
      </trkpt>
      <trkpt lat="43.25529" lon="1.31085">
        <ele>235</ele>
        <time>2017-10-07T11:17:24Z</time>
      </trkpt>
      <trkpt lat="43.25524" lon="1.31102">
        <ele>235</ele>
        <time>2017-10-07T11:17:27Z</time>
      </trkpt>
      <trkpt lat="43.25524" lon="1.31125">
        <ele>235</ele>
        <time>2017-10-07T11:17:31Z</time>
      </trkpt>
      <trkpt lat="43.25528" lon="1.31139">
        <ele>235</ele>
        <time>2017-10-07T11:17:33Z</time>
      </trkpt>
      <trkpt lat="43.25529" lon="1.31146">
        <ele>234</ele>
        <time>2017-10-07T11:17:34Z</time>
      </trkpt>
      <trkpt lat="43.2553" lon="1.31154">
        <ele>234</ele>
        <time>2017-10-07T11:17:35Z</time>
      </trkpt>
      <trkpt lat="43.25532" lon="1.31161">
        <ele>233</ele>
        <time>2017-10-07T11:17:36Z</time>
      </trkpt>
      <trkpt lat="43.25533" lon="1.31168">
        <ele>233</ele>
        <time>2017-10-07T11:17:37Z</time>
      </trkpt>
      <trkpt lat="43.25534" lon="1.31175">
        <ele>232</ele>
        <time>2017-10-07T11:17:38Z</time>
      </trkpt>
      <trkpt lat="43.25541" lon="1.31217">
        <ele>232</ele>
        <time>2017-10-07T11:17:44Z</time>
      </trkpt>
      <trkpt lat="43.25549" lon="1.31263">
        <ele>232</ele>
        <time>2017-10-07T11:17:51Z</time>
      </trkpt>
      <trkpt lat="43.2555" lon="1.3127">
        <ele>232</ele>
        <time>2017-10-07T11:17:52Z</time>
      </trkpt>
      <trkpt lat="43.25549" lon="1.31276">
        <ele>232</ele>
        <time>2017-10-07T11:17:53Z</time>
      </trkpt>
      <trkpt lat="43.25548" lon="1.31283">
        <ele>232</ele>
        <time>2017-10-07T11:17:54Z</time>
      </trkpt>
      <trkpt lat="43.25545" lon="1.31289">
        <ele>232</ele>
        <time>2017-10-07T11:17:55Z</time>
      </trkpt>
      <trkpt lat="43.25531" lon="1.31293">
        <ele>232</ele>
        <time>2017-10-07T11:17:58Z</time>
      </trkpt>
      <trkpt lat="43.25522" lon="1.31296">
        <ele>232</ele>
        <time>2017-10-07T11:18:00Z</time>
      </trkpt>
      <trkpt lat="43.25503" lon="1.31303">
        <ele>232</ele>
        <time>2017-10-07T11:18:04Z</time>
      </trkpt>
      <trkpt lat="43.25474" lon="1.31315">
        <ele>232</ele>
        <time>2017-10-07T11:18:10Z</time>
      </trkpt>
      <trkpt lat="43.2544" lon="1.31329">
        <ele>232</ele>
        <time>2017-10-07T11:18:17Z</time>
      </trkpt>
      <trkpt lat="43.25401" lon="1.3134">
        <ele>232</ele>
        <time>2017-10-07T11:18:25Z</time>
      </trkpt>
      <trkpt lat="43.25373" lon="1.31354">
        <ele>232</ele>
        <time>2017-10-07T11:18:31Z</time>
      </trkpt>
      <trkpt lat="43.25338" lon="1.31372">
        <ele>232</ele>
        <time>2017-10-07T11:18:39Z</time>
      </trkpt>
      <trkpt lat="43.25334" lon="1.31375">
        <ele>232</ele>
        <time>2017-10-07T11:18:40Z</time>
      </trkpt>
      <trkpt lat="43.25323" lon="1.31396">
        <ele>232</ele>
        <time>2017-10-07T11:18:44Z</time>
      </trkpt>
      <trkpt lat="43.2532" lon="1.31401">
        <ele>232</ele>
        <time>2017-10-07T11:18:45Z</time>
      </trkpt>
      <trkpt lat="43.25315" lon="1.31412">
        <ele>232</ele>
        <time>2017-10-07T11:18:47Z</time>
      </trkpt>
      <trkpt lat="43.25303" lon="1.31422">
        <ele>232</ele>
        <time>2017-10-07T11:18:50Z</time>
      </trkpt>
      <trkpt lat="43.25285" lon="1.3143">
        <ele>232</ele>
        <time>2017-10-07T11:18:54Z</time>
      </trkpt>
      <trkpt lat="43.25281" lon="1.31433">
        <ele>232</ele>
        <time>2017-10-07T11:18:55Z</time>
      </trkpt>
      <trkpt lat="43.25274" lon="1.31442">
        <ele>232</ele>
        <time>2017-10-07T11:18:57Z</time>
      </trkpt>
      <trkpt lat="43.2527" lon="1.31447">
        <ele>232</ele>
        <time>2017-10-07T11:18:58Z</time>
      </trkpt>
      <trkpt lat="43.25268" lon="1.31452">
        <ele>232</ele>
        <time>2017-10-07T11:18:59Z</time>
      </trkpt>
      <trkpt lat="43.25265" lon="1.31457">
        <ele>232</ele>
        <time>2017-10-07T11:19:00Z</time>
      </trkpt>
      <trkpt lat="43.25261" lon="1.31469">
        <ele>232</ele>
        <time>2017-10-07T11:19:02Z</time>
      </trkpt>
      <trkpt lat="43.25257" lon="1.31488">
        <ele>232</ele>
        <time>2017-10-07T11:19:05Z</time>
      </trkpt>
      <trkpt lat="43.25251" lon="1.31512">
        <ele>232</ele>
        <time>2017-10-07T11:19:09Z</time>
      </trkpt>
      <trkpt lat="43.25245" lon="1.31537">
        <ele>232</ele>
        <time>2017-10-07T11:19:13Z</time>
      </trkpt>
      <trkpt lat="43.25236" lon="1.31565">
        <ele>232</ele>
        <time>2017-10-07T11:19:18Z</time>
      </trkpt>
      <trkpt lat="43.25228" lon="1.31578">
        <ele>232</ele>
        <time>2017-10-07T11:19:22Z</time>
      </trkpt>
      <trkpt lat="43.25226" lon="1.31579">
        <ele>233</ele>
        <time>2017-10-07T11:19:23Z</time>
      </trkpt>
      <trkpt lat="43.25224" lon="1.31577">
        <ele>233</ele>
        <time>2017-10-07T11:19:24Z</time>
      </trkpt>
      <trkpt lat="43.25221" lon="1.31575">
        <ele>234</ele>
        <time>2017-10-07T11:19:25Z</time>
      </trkpt>
      <trkpt lat="43.25218" lon="1.31571">
        <ele>234</ele>
        <time>2017-10-07T11:19:26Z</time>
      </trkpt>
      <trkpt lat="43.25215" lon="1.31568">
        <ele>235</ele>
        <time>2017-10-07T11:19:27Z</time>
      </trkpt>
      <trkpt lat="43.25212" lon="1.31564">
        <ele>235</ele>
        <time>2017-10-07T11:19:28Z</time>
      </trkpt>
      <trkpt lat="43.25205" lon="1.31558">
        <ele>235</ele>
        <time>2017-10-07T11:19:30Z</time>
      </trkpt>
      <trkpt lat="43.25202" lon="1.31554">
        <ele>235</ele>
        <time>2017-10-07T11:19:31Z</time>
      </trkpt>
      <trkpt lat="43.25186" lon="1.31536">
        <ele>235</ele>
        <time>2017-10-07T11:19:36Z</time>
      </trkpt>
      <trkpt lat="43.25171" lon="1.31521">
        <ele>235</ele>
        <time>2017-10-07T11:19:41Z</time>
      </trkpt>
      <trkpt lat="43.25168" lon="1.31518">
        <ele>235</ele>
        <time>2017-10-07T11:19:42Z</time>
      </trkpt>
      <trkpt lat="43.25165" lon="1.31514">
        <ele>236</ele>
        <time>2017-10-07T11:19:43Z</time>
      </trkpt>
      <trkpt lat="43.25162" lon="1.31511">
        <ele>236</ele>
        <time>2017-10-07T11:19:44Z</time>
      </trkpt>
      <trkpt lat="43.2516" lon="1.31508">
        <ele>237</ele>
        <time>2017-10-07T11:19:45Z</time>
      </trkpt>
      <trkpt lat="43.25139" lon="1.31488">
        <ele>238</ele>
        <time>2017-10-07T11:19:52Z</time>
      </trkpt>
      <trkpt lat="43.25136" lon="1.31485">
        <ele>238</ele>
        <time>2017-10-07T11:19:53Z</time>
      </trkpt>
      <trkpt lat="43.25133" lon="1.31482">
        <ele>238</ele>
        <time>2017-10-07T11:19:54Z</time>
      </trkpt>
      <trkpt lat="43.2513" lon="1.31479">
        <ele>239</ele>
        <time>2017-10-07T11:19:55Z</time>
      </trkpt>
      <trkpt lat="43.25109" lon="1.31457">
        <ele>239</ele>
        <time>2017-10-07T11:20:02Z</time>
      </trkpt>
      <trkpt lat="43.25106" lon="1.31454">
        <ele>239</ele>
        <time>2017-10-07T11:20:03Z</time>
      </trkpt>
      <trkpt lat="43.25103" lon="1.31451">
        <ele>240</ele>
        <time>2017-10-07T11:20:04Z</time>
      </trkpt>
      <trkpt lat="43.25099" lon="1.31448">
        <ele>240</ele>
        <time>2017-10-07T11:20:05Z</time>
      </trkpt>
      <trkpt lat="43.25096" lon="1.31445">
        <ele>241</ele>
        <time>2017-10-07T11:20:06Z</time>
      </trkpt>
      <trkpt lat="43.25093" lon="1.31442">
        <ele>241</ele>
        <time>2017-10-07T11:20:07Z</time>
      </trkpt>
      <trkpt lat="43.25087" lon="1.31435">
        <ele>241</ele>
        <time>2017-10-07T11:20:09Z</time>
      </trkpt>
      <trkpt lat="43.25075" lon="1.31423">
        <ele>241</ele>
        <time>2017-10-07T11:20:13Z</time>
      </trkpt>
      <trkpt lat="43.25072" lon="1.3142">
        <ele>242</ele>
        <time>2017-10-07T11:20:14Z</time>
      </trkpt>
      <trkpt lat="43.25069" lon="1.31417">
        <ele>242</ele>
        <time>2017-10-07T11:20:15Z</time>
      </trkpt>
      <trkpt lat="43.25065" lon="1.31414">
        <ele>243</ele>
        <time>2017-10-07T11:20:16Z</time>
      </trkpt>
      <trkpt lat="43.25063" lon="1.31411">
        <ele>243</ele>
        <time>2017-10-07T11:20:17Z</time>
      </trkpt>
      <trkpt lat="43.25059" lon="1.31408">
        <ele>243</ele>
        <time>2017-10-07T11:20:18Z</time>
      </trkpt>
      <trkpt lat="43.25045" lon="1.31393">
        <ele>244</ele>
        <time>2017-10-07T11:20:23Z</time>
      </trkpt>
      <trkpt lat="43.25042" lon="1.3139">
        <ele>244</ele>
        <time>2017-10-07T11:20:24Z</time>
      </trkpt>
      <trkpt lat="43.25039" lon="1.31387">
        <ele>244</ele>
        <time>2017-10-07T11:20:25Z</time>
      </trkpt>
      <trkpt lat="43.25036" lon="1.31384">
        <ele>245</ele>
        <time>2017-10-07T11:20:26Z</time>
      </trkpt>
      <trkpt lat="43.25033" lon="1.31381">
        <ele>245</ele>
        <time>2017-10-07T11:20:27Z</time>
      </trkpt>
      <trkpt lat="43.25015" lon="1.31363">
        <ele>245</ele>
        <time>2017-10-07T11:20:33Z</time>
      </trkpt>
      <trkpt lat="43.25009" lon="1.31356">
        <ele>246</ele>
        <time>2017-10-07T11:20:35Z</time>
      </trkpt>
      <trkpt lat="43.25006" lon="1.31354">
        <ele>246</ele>
        <time>2017-10-07T11:20:36Z</time>
      </trkpt>
      <trkpt lat="43.25003" lon="1.31351">
        <ele>247</ele>
        <time>2017-10-07T11:20:37Z</time>
      </trkpt>
      <trkpt lat="43.25" lon="1.31348">
        <ele>247</ele>
        <time>2017-10-07T11:20:38Z</time>
      </trkpt>
      <trkpt lat="43.24997" lon="1.31346">
        <ele>247</ele>
        <time>2017-10-07T11:20:39Z</time>
      </trkpt>
      <trkpt lat="43.24991" lon="1.31341">
        <ele>247</ele>
        <time>2017-10-07T11:20:41Z</time>
      </trkpt>
      <trkpt lat="43.2498" lon="1.31343">
        <ele>247</ele>
        <time>2017-10-07T11:20:45Z</time>
      </trkpt>
      <trkpt lat="43.24976" lon="1.31347">
        <ele>247</ele>
        <time>2017-10-07T11:20:46Z</time>
      </trkpt>
      <trkpt lat="43.24967" lon="1.31357">
        <ele>247</ele>
        <time>2017-10-07T11:20:48Z</time>
      </trkpt>
      <trkpt lat="43.24958" lon="1.31364">
        <ele>247</ele>
        <time>2017-10-07T11:20:50Z</time>
      </trkpt>
      <trkpt lat="43.24951" lon="1.31364">
        <ele>247</ele>
        <time>2017-10-07T11:20:52Z</time>
      </trkpt>
      <trkpt lat="43.24939" lon="1.31356">
        <ele>247</ele>
        <time>2017-10-07T11:20:55Z</time>
      </trkpt>
      <trkpt lat="43.24936" lon="1.31354">
        <ele>247</ele>
        <time>2017-10-07T11:20:56Z</time>
      </trkpt>
      <trkpt lat="43.24933" lon="1.31352">
        <ele>246</ele>
        <time>2017-10-07T11:20:57Z</time>
      </trkpt>
      <trkpt lat="43.24928" lon="1.31349">
        <ele>246</ele>
        <time>2017-10-07T11:20:58Z</time>
      </trkpt>
      <trkpt lat="43.24925" lon="1.31347">
        <ele>245</ele>
        <time>2017-10-07T11:20:59Z</time>
      </trkpt>
      <trkpt lat="43.24915" lon="1.31338">
        <ele>245</ele>
        <time>2017-10-07T11:21:02Z</time>
      </trkpt>
      <trkpt lat="43.24895" lon="1.31319">
        <ele>245</ele>
        <time>2017-10-07T11:21:08Z</time>
      </trkpt>
      <trkpt lat="43.24876" lon="1.31302">
        <ele>245</ele>
        <time>2017-10-07T11:21:14Z</time>
      </trkpt>
      <trkpt lat="43.24871" lon="1.31298">
        <ele>246</ele>
        <time>2017-10-07T11:21:16Z</time>
      </trkpt>
      <trkpt lat="43.24868" lon="1.31296">
        <ele>246</ele>
        <time>2017-10-07T11:21:17Z</time>
      </trkpt>
      <trkpt lat="43.24865" lon="1.31293">
        <ele>247</ele>
        <time>2017-10-07T11:21:18Z</time>
      </trkpt>
      <trkpt lat="43.24862" lon="1.31292">
        <ele>247</ele>
        <time>2017-10-07T11:21:19Z</time>
      </trkpt>
      <trkpt lat="43.24858" lon="1.31291">
        <ele>248</ele>
        <time>2017-10-07T11:21:20Z</time>
      </trkpt>
      <trkpt lat="43.24848" lon="1.31292">
        <ele>248</ele>
        <time>2017-10-07T11:21:22Z</time>
      </trkpt>
      <trkpt lat="43.24837" lon="1.31298">
        <ele>248</ele>
        <time>2017-10-07T11:21:24Z</time>
      </trkpt>
      <trkpt lat="43.24816" lon="1.31311">
        <ele>247</ele>
        <time>2017-10-07T11:21:27Z</time>
      </trkpt>
      <trkpt lat="43.24809" lon="1.31315">
        <ele>247</ele>
        <time>2017-10-07T11:21:28Z</time>
      </trkpt>
      <trkpt lat="43.24802" lon="1.31316">
        <ele>246</ele>
        <time>2017-10-07T11:21:29Z</time>
      </trkpt>
      <trkpt lat="43.24797" lon="1.31315">
        <ele>246</ele>
        <time>2017-10-07T11:21:30Z</time>
      </trkpt>
      <trkpt lat="43.24793" lon="1.31314">
        <ele>245</ele>
        <time>2017-10-07T11:21:31Z</time>
      </trkpt>
      <trkpt lat="43.24786" lon="1.3131">
        <ele>245</ele>
        <time>2017-10-07T11:21:33Z</time>
      </trkpt>
      <trkpt lat="43.24779" lon="1.31304">
        <ele>245</ele>
        <time>2017-10-07T11:21:35Z</time>
      </trkpt>
      <trkpt lat="43.24775" lon="1.31303">
        <ele>245</ele>
        <time>2017-10-07T11:21:36Z</time>
      </trkpt>
      <trkpt lat="43.24757" lon="1.3129">
        <ele>245</ele>
        <time>2017-10-07T11:21:42Z</time>
      </trkpt>
      <trkpt lat="43.24748" lon="1.31282">
        <ele>246</ele>
        <time>2017-10-07T11:21:45Z</time>
      </trkpt>
      <trkpt lat="43.24745" lon="1.31279">
        <ele>246</ele>
        <time>2017-10-07T11:21:46Z</time>
      </trkpt>
      <trkpt lat="43.24742" lon="1.31277">
        <ele>247</ele>
        <time>2017-10-07T11:21:47Z</time>
      </trkpt>
      <trkpt lat="43.24739" lon="1.31274">
        <ele>247</ele>
        <time>2017-10-07T11:21:48Z</time>
      </trkpt>
      <trkpt lat="43.24736" lon="1.31272">
        <ele>248</ele>
        <time>2017-10-07T11:21:49Z</time>
      </trkpt>
      <trkpt lat="43.24722" lon="1.3126">
        <ele>248</ele>
        <time>2017-10-07T11:21:54Z</time>
      </trkpt>
      <trkpt lat="43.24707" lon="1.31246">
        <ele>248</ele>
        <time>2017-10-07T11:21:59Z</time>
      </trkpt>
      <trkpt lat="43.24704" lon="1.31244">
        <ele>248</ele>
        <time>2017-10-07T11:22:00Z</time>
      </trkpt>
      <trkpt lat="43.24702" lon="1.31241">
        <ele>248</ele>
        <time>2017-10-07T11:22:01Z</time>
      </trkpt>
      <trkpt lat="43.24699" lon="1.31239">
        <ele>249</ele>
        <time>2017-10-07T11:22:02Z</time>
      </trkpt>
      <trkpt lat="43.24697" lon="1.31237">
        <ele>249</ele>
        <time>2017-10-07T11:22:03Z</time>
      </trkpt>
      <trkpt lat="43.24695" lon="1.31235">
        <ele>250</ele>
        <time>2017-10-07T11:22:04Z</time>
      </trkpt>
      <trkpt lat="43.24693" lon="1.31233">
        <ele>250</ele>
        <time>2017-10-07T11:22:05Z</time>
      </trkpt>
      <trkpt lat="43.24677" lon="1.3122">
        <ele>250</ele>
        <time>2017-10-07T11:22:11Z</time>
      </trkpt>
      <trkpt lat="43.2467" lon="1.31213">
        <ele>250</ele>
        <time>2017-10-07T11:22:13Z</time>
      </trkpt>
      <trkpt lat="43.24657" lon="1.31198">
        <ele>250</ele>
        <time>2017-10-07T11:22:16Z</time>
      </trkpt>
      <trkpt lat="43.24647" lon="1.31189">
        <ele>249</ele>
        <time>2017-10-07T11:22:18Z</time>
      </trkpt>
      <trkpt lat="43.24641" lon="1.31186">
        <ele>249</ele>
        <time>2017-10-07T11:22:19Z</time>
      </trkpt>
      <trkpt lat="43.24635" lon="1.31184">
        <ele>248</ele>
        <time>2017-10-07T11:22:20Z</time>
      </trkpt>
      <trkpt lat="43.24631" lon="1.31182">
        <ele>248</ele>
        <time>2017-10-07T11:22:21Z</time>
      </trkpt>
      <trkpt lat="43.24627" lon="1.31179">
        <ele>248</ele>
        <time>2017-10-07T11:22:22Z</time>
      </trkpt>
      <trkpt lat="43.24617" lon="1.31172">
        <ele>248</ele>
        <time>2017-10-07T11:22:25Z</time>
      </trkpt>
      <trkpt lat="43.24614" lon="1.31172">
        <ele>248</ele>
        <time>2017-10-07T11:22:26Z</time>
      </trkpt>
      <trkpt lat="43.24612" lon="1.31173">
        <ele>248</ele>
        <time>2017-10-07T11:22:27Z</time>
      </trkpt>
      <trkpt lat="43.24609" lon="1.31173">
        <ele>249</ele>
        <time>2017-10-07T11:22:28Z</time>
      </trkpt>
      <trkpt lat="43.24608" lon="1.31173">
        <ele>249</ele>
        <time>2017-10-07T11:22:29Z</time>
      </trkpt>
      <trkpt lat="43.24606" lon="1.31174">
        <ele>250</ele>
        <time>2017-10-07T11:22:30Z</time>
      </trkpt>
      <trkpt lat="43.24605" lon="1.31175">
        <ele>250</ele>
        <time>2017-10-07T11:22:31Z</time>
      </trkpt>
      <trkpt lat="43.24604" lon="1.31177">
        <ele>251</ele>
        <time>2017-10-07T11:22:32Z</time>
      </trkpt>
      <trkpt lat="43.24602" lon="1.31179">
        <ele>251</ele>
        <time>2017-10-07T11:22:33Z</time>
      </trkpt>
      <trkpt lat="43.246" lon="1.31181">
        <ele>252</ele>
        <time>2017-10-07T11:22:34Z</time>
      </trkpt>
      <trkpt lat="43.24585" lon="1.312">
        <ele>252</ele>
        <time>2017-10-07T11:22:39Z</time>
      </trkpt>
      <trkpt lat="43.24569" lon="1.31221">
        <ele>252</ele>
        <time>2017-10-07T11:22:43Z</time>
      </trkpt>
      <trkpt lat="43.24565" lon="1.31227">
        <ele>252</ele>
        <time>2017-10-07T11:22:44Z</time>
      </trkpt>
      <trkpt lat="43.24561" lon="1.31232">
        <ele>251</ele>
        <time>2017-10-07T11:22:45Z</time>
      </trkpt>
      <trkpt lat="43.24557" lon="1.31238">
        <ele>250</ele>
        <time>2017-10-07T11:22:46Z</time>
      </trkpt>
      <trkpt lat="43.24552" lon="1.31245">
        <ele>249</ele>
        <time>2017-10-07T11:22:47Z</time>
      </trkpt>
      <trkpt lat="43.24547" lon="1.31253">
        <ele>249</ele>
        <time>2017-10-07T11:22:48Z</time>
      </trkpt>
      <trkpt lat="43.24542" lon="1.31262">
        <ele>248</ele>
        <time>2017-10-07T11:22:49Z</time>
      </trkpt>
      <trkpt lat="43.24538" lon="1.31271">
        <ele>248</ele>
        <time>2017-10-07T11:22:50Z</time>
      </trkpt>
      <trkpt lat="43.24535" lon="1.31279">
        <ele>247</ele>
        <time>2017-10-07T11:22:51Z</time>
      </trkpt>
      <trkpt lat="43.24531" lon="1.31287">
        <ele>246</ele>
        <time>2017-10-07T11:22:52Z</time>
      </trkpt>
      <trkpt lat="43.24528" lon="1.31294">
        <ele>246</ele>
        <time>2017-10-07T11:22:53Z</time>
      </trkpt>
      <trkpt lat="43.24523" lon="1.313">
        <ele>245</ele>
        <time>2017-10-07T11:22:54Z</time>
      </trkpt>
      <trkpt lat="43.24519" lon="1.31305">
        <ele>245</ele>
        <time>2017-10-07T11:22:55Z</time>
      </trkpt>
      <trkpt lat="43.24515" lon="1.31309">
        <ele>245</ele>
        <time>2017-10-07T11:22:56Z</time>
      </trkpt>
      <trkpt lat="43.24511" lon="1.31312">
        <ele>245</ele>
        <time>2017-10-07T11:22:57Z</time>
      </trkpt>
      <trkpt lat="43.24499" lon="1.31325">
        <ele>245</ele>
        <time>2017-10-07T11:23:01Z</time>
      </trkpt>
      <trkpt lat="43.24482" lon="1.31332">
        <ele>245</ele>
        <time>2017-10-07T11:23:06Z</time>
      </trkpt>
      <trkpt lat="43.24478" lon="1.31333">
        <ele>245</ele>
        <time>2017-10-07T11:23:07Z</time>
      </trkpt>
      <trkpt lat="43.24475" lon="1.31331">
        <ele>246</ele>
        <time>2017-10-07T11:23:08Z</time>
      </trkpt>
      <trkpt lat="43.24471" lon="1.31328">
        <ele>246</ele>
        <time>2017-10-07T11:23:09Z</time>
      </trkpt>
      <trkpt lat="43.24468" lon="1.31326">
        <ele>247</ele>
        <time>2017-10-07T11:23:10Z</time>
      </trkpt>
      <trkpt lat="43.24467" lon="1.31324">
        <ele>247</ele>
        <time>2017-10-07T11:23:11Z</time>
      </trkpt>
      <trkpt lat="43.24465" lon="1.31321">
        <ele>247</ele>
        <time>2017-10-07T11:23:12Z</time>
      </trkpt>
      <trkpt lat="43.24465" lon="1.31318">
        <ele>247</ele>
        <time>2017-10-07T11:23:13Z</time>
      </trkpt>
      <trkpt lat="43.24464" lon="1.31314">
        <ele>248</ele>
        <time>2017-10-07T11:23:14Z</time>
      </trkpt>
      <trkpt lat="43.24463" lon="1.31313">
        <ele>248</ele>
        <time>2017-10-07T11:23:15Z</time>
      </trkpt>
      <trkpt lat="43.24463" lon="1.3131">
        <ele>249</ele>
        <time>2017-10-07T11:23:16Z</time>
      </trkpt>
      <trkpt lat="43.24463" lon="1.31304">
        <ele>249</ele>
        <time>2017-10-07T11:23:18Z</time>
      </trkpt>
      <trkpt lat="43.24462" lon="1.31301">
        <ele>250</ele>
        <time>2017-10-07T11:23:19Z</time>
      </trkpt>
      <trkpt lat="43.24462" lon="1.31297">
        <ele>250</ele>
        <time>2017-10-07T11:23:20Z</time>
      </trkpt>
      <trkpt lat="43.24462" lon="1.31294">
        <ele>250</ele>
        <time>2017-10-07T11:23:21Z</time>
      </trkpt>
      <trkpt lat="43.24462" lon="1.31291">
        <ele>251</ele>
        <time>2017-10-07T11:23:22Z</time>
      </trkpt>
      <trkpt lat="43.24462" lon="1.31287">
        <ele>251</ele>
        <time>2017-10-07T11:23:23Z</time>
      </trkpt>
      <trkpt lat="43.24462" lon="1.31274">
        <ele>251</ele>
        <time>2017-10-07T11:23:27Z</time>
      </trkpt>
      <trkpt lat="43.24461" lon="1.3127">
        <ele>252</ele>
        <time>2017-10-07T11:23:28Z</time>
      </trkpt>
      <trkpt lat="43.24461" lon="1.31267">
        <ele>252</ele>
        <time>2017-10-07T11:23:29Z</time>
      </trkpt>
      <trkpt lat="43.2446" lon="1.31263">
        <ele>253</ele>
        <time>2017-10-07T11:23:30Z</time>
      </trkpt>
      <trkpt lat="43.2446" lon="1.3126">
        <ele>253</ele>
        <time>2017-10-07T11:23:31Z</time>
      </trkpt>
      <trkpt lat="43.24459" lon="1.31249">
        <ele>253</ele>
        <time>2017-10-07T11:23:35Z</time>
      </trkpt>
      <trkpt lat="43.24458" lon="1.31239">
        <ele>253</ele>
        <time>2017-10-07T11:23:39Z</time>
      </trkpt>
      <trkpt lat="43.24458" lon="1.31237">
        <ele>254</ele>
        <time>2017-10-07T11:23:40Z</time>
      </trkpt>
      <trkpt lat="43.24459" lon="1.31235">
        <ele>254</ele>
        <time>2017-10-07T11:23:41Z</time>
      </trkpt>
      <trkpt lat="43.24459" lon="1.31232">
        <ele>255</ele>
        <time>2017-10-07T11:23:42Z</time>
      </trkpt>
      <trkpt lat="43.24458" lon="1.31229">
        <ele>255</ele>
        <time>2017-10-07T11:23:43Z</time>
      </trkpt>
      <trkpt lat="43.24455" lon="1.31223">
        <ele>255</ele>
        <time>2017-10-07T11:23:46Z</time>
      </trkpt>
      <trkpt lat="43.24456" lon="1.31221">
        <ele>256</ele>
        <time>2017-10-07T11:23:47Z</time>
      </trkpt>
      <trkpt lat="43.24456" lon="1.31219">
        <ele>256</ele>
        <time>2017-10-07T11:23:48Z</time>
      </trkpt>
      <trkpt lat="43.24456" lon="1.31216">
        <ele>257</ele>
        <time>2017-10-07T11:23:49Z</time>
      </trkpt>
      <trkpt lat="43.24456" lon="1.31213">
        <ele>257</ele>
        <time>2017-10-07T11:23:50Z</time>
      </trkpt>
      <trkpt lat="43.24455" lon="1.3121">
        <ele>257</ele>
        <time>2017-10-07T11:23:51Z</time>
      </trkpt>
      <trkpt lat="43.24454" lon="1.31197">
        <ele>258</ele>
        <time>2017-10-07T11:23:55Z</time>
      </trkpt>
      <trkpt lat="43.24454" lon="1.31193">
        <ele>258</ele>
        <time>2017-10-07T11:23:56Z</time>
      </trkpt>
      <trkpt lat="43.24454" lon="1.3119">
        <ele>259</ele>
        <time>2017-10-07T11:23:57Z</time>
      </trkpt>
      <trkpt lat="43.24454" lon="1.31187">
        <ele>259</ele>
        <time>2017-10-07T11:23:58Z</time>
      </trkpt>
      <trkpt lat="43.24454" lon="1.31184">
        <ele>259</ele>
        <time>2017-10-07T11:23:59Z</time>
      </trkpt>
      <trkpt lat="43.24452" lon="1.31177">
        <ele>259</ele>
        <time>2017-10-07T11:24:02Z</time>
      </trkpt>
      <trkpt lat="43.24449" lon="1.31163">
        <ele>260</ele>
        <time>2017-10-07T11:24:07Z</time>
      </trkpt>
      <trkpt lat="43.24449" lon="1.3116">
        <ele>260</ele>
        <time>2017-10-07T11:24:08Z</time>
      </trkpt>
      <trkpt lat="43.24448" lon="1.31158">
        <ele>261</ele>
        <time>2017-10-07T11:24:09Z</time>
      </trkpt>
      <trkpt lat="43.24448" lon="1.31155">
        <ele>261</ele>
        <time>2017-10-07T11:24:10Z</time>
      </trkpt>
      <trkpt lat="43.24447" lon="1.31152">
        <ele>262</ele>
        <time>2017-10-07T11:24:11Z</time>
      </trkpt>
      <trkpt lat="43.24445" lon="1.31141">
        <ele>262</ele>
        <time>2017-10-07T11:24:15Z</time>
      </trkpt>
      <trkpt lat="43.24441" lon="1.31117">
        <ele>262</ele>
        <time>2017-10-07T11:24:22Z</time>
      </trkpt>
      <trkpt lat="43.2444" lon="1.31114">
        <ele>263</ele>
        <time>2017-10-07T11:24:23Z</time>
      </trkpt>
      <trkpt lat="43.24439" lon="1.31111">
        <ele>263</ele>
        <time>2017-10-07T11:24:24Z</time>
      </trkpt>
      <trkpt lat="43.24438" lon="1.31107">
        <ele>264</ele>
        <time>2017-10-07T11:24:25Z</time>
      </trkpt>
      <trkpt lat="43.24433" lon="1.31092">
        <ele>264</ele>
        <time>2017-10-07T11:24:30Z</time>
      </trkpt>
      <trkpt lat="43.2443" lon="1.31076">
        <ele>264</ele>
        <time>2017-10-07T11:24:35Z</time>
      </trkpt>
      <trkpt lat="43.24429" lon="1.31072">
        <ele>265</ele>
        <time>2017-10-07T11:24:36Z</time>
      </trkpt>
      <trkpt lat="43.24428" lon="1.3107">
        <ele>265</ele>
        <time>2017-10-07T11:24:37Z</time>
      </trkpt>
      <trkpt lat="43.24428" lon="1.31067">
        <ele>265</ele>
        <time>2017-10-07T11:24:38Z</time>
      </trkpt>
      <trkpt lat="43.24428" lon="1.31064">
        <ele>266</ele>
        <time>2017-10-07T11:24:39Z</time>
      </trkpt>
      <trkpt lat="43.24426" lon="1.31059">
        <ele>266</ele>
        <time>2017-10-07T11:24:41Z</time>
      </trkpt>
      <trkpt lat="43.24425" lon="1.31053">
        <ele>266</ele>
        <time>2017-10-07T11:24:43Z</time>
      </trkpt>
      <trkpt lat="43.24424" lon="1.31049">
        <ele>266</ele>
        <time>2017-10-07T11:24:44Z</time>
      </trkpt>
      <trkpt lat="43.24423" lon="1.31046">
        <ele>267</ele>
        <time>2017-10-07T11:24:45Z</time>
      </trkpt>
      <trkpt lat="43.24422" lon="1.31043">
        <ele>267</ele>
        <time>2017-10-07T11:24:46Z</time>
      </trkpt>
      <trkpt lat="43.24421" lon="1.31041">
        <ele>268</ele>
        <time>2017-10-07T11:24:47Z</time>
      </trkpt>
      <trkpt lat="43.2442" lon="1.31038">
        <ele>268</ele>
        <time>2017-10-07T11:24:48Z</time>
      </trkpt>
      <trkpt lat="43.24419" lon="1.31035">
        <ele>268</ele>
        <time>2017-10-07T11:24:49Z</time>
      </trkpt>
      <trkpt lat="43.24414" lon="1.31024">
        <ele>268</ele>
        <time>2017-10-07T11:24:53Z</time>
      </trkpt>
      <trkpt lat="43.24413" lon="1.31021">
        <ele>269</ele>
        <time>2017-10-07T11:24:54Z</time>
      </trkpt>
      <trkpt lat="43.24411" lon="1.31017">
        <ele>269</ele>
        <time>2017-10-07T11:24:55Z</time>
      </trkpt>
      <trkpt lat="43.24409" lon="1.31014">
        <ele>270</ele>
        <time>2017-10-07T11:24:56Z</time>
      </trkpt>
      <trkpt lat="43.24407" lon="1.31011">
        <ele>270</ele>
        <time>2017-10-07T11:24:57Z</time>
      </trkpt>
      <trkpt lat="43.24397" lon="1.30997">
        <ele>270</ele>
        <time>2017-10-07T11:25:03Z</time>
      </trkpt>
      <trkpt lat="43.24395" lon="1.30994">
        <ele>271</ele>
        <time>2017-10-07T11:25:04Z</time>
      </trkpt>
      <trkpt lat="43.24394" lon="1.30991">
        <ele>271</ele>
        <time>2017-10-07T11:25:05Z</time>
      </trkpt>
      <trkpt lat="43.24393" lon="1.30989">
        <ele>271</ele>
        <time>2017-10-07T11:25:06Z</time>
      </trkpt>
      <trkpt lat="43.24392" lon="1.30987">
        <ele>272</ele>
        <time>2017-10-07T11:25:07Z</time>
      </trkpt>
      <trkpt lat="43.24391" lon="1.30985">
        <ele>272</ele>
        <time>2017-10-07T11:25:08Z</time>
      </trkpt>
      <trkpt lat="43.24389" lon="1.30983">
        <ele>272</ele>
        <time>2017-10-07T11:25:09Z</time>
      </trkpt>
      <trkpt lat="43.24381" lon="1.30972">
        <ele>273</ele>
        <time>2017-10-07T11:25:14Z</time>
      </trkpt>
      <trkpt lat="43.24379" lon="1.3097">
        <ele>273</ele>
        <time>2017-10-07T11:25:15Z</time>
      </trkpt>
      <trkpt lat="43.24377" lon="1.30968">
        <ele>274</ele>
        <time>2017-10-07T11:25:16Z</time>
      </trkpt>
      <trkpt lat="43.24375" lon="1.30965">
        <ele>274</ele>
        <time>2017-10-07T11:25:17Z</time>
      </trkpt>
      <trkpt lat="43.24373" lon="1.30963">
        <ele>274</ele>
        <time>2017-10-07T11:25:18Z</time>
      </trkpt>
      <trkpt lat="43.24365" lon="1.30951">
        <ele>275</ele>
        <time>2017-10-07T11:25:23Z</time>
      </trkpt>
      <trkpt lat="43.24363" lon="1.3095">
        <ele>275</ele>
        <time>2017-10-07T11:25:24Z</time>
      </trkpt>
      <trkpt lat="43.24362" lon="1.30948">
        <ele>276</ele>
        <time>2017-10-07T11:25:25Z</time>
      </trkpt>
      <trkpt lat="43.2436" lon="1.30945">
        <ele>276</ele>
        <time>2017-10-07T11:25:26Z</time>
      </trkpt>
      <trkpt lat="43.24359" lon="1.30943">
        <ele>277</ele>
        <time>2017-10-07T11:25:27Z</time>
      </trkpt>
      <trkpt lat="43.24355" lon="1.30938">
        <ele>277</ele>
        <time>2017-10-07T11:25:29Z</time>
      </trkpt>
      <trkpt lat="43.24351" lon="1.30931">
        <ele>277</ele>
        <time>2017-10-07T11:25:32Z</time>
      </trkpt>
      <trkpt lat="43.2435" lon="1.30929">
        <ele>278</ele>
        <time>2017-10-07T11:25:33Z</time>
      </trkpt>
      <trkpt lat="43.24348" lon="1.30927">
        <ele>278</ele>
        <time>2017-10-07T11:25:34Z</time>
      </trkpt>
      <trkpt lat="43.24347" lon="1.30925">
        <ele>278</ele>
        <time>2017-10-07T11:25:35Z</time>
      </trkpt>
      <trkpt lat="43.24346" lon="1.30924">
        <ele>279</ele>
        <time>2017-10-07T11:25:36Z</time>
      </trkpt>
      <trkpt lat="43.24344" lon="1.30922">
        <ele>279</ele>
        <time>2017-10-07T11:25:37Z</time>
      </trkpt>
      <trkpt lat="43.24341" lon="1.30916">
        <ele>279</ele>
        <time>2017-10-07T11:25:40Z</time>
      </trkpt>
      <trkpt lat="43.2434" lon="1.30914">
        <ele>280</ele>
        <time>2017-10-07T11:25:41Z</time>
      </trkpt>
      <trkpt lat="43.24337" lon="1.30912">
        <ele>280</ele>
        <time>2017-10-07T11:25:42Z</time>
      </trkpt>
      <trkpt lat="43.24336" lon="1.30909">
        <ele>281</ele>
        <time>2017-10-07T11:25:43Z</time>
      </trkpt>
      <trkpt lat="43.24334" lon="1.30907">
        <ele>281</ele>
        <time>2017-10-07T11:25:44Z</time>
      </trkpt>
      <trkpt lat="43.24329" lon="1.309">
        <ele>281</ele>
        <time>2017-10-07T11:25:47Z</time>
      </trkpt>
      <trkpt lat="43.24324" lon="1.30895">
        <ele>281</ele>
        <time>2017-10-07T11:25:49Z</time>
      </trkpt>
      <trkpt lat="43.24322" lon="1.30893">
        <ele>282</ele>
        <time>2017-10-07T11:25:50Z</time>
      </trkpt>
      <trkpt lat="43.24321" lon="1.3089">
        <ele>282</ele>
        <time>2017-10-07T11:25:51Z</time>
      </trkpt>
      <trkpt lat="43.24319" lon="1.30887">
        <ele>283</ele>
        <time>2017-10-07T11:25:52Z</time>
      </trkpt>
      <trkpt lat="43.24317" lon="1.30885">
        <ele>283</ele>
        <time>2017-10-07T11:25:53Z</time>
      </trkpt>
      <trkpt lat="43.24316" lon="1.30882">
        <ele>283</ele>
        <time>2017-10-07T11:25:54Z</time>
      </trkpt>
      <trkpt lat="43.24306" lon="1.30871">
        <ele>284</ele>
        <time>2017-10-07T11:25:59Z</time>
      </trkpt>
      <trkpt lat="43.24304" lon="1.30869">
        <ele>284</ele>
        <time>2017-10-07T11:26:00Z</time>
      </trkpt>
      <trkpt lat="43.24302" lon="1.30867">
        <ele>285</ele>
        <time>2017-10-07T11:26:01Z</time>
      </trkpt>
      <trkpt lat="43.24301" lon="1.30864">
        <ele>285</ele>
        <time>2017-10-07T11:26:02Z</time>
      </trkpt>
      <trkpt lat="43.24299" lon="1.30862">
        <ele>285</ele>
        <time>2017-10-07T11:26:03Z</time>
      </trkpt>
      <trkpt lat="43.24292" lon="1.30854">
        <ele>286</ele>
        <time>2017-10-07T11:26:07Z</time>
      </trkpt>
      <trkpt lat="43.2429" lon="1.30852">
        <ele>286</ele>
        <time>2017-10-07T11:26:08Z</time>
      </trkpt>
      <trkpt lat="43.24289" lon="1.3085">
        <ele>287</ele>
        <time>2017-10-07T11:26:09Z</time>
      </trkpt>
      <trkpt lat="43.24287" lon="1.30848">
        <ele>287</ele>
        <time>2017-10-07T11:26:10Z</time>
      </trkpt>
      <trkpt lat="43.24285" lon="1.30846">
        <ele>288</ele>
        <time>2017-10-07T11:26:11Z</time>
      </trkpt>
      <trkpt lat="43.24273" lon="1.30841">
        <ele>288</ele>
        <time>2017-10-07T11:26:16Z</time>
      </trkpt>
      <trkpt lat="43.24271" lon="1.3084">
        <ele>289</ele>
        <time>2017-10-07T11:26:17Z</time>
      </trkpt>
      <trkpt lat="43.24269" lon="1.30839">
        <ele>289</ele>
        <time>2017-10-07T11:26:18Z</time>
      </trkpt>
      <trkpt lat="43.24266" lon="1.30839">
        <ele>289</ele>
        <time>2017-10-07T11:26:19Z</time>
      </trkpt>
      <trkpt lat="43.24264" lon="1.3084">
        <ele>290</ele>
        <time>2017-10-07T11:26:20Z</time>
      </trkpt>
      <trkpt lat="43.24262" lon="1.30841">
        <ele>290</ele>
        <time>2017-10-07T11:26:21Z</time>
      </trkpt>
      <trkpt lat="43.2426" lon="1.30843">
        <ele>290</ele>
        <time>2017-10-07T11:26:22Z</time>
      </trkpt>
      <trkpt lat="43.24257" lon="1.30851">
        <ele>290</ele>
        <time>2017-10-07T11:26:25Z</time>
      </trkpt>
      <trkpt lat="43.24256" lon="1.30861">
        <ele>290</ele>
        <time>2017-10-07T11:26:28Z</time>
      </trkpt>
      <trkpt lat="43.24255" lon="1.30868">
        <ele>290</ele>
        <time>2017-10-07T11:26:30Z</time>
      </trkpt>
      <trkpt lat="43.24247" lon="1.30899">
        <ele>290</ele>
        <time>2017-10-07T11:26:38Z</time>
      </trkpt>
      <trkpt lat="43.2424" lon="1.30926">
        <ele>290</ele>
        <time>2017-10-07T11:26:43Z</time>
      </trkpt>
      <trkpt lat="43.24238" lon="1.30933">
        <ele>290</ele>
        <time>2017-10-07T11:26:44Z</time>
      </trkpt>
      <trkpt lat="43.24234" lon="1.30947">
        <ele>289</ele>
        <time>2017-10-07T11:26:46Z</time>
      </trkpt>
      <trkpt lat="43.24233" lon="1.30954">
        <ele>289</ele>
        <time>2017-10-07T11:26:47Z</time>
      </trkpt>
      <trkpt lat="43.24231" lon="1.30961">
        <ele>289</ele>
        <time>2017-10-07T11:26:48Z</time>
      </trkpt>
      <trkpt lat="43.24229" lon="1.3097">
        <ele>288</ele>
        <time>2017-10-07T11:26:49Z</time>
      </trkpt>
      <trkpt lat="43.24227" lon="1.30978">
        <ele>288</ele>
        <time>2017-10-07T11:26:50Z</time>
      </trkpt>
      <trkpt lat="43.24223" lon="1.30994">
        <ele>287</ele>
        <time>2017-10-07T11:26:52Z</time>
      </trkpt>
      <trkpt lat="43.24221" lon="1.31004">
        <ele>286</ele>
        <time>2017-10-07T11:26:53Z</time>
      </trkpt>
      <trkpt lat="43.24219" lon="1.31013">
        <ele>286</ele>
        <time>2017-10-07T11:26:54Z</time>
      </trkpt>
      <trkpt lat="43.24217" lon="1.31024">
        <ele>285</ele>
        <time>2017-10-07T11:26:55Z</time>
      </trkpt>
      <trkpt lat="43.24215" lon="1.31034">
        <ele>285</ele>
        <time>2017-10-07T11:26:56Z</time>
      </trkpt>
      <trkpt lat="43.24213" lon="1.31045">
        <ele>284</ele>
        <time>2017-10-07T11:26:57Z</time>
      </trkpt>
      <trkpt lat="43.24212" lon="1.31055">
        <ele>284</ele>
        <time>2017-10-07T11:26:58Z</time>
      </trkpt>
      <trkpt lat="43.24211" lon="1.31067">
        <ele>283</ele>
        <time>2017-10-07T11:26:59Z</time>
      </trkpt>
      <trkpt lat="43.2421" lon="1.31077">
        <ele>282</ele>
        <time>2017-10-07T11:27:00Z</time>
      </trkpt>
      <trkpt lat="43.2421" lon="1.31089">
        <ele>282</ele>
        <time>2017-10-07T11:27:01Z</time>
      </trkpt>
      <trkpt lat="43.24209" lon="1.311">
        <ele>281</ele>
        <time>2017-10-07T11:27:02Z</time>
      </trkpt>
      <trkpt lat="43.24208" lon="1.31111">
        <ele>280</ele>
        <time>2017-10-07T11:27:03Z</time>
      </trkpt>
      <trkpt lat="43.24208" lon="1.31121">
        <ele>279</ele>
        <time>2017-10-07T11:27:04Z</time>
      </trkpt>
      <trkpt lat="43.24208" lon="1.31133">
        <ele>279</ele>
        <time>2017-10-07T11:27:05Z</time>
      </trkpt>
      <trkpt lat="43.24208" lon="1.31144">
        <ele>278</ele>
        <time>2017-10-07T11:27:06Z</time>
      </trkpt>
      <trkpt lat="43.24208" lon="1.31155">
        <ele>277</ele>
        <time>2017-10-07T11:27:07Z</time>
      </trkpt>
      <trkpt lat="43.24209" lon="1.31167">
        <ele>276</ele>
        <time>2017-10-07T11:27:08Z</time>
      </trkpt>
      <trkpt lat="43.2421" lon="1.31177">
        <ele>276</ele>
        <time>2017-10-07T11:27:09Z</time>
      </trkpt>
      <trkpt lat="43.2421" lon="1.31189">
        <ele>275</ele>
        <time>2017-10-07T11:27:10Z</time>
      </trkpt>
      <trkpt lat="43.24211" lon="1.312">
        <ele>274</ele>
        <time>2017-10-07T11:27:11Z</time>
      </trkpt>
      <trkpt lat="43.24212" lon="1.31212">
        <ele>273</ele>
        <time>2017-10-07T11:27:12Z</time>
      </trkpt>
      <trkpt lat="43.24213" lon="1.31223">
        <ele>272</ele>
        <time>2017-10-07T11:27:13Z</time>
      </trkpt>
      <trkpt lat="43.24214" lon="1.31233">
        <ele>272</ele>
        <time>2017-10-07T11:27:14Z</time>
      </trkpt>
      <trkpt lat="43.24214" lon="1.31244">
        <ele>272</ele>
        <time>2017-10-07T11:27:15Z</time>
      </trkpt>
      <trkpt lat="43.24214" lon="1.31254">
        <ele>271</ele>
        <time>2017-10-07T11:27:16Z</time>
      </trkpt>
      <trkpt lat="43.24214" lon="1.31264">
        <ele>270</ele>
        <time>2017-10-07T11:27:17Z</time>
      </trkpt>
      <trkpt lat="43.24212" lon="1.31275">
        <ele>270</ele>
        <time>2017-10-07T11:27:18Z</time>
      </trkpt>
      <trkpt lat="43.24209" lon="1.31284">
        <ele>269</ele>
        <time>2017-10-07T11:27:19Z</time>
      </trkpt>
      <trkpt lat="43.24205" lon="1.31294">
        <ele>268</ele>
        <time>2017-10-07T11:27:20Z</time>
      </trkpt>
      <trkpt lat="43.242" lon="1.31302">
        <ele>268</ele>
        <time>2017-10-07T11:27:21Z</time>
      </trkpt>
      <trkpt lat="43.24196" lon="1.3131">
        <ele>267</ele>
        <time>2017-10-07T11:27:22Z</time>
      </trkpt>
      <trkpt lat="43.24191" lon="1.31319">
        <ele>267</ele>
        <time>2017-10-07T11:27:23Z</time>
      </trkpt>
      <trkpt lat="43.24186" lon="1.31328">
        <ele>266</ele>
        <time>2017-10-07T11:27:24Z</time>
      </trkpt>
      <trkpt lat="43.24181" lon="1.31337">
        <ele>265</ele>
        <time>2017-10-07T11:27:25Z</time>
      </trkpt>
      <trkpt lat="43.24175" lon="1.31347">
        <ele>265</ele>
        <time>2017-10-07T11:27:26Z</time>
      </trkpt>
      <trkpt lat="43.24169" lon="1.31355">
        <ele>264</ele>
        <time>2017-10-07T11:27:27Z</time>
      </trkpt>
      <trkpt lat="43.24163" lon="1.31363">
        <ele>263</ele>
        <time>2017-10-07T11:27:28Z</time>
      </trkpt>
      <trkpt lat="43.24157" lon="1.31371">
        <ele>263</ele>
        <time>2017-10-07T11:27:29Z</time>
      </trkpt>
      <trkpt lat="43.24152" lon="1.31376">
        <ele>262</ele>
        <time>2017-10-07T11:27:30Z</time>
      </trkpt>
      <trkpt lat="43.24147" lon="1.31383">
        <ele>261</ele>
        <time>2017-10-07T11:27:31Z</time>
      </trkpt>
      <trkpt lat="43.24142" lon="1.3139">
        <ele>261</ele>
        <time>2017-10-07T11:27:32Z</time>
      </trkpt>
      <trkpt lat="43.24135" lon="1.31397">
        <ele>260</ele>
        <time>2017-10-07T11:27:33Z</time>
      </trkpt>
      <trkpt lat="43.24128" lon="1.31401">
        <ele>259</ele>
        <time>2017-10-07T11:27:34Z</time>
      </trkpt>
      <trkpt lat="43.24121" lon="1.31406">
        <ele>259</ele>
        <time>2017-10-07T11:27:35Z</time>
      </trkpt>
      <trkpt lat="43.24114" lon="1.31411">
        <ele>258</ele>
        <time>2017-10-07T11:27:36Z</time>
      </trkpt>
      <trkpt lat="43.24106" lon="1.31415">
        <ele>257</ele>
        <time>2017-10-07T11:27:37Z</time>
      </trkpt>
      <trkpt lat="43.24099" lon="1.31419">
        <ele>257</ele>
        <time>2017-10-07T11:27:38Z</time>
      </trkpt>
      <trkpt lat="43.24091" lon="1.31422">
        <ele>256</ele>
        <time>2017-10-07T11:27:39Z</time>
      </trkpt>
      <trkpt lat="43.24084" lon="1.31424">
        <ele>256</ele>
        <time>2017-10-07T11:27:40Z</time>
      </trkpt>
      <trkpt lat="43.24078" lon="1.31427">
        <ele>255</ele>
        <time>2017-10-07T11:27:41Z</time>
      </trkpt>
      <trkpt lat="43.2407" lon="1.31428">
        <ele>255</ele>
        <time>2017-10-07T11:27:42Z</time>
      </trkpt>
      <trkpt lat="43.24062" lon="1.31427">
        <ele>254</ele>
        <time>2017-10-07T11:27:43Z</time>
      </trkpt>
      <trkpt lat="43.24055" lon="1.31427">
        <ele>254</ele>
        <time>2017-10-07T11:27:44Z</time>
      </trkpt>
      <trkpt lat="43.24047" lon="1.31427">
        <ele>253</ele>
        <time>2017-10-07T11:27:45Z</time>
      </trkpt>
      <trkpt lat="43.24039" lon="1.31427">
        <ele>253</ele>
        <time>2017-10-07T11:27:46Z</time>
      </trkpt>
      <trkpt lat="43.24011" lon="1.3143">
        <ele>253</ele>
        <time>2017-10-07T11:27:50Z</time>
      </trkpt>
      <trkpt lat="43.2398" lon="1.31433">
        <ele>253</ele>
        <time>2017-10-07T11:27:55Z</time>
      </trkpt>
      <trkpt lat="43.23967" lon="1.31435">
        <ele>252</ele>
        <time>2017-10-07T11:27:57Z</time>
      </trkpt>
      <trkpt lat="43.23961" lon="1.31436">
        <ele>252</ele>
        <time>2017-10-07T11:27:58Z</time>
      </trkpt>
      <trkpt lat="43.23955" lon="1.31437">
        <ele>251</ele>
        <time>2017-10-07T11:27:59Z</time>
      </trkpt>
      <trkpt lat="43.23948" lon="1.31439">
        <ele>251</ele>
        <time>2017-10-07T11:28:00Z</time>
      </trkpt>
      <trkpt lat="43.23942" lon="1.3144">
        <ele>251</ele>
        <time>2017-10-07T11:28:01Z</time>
      </trkpt>
      <trkpt lat="43.23937" lon="1.3144">
        <ele>251</ele>
        <time>2017-10-07T11:28:02Z</time>
      </trkpt>
      <trkpt lat="43.23922" lon="1.31442">
        <ele>251</ele>
        <time>2017-10-07T11:28:05Z</time>
      </trkpt>
      <trkpt lat="43.23904" lon="1.31442">
        <ele>251</ele>
        <time>2017-10-07T11:28:08Z</time>
      </trkpt>
      <trkpt lat="43.23897" lon="1.31441">
        <ele>250</ele>
        <time>2017-10-07T11:28:09Z</time>
      </trkpt>
      <trkpt lat="43.23891" lon="1.31441">
        <ele>250</ele>
        <time>2017-10-07T11:28:10Z</time>
      </trkpt>
      <trkpt lat="43.23886" lon="1.31443">
        <ele>249</ele>
        <time>2017-10-07T11:28:11Z</time>
      </trkpt>
      <trkpt lat="43.23883" lon="1.31449">
        <ele>249</ele>
        <time>2017-10-07T11:28:12Z</time>
      </trkpt>
      <trkpt lat="43.23882" lon="1.31454">
        <ele>248</ele>
        <time>2017-10-07T11:28:13Z</time>
      </trkpt>
      <trkpt lat="43.23883" lon="1.31464">
        <ele>248</ele>
        <time>2017-10-07T11:28:15Z</time>
      </trkpt>
      <trkpt lat="43.23885" lon="1.31476">
        <ele>248</ele>
        <time>2017-10-07T11:28:17Z</time>
      </trkpt>
      <trkpt lat="43.23888" lon="1.31482">
        <ele>248</ele>
        <time>2017-10-07T11:28:18Z</time>
      </trkpt>
      <trkpt lat="43.23895" lon="1.31497">
        <ele>248</ele>
        <time>2017-10-07T11:28:20Z</time>
      </trkpt>
      <trkpt lat="43.23904" lon="1.31527">
        <ele>248</ele>
        <time>2017-10-07T11:28:24Z</time>
      </trkpt>
      <trkpt lat="43.23906" lon="1.31535">
        <ele>247</ele>
        <time>2017-10-07T11:28:25Z</time>
      </trkpt>
      <trkpt lat="43.23908" lon="1.31543">
        <ele>247</ele>
        <time>2017-10-07T11:28:26Z</time>
      </trkpt>
      <trkpt lat="43.2391" lon="1.3155">
        <ele>247</ele>
        <time>2017-10-07T11:28:27Z</time>
      </trkpt>
      <trkpt lat="43.23912" lon="1.31558">
        <ele>246</ele>
        <time>2017-10-07T11:28:28Z</time>
      </trkpt>
      <trkpt lat="43.23919" lon="1.31582">
        <ele>245</ele>
        <time>2017-10-07T11:28:31Z</time>
      </trkpt>
      <trkpt lat="43.23921" lon="1.3159">
        <ele>245</ele>
        <time>2017-10-07T11:28:32Z</time>
      </trkpt>
      <trkpt lat="43.23923" lon="1.31598">
        <ele>244</ele>
        <time>2017-10-07T11:28:33Z</time>
      </trkpt>
      <trkpt lat="43.23924" lon="1.31605">
        <ele>244</ele>
        <time>2017-10-07T11:28:34Z</time>
      </trkpt>
      <trkpt lat="43.23925" lon="1.31611">
        <ele>244</ele>
        <time>2017-10-07T11:28:35Z</time>
      </trkpt>
      <trkpt lat="43.2392" lon="1.31621">
        <ele>244</ele>
        <time>2017-10-07T11:28:37Z</time>
      </trkpt>
      <trkpt lat="43.23906" lon="1.31635">
        <ele>244</ele>
        <time>2017-10-07T11:28:41Z</time>
      </trkpt>
      <trkpt lat="43.23902" lon="1.31638">
        <ele>244</ele>
        <time>2017-10-07T11:28:42Z</time>
      </trkpt>
      <trkpt lat="43.2388" lon="1.31642">
        <ele>244</ele>
        <time>2017-10-07T11:28:47Z</time>
      </trkpt>
      <trkpt lat="43.23865" lon="1.31641">
        <ele>244</ele>
        <time>2017-10-07T11:28:50Z</time>
      </trkpt>
      <trkpt lat="43.2386" lon="1.31641">
        <ele>244</ele>
        <time>2017-10-07T11:28:51Z</time>
      </trkpt>
      <trkpt lat="43.23851" lon="1.31642">
        <ele>244</ele>
        <time>2017-10-07T11:28:53Z</time>
      </trkpt>
      <trkpt lat="43.23842" lon="1.31641">
        <ele>244</ele>
        <time>2017-10-07T11:28:55Z</time>
      </trkpt>
      <trkpt lat="43.23831" lon="1.31634">
        <ele>244</ele>
        <time>2017-10-07T11:28:58Z</time>
      </trkpt>
      <trkpt lat="43.23827" lon="1.31631">
        <ele>244</ele>
        <time>2017-10-07T11:28:59Z</time>
      </trkpt>
      <trkpt lat="43.23819" lon="1.31625">
        <ele>244</ele>
        <time>2017-10-07T11:29:01Z</time>
      </trkpt>
      <trkpt lat="43.23809" lon="1.31619">
        <ele>244</ele>
        <time>2017-10-07T11:29:04Z</time>
      </trkpt>
      <trkpt lat="43.23796" lon="1.31608">
        <ele>244</ele>
        <time>2017-10-07T11:29:09Z</time>
      </trkpt>
      <trkpt lat="43.23788" lon="1.31601">
        <ele>244</ele>
        <time>2017-10-07T11:29:12Z</time>
      </trkpt>
      <trkpt lat="43.23779" lon="1.31591">
        <ele>244</ele>
        <time>2017-10-07T11:29:15Z</time>
      </trkpt>
      <trkpt lat="43.23764" lon="1.31574">
        <ele>244</ele>
        <time>2017-10-07T11:29:20Z</time>
      </trkpt>
      <trkpt lat="43.23757" lon="1.31568">
        <ele>244</ele>
        <time>2017-10-07T11:29:22Z</time>
      </trkpt>
      <trkpt lat="43.23744" lon="1.3156">
        <ele>244</ele>
        <time>2017-10-07T11:29:26Z</time>
      </trkpt>
      <trkpt lat="43.23728" lon="1.31566">
        <ele>244</ele>
        <time>2017-10-07T11:29:30Z</time>
      </trkpt>
      <trkpt lat="43.2371" lon="1.31569">
        <ele>244</ele>
        <time>2017-10-07T11:29:34Z</time>
      </trkpt>
      <trkpt lat="43.237" lon="1.3157">
        <ele>244</ele>
        <time>2017-10-07T11:29:36Z</time>
      </trkpt>
      <trkpt lat="43.23686" lon="1.31572">
        <ele>244</ele>
        <time>2017-10-07T11:29:39Z</time>
      </trkpt>
      <trkpt lat="43.23676" lon="1.31573">
        <ele>244</ele>
        <time>2017-10-07T11:29:41Z</time>
      </trkpt>
      <trkpt lat="43.23637" lon="1.31575">
        <ele>244</ele>
        <time>2017-10-07T11:29:49Z</time>
      </trkpt>
      <trkpt lat="43.23608" lon="1.31576">
        <ele>244</ele>
        <time>2017-10-07T11:29:55Z</time>
      </trkpt>
      <trkpt lat="43.23575" lon="1.31576">
        <ele>244</ele>
        <time>2017-10-07T11:30:02Z</time>
      </trkpt>
      <trkpt lat="43.2357" lon="1.31575">
        <ele>244</ele>
        <time>2017-10-07T11:30:03Z</time>
      </trkpt>
      <trkpt lat="43.23553" lon="1.31577">
        <ele>244</ele>
        <time>2017-10-07T11:30:07Z</time>
      </trkpt>
      <trkpt lat="43.2353" lon="1.31579">
        <ele>244</ele>
        <time>2017-10-07T11:30:12Z</time>
      </trkpt>
      <trkpt lat="43.23526" lon="1.31579">
        <ele>245</ele>
        <time>2017-10-07T11:30:13Z</time>
      </trkpt>
      <trkpt lat="43.23522" lon="1.31579">
        <ele>245</ele>
        <time>2017-10-07T11:30:14Z</time>
      </trkpt>
      <trkpt lat="43.23518" lon="1.3158">
        <ele>245</ele>
        <time>2017-10-07T11:30:15Z</time>
      </trkpt>
      <trkpt lat="43.23514" lon="1.3158">
        <ele>246</ele>
        <time>2017-10-07T11:30:16Z</time>
      </trkpt>
      <trkpt lat="43.2351" lon="1.31579">
        <ele>246</ele>
        <time>2017-10-07T11:30:17Z</time>
      </trkpt>
      <trkpt lat="43.23497" lon="1.3158">
        <ele>246</ele>
        <time>2017-10-07T11:30:20Z</time>
      </trkpt>
      <trkpt lat="43.23466" lon="1.31581">
        <ele>246</ele>
        <time>2017-10-07T11:30:27Z</time>
      </trkpt>
      <trkpt lat="43.23434" lon="1.31582">
        <ele>246</ele>
        <time>2017-10-07T11:30:34Z</time>
      </trkpt>
      <trkpt lat="43.23411" lon="1.31579">
        <ele>246</ele>
        <time>2017-10-07T11:30:39Z</time>
      </trkpt>
      <trkpt lat="43.23406" lon="1.31578">
        <ele>246</ele>
        <time>2017-10-07T11:30:40Z</time>
      </trkpt>
      <trkpt lat="43.23399" lon="1.31573">
        <ele>246</ele>
        <time>2017-10-07T11:30:43Z</time>
      </trkpt>
      <trkpt lat="43.23395" lon="1.31577">
        <ele>246</ele>
        <time>2017-10-07T11:30:45Z</time>
      </trkpt>
      <trkpt lat="43.23395" lon="1.31582">
        <ele>247</ele>
        <time>2017-10-07T11:30:46Z</time>
      </trkpt>
      <trkpt lat="43.23394" lon="1.31586">
        <ele>247</ele>
        <time>2017-10-07T11:30:47Z</time>
      </trkpt>
      <trkpt lat="43.23393" lon="1.31591">
        <ele>248</ele>
        <time>2017-10-07T11:30:48Z</time>
      </trkpt>
      <trkpt lat="43.23391" lon="1.31594">
        <ele>248</ele>
        <time>2017-10-07T11:30:49Z</time>
      </trkpt>
      <trkpt lat="43.23386" lon="1.31601">
        <ele>248</ele>
        <time>2017-10-07T11:30:51Z</time>
      </trkpt>
      <trkpt lat="43.23381" lon="1.31607">
        <ele>248</ele>
        <time>2017-10-07T11:30:53Z</time>
      </trkpt>
      <trkpt lat="43.23367" lon="1.3162">
        <ele>248</ele>
        <time>2017-10-07T11:30:58Z</time>
      </trkpt>
      <trkpt lat="43.23357" lon="1.31628">
        <ele>248</ele>
        <time>2017-10-07T11:31:01Z</time>
      </trkpt>
      <trkpt lat="43.23354" lon="1.3163">
        <ele>249</ele>
        <time>2017-10-07T11:31:02Z</time>
      </trkpt>
      <trkpt lat="43.23351" lon="1.31632">
        <ele>249</ele>
        <time>2017-10-07T11:31:03Z</time>
      </trkpt>
      <trkpt lat="43.23348" lon="1.31635">
        <ele>250</ele>
        <time>2017-10-07T11:31:04Z</time>
      </trkpt>
      <trkpt lat="43.23345" lon="1.31637">
        <ele>250</ele>
        <time>2017-10-07T11:31:05Z</time>
      </trkpt>
      <trkpt lat="43.23329" lon="1.31648">
        <ele>250</ele>
        <time>2017-10-07T11:31:10Z</time>
      </trkpt>
      <trkpt lat="43.2332" lon="1.31656">
        <ele>251</ele>
        <time>2017-10-07T11:31:13Z</time>
      </trkpt>
      <trkpt lat="43.23317" lon="1.3166">
        <ele>251</ele>
        <time>2017-10-07T11:31:14Z</time>
      </trkpt>
      <trkpt lat="43.23315" lon="1.31661">
        <ele>251</ele>
        <time>2017-10-07T11:31:15Z</time>
      </trkpt>
      <trkpt lat="43.23312" lon="1.31664">
        <ele>252</ele>
        <time>2017-10-07T11:31:16Z</time>
      </trkpt>
      <trkpt lat="43.23308" lon="1.31665">
        <ele>252</ele>
        <time>2017-10-07T11:31:17Z</time>
      </trkpt>
      <trkpt lat="43.23296" lon="1.31674">
        <ele>252</ele>
        <time>2017-10-07T11:31:21Z</time>
      </trkpt>
      <trkpt lat="43.23279" lon="1.31692">
        <ele>253</ele>
        <time>2017-10-07T11:31:27Z</time>
      </trkpt>
      <trkpt lat="43.23276" lon="1.31695">
        <ele>253</ele>
        <time>2017-10-07T11:31:28Z</time>
      </trkpt>
      <trkpt lat="43.23273" lon="1.31698">
        <ele>253</ele>
        <time>2017-10-07T11:31:29Z</time>
      </trkpt>
      <trkpt lat="43.23271" lon="1.31702">
        <ele>254</ele>
        <time>2017-10-07T11:31:30Z</time>
      </trkpt>
      <trkpt lat="43.23268" lon="1.31704">
        <ele>254</ele>
        <time>2017-10-07T11:31:31Z</time>
      </trkpt>
      <trkpt lat="43.23257" lon="1.31719">
        <ele>254</ele>
        <time>2017-10-07T11:31:35Z</time>
      </trkpt>
      <trkpt lat="43.23235" lon="1.31746">
        <ele>254</ele>
        <time>2017-10-07T11:31:43Z</time>
      </trkpt>
      <trkpt lat="43.23226" lon="1.31756">
        <ele>255</ele>
        <time>2017-10-07T11:31:46Z</time>
      </trkpt>
      <trkpt lat="43.23224" lon="1.3176">
        <ele>255</ele>
        <time>2017-10-07T11:31:47Z</time>
      </trkpt>
      <trkpt lat="43.23221" lon="1.31763">
        <ele>255</ele>
        <time>2017-10-07T11:31:48Z</time>
      </trkpt>
      <trkpt lat="43.23218" lon="1.31766">
        <ele>256</ele>
        <time>2017-10-07T11:31:49Z</time>
      </trkpt>
      <trkpt lat="43.23216" lon="1.3177">
        <ele>256</ele>
        <time>2017-10-07T11:31:50Z</time>
      </trkpt>
      <trkpt lat="43.23203" lon="1.31785">
        <ele>256</ele>
        <time>2017-10-07T11:31:55Z</time>
      </trkpt>
      <trkpt lat="43.23193" lon="1.31801">
        <ele>257</ele>
        <time>2017-10-07T11:32:00Z</time>
      </trkpt>
      <trkpt lat="43.23192" lon="1.31804">
        <ele>257</ele>
        <time>2017-10-07T11:32:01Z</time>
      </trkpt>
      <trkpt lat="43.2319" lon="1.31807">
        <ele>258</ele>
        <time>2017-10-07T11:32:02Z</time>
      </trkpt>
      <trkpt lat="43.23189" lon="1.3181">
        <ele>258</ele>
        <time>2017-10-07T11:32:03Z</time>
      </trkpt>
      <trkpt lat="43.23187" lon="1.31813">
        <ele>258</ele>
        <time>2017-10-07T11:32:04Z</time>
      </trkpt>
      <trkpt lat="43.23184" lon="1.31825">
        <ele>259</ele>
        <time>2017-10-07T11:32:08Z</time>
      </trkpt>
      <trkpt lat="43.23183" lon="1.31828">
        <ele>259</ele>
        <time>2017-10-07T11:32:09Z</time>
      </trkpt>
      <trkpt lat="43.23182" lon="1.3183">
        <ele>260</ele>
        <time>2017-10-07T11:32:10Z</time>
      </trkpt>
      <trkpt lat="43.23183" lon="1.31832">
        <ele>260</ele>
        <time>2017-10-07T11:32:11Z</time>
      </trkpt>
      <trkpt lat="43.23181" lon="1.31835">
        <ele>260</ele>
        <time>2017-10-07T11:32:12Z</time>
      </trkpt>
      <trkpt lat="43.2318" lon="1.31837">
        <ele>260</ele>
        <time>2017-10-07T11:32:13Z</time>
      </trkpt>
      <trkpt lat="43.23177" lon="1.31849">
        <ele>261</ele>
        <time>2017-10-07T11:32:17Z</time>
      </trkpt>
      <trkpt lat="43.23177" lon="1.31851">
        <ele>261</ele>
        <time>2017-10-07T11:32:18Z</time>
      </trkpt>
      <trkpt lat="43.23176" lon="1.31854">
        <ele>262</ele>
        <time>2017-10-07T11:32:19Z</time>
      </trkpt>
      <trkpt lat="43.23175" lon="1.31856">
        <ele>262</ele>
        <time>2017-10-07T11:32:20Z</time>
      </trkpt>
      <trkpt lat="43.23175" lon="1.31859">
        <ele>263</ele>
        <time>2017-10-07T11:32:21Z</time>
      </trkpt>
      <trkpt lat="43.23171" lon="1.31869">
        <ele>263</ele>
        <time>2017-10-07T11:32:25Z</time>
      </trkpt>
      <trkpt lat="43.23171" lon="1.31872">
        <ele>263</ele>
        <time>2017-10-07T11:32:26Z</time>
      </trkpt>
      <trkpt lat="43.2317" lon="1.31875">
        <ele>263</ele>
        <time>2017-10-07T11:32:27Z</time>
      </trkpt>
      <trkpt lat="43.2317" lon="1.31877">
        <ele>264</ele>
        <time>2017-10-07T11:32:28Z</time>
      </trkpt>
      <trkpt lat="43.23169" lon="1.3188">
        <ele>264</ele>
        <time>2017-10-07T11:32:29Z</time>
      </trkpt>
      <trkpt lat="43.23168" lon="1.31883">
        <ele>265</ele>
        <time>2017-10-07T11:32:30Z</time>
      </trkpt>
      <trkpt lat="43.23167" lon="1.31893">
        <ele>265</ele>
        <time>2017-10-07T11:32:33Z</time>
      </trkpt>
      <trkpt lat="43.23165" lon="1.31901">
        <ele>265</ele>
        <time>2017-10-07T11:32:36Z</time>
      </trkpt>
      <trkpt lat="43.23164" lon="1.31904">
        <ele>265</ele>
        <time>2017-10-07T11:32:37Z</time>
      </trkpt>
      <trkpt lat="43.23164" lon="1.31907">
        <ele>266</ele>
        <time>2017-10-07T11:32:38Z</time>
      </trkpt>
      <trkpt lat="43.23163" lon="1.3191">
        <ele>267</ele>
        <time>2017-10-07T11:32:39Z</time>
      </trkpt>
      <trkpt lat="43.23162" lon="1.31917">
        <ele>267</ele>
        <time>2017-10-07T11:32:42Z</time>
      </trkpt>
      <trkpt lat="43.23162" lon="1.31927">
        <ele>267</ele>
        <time>2017-10-07T11:32:45Z</time>
      </trkpt>
      <trkpt lat="43.23162" lon="1.31929">
        <ele>268</ele>
        <time>2017-10-07T11:32:46Z</time>
      </trkpt>
      <trkpt lat="43.23162" lon="1.31932">
        <ele>268</ele>
        <time>2017-10-07T11:32:47Z</time>
      </trkpt>
      <trkpt lat="43.23163" lon="1.31935">
        <ele>268</ele>
        <time>2017-10-07T11:32:48Z</time>
      </trkpt>
      <trkpt lat="43.23163" lon="1.31937">
        <ele>269</ele>
        <time>2017-10-07T11:32:49Z</time>
      </trkpt>
      <trkpt lat="43.23165" lon="1.31952">
        <ele>269</ele>
        <time>2017-10-07T11:32:55Z</time>
      </trkpt>
      <trkpt lat="43.23166" lon="1.31954">
        <ele>270</ele>
        <time>2017-10-07T11:32:56Z</time>
      </trkpt>
      <trkpt lat="43.23167" lon="1.31957">
        <ele>270</ele>
        <time>2017-10-07T11:32:57Z</time>
      </trkpt>
      <trkpt lat="43.23167" lon="1.31959">
        <ele>270</ele>
        <time>2017-10-07T11:32:58Z</time>
      </trkpt>
      <trkpt lat="43.23168" lon="1.31961">
        <ele>271</ele>
        <time>2017-10-07T11:32:59Z</time>
      </trkpt>
      <trkpt lat="43.2317" lon="1.3197">
        <ele>272</ele>
        <time>2017-10-07T11:33:03Z</time>
      </trkpt>
      <trkpt lat="43.2317" lon="1.31972">
        <ele>272</ele>
        <time>2017-10-07T11:33:04Z</time>
      </trkpt>
      <trkpt lat="43.2317" lon="1.31974">
        <ele>273</ele>
        <time>2017-10-07T11:33:05Z</time>
      </trkpt>
      <trkpt lat="43.23171" lon="1.31977">
        <ele>273</ele>
        <time>2017-10-07T11:33:06Z</time>
      </trkpt>
      <trkpt lat="43.23172" lon="1.31988">
        <ele>273</ele>
        <time>2017-10-07T11:33:10Z</time>
      </trkpt>
      <trkpt lat="43.23173" lon="1.31991">
        <ele>273</ele>
        <time>2017-10-07T11:33:11Z</time>
      </trkpt>
      <trkpt lat="43.23174" lon="1.31993">
        <ele>273</ele>
        <time>2017-10-07T11:33:12Z</time>
      </trkpt>
      <trkpt lat="43.23175" lon="1.31996">
        <ele>274</ele>
        <time>2017-10-07T11:33:13Z</time>
      </trkpt>
      <trkpt lat="43.23176" lon="1.31999">
        <ele>274</ele>
        <time>2017-10-07T11:33:14Z</time>
      </trkpt>
      <trkpt lat="43.23177" lon="1.32002">
        <ele>275</ele>
        <time>2017-10-07T11:33:15Z</time>
      </trkpt>
      <trkpt lat="43.23178" lon="1.32005">
        <ele>275</ele>
        <time>2017-10-07T11:33:16Z</time>
      </trkpt>
      <trkpt lat="43.2318" lon="1.3201">
        <ele>275</ele>
        <time>2017-10-07T11:33:18Z</time>
      </trkpt>
      <trkpt lat="43.23181" lon="1.32016">
        <ele>275</ele>
        <time>2017-10-07T11:33:20Z</time>
      </trkpt>
      <trkpt lat="43.23182" lon="1.32019">
        <ele>276</ele>
        <time>2017-10-07T11:33:21Z</time>
      </trkpt>
      <trkpt lat="43.23183" lon="1.32021">
        <ele>276</ele>
        <time>2017-10-07T11:33:22Z</time>
      </trkpt>
      <trkpt lat="43.23183" lon="1.32024">
        <ele>277</ele>
        <time>2017-10-07T11:33:23Z</time>
      </trkpt>
      <trkpt lat="43.23184" lon="1.32026">
        <ele>277</ele>
        <time>2017-10-07T11:33:24Z</time>
      </trkpt>
      <trkpt lat="43.23187" lon="1.32035">
        <ele>277</ele>
        <time>2017-10-07T11:33:27Z</time>
      </trkpt>
      <trkpt lat="43.23189" lon="1.32046">
        <ele>278</ele>
        <time>2017-10-07T11:33:31Z</time>
      </trkpt>
      <trkpt lat="43.2319" lon="1.32049">
        <ele>278</ele>
        <time>2017-10-07T11:33:32Z</time>
      </trkpt>
      <trkpt lat="43.2319" lon="1.32052">
        <ele>279</ele>
        <time>2017-10-07T11:33:33Z</time>
      </trkpt>
      <trkpt lat="43.23191" lon="1.32054">
        <ele>279</ele>
        <time>2017-10-07T11:33:34Z</time>
      </trkpt>
      <trkpt lat="43.23191" lon="1.32057">
        <ele>280</ele>
        <time>2017-10-07T11:33:35Z</time>
      </trkpt>
      <trkpt lat="43.23193" lon="1.32077">
        <ele>280</ele>
        <time>2017-10-07T11:33:42Z</time>
      </trkpt>
      <trkpt lat="43.23193" lon="1.3208">
        <ele>280</ele>
        <time>2017-10-07T11:33:43Z</time>
      </trkpt>
      <trkpt lat="43.23193" lon="1.32083">
        <ele>281</ele>
        <time>2017-10-07T11:33:44Z</time>
      </trkpt>
      <trkpt lat="43.23193" lon="1.32085">
        <ele>281</ele>
        <time>2017-10-07T11:33:45Z</time>
      </trkpt>
      <trkpt lat="43.23193" lon="1.32088">
        <ele>282</ele>
        <time>2017-10-07T11:33:46Z</time>
      </trkpt>
      <trkpt lat="43.23192" lon="1.32103">
        <ele>282</ele>
        <time>2017-10-07T11:33:51Z</time>
      </trkpt>
      <trkpt lat="43.23192" lon="1.32106">
        <ele>283</ele>
        <time>2017-10-07T11:33:52Z</time>
      </trkpt>
      <trkpt lat="43.23191" lon="1.32109">
        <ele>283</ele>
        <time>2017-10-07T11:33:53Z</time>
      </trkpt>
      <trkpt lat="43.23191" lon="1.32112">
        <ele>283</ele>
        <time>2017-10-07T11:33:54Z</time>
      </trkpt>
      <trkpt lat="43.23191" lon="1.32115">
        <ele>284</ele>
        <time>2017-10-07T11:33:55Z</time>
      </trkpt>
      <trkpt lat="43.23188" lon="1.32136">
        <ele>284</ele>
        <time>2017-10-07T11:34:02Z</time>
      </trkpt>
      <trkpt lat="43.23188" lon="1.3214">
        <ele>285</ele>
        <time>2017-10-07T11:34:03Z</time>
      </trkpt>
      <trkpt lat="43.23187" lon="1.32142">
        <ele>285</ele>
        <time>2017-10-07T11:34:04Z</time>
      </trkpt>
      <trkpt lat="43.23187" lon="1.32145">
        <ele>286</ele>
        <time>2017-10-07T11:34:05Z</time>
      </trkpt>
      <trkpt lat="43.23186" lon="1.32148">
        <ele>286</ele>
        <time>2017-10-07T11:34:06Z</time>
      </trkpt>
      <trkpt lat="43.23183" lon="1.32162">
        <ele>286</ele>
        <time>2017-10-07T11:34:11Z</time>
      </trkpt>
      <trkpt lat="43.23181" lon="1.32171">
        <ele>286</ele>
        <time>2017-10-07T11:34:14Z</time>
      </trkpt>
      <trkpt lat="43.23181" lon="1.32174">
        <ele>287</ele>
        <time>2017-10-07T11:34:15Z</time>
      </trkpt>
      <trkpt lat="43.2318" lon="1.32176">
        <ele>288</ele>
        <time>2017-10-07T11:34:16Z</time>
      </trkpt>
      <trkpt lat="43.23179" lon="1.32179">
        <ele>288</ele>
        <time>2017-10-07T11:34:17Z</time>
      </trkpt>
      <trkpt lat="43.23175" lon="1.32189">
        <ele>288</ele>
        <time>2017-10-07T11:34:21Z</time>
      </trkpt>
      <trkpt lat="43.23172" lon="1.32194">
        <ele>289</ele>
        <time>2017-10-07T11:34:23Z</time>
      </trkpt>
      <trkpt lat="43.23171" lon="1.32197">
        <ele>289</ele>
        <time>2017-10-07T11:34:24Z</time>
      </trkpt>
      <trkpt lat="43.2317" lon="1.32199">
        <ele>289</ele>
        <time>2017-10-07T11:34:25Z</time>
      </trkpt>
      <trkpt lat="43.23169" lon="1.32202">
        <ele>290</ele>
        <time>2017-10-07T11:34:26Z</time>
      </trkpt>
      <trkpt lat="43.23167" lon="1.32204">
        <ele>290</ele>
        <time>2017-10-07T11:34:27Z</time>
      </trkpt>
      <trkpt lat="43.23165" lon="1.32209">
        <ele>290</ele>
        <time>2017-10-07T11:34:29Z</time>
      </trkpt>
      <trkpt lat="43.23159" lon="1.32218">
        <ele>291</ele>
        <time>2017-10-07T11:34:33Z</time>
      </trkpt>
      <trkpt lat="43.23157" lon="1.3222">
        <ele>291</ele>
        <time>2017-10-07T11:34:34Z</time>
      </trkpt>
      <trkpt lat="43.23156" lon="1.32223">
        <ele>292</ele>
        <time>2017-10-07T11:34:35Z</time>
      </trkpt>
      <trkpt lat="43.23154" lon="1.32225">
        <ele>292</ele>
        <time>2017-10-07T11:34:36Z</time>
      </trkpt>
      <trkpt lat="43.23153" lon="1.32227">
        <ele>292</ele>
        <time>2017-10-07T11:34:37Z</time>
      </trkpt>
      <trkpt lat="43.23151" lon="1.3223">
        <ele>292</ele>
        <time>2017-10-07T11:34:38Z</time>
      </trkpt>
      <trkpt lat="43.23139" lon="1.32246">
        <ele>293</ele>
        <time>2017-10-07T11:34:45Z</time>
      </trkpt>
      <trkpt lat="43.23138" lon="1.32248">
        <ele>293</ele>
        <time>2017-10-07T11:34:46Z</time>
      </trkpt>
      <trkpt lat="43.23136" lon="1.32251">
        <ele>294</ele>
        <time>2017-10-07T11:34:47Z</time>
      </trkpt>
      <trkpt lat="43.23135" lon="1.32253">
        <ele>294</ele>
        <time>2017-10-07T11:34:48Z</time>
      </trkpt>
      <trkpt lat="43.23133" lon="1.32255">
        <ele>294</ele>
        <time>2017-10-07T11:34:49Z</time>
      </trkpt>
      <trkpt lat="43.2313" lon="1.3226">
        <ele>294</ele>
        <time>2017-10-07T11:34:51Z</time>
      </trkpt>
      <trkpt lat="43.23121" lon="1.32277">
        <ele>295</ele>
        <time>2017-10-07T11:34:57Z</time>
      </trkpt>
      <trkpt lat="43.23119" lon="1.3228">
        <ele>295</ele>
        <time>2017-10-07T11:34:58Z</time>
      </trkpt>
      <trkpt lat="43.23118" lon="1.32283">
        <ele>296</ele>
        <time>2017-10-07T11:34:59Z</time>
      </trkpt>
      <trkpt lat="43.23116" lon="1.32286">
        <ele>296</ele>
        <time>2017-10-07T11:35:00Z</time>
      </trkpt>
      <trkpt lat="43.23115" lon="1.32289">
        <ele>297</ele>
        <time>2017-10-07T11:35:01Z</time>
      </trkpt>
      <trkpt lat="43.23106" lon="1.32312">
        <ele>297</ele>
        <time>2017-10-07T11:35:08Z</time>
      </trkpt>
      <trkpt lat="43.23101" lon="1.32326">
        <ele>297</ele>
        <time>2017-10-07T11:35:12Z</time>
      </trkpt>
      <trkpt lat="43.23099" lon="1.32329">
        <ele>297</ele>
        <time>2017-10-07T11:35:13Z</time>
      </trkpt>
      <trkpt lat="43.23098" lon="1.32332">
        <ele>298</ele>
        <time>2017-10-07T11:35:14Z</time>
      </trkpt>
      <trkpt lat="43.23097" lon="1.32335">
        <ele>298</ele>
        <time>2017-10-07T11:35:15Z</time>
      </trkpt>
      <trkpt lat="43.23095" lon="1.32338">
        <ele>299</ele>
        <time>2017-10-07T11:35:16Z</time>
      </trkpt>
      <trkpt lat="43.23088" lon="1.32358">
        <ele>299</ele>
        <time>2017-10-07T11:35:22Z</time>
      </trkpt>
      <trkpt lat="43.2308" lon="1.32379">
        <ele>299</ele>
        <time>2017-10-07T11:35:28Z</time>
      </trkpt>
      <trkpt lat="43.23078" lon="1.32382">
        <ele>300</ele>
        <time>2017-10-07T11:35:29Z</time>
      </trkpt>
      <trkpt lat="43.23077" lon="1.32386">
        <ele>300</ele>
        <time>2017-10-07T11:35:30Z</time>
      </trkpt>
      <trkpt lat="43.23075" lon="1.32389">
        <ele>301</ele>
        <time>2017-10-07T11:35:31Z</time>
      </trkpt>
      <trkpt lat="43.23069" lon="1.32407">
        <ele>301</ele>
        <time>2017-10-07T11:35:36Z</time>
      </trkpt>
      <trkpt lat="43.23064" lon="1.32421">
        <ele>301</ele>
        <time>2017-10-07T11:35:40Z</time>
      </trkpt>
      <trkpt lat="43.23063" lon="1.32424">
        <ele>302</ele>
        <time>2017-10-07T11:35:41Z</time>
      </trkpt>
      <trkpt lat="43.23061" lon="1.32428">
        <ele>302</ele>
        <time>2017-10-07T11:35:42Z</time>
      </trkpt>
      <trkpt lat="43.2306" lon="1.32432">
        <ele>303</ele>
        <time>2017-10-07T11:35:43Z</time>
      </trkpt>
      <trkpt lat="43.23058" lon="1.32435">
        <ele>303</ele>
        <time>2017-10-07T11:35:44Z</time>
      </trkpt>
      <trkpt lat="43.2305" lon="1.32456">
        <ele>303</ele>
        <time>2017-10-07T11:35:50Z</time>
      </trkpt>
      <trkpt lat="43.23046" lon="1.32467">
        <ele>303</ele>
        <time>2017-10-07T11:35:53Z</time>
      </trkpt>
      <trkpt lat="43.23044" lon="1.32471">
        <ele>303</ele>
        <time>2017-10-07T11:35:54Z</time>
      </trkpt>
      <trkpt lat="43.23043" lon="1.32474">
        <ele>304</ele>
        <time>2017-10-07T11:35:55Z</time>
      </trkpt>
      <trkpt lat="43.23041" lon="1.32478">
        <ele>304</ele>
        <time>2017-10-07T11:35:56Z</time>
      </trkpt>
      <trkpt lat="43.23039" lon="1.32482">
        <ele>305</ele>
        <time>2017-10-07T11:35:57Z</time>
      </trkpt>
      <trkpt lat="43.23038" lon="1.32485">
        <ele>305</ele>
        <time>2017-10-07T11:35:58Z</time>
      </trkpt>
      <trkpt lat="43.23037" lon="1.32489">
        <ele>305</ele>
        <time>2017-10-07T11:35:59Z</time>
      </trkpt>
      <trkpt lat="43.23025" lon="1.32518">
        <ele>305</ele>
        <time>2017-10-07T11:36:07Z</time>
      </trkpt>
      <trkpt lat="43.23024" lon="1.32522">
        <ele>306</ele>
        <time>2017-10-07T11:36:08Z</time>
      </trkpt>
      <trkpt lat="43.23023" lon="1.32525">
        <ele>306</ele>
        <time>2017-10-07T11:36:09Z</time>
      </trkpt>
      <trkpt lat="43.23022" lon="1.32529">
        <ele>307</ele>
        <time>2017-10-07T11:36:10Z</time>
      </trkpt>
      <trkpt lat="43.23021" lon="1.32533">
        <ele>307</ele>
        <time>2017-10-07T11:36:11Z</time>
      </trkpt>
      <trkpt lat="43.23021" lon="1.3254">
        <ele>307</ele>
        <time>2017-10-07T11:36:13Z</time>
      </trkpt>
      <trkpt lat="43.23027" lon="1.32541">
        <ele>307</ele>
        <time>2017-10-07T11:36:16Z</time>
      </trkpt>
      <trkpt lat="43.23032" lon="1.32536">
        <ele>307</ele>
        <time>2017-10-07T11:36:18Z</time>
      </trkpt>
      <trkpt lat="43.2304" lon="1.32527">
        <ele>307</ele>
        <time>2017-10-07T11:36:21Z</time>
      </trkpt>
      <trkpt lat="43.23051" lon="1.32515">
        <ele>308</ele>
        <time>2017-10-07T11:36:25Z</time>
      </trkpt>
      <trkpt lat="43.23054" lon="1.32512">
        <ele>308</ele>
        <time>2017-10-07T11:36:26Z</time>
      </trkpt>
      <trkpt lat="43.23056" lon="1.32509">
        <ele>308</ele>
        <time>2017-10-07T11:36:27Z</time>
      </trkpt>
      <trkpt lat="43.23059" lon="1.32506">
        <ele>309</ele>
        <time>2017-10-07T11:36:28Z</time>
      </trkpt>
      <trkpt lat="43.23062" lon="1.32503">
        <ele>309</ele>
        <time>2017-10-07T11:36:29Z</time>
      </trkpt>
      <trkpt lat="43.23079" lon="1.32483">
        <ele>309</ele>
        <time>2017-10-07T11:36:36Z</time>
      </trkpt>
      <trkpt lat="43.23094" lon="1.32467">
        <ele>309</ele>
        <time>2017-10-07T11:36:41Z</time>
      </trkpt>
      <trkpt lat="43.231" lon="1.32462">
        <ele>310</ele>
        <time>2017-10-07T11:36:43Z</time>
      </trkpt>
      <trkpt lat="43.23102" lon="1.32459">
        <ele>311</ele>
        <time>2017-10-07T11:36:44Z</time>
      </trkpt>
      <trkpt lat="43.23105" lon="1.32456">
        <ele>311</ele>
        <time>2017-10-07T11:36:45Z</time>
      </trkpt>
      <trkpt lat="43.23108" lon="1.32453">
        <ele>311</ele>
        <time>2017-10-07T11:36:46Z</time>
      </trkpt>
      <trkpt lat="43.2311" lon="1.3245">
        <ele>311</ele>
        <time>2017-10-07T11:36:47Z</time>
      </trkpt>
      <trkpt lat="43.23133" lon="1.32429">
        <ele>311</ele>
        <time>2017-10-07T11:36:55Z</time>
      </trkpt>
      <trkpt lat="43.23156" lon="1.32412">
        <ele>311</ele>
        <time>2017-10-07T11:37:02Z</time>
      </trkpt>
      <trkpt lat="43.2318" lon="1.32392">
        <ele>311</ele>
        <time>2017-10-07T11:37:08Z</time>
      </trkpt>
      <trkpt lat="43.23209" lon="1.32372">
        <ele>311</ele>
        <time>2017-10-07T11:37:14Z</time>
      </trkpt>
      <trkpt lat="43.23219" lon="1.32366">
        <ele>311</ele>
        <time>2017-10-07T11:37:16Z</time>
      </trkpt>
      <trkpt lat="43.23245" lon="1.32355">
        <ele>311</ele>
        <time>2017-10-07T11:37:21Z</time>
      </trkpt>
      <trkpt lat="43.23257" lon="1.32352">
        <ele>311</ele>
        <time>2017-10-07T11:37:23Z</time>
      </trkpt>
      <trkpt lat="43.23293" lon="1.32345">
        <ele>311</ele>
        <time>2017-10-07T11:37:29Z</time>
      </trkpt>
      <trkpt lat="43.23299" lon="1.32343">
        <ele>311</ele>
        <time>2017-10-07T11:37:30Z</time>
      </trkpt>
      <trkpt lat="43.23305" lon="1.32342">
        <ele>310</ele>
        <time>2017-10-07T11:37:31Z</time>
      </trkpt>
      <trkpt lat="43.23311" lon="1.32341">
        <ele>310</ele>
        <time>2017-10-07T11:37:32Z</time>
      </trkpt>
      <trkpt lat="43.23318" lon="1.3234">
        <ele>309</ele>
        <time>2017-10-07T11:37:33Z</time>
      </trkpt>
      <trkpt lat="43.23359" lon="1.32323">
        <ele>309</ele>
        <time>2017-10-07T11:37:40Z</time>
      </trkpt>
      <trkpt lat="43.23399" lon="1.32297">
        <ele>309</ele>
        <time>2017-10-07T11:37:48Z</time>
      </trkpt>
      <trkpt lat="43.23421" lon="1.32284">
        <ele>309</ele>
        <time>2017-10-07T11:37:53Z</time>
      </trkpt>
      <trkpt lat="43.23428" lon="1.3228">
        <ele>309</ele>
        <time>2017-10-07T11:37:55Z</time>
      </trkpt>
      <trkpt lat="43.23451" lon="1.3227">
        <ele>309</ele>
        <time>2017-10-07T11:38:01Z</time>
      </trkpt>
      <trkpt lat="43.23459" lon="1.32266">
        <ele>309</ele>
        <time>2017-10-07T11:38:03Z</time>
      </trkpt>
      <trkpt lat="43.23463" lon="1.32264">
        <ele>310</ele>
        <time>2017-10-07T11:38:04Z</time>
      </trkpt>
      <trkpt lat="43.23467" lon="1.32262">
        <ele>310</ele>
        <time>2017-10-07T11:38:05Z</time>
      </trkpt>
      <trkpt lat="43.23471" lon="1.3226">
        <ele>311</ele>
        <time>2017-10-07T11:38:06Z</time>
      </trkpt>
      <trkpt lat="43.23475" lon="1.32258">
        <ele>311</ele>
        <time>2017-10-07T11:38:07Z</time>
      </trkpt>
      <trkpt lat="43.2348" lon="1.32257">
        <ele>311</ele>
        <time>2017-10-07T11:38:08Z</time>
      </trkpt>
      <trkpt lat="43.23484" lon="1.32255">
        <ele>311</ele>
        <time>2017-10-07T11:38:09Z</time>
      </trkpt>
      <trkpt lat="43.23518" lon="1.32239">
        <ele>311</ele>
        <time>2017-10-07T11:38:17Z</time>
      </trkpt>
      <trkpt lat="43.23549" lon="1.32226">
        <ele>311</ele>
        <time>2017-10-07T11:38:23Z</time>
      </trkpt>
      <trkpt lat="43.23555" lon="1.32223">
        <ele>311</ele>
        <time>2017-10-07T11:38:24Z</time>
      </trkpt>
      <trkpt lat="43.23561" lon="1.32221">
        <ele>311</ele>
        <time>2017-10-07T11:38:25Z</time>
      </trkpt>
      <trkpt lat="43.23566" lon="1.32218">
        <ele>310</ele>
        <time>2017-10-07T11:38:26Z</time>
      </trkpt>
      <trkpt lat="43.23572" lon="1.32216">
        <ele>310</ele>
        <time>2017-10-07T11:38:27Z</time>
      </trkpt>
      <trkpt lat="43.23577" lon="1.32214">
        <ele>309</ele>
        <time>2017-10-07T11:38:28Z</time>
      </trkpt>
      <trkpt lat="43.23583" lon="1.32211">
        <ele>309</ele>
        <time>2017-10-07T11:38:29Z</time>
      </trkpt>
      <trkpt lat="43.23589" lon="1.32209">
        <ele>308</ele>
        <time>2017-10-07T11:38:30Z</time>
      </trkpt>
      <trkpt lat="43.23595" lon="1.32206">
        <ele>308</ele>
        <time>2017-10-07T11:38:31Z</time>
      </trkpt>
      <trkpt lat="43.23601" lon="1.32204">
        <ele>307</ele>
        <time>2017-10-07T11:38:32Z</time>
      </trkpt>
      <trkpt lat="43.23608" lon="1.32201">
        <ele>306</ele>
        <time>2017-10-07T11:38:33Z</time>
      </trkpt>
      <trkpt lat="43.23614" lon="1.32199">
        <ele>306</ele>
        <time>2017-10-07T11:38:34Z</time>
      </trkpt>
      <trkpt lat="43.23619" lon="1.32197">
        <ele>306</ele>
        <time>2017-10-07T11:38:35Z</time>
      </trkpt>
      <trkpt lat="43.23624" lon="1.32195">
        <ele>305</ele>
        <time>2017-10-07T11:38:36Z</time>
      </trkpt>
      <trkpt lat="43.23628" lon="1.32194">
        <ele>304</ele>
        <time>2017-10-07T11:38:37Z</time>
      </trkpt>
      <trkpt lat="43.23632" lon="1.32192">
        <ele>304</ele>
        <time>2017-10-07T11:38:38Z</time>
      </trkpt>
      <trkpt lat="43.23636" lon="1.32192">
        <ele>303</ele>
        <time>2017-10-07T11:38:39Z</time>
      </trkpt>
      <trkpt lat="43.23639" lon="1.32191">
        <ele>303</ele>
        <time>2017-10-07T11:38:40Z</time>
      </trkpt>
      <trkpt lat="43.23642" lon="1.3219">
        <ele>302</ele>
        <time>2017-10-07T11:38:41Z</time>
      </trkpt>
      <trkpt lat="43.23646" lon="1.3219">
        <ele>302</ele>
        <time>2017-10-07T11:38:42Z</time>
      </trkpt>
      <trkpt lat="43.23648" lon="1.32191">
        <ele>302</ele>
        <time>2017-10-07T11:38:43Z</time>
      </trkpt>
      <trkpt lat="43.23649" lon="1.32193">
        <ele>301</ele>
        <time>2017-10-07T11:38:44Z</time>
      </trkpt>
      <trkpt lat="43.23649" lon="1.32196">
        <ele>301</ele>
        <time>2017-10-07T11:38:45Z</time>
      </trkpt>
      <trkpt lat="43.23648" lon="1.32198">
        <ele>300</ele>
        <time>2017-10-07T11:38:46Z</time>
      </trkpt>
      <trkpt lat="43.23647" lon="1.322">
        <ele>300</ele>
        <time>2017-10-07T11:38:47Z</time>
      </trkpt>
      <trkpt lat="43.23644" lon="1.32205">
        <ele>300</ele>
        <time>2017-10-07T11:38:49Z</time>
      </trkpt>
      <trkpt lat="43.23642" lon="1.32209">
        <ele>299</ele>
        <time>2017-10-07T11:38:50Z</time>
      </trkpt>
      <trkpt lat="43.23642" lon="1.32215">
        <ele>299</ele>
        <time>2017-10-07T11:38:51Z</time>
      </trkpt>
      <trkpt lat="43.23641" lon="1.32221">
        <ele>298</ele>
        <time>2017-10-07T11:38:52Z</time>
      </trkpt>
      <trkpt lat="43.2364" lon="1.32228">
        <ele>298</ele>
        <time>2017-10-07T11:38:53Z</time>
      </trkpt>
      <trkpt lat="43.23639" lon="1.3225">
        <ele>297</ele>
        <time>2017-10-07T11:38:56Z</time>
      </trkpt>
      <trkpt lat="43.23639" lon="1.32257">
        <ele>297</ele>
        <time>2017-10-07T11:38:57Z</time>
      </trkpt>
      <trkpt lat="43.23639" lon="1.32264">
        <ele>297</ele>
        <time>2017-10-07T11:38:58Z</time>
      </trkpt>
      <trkpt lat="43.23639" lon="1.32271">
        <ele>296</ele>
        <time>2017-10-07T11:38:59Z</time>
      </trkpt>
      <trkpt lat="43.23639" lon="1.32278">
        <ele>296</ele>
        <time>2017-10-07T11:39:00Z</time>
      </trkpt>
      <trkpt lat="43.23639" lon="1.32286">
        <ele>295</ele>
        <time>2017-10-07T11:39:01Z</time>
      </trkpt>
      <trkpt lat="43.23639" lon="1.32293">
        <ele>295</ele>
        <time>2017-10-07T11:39:02Z</time>
      </trkpt>
      <trkpt lat="43.23638" lon="1.32301">
        <ele>294</ele>
        <time>2017-10-07T11:39:03Z</time>
      </trkpt>
      <trkpt lat="43.23637" lon="1.32308">
        <ele>293</ele>
        <time>2017-10-07T11:39:04Z</time>
      </trkpt>
      <trkpt lat="43.23634" lon="1.32315">
        <ele>293</ele>
        <time>2017-10-07T11:39:05Z</time>
      </trkpt>
      <trkpt lat="43.23631" lon="1.32322">
        <ele>292</ele>
        <time>2017-10-07T11:39:06Z</time>
      </trkpt>
      <trkpt lat="43.23628" lon="1.32329">
        <ele>292</ele>
        <time>2017-10-07T11:39:07Z</time>
      </trkpt>
      <trkpt lat="43.23625" lon="1.32336">
        <ele>291</ele>
        <time>2017-10-07T11:39:08Z</time>
      </trkpt>
      <trkpt lat="43.23622" lon="1.32342">
        <ele>290</ele>
        <time>2017-10-07T11:39:09Z</time>
      </trkpt>
      <trkpt lat="43.2362" lon="1.32349">
        <ele>290</ele>
        <time>2017-10-07T11:39:10Z</time>
      </trkpt>
      <trkpt lat="43.23617" lon="1.32356">
        <ele>289</ele>
        <time>2017-10-07T11:39:11Z</time>
      </trkpt>
      <trkpt lat="43.23614" lon="1.32362">
        <ele>288</ele>
        <time>2017-10-07T11:39:12Z</time>
      </trkpt>
      <trkpt lat="43.23611" lon="1.32368">
        <ele>288</ele>
        <time>2017-10-07T11:39:13Z</time>
      </trkpt>
      <trkpt lat="43.23608" lon="1.32375">
        <ele>287</ele>
        <time>2017-10-07T11:39:14Z</time>
      </trkpt>
      <trkpt lat="43.23606" lon="1.32382">
        <ele>287</ele>
        <time>2017-10-07T11:39:15Z</time>
      </trkpt>
      <trkpt lat="43.23604" lon="1.32388">
        <ele>287</ele>
        <time>2017-10-07T11:39:16Z</time>
      </trkpt>
      <trkpt lat="43.23598" lon="1.32409">
        <ele>286</ele>
        <time>2017-10-07T11:39:19Z</time>
      </trkpt>
      <trkpt lat="43.23596" lon="1.32417">
        <ele>286</ele>
        <time>2017-10-07T11:39:20Z</time>
      </trkpt>
      <trkpt lat="43.23595" lon="1.32424">
        <ele>285</ele>
        <time>2017-10-07T11:39:21Z</time>
      </trkpt>
      <trkpt lat="43.23593" lon="1.32431">
        <ele>285</ele>
        <time>2017-10-07T11:39:22Z</time>
      </trkpt>
      <trkpt lat="43.23592" lon="1.32437">
        <ele>284</ele>
        <time>2017-10-07T11:39:23Z</time>
      </trkpt>
      <trkpt lat="43.23591" lon="1.32443">
        <ele>283</ele>
        <time>2017-10-07T11:39:24Z</time>
      </trkpt>
      <trkpt lat="43.2359" lon="1.32449">
        <ele>283</ele>
        <time>2017-10-07T11:39:25Z</time>
      </trkpt>
      <trkpt lat="43.23588" lon="1.32456">
        <ele>282</ele>
        <time>2017-10-07T11:39:26Z</time>
      </trkpt>
      <trkpt lat="43.23586" lon="1.32463">
        <ele>282</ele>
        <time>2017-10-07T11:39:27Z</time>
      </trkpt>
      <trkpt lat="43.23583" lon="1.3247">
        <ele>281</ele>
        <time>2017-10-07T11:39:28Z</time>
      </trkpt>
      <trkpt lat="43.2358" lon="1.32478">
        <ele>281</ele>
        <time>2017-10-07T11:39:29Z</time>
      </trkpt>
      <trkpt lat="43.23577" lon="1.32486">
        <ele>280</ele>
        <time>2017-10-07T11:39:30Z</time>
      </trkpt>
      <trkpt lat="43.23574" lon="1.32495">
        <ele>279</ele>
        <time>2017-10-07T11:39:31Z</time>
      </trkpt>
      <trkpt lat="43.23572" lon="1.32503">
        <ele>278</ele>
        <time>2017-10-07T11:39:32Z</time>
      </trkpt>
      <trkpt lat="43.2357" lon="1.3251">
        <ele>278</ele>
        <time>2017-10-07T11:39:33Z</time>
      </trkpt>
      <trkpt lat="43.2357" lon="1.32517">
        <ele>277</ele>
        <time>2017-10-07T11:39:34Z</time>
      </trkpt>
      <trkpt lat="43.23571" lon="1.32524">
        <ele>276</ele>
        <time>2017-10-07T11:39:35Z</time>
      </trkpt>
      <trkpt lat="43.23571" lon="1.3253">
        <ele>275</ele>
        <time>2017-10-07T11:39:36Z</time>
      </trkpt>
      <trkpt lat="43.23571" lon="1.3254">
        <ele>275</ele>
        <time>2017-10-07T11:39:38Z</time>
      </trkpt>
      <trkpt lat="43.2357" lon="1.32545">
        <ele>275</ele>
        <time>2017-10-07T11:39:39Z</time>
      </trkpt>
      <trkpt lat="43.2357" lon="1.32549">
        <ele>274</ele>
        <time>2017-10-07T11:39:40Z</time>
      </trkpt>
      <trkpt lat="43.23569" lon="1.32554">
        <ele>274</ele>
        <time>2017-10-07T11:39:41Z</time>
      </trkpt>
      <trkpt lat="43.23569" lon="1.32557">
        <ele>273</ele>
        <time>2017-10-07T11:39:42Z</time>
      </trkpt>
      <trkpt lat="43.23569" lon="1.32561">
        <ele>273</ele>
        <time>2017-10-07T11:39:43Z</time>
      </trkpt>
      <trkpt lat="43.23568" lon="1.32571">
        <ele>273</ele>
        <time>2017-10-07T11:39:46Z</time>
      </trkpt>
      <trkpt lat="43.23567" lon="1.32578">
        <ele>274</ele>
        <time>2017-10-07T11:39:48Z</time>
      </trkpt>
      <trkpt lat="43.23566" lon="1.32581">
        <ele>274</ele>
        <time>2017-10-07T11:39:49Z</time>
      </trkpt>
      <trkpt lat="43.23566" lon="1.32585">
        <ele>275</ele>
        <time>2017-10-07T11:39:50Z</time>
      </trkpt>
      <trkpt lat="43.23565" lon="1.32588">
        <ele>275</ele>
        <time>2017-10-07T11:39:51Z</time>
      </trkpt>
      <trkpt lat="43.23565" lon="1.3259">
        <ele>276</ele>
        <time>2017-10-07T11:39:52Z</time>
      </trkpt>
      <trkpt lat="43.23563" lon="1.32602">
        <ele>276</ele>
        <time>2017-10-07T11:39:56Z</time>
      </trkpt>
      <trkpt lat="43.23563" lon="1.32605">
        <ele>276</ele>
        <time>2017-10-07T11:39:57Z</time>
      </trkpt>
      <trkpt lat="43.23561" lon="1.32614">
        <ele>276</ele>
        <time>2017-10-07T11:40:00Z</time>
      </trkpt>
      <trkpt lat="43.23561" lon="1.32617">
        <ele>277</ele>
        <time>2017-10-07T11:40:01Z</time>
      </trkpt>
      <trkpt lat="43.23561" lon="1.3262">
        <ele>277</ele>
        <time>2017-10-07T11:40:02Z</time>
      </trkpt>
      <trkpt lat="43.23561" lon="1.32623">
        <ele>278</ele>
        <time>2017-10-07T11:40:03Z</time>
      </trkpt>
      <trkpt lat="43.2356" lon="1.32629">
        <ele>278</ele>
        <time>2017-10-07T11:40:05Z</time>
      </trkpt>
      <trkpt lat="43.2356" lon="1.32635">
        <ele>278</ele>
        <time>2017-10-07T11:40:07Z</time>
      </trkpt>
      <trkpt lat="43.23562" lon="1.3264">
        <ele>278</ele>
        <time>2017-10-07T11:40:09Z</time>
      </trkpt>
      <trkpt lat="43.23562" lon="1.32647">
        <ele>278</ele>
        <time>2017-10-07T11:40:11Z</time>
      </trkpt>
      <trkpt lat="43.23562" lon="1.3265">
        <ele>278</ele>
        <time>2017-10-07T11:40:12Z</time>
      </trkpt>
      <trkpt lat="43.23562" lon="1.32653">
        <ele>279</ele>
        <time>2017-10-07T11:40:13Z</time>
      </trkpt>
      <trkpt lat="43.23562" lon="1.32656">
        <ele>279</ele>
        <time>2017-10-07T11:40:14Z</time>
      </trkpt>
      <trkpt lat="43.23562" lon="1.32658">
        <ele>280</ele>
        <time>2017-10-07T11:40:15Z</time>
      </trkpt>
      <trkpt lat="43.23563" lon="1.32667">
        <ele>280</ele>
        <time>2017-10-07T11:40:18Z</time>
      </trkpt>
      <trkpt lat="43.23564" lon="1.32682">
        <ele>280</ele>
        <time>2017-10-07T11:40:23Z</time>
      </trkpt>
      <trkpt lat="43.23563" lon="1.32685">
        <ele>281</ele>
        <time>2017-10-07T11:40:24Z</time>
      </trkpt>
      <trkpt lat="43.23563" lon="1.32688">
        <ele>281</ele>
        <time>2017-10-07T11:40:25Z</time>
      </trkpt>
      <trkpt lat="43.23563" lon="1.3269">
        <ele>282</ele>
        <time>2017-10-07T11:40:26Z</time>
      </trkpt>
      <trkpt lat="43.23562" lon="1.3271">
        <ele>282</ele>
        <time>2017-10-07T11:40:33Z</time>
      </trkpt>
      <trkpt lat="43.23562" lon="1.32713">
        <ele>283</ele>
        <time>2017-10-07T11:40:34Z</time>
      </trkpt>
      <trkpt lat="43.23561" lon="1.32716">
        <ele>283</ele>
        <time>2017-10-07T11:40:35Z</time>
      </trkpt>
      <trkpt lat="43.23561" lon="1.32719">
        <ele>284</ele>
        <time>2017-10-07T11:40:36Z</time>
      </trkpt>
      <trkpt lat="43.23561" lon="1.32722">
        <ele>284</ele>
        <time>2017-10-07T11:40:37Z</time>
      </trkpt>
      <trkpt lat="43.2356" lon="1.32731">
        <ele>284</ele>
        <time>2017-10-07T11:40:41Z</time>
      </trkpt>
      <trkpt lat="43.23557" lon="1.32744">
        <ele>284</ele>
        <time>2017-10-07T11:40:46Z</time>
      </trkpt>
      <trkpt lat="43.23557" lon="1.32748">
        <ele>285</ele>
        <time>2017-10-07T11:40:47Z</time>
      </trkpt>
      <trkpt lat="43.23556" lon="1.32751">
        <ele>285</ele>
        <time>2017-10-07T11:40:48Z</time>
      </trkpt>
      <trkpt lat="43.23556" lon="1.32754">
        <ele>286</ele>
        <time>2017-10-07T11:40:49Z</time>
      </trkpt>
      <trkpt lat="43.23555" lon="1.32757">
        <ele>286</ele>
        <time>2017-10-07T11:40:50Z</time>
      </trkpt>
      <trkpt lat="43.23553" lon="1.32778">
        <ele>287</ele>
        <time>2017-10-07T11:40:57Z</time>
      </trkpt>
      <trkpt lat="43.23553" lon="1.32781">
        <ele>287</ele>
        <time>2017-10-07T11:40:58Z</time>
      </trkpt>
      <trkpt lat="43.23553" lon="1.32784">
        <ele>287</ele>
        <time>2017-10-07T11:40:59Z</time>
      </trkpt>
      <trkpt lat="43.23553" lon="1.32787">
        <ele>288</ele>
        <time>2017-10-07T11:41:00Z</time>
      </trkpt>
      <trkpt lat="43.23553" lon="1.3279">
        <ele>288</ele>
        <time>2017-10-07T11:41:01Z</time>
      </trkpt>
      <trkpt lat="43.23553" lon="1.32802">
        <ele>288</ele>
        <time>2017-10-07T11:41:05Z</time>
      </trkpt>
      <trkpt lat="43.23552" lon="1.32808">
        <ele>289</ele>
        <time>2017-10-07T11:41:07Z</time>
      </trkpt>
      <trkpt lat="43.23552" lon="1.32811">
        <ele>289</ele>
        <time>2017-10-07T11:41:08Z</time>
      </trkpt>
      <trkpt lat="43.23551" lon="1.32814">
        <ele>290</ele>
        <time>2017-10-07T11:41:09Z</time>
      </trkpt>
      <trkpt lat="43.23551" lon="1.32817">
        <ele>290</ele>
        <time>2017-10-07T11:41:10Z</time>
      </trkpt>
      <trkpt lat="43.23551" lon="1.3282">
        <ele>290</ele>
        <time>2017-10-07T11:41:11Z</time>
      </trkpt>
      <trkpt lat="43.23551" lon="1.32826">
        <ele>290</ele>
        <time>2017-10-07T11:41:13Z</time>
      </trkpt>
      <trkpt lat="43.23549" lon="1.32851">
        <ele>290</ele>
        <time>2017-10-07T11:41:21Z</time>
      </trkpt>
      <trkpt lat="43.23548" lon="1.32857">
        <ele>291</ele>
        <time>2017-10-07T11:41:23Z</time>
      </trkpt>
      <trkpt lat="43.23548" lon="1.3286">
        <ele>291</ele>
        <time>2017-10-07T11:41:24Z</time>
      </trkpt>
      <trkpt lat="43.23548" lon="1.32863">
        <ele>292</ele>
        <time>2017-10-07T11:41:25Z</time>
      </trkpt>
      <trkpt lat="43.23547" lon="1.32866">
        <ele>292</ele>
        <time>2017-10-07T11:41:26Z</time>
      </trkpt>
      <trkpt lat="43.23547" lon="1.32869">
        <ele>292</ele>
        <time>2017-10-07T11:41:27Z</time>
      </trkpt>
      <trkpt lat="43.23547" lon="1.32871">
        <ele>292</ele>
        <time>2017-10-07T11:41:28Z</time>
      </trkpt>
      <trkpt lat="43.23545" lon="1.32888">
        <ele>293</ele>
        <time>2017-10-07T11:41:34Z</time>
      </trkpt>
      <trkpt lat="43.23545" lon="1.32891">
        <ele>293</ele>
        <time>2017-10-07T11:41:35Z</time>
      </trkpt>
      <trkpt lat="43.23545" lon="1.32894">
        <ele>294</ele>
        <time>2017-10-07T11:41:36Z</time>
      </trkpt>
      <trkpt lat="43.23545" lon="1.32897">
        <ele>294</ele>
        <time>2017-10-07T11:41:37Z</time>
      </trkpt>
      <trkpt lat="43.23544" lon="1.329">
        <ele>295</ele>
        <time>2017-10-07T11:41:38Z</time>
      </trkpt>
      <trkpt lat="43.23544" lon="1.32908">
        <ele>295</ele>
        <time>2017-10-07T11:41:41Z</time>
      </trkpt>
      <trkpt lat="43.23544" lon="1.32911">
        <ele>295</ele>
        <time>2017-10-07T11:41:42Z</time>
      </trkpt>
      <trkpt lat="43.23543" lon="1.32914">
        <ele>295</ele>
        <time>2017-10-07T11:41:43Z</time>
      </trkpt>
      <trkpt lat="43.23543" lon="1.32917">
        <ele>296</ele>
        <time>2017-10-07T11:41:44Z</time>
      </trkpt>
      <trkpt lat="43.23542" lon="1.32919">
        <ele>296</ele>
        <time>2017-10-07T11:41:45Z</time>
      </trkpt>
      <trkpt lat="43.23542" lon="1.32922">
        <ele>297</ele>
        <time>2017-10-07T11:41:46Z</time>
      </trkpt>
      <trkpt lat="43.23541" lon="1.32925">
        <ele>297</ele>
        <time>2017-10-07T11:41:47Z</time>
      </trkpt>
      <trkpt lat="43.23539" lon="1.32943">
        <ele>297</ele>
        <time>2017-10-07T11:41:53Z</time>
      </trkpt>
      <trkpt lat="43.23535" lon="1.3296">
        <ele>297</ele>
        <time>2017-10-07T11:41:59Z</time>
      </trkpt>
      <trkpt lat="43.23535" lon="1.32963">
        <ele>297</ele>
        <time>2017-10-07T11:42:00Z</time>
      </trkpt>
      <trkpt lat="43.23534" lon="1.32966">
        <ele>298</ele>
        <time>2017-10-07T11:42:01Z</time>
      </trkpt>
      <trkpt lat="43.23534" lon="1.32969">
        <ele>298</ele>
        <time>2017-10-07T11:42:02Z</time>
      </trkpt>
      <trkpt lat="43.23533" lon="1.32972">
        <ele>299</ele>
        <time>2017-10-07T11:42:03Z</time>
      </trkpt>
      <trkpt lat="43.23531" lon="1.32987">
        <ele>299</ele>
        <time>2017-10-07T11:42:08Z</time>
      </trkpt>
      <trkpt lat="43.23529" lon="1.33008">
        <ele>299</ele>
        <time>2017-10-07T11:42:15Z</time>
      </trkpt>
      <trkpt lat="43.23529" lon="1.33011">
        <ele>300</ele>
        <time>2017-10-07T11:42:16Z</time>
      </trkpt>
      <trkpt lat="43.23529" lon="1.33014">
        <ele>300</ele>
        <time>2017-10-07T11:42:17Z</time>
      </trkpt>
      <trkpt lat="43.23529" lon="1.33017">
        <ele>300</ele>
        <time>2017-10-07T11:42:18Z</time>
      </trkpt>
      <trkpt lat="43.23529" lon="1.3302">
        <ele>301</ele>
        <time>2017-10-07T11:42:19Z</time>
      </trkpt>
      <trkpt lat="43.23528" lon="1.33029">
        <ele>301</ele>
        <time>2017-10-07T11:42:22Z</time>
      </trkpt>
      <trkpt lat="43.23528" lon="1.33035">
        <ele>301</ele>
        <time>2017-10-07T11:42:24Z</time>
      </trkpt>
      <trkpt lat="43.23527" lon="1.33038">
        <ele>302</ele>
        <time>2017-10-07T11:42:25Z</time>
      </trkpt>
      <trkpt lat="43.23527" lon="1.3304">
        <ele>302</ele>
        <time>2017-10-07T11:42:26Z</time>
      </trkpt>
      <trkpt lat="43.23528" lon="1.33043">
        <ele>302</ele>
        <time>2017-10-07T11:42:27Z</time>
      </trkpt>
      <trkpt lat="43.23528" lon="1.33045">
        <ele>303</ele>
        <time>2017-10-07T11:42:28Z</time>
      </trkpt>
      <trkpt lat="43.23528" lon="1.33048">
        <ele>303</ele>
        <time>2017-10-07T11:42:29Z</time>
      </trkpt>
      <trkpt lat="43.23527" lon="1.33056">
        <ele>303</ele>
        <time>2017-10-07T11:42:32Z</time>
      </trkpt>
      <trkpt lat="43.23527" lon="1.33058">
        <ele>304</ele>
        <time>2017-10-07T11:42:33Z</time>
      </trkpt>
      <trkpt lat="43.23527" lon="1.33061">
        <ele>304</ele>
        <time>2017-10-07T11:42:34Z</time>
      </trkpt>
      <trkpt lat="43.23527" lon="1.33064">
        <ele>305</ele>
        <time>2017-10-07T11:42:35Z</time>
      </trkpt>
      <trkpt lat="43.23527" lon="1.33066">
        <ele>305</ele>
        <time>2017-10-07T11:42:36Z</time>
      </trkpt>
      <trkpt lat="43.23525" lon="1.3308">
        <ele>305</ele>
        <time>2017-10-07T11:42:41Z</time>
      </trkpt>
      <trkpt lat="43.23525" lon="1.33082">
        <ele>306</ele>
        <time>2017-10-07T11:42:42Z</time>
      </trkpt>
      <trkpt lat="43.23524" lon="1.33085">
        <ele>306</ele>
        <time>2017-10-07T11:42:43Z</time>
      </trkpt>
      <trkpt lat="43.23524" lon="1.33087">
        <ele>307</ele>
        <time>2017-10-07T11:42:44Z</time>
      </trkpt>
      <trkpt lat="43.23523" lon="1.3309">
        <ele>307</ele>
        <time>2017-10-07T11:42:45Z</time>
      </trkpt>
      <trkpt lat="43.2352" lon="1.33098">
        <ele>307</ele>
        <time>2017-10-07T11:42:48Z</time>
      </trkpt>
      <trkpt lat="43.23517" lon="1.33106">
        <ele>308</ele>
        <time>2017-10-07T11:42:51Z</time>
      </trkpt>
      <trkpt lat="43.23517" lon="1.33109">
        <ele>308</ele>
        <time>2017-10-07T11:42:52Z</time>
      </trkpt>
      <trkpt lat="43.23516" lon="1.33111">
        <ele>309</ele>
        <time>2017-10-07T11:42:53Z</time>
      </trkpt>
      <trkpt lat="43.23515" lon="1.33114">
        <ele>309</ele>
        <time>2017-10-07T11:42:54Z</time>
      </trkpt>
      <trkpt lat="43.23512" lon="1.33119">
        <ele>309</ele>
        <time>2017-10-07T11:42:56Z</time>
      </trkpt>
      <trkpt lat="43.23503" lon="1.33135">
        <ele>310</ele>
        <time>2017-10-07T11:43:03Z</time>
      </trkpt>
      <trkpt lat="43.23502" lon="1.33137">
        <ele>310</ele>
        <time>2017-10-07T11:43:04Z</time>
      </trkpt>
      <trkpt lat="43.235" lon="1.33139">
        <ele>311</ele>
        <time>2017-10-07T11:43:05Z</time>
      </trkpt>
      <trkpt lat="43.23499" lon="1.33141">
        <ele>311</ele>
        <time>2017-10-07T11:43:06Z</time>
      </trkpt>
      <trkpt lat="43.23497" lon="1.33142">
        <ele>311</ele>
        <time>2017-10-07T11:43:07Z</time>
      </trkpt>
      <trkpt lat="43.2349" lon="1.33148">
        <ele>311</ele>
        <time>2017-10-07T11:43:11Z</time>
      </trkpt>
      <trkpt lat="43.23478" lon="1.33161">
        <ele>311</ele>
        <time>2017-10-07T11:43:18Z</time>
      </trkpt>
      <trkpt lat="43.23474" lon="1.3317">
        <ele>312</ele>
        <time>2017-10-07T11:43:21Z</time>
      </trkpt>
      <trkpt lat="43.23473" lon="1.33172">
        <ele>312</ele>
        <time>2017-10-07T11:43:22Z</time>
      </trkpt>
      <trkpt lat="43.23472" lon="1.33176">
        <ele>313</ele>
        <time>2017-10-07T11:43:23Z</time>
      </trkpt>
      <trkpt lat="43.23471" lon="1.33179">
        <ele>313</ele>
        <time>2017-10-07T11:43:24Z</time>
      </trkpt>
      <trkpt lat="43.2347" lon="1.33182">
        <ele>314</ele>
        <time>2017-10-07T11:43:25Z</time>
      </trkpt>
      <trkpt lat="43.23465" lon="1.332">
        <ele>314</ele>
        <time>2017-10-07T11:43:31Z</time>
      </trkpt>
      <trkpt lat="43.23459" lon="1.33219">
        <ele>314</ele>
        <time>2017-10-07T11:43:37Z</time>
      </trkpt>
      <trkpt lat="43.23458" lon="1.33222">
        <ele>314</ele>
        <time>2017-10-07T11:43:38Z</time>
      </trkpt>
      <trkpt lat="43.23457" lon="1.33225">
        <ele>315</ele>
        <time>2017-10-07T11:43:39Z</time>
      </trkpt>
      <trkpt lat="43.23457" lon="1.33228">
        <ele>315</ele>
        <time>2017-10-07T11:43:40Z</time>
      </trkpt>
      <trkpt lat="43.23456" lon="1.33231">
        <ele>316</ele>
        <time>2017-10-07T11:43:41Z</time>
      </trkpt>
      <trkpt lat="43.23453" lon="1.3324">
        <ele>316</ele>
        <time>2017-10-07T11:43:44Z</time>
      </trkpt>
      <trkpt lat="43.23452" lon="1.33242">
        <ele>317</ele>
        <time>2017-10-07T11:43:45Z</time>
      </trkpt>
      <trkpt lat="43.23451" lon="1.33245">
        <ele>317</ele>
        <time>2017-10-07T11:43:46Z</time>
      </trkpt>
      <trkpt lat="43.2345" lon="1.33248">
        <ele>317</ele>
        <time>2017-10-07T11:43:47Z</time>
      </trkpt>
      <trkpt lat="43.2345" lon="1.3325">
        <ele>318</ele>
        <time>2017-10-07T11:43:48Z</time>
      </trkpt>
      <trkpt lat="43.23446" lon="1.33263">
        <ele>318</ele>
        <time>2017-10-07T11:43:53Z</time>
      </trkpt>
      <trkpt lat="43.23445" lon="1.33269">
        <ele>318</ele>
        <time>2017-10-07T11:43:55Z</time>
      </trkpt>
      <trkpt lat="43.23444" lon="1.33272">
        <ele>319</ele>
        <time>2017-10-07T11:43:56Z</time>
      </trkpt>
      <trkpt lat="43.23443" lon="1.33275">
        <ele>319</ele>
        <time>2017-10-07T11:43:57Z</time>
      </trkpt>
      <trkpt lat="43.23442" lon="1.33278">
        <ele>319</ele>
        <time>2017-10-07T11:43:58Z</time>
      </trkpt>
      <trkpt lat="43.23441" lon="1.33281">
        <ele>320</ele>
        <time>2017-10-07T11:43:59Z</time>
      </trkpt>
      <trkpt lat="43.2344" lon="1.33284">
        <ele>320</ele>
        <time>2017-10-07T11:44:00Z</time>
      </trkpt>
      <trkpt lat="43.23436" lon="1.33301">
        <ele>320</ele>
        <time>2017-10-07T11:44:06Z</time>
      </trkpt>
      <trkpt lat="43.23435" lon="1.33304">
        <ele>321</ele>
        <time>2017-10-07T11:44:07Z</time>
      </trkpt>
      <trkpt lat="43.23434" lon="1.33306">
        <ele>322</ele>
        <time>2017-10-07T11:44:08Z</time>
      </trkpt>
      <trkpt lat="43.23433" lon="1.33309">
        <ele>322</ele>
        <time>2017-10-07T11:44:09Z</time>
      </trkpt>
      <trkpt lat="43.23429" lon="1.33324">
        <ele>322</ele>
        <time>2017-10-07T11:44:15Z</time>
      </trkpt>
      <trkpt lat="43.23427" lon="1.33331">
        <ele>322</ele>
        <time>2017-10-07T11:44:18Z</time>
      </trkpt>
      <trkpt lat="43.23425" lon="1.33334">
        <ele>323</ele>
        <time>2017-10-07T11:44:19Z</time>
      </trkpt>
      <trkpt lat="43.23424" lon="1.33337">
        <ele>323</ele>
        <time>2017-10-07T11:44:20Z</time>
      </trkpt>
      <trkpt lat="43.23422" lon="1.3334">
        <ele>324</ele>
        <time>2017-10-07T11:44:21Z</time>
      </trkpt>
      <trkpt lat="43.23421" lon="1.33345">
        <ele>324</ele>
        <time>2017-10-07T11:44:22Z</time>
      </trkpt>
      <trkpt lat="43.23415" lon="1.33368">
        <ele>324</ele>
        <time>2017-10-07T11:44:27Z</time>
      </trkpt>
      <trkpt lat="43.2341" lon="1.33395">
        <ele>324</ele>
        <time>2017-10-07T11:44:31Z</time>
      </trkpt>
      <trkpt lat="43.23408" lon="1.33403">
        <ele>323</ele>
        <time>2017-10-07T11:44:32Z</time>
      </trkpt>
      <trkpt lat="43.23406" lon="1.33411">
        <ele>322</ele>
        <time>2017-10-07T11:44:33Z</time>
      </trkpt>
      <trkpt lat="43.23405" lon="1.33418">
        <ele>322</ele>
        <time>2017-10-07T11:44:34Z</time>
      </trkpt>
      <trkpt lat="43.23404" lon="1.33424">
        <ele>321</ele>
        <time>2017-10-07T11:44:35Z</time>
      </trkpt>
      <trkpt lat="43.23403" lon="1.33429">
        <ele>320</ele>
        <time>2017-10-07T11:44:36Z</time>
      </trkpt>
      <trkpt lat="43.23403" lon="1.33435">
        <ele>319</ele>
        <time>2017-10-07T11:44:37Z</time>
      </trkpt>
      <trkpt lat="43.23405" lon="1.33441">
        <ele>318</ele>
        <time>2017-10-07T11:44:38Z</time>
      </trkpt>
      <trkpt lat="43.23407" lon="1.33447">
        <ele>318</ele>
        <time>2017-10-07T11:44:39Z</time>
      </trkpt>
      <trkpt lat="43.23409" lon="1.33452">
        <ele>317</ele>
        <time>2017-10-07T11:44:40Z</time>
      </trkpt>
      <trkpt lat="43.23418" lon="1.33474">
        <ele>317</ele>
        <time>2017-10-07T11:44:44Z</time>
      </trkpt>
      <trkpt lat="43.2342" lon="1.33479">
        <ele>317</ele>
        <time>2017-10-07T11:44:45Z</time>
      </trkpt>
      <trkpt lat="43.23422" lon="1.33485">
        <ele>317</ele>
        <time>2017-10-07T11:44:46Z</time>
      </trkpt>
      <trkpt lat="43.23427" lon="1.33495">
        <ele>317</ele>
        <time>2017-10-07T11:44:48Z</time>
      </trkpt>
      <trkpt lat="43.23434" lon="1.33508">
        <ele>317</ele>
        <time>2017-10-07T11:44:51Z</time>
      </trkpt>
      <trkpt lat="43.23451" lon="1.33532">
        <ele>317</ele>
        <time>2017-10-07T11:44:57Z</time>
      </trkpt>
      <trkpt lat="43.23473" lon="1.33554">
        <ele>317</ele>
        <time>2017-10-07T11:45:04Z</time>
      </trkpt>
      <trkpt lat="43.23481" lon="1.33561">
        <ele>317</ele>
        <time>2017-10-07T11:45:07Z</time>
      </trkpt>
      <trkpt lat="43.23491" lon="1.33568">
        <ele>317</ele>
        <time>2017-10-07T11:45:10Z</time>
      </trkpt>
      <trkpt lat="43.23495" lon="1.3357">
        <ele>316</ele>
        <time>2017-10-07T11:45:11Z</time>
      </trkpt>
      <trkpt lat="43.23498" lon="1.33573">
        <ele>316</ele>
        <time>2017-10-07T11:45:12Z</time>
      </trkpt>
      <trkpt lat="43.23501" lon="1.33576">
        <ele>315</ele>
        <time>2017-10-07T11:45:13Z</time>
      </trkpt>
      <trkpt lat="43.23504" lon="1.33577">
        <ele>315</ele>
        <time>2017-10-07T11:45:14Z</time>
      </trkpt>
      <trkpt lat="43.23507" lon="1.33579">
        <ele>315</ele>
        <time>2017-10-07T11:45:15Z</time>
      </trkpt>
      <trkpt lat="43.23512" lon="1.33582">
        <ele>315</ele>
        <time>2017-10-07T11:45:17Z</time>
      </trkpt>
      <trkpt lat="43.23519" lon="1.33584">
        <ele>315</ele>
        <time>2017-10-07T11:45:19Z</time>
      </trkpt>
      <trkpt lat="43.23524" lon="1.33585">
        <ele>314</ele>
        <time>2017-10-07T11:45:20Z</time>
      </trkpt>
      <trkpt lat="43.23528" lon="1.33586">
        <ele>314</ele>
        <time>2017-10-07T11:45:21Z</time>
      </trkpt>
      <trkpt lat="43.23534" lon="1.33586">
        <ele>313</ele>
        <time>2017-10-07T11:45:22Z</time>
      </trkpt>
      <trkpt lat="43.23539" lon="1.33584">
        <ele>312</ele>
        <time>2017-10-07T11:45:23Z</time>
      </trkpt>
      <trkpt lat="43.23552" lon="1.33581">
        <ele>312</ele>
        <time>2017-10-07T11:45:25Z</time>
      </trkpt>
      <trkpt lat="43.23559" lon="1.3358">
        <ele>312</ele>
        <time>2017-10-07T11:45:26Z</time>
      </trkpt>
      <trkpt lat="43.23566" lon="1.33578">
        <ele>312</ele>
        <time>2017-10-07T11:45:27Z</time>
      </trkpt>
      <trkpt lat="43.23574" lon="1.33577">
        <ele>311</ele>
        <time>2017-10-07T11:45:28Z</time>
      </trkpt>
      <trkpt lat="43.23583" lon="1.33577">
        <ele>311</ele>
        <time>2017-10-07T11:45:29Z</time>
      </trkpt>
      <trkpt lat="43.23592" lon="1.33579">
        <ele>310</ele>
        <time>2017-10-07T11:45:30Z</time>
      </trkpt>
      <trkpt lat="43.23601" lon="1.33581">
        <ele>309</ele>
        <time>2017-10-07T11:45:31Z</time>
      </trkpt>
      <trkpt lat="43.23609" lon="1.33586">
        <ele>309</ele>
        <time>2017-10-07T11:45:32Z</time>
      </trkpt>
      <trkpt lat="43.23617" lon="1.33591">
        <ele>308</ele>
        <time>2017-10-07T11:45:33Z</time>
      </trkpt>
      <trkpt lat="43.23625" lon="1.33597">
        <ele>308</ele>
        <time>2017-10-07T11:45:34Z</time>
      </trkpt>
      <trkpt lat="43.23633" lon="1.33604">
        <ele>307</ele>
        <time>2017-10-07T11:45:35Z</time>
      </trkpt>
      <trkpt lat="43.23641" lon="1.33611">
        <ele>307</ele>
        <time>2017-10-07T11:45:36Z</time>
      </trkpt>
      <trkpt lat="43.23649" lon="1.33618">
        <ele>306</ele>
        <time>2017-10-07T11:45:37Z</time>
      </trkpt>
      <trkpt lat="43.23656" lon="1.33625">
        <ele>306</ele>
        <time>2017-10-07T11:45:38Z</time>
      </trkpt>
      <trkpt lat="43.23671" lon="1.33636">
        <ele>306</ele>
        <time>2017-10-07T11:45:40Z</time>
      </trkpt>
      <trkpt lat="43.23678" lon="1.3364">
        <ele>305</ele>
        <time>2017-10-07T11:45:41Z</time>
      </trkpt>
      <trkpt lat="43.23683" lon="1.33644">
        <ele>305</ele>
        <time>2017-10-07T11:45:42Z</time>
      </trkpt>
      <trkpt lat="43.23688" lon="1.33647">
        <ele>304</ele>
        <time>2017-10-07T11:45:43Z</time>
      </trkpt>
      <trkpt lat="43.23692" lon="1.33651">
        <ele>304</ele>
        <time>2017-10-07T11:45:44Z</time>
      </trkpt>
      <trkpt lat="43.23694" lon="1.33656">
        <ele>303</ele>
        <time>2017-10-07T11:45:45Z</time>
      </trkpt>
      <trkpt lat="43.23694" lon="1.33662">
        <ele>302</ele>
        <time>2017-10-07T11:45:46Z</time>
      </trkpt>
      <trkpt lat="43.23692" lon="1.33668">
        <ele>302</ele>
        <time>2017-10-07T11:45:47Z</time>
      </trkpt>
      <trkpt lat="43.2369" lon="1.33673">
        <ele>302</ele>
        <time>2017-10-07T11:45:48Z</time>
      </trkpt>
      <trkpt lat="43.23686" lon="1.33685">
        <ele>302</ele>
        <time>2017-10-07T11:45:50Z</time>
      </trkpt>
      <trkpt lat="43.23681" lon="1.33701">
        <ele>302</ele>
        <time>2017-10-07T11:45:53Z</time>
      </trkpt>
      <trkpt lat="43.23679" lon="1.33706">
        <ele>302</ele>
        <time>2017-10-07T11:45:54Z</time>
      </trkpt>
      <trkpt lat="43.23674" lon="1.33721">
        <ele>302</ele>
        <time>2017-10-07T11:45:58Z</time>
      </trkpt>
      <trkpt lat="43.2367" lon="1.33734">
        <ele>302</ele>
        <time>2017-10-07T11:46:01Z</time>
      </trkpt>
      <trkpt lat="43.23666" lon="1.33744">
        <ele>302</ele>
        <time>2017-10-07T11:46:04Z</time>
      </trkpt>
      <trkpt lat="43.2366" lon="1.3376">
        <ele>302</ele>
        <time>2017-10-07T11:46:08Z</time>
      </trkpt>
      <trkpt lat="43.23658" lon="1.33765">
        <ele>302</ele>
        <time>2017-10-07T11:46:09Z</time>
      </trkpt>
      <trkpt lat="43.23653" lon="1.33778">
        <ele>302</ele>
        <time>2017-10-07T11:46:12Z</time>
      </trkpt>
      <trkpt lat="43.23651" lon="1.33783">
        <ele>303</ele>
        <time>2017-10-07T11:46:13Z</time>
      </trkpt>
      <trkpt lat="43.23649" lon="1.33788">
        <ele>303</ele>
        <time>2017-10-07T11:46:14Z</time>
      </trkpt>
      <trkpt lat="43.23646" lon="1.33793">
        <ele>304</ele>
        <time>2017-10-07T11:46:15Z</time>
      </trkpt>
      <trkpt lat="43.23644" lon="1.33798">
        <ele>304</ele>
        <time>2017-10-07T11:46:16Z</time>
      </trkpt>
      <trkpt lat="43.23642" lon="1.33803">
        <ele>304</ele>
        <time>2017-10-07T11:46:17Z</time>
      </trkpt>
      <trkpt lat="43.23627" lon="1.33837">
        <ele>304</ele>
        <time>2017-10-07T11:46:24Z</time>
      </trkpt>
      <trkpt lat="43.2362" lon="1.33851">
        <ele>304</ele>
        <time>2017-10-07T11:46:27Z</time>
      </trkpt>
      <trkpt lat="43.23609" lon="1.3387">
        <ele>304</ele>
        <time>2017-10-07T11:46:31Z</time>
      </trkpt>
      <trkpt lat="43.23606" lon="1.33875">
        <ele>304</ele>
        <time>2017-10-07T11:46:32Z</time>
      </trkpt>
      <trkpt lat="43.23603" lon="1.33878">
        <ele>305</ele>
        <time>2017-10-07T11:46:33Z</time>
      </trkpt>
      <trkpt lat="43.23601" lon="1.33882">
        <ele>305</ele>
        <time>2017-10-07T11:46:34Z</time>
      </trkpt>
      <trkpt lat="43.23598" lon="1.33886">
        <ele>306</ele>
        <time>2017-10-07T11:46:35Z</time>
      </trkpt>
      <trkpt lat="43.23595" lon="1.3389">
        <ele>306</ele>
        <time>2017-10-07T11:46:36Z</time>
      </trkpt>
      <trkpt lat="43.23589" lon="1.33899">
        <ele>306</ele>
        <time>2017-10-07T11:46:38Z</time>
      </trkpt>
      <trkpt lat="43.23586" lon="1.33902">
        <ele>306</ele>
        <time>2017-10-07T11:46:39Z</time>
      </trkpt>
      <trkpt lat="43.23573" lon="1.33922">
        <ele>306</ele>
        <time>2017-10-07T11:46:44Z</time>
      </trkpt>
      <trkpt lat="43.23562" lon="1.33942">
        <ele>306</ele>
        <time>2017-10-07T11:46:49Z</time>
      </trkpt>
      <trkpt lat="43.2356" lon="1.33946">
        <ele>307</ele>
        <time>2017-10-07T11:46:50Z</time>
      </trkpt>
      <trkpt lat="43.23558" lon="1.33949">
        <ele>307</ele>
        <time>2017-10-07T11:46:51Z</time>
      </trkpt>
      <trkpt lat="43.23556" lon="1.33954">
        <ele>308</ele>
        <time>2017-10-07T11:46:52Z</time>
      </trkpt>
      <trkpt lat="43.23554" lon="1.33958">
        <ele>308</ele>
        <time>2017-10-07T11:46:53Z</time>
      </trkpt>
      <trkpt lat="43.23545" lon="1.33981">
        <ele>308</ele>
        <time>2017-10-07T11:46:58Z</time>
      </trkpt>
      <trkpt lat="43.2354" lon="1.34004">
        <ele>308</ele>
        <time>2017-10-07T11:47:02Z</time>
      </trkpt>
      <trkpt lat="43.23538" lon="1.34017">
        <ele>308</ele>
        <time>2017-10-07T11:47:04Z</time>
      </trkpt>
      <trkpt lat="43.23538" lon="1.34031">
        <ele>308</ele>
        <time>2017-10-07T11:47:06Z</time>
      </trkpt>
      <trkpt lat="43.23539" lon="1.34055">
        <ele>308</ele>
        <time>2017-10-07T11:47:09Z</time>
      </trkpt>
      <trkpt lat="43.2354" lon="1.34073">
        <ele>308</ele>
        <time>2017-10-07T11:47:11Z</time>
      </trkpt>
      <trkpt lat="43.2354" lon="1.34084">
        <ele>307</ele>
        <time>2017-10-07T11:47:12Z</time>
      </trkpt>
      <trkpt lat="43.23541" lon="1.34096">
        <ele>307</ele>
        <time>2017-10-07T11:47:13Z</time>
      </trkpt>
      <trkpt lat="43.23541" lon="1.34108">
        <ele>306</ele>
        <time>2017-10-07T11:47:14Z</time>
      </trkpt>
      <trkpt lat="43.23541" lon="1.34121">
        <ele>306</ele>
        <time>2017-10-07T11:47:15Z</time>
      </trkpt>
      <trkpt lat="43.23541" lon="1.34135">
        <ele>305</ele>
        <time>2017-10-07T11:47:16Z</time>
      </trkpt>
      <trkpt lat="43.23541" lon="1.34152">
        <ele>304</ele>
        <time>2017-10-07T11:47:17Z</time>
      </trkpt>
      <trkpt lat="43.23539" lon="1.34168">
        <ele>303</ele>
        <time>2017-10-07T11:47:18Z</time>
      </trkpt>
      <trkpt lat="43.23537" lon="1.34185">
        <ele>302</ele>
        <time>2017-10-07T11:47:19Z</time>
      </trkpt>
      <trkpt lat="43.23534" lon="1.34202">
        <ele>301</ele>
        <time>2017-10-07T11:47:20Z</time>
      </trkpt>
      <trkpt lat="43.23531" lon="1.3422">
        <ele>300</ele>
        <time>2017-10-07T11:47:21Z</time>
      </trkpt>
      <trkpt lat="43.23527" lon="1.34236">
        <ele>299</ele>
        <time>2017-10-07T11:47:22Z</time>
      </trkpt>
      <trkpt lat="43.23525" lon="1.34253">
        <ele>297</ele>
        <time>2017-10-07T11:47:23Z</time>
      </trkpt>
      <trkpt lat="43.23523" lon="1.34269">
        <ele>296</ele>
        <time>2017-10-07T11:47:24Z</time>
      </trkpt>
      <trkpt lat="43.23521" lon="1.34286">
        <ele>294</ele>
        <time>2017-10-07T11:47:25Z</time>
      </trkpt>
      <trkpt lat="43.23518" lon="1.34301">
        <ele>292</ele>
        <time>2017-10-07T11:47:26Z</time>
      </trkpt>
      <trkpt lat="43.23515" lon="1.34316">
        <ele>291</ele>
        <time>2017-10-07T11:47:27Z</time>
      </trkpt>
      <trkpt lat="43.23511" lon="1.3433">
        <ele>290</ele>
        <time>2017-10-07T11:47:28Z</time>
      </trkpt>
      <trkpt lat="43.23507" lon="1.34344">
        <ele>289</ele>
        <time>2017-10-07T11:47:29Z</time>
      </trkpt>
      <trkpt lat="43.23504" lon="1.34357">
        <ele>288</ele>
        <time>2017-10-07T11:47:30Z</time>
      </trkpt>
      <trkpt lat="43.23501" lon="1.34369">
        <ele>287</ele>
        <time>2017-10-07T11:47:31Z</time>
      </trkpt>
      <trkpt lat="43.23499" lon="1.34382">
        <ele>286</ele>
        <time>2017-10-07T11:47:32Z</time>
      </trkpt>
      <trkpt lat="43.23496" lon="1.34394">
        <ele>285</ele>
        <time>2017-10-07T11:47:33Z</time>
      </trkpt>
      <trkpt lat="43.23493" lon="1.34406">
        <ele>284</ele>
        <time>2017-10-07T11:47:34Z</time>
      </trkpt>
      <trkpt lat="43.2349" lon="1.34418">
        <ele>283</ele>
        <time>2017-10-07T11:47:35Z</time>
      </trkpt>
      <trkpt lat="43.23488" lon="1.3443">
        <ele>282</ele>
        <time>2017-10-07T11:47:36Z</time>
      </trkpt>
      <trkpt lat="43.23485" lon="1.34442">
        <ele>281</ele>
        <time>2017-10-07T11:47:37Z</time>
      </trkpt>
      <trkpt lat="43.23482" lon="1.34455">
        <ele>280</ele>
        <time>2017-10-07T11:47:38Z</time>
      </trkpt>
      <trkpt lat="43.23479" lon="1.34468">
        <ele>280</ele>
        <time>2017-10-07T11:47:39Z</time>
      </trkpt>
      <trkpt lat="43.23475" lon="1.34481">
        <ele>279</ele>
        <time>2017-10-07T11:47:40Z</time>
      </trkpt>
      <trkpt lat="43.23471" lon="1.34494">
        <ele>278</ele>
        <time>2017-10-07T11:47:41Z</time>
      </trkpt>
      <trkpt lat="43.23467" lon="1.34505">
        <ele>277</ele>
        <time>2017-10-07T11:47:42Z</time>
      </trkpt>
      <trkpt lat="43.23464" lon="1.34514">
        <ele>276</ele>
        <time>2017-10-07T11:47:43Z</time>
      </trkpt>
      <trkpt lat="43.2346" lon="1.34522">
        <ele>275</ele>
        <time>2017-10-07T11:47:44Z</time>
      </trkpt>
      <trkpt lat="43.23457" lon="1.34529">
        <ele>274</ele>
        <time>2017-10-07T11:47:45Z</time>
      </trkpt>
      <trkpt lat="43.23452" lon="1.34535">
        <ele>273</ele>
        <time>2017-10-07T11:47:46Z</time>
      </trkpt>
      <trkpt lat="43.23447" lon="1.3454">
        <ele>272</ele>
        <time>2017-10-07T11:47:47Z</time>
      </trkpt>
      <trkpt lat="43.2344" lon="1.34544">
        <ele>272</ele>
        <time>2017-10-07T11:47:48Z</time>
      </trkpt>
      <trkpt lat="43.23433" lon="1.34547">
        <ele>271</ele>
        <time>2017-10-07T11:47:49Z</time>
      </trkpt>
      <trkpt lat="43.23425" lon="1.34551">
        <ele>270</ele>
        <time>2017-10-07T11:47:50Z</time>
      </trkpt>
      <trkpt lat="43.23416" lon="1.34554">
        <ele>268</ele>
        <time>2017-10-07T11:47:51Z</time>
      </trkpt>
      <trkpt lat="43.23408" lon="1.34558">
        <ele>267</ele>
        <time>2017-10-07T11:47:52Z</time>
      </trkpt>
      <trkpt lat="43.23399" lon="1.34562">
        <ele>266</ele>
        <time>2017-10-07T11:47:53Z</time>
      </trkpt>
      <trkpt lat="43.23391" lon="1.34567">
        <ele>265</ele>
        <time>2017-10-07T11:47:54Z</time>
      </trkpt>
      <trkpt lat="43.23385" lon="1.34572">
        <ele>264</ele>
        <time>2017-10-07T11:47:55Z</time>
      </trkpt>
      <trkpt lat="43.23379" lon="1.3458">
        <ele>262</ele>
        <time>2017-10-07T11:47:56Z</time>
      </trkpt>
      <trkpt lat="43.23373" lon="1.34591">
        <ele>261</ele>
        <time>2017-10-07T11:47:57Z</time>
      </trkpt>
      <trkpt lat="43.23368" lon="1.34602">
        <ele>259</ele>
        <time>2017-10-07T11:47:58Z</time>
      </trkpt>
      <trkpt lat="43.23363" lon="1.34614">
        <ele>258</ele>
        <time>2017-10-07T11:47:59Z</time>
      </trkpt>
      <trkpt lat="43.23357" lon="1.34626">
        <ele>256</ele>
        <time>2017-10-07T11:48:00Z</time>
      </trkpt>
      <trkpt lat="43.23352" lon="1.34639">
        <ele>254</ele>
        <time>2017-10-07T11:48:01Z</time>
      </trkpt>
      <trkpt lat="43.23346" lon="1.34652">
        <ele>252</ele>
        <time>2017-10-07T11:48:02Z</time>
      </trkpt>
      <trkpt lat="43.2334" lon="1.34664">
        <ele>251</ele>
        <time>2017-10-07T11:48:03Z</time>
      </trkpt>
      <trkpt lat="43.23334" lon="1.34675">
        <ele>249</ele>
        <time>2017-10-07T11:48:04Z</time>
      </trkpt>
      <trkpt lat="43.23327" lon="1.34685">
        <ele>247</ele>
        <time>2017-10-07T11:48:05Z</time>
      </trkpt>
      <trkpt lat="43.2332" lon="1.34692">
        <ele>245</ele>
        <time>2017-10-07T11:48:06Z</time>
      </trkpt>
      <trkpt lat="43.23314" lon="1.34697">
        <ele>244</ele>
        <time>2017-10-07T11:48:07Z</time>
      </trkpt>
      <trkpt lat="43.23309" lon="1.34701">
        <ele>242</ele>
        <time>2017-10-07T11:48:08Z</time>
      </trkpt>
      <trkpt lat="43.23304" lon="1.34705">
        <ele>241</ele>
        <time>2017-10-07T11:48:09Z</time>
      </trkpt>
      <trkpt lat="43.23298" lon="1.34709">
        <ele>239</ele>
        <time>2017-10-07T11:48:10Z</time>
      </trkpt>
      <trkpt lat="43.23285" lon="1.34716">
        <ele>239</ele>
        <time>2017-10-07T11:48:13Z</time>
      </trkpt>
      <trkpt lat="43.2327" lon="1.34726">
        <ele>239</ele>
        <time>2017-10-07T11:48:18Z</time>
      </trkpt>
      <trkpt lat="43.23259" lon="1.34735">
        <ele>239</ele>
        <time>2017-10-07T11:48:22Z</time>
      </trkpt>
      <trkpt lat="43.23255" lon="1.3474">
        <ele>240</ele>
        <time>2017-10-07T11:48:24Z</time>
      </trkpt>
      <trkpt lat="43.23254" lon="1.34743">
        <ele>240</ele>
        <time>2017-10-07T11:48:25Z</time>
      </trkpt>
      <trkpt lat="43.23253" lon="1.34746">
        <ele>240</ele>
        <time>2017-10-07T11:48:26Z</time>
      </trkpt>
      <trkpt lat="43.23252" lon="1.34749">
        <ele>241</ele>
        <time>2017-10-07T11:48:27Z</time>
      </trkpt>
      <trkpt lat="43.23252" lon="1.34751">
        <ele>241</ele>
        <time>2017-10-07T11:48:28Z</time>
      </trkpt>
      <trkpt lat="43.23249" lon="1.34756">
        <ele>241</ele>
        <time>2017-10-07T11:48:30Z</time>
      </trkpt>
      <trkpt lat="43.23246" lon="1.34764">
        <ele>242</ele>
        <time>2017-10-07T11:48:33Z</time>
      </trkpt>
      <trkpt lat="43.23245" lon="1.34766">
        <ele>242</ele>
        <time>2017-10-07T11:48:34Z</time>
      </trkpt>
      <trkpt lat="43.23244" lon="1.34769">
        <ele>243</ele>
        <time>2017-10-07T11:48:35Z</time>
      </trkpt>
      <trkpt lat="43.23243" lon="1.34771">
        <ele>243</ele>
        <time>2017-10-07T11:48:36Z</time>
      </trkpt>
      <trkpt lat="43.23242" lon="1.34774">
        <ele>243</ele>
        <time>2017-10-07T11:48:37Z</time>
      </trkpt>
      <trkpt lat="43.23238" lon="1.34783">
        <ele>244</ele>
        <time>2017-10-07T11:48:41Z</time>
      </trkpt>
      <trkpt lat="43.23237" lon="1.34786">
        <ele>244</ele>
        <time>2017-10-07T11:48:42Z</time>
      </trkpt>
      <trkpt lat="43.23236" lon="1.34788">
        <ele>245</ele>
        <time>2017-10-07T11:48:43Z</time>
      </trkpt>
      <trkpt lat="43.23235" lon="1.3479">
        <ele>245</ele>
        <time>2017-10-07T11:48:44Z</time>
      </trkpt>
      <trkpt lat="43.23233" lon="1.34793">
        <ele>245</ele>
        <time>2017-10-07T11:48:45Z</time>
      </trkpt>
      <trkpt lat="43.23228" lon="1.34806">
        <ele>245</ele>
        <time>2017-10-07T11:48:51Z</time>
      </trkpt>
      <trkpt lat="43.23225" lon="1.34812">
        <ele>246</ele>
        <time>2017-10-07T11:48:54Z</time>
      </trkpt>
      <trkpt lat="43.23224" lon="1.34814">
        <ele>246</ele>
        <time>2017-10-07T11:48:55Z</time>
      </trkpt>
      <trkpt lat="43.23224" lon="1.34816">
        <ele>247</ele>
        <time>2017-10-07T11:48:56Z</time>
      </trkpt>
      <trkpt lat="43.23223" lon="1.34818">
        <ele>247</ele>
        <time>2017-10-07T11:48:57Z</time>
      </trkpt>
      <trkpt lat="43.23222" lon="1.34819">
        <ele>248</ele>
        <time>2017-10-07T11:48:58Z</time>
      </trkpt>
      <trkpt lat="43.23217" lon="1.34832">
        <ele>248</ele>
        <time>2017-10-07T11:49:05Z</time>
      </trkpt>
      <trkpt lat="43.23216" lon="1.34834">
        <ele>248</ele>
        <time>2017-10-07T11:49:06Z</time>
      </trkpt>
      <trkpt lat="43.23216" lon="1.34835">
        <ele>248</ele>
        <time>2017-10-07T11:49:07Z</time>
      </trkpt>
      <trkpt lat="43.23215" lon="1.34837">
        <ele>249</ele>
        <time>2017-10-07T11:49:08Z</time>
      </trkpt>
      <trkpt lat="43.23214" lon="1.34839">
        <ele>249</ele>
        <time>2017-10-07T11:49:09Z</time>
      </trkpt>
      <trkpt lat="43.23214" lon="1.3484">
        <ele>250</ele>
        <time>2017-10-07T11:49:10Z</time>
      </trkpt>
      <trkpt lat="43.23211" lon="1.34845">
        <ele>250</ele>
        <time>2017-10-07T11:49:13Z</time>
      </trkpt>
      <trkpt lat="43.23208" lon="1.3485">
        <ele>250</ele>
        <time>2017-10-07T11:49:16Z</time>
      </trkpt>
      <trkpt lat="43.23207" lon="1.34852">
        <ele>251</ele>
        <time>2017-10-07T11:49:17Z</time>
      </trkpt>
      <trkpt lat="43.23206" lon="1.34853">
        <ele>251</ele>
        <time>2017-10-07T11:49:18Z</time>
      </trkpt>
      <trkpt lat="43.23205" lon="1.34855">
        <ele>251</ele>
        <time>2017-10-07T11:49:19Z</time>
      </trkpt>
      <trkpt lat="43.23205" lon="1.34857">
        <ele>252</ele>
        <time>2017-10-07T11:49:20Z</time>
      </trkpt>
      <trkpt lat="43.23202" lon="1.3486">
        <ele>252</ele>
        <time>2017-10-07T11:49:22Z</time>
      </trkpt>
      <trkpt lat="43.23197" lon="1.34867">
        <ele>252</ele>
        <time>2017-10-07T11:49:27Z</time>
      </trkpt>
      <trkpt lat="43.23196" lon="1.34868">
        <ele>253</ele>
        <time>2017-10-07T11:49:28Z</time>
      </trkpt>
      <trkpt lat="43.23195" lon="1.3487">
        <ele>253</ele>
        <time>2017-10-07T11:49:29Z</time>
      </trkpt>
      <trkpt lat="43.23193" lon="1.34872">
        <ele>254</ele>
        <time>2017-10-07T11:49:30Z</time>
      </trkpt>
      <trkpt lat="43.23185" lon="1.3488">
        <ele>254</ele>
        <time>2017-10-07T11:49:37Z</time>
      </trkpt>
      <trkpt lat="43.23184" lon="1.34881">
        <ele>255</ele>
        <time>2017-10-07T11:49:38Z</time>
      </trkpt>
      <trkpt lat="43.23183" lon="1.34882">
        <ele>255</ele>
        <time>2017-10-07T11:49:39Z</time>
      </trkpt>
      <trkpt lat="43.23182" lon="1.34884">
        <ele>256</ele>
        <time>2017-10-07T11:49:40Z</time>
      </trkpt>
      <trkpt lat="43.23181" lon="1.34885">
        <ele>256</ele>
        <time>2017-10-07T11:49:41Z</time>
      </trkpt>
      <trkpt lat="43.23176" lon="1.3489">
        <ele>256</ele>
        <time>2017-10-07T11:49:46Z</time>
      </trkpt>
      <trkpt lat="43.23169" lon="1.34895">
        <ele>256</ele>
        <time>2017-10-07T11:49:50Z</time>
      </trkpt>
      <trkpt lat="43.23168" lon="1.34896">
        <ele>257</ele>
        <time>2017-10-07T11:49:51Z</time>
      </trkpt>
      <trkpt lat="43.23167" lon="1.34897">
        <ele>257</ele>
        <time>2017-10-07T11:49:52Z</time>
      </trkpt>
      <trkpt lat="43.23166" lon="1.34899">
        <ele>258</ele>
        <time>2017-10-07T11:49:53Z</time>
      </trkpt>
      <trkpt lat="43.23165" lon="1.349">
        <ele>258</ele>
        <time>2017-10-07T11:49:54Z</time>
      </trkpt>
      <trkpt lat="43.2316" lon="1.34907">
        <ele>258</ele>
        <time>2017-10-07T11:49:59Z</time>
      </trkpt>
      <trkpt lat="43.23157" lon="1.3491">
        <ele>259</ele>
        <time>2017-10-07T11:50:01Z</time>
      </trkpt>
      <trkpt lat="43.23156" lon="1.34911">
        <ele>259</ele>
        <time>2017-10-07T11:50:02Z</time>
      </trkpt>
      <trkpt lat="43.23155" lon="1.34912">
        <ele>259</ele>
        <time>2017-10-07T11:50:03Z</time>
      </trkpt>
      <trkpt lat="43.23154" lon="1.34913">
        <ele>260</ele>
        <time>2017-10-07T11:50:04Z</time>
      </trkpt>
      <trkpt lat="43.23153" lon="1.34915">
        <ele>260</ele>
        <time>2017-10-07T11:50:05Z</time>
      </trkpt>
      <trkpt lat="43.23151" lon="1.34917">
        <ele>260</ele>
        <time>2017-10-07T11:50:07Z</time>
      </trkpt>
      <trkpt lat="43.23147" lon="1.34922">
        <ele>261</ele>
        <time>2017-10-07T11:50:11Z</time>
      </trkpt>
      <trkpt lat="43.23146" lon="1.34923">
        <ele>261</ele>
        <time>2017-10-07T11:50:12Z</time>
      </trkpt>
      <trkpt lat="43.23145" lon="1.34924">
        <ele>261</ele>
        <time>2017-10-07T11:50:13Z</time>
      </trkpt>
      <trkpt lat="43.23144" lon="1.34926">
        <ele>262</ele>
        <time>2017-10-07T11:50:14Z</time>
      </trkpt>
      <trkpt lat="43.23143" lon="1.34927">
        <ele>262</ele>
        <time>2017-10-07T11:50:15Z</time>
      </trkpt>
      <trkpt lat="43.23139" lon="1.34932">
        <ele>263</ele>
        <time>2017-10-07T11:50:19Z</time>
      </trkpt>
      <trkpt lat="43.23138" lon="1.34934">
        <ele>263</ele>
        <time>2017-10-07T11:50:20Z</time>
      </trkpt>
      <trkpt lat="43.23137" lon="1.34935">
        <ele>264</ele>
        <time>2017-10-07T11:50:21Z</time>
      </trkpt>
      <trkpt lat="43.23136" lon="1.34936">
        <ele>264</ele>
        <time>2017-10-07T11:50:22Z</time>
      </trkpt>
      <trkpt lat="43.23135" lon="1.34938">
        <ele>264</ele>
        <time>2017-10-07T11:50:23Z</time>
      </trkpt>
      <trkpt lat="43.23129" lon="1.34945">
        <ele>265</ele>
        <time>2017-10-07T11:50:28Z</time>
      </trkpt>
      <trkpt lat="43.23128" lon="1.34947">
        <ele>265</ele>
        <time>2017-10-07T11:50:29Z</time>
      </trkpt>
      <trkpt lat="43.23127" lon="1.34948">
        <ele>266</ele>
        <time>2017-10-07T11:50:30Z</time>
      </trkpt>
      <trkpt lat="43.23126" lon="1.34949">
        <ele>266</ele>
        <time>2017-10-07T11:50:31Z</time>
      </trkpt>
      <trkpt lat="43.23125" lon="1.34951">
        <ele>266</ele>
        <time>2017-10-07T11:50:32Z</time>
      </trkpt>
      <trkpt lat="43.23121" lon="1.34958">
        <ele>267</ele>
        <time>2017-10-07T11:50:37Z</time>
      </trkpt>
      <trkpt lat="43.2312" lon="1.34959">
        <ele>267</ele>
        <time>2017-10-07T11:50:38Z</time>
      </trkpt>
      <trkpt lat="43.23119" lon="1.34961">
        <ele>268</ele>
        <time>2017-10-07T11:50:39Z</time>
      </trkpt>
      <trkpt lat="43.23118" lon="1.34962">
        <ele>268</ele>
        <time>2017-10-07T11:50:40Z</time>
      </trkpt>
      <trkpt lat="43.23117" lon="1.34964">
        <ele>269</ele>
        <time>2017-10-07T11:50:41Z</time>
      </trkpt>
      <trkpt lat="43.23115" lon="1.34967">
        <ele>269</ele>
        <time>2017-10-07T11:50:44Z</time>
      </trkpt>
      <trkpt lat="43.23114" lon="1.34969">
        <ele>269</ele>
        <time>2017-10-07T11:50:45Z</time>
      </trkpt>
      <trkpt lat="43.23113" lon="1.3497">
        <ele>270</ele>
        <time>2017-10-07T11:50:46Z</time>
      </trkpt>
      <trkpt lat="43.23112" lon="1.34971">
        <ele>270</ele>
        <time>2017-10-07T11:50:47Z</time>
      </trkpt>
      <trkpt lat="43.23111" lon="1.34972">
        <ele>271</ele>
        <time>2017-10-07T11:50:48Z</time>
      </trkpt>
      <trkpt lat="43.23106" lon="1.34979">
        <ele>271</ele>
        <time>2017-10-07T11:50:52Z</time>
      </trkpt>
      <trkpt lat="43.23105" lon="1.3498">
        <ele>271</ele>
        <time>2017-10-07T11:50:53Z</time>
      </trkpt>
      <trkpt lat="43.23104" lon="1.34981">
        <ele>271</ele>
        <time>2017-10-07T11:50:54Z</time>
      </trkpt>
      <trkpt lat="43.23103" lon="1.34983">
        <ele>272</ele>
        <time>2017-10-07T11:50:55Z</time>
      </trkpt>
      <trkpt lat="43.23102" lon="1.34984">
        <ele>272</ele>
        <time>2017-10-07T11:50:56Z</time>
      </trkpt>
      <trkpt lat="43.23101" lon="1.34986">
        <ele>273</ele>
        <time>2017-10-07T11:50:57Z</time>
      </trkpt>
      <trkpt lat="43.231" lon="1.34989">
        <ele>273</ele>
        <time>2017-10-07T11:50:59Z</time>
      </trkpt>
      <trkpt lat="43.23095" lon="1.34996">
        <ele>273</ele>
        <time>2017-10-07T11:51:04Z</time>
      </trkpt>
      <trkpt lat="43.23094" lon="1.34998">
        <ele>273</ele>
        <time>2017-10-07T11:51:05Z</time>
      </trkpt>
      <trkpt lat="43.23093" lon="1.34999">
        <ele>274</ele>
        <time>2017-10-07T11:51:06Z</time>
      </trkpt>
      <trkpt lat="43.23092" lon="1.35001">
        <ele>274</ele>
        <time>2017-10-07T11:51:07Z</time>
      </trkpt>
      <trkpt lat="43.23092" lon="1.35002">
        <ele>275</ele>
        <time>2017-10-07T11:51:08Z</time>
      </trkpt>
      <trkpt lat="43.23087" lon="1.3501">
        <ele>275</ele>
        <time>2017-10-07T11:51:13Z</time>
      </trkpt>
      <trkpt lat="43.23086" lon="1.35012">
        <ele>276</ele>
        <time>2017-10-07T11:51:14Z</time>
      </trkpt>
      <trkpt lat="43.23085" lon="1.35013">
        <ele>276</ele>
        <time>2017-10-07T11:51:15Z</time>
      </trkpt>
      <trkpt lat="43.23085" lon="1.35014">
        <ele>276</ele>
        <time>2017-10-07T11:51:16Z</time>
      </trkpt>
      <trkpt lat="43.23084" lon="1.35016">
        <ele>277</ele>
        <time>2017-10-07T11:51:17Z</time>
      </trkpt>
      <trkpt lat="43.23081" lon="1.35021">
        <ele>277</ele>
        <time>2017-10-07T11:51:20Z</time>
      </trkpt>
      <trkpt lat="43.23079" lon="1.35024">
        <ele>277</ele>
        <time>2017-10-07T11:51:22Z</time>
      </trkpt>
      <trkpt lat="43.23078" lon="1.35026">
        <ele>278</ele>
        <time>2017-10-07T11:51:23Z</time>
      </trkpt>
      <trkpt lat="43.23078" lon="1.35028">
        <ele>278</ele>
        <time>2017-10-07T11:51:24Z</time>
      </trkpt>
      <trkpt lat="43.23077" lon="1.3503">
        <ele>278</ele>
        <time>2017-10-07T11:51:25Z</time>
      </trkpt>
      <trkpt lat="43.23076" lon="1.35032">
        <ele>279</ele>
        <time>2017-10-07T11:51:26Z</time>
      </trkpt>
      <trkpt lat="43.23074" lon="1.35036">
        <ele>279</ele>
        <time>2017-10-07T11:51:28Z</time>
      </trkpt>
      <trkpt lat="43.2307" lon="1.35042">
        <ele>279</ele>
        <time>2017-10-07T11:51:32Z</time>
      </trkpt>
      <trkpt lat="43.23069" lon="1.35044">
        <ele>280</ele>
        <time>2017-10-07T11:51:33Z</time>
      </trkpt>
      <trkpt lat="43.23068" lon="1.35046">
        <ele>281</ele>
        <time>2017-10-07T11:51:34Z</time>
      </trkpt>
      <trkpt lat="43.23067" lon="1.35048">
        <ele>281</ele>
        <time>2017-10-07T11:51:35Z</time>
      </trkpt>
      <trkpt lat="43.23063" lon="1.35058">
        <ele>281</ele>
        <time>2017-10-07T11:51:40Z</time>
      </trkpt>
      <trkpt lat="43.23063" lon="1.3506">
        <ele>282</ele>
        <time>2017-10-07T11:51:41Z</time>
      </trkpt>
      <trkpt lat="43.23062" lon="1.35063">
        <ele>282</ele>
        <time>2017-10-07T11:51:42Z</time>
      </trkpt>
      <trkpt lat="43.23061" lon="1.35065">
        <ele>283</ele>
        <time>2017-10-07T11:51:43Z</time>
      </trkpt>
      <trkpt lat="43.2306" lon="1.35067">
        <ele>283</ele>
        <time>2017-10-07T11:51:44Z</time>
      </trkpt>
      <trkpt lat="43.23058" lon="1.35075">
        <ele>283</ele>
        <time>2017-10-07T11:51:47Z</time>
      </trkpt>
      <trkpt lat="43.23057" lon="1.35087">
        <ele>284</ele>
        <time>2017-10-07T11:51:52Z</time>
      </trkpt>
      <trkpt lat="43.23056" lon="1.35089">
        <ele>284</ele>
        <time>2017-10-07T11:51:53Z</time>
      </trkpt>
      <trkpt lat="43.23055" lon="1.35092">
        <ele>284</ele>
        <time>2017-10-07T11:51:54Z</time>
      </trkpt>
      <trkpt lat="43.23055" lon="1.35095">
        <ele>285</ele>
        <time>2017-10-07T11:51:55Z</time>
      </trkpt>
      <trkpt lat="43.23054" lon="1.35098">
        <ele>285</ele>
        <time>2017-10-07T11:51:56Z</time>
      </trkpt>
      <trkpt lat="43.2305" lon="1.35118">
        <ele>285</ele>
        <time>2017-10-07T11:52:03Z</time>
      </trkpt>
      <trkpt lat="43.23045" lon="1.35142">
        <ele>285</ele>
        <time>2017-10-07T11:52:11Z</time>
      </trkpt>
      <trkpt lat="43.23044" lon="1.35148">
        <ele>286</ele>
        <time>2017-10-07T11:52:13Z</time>
      </trkpt>
      <trkpt lat="43.23043" lon="1.35151">
        <ele>286</ele>
        <time>2017-10-07T11:52:14Z</time>
      </trkpt>
      <trkpt lat="43.23042" lon="1.35154">
        <ele>286</ele>
        <time>2017-10-07T11:52:15Z</time>
      </trkpt>
      <trkpt lat="43.23041" lon="1.35157">
        <ele>287</ele>
        <time>2017-10-07T11:52:16Z</time>
      </trkpt>
      <trkpt lat="43.23041" lon="1.3516">
        <ele>287</ele>
        <time>2017-10-07T11:52:17Z</time>
      </trkpt>
      <trkpt lat="43.23039" lon="1.35166">
        <ele>287</ele>
        <time>2017-10-07T11:52:19Z</time>
      </trkpt>
      <trkpt lat="43.23035" lon="1.35189">
        <ele>287</ele>
        <time>2017-10-07T11:52:26Z</time>
      </trkpt>
      <trkpt lat="43.23028" lon="1.35216">
        <ele>287</ele>
        <time>2017-10-07T11:52:33Z</time>
      </trkpt>
      <trkpt lat="43.23022" lon="1.35239">
        <ele>287</ele>
        <time>2017-10-07T11:52:39Z</time>
      </trkpt>
      <trkpt lat="43.23015" lon="1.35264">
        <ele>287</ele>
        <time>2017-10-07T11:52:45Z</time>
      </trkpt>
      <trkpt lat="43.23003" lon="1.35273">
        <ele>287</ele>
        <time>2017-10-07T11:52:49Z</time>
      </trkpt>
      <trkpt lat="43.22986" lon="1.35288">
        <ele>287</ele>
        <time>2017-10-07T11:52:55Z</time>
      </trkpt>
      <trkpt lat="43.22972" lon="1.353">
        <ele>288</ele>
        <time>2017-10-07T11:53:00Z</time>
      </trkpt>
      <trkpt lat="43.22969" lon="1.35302">
        <ele>288</ele>
        <time>2017-10-07T11:53:01Z</time>
      </trkpt>
      <trkpt lat="43.22966" lon="1.35305">
        <ele>289</ele>
        <time>2017-10-07T11:53:02Z</time>
      </trkpt>
      <trkpt lat="43.22963" lon="1.35307">
        <ele>289</ele>
        <time>2017-10-07T11:53:03Z</time>
      </trkpt>
      <trkpt lat="43.2296" lon="1.35309">
        <ele>289</ele>
        <time>2017-10-07T11:53:04Z</time>
      </trkpt>
      <trkpt lat="43.22944" lon="1.35322">
        <ele>290</ele>
        <time>2017-10-07T11:53:10Z</time>
      </trkpt>
      <trkpt lat="43.22942" lon="1.35324">
        <ele>290</ele>
        <time>2017-10-07T11:53:11Z</time>
      </trkpt>
      <trkpt lat="43.22939" lon="1.35326">
        <ele>291</ele>
        <time>2017-10-07T11:53:13Z</time>
      </trkpt>
      <trkpt lat="43.22936" lon="1.35328">
        <ele>292</ele>
        <time>2017-10-07T11:53:14Z</time>
      </trkpt>
      <trkpt lat="43.22925" lon="1.35339">
        <ele>292</ele>
        <time>2017-10-07T11:53:19Z</time>
      </trkpt>
      <trkpt lat="43.22923" lon="1.35341">
        <ele>292</ele>
        <time>2017-10-07T11:53:20Z</time>
      </trkpt>
      <trkpt lat="43.22921" lon="1.35343">
        <ele>293</ele>
        <time>2017-10-07T11:53:21Z</time>
      </trkpt>
      <trkpt lat="43.22919" lon="1.35344">
        <ele>293</ele>
        <time>2017-10-07T11:53:22Z</time>
      </trkpt>
      <trkpt lat="43.22918" lon="1.35345">
        <ele>294</ele>
        <time>2017-10-07T11:53:23Z</time>
      </trkpt>
      <trkpt lat="43.22914" lon="1.35348">
        <ele>294</ele>
        <time>2017-10-07T11:53:25Z</time>
      </trkpt>
      <trkpt lat="43.22903" lon="1.35356">
        <ele>294</ele>
        <time>2017-10-07T11:53:30Z</time>
      </trkpt>
      <trkpt lat="43.22901" lon="1.35358">
        <ele>295</ele>
        <time>2017-10-07T11:53:31Z</time>
      </trkpt>
      <trkpt lat="43.22899" lon="1.3536">
        <ele>295</ele>
        <time>2017-10-07T11:53:32Z</time>
      </trkpt>
      <trkpt lat="43.22897" lon="1.35361">
        <ele>295</ele>
        <time>2017-10-07T11:53:33Z</time>
      </trkpt>
      <trkpt lat="43.22895" lon="1.35363">
        <ele>296</ele>
        <time>2017-10-07T11:53:34Z</time>
      </trkpt>
      <trkpt lat="43.22884" lon="1.35372">
        <ele>296</ele>
        <time>2017-10-07T11:53:39Z</time>
      </trkpt>
      <trkpt lat="43.22883" lon="1.35373">
        <ele>296</ele>
        <time>2017-10-07T11:53:40Z</time>
      </trkpt>
      <trkpt lat="43.22883" lon="1.35375">
        <ele>297</ele>
        <time>2017-10-07T11:53:41Z</time>
      </trkpt>
      <trkpt lat="43.22883" lon="1.35377">
        <ele>297</ele>
        <time>2017-10-07T11:53:42Z</time>
      </trkpt>
      <trkpt lat="43.22885" lon="1.35379">
        <ele>298</ele>
        <time>2017-10-07T11:53:43Z</time>
      </trkpt>
      <trkpt lat="43.22887" lon="1.35381">
        <ele>298</ele>
        <time>2017-10-07T11:53:44Z</time>
      </trkpt>
      <trkpt lat="43.22894" lon="1.35386">
        <ele>298</ele>
        <time>2017-10-07T11:53:46Z</time>
      </trkpt>
      <trkpt lat="43.22898" lon="1.35388">
        <ele>298</ele>
        <time>2017-10-07T11:53:47Z</time>
      </trkpt>
      <trkpt lat="43.22911" lon="1.35393">
        <ele>298</ele>
        <time>2017-10-07T11:53:50Z</time>
      </trkpt>
      <trkpt lat="43.22915" lon="1.35394">
        <ele>297</ele>
        <time>2017-10-07T11:53:51Z</time>
      </trkpt>
      <trkpt lat="43.2292" lon="1.35396">
        <ele>297</ele>
        <time>2017-10-07T11:53:52Z</time>
      </trkpt>
      <trkpt lat="43.22924" lon="1.35398">
        <ele>296</ele>
        <time>2017-10-07T11:53:53Z</time>
      </trkpt>
      <trkpt lat="43.22928" lon="1.354">
        <ele>296</ele>
        <time>2017-10-07T11:53:54Z</time>
      </trkpt>
      <trkpt lat="43.22931" lon="1.35402">
        <ele>295</ele>
        <time>2017-10-07T11:53:55Z</time>
      </trkpt>
      <trkpt lat="43.22935" lon="1.35404">
        <ele>295</ele>
        <time>2017-10-07T11:53:56Z</time>
      </trkpt>
      <trkpt lat="43.2294" lon="1.35407">
        <ele>294</ele>
        <time>2017-10-07T11:53:57Z</time>
      </trkpt>
      <trkpt lat="43.22944" lon="1.35409">
        <ele>293</ele>
        <time>2017-10-07T11:53:58Z</time>
      </trkpt>
      <trkpt lat="43.22949" lon="1.35411">
        <ele>293</ele>
        <time>2017-10-07T11:53:59Z</time>
      </trkpt>
      <trkpt lat="43.22954" lon="1.35412">
        <ele>292</ele>
        <time>2017-10-07T11:54:00Z</time>
      </trkpt>
      <trkpt lat="43.22959" lon="1.35414">
        <ele>291</ele>
        <time>2017-10-07T11:54:01Z</time>
      </trkpt>
      <trkpt lat="43.22964" lon="1.35416">
        <ele>290</ele>
        <time>2017-10-07T11:54:02Z</time>
      </trkpt>
      <trkpt lat="43.22969" lon="1.35418">
        <ele>289</ele>
        <time>2017-10-07T11:54:03Z</time>
      </trkpt>
      <trkpt lat="43.22974" lon="1.35422">
        <ele>288</ele>
        <time>2017-10-07T11:54:04Z</time>
      </trkpt>
      <trkpt lat="43.22978" lon="1.35427">
        <ele>287</ele>
        <time>2017-10-07T11:54:05Z</time>
      </trkpt>
      <trkpt lat="43.22982" lon="1.35432">
        <ele>286</ele>
        <time>2017-10-07T11:54:06Z</time>
      </trkpt>
      <trkpt lat="43.22985" lon="1.35439">
        <ele>285</ele>
        <time>2017-10-07T11:54:07Z</time>
      </trkpt>
      <trkpt lat="43.22988" lon="1.35446">
        <ele>284</ele>
        <time>2017-10-07T11:54:08Z</time>
      </trkpt>
      <trkpt lat="43.22991" lon="1.35453">
        <ele>283</ele>
        <time>2017-10-07T11:54:09Z</time>
      </trkpt>
      <trkpt lat="43.22994" lon="1.35462">
        <ele>282</ele>
        <time>2017-10-07T11:54:10Z</time>
      </trkpt>
      <trkpt lat="43.22997" lon="1.3547">
        <ele>281</ele>
        <time>2017-10-07T11:54:11Z</time>
      </trkpt>
      <trkpt lat="43.23" lon="1.35478">
        <ele>280</ele>
        <time>2017-10-07T11:54:12Z</time>
      </trkpt>
      <trkpt lat="43.23004" lon="1.35486">
        <ele>280</ele>
        <time>2017-10-07T11:54:13Z</time>
      </trkpt>
      <trkpt lat="43.23008" lon="1.35495">
        <ele>279</ele>
        <time>2017-10-07T11:54:14Z</time>
      </trkpt>
      <trkpt lat="43.23011" lon="1.35503">
        <ele>278</ele>
        <time>2017-10-07T11:54:15Z</time>
      </trkpt>
      <trkpt lat="43.23014" lon="1.35511">
        <ele>278</ele>
        <time>2017-10-07T11:54:16Z</time>
      </trkpt>
      <trkpt lat="43.23018" lon="1.35519">
        <ele>277</ele>
        <time>2017-10-07T11:54:17Z</time>
      </trkpt>
      <trkpt lat="43.23021" lon="1.35526">
        <ele>277</ele>
        <time>2017-10-07T11:54:18Z</time>
      </trkpt>
      <trkpt lat="43.23025" lon="1.35534">
        <ele>276</ele>
        <time>2017-10-07T11:54:19Z</time>
      </trkpt>
      <trkpt lat="43.23028" lon="1.35542">
        <ele>276</ele>
        <time>2017-10-07T11:54:20Z</time>
      </trkpt>
      <trkpt lat="43.23032" lon="1.3555">
        <ele>275</ele>
        <time>2017-10-07T11:54:21Z</time>
      </trkpt>
      <trkpt lat="43.23035" lon="1.35559">
        <ele>274</ele>
        <time>2017-10-07T11:54:22Z</time>
      </trkpt>
      <trkpt lat="43.23038" lon="1.35567">
        <ele>274</ele>
        <time>2017-10-07T11:54:23Z</time>
      </trkpt>
      <trkpt lat="43.2304" lon="1.35576">
        <ele>273</ele>
        <time>2017-10-07T11:54:24Z</time>
      </trkpt>
      <trkpt lat="43.23041" lon="1.35586">
        <ele>272</ele>
        <time>2017-10-07T11:54:25Z</time>
      </trkpt>
      <trkpt lat="43.23042" lon="1.35594">
        <ele>272</ele>
        <time>2017-10-07T11:54:26Z</time>
      </trkpt>
      <trkpt lat="43.23041" lon="1.35602">
        <ele>270</ele>
        <time>2017-10-07T11:54:27Z</time>
      </trkpt>
      <trkpt lat="43.23041" lon="1.3561">
        <ele>270</ele>
        <time>2017-10-07T11:54:28Z</time>
      </trkpt>
      <trkpt lat="43.23041" lon="1.35618">
        <ele>270</ele>
        <time>2017-10-07T11:54:29Z</time>
      </trkpt>
      <trkpt lat="43.23041" lon="1.35626">
        <ele>269</ele>
        <time>2017-10-07T11:54:30Z</time>
      </trkpt>
      <trkpt lat="43.2304" lon="1.35634">
        <ele>269</ele>
        <time>2017-10-07T11:54:31Z</time>
      </trkpt>
      <trkpt lat="43.2304" lon="1.35642">
        <ele>268</ele>
        <time>2017-10-07T11:54:32Z</time>
      </trkpt>
      <trkpt lat="43.2304" lon="1.35657">
        <ele>268</ele>
        <time>2017-10-07T11:54:34Z</time>
      </trkpt>
      <trkpt lat="43.2304" lon="1.35665">
        <ele>267</ele>
        <time>2017-10-07T11:54:35Z</time>
      </trkpt>
      <trkpt lat="43.23041" lon="1.35672">
        <ele>267</ele>
        <time>2017-10-07T11:54:36Z</time>
      </trkpt>
      <trkpt lat="43.2304" lon="1.35679">
        <ele>267</ele>
        <time>2017-10-07T11:54:37Z</time>
      </trkpt>
      <trkpt lat="43.2304" lon="1.35685">
        <ele>266</ele>
        <time>2017-10-07T11:54:38Z</time>
      </trkpt>
      <trkpt lat="43.23039" lon="1.35698">
        <ele>266</ele>
        <time>2017-10-07T11:54:40Z</time>
      </trkpt>
      <trkpt lat="43.23038" lon="1.35703">
        <ele>266</ele>
        <time>2017-10-07T11:54:41Z</time>
      </trkpt>
      <trkpt lat="43.23032" lon="1.35738">
        <ele>266</ele>
        <time>2017-10-07T11:54:47Z</time>
      </trkpt>
      <trkpt lat="43.23032" lon="1.35756">
        <ele>266</ele>
        <time>2017-10-07T11:54:50Z</time>
      </trkpt>
      <trkpt lat="43.23032" lon="1.35762">
        <ele>265</ele>
        <time>2017-10-07T11:54:51Z</time>
      </trkpt>
      <trkpt lat="43.23032" lon="1.35768">
        <ele>264</ele>
        <time>2017-10-07T11:54:52Z</time>
      </trkpt>
      <trkpt lat="43.23032" lon="1.35774">
        <ele>264</ele>
        <time>2017-10-07T11:54:53Z</time>
      </trkpt>
      <trkpt lat="43.23032" lon="1.35781">
        <ele>264</ele>
        <time>2017-10-07T11:54:54Z</time>
      </trkpt>
      <trkpt lat="43.23033" lon="1.35828">
        <ele>264</ele>
        <time>2017-10-07T11:55:01Z</time>
      </trkpt>
      <trkpt lat="43.23033" lon="1.35867">
        <ele>264</ele>
        <time>2017-10-07T11:55:07Z</time>
      </trkpt>
      <trkpt lat="43.23033" lon="1.3588">
        <ele>264</ele>
        <time>2017-10-07T11:55:09Z</time>
      </trkpt>
      <trkpt lat="43.23032" lon="1.35893">
        <ele>264</ele>
        <time>2017-10-07T11:55:11Z</time>
      </trkpt>
      <trkpt lat="43.23031" lon="1.359">
        <ele>263</ele>
        <time>2017-10-07T11:55:12Z</time>
      </trkpt>
      <trkpt lat="43.23032" lon="1.35906">
        <ele>263</ele>
        <time>2017-10-07T11:55:13Z</time>
      </trkpt>
      <trkpt lat="43.23031" lon="1.35912">
        <ele>262</ele>
        <time>2017-10-07T11:55:14Z</time>
      </trkpt>
      <trkpt lat="43.23031" lon="1.35918">
        <ele>262</ele>
        <time>2017-10-07T11:55:15Z</time>
      </trkpt>
      <trkpt lat="43.2303" lon="1.35937">
        <ele>262</ele>
        <time>2017-10-07T11:55:18Z</time>
      </trkpt>
      <trkpt lat="43.23027" lon="1.35982">
        <ele>262</ele>
        <time>2017-10-07T11:55:25Z</time>
      </trkpt>
      <trkpt lat="43.23027" lon="1.36">
        <ele>262</ele>
        <time>2017-10-07T11:55:28Z</time>
      </trkpt>
      <trkpt lat="43.23027" lon="1.36013">
        <ele>262</ele>
        <time>2017-10-07T11:55:30Z</time>
      </trkpt>
      <trkpt lat="43.23025" lon="1.36047">
        <ele>262</ele>
        <time>2017-10-07T11:55:35Z</time>
      </trkpt>
      <trkpt lat="43.23024" lon="1.36053">
        <ele>261</ele>
        <time>2017-10-07T11:55:36Z</time>
      </trkpt>
      <trkpt lat="43.23024" lon="1.36059">
        <ele>261</ele>
        <time>2017-10-07T11:55:37Z</time>
      </trkpt>
      <trkpt lat="43.23023" lon="1.36066">
        <ele>260</ele>
        <time>2017-10-07T11:55:38Z</time>
      </trkpt>
      <trkpt lat="43.23022" lon="1.36072">
        <ele>260</ele>
        <time>2017-10-07T11:55:39Z</time>
      </trkpt>
      <trkpt lat="43.23021" lon="1.36083">
        <ele>260</ele>
        <time>2017-10-07T11:55:41Z</time>
      </trkpt>
      <trkpt lat="43.23018" lon="1.36116">
        <ele>260</ele>
        <time>2017-10-07T11:55:46Z</time>
      </trkpt>
      <trkpt lat="43.23018" lon="1.3616">
        <ele>260</ele>
        <time>2017-10-07T11:55:52Z</time>
      </trkpt>
      <trkpt lat="43.23019" lon="1.36214">
        <ele>260</ele>
        <time>2017-10-07T11:55:59Z</time>
      </trkpt>
      <trkpt lat="43.2302" lon="1.36262">
        <ele>260</ele>
        <time>2017-10-07T11:56:05Z</time>
      </trkpt>
      <trkpt lat="43.23025" lon="1.36321">
        <ele>260</ele>
        <time>2017-10-07T11:56:12Z</time>
      </trkpt>
      <trkpt lat="43.2303" lon="1.36353">
        <ele>260</ele>
        <time>2017-10-07T11:56:16Z</time>
      </trkpt>
      <trkpt lat="43.23031" lon="1.36361">
        <ele>260</ele>
        <time>2017-10-07T11:56:17Z</time>
      </trkpt>
      <trkpt lat="43.23032" lon="1.36368">
        <ele>259</ele>
        <time>2017-10-07T11:56:18Z</time>
      </trkpt>
      <trkpt lat="43.23034" lon="1.36375">
        <ele>259</ele>
        <time>2017-10-07T11:56:19Z</time>
      </trkpt>
      <trkpt lat="43.23035" lon="1.36381">
        <ele>259</ele>
        <time>2017-10-07T11:56:20Z</time>
      </trkpt>
      <trkpt lat="43.23036" lon="1.36388">
        <ele>258</ele>
        <time>2017-10-07T11:56:21Z</time>
      </trkpt>
      <trkpt lat="43.23036" lon="1.36395">
        <ele>258</ele>
        <time>2017-10-07T11:56:22Z</time>
      </trkpt>
      <trkpt lat="43.23037" lon="1.36402">
        <ele>258</ele>
        <time>2017-10-07T11:56:23Z</time>
      </trkpt>
      <trkpt lat="43.23044" lon="1.36455">
        <ele>258</ele>
        <time>2017-10-07T11:56:30Z</time>
      </trkpt>
      <trkpt lat="43.23047" lon="1.36481">
        <ele>257</ele>
        <time>2017-10-07T11:56:33Z</time>
      </trkpt>
      <trkpt lat="43.23049" lon="1.36489">
        <ele>257</ele>
        <time>2017-10-07T11:56:34Z</time>
      </trkpt>
      <trkpt lat="43.2305" lon="1.36499">
        <ele>257</ele>
        <time>2017-10-07T11:56:35Z</time>
      </trkpt>
      <trkpt lat="43.23052" lon="1.36509">
        <ele>256</ele>
        <time>2017-10-07T11:56:36Z</time>
      </trkpt>
      <trkpt lat="43.23054" lon="1.36519">
        <ele>256</ele>
        <time>2017-10-07T11:56:37Z</time>
      </trkpt>
      <trkpt lat="43.23056" lon="1.3653">
        <ele>255</ele>
        <time>2017-10-07T11:56:38Z</time>
      </trkpt>
      <trkpt lat="43.23058" lon="1.36542">
        <ele>254</ele>
        <time>2017-10-07T11:56:39Z</time>
      </trkpt>
      <trkpt lat="43.2306" lon="1.36554">
        <ele>254</ele>
        <time>2017-10-07T11:56:40Z</time>
      </trkpt>
      <trkpt lat="43.23062" lon="1.36566">
        <ele>253</ele>
        <time>2017-10-07T11:56:41Z</time>
      </trkpt>
      <trkpt lat="43.23065" lon="1.36579">
        <ele>252</ele>
        <time>2017-10-07T11:56:42Z</time>
      </trkpt>
      <trkpt lat="43.23068" lon="1.36592">
        <ele>252</ele>
        <time>2017-10-07T11:56:43Z</time>
      </trkpt>
      <trkpt lat="43.23072" lon="1.36606">
        <ele>251</ele>
        <time>2017-10-07T11:56:44Z</time>
      </trkpt>
      <trkpt lat="43.23075" lon="1.36619">
        <ele>249</ele>
        <time>2017-10-07T11:56:45Z</time>
      </trkpt>
      <trkpt lat="43.23077" lon="1.3663">
        <ele>248</ele>
        <time>2017-10-07T11:56:46Z</time>
      </trkpt>
      <trkpt lat="43.2308" lon="1.36642">
        <ele>247</ele>
        <time>2017-10-07T11:56:47Z</time>
      </trkpt>
      <trkpt lat="43.23083" lon="1.36653">
        <ele>246</ele>
        <time>2017-10-07T11:56:48Z</time>
      </trkpt>
      <trkpt lat="43.23085" lon="1.36664">
        <ele>245</ele>
        <time>2017-10-07T11:56:49Z</time>
      </trkpt>
      <trkpt lat="43.23088" lon="1.36676">
        <ele>244</ele>
        <time>2017-10-07T11:56:50Z</time>
      </trkpt>
      <trkpt lat="43.2309" lon="1.36688">
        <ele>243</ele>
        <time>2017-10-07T11:56:51Z</time>
      </trkpt>
      <trkpt lat="43.23092" lon="1.36701">
        <ele>242</ele>
        <time>2017-10-07T11:56:52Z</time>
      </trkpt>
      <trkpt lat="43.23095" lon="1.36714">
        <ele>241</ele>
        <time>2017-10-07T11:56:53Z</time>
      </trkpt>
      <trkpt lat="43.23097" lon="1.36728">
        <ele>240</ele>
        <time>2017-10-07T11:56:54Z</time>
      </trkpt>
      <trkpt lat="43.23099" lon="1.36741">
        <ele>239</ele>
        <time>2017-10-07T11:56:55Z</time>
      </trkpt>
      <trkpt lat="43.23101" lon="1.36754">
        <ele>238</ele>
        <time>2017-10-07T11:56:56Z</time>
      </trkpt>
      <trkpt lat="43.23103" lon="1.36766">
        <ele>237</ele>
        <time>2017-10-07T11:56:57Z</time>
      </trkpt>
      <trkpt lat="43.23106" lon="1.36778">
        <ele>236</ele>
        <time>2017-10-07T11:56:58Z</time>
      </trkpt>
      <trkpt lat="43.23109" lon="1.3679">
        <ele>235</ele>
        <time>2017-10-07T11:56:59Z</time>
      </trkpt>
      <trkpt lat="43.23112" lon="1.36803">
        <ele>235</ele>
        <time>2017-10-07T11:57:00Z</time>
      </trkpt>
      <trkpt lat="43.23114" lon="1.36814">
        <ele>234</ele>
        <time>2017-10-07T11:57:01Z</time>
      </trkpt>
      <trkpt lat="43.23117" lon="1.36827">
        <ele>233</ele>
        <time>2017-10-07T11:57:02Z</time>
      </trkpt>
      <trkpt lat="43.23119" lon="1.36839">
        <ele>233</ele>
        <time>2017-10-07T11:57:03Z</time>
      </trkpt>
      <trkpt lat="43.23121" lon="1.36851">
        <ele>232</ele>
        <time>2017-10-07T11:57:04Z</time>
      </trkpt>
      <trkpt lat="43.23123" lon="1.36863">
        <ele>232</ele>
        <time>2017-10-07T11:57:05Z</time>
      </trkpt>
      <trkpt lat="43.23126" lon="1.36874">
        <ele>231</ele>
        <time>2017-10-07T11:57:06Z</time>
      </trkpt>
      <trkpt lat="43.23129" lon="1.36885">
        <ele>230</ele>
        <time>2017-10-07T11:57:07Z</time>
      </trkpt>
      <trkpt lat="43.23131" lon="1.36896">
        <ele>230</ele>
        <time>2017-10-07T11:57:08Z</time>
      </trkpt>
      <trkpt lat="43.23133" lon="1.36907">
        <ele>229</ele>
        <time>2017-10-07T11:57:09Z</time>
      </trkpt>
      <trkpt lat="43.23139" lon="1.36938">
        <ele>229</ele>
        <time>2017-10-07T11:57:12Z</time>
      </trkpt>
      <trkpt lat="43.23142" lon="1.36948">
        <ele>228</ele>
        <time>2017-10-07T11:57:13Z</time>
      </trkpt>
      <trkpt lat="43.23144" lon="1.36958">
        <ele>228</ele>
        <time>2017-10-07T11:57:14Z</time>
      </trkpt>
      <trkpt lat="43.23146" lon="1.36968">
        <ele>228</ele>
        <time>2017-10-07T11:57:15Z</time>
      </trkpt>
      <trkpt lat="43.23148" lon="1.36978">
        <ele>227</ele>
        <time>2017-10-07T11:57:16Z</time>
      </trkpt>
      <trkpt lat="43.23157" lon="1.37014">
        <ele>227</ele>
        <time>2017-10-07T11:57:20Z</time>
      </trkpt>
      <trkpt lat="43.23161" lon="1.37031">
        <ele>227</ele>
        <time>2017-10-07T11:57:22Z</time>
      </trkpt>
      <trkpt lat="43.23173" lon="1.37088">
        <ele>227</ele>
        <time>2017-10-07T11:57:29Z</time>
      </trkpt>
      <trkpt lat="43.23174" lon="1.37095">
        <ele>226</ele>
        <time>2017-10-07T11:57:30Z</time>
      </trkpt>
      <trkpt lat="43.23175" lon="1.37102">
        <ele>226</ele>
        <time>2017-10-07T11:57:31Z</time>
      </trkpt>
      <trkpt lat="43.23175" lon="1.37107">
        <ele>225</ele>
        <time>2017-10-07T11:57:32Z</time>
      </trkpt>
      <trkpt lat="43.23173" lon="1.37112">
        <ele>225</ele>
        <time>2017-10-07T11:57:33Z</time>
      </trkpt>
      <trkpt lat="43.2317" lon="1.37116">
        <ele>225</ele>
        <time>2017-10-07T11:57:34Z</time>
      </trkpt>
      <trkpt lat="43.23157" lon="1.37117">
        <ele>225</ele>
        <time>2017-10-07T11:57:37Z</time>
      </trkpt>
      <trkpt lat="43.23152" lon="1.37117">
        <ele>225</ele>
        <time>2017-10-07T11:57:38Z</time>
      </trkpt>
      <trkpt lat="43.23132" lon="1.3712">
        <ele>225</ele>
        <time>2017-10-07T11:57:42Z</time>
      </trkpt>
      <trkpt lat="43.23126" lon="1.37121">
        <ele>224</ele>
        <time>2017-10-07T11:57:43Z</time>
      </trkpt>
      <trkpt lat="43.23121" lon="1.37122">
        <ele>224</ele>
        <time>2017-10-07T11:57:44Z</time>
      </trkpt>
      <trkpt lat="43.23116" lon="1.37123">
        <ele>223</ele>
        <time>2017-10-07T11:57:45Z</time>
      </trkpt>
      <trkpt lat="43.2311" lon="1.37124">
        <ele>223</ele>
        <time>2017-10-07T11:57:46Z</time>
      </trkpt>
      <trkpt lat="43.23093" lon="1.37126">
        <ele>223</ele>
        <time>2017-10-07T11:57:49Z</time>
      </trkpt>
      <trkpt lat="43.23063" lon="1.37132">
        <ele>223</ele>
        <time>2017-10-07T11:57:54Z</time>
      </trkpt>
      <trkpt lat="43.23053" lon="1.37132">
        <ele>223</ele>
        <time>2017-10-07T11:57:56Z</time>
      </trkpt>
      <trkpt lat="43.23046" lon="1.37129">
        <ele>223</ele>
        <time>2017-10-07T11:57:59Z</time>
      </trkpt>
      <trkpt lat="43.23044" lon="1.37129">
        <ele>223</ele>
        <time>2017-10-07T11:58:00Z</time>
      </trkpt>
      <trkpt lat="43.23042" lon="1.37136">
        <ele>223</ele>
        <time>2017-10-07T11:58:02Z</time>
      </trkpt>
      <trkpt lat="43.23035" lon="1.3714">
        <ele>223</ele>
        <time>2017-10-07T11:58:05Z</time>
      </trkpt>
      <trkpt lat="43.23029" lon="1.37143">
        <ele>223</ele>
        <time>2017-10-07T11:58:07Z</time>
      </trkpt>
      <trkpt lat="43.23021" lon="1.37146">
        <ele>223</ele>
        <time>2017-10-07T11:58:09Z</time>
      </trkpt>
      <trkpt lat="43.23017" lon="1.37148">
        <ele>223</ele>
        <time>2017-10-07T11:58:10Z</time>
      </trkpt>
      <trkpt lat="43.23006" lon="1.37151">
        <ele>223</ele>
        <time>2017-10-07T11:58:13Z</time>
      </trkpt>
      <trkpt lat="43.22995" lon="1.37156">
        <ele>223</ele>
        <time>2017-10-07T11:58:16Z</time>
      </trkpt>
      <trkpt lat="43.22972" lon="1.37165">
        <ele>223</ele>
        <time>2017-10-07T11:58:22Z</time>
      </trkpt>
      <trkpt lat="43.2296" lon="1.37172">
        <ele>223</ele>
        <time>2017-10-07T11:58:25Z</time>
      </trkpt>
      <trkpt lat="43.22954" lon="1.37178">
        <ele>223</ele>
        <time>2017-10-07T11:58:27Z</time>
      </trkpt>
      <trkpt lat="43.22934" lon="1.37194">
        <ele>223</ele>
        <time>2017-10-07T11:58:32Z</time>
      </trkpt>
      <trkpt lat="43.2293" lon="1.37198">
        <ele>222</ele>
        <time>2017-10-07T11:58:33Z</time>
      </trkpt>
      <trkpt lat="43.22927" lon="1.37202">
        <ele>221</ele>
        <time>2017-10-07T11:58:34Z</time>
      </trkpt>
      <trkpt lat="43.22923" lon="1.37204">
        <ele>221</ele>
        <time>2017-10-07T11:58:35Z</time>
      </trkpt>
      <trkpt lat="43.22919" lon="1.37205">
        <ele>220</ele>
        <time>2017-10-07T11:58:36Z</time>
      </trkpt>
      <trkpt lat="43.22916" lon="1.37208">
        <ele>220</ele>
        <time>2017-10-07T11:58:37Z</time>
      </trkpt>
      <trkpt lat="43.22912" lon="1.37211">
        <ele>219</ele>
        <time>2017-10-07T11:58:38Z</time>
      </trkpt>
      <trkpt lat="43.22908" lon="1.37215">
        <ele>218</ele>
        <time>2017-10-07T11:58:39Z</time>
      </trkpt>
      <trkpt lat="43.22905" lon="1.37218">
        <ele>218</ele>
        <time>2017-10-07T11:58:40Z</time>
      </trkpt>
      <trkpt lat="43.22893" lon="1.37223">
        <ele>218</ele>
        <time>2017-10-07T11:58:44Z</time>
      </trkpt>
      <trkpt lat="43.22872" lon="1.37228">
        <ele>218</ele>
        <time>2017-10-07T11:58:50Z</time>
      </trkpt>
      <trkpt lat="43.22858" lon="1.37233">
        <ele>218</ele>
        <time>2017-10-07T11:58:55Z</time>
      </trkpt>
      <trkpt lat="43.22855" lon="1.37233">
        <ele>218</ele>
        <time>2017-10-07T11:58:56Z</time>
      </trkpt>
      <trkpt lat="43.22848" lon="1.37236">
        <ele>218</ele>
        <time>2017-10-07T11:58:59Z</time>
      </trkpt>
      <trkpt lat="43.22845" lon="1.37237">
        <ele>219</ele>
        <time>2017-10-07T11:59:00Z</time>
      </trkpt>
      <trkpt lat="43.22842" lon="1.37238">
        <ele>219</ele>
        <time>2017-10-07T11:59:01Z</time>
      </trkpt>
      <trkpt lat="43.22839" lon="1.37238">
        <ele>220</ele>
        <time>2017-10-07T11:59:02Z</time>
      </trkpt>
      <trkpt lat="43.22836" lon="1.37239">
        <ele>220</ele>
        <time>2017-10-07T11:59:03Z</time>
      </trkpt>
      <trkpt lat="43.22833" lon="1.37239">
        <ele>221</ele>
        <time>2017-10-07T11:59:04Z</time>
      </trkpt>
      <trkpt lat="43.22818" lon="1.37234">
        <ele>221</ele>
        <time>2017-10-07T11:59:09Z</time>
      </trkpt>
      <trkpt lat="43.22797" lon="1.37221">
        <ele>221</ele>
        <time>2017-10-07T11:59:16Z</time>
      </trkpt>
      <trkpt lat="43.22791" lon="1.37217">
        <ele>221</ele>
        <time>2017-10-07T11:59:18Z</time>
      </trkpt>
      <trkpt lat="43.22788" lon="1.37216">
        <ele>221</ele>
        <time>2017-10-07T11:59:19Z</time>
      </trkpt>
      <trkpt lat="43.22784" lon="1.37215">
        <ele>222</ele>
        <time>2017-10-07T11:59:20Z</time>
      </trkpt>
      <trkpt lat="43.22781" lon="1.37215">
        <ele>222</ele>
        <time>2017-10-07T11:59:21Z</time>
      </trkpt>
      <trkpt lat="43.22778" lon="1.37214">
        <ele>223</ele>
        <time>2017-10-07T11:59:22Z</time>
      </trkpt>
      <trkpt lat="43.22775" lon="1.37213">
        <ele>223</ele>
        <time>2017-10-07T11:59:23Z</time>
      </trkpt>
      <trkpt lat="43.22757" lon="1.37202">
        <ele>223</ele>
        <time>2017-10-07T11:59:29Z</time>
      </trkpt>
      <trkpt lat="43.22754" lon="1.37199">
        <ele>223</ele>
        <time>2017-10-07T11:59:30Z</time>
      </trkpt>
      <trkpt lat="43.22752" lon="1.37196">
        <ele>223</ele>
        <time>2017-10-07T11:59:31Z</time>
      </trkpt>
      <trkpt lat="43.2275" lon="1.37193">
        <ele>224</ele>
        <time>2017-10-07T11:59:32Z</time>
      </trkpt>
      <trkpt lat="43.22747" lon="1.3719">
        <ele>224</ele>
        <time>2017-10-07T11:59:33Z</time>
      </trkpt>
      <trkpt lat="43.22745" lon="1.37188">
        <ele>225</ele>
        <time>2017-10-07T11:59:34Z</time>
      </trkpt>
      <trkpt lat="43.22742" lon="1.37185">
        <ele>225</ele>
        <time>2017-10-07T11:59:35Z</time>
      </trkpt>
      <trkpt lat="43.22726" lon="1.3717">
        <ele>225</ele>
        <time>2017-10-07T11:59:41Z</time>
      </trkpt>
      <trkpt lat="43.22717" lon="1.37163">
        <ele>225</ele>
        <time>2017-10-07T11:59:44Z</time>
      </trkpt>
      <trkpt lat="43.22714" lon="1.3716">
        <ele>226</ele>
        <time>2017-10-07T11:59:45Z</time>
      </trkpt>
      <trkpt lat="43.22711" lon="1.37158">
        <ele>226</ele>
        <time>2017-10-07T11:59:46Z</time>
      </trkpt>
      <trkpt lat="43.22708" lon="1.37156">
        <ele>226</ele>
        <time>2017-10-07T11:59:47Z</time>
      </trkpt>
      <trkpt lat="43.22705" lon="1.37153">
        <ele>227</ele>
        <time>2017-10-07T11:59:48Z</time>
      </trkpt>
      <trkpt lat="43.22685" lon="1.37136">
        <ele>227</ele>
        <time>2017-10-07T11:59:55Z</time>
      </trkpt>
      <trkpt lat="43.22683" lon="1.37133">
        <ele>228</ele>
        <time>2017-10-07T11:59:56Z</time>
      </trkpt>
      <trkpt lat="43.2268" lon="1.37131">
        <ele>228</ele>
        <time>2017-10-07T11:59:57Z</time>
      </trkpt>
      <trkpt lat="43.22677" lon="1.37129">
        <ele>229</ele>
        <time>2017-10-07T11:59:58Z</time>
      </trkpt>
      <trkpt lat="43.22674" lon="1.37126">
        <ele>229</ele>
        <time>2017-10-07T11:59:59Z</time>
      </trkpt>
      <trkpt lat="43.22663" lon="1.37116">
        <ele>229</ele>
        <time>2017-10-07T12:00:03Z</time>
      </trkpt>
      <trkpt lat="43.22642" lon="1.37103">
        <ele>229</ele>
        <time>2017-10-07T12:00:10Z</time>
      </trkpt>
      <trkpt lat="43.22638" lon="1.37103">
        <ele>230</ele>
        <time>2017-10-07T12:00:11Z</time>
      </trkpt>
      <trkpt lat="43.22635" lon="1.37103">
        <ele>230</ele>
        <time>2017-10-07T12:00:12Z</time>
      </trkpt>
      <trkpt lat="43.22632" lon="1.37105">
        <ele>231</ele>
        <time>2017-10-07T12:00:13Z</time>
      </trkpt>
      <trkpt lat="43.22629" lon="1.37107">
        <ele>231</ele>
        <time>2017-10-07T12:00:14Z</time>
      </trkpt>
      <trkpt lat="43.22612" lon="1.37123">
        <ele>231</ele>
        <time>2017-10-07T12:00:20Z</time>
      </trkpt>
      <trkpt lat="43.22588" lon="1.37141">
        <ele>231</ele>
        <time>2017-10-07T12:00:27Z</time>
      </trkpt>
      <trkpt lat="43.22575" lon="1.37151">
        <ele>231</ele>
        <time>2017-10-07T12:00:31Z</time>
      </trkpt>
      <trkpt lat="43.22565" lon="1.37159">
        <ele>231</ele>
        <time>2017-10-07T12:00:34Z</time>
      </trkpt>
      <trkpt lat="43.22544" lon="1.37177">
        <ele>231</ele>
        <time>2017-10-07T12:00:40Z</time>
      </trkpt>
      <trkpt lat="43.22539" lon="1.37179">
        <ele>231</ele>
        <time>2017-10-07T12:00:41Z</time>
      </trkpt>
      <trkpt lat="43.22517" lon="1.37185">
        <ele>231</ele>
        <time>2017-10-07T12:00:46Z</time>
      </trkpt>
      <trkpt lat="43.22513" lon="1.37187">
        <ele>231</ele>
        <time>2017-10-07T12:00:47Z</time>
      </trkpt>
      <trkpt lat="43.22497" lon="1.37191">
        <ele>231</ele>
        <time>2017-10-07T12:00:51Z</time>
      </trkpt>
      <trkpt lat="43.22493" lon="1.37193">
        <ele>232</ele>
        <time>2017-10-07T12:00:52Z</time>
      </trkpt>
      <trkpt lat="43.22489" lon="1.37194">
        <ele>232</ele>
        <time>2017-10-07T12:00:53Z</time>
      </trkpt>
      <trkpt lat="43.22485" lon="1.37195">
        <ele>233</ele>
        <time>2017-10-07T12:00:54Z</time>
      </trkpt>
      <trkpt lat="43.22482" lon="1.37196">
        <ele>233</ele>
        <time>2017-10-07T12:00:55Z</time>
      </trkpt>
      <trkpt lat="43.22462" lon="1.372">
        <ele>233</ele>
        <time>2017-10-07T12:01:00Z</time>
      </trkpt>
      <trkpt lat="43.22453" lon="1.37202">
        <ele>233</ele>
        <time>2017-10-07T12:01:02Z</time>
      </trkpt>
      <trkpt lat="43.22428" lon="1.37209">
        <ele>233</ele>
        <time>2017-10-07T12:01:08Z</time>
      </trkpt>
      <trkpt lat="43.22424" lon="1.3721">
        <ele>233</ele>
        <time>2017-10-07T12:01:09Z</time>
      </trkpt>
      <trkpt lat="43.2241" lon="1.37214">
        <ele>233</ele>
        <time>2017-10-07T12:01:13Z</time>
      </trkpt>
      <trkpt lat="43.22406" lon="1.37214">
        <ele>233</ele>
        <time>2017-10-07T12:01:14Z</time>
      </trkpt>
      <trkpt lat="43.2239" lon="1.37217">
        <ele>233</ele>
        <time>2017-10-07T12:01:20Z</time>
      </trkpt>
      <trkpt lat="43.2239" lon="1.37217">
        <ele>233</ele>
        <time>2017-10-07T12:01:22Z</time>
      </trkpt>
      <trkpt lat="43.22388" lon="1.37218">
        <ele>233</ele>
        <time>2017-10-07T12:05:57Z</time>
      </trkpt>
      <trkpt lat="43.22388" lon="1.37219">
        <ele>233</ele>
        <time>2017-10-07T12:05:58Z</time>
      </trkpt>
      <trkpt lat="43.22391" lon="1.37218">
        <ele>233</ele>
        <time>2017-10-07T12:06:02Z</time>
      </trkpt>
      <trkpt lat="43.22391" lon="1.37218">
        <ele>233</ele>
        <time>2017-10-07T12:06:03Z</time>
      </trkpt>
      <trkpt lat="43.22393" lon="1.37218">
        <ele>233</ele>
        <time>2017-10-07T12:06:58Z</time>
      </trkpt>
      <trkpt lat="43.22393" lon="1.37217">
        <ele>233</ele>
        <time>2017-10-07T12:06:59Z</time>
      </trkpt>
      <trkpt lat="43.22393" lon="1.37217">
        <ele>233</ele>
        <time>2017-10-07T12:07:00Z</time>
      </trkpt>
      <trkpt lat="43.22392" lon="1.37218">
        <ele>233</ele>
        <time>2017-10-07T12:07:27Z</time>
      </trkpt>
      <trkpt lat="43.22389" lon="1.37218">
        <ele>233</ele>
        <time>2017-10-07T12:07:30Z</time>
      </trkpt>
      <trkpt lat="43.22383" lon="1.37221">
        <ele>233</ele>
        <time>2017-10-07T12:07:33Z</time>
      </trkpt>
      <trkpt lat="43.22376" lon="1.37221">
        <ele>233</ele>
        <time>2017-10-07T12:07:36Z</time>
      </trkpt>
      <trkpt lat="43.22359" lon="1.37225">
        <ele>233</ele>
        <time>2017-10-07T12:07:42Z</time>
      </trkpt>
      <trkpt lat="43.2234" lon="1.3723">
        <ele>233</ele>
        <time>2017-10-07T12:07:48Z</time>
      </trkpt>
      <trkpt lat="43.22325" lon="1.37234">
        <ele>233</ele>
        <time>2017-10-07T12:07:53Z</time>
      </trkpt>
      <trkpt lat="43.22302" lon="1.37239">
        <ele>233</ele>
        <time>2017-10-07T12:07:59Z</time>
      </trkpt>
      <trkpt lat="43.22282" lon="1.37244">
        <ele>233</ele>
        <time>2017-10-07T12:08:05Z</time>
      </trkpt>
      <trkpt lat="43.22257" lon="1.37249">
        <ele>233</ele>
        <time>2017-10-07T12:08:11Z</time>
      </trkpt>
      <trkpt lat="43.22249" lon="1.37251">
        <ele>233</ele>
        <time>2017-10-07T12:08:13Z</time>
      </trkpt>
      <trkpt lat="43.2222" lon="1.37258">
        <ele>234</ele>
        <time>2017-10-07T12:08:20Z</time>
      </trkpt>
      <trkpt lat="43.22216" lon="1.37259">
        <ele>234</ele>
        <time>2017-10-07T12:08:21Z</time>
      </trkpt>
      <trkpt lat="43.22211" lon="1.3726">
        <ele>234</ele>
        <time>2017-10-07T12:08:22Z</time>
      </trkpt>
      <trkpt lat="43.22207" lon="1.37261">
        <ele>235</ele>
        <time>2017-10-07T12:08:23Z</time>
      </trkpt>
      <trkpt lat="43.22203" lon="1.37262">
        <ele>235</ele>
        <time>2017-10-07T12:08:24Z</time>
      </trkpt>
      <trkpt lat="43.2219" lon="1.37264">
        <ele>235</ele>
        <time>2017-10-07T12:08:27Z</time>
      </trkpt>
      <trkpt lat="43.22182" lon="1.37266">
        <ele>235</ele>
        <time>2017-10-07T12:08:29Z</time>
      </trkpt>
      <trkpt lat="43.22169" lon="1.37269">
        <ele>235</ele>
        <time>2017-10-07T12:08:32Z</time>
      </trkpt>
      <trkpt lat="43.22165" lon="1.3727">
        <ele>235</ele>
        <time>2017-10-07T12:08:33Z</time>
      </trkpt>
      <trkpt lat="43.22153" lon="1.37273">
        <ele>235</ele>
        <time>2017-10-07T12:08:36Z</time>
      </trkpt>
      <trkpt lat="43.22113" lon="1.37282">
        <ele>235</ele>
        <time>2017-10-07T12:08:45Z</time>
      </trkpt>
      <trkpt lat="43.22094" lon="1.37286">
        <ele>235</ele>
        <time>2017-10-07T12:08:49Z</time>
      </trkpt>
      <trkpt lat="43.22085" lon="1.37288">
        <ele>235</ele>
        <time>2017-10-07T12:08:51Z</time>
      </trkpt>
      <trkpt lat="43.22075" lon="1.3729">
        <ele>235</ele>
        <time>2017-10-07T12:08:53Z</time>
      </trkpt>
      <trkpt lat="43.22042" lon="1.37296">
        <ele>235</ele>
        <time>2017-10-07T12:09:00Z</time>
      </trkpt>
      <trkpt lat="43.21996" lon="1.37306">
        <ele>235</ele>
        <time>2017-10-07T12:09:10Z</time>
      </trkpt>
      <trkpt lat="43.21965" lon="1.37313">
        <ele>236</ele>
        <time>2017-10-07T12:09:17Z</time>
      </trkpt>
      <trkpt lat="43.2196" lon="1.37314">
        <ele>236</ele>
        <time>2017-10-07T12:09:18Z</time>
      </trkpt>
      <trkpt lat="43.21956" lon="1.37315">
        <ele>236</ele>
        <time>2017-10-07T12:09:19Z</time>
      </trkpt>
      <trkpt lat="43.21951" lon="1.37315">
        <ele>237</ele>
        <time>2017-10-07T12:09:20Z</time>
      </trkpt>
      <trkpt lat="43.21947" lon="1.37317">
        <ele>237</ele>
        <time>2017-10-07T12:09:21Z</time>
      </trkpt>
      <trkpt lat="43.21925" lon="1.3732">
        <ele>237</ele>
        <time>2017-10-07T12:09:26Z</time>
      </trkpt>
      <trkpt lat="43.21889" lon="1.37326">
        <ele>237</ele>
        <time>2017-10-07T12:09:34Z</time>
      </trkpt>
      <trkpt lat="43.21848" lon="1.37332">
        <ele>237</ele>
        <time>2017-10-07T12:09:43Z</time>
      </trkpt>
      <trkpt lat="43.218" lon="1.37343">
        <ele>238</ele>
        <time>2017-10-07T12:09:54Z</time>
      </trkpt>
      <trkpt lat="43.21796" lon="1.37344">
        <ele>238</ele>
        <time>2017-10-07T12:09:55Z</time>
      </trkpt>
      <trkpt lat="43.21792" lon="1.37345">
        <ele>238</ele>
        <time>2017-10-07T12:09:56Z</time>
      </trkpt>
      <trkpt lat="43.21788" lon="1.37347">
        <ele>239</ele>
        <time>2017-10-07T12:09:57Z</time>
      </trkpt>
      <trkpt lat="43.21784" lon="1.37347">
        <ele>239</ele>
        <time>2017-10-07T12:09:58Z</time>
      </trkpt>
      <trkpt lat="43.21768" lon="1.37351">
        <ele>239</ele>
        <time>2017-10-07T12:10:02Z</time>
      </trkpt>
      <trkpt lat="43.21749" lon="1.37355">
        <ele>240</ele>
        <time>2017-10-07T12:10:08Z</time>
      </trkpt>
      <trkpt lat="43.21746" lon="1.37356">
        <ele>240</ele>
        <time>2017-10-07T12:10:09Z</time>
      </trkpt>
      <trkpt lat="43.21744" lon="1.37356">
        <ele>240</ele>
        <time>2017-10-07T12:10:10Z</time>
      </trkpt>
      <trkpt lat="43.21741" lon="1.37357">
        <ele>241</ele>
        <time>2017-10-07T12:10:11Z</time>
      </trkpt>
      <trkpt lat="43.21737" lon="1.37357">
        <ele>241</ele>
        <time>2017-10-07T12:10:12Z</time>
      </trkpt>
      <trkpt lat="43.21726" lon="1.3736">
        <ele>241</ele>
        <time>2017-10-07T12:10:15Z</time>
      </trkpt>
      <trkpt lat="43.21697" lon="1.37367">
        <ele>241</ele>
        <time>2017-10-07T12:10:22Z</time>
      </trkpt>
      <trkpt lat="43.21688" lon="1.37367">
        <ele>241</ele>
        <time>2017-10-07T12:10:24Z</time>
      </trkpt>
      <trkpt lat="43.21672" lon="1.37369">
        <ele>241</ele>
        <time>2017-10-07T12:10:28Z</time>
      </trkpt>
      <trkpt lat="43.21657" lon="1.37371">
        <ele>241</ele>
        <time>2017-10-07T12:10:32Z</time>
      </trkpt>
      <trkpt lat="43.21649" lon="1.37371">
        <ele>241</ele>
        <time>2017-10-07T12:10:34Z</time>
      </trkpt>
      <trkpt lat="43.21626" lon="1.37376">
        <ele>241</ele>
        <time>2017-10-07T12:10:40Z</time>
      </trkpt>
      <trkpt lat="43.21602" lon="1.37375">
        <ele>241</ele>
        <time>2017-10-07T12:10:46Z</time>
      </trkpt>
      <trkpt lat="43.21572" lon="1.37372">
        <ele>241</ele>
        <time>2017-10-07T12:10:53Z</time>
      </trkpt>
      <trkpt lat="43.21544" lon="1.37371">
        <ele>241</ele>
        <time>2017-10-07T12:10:59Z</time>
      </trkpt>
      <trkpt lat="43.2151" lon="1.37372">
        <ele>241</ele>
        <time>2017-10-07T12:11:06Z</time>
      </trkpt>
      <trkpt lat="43.21487" lon="1.37374">
        <ele>241</ele>
        <time>2017-10-07T12:11:11Z</time>
      </trkpt>
      <trkpt lat="43.21477" lon="1.37372">
        <ele>241</ele>
        <time>2017-10-07T12:11:13Z</time>
      </trkpt>
      <trkpt lat="43.21465" lon="1.37371">
        <ele>241</ele>
        <time>2017-10-07T12:11:16Z</time>
      </trkpt>
      <trkpt lat="43.21459" lon="1.37373">
        <ele>241</ele>
        <time>2017-10-07T12:11:18Z</time>
      </trkpt>
      <trkpt lat="43.21449" lon="1.3737">
        <ele>241</ele>
        <time>2017-10-07T12:11:21Z</time>
      </trkpt>
      <trkpt lat="43.21443" lon="1.37367">
        <ele>241</ele>
        <time>2017-10-07T12:11:23Z</time>
      </trkpt>
      <trkpt lat="43.21423" lon="1.37364">
        <ele>241</ele>
        <time>2017-10-07T12:11:28Z</time>
      </trkpt>
      <trkpt lat="43.214" lon="1.37358">
        <ele>241</ele>
        <time>2017-10-07T12:11:33Z</time>
      </trkpt>
      <trkpt lat="43.21389" lon="1.37357">
        <ele>241</ele>
        <time>2017-10-07T12:11:35Z</time>
      </trkpt>
      <trkpt lat="43.21373" lon="1.37356">
        <ele>241</ele>
        <time>2017-10-07T12:11:38Z</time>
      </trkpt>
      <trkpt lat="43.21368" lon="1.37354">
        <ele>240</ele>
        <time>2017-10-07T12:11:39Z</time>
      </trkpt>
      <trkpt lat="43.21362" lon="1.37352">
        <ele>240</ele>
        <time>2017-10-07T12:11:40Z</time>
      </trkpt>
      <trkpt lat="43.21357" lon="1.3735">
        <ele>239</ele>
        <time>2017-10-07T12:11:41Z</time>
      </trkpt>
      <trkpt lat="43.21351" lon="1.37348">
        <ele>239</ele>
        <time>2017-10-07T12:11:42Z</time>
      </trkpt>
      <trkpt lat="43.21341" lon="1.37344">
        <ele>238</ele>
        <time>2017-10-07T12:11:44Z</time>
      </trkpt>
      <trkpt lat="43.21335" lon="1.37343">
        <ele>238</ele>
        <time>2017-10-07T12:11:45Z</time>
      </trkpt>
      <trkpt lat="43.21331" lon="1.37344">
        <ele>237</ele>
        <time>2017-10-07T12:11:46Z</time>
      </trkpt>
      <trkpt lat="43.21328" lon="1.37347">
        <ele>237</ele>
        <time>2017-10-07T12:11:47Z</time>
      </trkpt>
      <trkpt lat="43.21326" lon="1.37348">
        <ele>237</ele>
        <time>2017-10-07T12:11:48Z</time>
      </trkpt>
      <trkpt lat="43.21311" lon="1.37351">
        <ele>237</ele>
        <time>2017-10-07T12:11:53Z</time>
      </trkpt>
      <trkpt lat="43.21306" lon="1.37352">
        <ele>236</ele>
        <time>2017-10-07T12:11:54Z</time>
      </trkpt>
      <trkpt lat="43.213" lon="1.37353">
        <ele>236</ele>
        <time>2017-10-07T12:11:55Z</time>
      </trkpt>
      <trkpt lat="43.21296" lon="1.37354">
        <ele>235</ele>
        <time>2017-10-07T12:11:56Z</time>
      </trkpt>
      <trkpt lat="43.21291" lon="1.37355">
        <ele>235</ele>
        <time>2017-10-07T12:11:57Z</time>
      </trkpt>
      <trkpt lat="43.21285" lon="1.37356">
        <ele>235</ele>
        <time>2017-10-07T12:11:58Z</time>
      </trkpt>
      <trkpt lat="43.21279" lon="1.37362">
        <ele>235</ele>
        <time>2017-10-07T12:11:59Z</time>
      </trkpt>
      <trkpt lat="43.21261" lon="1.37376">
        <ele>235</ele>
        <time>2017-10-07T12:12:02Z</time>
      </trkpt>
      <trkpt lat="43.21228" lon="1.37394">
        <ele>234</ele>
        <time>2017-10-07T12:12:07Z</time>
      </trkpt>
      <trkpt lat="43.21221" lon="1.37396">
        <ele>234</ele>
        <time>2017-10-07T12:12:08Z</time>
      </trkpt>
      <trkpt lat="43.21215" lon="1.37398">
        <ele>233</ele>
        <time>2017-10-07T12:12:09Z</time>
      </trkpt>
      <trkpt lat="43.21209" lon="1.37399">
        <ele>233</ele>
        <time>2017-10-07T12:12:10Z</time>
      </trkpt>
      <trkpt lat="43.21198" lon="1.374">
        <ele>233</ele>
        <time>2017-10-07T12:12:12Z</time>
      </trkpt>
      <trkpt lat="43.21163" lon="1.37405">
        <ele>233</ele>
        <time>2017-10-07T12:12:17Z</time>
      </trkpt>
      <trkpt lat="43.21135" lon="1.37405">
        <ele>232</ele>
        <time>2017-10-07T12:12:21Z</time>
      </trkpt>
      <trkpt lat="43.21128" lon="1.37405">
        <ele>232</ele>
        <time>2017-10-07T12:12:22Z</time>
      </trkpt>
      <trkpt lat="43.21121" lon="1.37404">
        <ele>231</ele>
        <time>2017-10-07T12:12:23Z</time>
      </trkpt>
      <trkpt lat="43.21114" lon="1.37404">
        <ele>231</ele>
        <time>2017-10-07T12:12:24Z</time>
      </trkpt>
      <trkpt lat="43.21107" lon="1.37403">
        <ele>230</ele>
        <time>2017-10-07T12:12:25Z</time>
      </trkpt>
      <trkpt lat="43.21081" lon="1.37404">
        <ele>230</ele>
        <time>2017-10-07T12:12:29Z</time>
      </trkpt>
      <trkpt lat="43.21068" lon="1.37405">
        <ele>230</ele>
        <time>2017-10-07T12:12:31Z</time>
      </trkpt>
      <trkpt lat="43.21061" lon="1.37406">
        <ele>230</ele>
        <time>2017-10-07T12:12:32Z</time>
      </trkpt>
      <trkpt lat="43.21054" lon="1.37407">
        <ele>229</ele>
        <time>2017-10-07T12:12:33Z</time>
      </trkpt>
      <trkpt lat="43.21047" lon="1.37408">
        <ele>228</ele>
        <time>2017-10-07T12:12:34Z</time>
      </trkpt>
      <trkpt lat="43.21041" lon="1.3741">
        <ele>228</ele>
        <time>2017-10-07T12:12:35Z</time>
      </trkpt>
      <trkpt lat="43.21013" lon="1.37412">
        <ele>228</ele>
        <time>2017-10-07T12:12:39Z</time>
      </trkpt>
      <trkpt lat="43.21006" lon="1.3741">
        <ele>228</ele>
        <time>2017-10-07T12:12:40Z</time>
      </trkpt>
      <trkpt lat="43.20983" lon="1.37398">
        <ele>228</ele>
        <time>2017-10-07T12:12:44Z</time>
      </trkpt>
      <trkpt lat="43.20978" lon="1.37397">
        <ele>228</ele>
        <time>2017-10-07T12:12:45Z</time>
      </trkpt>
      <trkpt lat="43.20967" lon="1.37395">
        <ele>228</ele>
        <time>2017-10-07T12:12:47Z</time>
      </trkpt>
      <trkpt lat="43.20955" lon="1.37394">
        <ele>228</ele>
        <time>2017-10-07T12:12:49Z</time>
      </trkpt>
      <trkpt lat="43.20945" lon="1.37394">
        <ele>228</ele>
        <time>2017-10-07T12:12:51Z</time>
      </trkpt>
      <trkpt lat="43.2094" lon="1.37394">
        <ele>228</ele>
        <time>2017-10-07T12:12:52Z</time>
      </trkpt>
      <trkpt lat="43.2093" lon="1.37395">
        <ele>229</ele>
        <time>2017-10-07T12:12:54Z</time>
      </trkpt>
      <trkpt lat="43.20925" lon="1.37394">
        <ele>229</ele>
        <time>2017-10-07T12:12:55Z</time>
      </trkpt>
      <trkpt lat="43.20921" lon="1.37394">
        <ele>230</ele>
        <time>2017-10-07T12:12:56Z</time>
      </trkpt>
      <trkpt lat="43.20916" lon="1.37394">
        <ele>230</ele>
        <time>2017-10-07T12:12:57Z</time>
      </trkpt>
      <trkpt lat="43.20912" lon="1.37393">
        <ele>230</ele>
        <time>2017-10-07T12:12:58Z</time>
      </trkpt>
      <trkpt lat="43.20907" lon="1.37393">
        <ele>231</ele>
        <time>2017-10-07T12:12:59Z</time>
      </trkpt>
      <trkpt lat="43.20903" lon="1.37392">
        <ele>231</ele>
        <time>2017-10-07T12:13:00Z</time>
      </trkpt>
      <trkpt lat="43.20899" lon="1.37392">
        <ele>232</ele>
        <time>2017-10-07T12:13:01Z</time>
      </trkpt>
      <trkpt lat="43.20896" lon="1.37391">
        <ele>232</ele>
        <time>2017-10-07T12:13:02Z</time>
      </trkpt>
      <trkpt lat="43.20892" lon="1.37391">
        <ele>233</ele>
        <time>2017-10-07T12:13:03Z</time>
      </trkpt>
      <trkpt lat="43.20868" lon="1.3739">
        <ele>233</ele>
        <time>2017-10-07T12:13:09Z</time>
      </trkpt>
      <trkpt lat="43.20864" lon="1.37391">
        <ele>233</ele>
        <time>2017-10-07T12:13:10Z</time>
      </trkpt>
      <trkpt lat="43.20848" lon="1.37404">
        <ele>233</ele>
        <time>2017-10-07T12:13:15Z</time>
      </trkpt>
      <trkpt lat="43.20838" lon="1.37428">
        <ele>233</ele>
        <time>2017-10-07T12:13:19Z</time>
      </trkpt>
      <trkpt lat="43.20819" lon="1.37464">
        <ele>233</ele>
        <time>2017-10-07T12:13:25Z</time>
      </trkpt>
      <trkpt lat="43.20816" lon="1.3747">
        <ele>233</ele>
        <time>2017-10-07T12:13:26Z</time>
      </trkpt>
      <trkpt lat="43.20812" lon="1.37477">
        <ele>233</ele>
        <time>2017-10-07T12:13:27Z</time>
      </trkpt>
      <trkpt lat="43.20809" lon="1.37483">
        <ele>232</ele>
        <time>2017-10-07T12:13:28Z</time>
      </trkpt>
      <trkpt lat="43.20805" lon="1.3749">
        <ele>232</ele>
        <time>2017-10-07T12:13:29Z</time>
      </trkpt>
      <trkpt lat="43.20801" lon="1.37496">
        <ele>231</ele>
        <time>2017-10-07T12:13:30Z</time>
      </trkpt>
      <trkpt lat="43.20797" lon="1.37503">
        <ele>231</ele>
        <time>2017-10-07T12:13:31Z</time>
      </trkpt>
      <trkpt lat="43.20793" lon="1.3751">
        <ele>231</ele>
        <time>2017-10-07T12:13:32Z</time>
      </trkpt>
      <trkpt lat="43.20781" lon="1.37531">
        <ele>230</ele>
        <time>2017-10-07T12:13:35Z</time>
      </trkpt>
      <trkpt lat="43.20776" lon="1.37538">
        <ele>230</ele>
        <time>2017-10-07T12:13:36Z</time>
      </trkpt>
      <trkpt lat="43.20772" lon="1.37545">
        <ele>229</ele>
        <time>2017-10-07T12:13:37Z</time>
      </trkpt>
      <trkpt lat="43.20767" lon="1.37552">
        <ele>229</ele>
        <time>2017-10-07T12:13:38Z</time>
      </trkpt>
      <trkpt lat="43.20763" lon="1.3756">
        <ele>228</ele>
        <time>2017-10-07T12:13:39Z</time>
      </trkpt>
      <trkpt lat="43.20754" lon="1.37575">
        <ele>228</ele>
        <time>2017-10-07T12:13:41Z</time>
      </trkpt>
      <trkpt lat="43.20749" lon="1.37583">
        <ele>228</ele>
        <time>2017-10-07T12:13:42Z</time>
      </trkpt>
      <trkpt lat="43.20745" lon="1.3759">
        <ele>227</ele>
        <time>2017-10-07T12:13:43Z</time>
      </trkpt>
      <trkpt lat="43.20741" lon="1.37597">
        <ele>227</ele>
        <time>2017-10-07T12:13:44Z</time>
      </trkpt>
      <trkpt lat="43.20737" lon="1.37604">
        <ele>226</ele>
        <time>2017-10-07T12:13:45Z</time>
      </trkpt>
      <trkpt lat="43.20728" lon="1.37617">
        <ele>226</ele>
        <time>2017-10-07T12:13:47Z</time>
      </trkpt>
      <trkpt lat="43.20725" lon="1.37622">
        <ele>225</ele>
        <time>2017-10-07T12:13:48Z</time>
      </trkpt>
      <trkpt lat="43.20722" lon="1.37627">
        <ele>225</ele>
        <time>2017-10-07T12:13:49Z</time>
      </trkpt>
      <trkpt lat="43.20719" lon="1.3763">
        <ele>224</ele>
        <time>2017-10-07T12:13:50Z</time>
      </trkpt>
      <trkpt lat="43.20715" lon="1.3763">
        <ele>224</ele>
        <time>2017-10-07T12:13:51Z</time>
      </trkpt>
      <trkpt lat="43.20711" lon="1.37627">
        <ele>223</ele>
        <time>2017-10-07T12:13:52Z</time>
      </trkpt>
      <trkpt lat="43.20707" lon="1.37623">
        <ele>223</ele>
        <time>2017-10-07T12:13:53Z</time>
      </trkpt>
      <trkpt lat="43.20704" lon="1.37618">
        <ele>222</ele>
        <time>2017-10-07T12:13:54Z</time>
      </trkpt>
      <trkpt lat="43.20701" lon="1.37614">
        <ele>222</ele>
        <time>2017-10-07T12:13:55Z</time>
      </trkpt>
      <trkpt lat="43.20677" lon="1.3759">
        <ele>222</ele>
        <time>2017-10-07T12:14:01Z</time>
      </trkpt>
      <trkpt lat="43.20672" lon="1.37592">
        <ele>222</ele>
        <time>2017-10-07T12:14:02Z</time>
      </trkpt>
      <trkpt lat="43.20665" lon="1.37602">
        <ele>222</ele>
        <time>2017-10-07T12:14:04Z</time>
      </trkpt>
      <trkpt lat="43.20662" lon="1.37608">
        <ele>222</ele>
        <time>2017-10-07T12:14:05Z</time>
      </trkpt>
      <trkpt lat="43.20651" lon="1.37629">
        <ele>222</ele>
        <time>2017-10-07T12:14:09Z</time>
      </trkpt>
      <trkpt lat="43.20637" lon="1.37655">
        <ele>222</ele>
        <time>2017-10-07T12:14:14Z</time>
      </trkpt>
      <trkpt lat="43.20628" lon="1.37671">
        <ele>222</ele>
        <time>2017-10-07T12:14:17Z</time>
      </trkpt>
      <trkpt lat="43.20617" lon="1.37691">
        <ele>222</ele>
        <time>2017-10-07T12:14:22Z</time>
      </trkpt>
      <trkpt lat="43.20618" lon="1.37707">
        <ele>222</ele>
        <time>2017-10-07T12:14:26Z</time>
      </trkpt>
      <trkpt lat="43.20621" lon="1.37719">
        <ele>222</ele>
        <time>2017-10-07T12:14:28Z</time>
      </trkpt>
      <trkpt lat="43.2062" lon="1.3774">
        <ele>222</ele>
        <time>2017-10-07T12:14:31Z</time>
      </trkpt>
      <trkpt lat="43.20619" lon="1.37747">
        <ele>222</ele>
        <time>2017-10-07T12:14:32Z</time>
      </trkpt>
      <trkpt lat="43.20618" lon="1.37754">
        <ele>222</ele>
        <time>2017-10-07T12:14:33Z</time>
      </trkpt>
      <trkpt lat="43.20616" lon="1.37761">
        <ele>222</ele>
        <time>2017-10-07T12:14:34Z</time>
      </trkpt>
      <trkpt lat="43.2061" lon="1.37779">
        <ele>222</ele>
        <time>2017-10-07T12:14:37Z</time>
      </trkpt>
      <trkpt lat="43.20599" lon="1.37807">
        <ele>223</ele>
        <time>2017-10-07T12:14:42Z</time>
      </trkpt>
      <trkpt lat="43.20597" lon="1.37811">
        <ele>223</ele>
        <time>2017-10-07T12:14:43Z</time>
      </trkpt>
      <trkpt lat="43.20595" lon="1.37816">
        <ele>223</ele>
        <time>2017-10-07T12:14:44Z</time>
      </trkpt>
      <trkpt lat="43.20592" lon="1.3782">
        <ele>224</ele>
        <time>2017-10-07T12:14:45Z</time>
      </trkpt>
      <trkpt lat="43.2059" lon="1.37823">
        <ele>224</ele>
        <time>2017-10-07T12:14:46Z</time>
      </trkpt>
      <trkpt lat="43.20585" lon="1.37834">
        <ele>224</ele>
        <time>2017-10-07T12:14:49Z</time>
      </trkpt>
      <trkpt lat="43.20585" lon="1.37837">
        <ele>224</ele>
        <time>2017-10-07T12:14:50Z</time>
      </trkpt>
      <trkpt lat="43.20588" lon="1.37843">
        <ele>224</ele>
        <time>2017-10-07T12:14:52Z</time>
      </trkpt>
      <trkpt lat="43.20616" lon="1.37871">
        <ele>224</ele>
        <time>2017-10-07T12:14:58Z</time>
      </trkpt>
      <trkpt lat="43.20621" lon="1.37876">
        <ele>223</ele>
        <time>2017-10-07T12:14:59Z</time>
      </trkpt>
      <trkpt lat="43.20626" lon="1.37881">
        <ele>223</ele>
        <time>2017-10-07T12:15:00Z</time>
      </trkpt>
      <trkpt lat="43.2063" lon="1.37885">
        <ele>222</ele>
        <time>2017-10-07T12:15:01Z</time>
      </trkpt>
      <trkpt lat="43.20634" lon="1.37889">
        <ele>222</ele>
        <time>2017-10-07T12:15:02Z</time>
      </trkpt>
      <trkpt lat="43.20642" lon="1.37897">
        <ele>222</ele>
        <time>2017-10-07T12:15:04Z</time>
      </trkpt>
      <trkpt lat="43.20671" lon="1.37927">
        <ele>222</ele>
        <time>2017-10-07T12:15:12Z</time>
      </trkpt>
      <trkpt lat="43.20687" lon="1.37945">
        <ele>221</ele>
        <time>2017-10-07T12:15:17Z</time>
      </trkpt>
      <trkpt lat="43.2069" lon="1.37948">
        <ele>221</ele>
        <time>2017-10-07T12:15:18Z</time>
      </trkpt>
      <trkpt lat="43.20693" lon="1.37951">
        <ele>221</ele>
        <time>2017-10-07T12:15:19Z</time>
      </trkpt>
      <trkpt lat="43.20697" lon="1.37955">
        <ele>220</ele>
        <time>2017-10-07T12:15:20Z</time>
      </trkpt>
      <trkpt lat="43.20701" lon="1.37958">
        <ele>220</ele>
        <time>2017-10-07T12:15:21Z</time>
      </trkpt>
      <trkpt lat="43.20728" lon="1.37987">
        <ele>220</ele>
        <time>2017-10-07T12:15:29Z</time>
      </trkpt>
      <trkpt lat="43.2075" lon="1.38008">
        <ele>220</ele>
        <time>2017-10-07T12:15:35Z</time>
      </trkpt>
      <trkpt lat="43.20756" lon="1.38015">
        <ele>220</ele>
        <time>2017-10-07T12:15:37Z</time>
      </trkpt>
      <trkpt lat="43.2077" lon="1.38029">
        <ele>220</ele>
        <time>2017-10-07T12:15:41Z</time>
      </trkpt>
      <trkpt lat="43.20799" lon="1.38059">
        <ele>220</ele>
        <time>2017-10-07T12:15:49Z</time>
      </trkpt>
      <trkpt lat="43.20802" lon="1.38062">
        <ele>220</ele>
        <time>2017-10-07T12:15:50Z</time>
      </trkpt>
      <trkpt lat="43.20826" lon="1.38086">
        <ele>220</ele>
        <time>2017-10-07T12:15:57Z</time>
      </trkpt>
      <trkpt lat="43.2084" lon="1.38098">
        <ele>220</ele>
        <time>2017-10-07T12:16:01Z</time>
      </trkpt>
      <trkpt lat="43.20847" lon="1.38098">
        <ele>220</ele>
        <time>2017-10-07T12:16:03Z</time>
      </trkpt>
      <trkpt lat="43.20873" lon="1.38093">
        <ele>220</ele>
        <time>2017-10-07T12:16:09Z</time>
      </trkpt>
      <trkpt lat="43.20877" lon="1.38093">
        <ele>220</ele>
        <time>2017-10-07T12:16:10Z</time>
      </trkpt>
      <trkpt lat="43.20899" lon="1.38097">
        <ele>220</ele>
        <time>2017-10-07T12:16:15Z</time>
      </trkpt>
      <trkpt lat="43.20903" lon="1.38098">
        <ele>220</ele>
        <time>2017-10-07T12:16:16Z</time>
      </trkpt>
      <trkpt lat="43.20908" lon="1.381">
        <ele>220</ele>
        <time>2017-10-07T12:16:17Z</time>
      </trkpt>
      <trkpt lat="43.20925" lon="1.38106">
        <ele>220</ele>
        <time>2017-10-07T12:16:21Z</time>
      </trkpt>
      <trkpt lat="43.20929" lon="1.38109">
        <ele>220</ele>
        <time>2017-10-07T12:16:22Z</time>
      </trkpt>
      <trkpt lat="43.20938" lon="1.38121">
        <ele>220</ele>
        <time>2017-10-07T12:16:25Z</time>
      </trkpt>
      <trkpt lat="43.20943" lon="1.38131">
        <ele>220</ele>
        <time>2017-10-07T12:16:27Z</time>
      </trkpt>
      <trkpt lat="43.20956" lon="1.38154">
        <ele>220</ele>
        <time>2017-10-07T12:16:32Z</time>
      </trkpt>
      <trkpt lat="43.20964" lon="1.38173">
        <ele>220</ele>
        <time>2017-10-07T12:16:36Z</time>
      </trkpt>
      <trkpt lat="43.2097" lon="1.38188">
        <ele>220</ele>
        <time>2017-10-07T12:16:39Z</time>
      </trkpt>
      <trkpt lat="43.20979" lon="1.38222">
        <ele>220</ele>
        <time>2017-10-07T12:16:46Z</time>
      </trkpt>
      <trkpt lat="43.20987" lon="1.38243">
        <ele>220</ele>
        <time>2017-10-07T12:16:52Z</time>
      </trkpt>
      <trkpt lat="43.20981" lon="1.38251">
        <ele>220</ele>
        <time>2017-10-07T12:16:55Z</time>
      </trkpt>
      <trkpt lat="43.20978" lon="1.38253">
        <ele>220</ele>
        <time>2017-10-07T12:16:56Z</time>
      </trkpt>
      <trkpt lat="43.2097" lon="1.38269">
        <ele>220</ele>
        <time>2017-10-07T12:17:00Z</time>
      </trkpt>
      <trkpt lat="43.20976" lon="1.38283">
        <ele>220</ele>
        <time>2017-10-07T12:17:03Z</time>
      </trkpt>
      <trkpt lat="43.20993" lon="1.38304">
        <ele>220</ele>
        <time>2017-10-07T12:17:09Z</time>
      </trkpt>
      <trkpt lat="43.21001" lon="1.38316">
        <ele>220</ele>
        <time>2017-10-07T12:17:13Z</time>
      </trkpt>
      <trkpt lat="43.21003" lon="1.38319">
        <ele>221</ele>
        <time>2017-10-07T12:17:14Z</time>
      </trkpt>
      <trkpt lat="43.21005" lon="1.38321">
        <ele>221</ele>
        <time>2017-10-07T12:17:15Z</time>
      </trkpt>
      <trkpt lat="43.21006" lon="1.38323">
        <ele>221</ele>
        <time>2017-10-07T12:17:16Z</time>
      </trkpt>
      <trkpt lat="43.21006" lon="1.38323">
        <ele>222</ele>
        <time>2017-10-07T12:17:17Z</time>
      </trkpt>
      <trkpt lat="43.21007" lon="1.38325">
        <ele>222</ele>
        <time>2017-10-07T12:17:20Z</time>
      </trkpt>
      <trkpt lat="43.21009" lon="1.38327">
        <ele>222</ele>
        <time>2017-10-07T12:17:21Z</time>
      </trkpt>
      <trkpt lat="43.21019" lon="1.38342">
        <ele>222</ele>
        <time>2017-10-07T12:17:25Z</time>
      </trkpt>
      <trkpt lat="43.21021" lon="1.38348">
        <ele>222</ele>
        <time>2017-10-07T12:17:26Z</time>
      </trkpt>
      <trkpt lat="43.21023" lon="1.38359">
        <ele>222</ele>
        <time>2017-10-07T12:17:28Z</time>
      </trkpt>
      <trkpt lat="43.21027" lon="1.38378">
        <ele>222</ele>
        <time>2017-10-07T12:17:31Z</time>
      </trkpt>
      <trkpt lat="43.21028" lon="1.38384">
        <ele>222</ele>
        <time>2017-10-07T12:17:32Z</time>
      </trkpt>
      <trkpt lat="43.2103" lon="1.38401">
        <ele>222</ele>
        <time>2017-10-07T12:17:35Z</time>
      </trkpt>
      <trkpt lat="43.21031" lon="1.38413">
        <ele>222</ele>
        <time>2017-10-07T12:17:37Z</time>
      </trkpt>
      <trkpt lat="43.21032" lon="1.38424">
        <ele>222</ele>
        <time>2017-10-07T12:17:39Z</time>
      </trkpt>
      <trkpt lat="43.21033" lon="1.38443">
        <ele>222</ele>
        <time>2017-10-07T12:17:42Z</time>
      </trkpt>
      <trkpt lat="43.21034" lon="1.38449">
        <ele>222</ele>
        <time>2017-10-07T12:17:43Z</time>
      </trkpt>
      <trkpt lat="43.21038" lon="1.38484">
        <ele>222</ele>
        <time>2017-10-07T12:17:49Z</time>
      </trkpt>
      <trkpt lat="43.21041" lon="1.38512">
        <ele>222</ele>
        <time>2017-10-07T12:17:54Z</time>
      </trkpt>
      <trkpt lat="43.21042" lon="1.38522">
        <ele>222</ele>
        <time>2017-10-07T12:17:56Z</time>
      </trkpt>
      <trkpt lat="43.21045" lon="1.38548">
        <ele>222</ele>
        <time>2017-10-07T12:18:01Z</time>
      </trkpt>
      <trkpt lat="43.21046" lon="1.38558">
        <ele>222</ele>
        <time>2017-10-07T12:18:03Z</time>
      </trkpt>
      <trkpt lat="43.21049" lon="1.38576">
        <ele>222</ele>
        <time>2017-10-07T12:18:07Z</time>
      </trkpt>
      <trkpt lat="43.21049" lon="1.38581">
        <ele>223</ele>
        <time>2017-10-07T12:18:08Z</time>
      </trkpt>
      <trkpt lat="43.21049" lon="1.38585">
        <ele>223</ele>
        <time>2017-10-07T12:18:09Z</time>
      </trkpt>
      <trkpt lat="43.21049" lon="1.38589">
        <ele>223</ele>
        <time>2017-10-07T12:18:10Z</time>
      </trkpt>
      <trkpt lat="43.21049" lon="1.38593">
        <ele>224</ele>
        <time>2017-10-07T12:18:11Z</time>
      </trkpt>
      <trkpt lat="43.2105" lon="1.38605">
        <ele>224</ele>
        <time>2017-10-07T12:18:14Z</time>
      </trkpt>
      <trkpt lat="43.21049" lon="1.3861">
        <ele>225</ele>
        <time>2017-10-07T12:18:15Z</time>
      </trkpt>
      <trkpt lat="43.21049" lon="1.38614">
        <ele>225</ele>
        <time>2017-10-07T12:18:16Z</time>
      </trkpt>
      <trkpt lat="43.21048" lon="1.38618">
        <ele>226</ele>
        <time>2017-10-07T12:18:17Z</time>
      </trkpt>
      <trkpt lat="43.21048" lon="1.38622">
        <ele>226</ele>
        <time>2017-10-07T12:18:18Z</time>
      </trkpt>
      <trkpt lat="43.21044" lon="1.38637">
        <ele>226</ele>
        <time>2017-10-07T12:18:22Z</time>
      </trkpt>
      <trkpt lat="43.21043" lon="1.38641">
        <ele>227</ele>
        <time>2017-10-07T12:18:23Z</time>
      </trkpt>
      <trkpt lat="43.21042" lon="1.38644">
        <ele>227</ele>
        <time>2017-10-07T12:18:24Z</time>
      </trkpt>
      <trkpt lat="43.2104" lon="1.38648">
        <ele>228</ele>
        <time>2017-10-07T12:18:25Z</time>
      </trkpt>
      <trkpt lat="43.21039" lon="1.38651">
        <ele>228</ele>
        <time>2017-10-07T12:18:26Z</time>
      </trkpt>
      <trkpt lat="43.21036" lon="1.38662">
        <ele>228</ele>
        <time>2017-10-07T12:18:29Z</time>
      </trkpt>
      <trkpt lat="43.21034" lon="1.38665">
        <ele>228</ele>
        <time>2017-10-07T12:18:30Z</time>
      </trkpt>
      <trkpt lat="43.21032" lon="1.38668">
        <ele>229</ele>
        <time>2017-10-07T12:18:31Z</time>
      </trkpt>
      <trkpt lat="43.2103" lon="1.38672">
        <ele>229</ele>
        <time>2017-10-07T12:18:32Z</time>
      </trkpt>
      <trkpt lat="43.21029" lon="1.38675">
        <ele>230</ele>
        <time>2017-10-07T12:18:33Z</time>
      </trkpt>
      <trkpt lat="43.21028" lon="1.38678">
        <ele>230</ele>
        <time>2017-10-07T12:18:34Z</time>
      </trkpt>
      <trkpt lat="43.21026" lon="1.3868">
        <ele>230</ele>
        <time>2017-10-07T12:18:35Z</time>
      </trkpt>
      <trkpt lat="43.21016" lon="1.38693">
        <ele>230</ele>
        <time>2017-10-07T12:18:40Z</time>
      </trkpt>
      <trkpt lat="43.21013" lon="1.38694">
        <ele>231</ele>
        <time>2017-10-07T12:18:41Z</time>
      </trkpt>
      <trkpt lat="43.2101" lon="1.38696">
        <ele>231</ele>
        <time>2017-10-07T12:18:42Z</time>
      </trkpt>
      <trkpt lat="43.21007" lon="1.38697">
        <ele>232</ele>
        <time>2017-10-07T12:18:43Z</time>
      </trkpt>
      <trkpt lat="43.21005" lon="1.38698">
        <ele>232</ele>
        <time>2017-10-07T12:18:44Z</time>
      </trkpt>
      <trkpt lat="43.21002" lon="1.38699">
        <ele>232</ele>
        <time>2017-10-07T12:18:45Z</time>
      </trkpt>
      <trkpt lat="43.20997" lon="1.38701">
        <ele>232</ele>
        <time>2017-10-07T12:18:47Z</time>
      </trkpt>
      <trkpt lat="43.20995" lon="1.38701">
        <ele>233</ele>
        <time>2017-10-07T12:18:48Z</time>
      </trkpt>
      <trkpt lat="43.20993" lon="1.38702">
        <ele>233</ele>
        <time>2017-10-07T12:18:49Z</time>
      </trkpt>
      <trkpt lat="43.20991" lon="1.38703">
        <ele>234</ele>
        <time>2017-10-07T12:18:50Z</time>
      </trkpt>
      <trkpt lat="43.20989" lon="1.38704">
        <ele>234</ele>
        <time>2017-10-07T12:18:51Z</time>
      </trkpt>
      <trkpt lat="43.20987" lon="1.38705">
        <ele>234</ele>
        <time>2017-10-07T12:18:52Z</time>
      </trkpt>
      <trkpt lat="43.20985" lon="1.38707">
        <ele>234</ele>
        <time>2017-10-07T12:18:53Z</time>
      </trkpt>
      <trkpt lat="43.20973" lon="1.38713">
        <ele>234</ele>
        <time>2017-10-07T12:18:57Z</time>
      </trkpt>
      <trkpt lat="43.20963" lon="1.38722">
        <ele>234</ele>
        <time>2017-10-07T12:19:00Z</time>
      </trkpt>
      <trkpt lat="43.20955" lon="1.38729">
        <ele>234</ele>
        <time>2017-10-07T12:19:02Z</time>
      </trkpt>
      <trkpt lat="43.20926" lon="1.38755">
        <ele>234</ele>
        <time>2017-10-07T12:19:08Z</time>
      </trkpt>
      <trkpt lat="43.20916" lon="1.38765">
        <ele>234</ele>
        <time>2017-10-07T12:19:10Z</time>
      </trkpt>
      <trkpt lat="43.20911" lon="1.3877">
        <ele>234</ele>
        <time>2017-10-07T12:19:11Z</time>
      </trkpt>
      <trkpt lat="43.20906" lon="1.38774">
        <ele>233</ele>
        <time>2017-10-07T12:19:12Z</time>
      </trkpt>
      <trkpt lat="43.209" lon="1.38779">
        <ele>233</ele>
        <time>2017-10-07T12:19:13Z</time>
      </trkpt>
      <trkpt lat="43.20894" lon="1.38784">
        <ele>232</ele>
        <time>2017-10-07T12:19:14Z</time>
      </trkpt>
      <trkpt lat="43.20874" lon="1.38801">
        <ele>232</ele>
        <time>2017-10-07T12:19:17Z</time>
      </trkpt>
      <trkpt lat="43.20867" lon="1.38808">
        <ele>231</ele>
        <time>2017-10-07T12:19:18Z</time>
      </trkpt>
      <trkpt lat="43.2086" lon="1.38814">
        <ele>231</ele>
        <time>2017-10-07T12:19:19Z</time>
      </trkpt>
      <trkpt lat="43.20853" lon="1.3882">
        <ele>230</ele>
        <time>2017-10-07T12:19:20Z</time>
      </trkpt>
      <trkpt lat="43.20846" lon="1.38826">
        <ele>230</ele>
        <time>2017-10-07T12:19:21Z</time>
      </trkpt>
      <trkpt lat="43.20839" lon="1.38832">
        <ele>229</ele>
        <time>2017-10-07T12:19:22Z</time>
      </trkpt>
      <trkpt lat="43.20832" lon="1.38838">
        <ele>229</ele>
        <time>2017-10-07T12:19:23Z</time>
      </trkpt>
      <trkpt lat="43.20825" lon="1.38844">
        <ele>228</ele>
        <time>2017-10-07T12:19:24Z</time>
      </trkpt>
      <trkpt lat="43.20818" lon="1.38851">
        <ele>228</ele>
        <time>2017-10-07T12:19:25Z</time>
      </trkpt>
      <trkpt lat="43.20811" lon="1.38858">
        <ele>227</ele>
        <time>2017-10-07T12:19:26Z</time>
      </trkpt>
      <trkpt lat="43.20805" lon="1.38865">
        <ele>227</ele>
        <time>2017-10-07T12:19:27Z</time>
      </trkpt>
      <trkpt lat="43.208" lon="1.38873">
        <ele>227</ele>
        <time>2017-10-07T12:19:28Z</time>
      </trkpt>
      <trkpt lat="43.20796" lon="1.38881">
        <ele>226</ele>
        <time>2017-10-07T12:19:29Z</time>
      </trkpt>
      <trkpt lat="43.20793" lon="1.38889">
        <ele>226</ele>
        <time>2017-10-07T12:19:30Z</time>
      </trkpt>
      <trkpt lat="43.2079" lon="1.38896">
        <ele>226</ele>
        <time>2017-10-07T12:19:31Z</time>
      </trkpt>
      <trkpt lat="43.20784" lon="1.38909">
        <ele>226</ele>
        <time>2017-10-07T12:19:33Z</time>
      </trkpt>
      <trkpt lat="43.20774" lon="1.38932">
        <ele>226</ele>
        <time>2017-10-07T12:19:37Z</time>
      </trkpt>
      <trkpt lat="43.20772" lon="1.38937">
        <ele>226</ele>
        <time>2017-10-07T12:19:38Z</time>
      </trkpt>
      <trkpt lat="43.20769" lon="1.38943">
        <ele>226</ele>
        <time>2017-10-07T12:19:39Z</time>
      </trkpt>
      <trkpt lat="43.20767" lon="1.38949">
        <ele>226</ele>
        <time>2017-10-07T12:19:40Z</time>
      </trkpt>
      <trkpt lat="43.20764" lon="1.38954">
        <ele>226</ele>
        <time>2017-10-07T12:19:41Z</time>
      </trkpt>
      <trkpt lat="43.20759" lon="1.38966">
        <ele>226</ele>
        <time>2017-10-07T12:19:43Z</time>
      </trkpt>
      <trkpt lat="43.20754" lon="1.38977">
        <ele>226</ele>
        <time>2017-10-07T12:19:45Z</time>
      </trkpt>
      <trkpt lat="43.20749" lon="1.38988">
        <ele>226</ele>
        <time>2017-10-07T12:19:47Z</time>
      </trkpt>
      <trkpt lat="43.20746" lon="1.38992">
        <ele>226</ele>
        <time>2017-10-07T12:19:48Z</time>
      </trkpt>
      <trkpt lat="43.20732" lon="1.38995">
        <ele>226</ele>
        <time>2017-10-07T12:19:51Z</time>
      </trkpt>
      <trkpt lat="43.20727" lon="1.38993">
        <ele>226</ele>
        <time>2017-10-07T12:19:52Z</time>
      </trkpt>
      <trkpt lat="43.20714" lon="1.38991">
        <ele>226</ele>
        <time>2017-10-07T12:19:54Z</time>
      </trkpt>
      <trkpt lat="43.20707" lon="1.38991">
        <ele>226</ele>
        <time>2017-10-07T12:19:55Z</time>
      </trkpt>
      <trkpt lat="43.20701" lon="1.38993">
        <ele>226</ele>
        <time>2017-10-07T12:19:56Z</time>
      </trkpt>
      <trkpt lat="43.20689" lon="1.39">
        <ele>225</ele>
        <time>2017-10-07T12:19:58Z</time>
      </trkpt>
      <trkpt lat="43.20685" lon="1.39005">
        <ele>224</ele>
        <time>2017-10-07T12:19:59Z</time>
      </trkpt>
      <trkpt lat="43.20682" lon="1.39011">
        <ele>224</ele>
        <time>2017-10-07T12:20:00Z</time>
      </trkpt>
      <trkpt lat="43.20679" lon="1.39018">
        <ele>224</ele>
        <time>2017-10-07T12:20:01Z</time>
      </trkpt>
      <trkpt lat="43.20677" lon="1.39032">
        <ele>224</ele>
        <time>2017-10-07T12:20:03Z</time>
      </trkpt>
      <trkpt lat="43.20676" lon="1.39045">
        <ele>224</ele>
        <time>2017-10-07T12:20:05Z</time>
      </trkpt>
      <trkpt lat="43.20674" lon="1.39064">
        <ele>224</ele>
        <time>2017-10-07T12:20:08Z</time>
      </trkpt>
      <trkpt lat="43.20664" lon="1.39078">
        <ele>224</ele>
        <time>2017-10-07T12:20:11Z</time>
      </trkpt>
      <trkpt lat="43.20661" lon="1.39082">
        <ele>224</ele>
        <time>2017-10-07T12:20:12Z</time>
      </trkpt>
      <trkpt lat="43.20637" lon="1.39102">
        <ele>224</ele>
        <time>2017-10-07T12:20:18Z</time>
      </trkpt>
      <trkpt lat="43.2062" lon="1.39113">
        <ele>224</ele>
        <time>2017-10-07T12:20:22Z</time>
      </trkpt>
      <trkpt lat="43.20602" lon="1.39122">
        <ele>224</ele>
        <time>2017-10-07T12:20:26Z</time>
      </trkpt>
      <trkpt lat="43.20575" lon="1.39136">
        <ele>224</ele>
        <time>2017-10-07T12:20:32Z</time>
      </trkpt>
      <trkpt lat="43.20571" lon="1.39138">
        <ele>224</ele>
        <time>2017-10-07T12:20:33Z</time>
      </trkpt>
      <trkpt lat="43.20567" lon="1.39139">
        <ele>225</ele>
        <time>2017-10-07T12:20:34Z</time>
      </trkpt>
      <trkpt lat="43.20563" lon="1.39141">
        <ele>225</ele>
        <time>2017-10-07T12:20:35Z</time>
      </trkpt>
      <trkpt lat="43.20559" lon="1.39143">
        <ele>226</ele>
        <time>2017-10-07T12:20:36Z</time>
      </trkpt>
      <trkpt lat="43.20538" lon="1.39153">
        <ele>226</ele>
        <time>2017-10-07T12:20:42Z</time>
      </trkpt>
      <trkpt lat="43.2053" lon="1.39157">
        <ele>226</ele>
        <time>2017-10-07T12:20:44Z</time>
      </trkpt>
      <trkpt lat="43.2052" lon="1.39165">
        <ele>226</ele>
        <time>2017-10-07T12:20:47Z</time>
      </trkpt>
      <trkpt lat="43.20516" lon="1.39167">
        <ele>227</ele>
        <time>2017-10-07T12:20:48Z</time>
      </trkpt>
      <trkpt lat="43.20512" lon="1.39169">
        <ele>227</ele>
        <time>2017-10-07T12:20:49Z</time>
      </trkpt>
      <trkpt lat="43.20508" lon="1.39171">
        <ele>228</ele>
        <time>2017-10-07T12:20:50Z</time>
      </trkpt>
      <trkpt lat="43.20497" lon="1.39177">
        <ele>228</ele>
        <time>2017-10-07T12:20:53Z</time>
      </trkpt>
      <trkpt lat="43.20489" lon="1.3918">
        <ele>228</ele>
        <time>2017-10-07T12:20:55Z</time>
      </trkpt>
      <trkpt lat="43.20463" lon="1.3919">
        <ele>228</ele>
        <time>2017-10-07T12:21:02Z</time>
      </trkpt>
      <trkpt lat="43.20459" lon="1.39191">
        <ele>229</ele>
        <time>2017-10-07T12:21:03Z</time>
      </trkpt>
      <trkpt lat="43.20455" lon="1.39192">
        <ele>229</ele>
        <time>2017-10-07T12:21:04Z</time>
      </trkpt>
      <trkpt lat="43.2045" lon="1.39193">
        <ele>229</ele>
        <time>2017-10-07T12:21:05Z</time>
      </trkpt>
      <trkpt lat="43.20446" lon="1.39194">
        <ele>230</ele>
        <time>2017-10-07T12:21:06Z</time>
      </trkpt>
      <trkpt lat="43.20429" lon="1.39198">
        <ele>230</ele>
        <time>2017-10-07T12:21:10Z</time>
      </trkpt>
      <trkpt lat="43.20413" lon="1.39203">
        <ele>230</ele>
        <time>2017-10-07T12:21:14Z</time>
      </trkpt>
      <trkpt lat="43.20409" lon="1.39204">
        <ele>231</ele>
        <time>2017-10-07T12:21:15Z</time>
      </trkpt>
      <trkpt lat="43.20405" lon="1.39206">
        <ele>231</ele>
        <time>2017-10-07T12:21:16Z</time>
      </trkpt>
      <trkpt lat="43.20401" lon="1.39207">
        <ele>231</ele>
        <time>2017-10-07T12:21:17Z</time>
      </trkpt>
      <trkpt lat="43.20397" lon="1.39208">
        <ele>232</ele>
        <time>2017-10-07T12:21:18Z</time>
      </trkpt>
      <trkpt lat="43.20383" lon="1.39213">
        <ele>232</ele>
        <time>2017-10-07T12:21:22Z</time>
      </trkpt>
      <trkpt lat="43.2038" lon="1.39214">
        <ele>233</ele>
        <time>2017-10-07T12:21:23Z</time>
      </trkpt>
      <trkpt lat="43.20376" lon="1.39216">
        <ele>233</ele>
        <time>2017-10-07T12:21:24Z</time>
      </trkpt>
      <trkpt lat="43.20373" lon="1.39217">
        <ele>234</ele>
        <time>2017-10-07T12:21:25Z</time>
      </trkpt>
      <trkpt lat="43.2037" lon="1.39218">
        <ele>234</ele>
        <time>2017-10-07T12:21:26Z</time>
      </trkpt>
      <trkpt lat="43.20364" lon="1.39221">
        <ele>234</ele>
        <time>2017-10-07T12:21:28Z</time>
      </trkpt>
      <trkpt lat="43.20361" lon="1.39222">
        <ele>235</ele>
        <time>2017-10-07T12:21:29Z</time>
      </trkpt>
      <trkpt lat="43.20358" lon="1.39223">
        <ele>235</ele>
        <time>2017-10-07T12:21:30Z</time>
      </trkpt>
      <trkpt lat="43.20355" lon="1.39225">
        <ele>236</ele>
        <time>2017-10-07T12:21:31Z</time>
      </trkpt>
      <trkpt lat="43.20353" lon="1.39226">
        <ele>236</ele>
        <time>2017-10-07T12:21:32Z</time>
      </trkpt>
      <trkpt lat="43.20347" lon="1.39228">
        <ele>236</ele>
        <time>2017-10-07T12:21:34Z</time>
      </trkpt>
      <trkpt lat="43.20327" lon="1.39235">
        <ele>236</ele>
        <time>2017-10-07T12:21:39Z</time>
      </trkpt>
      <trkpt lat="43.20297" lon="1.39247">
        <ele>236</ele>
        <time>2017-10-07T12:21:45Z</time>
      </trkpt>
      <trkpt lat="43.20284" lon="1.39255">
        <ele>236</ele>
        <time>2017-10-07T12:21:47Z</time>
      </trkpt>
      <trkpt lat="43.20278" lon="1.39258">
        <ele>235</ele>
        <time>2017-10-07T12:21:48Z</time>
      </trkpt>
      <trkpt lat="43.20271" lon="1.39261">
        <ele>235</ele>
        <time>2017-10-07T12:21:49Z</time>
      </trkpt>
      <trkpt lat="43.20264" lon="1.39265">
        <ele>234</ele>
        <time>2017-10-07T12:21:50Z</time>
      </trkpt>
      <trkpt lat="43.20258" lon="1.39268">
        <ele>233</ele>
        <time>2017-10-07T12:21:51Z</time>
      </trkpt>
      <trkpt lat="43.20251" lon="1.39271">
        <ele>233</ele>
        <time>2017-10-07T12:21:52Z</time>
      </trkpt>
      <trkpt lat="43.20244" lon="1.39272">
        <ele>232</ele>
        <time>2017-10-07T12:21:53Z</time>
      </trkpt>
      <trkpt lat="43.20238" lon="1.39272">
        <ele>231</ele>
        <time>2017-10-07T12:21:54Z</time>
      </trkpt>
      <trkpt lat="43.20232" lon="1.39272">
        <ele>231</ele>
        <time>2017-10-07T12:21:55Z</time>
      </trkpt>
      <trkpt lat="43.20227" lon="1.39271">
        <ele>231</ele>
        <time>2017-10-07T12:21:56Z</time>
      </trkpt>
      <trkpt lat="43.20213" lon="1.39273">
        <ele>231</ele>
        <time>2017-10-07T12:21:59Z</time>
      </trkpt>
      <trkpt lat="43.20209" lon="1.39274">
        <ele>231</ele>
        <time>2017-10-07T12:22:00Z</time>
      </trkpt>
      <trkpt lat="43.20193" lon="1.39282">
        <ele>231</ele>
        <time>2017-10-07T12:22:05Z</time>
      </trkpt>
      <trkpt lat="43.20174" lon="1.39292">
        <ele>231</ele>
        <time>2017-10-07T12:22:11Z</time>
      </trkpt>
      <trkpt lat="43.2015" lon="1.39307">
        <ele>231</ele>
        <time>2017-10-07T12:22:18Z</time>
      </trkpt>
      <trkpt lat="43.20134" lon="1.39323">
        <ele>231</ele>
        <time>2017-10-07T12:22:23Z</time>
      </trkpt>
      <trkpt lat="43.20113" lon="1.39343">
        <ele>231</ele>
        <time>2017-10-07T12:22:29Z</time>
      </trkpt>
      <trkpt lat="43.20096" lon="1.39359">
        <ele>231</ele>
        <time>2017-10-07T12:22:34Z</time>
      </trkpt>
      <trkpt lat="43.20093" lon="1.39363">
        <ele>231</ele>
        <time>2017-10-07T12:22:35Z</time>
      </trkpt>
      <trkpt lat="43.20078" lon="1.39372">
        <ele>231</ele>
        <time>2017-10-07T12:22:39Z</time>
      </trkpt>
      <trkpt lat="43.20063" lon="1.39383">
        <ele>231</ele>
        <time>2017-10-07T12:22:43Z</time>
      </trkpt>
      <trkpt lat="43.20059" lon="1.39387">
        <ele>231</ele>
        <time>2017-10-07T12:22:44Z</time>
      </trkpt>
      <trkpt lat="43.20042" lon="1.39402">
        <ele>231</ele>
        <time>2017-10-07T12:22:49Z</time>
      </trkpt>
      <trkpt lat="43.20027" lon="1.39424">
        <ele>231</ele>
        <time>2017-10-07T12:22:54Z</time>
      </trkpt>
      <trkpt lat="43.20013" lon="1.3943">
        <ele>231</ele>
        <time>2017-10-07T12:22:57Z</time>
      </trkpt>
      <trkpt lat="43.20003" lon="1.39437">
        <ele>231</ele>
        <time>2017-10-07T12:22:59Z</time>
      </trkpt>
      <trkpt lat="43.19987" lon="1.39449">
        <ele>231</ele>
        <time>2017-10-07T12:23:02Z</time>
      </trkpt>
      <trkpt lat="43.19969" lon="1.3946">
        <ele>231</ele>
        <time>2017-10-07T12:23:05Z</time>
      </trkpt>
      <trkpt lat="43.19963" lon="1.39463">
        <ele>231</ele>
        <time>2017-10-07T12:23:06Z</time>
      </trkpt>
      <trkpt lat="43.19958" lon="1.39466">
        <ele>230</ele>
        <time>2017-10-07T12:23:07Z</time>
      </trkpt>
      <trkpt lat="43.19954" lon="1.39468">
        <ele>230</ele>
        <time>2017-10-07T12:23:08Z</time>
      </trkpt>
      <trkpt lat="43.1995" lon="1.3947">
        <ele>229</ele>
        <time>2017-10-07T12:23:09Z</time>
      </trkpt>
      <trkpt lat="43.19938" lon="1.39475">
        <ele>229</ele>
        <time>2017-10-07T12:23:12Z</time>
      </trkpt>
      <trkpt lat="43.19919" lon="1.3948">
        <ele>229</ele>
        <time>2017-10-07T12:23:17Z</time>
      </trkpt>
      <trkpt lat="43.1991" lon="1.39483">
        <ele>229</ele>
        <time>2017-10-07T12:23:19Z</time>
      </trkpt>
      <trkpt lat="43.19897" lon="1.39489">
        <ele>229</ele>
        <time>2017-10-07T12:23:22Z</time>
      </trkpt>
      <trkpt lat="43.19877" lon="1.39506">
        <ele>229</ele>
        <time>2017-10-07T12:23:28Z</time>
      </trkpt>
      <trkpt lat="43.19874" lon="1.39509">
        <ele>229</ele>
        <time>2017-10-07T12:23:29Z</time>
      </trkpt>
      <trkpt lat="43.19857" lon="1.39527">
        <ele>229</ele>
        <time>2017-10-07T12:23:34Z</time>
      </trkpt>
      <trkpt lat="43.19849" lon="1.39534">
        <ele>229</ele>
        <time>2017-10-07T12:23:36Z</time>
      </trkpt>
      <trkpt lat="43.19835" lon="1.39545">
        <ele>229</ele>
        <time>2017-10-07T12:23:40Z</time>
      </trkpt>
      <trkpt lat="43.19819" lon="1.39558">
        <ele>229</ele>
        <time>2017-10-07T12:23:45Z</time>
      </trkpt>
      <trkpt lat="43.19804" lon="1.39572">
        <ele>229</ele>
        <time>2017-10-07T12:23:49Z</time>
      </trkpt>
      <trkpt lat="43.198" lon="1.39577">
        <ele>229</ele>
        <time>2017-10-07T12:23:50Z</time>
      </trkpt>
      <trkpt lat="43.19782" lon="1.39596">
        <ele>229</ele>
        <time>2017-10-07T12:23:53Z</time>
      </trkpt>
      <trkpt lat="43.19776" lon="1.39603">
        <ele>229</ele>
        <time>2017-10-07T12:23:54Z</time>
      </trkpt>
      <trkpt lat="43.1977" lon="1.39611">
        <ele>228</ele>
        <time>2017-10-07T12:23:55Z</time>
      </trkpt>
      <trkpt lat="43.19764" lon="1.39619">
        <ele>228</ele>
        <time>2017-10-07T12:23:56Z</time>
      </trkpt>
      <trkpt lat="43.19759" lon="1.39626">
        <ele>227</ele>
        <time>2017-10-07T12:23:57Z</time>
      </trkpt>
      <trkpt lat="43.19745" lon="1.39647">
        <ele>227</ele>
        <time>2017-10-07T12:24:00Z</time>
      </trkpt>
      <trkpt lat="43.19741" lon="1.39653">
        <ele>227</ele>
        <time>2017-10-07T12:24:01Z</time>
      </trkpt>
      <trkpt lat="43.19737" lon="1.39658">
        <ele>226</ele>
        <time>2017-10-07T12:24:02Z</time>
      </trkpt>
      <trkpt lat="43.19733" lon="1.39663">
        <ele>226</ele>
        <time>2017-10-07T12:24:03Z</time>
      </trkpt>
      <trkpt lat="43.1973" lon="1.39668">
        <ele>225</ele>
        <time>2017-10-07T12:24:04Z</time>
      </trkpt>
      <trkpt lat="43.19724" lon="1.39677">
        <ele>225</ele>
        <time>2017-10-07T12:24:06Z</time>
      </trkpt>
      <trkpt lat="43.19713" lon="1.3969">
        <ele>225</ele>
        <time>2017-10-07T12:24:10Z</time>
      </trkpt>
      <trkpt lat="43.19712" lon="1.39693">
        <ele>225</ele>
        <time>2017-10-07T12:24:11Z</time>
      </trkpt>
      <trkpt lat="43.19715" lon="1.39698">
        <ele>225</ele>
        <time>2017-10-07T12:24:13Z</time>
      </trkpt>
      <trkpt lat="43.1972" lon="1.39705">
        <ele>225</ele>
        <time>2017-10-07T12:24:15Z</time>
      </trkpt>
      <trkpt lat="43.19723" lon="1.39714">
        <ele>226</ele>
        <time>2017-10-07T12:24:17Z</time>
      </trkpt>
      <trkpt lat="43.19724" lon="1.39718">
        <ele>226</ele>
        <time>2017-10-07T12:24:18Z</time>
      </trkpt>
      <trkpt lat="43.19724" lon="1.39723">
        <ele>227</ele>
        <time>2017-10-07T12:24:19Z</time>
      </trkpt>
      <trkpt lat="43.19724" lon="1.39727">
        <ele>227</ele>
        <time>2017-10-07T12:24:20Z</time>
      </trkpt>
      <trkpt lat="43.19724" lon="1.39731">
        <ele>228</ele>
        <time>2017-10-07T12:24:21Z</time>
      </trkpt>
      <trkpt lat="43.19724" lon="1.3974">
        <ele>228</ele>
        <time>2017-10-07T12:24:23Z</time>
      </trkpt>
      <trkpt lat="43.19724" lon="1.39751">
        <ele>228</ele>
        <time>2017-10-07T12:24:26Z</time>
      </trkpt>
      <trkpt lat="43.19723" lon="1.39755">
        <ele>228</ele>
        <time>2017-10-07T12:24:27Z</time>
      </trkpt>
      <trkpt lat="43.19723" lon="1.39758">
        <ele>229</ele>
        <time>2017-10-07T12:24:28Z</time>
      </trkpt>
      <trkpt lat="43.19722" lon="1.39762">
        <ele>229</ele>
        <time>2017-10-07T12:24:29Z</time>
      </trkpt>
      <trkpt lat="43.19721" lon="1.39765">
        <ele>230</ele>
        <time>2017-10-07T12:24:30Z</time>
      </trkpt>
      <trkpt lat="43.19719" lon="1.39777">
        <ele>230</ele>
        <time>2017-10-07T12:24:33Z</time>
      </trkpt>
      <trkpt lat="43.19718" lon="1.3978">
        <ele>230</ele>
        <time>2017-10-07T12:24:34Z</time>
      </trkpt>
      <trkpt lat="43.19718" lon="1.39784">
        <ele>231</ele>
        <time>2017-10-07T12:24:35Z</time>
      </trkpt>
      <trkpt lat="43.19717" lon="1.39787">
        <ele>231</ele>
        <time>2017-10-07T12:24:36Z</time>
      </trkpt>
      <trkpt lat="43.19717" lon="1.39791">
        <ele>232</ele>
        <time>2017-10-07T12:24:37Z</time>
      </trkpt>
      <trkpt lat="43.19715" lon="1.39813">
        <ele>232</ele>
        <time>2017-10-07T12:24:43Z</time>
      </trkpt>
      <trkpt lat="43.19715" lon="1.39817">
        <ele>232</ele>
        <time>2017-10-07T12:24:44Z</time>
      </trkpt>
      <trkpt lat="43.19715" lon="1.3982">
        <ele>233</ele>
        <time>2017-10-07T12:24:45Z</time>
      </trkpt>
      <trkpt lat="43.19715" lon="1.39824">
        <ele>233</ele>
        <time>2017-10-07T12:24:46Z</time>
      </trkpt>
      <trkpt lat="43.19714" lon="1.39828">
        <ele>234</ele>
        <time>2017-10-07T12:24:47Z</time>
      </trkpt>
      <trkpt lat="43.19714" lon="1.39858">
        <ele>234</ele>
        <time>2017-10-07T12:24:54Z</time>
      </trkpt>
      <trkpt lat="43.19715" lon="1.39894">
        <ele>234</ele>
        <time>2017-10-07T12:25:00Z</time>
      </trkpt>
      <trkpt lat="43.19716" lon="1.39936">
        <ele>234</ele>
        <time>2017-10-07T12:25:06Z</time>
      </trkpt>
      <trkpt lat="43.19717" lon="1.3995">
        <ele>234</ele>
        <time>2017-10-07T12:25:08Z</time>
      </trkpt>
      <trkpt lat="43.19721" lon="1.39988">
        <ele>233</ele>
        <time>2017-10-07T12:25:13Z</time>
      </trkpt>
      <trkpt lat="43.19723" lon="1.39996">
        <ele>233</ele>
        <time>2017-10-07T12:25:14Z</time>
      </trkpt>
      <trkpt lat="43.19724" lon="1.40003">
        <ele>232</ele>
        <time>2017-10-07T12:25:15Z</time>
      </trkpt>
      <trkpt lat="43.19726" lon="1.40011">
        <ele>232</ele>
        <time>2017-10-07T12:25:16Z</time>
      </trkpt>
      <trkpt lat="43.19728" lon="1.40017">
        <ele>232</ele>
        <time>2017-10-07T12:25:17Z</time>
      </trkpt>
      <trkpt lat="43.1973" lon="1.40022">
        <ele>232</ele>
        <time>2017-10-07T12:25:18Z</time>
      </trkpt>
      <trkpt lat="43.19733" lon="1.40032">
        <ele>232</ele>
        <time>2017-10-07T12:25:20Z</time>
      </trkpt>
      <trkpt lat="43.19736" lon="1.40041">
        <ele>232</ele>
        <time>2017-10-07T12:25:22Z</time>
      </trkpt>
      <trkpt lat="43.19739" lon="1.4005">
        <ele>232</ele>
        <time>2017-10-07T12:25:24Z</time>
      </trkpt>
      <trkpt lat="43.19744" lon="1.40069">
        <ele>232</ele>
        <time>2017-10-07T12:25:29Z</time>
      </trkpt>
      <trkpt lat="43.19745" lon="1.40072">
        <ele>232</ele>
        <time>2017-10-07T12:25:30Z</time>
      </trkpt>
      <trkpt lat="43.19746" lon="1.40075">
        <ele>233</ele>
        <time>2017-10-07T12:25:31Z</time>
      </trkpt>
      <trkpt lat="43.19746" lon="1.40078">
        <ele>233</ele>
        <time>2017-10-07T12:25:32Z</time>
      </trkpt>
      <trkpt lat="43.19747" lon="1.40081">
        <ele>234</ele>
        <time>2017-10-07T12:25:33Z</time>
      </trkpt>
      <trkpt lat="43.19748" lon="1.40087">
        <ele>234</ele>
        <time>2017-10-07T12:25:35Z</time>
      </trkpt>
      <trkpt lat="43.19748" lon="1.40093">
        <ele>234</ele>
        <time>2017-10-07T12:25:37Z</time>
      </trkpt>
      <trkpt lat="43.19749" lon="1.40095">
        <ele>235</ele>
        <time>2017-10-07T12:25:38Z</time>
      </trkpt>
      <trkpt lat="43.19749" lon="1.40098">
        <ele>235</ele>
        <time>2017-10-07T12:25:39Z</time>
      </trkpt>
      <trkpt lat="43.1975" lon="1.401">
        <ele>235</ele>
        <time>2017-10-07T12:25:40Z</time>
      </trkpt>
      <trkpt lat="43.1975" lon="1.40102">
        <ele>236</ele>
        <time>2017-10-07T12:25:41Z</time>
      </trkpt>
      <trkpt lat="43.19752" lon="1.40109">
        <ele>237</ele>
        <time>2017-10-07T12:25:44Z</time>
      </trkpt>
      <trkpt lat="43.19752" lon="1.40111">
        <ele>237</ele>
        <time>2017-10-07T12:25:45Z</time>
      </trkpt>
      <trkpt lat="43.19753" lon="1.40113">
        <ele>238</ele>
        <time>2017-10-07T12:25:46Z</time>
      </trkpt>
      <trkpt lat="43.19753" lon="1.40115">
        <ele>238</ele>
        <time>2017-10-07T12:25:47Z</time>
      </trkpt>
      <trkpt lat="43.19753" lon="1.40117">
        <ele>238</ele>
        <time>2017-10-07T12:25:48Z</time>
      </trkpt>
      <trkpt lat="43.19755" lon="1.40123">
        <ele>238</ele>
        <time>2017-10-07T12:25:51Z</time>
      </trkpt>
      <trkpt lat="43.19756" lon="1.40125">
        <ele>239</ele>
        <time>2017-10-07T12:25:52Z</time>
      </trkpt>
      <trkpt lat="43.19757" lon="1.40127">
        <ele>239</ele>
        <time>2017-10-07T12:25:53Z</time>
      </trkpt>
      <trkpt lat="43.19757" lon="1.40129">
        <ele>240</ele>
        <time>2017-10-07T12:25:54Z</time>
      </trkpt>
      <trkpt lat="43.19757" lon="1.40132">
        <ele>240</ele>
        <time>2017-10-07T12:25:55Z</time>
      </trkpt>
      <trkpt lat="43.19758" lon="1.40139">
        <ele>241</ele>
        <time>2017-10-07T12:25:58Z</time>
      </trkpt>
      <trkpt lat="43.19758" lon="1.40142">
        <ele>241</ele>
        <time>2017-10-07T12:25:59Z</time>
      </trkpt>
      <trkpt lat="43.19759" lon="1.40144">
        <ele>242</ele>
        <time>2017-10-07T12:26:00Z</time>
      </trkpt>
      <trkpt lat="43.19759" lon="1.40146">
        <ele>242</ele>
        <time>2017-10-07T12:26:01Z</time>
      </trkpt>
      <trkpt lat="43.19759" lon="1.40148">
        <ele>243</ele>
        <time>2017-10-07T12:26:02Z</time>
      </trkpt>
      <trkpt lat="43.1976" lon="1.40154">
        <ele>243</ele>
        <time>2017-10-07T12:26:05Z</time>
      </trkpt>
      <trkpt lat="43.1976" lon="1.40156">
        <ele>243</ele>
        <time>2017-10-07T12:26:06Z</time>
      </trkpt>
      <trkpt lat="43.1976" lon="1.40157">
        <ele>244</ele>
        <time>2017-10-07T12:26:07Z</time>
      </trkpt>
      <trkpt lat="43.1976" lon="1.40158">
        <ele>244</ele>
        <time>2017-10-07T12:26:08Z</time>
      </trkpt>
      <trkpt lat="43.19759" lon="1.4016">
        <ele>245</ele>
        <time>2017-10-07T12:26:09Z</time>
      </trkpt>
      <trkpt lat="43.19759" lon="1.40162">
        <ele>245</ele>
        <time>2017-10-07T12:26:10Z</time>
      </trkpt>
      <trkpt lat="43.19759" lon="1.40164">
        <ele>245</ele>
        <time>2017-10-07T12:26:11Z</time>
      </trkpt>
      <trkpt lat="43.19759" lon="1.40168">
        <ele>245</ele>
        <time>2017-10-07T12:26:13Z</time>
      </trkpt>
      <trkpt lat="43.1976" lon="1.4017">
        <ele>246</ele>
        <time>2017-10-07T12:26:14Z</time>
      </trkpt>
      <trkpt lat="43.1976" lon="1.40172">
        <ele>246</ele>
        <time>2017-10-07T12:26:15Z</time>
      </trkpt>
      <trkpt lat="43.1976" lon="1.40174">
        <ele>247</ele>
        <time>2017-10-07T12:26:16Z</time>
      </trkpt>
      <trkpt lat="43.1976" lon="1.40176">
        <ele>247</ele>
        <time>2017-10-07T12:26:17Z</time>
      </trkpt>
      <trkpt lat="43.19761" lon="1.40181">
        <ele>247</ele>
        <time>2017-10-07T12:26:19Z</time>
      </trkpt>
      <trkpt lat="43.19761" lon="1.40185">
        <ele>247</ele>
        <time>2017-10-07T12:26:21Z</time>
      </trkpt>
      <trkpt lat="43.19761" lon="1.40187">
        <ele>248</ele>
        <time>2017-10-07T12:26:22Z</time>
      </trkpt>
      <trkpt lat="43.19761" lon="1.40189">
        <ele>248</ele>
        <time>2017-10-07T12:26:23Z</time>
      </trkpt>
      <trkpt lat="43.19761" lon="1.4019">
        <ele>249</ele>
        <time>2017-10-07T12:26:24Z</time>
      </trkpt>
      <trkpt lat="43.19761" lon="1.40192">
        <ele>249</ele>
        <time>2017-10-07T12:26:25Z</time>
      </trkpt>
      <trkpt lat="43.19762" lon="1.40194">
        <ele>249</ele>
        <time>2017-10-07T12:26:26Z</time>
      </trkpt>
      <trkpt lat="43.19762" lon="1.40196">
        <ele>250</ele>
        <time>2017-10-07T12:26:27Z</time>
      </trkpt>
      <trkpt lat="43.19762" lon="1.40198">
        <ele>250</ele>
        <time>2017-10-07T12:26:28Z</time>
      </trkpt>
      <trkpt lat="43.19762" lon="1.40201">
        <ele>250</ele>
        <time>2017-10-07T12:26:29Z</time>
      </trkpt>
      <trkpt lat="43.19762" lon="1.40202">
        <ele>251</ele>
        <time>2017-10-07T12:26:30Z</time>
      </trkpt>
      <trkpt lat="43.19761" lon="1.40204">
        <ele>251</ele>
        <time>2017-10-07T12:26:31Z</time>
      </trkpt>
      <trkpt lat="43.19762" lon="1.40205">
        <ele>251</ele>
        <time>2017-10-07T12:26:32Z</time>
      </trkpt>
      <trkpt lat="43.19761" lon="1.40211">
        <ele>251</ele>
        <time>2017-10-07T12:26:35Z</time>
      </trkpt>
      <trkpt lat="43.19761" lon="1.40213">
        <ele>252</ele>
        <time>2017-10-07T12:26:36Z</time>
      </trkpt>
      <trkpt lat="43.1976" lon="1.40216">
        <ele>252</ele>
        <time>2017-10-07T12:26:37Z</time>
      </trkpt>
      <trkpt lat="43.1976" lon="1.40217">
        <ele>252</ele>
        <time>2017-10-07T12:26:38Z</time>
      </trkpt>
      <trkpt lat="43.19759" lon="1.40219">
        <ele>253</ele>
        <time>2017-10-07T12:26:39Z</time>
      </trkpt>
      <trkpt lat="43.19758" lon="1.40219">
        <ele>253</ele>
        <time>2017-10-07T12:26:40Z</time>
      </trkpt>
      <trkpt lat="43.19755" lon="1.40219">
        <ele>253</ele>
        <time>2017-10-07T12:26:42Z</time>
      </trkpt>
      <trkpt lat="43.19748" lon="1.40209">
        <ele>253</ele>
        <time>2017-10-07T12:26:47Z</time>
      </trkpt>
      <trkpt lat="43.19747" lon="1.40198">
        <ele>253</ele>
        <time>2017-10-07T12:26:51Z</time>
      </trkpt>
      <trkpt lat="43.19746" lon="1.40196">
        <ele>254</ele>
        <time>2017-10-07T12:26:52Z</time>
      </trkpt>
      <trkpt lat="43.19744" lon="1.40193">
        <ele>254</ele>
        <time>2017-10-07T12:26:53Z</time>
      </trkpt>
      <trkpt lat="43.19743" lon="1.40192">
        <ele>255</ele>
        <time>2017-10-07T12:26:54Z</time>
      </trkpt>
      <trkpt lat="43.19741" lon="1.40192">
        <ele>255</ele>
        <time>2017-10-07T12:26:55Z</time>
      </trkpt>
      <trkpt lat="43.19739" lon="1.40192">
        <ele>255</ele>
        <time>2017-10-07T12:26:56Z</time>
      </trkpt>
      <trkpt lat="43.19737" lon="1.40196">
        <ele>255</ele>
        <time>2017-10-07T12:26:58Z</time>
      </trkpt>
      <trkpt lat="43.19734" lon="1.40202">
        <ele>256</ele>
        <time>2017-10-07T12:27:01Z</time>
      </trkpt>
      <trkpt lat="43.19734" lon="1.40204">
        <ele>256</ele>
        <time>2017-10-07T12:27:02Z</time>
      </trkpt>
      <trkpt lat="43.19733" lon="1.40206">
        <ele>257</ele>
        <time>2017-10-07T12:27:03Z</time>
      </trkpt>
      <trkpt lat="43.19733" lon="1.40209">
        <ele>257</ele>
        <time>2017-10-07T12:27:04Z</time>
      </trkpt>
      <trkpt lat="43.19733" lon="1.40211">
        <ele>257</ele>
        <time>2017-10-07T12:27:05Z</time>
      </trkpt>
      <trkpt lat="43.19735" lon="1.40221">
        <ele>257</ele>
        <time>2017-10-07T12:27:09Z</time>
      </trkpt>
      <trkpt lat="43.19735" lon="1.40223">
        <ele>258</ele>
        <time>2017-10-07T12:27:10Z</time>
      </trkpt>
      <trkpt lat="43.19735" lon="1.40225">
        <ele>258</ele>
        <time>2017-10-07T12:27:11Z</time>
      </trkpt>
      <trkpt lat="43.19735" lon="1.40227">
        <ele>259</ele>
        <time>2017-10-07T12:27:12Z</time>
      </trkpt>
      <trkpt lat="43.19735" lon="1.40229">
        <ele>259</ele>
        <time>2017-10-07T12:27:13Z</time>
      </trkpt>
      <trkpt lat="43.19735" lon="1.40231">
        <ele>260</ele>
        <time>2017-10-07T12:27:14Z</time>
      </trkpt>
      <trkpt lat="43.19734" lon="1.40235">
        <ele>260</ele>
        <time>2017-10-07T12:27:16Z</time>
      </trkpt>
      <trkpt lat="43.19734" lon="1.4024">
        <ele>260</ele>
        <time>2017-10-07T12:27:18Z</time>
      </trkpt>
      <trkpt lat="43.19734" lon="1.40242">
        <ele>261</ele>
        <time>2017-10-07T12:27:19Z</time>
      </trkpt>
      <trkpt lat="43.19734" lon="1.40244">
        <ele>261</ele>
        <time>2017-10-07T12:27:20Z</time>
      </trkpt>
      <trkpt lat="43.19734" lon="1.40247">
        <ele>262</ele>
        <time>2017-10-07T12:27:21Z</time>
      </trkpt>
      <trkpt lat="43.19734" lon="1.40249">
        <ele>262</ele>
        <time>2017-10-07T12:27:22Z</time>
      </trkpt>
      <trkpt lat="43.19734" lon="1.40254">
        <ele>262</ele>
        <time>2017-10-07T12:27:24Z</time>
      </trkpt>
      <trkpt lat="43.19734" lon="1.40256">
        <ele>263</ele>
        <time>2017-10-07T12:27:25Z</time>
      </trkpt>
      <trkpt lat="43.19734" lon="1.40258">
        <ele>263</ele>
        <time>2017-10-07T12:27:26Z</time>
      </trkpt>
      <trkpt lat="43.19734" lon="1.4026">
        <ele>264</ele>
        <time>2017-10-07T12:27:27Z</time>
      </trkpt>
      <trkpt lat="43.19734" lon="1.40262">
        <ele>264</ele>
        <time>2017-10-07T12:27:28Z</time>
      </trkpt>
      <trkpt lat="43.19734" lon="1.40266">
        <ele>264</ele>
        <time>2017-10-07T12:27:30Z</time>
      </trkpt>
      <trkpt lat="43.19734" lon="1.40268">
        <ele>264</ele>
        <time>2017-10-07T12:27:31Z</time>
      </trkpt>
      <trkpt lat="43.19735" lon="1.40271">
        <ele>265</ele>
        <time>2017-10-07T12:27:32Z</time>
      </trkpt>
      <trkpt lat="43.19735" lon="1.40273">
        <ele>265</ele>
        <time>2017-10-07T12:27:33Z</time>
      </trkpt>
      <trkpt lat="43.19735" lon="1.40275">
        <ele>266</ele>
        <time>2017-10-07T12:27:34Z</time>
      </trkpt>
      <trkpt lat="43.19735" lon="1.40278">
        <ele>266</ele>
        <time>2017-10-07T12:27:35Z</time>
      </trkpt>
      <trkpt lat="43.19735" lon="1.40282">
        <ele>266</ele>
        <time>2017-10-07T12:27:37Z</time>
      </trkpt>
      <trkpt lat="43.19736" lon="1.40287">
        <ele>267</ele>
        <time>2017-10-07T12:27:39Z</time>
      </trkpt>
      <trkpt lat="43.19736" lon="1.40289">
        <ele>267</ele>
        <time>2017-10-07T12:27:40Z</time>
      </trkpt>
      <trkpt lat="43.19735" lon="1.4029">
        <ele>267</ele>
        <time>2017-10-07T12:27:41Z</time>
      </trkpt>
      <trkpt lat="43.19735" lon="1.40292">
        <ele>268</ele>
        <time>2017-10-07T12:27:42Z</time>
      </trkpt>
      <trkpt lat="43.19735" lon="1.40293">
        <ele>268</ele>
        <time>2017-10-07T12:27:43Z</time>
      </trkpt>
      <trkpt lat="43.19735" lon="1.40297">
        <ele>268</ele>
        <time>2017-10-07T12:27:45Z</time>
      </trkpt>
      <trkpt lat="43.19735" lon="1.40303">
        <ele>269</ele>
        <time>2017-10-07T12:27:48Z</time>
      </trkpt>
      <trkpt lat="43.19735" lon="1.40305">
        <ele>270</ele>
        <time>2017-10-07T12:27:49Z</time>
      </trkpt>
      <trkpt lat="43.19735" lon="1.40307">
        <ele>270</ele>
        <time>2017-10-07T12:27:50Z</time>
      </trkpt>
      <trkpt lat="43.19735" lon="1.4031">
        <ele>270</ele>
        <time>2017-10-07T12:27:51Z</time>
      </trkpt>
      <trkpt lat="43.19735" lon="1.40319">
        <ele>270</ele>
        <time>2017-10-07T12:27:55Z</time>
      </trkpt>
      <trkpt lat="43.19735" lon="1.40321">
        <ele>271</ele>
        <time>2017-10-07T12:27:56Z</time>
      </trkpt>
      <trkpt lat="43.19735" lon="1.40323">
        <ele>271</ele>
        <time>2017-10-07T12:27:57Z</time>
      </trkpt>
      <trkpt lat="43.19736" lon="1.40326">
        <ele>272</ele>
        <time>2017-10-07T12:27:58Z</time>
      </trkpt>
      <trkpt lat="43.19736" lon="1.40328">
        <ele>272</ele>
        <time>2017-10-07T12:27:59Z</time>
      </trkpt>
      <trkpt lat="43.19736" lon="1.40331">
        <ele>273</ele>
        <time>2017-10-07T12:28:00Z</time>
      </trkpt>
      <trkpt lat="43.19736" lon="1.40335">
        <ele>273</ele>
        <time>2017-10-07T12:28:02Z</time>
      </trkpt>
      <trkpt lat="43.19735" lon="1.40341">
        <ele>273</ele>
        <time>2017-10-07T12:28:05Z</time>
      </trkpt>
      <trkpt lat="43.19735" lon="1.40344">
        <ele>273</ele>
        <time>2017-10-07T12:28:06Z</time>
      </trkpt>
      <trkpt lat="43.19736" lon="1.40346">
        <ele>274</ele>
        <time>2017-10-07T12:28:07Z</time>
      </trkpt>
      <trkpt lat="43.19736" lon="1.40349">
        <ele>274</ele>
        <time>2017-10-07T12:28:08Z</time>
      </trkpt>
      <trkpt lat="43.19735" lon="1.40351">
        <ele>275</ele>
        <time>2017-10-07T12:28:09Z</time>
      </trkpt>
      <trkpt lat="43.19735" lon="1.40357">
        <ele>275</ele>
        <time>2017-10-07T12:28:12Z</time>
      </trkpt>
      <trkpt lat="43.19735" lon="1.40359">
        <ele>276</ele>
        <time>2017-10-07T12:28:13Z</time>
      </trkpt>
      <trkpt lat="43.19735" lon="1.40362">
        <ele>276</ele>
        <time>2017-10-07T12:28:14Z</time>
      </trkpt>
      <trkpt lat="43.19735" lon="1.40364">
        <ele>277</ele>
        <time>2017-10-07T12:28:15Z</time>
      </trkpt>
      <trkpt lat="43.19735" lon="1.40366">
        <ele>277</ele>
        <time>2017-10-07T12:28:16Z</time>
      </trkpt>
      <trkpt lat="43.19736" lon="1.40374">
        <ele>277</ele>
        <time>2017-10-07T12:28:20Z</time>
      </trkpt>
      <trkpt lat="43.19736" lon="1.40376">
        <ele>278</ele>
        <time>2017-10-07T12:28:21Z</time>
      </trkpt>
      <trkpt lat="43.19736" lon="1.40378">
        <ele>278</ele>
        <time>2017-10-07T12:28:22Z</time>
      </trkpt>
      <trkpt lat="43.19736" lon="1.40381">
        <ele>279</ele>
        <time>2017-10-07T12:28:23Z</time>
      </trkpt>
      <trkpt lat="43.19736" lon="1.40383">
        <ele>279</ele>
        <time>2017-10-07T12:28:24Z</time>
      </trkpt>
      <trkpt lat="43.19737" lon="1.40391">
        <ele>280</ele>
        <time>2017-10-07T12:28:27Z</time>
      </trkpt>
      <trkpt lat="43.19737" lon="1.40393">
        <ele>280</ele>
        <time>2017-10-07T12:28:28Z</time>
      </trkpt>
      <trkpt lat="43.19737" lon="1.40395">
        <ele>280</ele>
        <time>2017-10-07T12:28:29Z</time>
      </trkpt>
      <trkpt lat="43.19737" lon="1.40397">
        <ele>281</ele>
        <time>2017-10-07T12:28:30Z</time>
      </trkpt>
      <trkpt lat="43.19737" lon="1.40399">
        <ele>281</ele>
        <time>2017-10-07T12:28:31Z</time>
      </trkpt>
      <trkpt lat="43.19735" lon="1.40408">
        <ele>282</ele>
        <time>2017-10-07T12:28:35Z</time>
      </trkpt>
      <trkpt lat="43.19735" lon="1.4041">
        <ele>282</ele>
        <time>2017-10-07T12:28:36Z</time>
      </trkpt>
      <trkpt lat="43.19734" lon="1.40412">
        <ele>283</ele>
        <time>2017-10-07T12:28:37Z</time>
      </trkpt>
      <trkpt lat="43.19733" lon="1.40414">
        <ele>283</ele>
        <time>2017-10-07T12:28:38Z</time>
      </trkpt>
      <trkpt lat="43.19733" lon="1.40417">
        <ele>283</ele>
        <time>2017-10-07T12:28:39Z</time>
      </trkpt>
      <trkpt lat="43.1973" lon="1.40425">
        <ele>284</ele>
        <time>2017-10-07T12:28:43Z</time>
      </trkpt>
      <trkpt lat="43.1973" lon="1.40427">
        <ele>284</ele>
        <time>2017-10-07T12:28:44Z</time>
      </trkpt>
      <trkpt lat="43.19729" lon="1.40429">
        <ele>285</ele>
        <time>2017-10-07T12:28:45Z</time>
      </trkpt>
      <trkpt lat="43.19728" lon="1.40431">
        <ele>285</ele>
        <time>2017-10-07T12:28:46Z</time>
      </trkpt>
      <trkpt lat="43.19727" lon="1.40433">
        <ele>286</ele>
        <time>2017-10-07T12:28:47Z</time>
      </trkpt>
      <trkpt lat="43.19725" lon="1.40436">
        <ele>286</ele>
        <time>2017-10-07T12:28:49Z</time>
      </trkpt>
      <trkpt lat="43.19722" lon="1.40442">
        <ele>286</ele>
        <time>2017-10-07T12:28:53Z</time>
      </trkpt>
      <trkpt lat="43.19721" lon="1.40444">
        <ele>287</ele>
        <time>2017-10-07T12:28:54Z</time>
      </trkpt>
      <trkpt lat="43.1972" lon="1.40445">
        <ele>287</ele>
        <time>2017-10-07T12:28:55Z</time>
      </trkpt>
      <trkpt lat="43.19719" lon="1.40447">
        <ele>287</ele>
        <time>2017-10-07T12:28:56Z</time>
      </trkpt>
      <trkpt lat="43.19718" lon="1.40449">
        <ele>288</ele>
        <time>2017-10-07T12:28:57Z</time>
      </trkpt>
      <trkpt lat="43.19715" lon="1.40455">
        <ele>288</ele>
        <time>2017-10-07T12:29:01Z</time>
      </trkpt>
      <trkpt lat="43.19714" lon="1.40457">
        <ele>289</ele>
        <time>2017-10-07T12:29:02Z</time>
      </trkpt>
      <trkpt lat="43.19713" lon="1.40459">
        <ele>289</ele>
        <time>2017-10-07T12:29:03Z</time>
      </trkpt>
      <trkpt lat="43.19712" lon="1.40461">
        <ele>290</ele>
        <time>2017-10-07T12:29:04Z</time>
      </trkpt>
      <trkpt lat="43.19712" lon="1.40463">
        <ele>290</ele>
        <time>2017-10-07T12:29:05Z</time>
      </trkpt>
      <trkpt lat="43.19708" lon="1.40472">
        <ele>290</ele>
        <time>2017-10-07T12:29:10Z</time>
      </trkpt>
      <trkpt lat="43.19707" lon="1.40474">
        <ele>291</ele>
        <time>2017-10-07T12:29:11Z</time>
      </trkpt>
      <trkpt lat="43.19707" lon="1.40475">
        <ele>291</ele>
        <time>2017-10-07T12:29:12Z</time>
      </trkpt>
      <trkpt lat="43.19706" lon="1.40478">
        <ele>292</ele>
        <time>2017-10-07T12:29:13Z</time>
      </trkpt>
      <trkpt lat="43.19706" lon="1.4048">
        <ele>292</ele>
        <time>2017-10-07T12:29:14Z</time>
      </trkpt>
      <trkpt lat="43.19703" lon="1.40491">
        <ele>292</ele>
        <time>2017-10-07T12:29:19Z</time>
      </trkpt>
      <trkpt lat="43.19702" lon="1.40496">
        <ele>292</ele>
        <time>2017-10-07T12:29:21Z</time>
      </trkpt>
      <trkpt lat="43.19702" lon="1.40498">
        <ele>293</ele>
        <time>2017-10-07T12:29:22Z</time>
      </trkpt>
      <trkpt lat="43.19701" lon="1.40501">
        <ele>293</ele>
        <time>2017-10-07T12:29:23Z</time>
      </trkpt>
      <trkpt lat="43.19701" lon="1.40504">
        <ele>294</ele>
        <time>2017-10-07T12:29:24Z</time>
      </trkpt>
      <trkpt lat="43.197" lon="1.40506">
        <ele>294</ele>
        <time>2017-10-07T12:29:25Z</time>
      </trkpt>
      <trkpt lat="43.19699" lon="1.40511">
        <ele>294</ele>
        <time>2017-10-07T12:29:27Z</time>
      </trkpt>
      <trkpt lat="43.19698" lon="1.40519">
        <ele>294</ele>
        <time>2017-10-07T12:29:30Z</time>
      </trkpt>
      <trkpt lat="43.19698" lon="1.40521">
        <ele>295</ele>
        <time>2017-10-07T12:29:31Z</time>
      </trkpt>
      <trkpt lat="43.19698" lon="1.40523">
        <ele>295</ele>
        <time>2017-10-07T12:29:32Z</time>
      </trkpt>
      <trkpt lat="43.19698" lon="1.40526">
        <ele>296</ele>
        <time>2017-10-07T12:29:33Z</time>
      </trkpt>
      <trkpt lat="43.19697" lon="1.40528">
        <ele>296</ele>
        <time>2017-10-07T12:29:34Z</time>
      </trkpt>
      <trkpt lat="43.19693" lon="1.40548">
        <ele>297</ele>
        <time>2017-10-07T12:29:42Z</time>
      </trkpt>
      <trkpt lat="43.19693" lon="1.40551">
        <ele>297</ele>
        <time>2017-10-07T12:29:43Z</time>
      </trkpt>
      <trkpt lat="43.19693" lon="1.40554">
        <ele>298</ele>
        <time>2017-10-07T12:29:44Z</time>
      </trkpt>
      <trkpt lat="43.19692" lon="1.40556">
        <ele>298</ele>
        <time>2017-10-07T12:29:45Z</time>
      </trkpt>
      <trkpt lat="43.19692" lon="1.40559">
        <ele>298</ele>
        <time>2017-10-07T12:29:46Z</time>
      </trkpt>
      <trkpt lat="43.19691" lon="1.40567">
        <ele>298</ele>
        <time>2017-10-07T12:29:49Z</time>
      </trkpt>
      <trkpt lat="43.1969" lon="1.40575">
        <ele>299</ele>
        <time>2017-10-07T12:29:52Z</time>
      </trkpt>
      <trkpt lat="43.19689" lon="1.40578">
        <ele>299</ele>
        <time>2017-10-07T12:29:53Z</time>
      </trkpt>
      <trkpt lat="43.19689" lon="1.4058">
        <ele>300</ele>
        <time>2017-10-07T12:29:54Z</time>
      </trkpt>
      <trkpt lat="43.19689" lon="1.40582">
        <ele>300</ele>
        <time>2017-10-07T12:29:55Z</time>
      </trkpt>
      <trkpt lat="43.19688" lon="1.40585">
        <ele>301</ele>
        <time>2017-10-07T12:29:56Z</time>
      </trkpt>
      <trkpt lat="43.19684" lon="1.40601">
        <ele>301</ele>
        <time>2017-10-07T12:30:02Z</time>
      </trkpt>
      <trkpt lat="43.19683" lon="1.40603">
        <ele>302</ele>
        <time>2017-10-07T12:30:03Z</time>
      </trkpt>
      <trkpt lat="43.19682" lon="1.40605">
        <ele>302</ele>
        <time>2017-10-07T12:30:04Z</time>
      </trkpt>
      <trkpt lat="43.19682" lon="1.40608">
        <ele>302</ele>
        <time>2017-10-07T12:30:05Z</time>
      </trkpt>
      <trkpt lat="43.19681" lon="1.4061">
        <ele>303</ele>
        <time>2017-10-07T12:30:06Z</time>
      </trkpt>
      <trkpt lat="43.19677" lon="1.40619">
        <ele>303</ele>
        <time>2017-10-07T12:30:10Z</time>
      </trkpt>
      <trkpt lat="43.19677" lon="1.40621">
        <ele>304</ele>
        <time>2017-10-07T12:30:11Z</time>
      </trkpt>
      <trkpt lat="43.19676" lon="1.40624">
        <ele>304</ele>
        <time>2017-10-07T12:30:12Z</time>
      </trkpt>
      <trkpt lat="43.19675" lon="1.40626">
        <ele>305</ele>
        <time>2017-10-07T12:30:13Z</time>
      </trkpt>
      <trkpt lat="43.19674" lon="1.40628">
        <ele>305</ele>
        <time>2017-10-07T12:30:14Z</time>
      </trkpt>
      <trkpt lat="43.19673" lon="1.4063">
        <ele>305</ele>
        <time>2017-10-07T12:30:15Z</time>
      </trkpt>
      <trkpt lat="43.19673" lon="1.40634">
        <ele>305</ele>
        <time>2017-10-07T12:30:18Z</time>
      </trkpt>
      <trkpt lat="43.19672" lon="1.40636">
        <ele>305</ele>
        <time>2017-10-07T12:30:50Z</time>
      </trkpt>
      <trkpt lat="43.19671" lon="1.40633">
        <ele>305</ele>
        <time>2017-10-07T12:30:54Z</time>
      </trkpt>
      <trkpt lat="43.19673" lon="1.40635">
        <ele>305</ele>
        <time>2017-10-07T12:46:41Z</time>
      </trkpt>
      <trkpt lat="43.19674" lon="1.40636">
        <ele>305</ele>
        <time>2017-10-07T12:46:42Z</time>
      </trkpt>
      <trkpt lat="43.19675" lon="1.40639">
        <ele>305</ele>
        <time>2017-10-07T12:46:45Z</time>
      </trkpt>
      <trkpt lat="43.19675" lon="1.40641">
        <ele>305</ele>
        <time>2017-10-07T12:46:48Z</time>
      </trkpt>
      <trkpt lat="43.19674" lon="1.40646">
        <ele>305</ele>
        <time>2017-10-07T12:46:54Z</time>
      </trkpt>
      <trkpt lat="43.19674" lon="1.40648">
        <ele>305</ele>
        <time>2017-10-07T12:51:10Z</time>
      </trkpt>
      <trkpt lat="43.19674" lon="1.4065">
        <ele>305</ele>
        <time>2017-10-07T12:51:11Z</time>
      </trkpt>
      <trkpt lat="43.19673" lon="1.40662">
        <ele>305</ele>
        <time>2017-10-07T12:51:16Z</time>
      </trkpt>
      <trkpt lat="43.19675" lon="1.40676">
        <ele>305</ele>
        <time>2017-10-07T12:51:21Z</time>
      </trkpt>
      <trkpt lat="43.19675" lon="1.40679">
        <ele>305</ele>
        <time>2017-10-07T12:51:22Z</time>
      </trkpt>
      <trkpt lat="43.19676" lon="1.40685">
        <ele>305</ele>
        <time>2017-10-07T12:51:24Z</time>
      </trkpt>
      <trkpt lat="43.19676" lon="1.40688">
        <ele>306</ele>
        <time>2017-10-07T12:51:25Z</time>
      </trkpt>
      <trkpt lat="43.19676" lon="1.40691">
        <ele>306</ele>
        <time>2017-10-07T12:51:26Z</time>
      </trkpt>
      <trkpt lat="43.19677" lon="1.40693">
        <ele>307</ele>
        <time>2017-10-07T12:51:27Z</time>
      </trkpt>
      <trkpt lat="43.19677" lon="1.40696">
        <ele>307</ele>
        <time>2017-10-07T12:51:28Z</time>
      </trkpt>
      <trkpt lat="43.19678" lon="1.40721">
        <ele>307</ele>
        <time>2017-10-07T12:51:36Z</time>
      </trkpt>
      <trkpt lat="43.19677" lon="1.40739">
        <ele>307</ele>
        <time>2017-10-07T12:51:42Z</time>
      </trkpt>
      <trkpt lat="43.19676" lon="1.40745">
        <ele>307</ele>
        <time>2017-10-07T12:51:44Z</time>
      </trkpt>
      <trkpt lat="43.19675" lon="1.40764">
        <ele>307</ele>
        <time>2017-10-07T12:51:50Z</time>
      </trkpt>
      <trkpt lat="43.19675" lon="1.40768">
        <ele>307</ele>
        <time>2017-10-07T12:51:51Z</time>
      </trkpt>
      <trkpt lat="43.19674" lon="1.40771">
        <ele>308</ele>
        <time>2017-10-07T12:51:52Z</time>
      </trkpt>
      <trkpt lat="43.19674" lon="1.40774">
        <ele>308</ele>
        <time>2017-10-07T12:51:53Z</time>
      </trkpt>
      <trkpt lat="43.19673" lon="1.40778">
        <ele>308</ele>
        <time>2017-10-07T12:51:54Z</time>
      </trkpt>
      <trkpt lat="43.19673" lon="1.40781">
        <ele>309</ele>
        <time>2017-10-07T12:51:55Z</time>
      </trkpt>
      <trkpt lat="43.19673" lon="1.40784">
        <ele>309</ele>
        <time>2017-10-07T12:51:56Z</time>
      </trkpt>
      <trkpt lat="43.19672" lon="1.40791">
        <ele>309</ele>
        <time>2017-10-07T12:51:58Z</time>
      </trkpt>
      <trkpt lat="43.19669" lon="1.40819">
        <ele>309</ele>
        <time>2017-10-07T12:52:06Z</time>
      </trkpt>
      <trkpt lat="43.19666" lon="1.40844">
        <ele>309</ele>
        <time>2017-10-07T12:52:13Z</time>
      </trkpt>
      <trkpt lat="43.19663" lon="1.40878">
        <ele>309</ele>
        <time>2017-10-07T12:52:22Z</time>
      </trkpt>
      <trkpt lat="43.1966" lon="1.40912">
        <ele>309</ele>
        <time>2017-10-07T12:52:31Z</time>
      </trkpt>
      <trkpt lat="43.19657" lon="1.40932">
        <ele>309</ele>
        <time>2017-10-07T12:52:36Z</time>
      </trkpt>
      <trkpt lat="43.19656" lon="1.4094">
        <ele>310</ele>
        <time>2017-10-07T12:52:38Z</time>
      </trkpt>
      <trkpt lat="43.19656" lon="1.40943">
        <ele>310</ele>
        <time>2017-10-07T12:52:39Z</time>
      </trkpt>
      <trkpt lat="43.19657" lon="1.40946">
        <ele>310</ele>
        <time>2017-10-07T12:52:40Z</time>
      </trkpt>
      <trkpt lat="43.19657" lon="1.4095">
        <ele>311</ele>
        <time>2017-10-07T12:52:41Z</time>
      </trkpt>
      <trkpt lat="43.19656" lon="1.40953">
        <ele>311</ele>
        <time>2017-10-07T12:52:42Z</time>
      </trkpt>
      <trkpt lat="43.19654" lon="1.40983">
        <ele>311</ele>
        <time>2017-10-07T12:52:50Z</time>
      </trkpt>
      <trkpt lat="43.19654" lon="1.41006">
        <ele>312</ele>
        <time>2017-10-07T12:52:56Z</time>
      </trkpt>
      <trkpt lat="43.19653" lon="1.4101">
        <ele>312</ele>
        <time>2017-10-07T12:52:57Z</time>
      </trkpt>
      <trkpt lat="43.19653" lon="1.41013">
        <ele>313</ele>
        <time>2017-10-07T12:52:58Z</time>
      </trkpt>
      <trkpt lat="43.19652" lon="1.41017">
        <ele>313</ele>
        <time>2017-10-07T12:52:59Z</time>
      </trkpt>
      <trkpt lat="43.19652" lon="1.41021">
        <ele>313</ele>
        <time>2017-10-07T12:53:00Z</time>
      </trkpt>
      <trkpt lat="43.19651" lon="1.41045">
        <ele>313</ele>
        <time>2017-10-07T12:53:07Z</time>
      </trkpt>
      <trkpt lat="43.19649" lon="1.41055">
        <ele>314</ele>
        <time>2017-10-07T12:53:10Z</time>
      </trkpt>
      <trkpt lat="43.19648" lon="1.41058">
        <ele>314</ele>
        <time>2017-10-07T12:53:11Z</time>
      </trkpt>
      <trkpt lat="43.19648" lon="1.41061">
        <ele>315</ele>
        <time>2017-10-07T12:53:12Z</time>
      </trkpt>
      <trkpt lat="43.19648" lon="1.41064">
        <ele>315</ele>
        <time>2017-10-07T12:53:13Z</time>
      </trkpt>
      <trkpt lat="43.19648" lon="1.41068">
        <ele>315</ele>
        <time>2017-10-07T12:53:14Z</time>
      </trkpt>
      <trkpt lat="43.19646" lon="1.41087">
        <ele>316</ele>
        <time>2017-10-07T12:53:20Z</time>
      </trkpt>
      <trkpt lat="43.19646" lon="1.4109">
        <ele>316</ele>
        <time>2017-10-07T12:53:21Z</time>
      </trkpt>
      <trkpt lat="43.19645" lon="1.41093">
        <ele>317</ele>
        <time>2017-10-07T12:53:22Z</time>
      </trkpt>
      <trkpt lat="43.19645" lon="1.41096">
        <ele>317</ele>
        <time>2017-10-07T12:53:23Z</time>
      </trkpt>
      <trkpt lat="43.19644" lon="1.41099">
        <ele>318</ele>
        <time>2017-10-07T12:53:24Z</time>
      </trkpt>
      <trkpt lat="43.19643" lon="1.41109">
        <ele>318</ele>
        <time>2017-10-07T12:53:27Z</time>
      </trkpt>
      <trkpt lat="43.19643" lon="1.41115">
        <ele>318</ele>
        <time>2017-10-07T12:53:29Z</time>
      </trkpt>
      <trkpt lat="43.19643" lon="1.41117">
        <ele>318</ele>
        <time>2017-10-07T12:53:30Z</time>
      </trkpt>
      <trkpt lat="43.19643" lon="1.4112">
        <ele>319</ele>
        <time>2017-10-07T12:53:31Z</time>
      </trkpt>
      <trkpt lat="43.19642" lon="1.41123">
        <ele>319</ele>
        <time>2017-10-07T12:53:32Z</time>
      </trkpt>
      <trkpt lat="43.19642" lon="1.41126">
        <ele>320</ele>
        <time>2017-10-07T12:53:33Z</time>
      </trkpt>
      <trkpt lat="43.19642" lon="1.4113">
        <ele>320</ele>
        <time>2017-10-07T12:53:35Z</time>
      </trkpt>
      <trkpt lat="43.19641" lon="1.41141">
        <ele>320</ele>
        <time>2017-10-07T12:53:39Z</time>
      </trkpt>
      <trkpt lat="43.19641" lon="1.41144">
        <ele>320</ele>
        <time>2017-10-07T12:53:40Z</time>
      </trkpt>
      <trkpt lat="43.19641" lon="1.41146">
        <ele>321</ele>
        <time>2017-10-07T12:53:41Z</time>
      </trkpt>
      <trkpt lat="43.19641" lon="1.41149">
        <ele>321</ele>
        <time>2017-10-07T12:53:42Z</time>
      </trkpt>
      <trkpt lat="43.19641" lon="1.41151">
        <ele>322</ele>
        <time>2017-10-07T12:53:43Z</time>
      </trkpt>
      <trkpt lat="43.19641" lon="1.41164">
        <ele>322</ele>
        <time>2017-10-07T12:53:48Z</time>
      </trkpt>
      <trkpt lat="43.19641" lon="1.41166">
        <ele>323</ele>
        <time>2017-10-07T12:53:49Z</time>
      </trkpt>
      <trkpt lat="43.19641" lon="1.41169">
        <ele>323</ele>
        <time>2017-10-07T12:53:50Z</time>
      </trkpt>
      <trkpt lat="43.19641" lon="1.41172">
        <ele>323</ele>
        <time>2017-10-07T12:53:51Z</time>
      </trkpt>
      <trkpt lat="43.19641" lon="1.41174">
        <ele>324</ele>
        <time>2017-10-07T12:53:52Z</time>
      </trkpt>
      <trkpt lat="43.19643" lon="1.41184">
        <ele>324</ele>
        <time>2017-10-07T12:53:57Z</time>
      </trkpt>
      <trkpt lat="43.19643" lon="1.41183">
        <ele>324</ele>
        <time>2017-10-07T12:53:58Z</time>
      </trkpt>
      <trkpt lat="43.19643" lon="1.41186">
        <ele>324</ele>
        <time>2017-10-07T12:54:24Z</time>
      </trkpt>
      <trkpt lat="43.19644" lon="1.41187">
        <ele>324</ele>
        <time>2017-10-07T12:54:25Z</time>
      </trkpt>
      <trkpt lat="43.19644" lon="1.41189">
        <ele>324</ele>
        <time>2017-10-07T12:54:26Z</time>
      </trkpt>
      <trkpt lat="43.19646" lon="1.412">
        <ele>324</ele>
        <time>2017-10-07T12:54:30Z</time>
      </trkpt>
      <trkpt lat="43.19646" lon="1.41202">
        <ele>325</ele>
        <time>2017-10-07T12:54:31Z</time>
      </trkpt>
      <trkpt lat="43.19646" lon="1.41205">
        <ele>325</ele>
        <time>2017-10-07T12:54:32Z</time>
      </trkpt>
      <trkpt lat="43.19646" lon="1.41208">
        <ele>326</ele>
        <time>2017-10-07T12:54:33Z</time>
      </trkpt>
      <trkpt lat="43.19647" lon="1.4121">
        <ele>326</ele>
        <time>2017-10-07T12:54:34Z</time>
      </trkpt>
      <trkpt lat="43.19646" lon="1.4121">
        <ele>326</ele>
        <time>2017-10-07T12:54:35Z</time>
      </trkpt>
      <trkpt lat="43.19645" lon="1.41211">
        <ele>326</ele>
        <time>2017-10-07T12:54:39Z</time>
      </trkpt>
      <trkpt lat="43.19646" lon="1.41213">
        <ele>326</ele>
        <time>2017-10-07T12:54:40Z</time>
      </trkpt>
      <trkpt lat="43.19647" lon="1.41224">
        <ele>326</ele>
        <time>2017-10-07T12:54:45Z</time>
      </trkpt>
      <trkpt lat="43.19649" lon="1.41241">
        <ele>326</ele>
        <time>2017-10-07T12:54:51Z</time>
      </trkpt>
      <trkpt lat="43.19649" lon="1.41243">
        <ele>326</ele>
        <time>2017-10-07T12:54:52Z</time>
      </trkpt>
      <trkpt lat="43.19651" lon="1.41257">
        <ele>326</ele>
        <time>2017-10-07T12:54:57Z</time>
      </trkpt>
      <trkpt lat="43.19654" lon="1.41271">
        <ele>326</ele>
        <time>2017-10-07T12:55:03Z</time>
      </trkpt>
      <trkpt lat="43.19654" lon="1.41279">
        <ele>326</ele>
        <time>2017-10-07T12:55:06Z</time>
      </trkpt>
      <trkpt lat="43.19655" lon="1.41282">
        <ele>327</ele>
        <time>2017-10-07T12:55:07Z</time>
      </trkpt>
      <trkpt lat="43.19655" lon="1.41285">
        <ele>327</ele>
        <time>2017-10-07T12:55:08Z</time>
      </trkpt>
      <trkpt lat="43.19655" lon="1.41288">
        <ele>328</ele>
        <time>2017-10-07T12:55:09Z</time>
      </trkpt>
      <trkpt lat="43.19655" lon="1.41291">
        <ele>328</ele>
        <time>2017-10-07T12:55:10Z</time>
      </trkpt>
      <trkpt lat="43.19656" lon="1.41302">
        <ele>328</ele>
        <time>2017-10-07T12:55:14Z</time>
      </trkpt>
      <trkpt lat="43.19656" lon="1.41324">
        <ele>328</ele>
        <time>2017-10-07T12:55:20Z</time>
      </trkpt>
      <trkpt lat="43.19657" lon="1.41357">
        <ele>328</ele>
        <time>2017-10-07T12:55:28Z</time>
      </trkpt>
      <trkpt lat="43.19657" lon="1.41386">
        <ele>328</ele>
        <time>2017-10-07T12:55:34Z</time>
      </trkpt>
      <trkpt lat="43.19657" lon="1.41426">
        <ele>328</ele>
        <time>2017-10-07T12:55:42Z</time>
      </trkpt>
      <trkpt lat="43.19658" lon="1.41467">
        <ele>328</ele>
        <time>2017-10-07T12:55:49Z</time>
      </trkpt>
      <trkpt lat="43.19659" lon="1.41485">
        <ele>328</ele>
        <time>2017-10-07T12:55:52Z</time>
      </trkpt>
      <trkpt lat="43.19657" lon="1.41518">
        <ele>328</ele>
        <time>2017-10-07T12:55:57Z</time>
      </trkpt>
      <trkpt lat="43.19656" lon="1.41524">
        <ele>328</ele>
        <time>2017-10-07T12:55:58Z</time>
      </trkpt>
      <trkpt lat="43.19647" lon="1.41553">
        <ele>328</ele>
        <time>2017-10-07T12:56:03Z</time>
      </trkpt>
      <trkpt lat="43.19645" lon="1.41558">
        <ele>328</ele>
        <time>2017-10-07T12:56:04Z</time>
      </trkpt>
      <trkpt lat="43.19644" lon="1.41563">
        <ele>328</ele>
        <time>2017-10-07T12:56:05Z</time>
      </trkpt>
      <trkpt lat="43.19642" lon="1.41568">
        <ele>329</ele>
        <time>2017-10-07T12:56:06Z</time>
      </trkpt>
      <trkpt lat="43.19641" lon="1.41572">
        <ele>329</ele>
        <time>2017-10-07T12:56:07Z</time>
      </trkpt>
      <trkpt lat="43.1964" lon="1.41577">
        <ele>330</ele>
        <time>2017-10-07T12:56:08Z</time>
      </trkpt>
      <trkpt lat="43.19638" lon="1.41582">
        <ele>330</ele>
        <time>2017-10-07T12:56:09Z</time>
      </trkpt>
      <trkpt lat="43.19636" lon="1.41591">
        <ele>330</ele>
        <time>2017-10-07T12:56:11Z</time>
      </trkpt>
      <trkpt lat="43.19634" lon="1.41606">
        <ele>331</ele>
        <time>2017-10-07T12:56:14Z</time>
      </trkpt>
      <trkpt lat="43.19634" lon="1.41611">
        <ele>331</ele>
        <time>2017-10-07T12:56:15Z</time>
      </trkpt>
      <trkpt lat="43.19635" lon="1.41616">
        <ele>331</ele>
        <time>2017-10-07T12:56:16Z</time>
      </trkpt>
      <trkpt lat="43.19636" lon="1.41621">
        <ele>332</ele>
        <time>2017-10-07T12:56:17Z</time>
      </trkpt>
      <trkpt lat="43.19637" lon="1.41626">
        <ele>332</ele>
        <time>2017-10-07T12:56:18Z</time>
      </trkpt>
      <trkpt lat="43.19643" lon="1.41648">
        <ele>332</ele>
        <time>2017-10-07T12:56:22Z</time>
      </trkpt>
      <trkpt lat="43.19656" lon="1.41689">
        <ele>332</ele>
        <time>2017-10-07T12:56:29Z</time>
      </trkpt>
      <trkpt lat="43.1967" lon="1.41731">
        <ele>331</ele>
        <time>2017-10-07T12:56:36Z</time>
      </trkpt>
      <trkpt lat="43.19672" lon="1.41736">
        <ele>331</ele>
        <time>2017-10-07T12:56:37Z</time>
      </trkpt>
      <trkpt lat="43.19674" lon="1.41742">
        <ele>330</ele>
        <time>2017-10-07T12:56:38Z</time>
      </trkpt>
      <trkpt lat="43.19676" lon="1.41748">
        <ele>330</ele>
        <time>2017-10-07T12:56:39Z</time>
      </trkpt>
      <trkpt lat="43.19681" lon="1.4176">
        <ele>330</ele>
        <time>2017-10-07T12:56:41Z</time>
      </trkpt>
      <trkpt lat="43.19682" lon="1.41767">
        <ele>330</ele>
        <time>2017-10-07T12:56:42Z</time>
      </trkpt>
      <trkpt lat="43.19675" lon="1.41778">
        <ele>330</ele>
        <time>2017-10-07T12:56:45Z</time>
      </trkpt>
      <trkpt lat="43.19659" lon="1.41778">
        <ele>330</ele>
        <time>2017-10-07T12:56:50Z</time>
      </trkpt>
      <trkpt lat="43.19646" lon="1.41784">
        <ele>330</ele>
        <time>2017-10-07T12:56:54Z</time>
      </trkpt>
      <trkpt lat="43.19643" lon="1.41787">
        <ele>330</ele>
        <time>2017-10-07T12:56:55Z</time>
      </trkpt>
      <trkpt lat="43.19631" lon="1.41808">
        <ele>330</ele>
        <time>2017-10-07T12:57:00Z</time>
      </trkpt>
      <trkpt lat="43.19616" lon="1.4184">
        <ele>330</ele>
        <time>2017-10-07T12:57:07Z</time>
      </trkpt>
      <trkpt lat="43.19607" lon="1.41858">
        <ele>330</ele>
        <time>2017-10-07T12:57:11Z</time>
      </trkpt>
      <trkpt lat="43.19602" lon="1.41867">
        <ele>330</ele>
        <time>2017-10-07T12:57:13Z</time>
      </trkpt>
      <trkpt lat="43.196" lon="1.41871">
        <ele>330</ele>
        <time>2017-10-07T12:57:14Z</time>
      </trkpt>
      <trkpt lat="43.19587" lon="1.41898">
        <ele>330</ele>
        <time>2017-10-07T12:57:19Z</time>
      </trkpt>
      <trkpt lat="43.1957" lon="1.41934">
        <ele>330</ele>
        <time>2017-10-07T12:57:25Z</time>
      </trkpt>
      <trkpt lat="43.19562" lon="1.41952">
        <ele>330</ele>
        <time>2017-10-07T12:57:28Z</time>
      </trkpt>
      <trkpt lat="43.19553" lon="1.41968">
        <ele>330</ele>
        <time>2017-10-07T12:57:31Z</time>
      </trkpt>
      <trkpt lat="43.1955" lon="1.41974">
        <ele>330</ele>
        <time>2017-10-07T12:57:32Z</time>
      </trkpt>
      <trkpt lat="43.19541" lon="1.41998">
        <ele>330</ele>
        <time>2017-10-07T12:57:36Z</time>
      </trkpt>
      <trkpt lat="43.19535" lon="1.4201">
        <ele>330</ele>
        <time>2017-10-07T12:57:38Z</time>
      </trkpt>
      <trkpt lat="43.19527" lon="1.42028">
        <ele>330</ele>
        <time>2017-10-07T12:57:41Z</time>
      </trkpt>
      <trkpt lat="43.19516" lon="1.42051">
        <ele>330</ele>
        <time>2017-10-07T12:57:45Z</time>
      </trkpt>
      <trkpt lat="43.19513" lon="1.42057">
        <ele>330</ele>
        <time>2017-10-07T12:57:46Z</time>
      </trkpt>
      <trkpt lat="43.19504" lon="1.42077">
        <ele>330</ele>
        <time>2017-10-07T12:57:50Z</time>
      </trkpt>
      <trkpt lat="43.19502" lon="1.42081">
        <ele>331</ele>
        <time>2017-10-07T12:57:51Z</time>
      </trkpt>
      <trkpt lat="43.195" lon="1.42086">
        <ele>331</ele>
        <time>2017-10-07T12:57:52Z</time>
      </trkpt>
      <trkpt lat="43.19498" lon="1.4209">
        <ele>332</ele>
        <time>2017-10-07T12:57:53Z</time>
      </trkpt>
      <trkpt lat="43.19496" lon="1.42095">
        <ele>332</ele>
        <time>2017-10-07T12:57:54Z</time>
      </trkpt>
      <trkpt lat="43.19488" lon="1.42113">
        <ele>332</ele>
        <time>2017-10-07T12:57:58Z</time>
      </trkpt>
      <trkpt lat="43.19485" lon="1.42122">
        <ele>333</ele>
        <time>2017-10-07T12:58:00Z</time>
      </trkpt>
      <trkpt lat="43.19484" lon="1.42125">
        <ele>333</ele>
        <time>2017-10-07T12:58:01Z</time>
      </trkpt>
      <trkpt lat="43.19482" lon="1.42129">
        <ele>334</ele>
        <time>2017-10-07T12:58:02Z</time>
      </trkpt>
      <trkpt lat="43.19481" lon="1.42133">
        <ele>334</ele>
        <time>2017-10-07T12:58:03Z</time>
      </trkpt>
      <trkpt lat="43.19479" lon="1.42136">
        <ele>334</ele>
        <time>2017-10-07T12:58:04Z</time>
      </trkpt>
      <trkpt lat="43.19476" lon="1.42144">
        <ele>335</ele>
        <time>2017-10-07T12:58:06Z</time>
      </trkpt>
      <trkpt lat="43.19474" lon="1.42148">
        <ele>335</ele>
        <time>2017-10-07T12:58:07Z</time>
      </trkpt>
      <trkpt lat="43.19472" lon="1.42152">
        <ele>336</ele>
        <time>2017-10-07T12:58:08Z</time>
      </trkpt>
      <trkpt lat="43.1947" lon="1.42155">
        <ele>336</ele>
        <time>2017-10-07T12:58:09Z</time>
      </trkpt>
      <trkpt lat="43.19468" lon="1.4216">
        <ele>337</ele>
        <time>2017-10-07T12:58:10Z</time>
      </trkpt>
      <trkpt lat="43.19464" lon="1.42171">
        <ele>337</ele>
        <time>2017-10-07T12:58:13Z</time>
      </trkpt>
      <trkpt lat="43.19456" lon="1.42187">
        <ele>337</ele>
        <time>2017-10-07T12:58:17Z</time>
      </trkpt>
      <trkpt lat="43.19455" lon="1.42191">
        <ele>337</ele>
        <time>2017-10-07T12:58:18Z</time>
      </trkpt>
      <trkpt lat="43.19453" lon="1.42195">
        <ele>338</ele>
        <time>2017-10-07T12:58:19Z</time>
      </trkpt>
      <trkpt lat="43.19451" lon="1.42199">
        <ele>338</ele>
        <time>2017-10-07T12:58:20Z</time>
      </trkpt>
      <trkpt lat="43.19449" lon="1.42203">
        <ele>339</ele>
        <time>2017-10-07T12:58:21Z</time>
      </trkpt>
      <trkpt lat="43.19438" lon="1.42224">
        <ele>339</ele>
        <time>2017-10-07T12:58:26Z</time>
      </trkpt>
      <trkpt lat="43.19419" lon="1.42251">
        <ele>339</ele>
        <time>2017-10-07T12:58:32Z</time>
      </trkpt>
      <trkpt lat="43.1941" lon="1.4226">
        <ele>339</ele>
        <time>2017-10-07T12:58:34Z</time>
      </trkpt>
      <trkpt lat="43.19398" lon="1.42267">
        <ele>339</ele>
        <time>2017-10-07T12:58:36Z</time>
      </trkpt>
      <trkpt lat="43.19376" lon="1.42271">
        <ele>338</ele>
        <time>2017-10-07T12:58:39Z</time>
      </trkpt>
      <trkpt lat="43.19368" lon="1.42271">
        <ele>337</ele>
        <time>2017-10-07T12:58:40Z</time>
      </trkpt>
      <trkpt lat="43.1936" lon="1.42272">
        <ele>337</ele>
        <time>2017-10-07T12:58:41Z</time>
      </trkpt>
      <trkpt lat="43.19352" lon="1.42273">
        <ele>336</ele>
        <time>2017-10-07T12:58:42Z</time>
      </trkpt>
      <trkpt lat="43.19336" lon="1.42276">
        <ele>336</ele>
        <time>2017-10-07T12:58:44Z</time>
      </trkpt>
      <trkpt lat="43.19328" lon="1.42278">
        <ele>335</ele>
        <time>2017-10-07T12:58:45Z</time>
      </trkpt>
      <trkpt lat="43.1932" lon="1.42281">
        <ele>335</ele>
        <time>2017-10-07T12:58:46Z</time>
      </trkpt>
      <trkpt lat="43.19313" lon="1.42285">
        <ele>335</ele>
        <time>2017-10-07T12:58:47Z</time>
      </trkpt>
      <trkpt lat="43.19306" lon="1.42289">
        <ele>334</ele>
        <time>2017-10-07T12:58:48Z</time>
      </trkpt>
      <trkpt lat="43.19299" lon="1.42293">
        <ele>334</ele>
        <time>2017-10-07T12:58:49Z</time>
      </trkpt>
      <trkpt lat="43.19287" lon="1.42303">
        <ele>334</ele>
        <time>2017-10-07T12:58:51Z</time>
      </trkpt>
      <trkpt lat="43.19271" lon="1.42317">
        <ele>334</ele>
        <time>2017-10-07T12:58:54Z</time>
      </trkpt>
      <trkpt lat="43.19261" lon="1.42326">
        <ele>334</ele>
        <time>2017-10-07T12:58:56Z</time>
      </trkpt>
      <trkpt lat="43.19229" lon="1.42354">
        <ele>334</ele>
        <time>2017-10-07T12:59:03Z</time>
      </trkpt>
      <trkpt lat="43.19202" lon="1.42375">
        <ele>334</ele>
        <time>2017-10-07T12:59:09Z</time>
      </trkpt>
      <trkpt lat="43.19197" lon="1.42378">
        <ele>335</ele>
        <time>2017-10-07T12:59:10Z</time>
      </trkpt>
      <trkpt lat="43.19193" lon="1.42382">
        <ele>335</ele>
        <time>2017-10-07T12:59:11Z</time>
      </trkpt>
      <trkpt lat="43.19189" lon="1.42385">
        <ele>336</ele>
        <time>2017-10-07T12:59:12Z</time>
      </trkpt>
      <trkpt lat="43.19185" lon="1.42389">
        <ele>336</ele>
        <time>2017-10-07T12:59:13Z</time>
      </trkpt>
      <trkpt lat="43.19167" lon="1.42403">
        <ele>337</ele>
        <time>2017-10-07T12:59:18Z</time>
      </trkpt>
      <trkpt lat="43.19164" lon="1.42404">
        <ele>337</ele>
        <time>2017-10-07T12:59:19Z</time>
      </trkpt>
      <trkpt lat="43.19161" lon="1.42406">
        <ele>337</ele>
        <time>2017-10-07T12:59:20Z</time>
      </trkpt>
      <trkpt lat="43.19159" lon="1.42408">
        <ele>338</ele>
        <time>2017-10-07T12:59:21Z</time>
      </trkpt>
      <trkpt lat="43.19156" lon="1.4241">
        <ele>338</ele>
        <time>2017-10-07T12:59:22Z</time>
      </trkpt>
      <trkpt lat="43.19152" lon="1.42417">
        <ele>338</ele>
        <time>2017-10-07T12:59:24Z</time>
      </trkpt>
      <trkpt lat="43.19148" lon="1.42429">
        <ele>339</ele>
        <time>2017-10-07T12:59:27Z</time>
      </trkpt>
      <trkpt lat="43.19147" lon="1.42432">
        <ele>339</ele>
        <time>2017-10-07T12:59:28Z</time>
      </trkpt>
      <trkpt lat="43.19146" lon="1.42435">
        <ele>340</ele>
        <time>2017-10-07T12:59:29Z</time>
      </trkpt>
      <trkpt lat="43.19145" lon="1.42438">
        <ele>341</ele>
        <time>2017-10-07T12:59:30Z</time>
      </trkpt>
      <trkpt lat="43.1914" lon="1.42453">
        <ele>341</ele>
        <time>2017-10-07T12:59:34Z</time>
      </trkpt>
      <trkpt lat="43.19134" lon="1.42489">
        <ele>341</ele>
        <time>2017-10-07T12:59:41Z</time>
      </trkpt>
      <trkpt lat="43.19132" lon="1.4253">
        <ele>341</ele>
        <time>2017-10-07T12:59:47Z</time>
      </trkpt>
      <trkpt lat="43.19133" lon="1.42577">
        <ele>341</ele>
        <time>2017-10-07T12:59:53Z</time>
      </trkpt>
      <trkpt lat="43.19134" lon="1.42602">
        <ele>341</ele>
        <time>2017-10-07T12:59:56Z</time>
      </trkpt>
      <trkpt lat="43.19134" lon="1.42618">
        <ele>341</ele>
        <time>2017-10-07T12:59:58Z</time>
      </trkpt>
      <trkpt lat="43.19134" lon="1.42626">
        <ele>340</ele>
        <time>2017-10-07T12:59:59Z</time>
      </trkpt>
      <trkpt lat="43.19134" lon="1.42634">
        <ele>340</ele>
        <time>2017-10-07T13:00:00Z</time>
      </trkpt>
      <trkpt lat="43.19134" lon="1.42643">
        <ele>339</ele>
        <time>2017-10-07T13:00:01Z</time>
      </trkpt>
      <trkpt lat="43.19134" lon="1.42651">
        <ele>339</ele>
        <time>2017-10-07T13:00:02Z</time>
      </trkpt>
      <trkpt lat="43.19133" lon="1.4266">
        <ele>338</ele>
        <time>2017-10-07T13:00:03Z</time>
      </trkpt>
      <trkpt lat="43.1913" lon="1.42691">
        <ele>338</ele>
        <time>2017-10-07T13:00:07Z</time>
      </trkpt>
      <trkpt lat="43.19127" lon="1.42707">
        <ele>338</ele>
        <time>2017-10-07T13:00:09Z</time>
      </trkpt>
      <trkpt lat="43.19117" lon="1.42759">
        <ele>338</ele>
        <time>2017-10-07T13:00:16Z</time>
      </trkpt>
      <trkpt lat="43.19114" lon="1.42772">
        <ele>338</ele>
        <time>2017-10-07T13:00:18Z</time>
      </trkpt>
      <trkpt lat="43.19106" lon="1.42803">
        <ele>339</ele>
        <time>2017-10-07T13:00:23Z</time>
      </trkpt>
      <trkpt lat="43.19104" lon="1.42809">
        <ele>339</ele>
        <time>2017-10-07T13:00:24Z</time>
      </trkpt>
      <trkpt lat="43.19103" lon="1.42815">
        <ele>340</ele>
        <time>2017-10-07T13:00:25Z</time>
      </trkpt>
      <trkpt lat="43.19101" lon="1.4282">
        <ele>340</ele>
        <time>2017-10-07T13:00:26Z</time>
      </trkpt>
      <trkpt lat="43.19099" lon="1.42826">
        <ele>341</ele>
        <time>2017-10-07T13:00:27Z</time>
      </trkpt>
      <trkpt lat="43.19085" lon="1.42868">
        <ele>341</ele>
        <time>2017-10-07T13:00:34Z</time>
      </trkpt>
      <trkpt lat="43.19079" lon="1.42886">
        <ele>341</ele>
        <time>2017-10-07T13:00:37Z</time>
      </trkpt>
      <trkpt lat="43.19075" lon="1.42898">
        <ele>341</ele>
        <time>2017-10-07T13:00:39Z</time>
      </trkpt>
      <trkpt lat="43.19073" lon="1.42903">
        <ele>341</ele>
        <time>2017-10-07T13:00:40Z</time>
      </trkpt>
      <trkpt lat="43.19066" lon="1.42925">
        <ele>341</ele>
        <time>2017-10-07T13:00:44Z</time>
      </trkpt>
      <trkpt lat="43.19062" lon="1.42938">
        <ele>341</ele>
        <time>2017-10-07T13:00:47Z</time>
      </trkpt>
      <trkpt lat="43.19056" lon="1.42969">
        <ele>341</ele>
        <time>2017-10-07T13:00:54Z</time>
      </trkpt>
      <trkpt lat="43.19054" lon="1.42986">
        <ele>341</ele>
        <time>2017-10-07T13:00:59Z</time>
      </trkpt>
      <trkpt lat="43.19054" lon="1.42986">
        <ele>341</ele>
        <time>2017-10-07T13:01:00Z</time>
      </trkpt>
      <trkpt lat="43.19054" lon="1.42986">
        <ele>341</ele>
        <time>2017-10-07T13:01:24Z</time>
      </trkpt>
      <trkpt lat="43.19054" lon="1.42989">
        <ele>341</ele>
        <time>2017-10-07T13:01:25Z</time>
      </trkpt>
      <trkpt lat="43.19054" lon="1.42991">
        <ele>341</ele>
        <time>2017-10-07T13:01:26Z</time>
      </trkpt>
      <trkpt lat="43.19053" lon="1.43007">
        <ele>341</ele>
        <time>2017-10-07T13:01:31Z</time>
      </trkpt>
      <trkpt lat="43.19051" lon="1.43023">
        <ele>341</ele>
        <time>2017-10-07T13:01:35Z</time>
      </trkpt>
      <trkpt lat="43.19051" lon="1.43029">
        <ele>341</ele>
        <time>2017-10-07T13:01:36Z</time>
      </trkpt>
      <trkpt lat="43.1905" lon="1.43034">
        <ele>342</ele>
        <time>2017-10-07T13:01:37Z</time>
      </trkpt>
      <trkpt lat="43.1905" lon="1.43039">
        <ele>342</ele>
        <time>2017-10-07T13:01:38Z</time>
      </trkpt>
      <trkpt lat="43.1905" lon="1.43044">
        <ele>343</ele>
        <time>2017-10-07T13:01:39Z</time>
      </trkpt>
      <trkpt lat="43.1905" lon="1.43052">
        <ele>343</ele>
        <time>2017-10-07T13:01:41Z</time>
      </trkpt>
      <trkpt lat="43.1905" lon="1.4306">
        <ele>343</ele>
        <time>2017-10-07T13:01:43Z</time>
      </trkpt>
      <trkpt lat="43.19046" lon="1.43073">
        <ele>343</ele>
        <time>2017-10-07T13:01:46Z</time>
      </trkpt>
      <trkpt lat="43.19046" lon="1.43095">
        <ele>343</ele>
        <time>2017-10-07T13:01:50Z</time>
      </trkpt>
      <trkpt lat="43.19046" lon="1.43127">
        <ele>343</ele>
        <time>2017-10-07T13:01:56Z</time>
      </trkpt>
      <trkpt lat="43.19044" lon="1.4316">
        <ele>343</ele>
        <time>2017-10-07T13:02:02Z</time>
      </trkpt>
      <trkpt lat="43.19042" lon="1.43203">
        <ele>343</ele>
        <time>2017-10-07T13:02:10Z</time>
      </trkpt>
      <trkpt lat="43.19041" lon="1.43209">
        <ele>343</ele>
        <time>2017-10-07T13:02:11Z</time>
      </trkpt>
      <trkpt lat="43.19039" lon="1.43237">
        <ele>343</ele>
        <time>2017-10-07T13:02:16Z</time>
      </trkpt>
      <trkpt lat="43.19039" lon="1.43243">
        <ele>343</ele>
        <time>2017-10-07T13:02:17Z</time>
      </trkpt>
      <trkpt lat="43.19034" lon="1.43278">
        <ele>343</ele>
        <time>2017-10-07T13:02:22Z</time>
      </trkpt>
      <trkpt lat="43.19027" lon="1.43313">
        <ele>342</ele>
        <time>2017-10-07T13:02:26Z</time>
      </trkpt>
      <trkpt lat="43.19025" lon="1.43322">
        <ele>342</ele>
        <time>2017-10-07T13:02:27Z</time>
      </trkpt>
      <trkpt lat="43.19022" lon="1.4333">
        <ele>341</ele>
        <time>2017-10-07T13:02:28Z</time>
      </trkpt>
      <trkpt lat="43.19019" lon="1.43337">
        <ele>341</ele>
        <time>2017-10-07T13:02:29Z</time>
      </trkpt>
      <trkpt lat="43.19016" lon="1.43345">
        <ele>341</ele>
        <time>2017-10-07T13:02:30Z</time>
      </trkpt>
      <trkpt lat="43.19001" lon="1.43379">
        <ele>341</ele>
        <time>2017-10-07T13:02:35Z</time>
      </trkpt>
      <trkpt lat="43.18991" lon="1.43404">
        <ele>341</ele>
        <time>2017-10-07T13:02:40Z</time>
      </trkpt>
      <trkpt lat="43.1899" lon="1.43408">
        <ele>340</ele>
        <time>2017-10-07T13:02:41Z</time>
      </trkpt>
      <trkpt lat="43.18989" lon="1.43412">
        <ele>340</ele>
        <time>2017-10-07T13:02:42Z</time>
      </trkpt>
      <trkpt lat="43.18987" lon="1.43417">
        <ele>339</ele>
        <time>2017-10-07T13:02:43Z</time>
      </trkpt>
      <trkpt lat="43.18986" lon="1.43422">
        <ele>339</ele>
        <time>2017-10-07T13:02:44Z</time>
      </trkpt>
      <trkpt lat="43.18984" lon="1.43427">
        <ele>338</ele>
        <time>2017-10-07T13:02:45Z</time>
      </trkpt>
      <trkpt lat="43.1898" lon="1.43445">
        <ele>338</ele>
        <time>2017-10-07T13:02:48Z</time>
      </trkpt>
      <trkpt lat="43.18979" lon="1.43451">
        <ele>338</ele>
        <time>2017-10-07T13:02:49Z</time>
      </trkpt>
      <trkpt lat="43.18977" lon="1.43477">
        <ele>338</ele>
        <time>2017-10-07T13:02:53Z</time>
      </trkpt>
      <trkpt lat="43.18977" lon="1.43498">
        <ele>338</ele>
        <time>2017-10-07T13:02:56Z</time>
      </trkpt>
      <trkpt lat="43.18978" lon="1.43546">
        <ele>338</ele>
        <time>2017-10-07T13:03:03Z</time>
      </trkpt>
      <trkpt lat="43.18982" lon="1.43581">
        <ele>338</ele>
        <time>2017-10-07T13:03:08Z</time>
      </trkpt>
      <trkpt lat="43.18986" lon="1.43595">
        <ele>338</ele>
        <time>2017-10-07T13:03:10Z</time>
      </trkpt>
      <trkpt lat="43.18996" lon="1.43631">
        <ele>338</ele>
        <time>2017-10-07T13:03:15Z</time>
      </trkpt>
      <trkpt lat="43.18999" lon="1.43645">
        <ele>338</ele>
        <time>2017-10-07T13:03:17Z</time>
      </trkpt>
      <trkpt lat="43.19005" lon="1.43672">
        <ele>339</ele>
        <time>2017-10-07T13:03:21Z</time>
      </trkpt>
      <trkpt lat="43.19006" lon="1.43678">
        <ele>339</ele>
        <time>2017-10-07T13:03:22Z</time>
      </trkpt>
      <trkpt lat="43.19008" lon="1.43684">
        <ele>339</ele>
        <time>2017-10-07T13:03:23Z</time>
      </trkpt>
      <trkpt lat="43.19009" lon="1.43691">
        <ele>340</ele>
        <time>2017-10-07T13:03:24Z</time>
      </trkpt>
      <trkpt lat="43.1901" lon="1.43696">
        <ele>340</ele>
        <time>2017-10-07T13:03:25Z</time>
      </trkpt>
      <trkpt lat="43.19011" lon="1.43711">
        <ele>340</ele>
        <time>2017-10-07T13:03:28Z</time>
      </trkpt>
      <trkpt lat="43.19013" lon="1.43743">
        <ele>340</ele>
        <time>2017-10-07T13:03:33Z</time>
      </trkpt>
      <trkpt lat="43.19014" lon="1.43797">
        <ele>340</ele>
        <time>2017-10-07T13:03:39Z</time>
      </trkpt>
      <trkpt lat="43.19014" lon="1.43807">
        <ele>340</ele>
        <time>2017-10-07T13:03:40Z</time>
      </trkpt>
      <trkpt lat="43.19013" lon="1.43816">
        <ele>339</ele>
        <time>2017-10-07T13:03:41Z</time>
      </trkpt>
      <trkpt lat="43.19013" lon="1.43826">
        <ele>339</ele>
        <time>2017-10-07T13:03:42Z</time>
      </trkpt>
      <trkpt lat="43.19013" lon="1.43837">
        <ele>339</ele>
        <time>2017-10-07T13:03:43Z</time>
      </trkpt>
      <trkpt lat="43.19013" lon="1.43847">
        <ele>338</ele>
        <time>2017-10-07T13:03:44Z</time>
      </trkpt>
      <trkpt lat="43.19013" lon="1.4388">
        <ele>338</ele>
        <time>2017-10-07T13:03:47Z</time>
      </trkpt>
      <trkpt lat="43.19013" lon="1.43893">
        <ele>337</ele>
        <time>2017-10-07T13:03:48Z</time>
      </trkpt>
      <trkpt lat="43.19013" lon="1.43906">
        <ele>337</ele>
        <time>2017-10-07T13:03:49Z</time>
      </trkpt>
      <trkpt lat="43.19014" lon="1.4392">
        <ele>336</ele>
        <time>2017-10-07T13:03:50Z</time>
      </trkpt>
      <trkpt lat="43.19014" lon="1.43934">
        <ele>336</ele>
        <time>2017-10-07T13:03:51Z</time>
      </trkpt>
      <trkpt lat="43.19015" lon="1.43948">
        <ele>335</ele>
        <time>2017-10-07T13:03:52Z</time>
      </trkpt>
      <trkpt lat="43.19015" lon="1.43962">
        <ele>335</ele>
        <time>2017-10-07T13:03:53Z</time>
      </trkpt>
      <trkpt lat="43.19016" lon="1.43976">
        <ele>334</ele>
        <time>2017-10-07T13:03:54Z</time>
      </trkpt>
      <trkpt lat="43.19016" lon="1.43989">
        <ele>333</ele>
        <time>2017-10-07T13:03:55Z</time>
      </trkpt>
      <trkpt lat="43.19017" lon="1.44002">
        <ele>332</ele>
        <time>2017-10-07T13:03:56Z</time>
      </trkpt>
      <trkpt lat="43.19019" lon="1.44015">
        <ele>331</ele>
        <time>2017-10-07T13:03:57Z</time>
      </trkpt>
      <trkpt lat="43.19021" lon="1.44027">
        <ele>331</ele>
        <time>2017-10-07T13:03:58Z</time>
      </trkpt>
      <trkpt lat="43.19022" lon="1.44037">
        <ele>330</ele>
        <time>2017-10-07T13:03:59Z</time>
      </trkpt>
      <trkpt lat="43.19024" lon="1.44046">
        <ele>329</ele>
        <time>2017-10-07T13:04:00Z</time>
      </trkpt>
      <trkpt lat="43.19025" lon="1.44053">
        <ele>328</ele>
        <time>2017-10-07T13:04:01Z</time>
      </trkpt>
      <trkpt lat="43.19025" lon="1.44059">
        <ele>327</ele>
        <time>2017-10-07T13:04:02Z</time>
      </trkpt>
      <trkpt lat="43.19026" lon="1.44065">
        <ele>327</ele>
        <time>2017-10-07T13:04:03Z</time>
      </trkpt>
      <trkpt lat="43.19026" lon="1.44069">
        <ele>326</ele>
        <time>2017-10-07T13:04:04Z</time>
      </trkpt>
      <trkpt lat="43.19027" lon="1.44074">
        <ele>325</ele>
        <time>2017-10-07T13:04:05Z</time>
      </trkpt>
      <trkpt lat="43.19028" lon="1.44079">
        <ele>325</ele>
        <time>2017-10-07T13:04:06Z</time>
      </trkpt>
      <trkpt lat="43.1903" lon="1.4409">
        <ele>325</ele>
        <time>2017-10-07T13:04:08Z</time>
      </trkpt>
      <trkpt lat="43.1903" lon="1.44103">
        <ele>325</ele>
        <time>2017-10-07T13:04:10Z</time>
      </trkpt>
      <trkpt lat="43.1903" lon="1.44116">
        <ele>325</ele>
        <time>2017-10-07T13:04:12Z</time>
      </trkpt>
      <trkpt lat="43.19031" lon="1.44132">
        <ele>325</ele>
        <time>2017-10-07T13:04:15Z</time>
      </trkpt>
      <trkpt lat="43.19032" lon="1.44138">
        <ele>325</ele>
        <time>2017-10-07T13:04:16Z</time>
      </trkpt>
      <trkpt lat="43.19032" lon="1.44144">
        <ele>325</ele>
        <time>2017-10-07T13:04:17Z</time>
      </trkpt>
      <trkpt lat="43.19034" lon="1.44156">
        <ele>325</ele>
        <time>2017-10-07T13:04:19Z</time>
      </trkpt>
      <trkpt lat="43.19036" lon="1.44176">
        <ele>325</ele>
        <time>2017-10-07T13:04:22Z</time>
      </trkpt>
      <trkpt lat="43.19038" lon="1.44194">
        <ele>325</ele>
        <time>2017-10-07T13:04:25Z</time>
      </trkpt>
      <trkpt lat="43.19038" lon="1.442">
        <ele>325</ele>
        <time>2017-10-07T13:04:26Z</time>
      </trkpt>
      <trkpt lat="43.1904" lon="1.44225">
        <ele>325</ele>
        <time>2017-10-07T13:04:30Z</time>
      </trkpt>
      <trkpt lat="43.1904" lon="1.44231">
        <ele>325</ele>
        <time>2017-10-07T13:04:31Z</time>
      </trkpt>
      <trkpt lat="43.19041" lon="1.44243">
        <ele>325</ele>
        <time>2017-10-07T13:04:33Z</time>
      </trkpt>
      <trkpt lat="43.19041" lon="1.44255">
        <ele>325</ele>
        <time>2017-10-07T13:04:35Z</time>
      </trkpt>
      <trkpt lat="43.19042" lon="1.44288">
        <ele>325</ele>
        <time>2017-10-07T13:04:41Z</time>
      </trkpt>
      <trkpt lat="43.19042" lon="1.4431">
        <ele>325</ele>
        <time>2017-10-07T13:04:45Z</time>
      </trkpt>
      <trkpt lat="43.19042" lon="1.44322">
        <ele>325</ele>
        <time>2017-10-07T13:04:47Z</time>
      </trkpt>
      <trkpt lat="43.19042" lon="1.44335">
        <ele>324</ele>
        <time>2017-10-07T13:04:49Z</time>
      </trkpt>
      <trkpt lat="43.19042" lon="1.44342">
        <ele>323</ele>
        <time>2017-10-07T13:04:50Z</time>
      </trkpt>
      <trkpt lat="43.19042" lon="1.4435">
        <ele>323</ele>
        <time>2017-10-07T13:04:51Z</time>
      </trkpt>
      <trkpt lat="43.19042" lon="1.44357">
        <ele>322</ele>
        <time>2017-10-07T13:04:52Z</time>
      </trkpt>
      <trkpt lat="43.19046" lon="1.44405">
        <ele>322</ele>
        <time>2017-10-07T13:04:58Z</time>
      </trkpt>
      <trkpt lat="43.19047" lon="1.44413">
        <ele>321</ele>
        <time>2017-10-07T13:04:59Z</time>
      </trkpt>
      <trkpt lat="43.19048" lon="1.44421">
        <ele>321</ele>
        <time>2017-10-07T13:05:00Z</time>
      </trkpt>
      <trkpt lat="43.19049" lon="1.44429">
        <ele>320</ele>
        <time>2017-10-07T13:05:01Z</time>
      </trkpt>
      <trkpt lat="43.1905" lon="1.44436">
        <ele>320</ele>
        <time>2017-10-07T13:05:02Z</time>
      </trkpt>
      <trkpt lat="43.1905" lon="1.44444">
        <ele>319</ele>
        <time>2017-10-07T13:05:03Z</time>
      </trkpt>
      <trkpt lat="43.1905" lon="1.44452">
        <ele>319</ele>
        <time>2017-10-07T13:05:04Z</time>
      </trkpt>
      <trkpt lat="43.19049" lon="1.44461">
        <ele>318</ele>
        <time>2017-10-07T13:05:05Z</time>
      </trkpt>
      <trkpt lat="43.19048" lon="1.44469">
        <ele>318</ele>
        <time>2017-10-07T13:05:06Z</time>
      </trkpt>
      <trkpt lat="43.19047" lon="1.44486">
        <ele>317</ele>
        <time>2017-10-07T13:05:08Z</time>
      </trkpt>
      <trkpt lat="43.19046" lon="1.44495">
        <ele>317</ele>
        <time>2017-10-07T13:05:09Z</time>
      </trkpt>
      <trkpt lat="43.19045" lon="1.44503">
        <ele>317</ele>
        <time>2017-10-07T13:05:10Z</time>
      </trkpt>
      <trkpt lat="43.19044" lon="1.44511">
        <ele>316</ele>
        <time>2017-10-07T13:05:11Z</time>
      </trkpt>
      <trkpt lat="43.19043" lon="1.44519">
        <ele>316</ele>
        <time>2017-10-07T13:05:12Z</time>
      </trkpt>
      <trkpt lat="43.19042" lon="1.44535">
        <ele>315</ele>
        <time>2017-10-07T13:05:14Z</time>
      </trkpt>
      <trkpt lat="43.19041" lon="1.44542">
        <ele>315</ele>
        <time>2017-10-07T13:05:15Z</time>
      </trkpt>
      <trkpt lat="43.1904" lon="1.44549">
        <ele>314</ele>
        <time>2017-10-07T13:05:16Z</time>
      </trkpt>
      <trkpt lat="43.1904" lon="1.44556">
        <ele>314</ele>
        <time>2017-10-07T13:05:17Z</time>
      </trkpt>
      <trkpt lat="43.19039" lon="1.44563">
        <ele>314</ele>
        <time>2017-10-07T13:05:18Z</time>
      </trkpt>
      <trkpt lat="43.19036" lon="1.44585">
        <ele>314</ele>
        <time>2017-10-07T13:05:21Z</time>
      </trkpt>
      <trkpt lat="43.19032" lon="1.44599">
        <ele>313</ele>
        <time>2017-10-07T13:05:23Z</time>
      </trkpt>
      <trkpt lat="43.1903" lon="1.44606">
        <ele>313</ele>
        <time>2017-10-07T13:05:24Z</time>
      </trkpt>
      <trkpt lat="43.19028" lon="1.44613">
        <ele>312</ele>
        <time>2017-10-07T13:05:25Z</time>
      </trkpt>
      <trkpt lat="43.19026" lon="1.44619">
        <ele>312</ele>
        <time>2017-10-07T13:05:26Z</time>
      </trkpt>
      <trkpt lat="43.19025" lon="1.44626">
        <ele>312</ele>
        <time>2017-10-07T13:05:27Z</time>
      </trkpt>
      <trkpt lat="43.19023" lon="1.44634">
        <ele>312</ele>
        <time>2017-10-07T13:05:28Z</time>
      </trkpt>
      <trkpt lat="43.19022" lon="1.44642">
        <ele>311</ele>
        <time>2017-10-07T13:05:29Z</time>
      </trkpt>
      <trkpt lat="43.1902" lon="1.4465">
        <ele>311</ele>
        <time>2017-10-07T13:05:30Z</time>
      </trkpt>
      <trkpt lat="43.19018" lon="1.44657">
        <ele>310</ele>
        <time>2017-10-07T13:05:31Z</time>
      </trkpt>
      <trkpt lat="43.19016" lon="1.44666">
        <ele>309</ele>
        <time>2017-10-07T13:05:32Z</time>
      </trkpt>
      <trkpt lat="43.19014" lon="1.44676">
        <ele>308</ele>
        <time>2017-10-07T13:05:33Z</time>
      </trkpt>
      <trkpt lat="43.19013" lon="1.44686">
        <ele>308</ele>
        <time>2017-10-07T13:05:34Z</time>
      </trkpt>
      <trkpt lat="43.19012" lon="1.44694">
        <ele>307</ele>
        <time>2017-10-07T13:05:35Z</time>
      </trkpt>
      <trkpt lat="43.1901" lon="1.44703">
        <ele>306</ele>
        <time>2017-10-07T13:05:36Z</time>
      </trkpt>
      <trkpt lat="43.19009" lon="1.44712">
        <ele>305</ele>
        <time>2017-10-07T13:05:37Z</time>
      </trkpt>
      <trkpt lat="43.19008" lon="1.4472">
        <ele>304</ele>
        <time>2017-10-07T13:05:38Z</time>
      </trkpt>
      <trkpt lat="43.19006" lon="1.4473">
        <ele>303</ele>
        <time>2017-10-07T13:05:39Z</time>
      </trkpt>
      <trkpt lat="43.19005" lon="1.44739">
        <ele>302</ele>
        <time>2017-10-07T13:05:40Z</time>
      </trkpt>
      <trkpt lat="43.19004" lon="1.44749">
        <ele>301</ele>
        <time>2017-10-07T13:05:41Z</time>
      </trkpt>
      <trkpt lat="43.19002" lon="1.4476">
        <ele>300</ele>
        <time>2017-10-07T13:05:42Z</time>
      </trkpt>
      <trkpt lat="43.18999" lon="1.4477">
        <ele>299</ele>
        <time>2017-10-07T13:05:43Z</time>
      </trkpt>
      <trkpt lat="43.18998" lon="1.4478">
        <ele>298</ele>
        <time>2017-10-07T13:05:44Z</time>
      </trkpt>
      <trkpt lat="43.18996" lon="1.4479">
        <ele>297</ele>
        <time>2017-10-07T13:05:45Z</time>
      </trkpt>
      <trkpt lat="43.18995" lon="1.448">
        <ele>296</ele>
        <time>2017-10-07T13:05:46Z</time>
      </trkpt>
      <trkpt lat="43.18994" lon="1.44811">
        <ele>295</ele>
        <time>2017-10-07T13:05:47Z</time>
      </trkpt>
      <trkpt lat="43.18994" lon="1.44821">
        <ele>294</ele>
        <time>2017-10-07T13:05:48Z</time>
      </trkpt>
      <trkpt lat="43.18994" lon="1.44831">
        <ele>293</ele>
        <time>2017-10-07T13:05:49Z</time>
      </trkpt>
      <trkpt lat="43.18995" lon="1.4484">
        <ele>292</ele>
        <time>2017-10-07T13:05:50Z</time>
      </trkpt>
      <trkpt lat="43.18994" lon="1.44849">
        <ele>290</ele>
        <time>2017-10-07T13:05:51Z</time>
      </trkpt>
      <trkpt lat="43.18994" lon="1.44858">
        <ele>289</ele>
        <time>2017-10-07T13:05:52Z</time>
      </trkpt>
      <trkpt lat="43.18992" lon="1.44866">
        <ele>288</ele>
        <time>2017-10-07T13:05:53Z</time>
      </trkpt>
      <trkpt lat="43.1899" lon="1.44874">
        <ele>287</ele>
        <time>2017-10-07T13:05:54Z</time>
      </trkpt>
      <trkpt lat="43.18987" lon="1.4488">
        <ele>286</ele>
        <time>2017-10-07T13:05:55Z</time>
      </trkpt>
      <trkpt lat="43.18983" lon="1.44885">
        <ele>284</ele>
        <time>2017-10-07T13:05:56Z</time>
      </trkpt>
      <trkpt lat="43.18978" lon="1.4489">
        <ele>283</ele>
        <time>2017-10-07T13:05:57Z</time>
      </trkpt>
      <trkpt lat="43.18973" lon="1.44896">
        <ele>282</ele>
        <time>2017-10-07T13:05:58Z</time>
      </trkpt>
      <trkpt lat="43.18968" lon="1.44903">
        <ele>281</ele>
        <time>2017-10-07T13:05:59Z</time>
      </trkpt>
      <trkpt lat="43.18964" lon="1.44909">
        <ele>279</ele>
        <time>2017-10-07T13:06:00Z</time>
      </trkpt>
      <trkpt lat="43.1896" lon="1.44915">
        <ele>278</ele>
        <time>2017-10-07T13:06:01Z</time>
      </trkpt>
      <trkpt lat="43.18957" lon="1.44922">
        <ele>277</ele>
        <time>2017-10-07T13:06:02Z</time>
      </trkpt>
      <trkpt lat="43.18955" lon="1.44929">
        <ele>275</ele>
        <time>2017-10-07T13:06:03Z</time>
      </trkpt>
      <trkpt lat="43.18954" lon="1.44938">
        <ele>273</ele>
        <time>2017-10-07T13:06:04Z</time>
      </trkpt>
      <trkpt lat="43.18954" lon="1.44948">
        <ele>272</ele>
        <time>2017-10-07T13:06:05Z</time>
      </trkpt>
      <trkpt lat="43.18953" lon="1.44956">
        <ele>271</ele>
        <time>2017-10-07T13:06:06Z</time>
      </trkpt>
      <trkpt lat="43.18952" lon="1.44963">
        <ele>271</ele>
        <time>2017-10-07T13:06:07Z</time>
      </trkpt>
      <trkpt lat="43.18949" lon="1.44972">
        <ele>270</ele>
        <time>2017-10-07T13:06:08Z</time>
      </trkpt>
      <trkpt lat="43.18945" lon="1.44979">
        <ele>269</ele>
        <time>2017-10-07T13:06:09Z</time>
      </trkpt>
      <trkpt lat="43.18941" lon="1.44986">
        <ele>268</ele>
        <time>2017-10-07T13:06:10Z</time>
      </trkpt>
      <trkpt lat="43.18935" lon="1.44993">
        <ele>267</ele>
        <time>2017-10-07T13:06:11Z</time>
      </trkpt>
      <trkpt lat="43.18929" lon="1.44999">
        <ele>266</ele>
        <time>2017-10-07T13:06:12Z</time>
      </trkpt>
      <trkpt lat="43.18924" lon="1.45005">
        <ele>265</ele>
        <time>2017-10-07T13:06:13Z</time>
      </trkpt>
      <trkpt lat="43.18921" lon="1.45009">
        <ele>264</ele>
        <time>2017-10-07T13:06:14Z</time>
      </trkpt>
      <trkpt lat="43.18919" lon="1.45013">
        <ele>263</ele>
        <time>2017-10-07T13:06:15Z</time>
      </trkpt>
      <trkpt lat="43.18918" lon="1.45018">
        <ele>262</ele>
        <time>2017-10-07T13:06:16Z</time>
      </trkpt>
      <trkpt lat="43.18917" lon="1.45023">
        <ele>261</ele>
        <time>2017-10-07T13:06:17Z</time>
      </trkpt>
      <trkpt lat="43.18915" lon="1.45028">
        <ele>260</ele>
        <time>2017-10-07T13:06:18Z</time>
      </trkpt>
      <trkpt lat="43.18913" lon="1.45034">
        <ele>259</ele>
        <time>2017-10-07T13:06:19Z</time>
      </trkpt>
      <trkpt lat="43.18911" lon="1.4504">
        <ele>258</ele>
        <time>2017-10-07T13:06:20Z</time>
      </trkpt>
      <trkpt lat="43.1891" lon="1.45047">
        <ele>258</ele>
        <time>2017-10-07T13:06:21Z</time>
      </trkpt>
      <trkpt lat="43.1891" lon="1.45055">
        <ele>258</ele>
        <time>2017-10-07T13:06:22Z</time>
      </trkpt>
      <trkpt lat="43.1891" lon="1.45063">
        <ele>258</ele>
        <time>2017-10-07T13:06:23Z</time>
      </trkpt>
      <trkpt lat="43.1891" lon="1.45072">
        <ele>258</ele>
        <time>2017-10-07T13:06:24Z</time>
      </trkpt>
      <trkpt lat="43.18914" lon="1.45101">
        <ele>257</ele>
        <time>2017-10-07T13:06:27Z</time>
      </trkpt>
      <trkpt lat="43.18915" lon="1.45111">
        <ele>256</ele>
        <time>2017-10-07T13:06:28Z</time>
      </trkpt>
      <trkpt lat="43.18917" lon="1.45122">
        <ele>256</ele>
        <time>2017-10-07T13:06:29Z</time>
      </trkpt>
      <trkpt lat="43.18918" lon="1.45133">
        <ele>255</ele>
        <time>2017-10-07T13:06:30Z</time>
      </trkpt>
      <trkpt lat="43.18923" lon="1.45164">
        <ele>255</ele>
        <time>2017-10-07T13:06:33Z</time>
      </trkpt>
      <trkpt lat="43.18924" lon="1.45174">
        <ele>255</ele>
        <time>2017-10-07T13:06:34Z</time>
      </trkpt>
      <trkpt lat="43.18923" lon="1.45184">
        <ele>255</ele>
        <time>2017-10-07T13:06:35Z</time>
      </trkpt>
      <trkpt lat="43.18922" lon="1.45194">
        <ele>254</ele>
        <time>2017-10-07T13:06:36Z</time>
      </trkpt>
      <trkpt lat="43.18921" lon="1.45204">
        <ele>254</ele>
        <time>2017-10-07T13:06:37Z</time>
      </trkpt>
      <trkpt lat="43.18919" lon="1.45214">
        <ele>253</ele>
        <time>2017-10-07T13:06:38Z</time>
      </trkpt>
      <trkpt lat="43.18916" lon="1.45225">
        <ele>253</ele>
        <time>2017-10-07T13:06:39Z</time>
      </trkpt>
      <trkpt lat="43.18914" lon="1.45236">
        <ele>252</ele>
        <time>2017-10-07T13:06:40Z</time>
      </trkpt>
      <trkpt lat="43.18911" lon="1.45245">
        <ele>252</ele>
        <time>2017-10-07T13:06:41Z</time>
      </trkpt>
      <trkpt lat="43.18908" lon="1.45252">
        <ele>251</ele>
        <time>2017-10-07T13:06:42Z</time>
      </trkpt>
      <trkpt lat="43.18906" lon="1.45259">
        <ele>250</ele>
        <time>2017-10-07T13:06:43Z</time>
      </trkpt>
      <trkpt lat="43.18905" lon="1.45264">
        <ele>250</ele>
        <time>2017-10-07T13:06:44Z</time>
      </trkpt>
      <trkpt lat="43.18904" lon="1.45269">
        <ele>249</ele>
        <time>2017-10-07T13:06:45Z</time>
      </trkpt>
      <trkpt lat="43.18905" lon="1.45275">
        <ele>249</ele>
        <time>2017-10-07T13:06:46Z</time>
      </trkpt>
      <trkpt lat="43.1891" lon="1.45292">
        <ele>249</ele>
        <time>2017-10-07T13:06:49Z</time>
      </trkpt>
      <trkpt lat="43.18912" lon="1.45297">
        <ele>249</ele>
        <time>2017-10-07T13:06:50Z</time>
      </trkpt>
      <trkpt lat="43.18931" lon="1.45337">
        <ele>249</ele>
        <time>2017-10-07T13:06:57Z</time>
      </trkpt>
      <trkpt lat="43.18941" lon="1.45343">
        <ele>249</ele>
        <time>2017-10-07T13:07:00Z</time>
      </trkpt>
      <trkpt lat="43.18941" lon="1.45352">
        <ele>249</ele>
        <time>2017-10-07T13:07:02Z</time>
      </trkpt>
      <trkpt lat="43.18929" lon="1.45361">
        <ele>249</ele>
        <time>2017-10-07T13:07:05Z</time>
      </trkpt>
      <trkpt lat="43.18921" lon="1.4537">
        <ele>249</ele>
        <time>2017-10-07T13:07:07Z</time>
      </trkpt>
      <trkpt lat="43.18915" lon="1.45382">
        <ele>249</ele>
        <time>2017-10-07T13:07:09Z</time>
      </trkpt>
      <trkpt lat="43.18907" lon="1.454">
        <ele>249</ele>
        <time>2017-10-07T13:07:12Z</time>
      </trkpt>
      <trkpt lat="43.18903" lon="1.45412">
        <ele>249</ele>
        <time>2017-10-07T13:07:14Z</time>
      </trkpt>
      <trkpt lat="43.1889" lon="1.45445">
        <ele>249</ele>
        <time>2017-10-07T13:07:20Z</time>
      </trkpt>
      <trkpt lat="43.18888" lon="1.45458">
        <ele>249</ele>
        <time>2017-10-07T13:07:23Z</time>
      </trkpt>
      <trkpt lat="43.18889" lon="1.45461">
        <ele>249</ele>
        <time>2017-10-07T13:07:24Z</time>
      </trkpt>
      <trkpt lat="43.18899" lon="1.45476">
        <ele>249</ele>
        <time>2017-10-07T13:07:28Z</time>
      </trkpt>
      <trkpt lat="43.18902" lon="1.4548">
        <ele>249</ele>
        <time>2017-10-07T13:07:29Z</time>
      </trkpt>
      <trkpt lat="43.18919" lon="1.45501">
        <ele>249</ele>
        <time>2017-10-07T13:07:35Z</time>
      </trkpt>
      <trkpt lat="43.18934" lon="1.4552">
        <ele>249</ele>
        <time>2017-10-07T13:07:41Z</time>
      </trkpt>
      <trkpt lat="43.18947" lon="1.45538">
        <ele>249</ele>
        <time>2017-10-07T13:07:47Z</time>
      </trkpt>
      <trkpt lat="43.18957" lon="1.45551">
        <ele>249</ele>
        <time>2017-10-07T13:07:52Z</time>
      </trkpt>
      <trkpt lat="43.18969" lon="1.45567">
        <ele>249</ele>
        <time>2017-10-07T13:07:58Z</time>
      </trkpt>
      <trkpt lat="43.18971" lon="1.4557">
        <ele>249</ele>
        <time>2017-10-07T13:07:59Z</time>
      </trkpt>
      <trkpt lat="43.18982" lon="1.45584">
        <ele>249</ele>
        <time>2017-10-07T13:08:05Z</time>
      </trkpt>
      <trkpt lat="43.18993" lon="1.45599">
        <ele>249</ele>
        <time>2017-10-07T13:08:11Z</time>
      </trkpt>
      <trkpt lat="43.19006" lon="1.45616">
        <ele>249</ele>
        <time>2017-10-07T13:08:18Z</time>
      </trkpt>
      <trkpt lat="43.19015" lon="1.45627">
        <ele>249</ele>
        <time>2017-10-07T13:08:23Z</time>
      </trkpt>
      <trkpt lat="43.19023" lon="1.45639">
        <ele>248</ele>
        <time>2017-10-07T13:08:29Z</time>
      </trkpt>
      <trkpt lat="43.19024" lon="1.4564">
        <ele>248</ele>
        <time>2017-10-07T13:08:30Z</time>
      </trkpt>
      <trkpt lat="43.19024" lon="1.4564">
        <ele>247</ele>
        <time>2017-10-07T13:08:31Z</time>
      </trkpt>
      <trkpt lat="43.19025" lon="1.45641">
        <ele>247</ele>
        <time>2017-10-07T13:08:35Z</time>
      </trkpt>
      <trkpt lat="43.19025" lon="1.45642">
        <ele>247</ele>
        <time>2017-10-07T13:08:36Z</time>
      </trkpt>
      <trkpt lat="43.19026" lon="1.45645">
        <ele>246</ele>
        <time>2017-10-07T13:08:39Z</time>
      </trkpt>
      <trkpt lat="43.19025" lon="1.45647">
        <ele>245</ele>
        <time>2017-10-07T13:08:44Z</time>
      </trkpt>
      <trkpt lat="43.19026" lon="1.4565">
        <ele>245</ele>
        <time>2017-10-07T13:08:46Z</time>
      </trkpt>
      <trkpt lat="43.19027" lon="1.45652">
        <ele>245</ele>
        <time>2017-10-07T13:08:49Z</time>
      </trkpt>
      <trkpt lat="43.19028" lon="1.45658">
        <ele>245</ele>
        <time>2017-10-07T13:08:57Z</time>
      </trkpt>
      <trkpt lat="43.19029" lon="1.4566">
        <ele>245</ele>
        <time>2017-10-07T13:08:59Z</time>
      </trkpt>
      <trkpt lat="43.19028" lon="1.4566">
        <ele>245</ele>
        <time>2017-10-07T13:09:00Z</time>
      </trkpt>
      <trkpt lat="43.19029" lon="1.45662">
        <ele>245</ele>
        <time>2017-10-07T13:09:06Z</time>
      </trkpt>
      <trkpt lat="43.19029" lon="1.45665">
        <ele>245</ele>
        <time>2017-10-07T13:09:08Z</time>
      </trkpt>
      <trkpt lat="43.1903" lon="1.45665">
        <ele>245</ele>
        <time>2017-10-07T13:09:10Z</time>
      </trkpt>
      <trkpt lat="43.1903" lon="1.45665">
        <ele>245</ele>
        <time>2017-10-07T13:09:14Z</time>
      </trkpt>
      <trkpt lat="43.19032" lon="1.45668">
        <ele>245</ele>
        <time>2017-10-07T13:09:16Z</time>
      </trkpt>
      <trkpt lat="43.19033" lon="1.4567">
        <ele>245</ele>
        <time>2017-10-07T13:09:17Z</time>
      </trkpt>
      <trkpt lat="43.19035" lon="1.45676">
        <ele>245</ele>
        <time>2017-10-07T13:09:21Z</time>
      </trkpt>
      <trkpt lat="43.19038" lon="1.45683">
        <ele>245</ele>
        <time>2017-10-07T13:09:25Z</time>
      </trkpt>
      <trkpt lat="43.19038" lon="1.45684">
        <ele>245</ele>
        <time>2017-10-07T13:09:26Z</time>
      </trkpt>
      <trkpt lat="43.19039" lon="1.45686">
        <ele>246</ele>
        <time>2017-10-07T13:09:27Z</time>
      </trkpt>
      <trkpt lat="43.1904" lon="1.45688">
        <ele>246</ele>
        <time>2017-10-07T13:09:28Z</time>
      </trkpt>
      <trkpt lat="43.19041" lon="1.4569">
        <ele>247</ele>
        <time>2017-10-07T13:09:29Z</time>
      </trkpt>
      <trkpt lat="43.19044" lon="1.45694">
        <ele>247</ele>
        <time>2017-10-07T13:09:32Z</time>
      </trkpt>
      <trkpt lat="43.19046" lon="1.45698">
        <ele>247</ele>
        <time>2017-10-07T13:09:34Z</time>
      </trkpt>
      <trkpt lat="43.19055" lon="1.45705">
        <ele>247</ele>
        <time>2017-10-07T13:09:40Z</time>
      </trkpt>
      <trkpt lat="43.19057" lon="1.45705">
        <ele>248</ele>
        <time>2017-10-07T13:09:41Z</time>
      </trkpt>
      <trkpt lat="43.19059" lon="1.45706">
        <ele>248</ele>
        <time>2017-10-07T13:09:42Z</time>
      </trkpt>
      <trkpt lat="43.1906" lon="1.45706">
        <ele>249</ele>
        <time>2017-10-07T13:09:43Z</time>
      </trkpt>
      <trkpt lat="43.19066" lon="1.45702">
        <ele>249</ele>
        <time>2017-10-07T13:09:46Z</time>
      </trkpt>
      <trkpt lat="43.19071" lon="1.45697">
        <ele>249</ele>
        <time>2017-10-07T13:09:49Z</time>
      </trkpt>
      <trkpt lat="43.19073" lon="1.45695">
        <ele>250</ele>
        <time>2017-10-07T13:09:50Z</time>
      </trkpt>
      <trkpt lat="43.19074" lon="1.45693">
        <ele>250</ele>
        <time>2017-10-07T13:09:51Z</time>
      </trkpt>
      <trkpt lat="43.19075" lon="1.45691">
        <ele>251</ele>
        <time>2017-10-07T13:09:52Z</time>
      </trkpt>
      <trkpt lat="43.19076" lon="1.4569">
        <ele>251</ele>
        <time>2017-10-07T13:09:53Z</time>
      </trkpt>
      <trkpt lat="43.19078" lon="1.45688">
        <ele>251</ele>
        <time>2017-10-07T13:09:54Z</time>
      </trkpt>
      <trkpt lat="43.19086" lon="1.45679">
        <ele>251</ele>
        <time>2017-10-07T13:10:00Z</time>
      </trkpt>
      <trkpt lat="43.19087" lon="1.45677">
        <ele>251</ele>
        <time>2017-10-07T13:10:01Z</time>
      </trkpt>
      <trkpt lat="43.19089" lon="1.45675">
        <ele>252</ele>
        <time>2017-10-07T13:10:02Z</time>
      </trkpt>
      <trkpt lat="43.19091" lon="1.45674">
        <ele>252</ele>
        <time>2017-10-07T13:10:03Z</time>
      </trkpt>
      <trkpt lat="43.19092" lon="1.45672">
        <ele>253</ele>
        <time>2017-10-07T13:10:04Z</time>
      </trkpt>
      <trkpt lat="43.19094" lon="1.4567">
        <ele>253</ele>
        <time>2017-10-07T13:10:05Z</time>
      </trkpt>
      <trkpt lat="43.19098" lon="1.45666">
        <ele>253</ele>
        <time>2017-10-07T13:10:08Z</time>
      </trkpt>
      <trkpt lat="43.19102" lon="1.45662">
        <ele>253</ele>
        <time>2017-10-07T13:10:11Z</time>
      </trkpt>
      <trkpt lat="43.19103" lon="1.45661">
        <ele>254</ele>
        <time>2017-10-07T13:10:12Z</time>
      </trkpt>
      <trkpt lat="43.19104" lon="1.45659">
        <ele>254</ele>
        <time>2017-10-07T13:10:13Z</time>
      </trkpt>
      <trkpt lat="43.19106" lon="1.45658">
        <ele>255</ele>
        <time>2017-10-07T13:10:14Z</time>
      </trkpt>
      <trkpt lat="43.19107" lon="1.45657">
        <ele>255</ele>
        <time>2017-10-07T13:10:15Z</time>
      </trkpt>
      <trkpt lat="43.19112" lon="1.45652">
        <ele>255</ele>
        <time>2017-10-07T13:10:18Z</time>
      </trkpt>
      <trkpt lat="43.19117" lon="1.45647">
        <ele>256</ele>
        <time>2017-10-07T13:10:22Z</time>
      </trkpt>
      <trkpt lat="43.19119" lon="1.45646">
        <ele>256</ele>
        <time>2017-10-07T13:10:23Z</time>
      </trkpt>
      <trkpt lat="43.19121" lon="1.45645">
        <ele>256</ele>
        <time>2017-10-07T13:10:24Z</time>
      </trkpt>
      <trkpt lat="43.19122" lon="1.45644">
        <ele>257</ele>
        <time>2017-10-07T13:10:25Z</time>
      </trkpt>
      <trkpt lat="43.19123" lon="1.45643">
        <ele>257</ele>
        <time>2017-10-07T13:10:26Z</time>
      </trkpt>
      <trkpt lat="43.19125" lon="1.45642">
        <ele>257</ele>
        <time>2017-10-07T13:10:27Z</time>
      </trkpt>
      <trkpt lat="43.19133" lon="1.45638">
        <ele>258</ele>
        <time>2017-10-07T13:10:32Z</time>
      </trkpt>
      <trkpt lat="43.19134" lon="1.45638">
        <ele>258</ele>
        <time>2017-10-07T13:10:33Z</time>
      </trkpt>
      <trkpt lat="43.19135" lon="1.45637">
        <ele>259</ele>
        <time>2017-10-07T13:10:34Z</time>
      </trkpt>
      <trkpt lat="43.19137" lon="1.45636">
        <ele>259</ele>
        <time>2017-10-07T13:10:35Z</time>
      </trkpt>
      <trkpt lat="43.19139" lon="1.45635">
        <ele>260</ele>
        <time>2017-10-07T13:10:36Z</time>
      </trkpt>
      <trkpt lat="43.19146" lon="1.45631">
        <ele>260</ele>
        <time>2017-10-07T13:10:41Z</time>
      </trkpt>
      <trkpt lat="43.19148" lon="1.45631">
        <ele>260</ele>
        <time>2017-10-07T13:10:42Z</time>
      </trkpt>
      <trkpt lat="43.19149" lon="1.4563">
        <ele>261</ele>
        <time>2017-10-07T13:10:43Z</time>
      </trkpt>
      <trkpt lat="43.19151" lon="1.45629">
        <ele>261</ele>
        <time>2017-10-07T13:10:44Z</time>
      </trkpt>
      <trkpt lat="43.19153" lon="1.45629">
        <ele>262</ele>
        <time>2017-10-07T13:10:45Z</time>
      </trkpt>
      <trkpt lat="43.19161" lon="1.45625">
        <ele>262</ele>
        <time>2017-10-07T13:10:50Z</time>
      </trkpt>
      <trkpt lat="43.19162" lon="1.45624">
        <ele>263</ele>
        <time>2017-10-07T13:10:51Z</time>
      </trkpt>
      <trkpt lat="43.19164" lon="1.45624">
        <ele>263</ele>
        <time>2017-10-07T13:10:52Z</time>
      </trkpt>
      <trkpt lat="43.19166" lon="1.45623">
        <ele>263</ele>
        <time>2017-10-07T13:10:53Z</time>
      </trkpt>
      <trkpt lat="43.19167" lon="1.45623">
        <ele>264</ele>
        <time>2017-10-07T13:10:54Z</time>
      </trkpt>
      <trkpt lat="43.19176" lon="1.4562">
        <ele>264</ele>
        <time>2017-10-07T13:10:59Z</time>
      </trkpt>
      <trkpt lat="43.19177" lon="1.4562">
        <ele>265</ele>
        <time>2017-10-07T13:11:00Z</time>
      </trkpt>
      <trkpt lat="43.19179" lon="1.45619">
        <ele>265</ele>
        <time>2017-10-07T13:11:01Z</time>
      </trkpt>
      <trkpt lat="43.19181" lon="1.45619">
        <ele>266</ele>
        <time>2017-10-07T13:11:02Z</time>
      </trkpt>
      <trkpt lat="43.19182" lon="1.45619">
        <ele>266</ele>
        <time>2017-10-07T13:11:03Z</time>
      </trkpt>
      <trkpt lat="43.1919" lon="1.45618">
        <ele>266</ele>
        <time>2017-10-07T13:11:08Z</time>
      </trkpt>
      <trkpt lat="43.19193" lon="1.45617">
        <ele>266</ele>
        <time>2017-10-07T13:11:10Z</time>
      </trkpt>
      <trkpt lat="43.19195" lon="1.45617">
        <ele>267</ele>
        <time>2017-10-07T13:11:11Z</time>
      </trkpt>
      <trkpt lat="43.19196" lon="1.45618">
        <ele>267</ele>
        <time>2017-10-07T13:11:12Z</time>
      </trkpt>
      <trkpt lat="43.19198" lon="1.45617">
        <ele>268</ele>
        <time>2017-10-07T13:11:13Z</time>
      </trkpt>
      <trkpt lat="43.19199" lon="1.45617">
        <ele>268</ele>
        <time>2017-10-07T13:11:14Z</time>
      </trkpt>
      <trkpt lat="43.19208" lon="1.45618">
        <ele>268</ele>
        <time>2017-10-07T13:11:20Z</time>
      </trkpt>
      <trkpt lat="43.1921" lon="1.45618">
        <ele>269</ele>
        <time>2017-10-07T13:11:21Z</time>
      </trkpt>
      <trkpt lat="43.19212" lon="1.45618">
        <ele>270</ele>
        <time>2017-10-07T13:11:22Z</time>
      </trkpt>
      <trkpt lat="43.19213" lon="1.45618">
        <ele>270</ele>
        <time>2017-10-07T13:11:23Z</time>
      </trkpt>
      <trkpt lat="43.19221" lon="1.45618">
        <ele>270</ele>
        <time>2017-10-07T13:11:28Z</time>
      </trkpt>
      <trkpt lat="43.19223" lon="1.45618">
        <ele>271</ele>
        <time>2017-10-07T13:11:29Z</time>
      </trkpt>
      <trkpt lat="43.19224" lon="1.45618">
        <ele>271</ele>
        <time>2017-10-07T13:11:30Z</time>
      </trkpt>
      <trkpt lat="43.19226" lon="1.45618">
        <ele>272</ele>
        <time>2017-10-07T13:11:31Z</time>
      </trkpt>
      <trkpt lat="43.19227" lon="1.45618">
        <ele>272</ele>
        <time>2017-10-07T13:11:32Z</time>
      </trkpt>
      <trkpt lat="43.19235" lon="1.45617">
        <ele>272</ele>
        <time>2017-10-07T13:11:37Z</time>
      </trkpt>
      <trkpt lat="43.19236" lon="1.45618">
        <ele>272</ele>
        <time>2017-10-07T13:11:38Z</time>
      </trkpt>
      <trkpt lat="43.19238" lon="1.45623">
        <ele>272</ele>
        <time>2017-10-07T13:11:40Z</time>
      </trkpt>
      <trkpt lat="43.19237" lon="1.45625">
        <ele>273</ele>
        <time>2017-10-07T13:11:41Z</time>
      </trkpt>
      <trkpt lat="43.19236" lon="1.45625">
        <ele>273</ele>
        <time>2017-10-07T13:11:42Z</time>
      </trkpt>
      <trkpt lat="43.19234" lon="1.45627">
        <ele>274</ele>
        <time>2017-10-07T13:11:43Z</time>
      </trkpt>
      <trkpt lat="43.19233" lon="1.45628">
        <ele>274</ele>
        <time>2017-10-07T13:11:44Z</time>
      </trkpt>
      <trkpt lat="43.19231" lon="1.45629">
        <ele>274</ele>
        <time>2017-10-07T13:11:45Z</time>
      </trkpt>
      <trkpt lat="43.1923" lon="1.45631">
        <ele>274</ele>
        <time>2017-10-07T13:11:46Z</time>
      </trkpt>
      <trkpt lat="43.19229" lon="1.45632">
        <ele>275</ele>
        <time>2017-10-07T13:11:47Z</time>
      </trkpt>
      <trkpt lat="43.19228" lon="1.45634">
        <ele>275</ele>
        <time>2017-10-07T13:11:48Z</time>
      </trkpt>
      <trkpt lat="43.19227" lon="1.45635">
        <ele>276</ele>
        <time>2017-10-07T13:11:49Z</time>
      </trkpt>
      <trkpt lat="43.19225" lon="1.45635">
        <ele>276</ele>
        <time>2017-10-07T13:11:50Z</time>
      </trkpt>
      <trkpt lat="43.19224" lon="1.45637">
        <ele>276</ele>
        <time>2017-10-07T13:11:51Z</time>
      </trkpt>
      <trkpt lat="43.19223" lon="1.45638">
        <ele>276</ele>
        <time>2017-10-07T13:11:52Z</time>
      </trkpt>
      <trkpt lat="43.19221" lon="1.45641">
        <ele>277</ele>
        <time>2017-10-07T13:11:54Z</time>
      </trkpt>
      <trkpt lat="43.1922" lon="1.45642">
        <ele>277</ele>
        <time>2017-10-07T13:11:55Z</time>
      </trkpt>
      <trkpt lat="43.19219" lon="1.45643">
        <ele>277</ele>
        <time>2017-10-07T13:11:56Z</time>
      </trkpt>
      <trkpt lat="43.19219" lon="1.45645">
        <ele>278</ele>
        <time>2017-10-07T13:11:57Z</time>
      </trkpt>
      <trkpt lat="43.19217" lon="1.45646">
        <ele>278</ele>
        <time>2017-10-07T13:11:58Z</time>
      </trkpt>
      <trkpt lat="43.19213" lon="1.45649">
        <ele>279</ele>
        <time>2017-10-07T13:12:02Z</time>
      </trkpt>
      <trkpt lat="43.19212" lon="1.45651">
        <ele>279</ele>
        <time>2017-10-07T13:12:03Z</time>
      </trkpt>
      <trkpt lat="43.19211" lon="1.45652">
        <ele>279</ele>
        <time>2017-10-07T13:12:04Z</time>
      </trkpt>
      <trkpt lat="43.19209" lon="1.45653">
        <ele>280</ele>
        <time>2017-10-07T13:12:05Z</time>
      </trkpt>
      <trkpt lat="43.19208" lon="1.45654">
        <ele>280</ele>
        <time>2017-10-07T13:12:06Z</time>
      </trkpt>
      <trkpt lat="43.19208" lon="1.45656">
        <ele>280</ele>
        <time>2017-10-07T13:12:07Z</time>
      </trkpt>
      <trkpt lat="43.19207" lon="1.45658">
        <ele>280</ele>
        <time>2017-10-07T13:12:08Z</time>
      </trkpt>
      <trkpt lat="43.19205" lon="1.45661">
        <ele>281</ele>
        <time>2017-10-07T13:12:10Z</time>
      </trkpt>
      <trkpt lat="43.19204" lon="1.45663">
        <ele>281</ele>
        <time>2017-10-07T13:12:11Z</time>
      </trkpt>
      <trkpt lat="43.19204" lon="1.45665">
        <ele>282</ele>
        <time>2017-10-07T13:12:12Z</time>
      </trkpt>
      <trkpt lat="43.19203" lon="1.45667">
        <ele>282</ele>
        <time>2017-10-07T13:12:13Z</time>
      </trkpt>
      <trkpt lat="43.19203" lon="1.45669">
        <ele>282</ele>
        <time>2017-10-07T13:12:14Z</time>
      </trkpt>
      <trkpt lat="43.19204" lon="1.45683">
        <ele>283</ele>
        <time>2017-10-07T13:12:20Z</time>
      </trkpt>
      <trkpt lat="43.19204" lon="1.45685">
        <ele>283</ele>
        <time>2017-10-07T13:12:21Z</time>
      </trkpt>
      <trkpt lat="43.19206" lon="1.45686">
        <ele>284</ele>
        <time>2017-10-07T13:12:22Z</time>
      </trkpt>
      <trkpt lat="43.19208" lon="1.45686">
        <ele>284</ele>
        <time>2017-10-07T13:12:23Z</time>
      </trkpt>
      <trkpt lat="43.19209" lon="1.45687">
        <ele>284</ele>
        <time>2017-10-07T13:12:24Z</time>
      </trkpt>
      <trkpt lat="43.19211" lon="1.45689">
        <ele>284</ele>
        <time>2017-10-07T13:12:25Z</time>
      </trkpt>
      <trkpt lat="43.19213" lon="1.4569">
        <ele>284</ele>
        <time>2017-10-07T13:12:26Z</time>
      </trkpt>
      <trkpt lat="43.19224" lon="1.45694">
        <ele>284</ele>
        <time>2017-10-07T13:12:33Z</time>
      </trkpt>
      <trkpt lat="43.19227" lon="1.45695">
        <ele>285</ele>
        <time>2017-10-07T13:12:35Z</time>
      </trkpt>
      <trkpt lat="43.19229" lon="1.45697">
        <ele>285</ele>
        <time>2017-10-07T13:12:36Z</time>
      </trkpt>
      <trkpt lat="43.1923" lon="1.45699">
        <ele>286</ele>
        <time>2017-10-07T13:12:37Z</time>
      </trkpt>
      <trkpt lat="43.19231" lon="1.457">
        <ele>287</ele>
        <time>2017-10-07T13:12:38Z</time>
      </trkpt>
      <trkpt lat="43.19232" lon="1.45702">
        <ele>287</ele>
        <time>2017-10-07T13:12:39Z</time>
      </trkpt>
      <trkpt lat="43.19235" lon="1.45712">
        <ele>287</ele>
        <time>2017-10-07T13:12:44Z</time>
      </trkpt>
      <trkpt lat="43.19235" lon="1.45714">
        <ele>287</ele>
        <time>2017-10-07T13:12:45Z</time>
      </trkpt>
      <trkpt lat="43.19235" lon="1.45716">
        <ele>288</ele>
        <time>2017-10-07T13:12:46Z</time>
      </trkpt>
      <trkpt lat="43.19236" lon="1.45719">
        <ele>288</ele>
        <time>2017-10-07T13:12:47Z</time>
      </trkpt>
      <trkpt lat="43.19235" lon="1.45721">
        <ele>289</ele>
        <time>2017-10-07T13:12:48Z</time>
      </trkpt>
      <trkpt lat="43.19235" lon="1.45729">
        <ele>289</ele>
        <time>2017-10-07T13:12:51Z</time>
      </trkpt>
      <trkpt lat="43.19237" lon="1.45737">
        <ele>289</ele>
        <time>2017-10-07T13:12:54Z</time>
      </trkpt>
      <trkpt lat="43.1924" lon="1.45748">
        <ele>289</ele>
        <time>2017-10-07T13:12:58Z</time>
      </trkpt>
      <trkpt lat="43.19241" lon="1.4575">
        <ele>289</ele>
        <time>2017-10-07T13:12:59Z</time>
      </trkpt>
      <trkpt lat="43.19242" lon="1.45752">
        <ele>290</ele>
        <time>2017-10-07T13:13:00Z</time>
      </trkpt>
      <trkpt lat="43.19242" lon="1.45754">
        <ele>290</ele>
        <time>2017-10-07T13:13:01Z</time>
      </trkpt>
      <trkpt lat="43.19243" lon="1.45756">
        <ele>291</ele>
        <time>2017-10-07T13:13:02Z</time>
      </trkpt>
      <trkpt lat="43.19245" lon="1.45761">
        <ele>291</ele>
        <time>2017-10-07T13:13:04Z</time>
      </trkpt>
      <trkpt lat="43.19246" lon="1.45762">
        <ele>292</ele>
        <time>2017-10-07T13:13:05Z</time>
      </trkpt>
      <trkpt lat="43.19248" lon="1.45763">
        <ele>292</ele>
        <time>2017-10-07T13:13:06Z</time>
      </trkpt>
      <trkpt lat="43.1925" lon="1.45764">
        <ele>293</ele>
        <time>2017-10-07T13:13:07Z</time>
      </trkpt>
      <trkpt lat="43.19251" lon="1.45763">
        <ele>293</ele>
        <time>2017-10-07T13:13:08Z</time>
      </trkpt>
      <trkpt lat="43.19252" lon="1.45764">
        <ele>293</ele>
        <time>2017-10-07T13:13:09Z</time>
      </trkpt>
      <trkpt lat="43.19252" lon="1.45771">
        <ele>293</ele>
        <time>2017-10-07T13:13:12Z</time>
      </trkpt>
      <trkpt lat="43.19252" lon="1.45775">
        <ele>294</ele>
        <time>2017-10-07T13:13:13Z</time>
      </trkpt>
      <trkpt lat="43.19253" lon="1.45777">
        <ele>294</ele>
        <time>2017-10-07T13:13:14Z</time>
      </trkpt>
      <trkpt lat="43.19254" lon="1.4578">
        <ele>295</ele>
        <time>2017-10-07T13:13:15Z</time>
      </trkpt>
      <trkpt lat="43.19256" lon="1.45782">
        <ele>295</ele>
        <time>2017-10-07T13:13:16Z</time>
      </trkpt>
      <trkpt lat="43.19257" lon="1.45785">
        <ele>295</ele>
        <time>2017-10-07T13:13:17Z</time>
      </trkpt>
      <trkpt lat="43.1926" lon="1.45792">
        <ele>295</ele>
        <time>2017-10-07T13:13:20Z</time>
      </trkpt>
      <trkpt lat="43.19265" lon="1.45803">
        <ele>295</ele>
        <time>2017-10-07T13:13:25Z</time>
      </trkpt>
      <trkpt lat="43.19274" lon="1.45823">
        <ele>295</ele>
        <time>2017-10-07T13:13:34Z</time>
      </trkpt>
      <trkpt lat="43.19277" lon="1.45828">
        <ele>296</ele>
        <time>2017-10-07T13:13:36Z</time>
      </trkpt>
      <trkpt lat="43.19278" lon="1.4583">
        <ele>296</ele>
        <time>2017-10-07T13:13:37Z</time>
      </trkpt>
      <trkpt lat="43.19279" lon="1.45833">
        <ele>296</ele>
        <time>2017-10-07T13:13:38Z</time>
      </trkpt>
      <trkpt lat="43.1928" lon="1.45836">
        <ele>297</ele>
        <time>2017-10-07T13:13:39Z</time>
      </trkpt>
      <trkpt lat="43.19281" lon="1.45838">
        <ele>297</ele>
        <time>2017-10-07T13:13:40Z</time>
      </trkpt>
      <trkpt lat="43.19284" lon="1.45845">
        <ele>297</ele>
        <time>2017-10-07T13:13:43Z</time>
      </trkpt>
      <trkpt lat="43.19291" lon="1.4586">
        <ele>297</ele>
        <time>2017-10-07T13:13:50Z</time>
      </trkpt>
      <trkpt lat="43.19291" lon="1.45862">
        <ele>298</ele>
        <time>2017-10-07T13:13:51Z</time>
      </trkpt>
      <trkpt lat="43.19292" lon="1.45864">
        <ele>298</ele>
        <time>2017-10-07T13:13:52Z</time>
      </trkpt>
      <trkpt lat="43.19292" lon="1.45866">
        <ele>299</ele>
        <time>2017-10-07T13:13:53Z</time>
      </trkpt>
      <trkpt lat="43.19293" lon="1.45868">
        <ele>299</ele>
        <time>2017-10-07T13:13:54Z</time>
      </trkpt>
      <trkpt lat="43.19295" lon="1.45871">
        <ele>299</ele>
        <time>2017-10-07T13:13:56Z</time>
      </trkpt>
      <trkpt lat="43.19296" lon="1.45875">
        <ele>300</ele>
        <time>2017-10-07T13:13:58Z</time>
      </trkpt>
      <trkpt lat="43.19297" lon="1.45877">
        <ele>300</ele>
        <time>2017-10-07T13:13:59Z</time>
      </trkpt>
      <trkpt lat="43.19297" lon="1.4588">
        <ele>301</ele>
        <time>2017-10-07T13:14:00Z</time>
      </trkpt>
      <trkpt lat="43.19298" lon="1.45882">
        <ele>301</ele>
        <time>2017-10-07T13:14:01Z</time>
      </trkpt>
      <trkpt lat="43.19298" lon="1.45883">
        <ele>301</ele>
        <time>2017-10-07T13:14:02Z</time>
      </trkpt>
      <trkpt lat="43.193" lon="1.45889">
        <ele>302</ele>
        <time>2017-10-07T13:14:05Z</time>
      </trkpt>
      <trkpt lat="43.193" lon="1.4589">
        <ele>302</ele>
        <time>2017-10-07T13:14:06Z</time>
      </trkpt>
      <trkpt lat="43.193" lon="1.45892">
        <ele>303</ele>
        <time>2017-10-07T13:14:07Z</time>
      </trkpt>
      <trkpt lat="43.19301" lon="1.45894">
        <ele>303</ele>
        <time>2017-10-07T13:14:08Z</time>
      </trkpt>
      <trkpt lat="43.19302" lon="1.45895">
        <ele>303</ele>
        <time>2017-10-07T13:14:09Z</time>
      </trkpt>
      <trkpt lat="43.19302" lon="1.45899">
        <ele>304</ele>
        <time>2017-10-07T13:14:11Z</time>
      </trkpt>
      <trkpt lat="43.19303" lon="1.45901">
        <ele>304</ele>
        <time>2017-10-07T13:14:12Z</time>
      </trkpt>
      <trkpt lat="43.19303" lon="1.45902">
        <ele>305</ele>
        <time>2017-10-07T13:14:13Z</time>
      </trkpt>
      <trkpt lat="43.19304" lon="1.45904">
        <ele>305</ele>
        <time>2017-10-07T13:14:14Z</time>
      </trkpt>
      <trkpt lat="43.19304" lon="1.45907">
        <ele>305</ele>
        <time>2017-10-07T13:14:15Z</time>
      </trkpt>
      <trkpt lat="43.19306" lon="1.45912">
        <ele>306</ele>
        <time>2017-10-07T13:14:18Z</time>
      </trkpt>
      <trkpt lat="43.19307" lon="1.45913">
        <ele>306</ele>
        <time>2017-10-07T13:14:19Z</time>
      </trkpt>
      <trkpt lat="43.19307" lon="1.45915">
        <ele>307</ele>
        <time>2017-10-07T13:14:20Z</time>
      </trkpt>
      <trkpt lat="43.19308" lon="1.45917">
        <ele>307</ele>
        <time>2017-10-07T13:14:21Z</time>
      </trkpt>
      <trkpt lat="43.19309" lon="1.4592">
        <ele>308</ele>
        <time>2017-10-07T13:14:22Z</time>
      </trkpt>
      <trkpt lat="43.19311" lon="1.45927">
        <ele>308</ele>
        <time>2017-10-07T13:14:26Z</time>
      </trkpt>
      <trkpt lat="43.19312" lon="1.45931">
        <ele>308</ele>
        <time>2017-10-07T13:14:28Z</time>
      </trkpt>
      <trkpt lat="43.19313" lon="1.45933">
        <ele>309</ele>
        <time>2017-10-07T13:14:29Z</time>
      </trkpt>
      <trkpt lat="43.19313" lon="1.45935">
        <ele>309</ele>
        <time>2017-10-07T13:14:30Z</time>
      </trkpt>
      <trkpt lat="43.19314" lon="1.45937">
        <ele>309</ele>
        <time>2017-10-07T13:14:31Z</time>
      </trkpt>
      <trkpt lat="43.19314" lon="1.45939">
        <ele>310</ele>
        <time>2017-10-07T13:14:32Z</time>
      </trkpt>
      <trkpt lat="43.19319" lon="1.45952">
        <ele>310</ele>
        <time>2017-10-07T13:14:38Z</time>
      </trkpt>
      <trkpt lat="43.19319" lon="1.45954">
        <ele>311</ele>
        <time>2017-10-07T13:14:39Z</time>
      </trkpt>
      <trkpt lat="43.19319" lon="1.45957">
        <ele>311</ele>
        <time>2017-10-07T13:14:40Z</time>
      </trkpt>
      <trkpt lat="43.1932" lon="1.45959">
        <ele>312</ele>
        <time>2017-10-07T13:14:41Z</time>
      </trkpt>
      <trkpt lat="43.1932" lon="1.45962">
        <ele>312</ele>
        <time>2017-10-07T13:14:42Z</time>
      </trkpt>
      <trkpt lat="43.19319" lon="1.45971">
        <ele>312</ele>
        <time>2017-10-07T13:14:46Z</time>
      </trkpt>
      <trkpt lat="43.19319" lon="1.45974">
        <ele>312</ele>
        <time>2017-10-07T13:14:49Z</time>
      </trkpt>
      <trkpt lat="43.19319" lon="1.45978">
        <ele>312</ele>
        <time>2017-10-07T13:15:23Z</time>
      </trkpt>
      <trkpt lat="43.19319" lon="1.45979">
        <ele>312</ele>
        <time>2017-10-07T13:15:24Z</time>
      </trkpt>
      <trkpt lat="43.19319" lon="1.45979">
        <ele>312</ele>
        <time>2017-10-07T13:15:25Z</time>
      </trkpt>
      <trkpt lat="43.19318" lon="1.4598">
        <ele>312</ele>
        <time>2017-10-07T13:15:26Z</time>
      </trkpt>
      <trkpt lat="43.19318" lon="1.45983">
        <ele>312</ele>
        <time>2017-10-07T13:15:28Z</time>
      </trkpt>
      <trkpt lat="43.19318" lon="1.45985">
        <ele>312</ele>
        <time>2017-10-07T13:15:29Z</time>
      </trkpt>
      <trkpt lat="43.19317" lon="1.45988">
        <ele>312</ele>
        <time>2017-10-07T13:15:30Z</time>
      </trkpt>
      <trkpt lat="43.19316" lon="1.45992">
        <ele>312</ele>
        <time>2017-10-07T13:15:32Z</time>
      </trkpt>
      <trkpt lat="43.19316" lon="1.45995">
        <ele>313</ele>
        <time>2017-10-07T13:15:33Z</time>
      </trkpt>
      <trkpt lat="43.19315" lon="1.45997">
        <ele>313</ele>
        <time>2017-10-07T13:15:34Z</time>
      </trkpt>
      <trkpt lat="43.19314" lon="1.46">
        <ele>314</ele>
        <time>2017-10-07T13:15:35Z</time>
      </trkpt>
      <trkpt lat="43.19314" lon="1.46002">
        <ele>314</ele>
        <time>2017-10-07T13:15:36Z</time>
      </trkpt>
      <trkpt lat="43.19313" lon="1.46005">
        <ele>314</ele>
        <time>2017-10-07T13:15:37Z</time>
      </trkpt>
      <trkpt lat="43.19308" lon="1.46019">
        <ele>314</ele>
        <time>2017-10-07T13:15:43Z</time>
      </trkpt>
      <trkpt lat="43.19304" lon="1.46037">
        <ele>314</ele>
        <time>2017-10-07T13:15:51Z</time>
      </trkpt>
      <trkpt lat="43.19303" lon="1.4604">
        <ele>315</ele>
        <time>2017-10-07T13:15:52Z</time>
      </trkpt>
      <trkpt lat="43.19302" lon="1.46042">
        <ele>315</ele>
        <time>2017-10-07T13:15:53Z</time>
      </trkpt>
      <trkpt lat="43.19302" lon="1.46045">
        <ele>316</ele>
        <time>2017-10-07T13:15:54Z</time>
      </trkpt>
      <trkpt lat="43.19301" lon="1.46048">
        <ele>316</ele>
        <time>2017-10-07T13:15:55Z</time>
      </trkpt>
      <trkpt lat="43.19299" lon="1.46056">
        <ele>316</ele>
        <time>2017-10-07T13:15:58Z</time>
      </trkpt>
      <trkpt lat="43.19294" lon="1.46075">
        <ele>316</ele>
        <time>2017-10-07T13:16:06Z</time>
      </trkpt>
      <trkpt lat="43.19292" lon="1.46093">
        <ele>316</ele>
        <time>2017-10-07T13:16:12Z</time>
      </trkpt>
      <trkpt lat="43.19292" lon="1.46098">
        <ele>316</ele>
        <time>2017-10-07T13:16:14Z</time>
      </trkpt>
      <trkpt lat="43.19293" lon="1.46101">
        <ele>317</ele>
        <time>2017-10-07T13:16:15Z</time>
      </trkpt>
      <trkpt lat="43.19292" lon="1.46104">
        <ele>317</ele>
        <time>2017-10-07T13:16:16Z</time>
      </trkpt>
      <trkpt lat="43.19292" lon="1.46107">
        <ele>318</ele>
        <time>2017-10-07T13:16:17Z</time>
      </trkpt>
      <trkpt lat="43.19292" lon="1.4611">
        <ele>318</ele>
        <time>2017-10-07T13:16:18Z</time>
      </trkpt>
      <trkpt lat="43.19287" lon="1.46132">
        <ele>318</ele>
        <time>2017-10-07T13:16:25Z</time>
      </trkpt>
      <trkpt lat="43.19286" lon="1.46143">
        <ele>318</ele>
        <time>2017-10-07T13:16:29Z</time>
      </trkpt>
      <trkpt lat="43.19285" lon="1.46145">
        <ele>319</ele>
        <time>2017-10-07T13:16:30Z</time>
      </trkpt>
      <trkpt lat="43.19284" lon="1.46148">
        <ele>319</ele>
        <time>2017-10-07T13:16:31Z</time>
      </trkpt>
      <trkpt lat="43.19284" lon="1.46151">
        <ele>320</ele>
        <time>2017-10-07T13:16:32Z</time>
      </trkpt>
      <trkpt lat="43.19283" lon="1.46154">
        <ele>320</ele>
        <time>2017-10-07T13:16:33Z</time>
      </trkpt>
      <trkpt lat="43.1928" lon="1.46169">
        <ele>320</ele>
        <time>2017-10-07T13:16:38Z</time>
      </trkpt>
      <trkpt lat="43.19276" lon="1.46191">
        <ele>320</ele>
        <time>2017-10-07T13:16:44Z</time>
      </trkpt>
      <trkpt lat="43.19274" lon="1.46197">
        <ele>321</ele>
        <time>2017-10-07T13:16:46Z</time>
      </trkpt>
      <trkpt lat="43.19274" lon="1.462">
        <ele>321</ele>
        <time>2017-10-07T13:16:47Z</time>
      </trkpt>
      <trkpt lat="43.19273" lon="1.46204">
        <ele>321</ele>
        <time>2017-10-07T13:16:48Z</time>
      </trkpt>
      <trkpt lat="43.19273" lon="1.46206">
        <ele>322</ele>
        <time>2017-10-07T13:16:49Z</time>
      </trkpt>
      <trkpt lat="43.19273" lon="1.46209">
        <ele>322</ele>
        <time>2017-10-07T13:16:50Z</time>
      </trkpt>
      <trkpt lat="43.19273" lon="1.46223">
        <ele>322</ele>
        <time>2017-10-07T13:16:54Z</time>
      </trkpt>
      <trkpt lat="43.19276" lon="1.46242">
        <ele>322</ele>
        <time>2017-10-07T13:17:00Z</time>
      </trkpt>
      <trkpt lat="43.19285" lon="1.46259">
        <ele>322</ele>
        <time>2017-10-07T13:17:05Z</time>
      </trkpt>
      <trkpt lat="43.19301" lon="1.46277">
        <ele>322</ele>
        <time>2017-10-07T13:17:11Z</time>
      </trkpt>
      <trkpt lat="43.19318" lon="1.46292">
        <ele>322</ele>
        <time>2017-10-07T13:17:17Z</time>
      </trkpt>
      <trkpt lat="43.19332" lon="1.46302">
        <ele>323</ele>
        <time>2017-10-07T13:17:22Z</time>
      </trkpt>
      <trkpt lat="43.19335" lon="1.46304">
        <ele>323</ele>
        <time>2017-10-07T13:17:23Z</time>
      </trkpt>
      <trkpt lat="43.19338" lon="1.46306">
        <ele>324</ele>
        <time>2017-10-07T13:17:24Z</time>
      </trkpt>
      <trkpt lat="43.1934" lon="1.46307">
        <ele>324</ele>
        <time>2017-10-07T13:17:25Z</time>
      </trkpt>
      <trkpt lat="43.19342" lon="1.46309">
        <ele>324</ele>
        <time>2017-10-07T13:17:26Z</time>
      </trkpt>
      <trkpt lat="43.19354" lon="1.46316">
        <ele>324</ele>
        <time>2017-10-07T13:17:31Z</time>
      </trkpt>
      <trkpt lat="43.19358" lon="1.46319">
        <ele>325</ele>
        <time>2017-10-07T13:17:33Z</time>
      </trkpt>
      <trkpt lat="43.19361" lon="1.4632">
        <ele>325</ele>
        <time>2017-10-07T13:17:34Z</time>
      </trkpt>
      <trkpt lat="43.19363" lon="1.46322">
        <ele>326</ele>
        <time>2017-10-07T13:17:35Z</time>
      </trkpt>
      <trkpt lat="43.19365" lon="1.46323">
        <ele>326</ele>
        <time>2017-10-07T13:17:36Z</time>
      </trkpt>
      <trkpt lat="43.19368" lon="1.46325">
        <ele>326</ele>
        <time>2017-10-07T13:17:37Z</time>
      </trkpt>
      <trkpt lat="43.19381" lon="1.46331">
        <ele>327</ele>
        <time>2017-10-07T13:17:43Z</time>
      </trkpt>
      <trkpt lat="43.19384" lon="1.46331">
        <ele>327</ele>
        <time>2017-10-07T13:17:44Z</time>
      </trkpt>
      <trkpt lat="43.19386" lon="1.46332">
        <ele>328</ele>
        <time>2017-10-07T13:17:45Z</time>
      </trkpt>
      <trkpt lat="43.19388" lon="1.46334">
        <ele>328</ele>
        <time>2017-10-07T13:17:46Z</time>
      </trkpt>
      <trkpt lat="43.1939" lon="1.46335">
        <ele>329</ele>
        <time>2017-10-07T13:17:47Z</time>
      </trkpt>
      <trkpt lat="43.19397" lon="1.46339">
        <ele>329</ele>
        <time>2017-10-07T13:17:51Z</time>
      </trkpt>
      <trkpt lat="43.19411" lon="1.46353">
        <ele>329</ele>
        <time>2017-10-07T13:17:57Z</time>
      </trkpt>
      <trkpt lat="43.19429" lon="1.46374">
        <ele>329</ele>
        <time>2017-10-07T13:18:03Z</time>
      </trkpt>
      <trkpt lat="43.19441" lon="1.464">
        <ele>329</ele>
        <time>2017-10-07T13:18:09Z</time>
      </trkpt>
      <trkpt lat="43.19445" lon="1.46425">
        <ele>329</ele>
        <time>2017-10-07T13:18:14Z</time>
      </trkpt>
      <trkpt lat="43.19449" lon="1.4645">
        <ele>329</ele>
        <time>2017-10-07T13:18:19Z</time>
      </trkpt>
      <trkpt lat="43.19451" lon="1.46455">
        <ele>329</ele>
        <time>2017-10-07T13:18:20Z</time>
      </trkpt>
      <trkpt lat="43.19452" lon="1.46461">
        <ele>328</ele>
        <time>2017-10-07T13:18:21Z</time>
      </trkpt>
      <trkpt lat="43.19454" lon="1.46466">
        <ele>328</ele>
        <time>2017-10-07T13:18:22Z</time>
      </trkpt>
      <trkpt lat="43.19455" lon="1.46472">
        <ele>327</ele>
        <time>2017-10-07T13:18:23Z</time>
      </trkpt>
      <trkpt lat="43.19457" lon="1.46477">
        <ele>326</ele>
        <time>2017-10-07T13:18:24Z</time>
      </trkpt>
      <trkpt lat="43.1947" lon="1.46511">
        <ele>326</ele>
        <time>2017-10-07T13:18:31Z</time>
      </trkpt>
      <trkpt lat="43.19485" lon="1.46539">
        <ele>326</ele>
        <time>2017-10-07T13:18:38Z</time>
      </trkpt>
      <trkpt lat="43.19499" lon="1.46559">
        <ele>326</ele>
        <time>2017-10-07T13:18:44Z</time>
      </trkpt>
      <trkpt lat="43.19501" lon="1.46562">
        <ele>327</ele>
        <time>2017-10-07T13:18:45Z</time>
      </trkpt>
      <trkpt lat="43.19504" lon="1.46565">
        <ele>327</ele>
        <time>2017-10-07T13:18:46Z</time>
      </trkpt>
      <trkpt lat="43.19506" lon="1.46568">
        <ele>328</ele>
        <time>2017-10-07T13:18:47Z</time>
      </trkpt>
      <trkpt lat="43.19509" lon="1.46571">
        <ele>328</ele>
        <time>2017-10-07T13:18:48Z</time>
      </trkpt>
      <trkpt lat="43.19514" lon="1.46577">
        <ele>328</ele>
        <time>2017-10-07T13:18:50Z</time>
      </trkpt>
      <trkpt lat="43.19536" lon="1.46601">
        <ele>328</ele>
        <time>2017-10-07T13:18:58Z</time>
      </trkpt>
      <trkpt lat="43.19546" lon="1.46613">
        <ele>329</ele>
        <time>2017-10-07T13:19:02Z</time>
      </trkpt>
      <trkpt lat="43.19549" lon="1.46616">
        <ele>329</ele>
        <time>2017-10-07T13:19:03Z</time>
      </trkpt>
      <trkpt lat="43.19551" lon="1.46619">
        <ele>330</ele>
        <time>2017-10-07T13:19:04Z</time>
      </trkpt>
      <trkpt lat="43.19554" lon="1.46622">
        <ele>330</ele>
        <time>2017-10-07T13:19:05Z</time>
      </trkpt>
      <trkpt lat="43.19556" lon="1.46625">
        <ele>331</ele>
        <time>2017-10-07T13:19:06Z</time>
      </trkpt>
      <trkpt lat="43.19572" lon="1.4665">
        <ele>331</ele>
        <time>2017-10-07T13:19:13Z</time>
      </trkpt>
      <trkpt lat="43.19574" lon="1.46654">
        <ele>331</ele>
        <time>2017-10-07T13:19:14Z</time>
      </trkpt>
      <trkpt lat="43.19576" lon="1.46658">
        <ele>331</ele>
        <time>2017-10-07T13:19:15Z</time>
      </trkpt>
      <trkpt lat="43.19578" lon="1.46662">
        <ele>332</ele>
        <time>2017-10-07T13:19:16Z</time>
      </trkpt>
      <trkpt lat="43.1958" lon="1.46666">
        <ele>332</ele>
        <time>2017-10-07T13:19:17Z</time>
      </trkpt>
      <trkpt lat="43.19581" lon="1.46671">
        <ele>333</ele>
        <time>2017-10-07T13:19:18Z</time>
      </trkpt>
      <trkpt lat="43.19587" lon="1.46683">
        <ele>333</ele>
        <time>2017-10-07T13:19:21Z</time>
      </trkpt>
      <trkpt lat="43.19596" lon="1.4671">
        <ele>333</ele>
        <time>2017-10-07T13:19:27Z</time>
      </trkpt>
      <trkpt lat="43.19611" lon="1.46738">
        <ele>333</ele>
        <time>2017-10-07T13:19:34Z</time>
      </trkpt>
      <trkpt lat="43.19618" lon="1.46741">
        <ele>333</ele>
        <time>2017-10-07T13:19:36Z</time>
      </trkpt>
      <trkpt lat="43.19621" lon="1.46741">
        <ele>334</ele>
        <time>2017-10-07T13:19:37Z</time>
      </trkpt>
      <trkpt lat="43.19625" lon="1.46741">
        <ele>335</ele>
        <time>2017-10-07T13:19:38Z</time>
      </trkpt>
      <trkpt lat="43.19628" lon="1.46741">
        <ele>335</ele>
        <time>2017-10-07T13:19:39Z</time>
      </trkpt>
      <trkpt lat="43.19642" lon="1.46738">
        <ele>335</ele>
        <time>2017-10-07T13:19:43Z</time>
      </trkpt>
      <trkpt lat="43.19665" lon="1.4673">
        <ele>335</ele>
        <time>2017-10-07T13:19:50Z</time>
      </trkpt>
      <trkpt lat="43.19672" lon="1.46728">
        <ele>335</ele>
        <time>2017-10-07T13:19:52Z</time>
      </trkpt>
      <trkpt lat="43.19675" lon="1.46727">
        <ele>336</ele>
        <time>2017-10-07T13:19:53Z</time>
      </trkpt>
      <trkpt lat="43.19678" lon="1.46725">
        <ele>336</ele>
        <time>2017-10-07T13:19:54Z</time>
      </trkpt>
      <trkpt lat="43.19682" lon="1.46724">
        <ele>337</ele>
        <time>2017-10-07T13:19:55Z</time>
      </trkpt>
      <trkpt lat="43.19685" lon="1.46722">
        <ele>337</ele>
        <time>2017-10-07T13:19:56Z</time>
      </trkpt>
      <trkpt lat="43.19688" lon="1.46721">
        <ele>337</ele>
        <time>2017-10-07T13:19:57Z</time>
      </trkpt>
      <trkpt lat="43.19698" lon="1.46717">
        <ele>338</ele>
        <time>2017-10-07T13:20:00Z</time>
      </trkpt>
      <trkpt lat="43.19701" lon="1.46716">
        <ele>338</ele>
        <time>2017-10-07T13:20:01Z</time>
      </trkpt>
      <trkpt lat="43.19704" lon="1.46716">
        <ele>339</ele>
        <time>2017-10-07T13:20:02Z</time>
      </trkpt>
      <trkpt lat="43.19707" lon="1.46714">
        <ele>339</ele>
        <time>2017-10-07T13:20:03Z</time>
      </trkpt>
      <trkpt lat="43.19711" lon="1.46713">
        <ele>339</ele>
        <time>2017-10-07T13:20:04Z</time>
      </trkpt>
      <trkpt lat="43.19725" lon="1.4671">
        <ele>340</ele>
        <time>2017-10-07T13:20:09Z</time>
      </trkpt>
      <trkpt lat="43.19727" lon="1.46711">
        <ele>340</ele>
        <time>2017-10-07T13:20:10Z</time>
      </trkpt>
      <trkpt lat="43.19729" lon="1.46711">
        <ele>340</ele>
        <time>2017-10-07T13:20:11Z</time>
      </trkpt>
      <trkpt lat="43.19731" lon="1.46712">
        <ele>341</ele>
        <time>2017-10-07T13:20:12Z</time>
      </trkpt>
      <trkpt lat="43.19732" lon="1.46711">
        <ele>341</ele>
        <time>2017-10-07T13:20:13Z</time>
      </trkpt>
      <trkpt lat="43.19731" lon="1.46711">
        <ele>341</ele>
        <time>2017-10-07T13:20:14Z</time>
      </trkpt>
      <trkpt lat="43.19733" lon="1.46713">
        <ele>341</ele>
        <time>2017-10-07T13:20:26Z</time>
      </trkpt>
      <trkpt lat="43.19737" lon="1.46717">
        <ele>341</ele>
        <time>2017-10-07T13:20:29Z</time>
      </trkpt>
      <trkpt lat="43.1974" lon="1.46717">
        <ele>341</ele>
        <time>2017-10-07T13:20:31Z</time>
      </trkpt>
      <trkpt lat="43.19744" lon="1.46718">
        <ele>341</ele>
        <time>2017-10-07T13:20:33Z</time>
      </trkpt>
      <trkpt lat="43.19745" lon="1.46721">
        <ele>341</ele>
        <time>2017-10-07T13:20:34Z</time>
      </trkpt>
      <trkpt lat="43.19745" lon="1.46729">
        <ele>342</ele>
        <time>2017-10-07T13:20:37Z</time>
      </trkpt>
      <trkpt lat="43.19745" lon="1.46732">
        <ele>342</ele>
        <time>2017-10-07T13:20:38Z</time>
      </trkpt>
      <trkpt lat="43.19745" lon="1.46734">
        <ele>343</ele>
        <time>2017-10-07T13:20:39Z</time>
      </trkpt>
      <trkpt lat="43.19745" lon="1.46735">
        <ele>343</ele>
        <time>2017-10-07T13:20:40Z</time>
      </trkpt>
      <trkpt lat="43.19746" lon="1.46736">
        <ele>343</ele>
        <time>2017-10-07T13:20:41Z</time>
      </trkpt>
      <trkpt lat="43.19747" lon="1.46734">
        <ele>343</ele>
        <time>2017-10-07T13:20:43Z</time>
      </trkpt>
      <trkpt lat="43.19748" lon="1.46731">
        <ele>343</ele>
        <time>2017-10-07T13:20:44Z</time>
      </trkpt>
      <trkpt lat="43.19747" lon="1.46713">
        <ele>343</ele>
        <time>2017-10-07T13:20:48Z</time>
      </trkpt>
      <trkpt lat="43.19748" lon="1.46706">
        <ele>343</ele>
        <time>2017-10-07T13:20:51Z</time>
      </trkpt>
      <trkpt lat="43.19748" lon="1.46706">
        <ele>343</ele>
        <time>2017-10-07T13:20:52Z</time>
      </trkpt>
      <trkpt lat="43.19748" lon="1.46705">
        <ele>343</ele>
        <time>2017-10-07T13:20:58Z</time>
      </trkpt>
      <trkpt lat="43.19748" lon="1.46705">
        <ele>343</ele>
        <time>2017-10-07T13:20:59Z</time>
      </trkpt>
      <trkpt lat="43.19749" lon="1.467">
        <ele>343</ele>
        <time>2017-10-07T13:21:52Z</time>
      </trkpt>
      <trkpt lat="43.19749" lon="1.46697">
        <ele>343</ele>
        <time>2017-10-07T13:21:53Z</time>
      </trkpt>
      <trkpt lat="43.19749" lon="1.46693">
        <ele>343</ele>
        <time>2017-10-07T13:21:54Z</time>
      </trkpt>
      <trkpt lat="43.19751" lon="1.4669">
        <ele>343</ele>
        <time>2017-10-07T13:21:55Z</time>
      </trkpt>
      <trkpt lat="43.19753" lon="1.46688">
        <ele>342</ele>
        <time>2017-10-07T13:21:56Z</time>
      </trkpt>
      <trkpt lat="43.19755" lon="1.46687">
        <ele>342</ele>
        <time>2017-10-07T13:21:57Z</time>
      </trkpt>
      <trkpt lat="43.19758" lon="1.46686">
        <ele>341</ele>
        <time>2017-10-07T13:21:58Z</time>
      </trkpt>
      <trkpt lat="43.19764" lon="1.46683">
        <ele>341</ele>
        <time>2017-10-07T13:22:00Z</time>
      </trkpt>
      <trkpt lat="43.19767" lon="1.4668">
        <ele>341</ele>
        <time>2017-10-07T13:22:01Z</time>
      </trkpt>
      <trkpt lat="43.1977" lon="1.46679">
        <ele>341</ele>
        <time>2017-10-07T13:22:02Z</time>
      </trkpt>
      <trkpt lat="43.19773" lon="1.46678">
        <ele>340</ele>
        <time>2017-10-07T13:22:03Z</time>
      </trkpt>
      <trkpt lat="43.19776" lon="1.46677">
        <ele>340</ele>
        <time>2017-10-07T13:22:04Z</time>
      </trkpt>
      <trkpt lat="43.19779" lon="1.46675">
        <ele>339</ele>
        <time>2017-10-07T13:22:05Z</time>
      </trkpt>
      <trkpt lat="43.19784" lon="1.46671">
        <ele>339</ele>
        <time>2017-10-07T13:22:07Z</time>
      </trkpt>
      <trkpt lat="43.19794" lon="1.46665">
        <ele>339</ele>
        <time>2017-10-07T13:22:10Z</time>
      </trkpt>
      <trkpt lat="43.19807" lon="1.46654">
        <ele>339</ele>
        <time>2017-10-07T13:22:14Z</time>
      </trkpt>
      <trkpt lat="43.19811" lon="1.46652">
        <ele>338</ele>
        <time>2017-10-07T13:22:15Z</time>
      </trkpt>
      <trkpt lat="43.19814" lon="1.46651">
        <ele>338</ele>
        <time>2017-10-07T13:22:16Z</time>
      </trkpt>
      <trkpt lat="43.19817" lon="1.4665">
        <ele>338</ele>
        <time>2017-10-07T13:22:17Z</time>
      </trkpt>
      <trkpt lat="43.1982" lon="1.46647">
        <ele>337</ele>
        <time>2017-10-07T13:22:18Z</time>
      </trkpt>
      <trkpt lat="43.19823" lon="1.46643">
        <ele>337</ele>
        <time>2017-10-07T13:22:19Z</time>
      </trkpt>
      <trkpt lat="43.19825" lon="1.46638">
        <ele>337</ele>
        <time>2017-10-07T13:22:20Z</time>
      </trkpt>
      <trkpt lat="43.19828" lon="1.46633">
        <ele>336</ele>
        <time>2017-10-07T13:22:21Z</time>
      </trkpt>
      <trkpt lat="43.19831" lon="1.46629">
        <ele>336</ele>
        <time>2017-10-07T13:22:22Z</time>
      </trkpt>
      <trkpt lat="43.19834" lon="1.46624">
        <ele>335</ele>
        <time>2017-10-07T13:22:23Z</time>
      </trkpt>
      <trkpt lat="43.19837" lon="1.46619">
        <ele>335</ele>
        <time>2017-10-07T13:22:24Z</time>
      </trkpt>
      <trkpt lat="43.19839" lon="1.46614">
        <ele>334</ele>
        <time>2017-10-07T13:22:25Z</time>
      </trkpt>
      <trkpt lat="43.19843" lon="1.46609">
        <ele>334</ele>
        <time>2017-10-07T13:22:26Z</time>
      </trkpt>
      <trkpt lat="43.19846" lon="1.46604">
        <ele>334</ele>
        <time>2017-10-07T13:22:27Z</time>
      </trkpt>
      <trkpt lat="43.19849" lon="1.46599">
        <ele>333</ele>
        <time>2017-10-07T13:22:28Z</time>
      </trkpt>
      <trkpt lat="43.19852" lon="1.46595">
        <ele>333</ele>
        <time>2017-10-07T13:22:29Z</time>
      </trkpt>
      <trkpt lat="43.19859" lon="1.46586">
        <ele>332</ele>
        <time>2017-10-07T13:22:31Z</time>
      </trkpt>
      <trkpt lat="43.19862" lon="1.46581">
        <ele>331</ele>
        <time>2017-10-07T13:22:32Z</time>
      </trkpt>
      <trkpt lat="43.19865" lon="1.46576">
        <ele>331</ele>
        <time>2017-10-07T13:22:33Z</time>
      </trkpt>
      <trkpt lat="43.19868" lon="1.46572">
        <ele>330</ele>
        <time>2017-10-07T13:22:34Z</time>
      </trkpt>
      <trkpt lat="43.1988" lon="1.46561">
        <ele>330</ele>
        <time>2017-10-07T13:22:37Z</time>
      </trkpt>
      <trkpt lat="43.19884" lon="1.46557">
        <ele>329</ele>
        <time>2017-10-07T13:22:38Z</time>
      </trkpt>
      <trkpt lat="43.19888" lon="1.46554">
        <ele>329</ele>
        <time>2017-10-07T13:22:39Z</time>
      </trkpt>
      <trkpt lat="43.19892" lon="1.4655">
        <ele>328</ele>
        <time>2017-10-07T13:22:40Z</time>
      </trkpt>
      <trkpt lat="43.19897" lon="1.46545">
        <ele>328</ele>
        <time>2017-10-07T13:22:41Z</time>
      </trkpt>
      <trkpt lat="43.19899" lon="1.46541">
        <ele>327</ele>
        <time>2017-10-07T13:22:42Z</time>
      </trkpt>
      <trkpt lat="43.19902" lon="1.46537">
        <ele>326</ele>
        <time>2017-10-07T13:22:43Z</time>
      </trkpt>
      <trkpt lat="43.19904" lon="1.46536">
        <ele>326</ele>
        <time>2017-10-07T13:22:44Z</time>
      </trkpt>
      <trkpt lat="43.19907" lon="1.46535">
        <ele>325</ele>
        <time>2017-10-07T13:22:45Z</time>
      </trkpt>
      <trkpt lat="43.1991" lon="1.46536">
        <ele>324</ele>
        <time>2017-10-07T13:22:46Z</time>
      </trkpt>
      <trkpt lat="43.19914" lon="1.46536">
        <ele>323</ele>
        <time>2017-10-07T13:22:47Z</time>
      </trkpt>
      <trkpt lat="43.19925" lon="1.46537">
        <ele>323</ele>
        <time>2017-10-07T13:22:50Z</time>
      </trkpt>
      <trkpt lat="43.19928" lon="1.46537">
        <ele>322</ele>
        <time>2017-10-07T13:22:51Z</time>
      </trkpt>
      <trkpt lat="43.1993" lon="1.46537">
        <ele>322</ele>
        <time>2017-10-07T13:22:52Z</time>
      </trkpt>
      <trkpt lat="43.1993" lon="1.46536">
        <ele>321</ele>
        <time>2017-10-07T13:22:53Z</time>
      </trkpt>
      <trkpt lat="43.1993" lon="1.46536">
        <ele>320</ele>
        <time>2017-10-07T13:22:54Z</time>
      </trkpt>
      <trkpt lat="43.19929" lon="1.46536">
        <ele>319</ele>
        <time>2017-10-07T13:22:55Z</time>
      </trkpt>
      <trkpt lat="43.19927" lon="1.46536">
        <ele>318</ele>
        <time>2017-10-07T13:22:56Z</time>
      </trkpt>
      <trkpt lat="43.19925" lon="1.46538">
        <ele>318</ele>
        <time>2017-10-07T13:22:58Z</time>
      </trkpt>
      <trkpt lat="43.19924" lon="1.46539">
        <ele>318</ele>
        <time>2017-10-07T13:22:59Z</time>
      </trkpt>
      <trkpt lat="43.19924" lon="1.46539">
        <ele>318</ele>
        <time>2017-10-07T13:23:01Z</time>
      </trkpt>
      <trkpt lat="43.19925" lon="1.46541">
        <ele>318</ele>
        <time>2017-10-07T13:23:02Z</time>
      </trkpt>
      <trkpt lat="43.19931" lon="1.46547">
        <ele>318</ele>
        <time>2017-10-07T13:23:06Z</time>
      </trkpt>
      <trkpt lat="43.19933" lon="1.46547">
        <ele>318</ele>
        <time>2017-10-07T13:23:07Z</time>
      </trkpt>
      <trkpt lat="43.19935" lon="1.46547">
        <ele>317</ele>
        <time>2017-10-07T13:23:08Z</time>
      </trkpt>
      <trkpt lat="43.19937" lon="1.46547">
        <ele>317</ele>
        <time>2017-10-07T13:23:09Z</time>
      </trkpt>
      <trkpt lat="43.19939" lon="1.46546">
        <ele>316</ele>
        <time>2017-10-07T13:23:10Z</time>
      </trkpt>
      <trkpt lat="43.19942" lon="1.46545">
        <ele>316</ele>
        <time>2017-10-07T13:23:11Z</time>
      </trkpt>
      <trkpt lat="43.19944" lon="1.46544">
        <ele>315</ele>
        <time>2017-10-07T13:23:12Z</time>
      </trkpt>
      <trkpt lat="43.19946" lon="1.46543">
        <ele>314</ele>
        <time>2017-10-07T13:23:13Z</time>
      </trkpt>
      <trkpt lat="43.19948" lon="1.46542">
        <ele>313</ele>
        <time>2017-10-07T13:23:14Z</time>
      </trkpt>
      <trkpt lat="43.19951" lon="1.46542">
        <ele>312</ele>
        <time>2017-10-07T13:23:15Z</time>
      </trkpt>
      <trkpt lat="43.19954" lon="1.46541">
        <ele>312</ele>
        <time>2017-10-07T13:23:16Z</time>
      </trkpt>
      <trkpt lat="43.19956" lon="1.46542">
        <ele>311</ele>
        <time>2017-10-07T13:23:17Z</time>
      </trkpt>
      <trkpt lat="43.1996" lon="1.46542">
        <ele>310</ele>
        <time>2017-10-07T13:23:18Z</time>
      </trkpt>
      <trkpt lat="43.19963" lon="1.46542">
        <ele>309</ele>
        <time>2017-10-07T13:23:19Z</time>
      </trkpt>
      <trkpt lat="43.19966" lon="1.46542">
        <ele>307</ele>
        <time>2017-10-07T13:23:20Z</time>
      </trkpt>
      <trkpt lat="43.1997" lon="1.46541">
        <ele>307</ele>
        <time>2017-10-07T13:23:21Z</time>
      </trkpt>
      <trkpt lat="43.19973" lon="1.46538">
        <ele>306</ele>
        <time>2017-10-07T13:23:22Z</time>
      </trkpt>
      <trkpt lat="43.19978" lon="1.46536">
        <ele>305</ele>
        <time>2017-10-07T13:23:23Z</time>
      </trkpt>
      <trkpt lat="43.19982" lon="1.46533">
        <ele>304</ele>
        <time>2017-10-07T13:23:24Z</time>
      </trkpt>
      <trkpt lat="43.19986" lon="1.46529">
        <ele>303</ele>
        <time>2017-10-07T13:23:25Z</time>
      </trkpt>
      <trkpt lat="43.1999" lon="1.46525">
        <ele>303</ele>
        <time>2017-10-07T13:23:26Z</time>
      </trkpt>
      <trkpt lat="43.19993" lon="1.46521">
        <ele>302</ele>
        <time>2017-10-07T13:23:27Z</time>
      </trkpt>
      <trkpt lat="43.19996" lon="1.46518">
        <ele>301</ele>
        <time>2017-10-07T13:23:28Z</time>
      </trkpt>
      <trkpt lat="43.19999" lon="1.46514">
        <ele>300</ele>
        <time>2017-10-07T13:23:29Z</time>
      </trkpt>
      <trkpt lat="43.20002" lon="1.4651">
        <ele>299</ele>
        <time>2017-10-07T13:23:30Z</time>
      </trkpt>
      <trkpt lat="43.20006" lon="1.46506">
        <ele>298</ele>
        <time>2017-10-07T13:23:31Z</time>
      </trkpt>
      <trkpt lat="43.20008" lon="1.46503">
        <ele>297</ele>
        <time>2017-10-07T13:23:32Z</time>
      </trkpt>
      <trkpt lat="43.20011" lon="1.465">
        <ele>297</ele>
        <time>2017-10-07T13:23:33Z</time>
      </trkpt>
      <trkpt lat="43.20015" lon="1.46496">
        <ele>296</ele>
        <time>2017-10-07T13:23:34Z</time>
      </trkpt>
      <trkpt lat="43.20018" lon="1.46492">
        <ele>295</ele>
        <time>2017-10-07T13:23:35Z</time>
      </trkpt>
      <trkpt lat="43.20022" lon="1.46489">
        <ele>295</ele>
        <time>2017-10-07T13:23:36Z</time>
      </trkpt>
      <trkpt lat="43.20025" lon="1.46485">
        <ele>294</ele>
        <time>2017-10-07T13:23:37Z</time>
      </trkpt>
      <trkpt lat="43.20028" lon="1.4648">
        <ele>294</ele>
        <time>2017-10-07T13:23:38Z</time>
      </trkpt>
      <trkpt lat="43.20031" lon="1.46476">
        <ele>293</ele>
        <time>2017-10-07T13:23:39Z</time>
      </trkpt>
      <trkpt lat="43.20035" lon="1.46473">
        <ele>293</ele>
        <time>2017-10-07T13:23:40Z</time>
      </trkpt>
      <trkpt lat="43.20039" lon="1.46469">
        <ele>292</ele>
        <time>2017-10-07T13:23:41Z</time>
      </trkpt>
      <trkpt lat="43.20042" lon="1.46466">
        <ele>291</ele>
        <time>2017-10-07T13:23:42Z</time>
      </trkpt>
      <trkpt lat="43.20044" lon="1.46461">
        <ele>291</ele>
        <time>2017-10-07T13:23:43Z</time>
      </trkpt>
      <trkpt lat="43.20046" lon="1.46456">
        <ele>290</ele>
        <time>2017-10-07T13:23:44Z</time>
      </trkpt>
      <trkpt lat="43.20048" lon="1.46454">
        <ele>289</ele>
        <time>2017-10-07T13:23:45Z</time>
      </trkpt>
      <trkpt lat="43.2005" lon="1.46452">
        <ele>289</ele>
        <time>2017-10-07T13:23:46Z</time>
      </trkpt>
      <trkpt lat="43.20052" lon="1.4645">
        <ele>288</ele>
        <time>2017-10-07T13:23:47Z</time>
      </trkpt>
      <trkpt lat="43.20053" lon="1.46449">
        <ele>287</ele>
        <time>2017-10-07T13:23:48Z</time>
      </trkpt>
      <trkpt lat="43.20058" lon="1.46448">
        <ele>287</ele>
        <time>2017-10-07T13:23:50Z</time>
      </trkpt>
      <trkpt lat="43.2006" lon="1.46448">
        <ele>286</ele>
        <time>2017-10-07T13:23:51Z</time>
      </trkpt>
      <trkpt lat="43.2006" lon="1.46447">
        <ele>286</ele>
        <time>2017-10-07T13:23:52Z</time>
      </trkpt>
      <trkpt lat="43.20059" lon="1.46444">
        <ele>283</ele>
        <time>2017-10-07T13:24:01Z</time>
      </trkpt>
      <trkpt lat="43.20058" lon="1.46444">
        <ele>283</ele>
        <time>2017-10-07T13:24:02Z</time>
      </trkpt>
      <trkpt lat="43.20059" lon="1.4644">
        <ele>283</ele>
        <time>2017-10-07T13:24:07Z</time>
      </trkpt>
      <trkpt lat="43.20061" lon="1.46439">
        <ele>283</ele>
        <time>2017-10-07T13:24:13Z</time>
      </trkpt>
      <trkpt lat="43.2007" lon="1.46427">
        <ele>283</ele>
        <time>2017-10-07T13:24:17Z</time>
      </trkpt>
      <trkpt lat="43.20074" lon="1.46421">
        <ele>282</ele>
        <time>2017-10-07T13:24:19Z</time>
      </trkpt>
      <trkpt lat="43.20077" lon="1.46419">
        <ele>282</ele>
        <time>2017-10-07T13:24:20Z</time>
      </trkpt>
      <trkpt lat="43.20079" lon="1.46416">
        <ele>281</ele>
        <time>2017-10-07T13:24:21Z</time>
      </trkpt>
      <trkpt lat="43.2008" lon="1.46414">
        <ele>281</ele>
        <time>2017-10-07T13:24:22Z</time>
      </trkpt>
      <trkpt lat="43.20082" lon="1.46413">
        <ele>280</ele>
        <time>2017-10-07T13:24:23Z</time>
      </trkpt>
      <trkpt lat="43.20085" lon="1.46413">
        <ele>279</ele>
        <time>2017-10-07T13:24:24Z</time>
      </trkpt>
      <trkpt lat="43.20088" lon="1.46413">
        <ele>279</ele>
        <time>2017-10-07T13:24:25Z</time>
      </trkpt>
      <trkpt lat="43.2009" lon="1.46413">
        <ele>278</ele>
        <time>2017-10-07T13:24:26Z</time>
      </trkpt>
      <trkpt lat="43.20092" lon="1.46412">
        <ele>278</ele>
        <time>2017-10-07T13:24:27Z</time>
      </trkpt>
      <trkpt lat="43.20096" lon="1.46411">
        <ele>277</ele>
        <time>2017-10-07T13:24:28Z</time>
      </trkpt>
      <trkpt lat="43.20099" lon="1.46411">
        <ele>277</ele>
        <time>2017-10-07T13:24:29Z</time>
      </trkpt>
      <trkpt lat="43.20102" lon="1.4641">
        <ele>276</ele>
        <time>2017-10-07T13:24:30Z</time>
      </trkpt>
      <trkpt lat="43.20105" lon="1.46408">
        <ele>276</ele>
        <time>2017-10-07T13:24:31Z</time>
      </trkpt>
      <trkpt lat="43.20107" lon="1.46406">
        <ele>275</ele>
        <time>2017-10-07T13:24:32Z</time>
      </trkpt>
      <trkpt lat="43.20108" lon="1.46403">
        <ele>275</ele>
        <time>2017-10-07T13:24:33Z</time>
      </trkpt>
      <trkpt lat="43.20109" lon="1.46402">
        <ele>274</ele>
        <time>2017-10-07T13:24:34Z</time>
      </trkpt>
      <trkpt lat="43.20108" lon="1.46401">
        <ele>273</ele>
        <time>2017-10-07T13:24:35Z</time>
      </trkpt>
      <trkpt lat="43.20109" lon="1.46401">
        <ele>273</ele>
        <time>2017-10-07T13:24:36Z</time>
      </trkpt>
      <trkpt lat="43.20111" lon="1.46403">
        <ele>273</ele>
        <time>2017-10-07T13:24:43Z</time>
      </trkpt>
      <trkpt lat="43.20113" lon="1.46403">
        <ele>273</ele>
        <time>2017-10-07T13:24:45Z</time>
      </trkpt>
      <trkpt lat="43.20119" lon="1.4641">
        <ele>273</ele>
        <time>2017-10-07T13:24:49Z</time>
      </trkpt>
      <trkpt lat="43.20121" lon="1.46412">
        <ele>273</ele>
        <time>2017-10-07T13:24:52Z</time>
      </trkpt>
      <trkpt lat="43.20121" lon="1.46411">
        <ele>273</ele>
        <time>2017-10-07T13:24:57Z</time>
      </trkpt>
      <trkpt lat="43.20119" lon="1.4641">
        <ele>273</ele>
        <time>2017-10-07T13:24:58Z</time>
      </trkpt>
      <trkpt lat="43.20116" lon="1.46408">
        <ele>273</ele>
        <time>2017-10-07T13:25:01Z</time>
      </trkpt>
      <trkpt lat="43.20115" lon="1.46406">
        <ele>273</ele>
        <time>2017-10-07T13:25:03Z</time>
      </trkpt>
      <trkpt lat="43.2011" lon="1.46401">
        <ele>273</ele>
        <time>2017-10-07T13:25:10Z</time>
      </trkpt>
      <trkpt lat="43.20108" lon="1.46398">
        <ele>273</ele>
        <time>2017-10-07T13:25:28Z</time>
      </trkpt>
      <trkpt lat="43.20108" lon="1.46398">
        <ele>273</ele>
        <time>2017-10-07T13:25:29Z</time>
      </trkpt>
      <trkpt lat="43.20109" lon="1.46397">
        <ele>273</ele>
        <time>2017-10-07T13:26:03Z</time>
      </trkpt>
      <trkpt lat="43.20111" lon="1.46395">
        <ele>273</ele>
        <time>2017-10-07T13:26:04Z</time>
      </trkpt>
      <trkpt lat="43.20116" lon="1.46385">
        <ele>273</ele>
        <time>2017-10-07T13:26:09Z</time>
      </trkpt>
      <trkpt lat="43.20118" lon="1.46383">
        <ele>273</ele>
        <time>2017-10-07T13:26:10Z</time>
      </trkpt>
      <trkpt lat="43.20122" lon="1.46379">
        <ele>273</ele>
        <time>2017-10-07T13:26:13Z</time>
      </trkpt>
      <trkpt lat="43.20126" lon="1.4638">
        <ele>273</ele>
        <time>2017-10-07T13:26:15Z</time>
      </trkpt>
      <trkpt lat="43.20134" lon="1.46381">
        <ele>273</ele>
        <time>2017-10-07T13:26:19Z</time>
      </trkpt>
      <trkpt lat="43.20138" lon="1.46379">
        <ele>273</ele>
        <time>2017-10-07T13:26:21Z</time>
      </trkpt>
      <trkpt lat="43.20138" lon="1.46377">
        <ele>273</ele>
        <time>2017-10-07T13:26:22Z</time>
      </trkpt>
      <trkpt lat="43.20141" lon="1.46372">
        <ele>273</ele>
        <time>2017-10-07T13:26:25Z</time>
      </trkpt>
      <trkpt lat="43.20145" lon="1.46368">
        <ele>273</ele>
        <time>2017-10-07T13:26:28Z</time>
      </trkpt>
      <trkpt lat="43.20149" lon="1.46363">
        <ele>273</ele>
        <time>2017-10-07T13:26:31Z</time>
      </trkpt>
      <trkpt lat="43.20151" lon="1.46362">
        <ele>273</ele>
        <time>2017-10-07T13:26:32Z</time>
      </trkpt>
      <trkpt lat="43.20152" lon="1.4636">
        <ele>273</ele>
        <time>2017-10-07T13:26:33Z</time>
      </trkpt>
      <trkpt lat="43.20154" lon="1.46359">
        <ele>274</ele>
        <time>2017-10-07T13:26:34Z</time>
      </trkpt>
      <trkpt lat="43.20155" lon="1.46358">
        <ele>274</ele>
        <time>2017-10-07T13:26:35Z</time>
      </trkpt>
      <trkpt lat="43.20157" lon="1.46356">
        <ele>275</ele>
        <time>2017-10-07T13:26:36Z</time>
      </trkpt>
      <trkpt lat="43.2016" lon="1.46354">
        <ele>275</ele>
        <time>2017-10-07T13:26:38Z</time>
      </trkpt>
      <trkpt lat="43.20162" lon="1.46353">
        <ele>275</ele>
        <time>2017-10-07T13:26:39Z</time>
      </trkpt>
      <trkpt lat="43.20164" lon="1.46352">
        <ele>276</ele>
        <time>2017-10-07T13:26:40Z</time>
      </trkpt>
      <trkpt lat="43.20165" lon="1.46352">
        <ele>276</ele>
        <time>2017-10-07T13:26:41Z</time>
      </trkpt>
      <trkpt lat="43.20167" lon="1.46351">
        <ele>276</ele>
        <time>2017-10-07T13:26:42Z</time>
      </trkpt>
      <trkpt lat="43.20168" lon="1.4635">
        <ele>277</ele>
        <time>2017-10-07T13:26:43Z</time>
      </trkpt>
      <trkpt lat="43.20169" lon="1.4635">
        <ele>277</ele>
        <time>2017-10-07T13:26:44Z</time>
      </trkpt>
      <trkpt lat="43.20171" lon="1.4635">
        <ele>277</ele>
        <time>2017-10-07T13:26:45Z</time>
      </trkpt>
      <trkpt lat="43.20179" lon="1.46346">
        <ele>277</ele>
        <time>2017-10-07T13:26:51Z</time>
      </trkpt>
      <trkpt lat="43.20186" lon="1.46342">
        <ele>277</ele>
        <time>2017-10-07T13:26:55Z</time>
      </trkpt>
      <trkpt lat="43.20188" lon="1.46342">
        <ele>278</ele>
        <time>2017-10-07T13:26:56Z</time>
      </trkpt>
      <trkpt lat="43.20189" lon="1.46341">
        <ele>278</ele>
        <time>2017-10-07T13:26:57Z</time>
      </trkpt>
      <trkpt lat="43.20191" lon="1.4634">
        <ele>278</ele>
        <time>2017-10-07T13:26:58Z</time>
      </trkpt>
      <trkpt lat="43.20193" lon="1.4634">
        <ele>279</ele>
        <time>2017-10-07T13:26:59Z</time>
      </trkpt>
      <trkpt lat="43.20202" lon="1.46335">
        <ele>279</ele>
        <time>2017-10-07T13:27:05Z</time>
      </trkpt>
      <trkpt lat="43.20211" lon="1.46328">
        <ele>279</ele>
        <time>2017-10-07T13:27:11Z</time>
      </trkpt>
      <trkpt lat="43.20213" lon="1.46327">
        <ele>279</ele>
        <time>2017-10-07T13:27:12Z</time>
      </trkpt>
      <trkpt lat="43.20214" lon="1.46325">
        <ele>280</ele>
        <time>2017-10-07T13:27:13Z</time>
      </trkpt>
      <trkpt lat="43.20216" lon="1.46323">
        <ele>280</ele>
        <time>2017-10-07T13:27:14Z</time>
      </trkpt>
      <trkpt lat="43.20218" lon="1.46322">
        <ele>281</ele>
        <time>2017-10-07T13:27:15Z</time>
      </trkpt>
      <trkpt lat="43.20219" lon="1.4632">
        <ele>281</ele>
        <time>2017-10-07T13:27:16Z</time>
      </trkpt>
      <trkpt lat="43.20222" lon="1.46317">
        <ele>281</ele>
        <time>2017-10-07T13:27:18Z</time>
      </trkpt>
      <trkpt lat="43.20229" lon="1.46303">
        <ele>281</ele>
        <time>2017-10-07T13:27:24Z</time>
      </trkpt>
      <trkpt lat="43.20233" lon="1.46295">
        <ele>281</ele>
        <time>2017-10-07T13:27:28Z</time>
      </trkpt>
      <trkpt lat="43.20234" lon="1.46293">
        <ele>282</ele>
        <time>2017-10-07T13:27:29Z</time>
      </trkpt>
      <trkpt lat="43.20235" lon="1.4629">
        <ele>282</ele>
        <time>2017-10-07T13:27:30Z</time>
      </trkpt>
      <trkpt lat="43.20237" lon="1.46288">
        <ele>283</ele>
        <time>2017-10-07T13:27:31Z</time>
      </trkpt>
      <trkpt lat="43.20238" lon="1.46284">
        <ele>283</ele>
        <time>2017-10-07T13:27:32Z</time>
      </trkpt>
      <trkpt lat="43.2024" lon="1.4628">
        <ele>283</ele>
        <time>2017-10-07T13:27:34Z</time>
      </trkpt>
      <trkpt lat="43.20249" lon="1.46267">
        <ele>283</ele>
        <time>2017-10-07T13:27:41Z</time>
      </trkpt>
      <trkpt lat="43.20256" lon="1.46253">
        <ele>283</ele>
        <time>2017-10-07T13:27:47Z</time>
      </trkpt>
      <trkpt lat="43.20258" lon="1.46249">
        <ele>283</ele>
        <time>2017-10-07T13:27:49Z</time>
      </trkpt>
      <trkpt lat="43.2026" lon="1.46246">
        <ele>284</ele>
        <time>2017-10-07T13:27:50Z</time>
      </trkpt>
      <trkpt lat="43.20261" lon="1.46243">
        <ele>285</ele>
        <time>2017-10-07T13:27:51Z</time>
      </trkpt>
      <trkpt lat="43.20262" lon="1.46242">
        <ele>285</ele>
        <time>2017-10-07T13:27:52Z</time>
      </trkpt>
      <trkpt lat="43.20264" lon="1.4624">
        <ele>285</ele>
        <time>2017-10-07T13:27:53Z</time>
      </trkpt>
      <trkpt lat="43.20274" lon="1.46227">
        <ele>285</ele>
        <time>2017-10-07T13:28:00Z</time>
      </trkpt>
      <trkpt lat="43.20277" lon="1.46223">
        <ele>285</ele>
        <time>2017-10-07T13:28:02Z</time>
      </trkpt>
      <trkpt lat="43.20277" lon="1.4622">
        <ele>286</ele>
        <time>2017-10-07T13:28:03Z</time>
      </trkpt>
      <trkpt lat="43.20278" lon="1.46218">
        <ele>286</ele>
        <time>2017-10-07T13:28:04Z</time>
      </trkpt>
      <trkpt lat="43.20279" lon="1.46215">
        <ele>287</ele>
        <time>2017-10-07T13:28:05Z</time>
      </trkpt>
      <trkpt lat="43.2028" lon="1.46213">
        <ele>287</ele>
        <time>2017-10-07T13:28:06Z</time>
      </trkpt>
      <trkpt lat="43.20281" lon="1.46198">
        <ele>287</ele>
        <time>2017-10-07T13:28:12Z</time>
      </trkpt>
      <trkpt lat="43.20281" lon="1.46195">
        <ele>287</ele>
        <time>2017-10-07T13:28:13Z</time>
      </trkpt>
      <trkpt lat="43.20281" lon="1.46193">
        <ele>288</ele>
        <time>2017-10-07T13:28:14Z</time>
      </trkpt>
      <trkpt lat="43.20281" lon="1.46191">
        <ele>288</ele>
        <time>2017-10-07T13:28:15Z</time>
      </trkpt>
      <trkpt lat="43.20282" lon="1.46188">
        <ele>289</ele>
        <time>2017-10-07T13:28:16Z</time>
      </trkpt>
      <trkpt lat="43.20282" lon="1.46184">
        <ele>289</ele>
        <time>2017-10-07T13:28:18Z</time>
      </trkpt>
      <trkpt lat="43.20285" lon="1.46171">
        <ele>290</ele>
        <time>2017-10-07T13:28:23Z</time>
      </trkpt>
      <trkpt lat="43.20285" lon="1.46169">
        <ele>290</ele>
        <time>2017-10-07T13:28:24Z</time>
      </trkpt>
      <trkpt lat="43.20285" lon="1.46166">
        <ele>290</ele>
        <time>2017-10-07T13:28:25Z</time>
      </trkpt>
      <trkpt lat="43.20285" lon="1.46164">
        <ele>291</ele>
        <time>2017-10-07T13:28:26Z</time>
      </trkpt>
      <trkpt lat="43.20285" lon="1.46162">
        <ele>291</ele>
        <time>2017-10-07T13:28:27Z</time>
      </trkpt>
      <trkpt lat="43.20285" lon="1.4616">
        <ele>291</ele>
        <time>2017-10-07T13:28:28Z</time>
      </trkpt>
      <trkpt lat="43.20286" lon="1.4615">
        <ele>292</ele>
        <time>2017-10-07T13:28:31Z</time>
      </trkpt>
      <trkpt lat="43.20287" lon="1.46148">
        <ele>292</ele>
        <time>2017-10-07T13:28:32Z</time>
      </trkpt>
      <trkpt lat="43.20288" lon="1.46146">
        <ele>293</ele>
        <time>2017-10-07T13:28:33Z</time>
      </trkpt>
      <trkpt lat="43.20289" lon="1.46145">
        <ele>293</ele>
        <time>2017-10-07T13:28:34Z</time>
      </trkpt>
      <trkpt lat="43.20291" lon="1.46145">
        <ele>293</ele>
        <time>2017-10-07T13:28:35Z</time>
      </trkpt>
      <trkpt lat="43.20295" lon="1.46142">
        <ele>293</ele>
        <time>2017-10-07T13:28:38Z</time>
      </trkpt>
      <trkpt lat="43.20298" lon="1.4614">
        <ele>294</ele>
        <time>2017-10-07T13:28:40Z</time>
      </trkpt>
      <trkpt lat="43.20299" lon="1.4614">
        <ele>295</ele>
        <time>2017-10-07T13:28:41Z</time>
      </trkpt>
      <trkpt lat="43.20301" lon="1.46139">
        <ele>295</ele>
        <time>2017-10-07T13:28:42Z</time>
      </trkpt>
      <trkpt lat="43.20302" lon="1.46138">
        <ele>295</ele>
        <time>2017-10-07T13:28:43Z</time>
      </trkpt>
      <trkpt lat="43.20304" lon="1.46136">
        <ele>295</ele>
        <time>2017-10-07T13:28:45Z</time>
      </trkpt>
      <trkpt lat="43.20307" lon="1.46134">
        <ele>296</ele>
        <time>2017-10-07T13:28:47Z</time>
      </trkpt>
      <trkpt lat="43.20308" lon="1.46133">
        <ele>296</ele>
        <time>2017-10-07T13:28:48Z</time>
      </trkpt>
      <trkpt lat="43.20309" lon="1.46132">
        <ele>297</ele>
        <time>2017-10-07T13:28:49Z</time>
      </trkpt>
      <trkpt lat="43.2031" lon="1.46131">
        <ele>297</ele>
        <time>2017-10-07T13:28:50Z</time>
      </trkpt>
      <trkpt lat="43.20311" lon="1.4613">
        <ele>298</ele>
        <time>2017-10-07T13:28:51Z</time>
      </trkpt>
      <trkpt lat="43.20314" lon="1.46127">
        <ele>298</ele>
        <time>2017-10-07T13:28:54Z</time>
      </trkpt>
      <trkpt lat="43.20317" lon="1.46126">
        <ele>298</ele>
        <time>2017-10-07T13:28:56Z</time>
      </trkpt>
      <trkpt lat="43.20318" lon="1.46125">
        <ele>298</ele>
        <time>2017-10-07T13:28:57Z</time>
      </trkpt>
      <trkpt lat="43.20319" lon="1.46124">
        <ele>299</ele>
        <time>2017-10-07T13:28:58Z</time>
      </trkpt>
      <trkpt lat="43.2032" lon="1.46122">
        <ele>299</ele>
        <time>2017-10-07T13:28:59Z</time>
      </trkpt>
      <trkpt lat="43.20321" lon="1.46122">
        <ele>300</ele>
        <time>2017-10-07T13:29:00Z</time>
      </trkpt>
      <trkpt lat="43.20322" lon="1.4612">
        <ele>300</ele>
        <time>2017-10-07T13:29:01Z</time>
      </trkpt>
      <trkpt lat="43.20325" lon="1.46117">
        <ele>300</ele>
        <time>2017-10-07T13:29:04Z</time>
      </trkpt>
      <trkpt lat="43.20326" lon="1.46117">
        <ele>301</ele>
        <time>2017-10-07T13:29:05Z</time>
      </trkpt>
      <trkpt lat="43.20327" lon="1.46116">
        <ele>302</ele>
        <time>2017-10-07T13:29:06Z</time>
      </trkpt>
      <trkpt lat="43.20328" lon="1.46116">
        <ele>302</ele>
        <time>2017-10-07T13:29:07Z</time>
      </trkpt>
      <trkpt lat="43.20334" lon="1.46111">
        <ele>302</ele>
        <time>2017-10-07T13:29:12Z</time>
      </trkpt>
      <trkpt lat="43.20335" lon="1.46111">
        <ele>303</ele>
        <time>2017-10-07T13:29:13Z</time>
      </trkpt>
      <trkpt lat="43.20336" lon="1.4611">
        <ele>303</ele>
        <time>2017-10-07T13:29:14Z</time>
      </trkpt>
      <trkpt lat="43.20337" lon="1.46109">
        <ele>304</ele>
        <time>2017-10-07T13:29:15Z</time>
      </trkpt>
      <trkpt lat="43.20338" lon="1.46108">
        <ele>304</ele>
        <time>2017-10-07T13:29:16Z</time>
      </trkpt>
      <trkpt lat="43.20344" lon="1.46105">
        <ele>304</ele>
        <time>2017-10-07T13:29:21Z</time>
      </trkpt>
      <trkpt lat="43.20346" lon="1.46104">
        <ele>304</ele>
        <time>2017-10-07T13:29:22Z</time>
      </trkpt>
      <trkpt lat="43.20347" lon="1.46103">
        <ele>305</ele>
        <time>2017-10-07T13:29:23Z</time>
      </trkpt>
      <trkpt lat="43.20348" lon="1.46103">
        <ele>305</ele>
        <time>2017-10-07T13:29:24Z</time>
      </trkpt>
      <trkpt lat="43.20349" lon="1.46102">
        <ele>306</ele>
        <time>2017-10-07T13:29:25Z</time>
      </trkpt>
      <trkpt lat="43.20351" lon="1.46101">
        <ele>306</ele>
        <time>2017-10-07T13:29:26Z</time>
      </trkpt>
      <trkpt lat="43.20355" lon="1.46099">
        <ele>306</ele>
        <time>2017-10-07T13:29:29Z</time>
      </trkpt>
      <trkpt lat="43.20357" lon="1.46098">
        <ele>307</ele>
        <time>2017-10-07T13:29:31Z</time>
      </trkpt>
      <trkpt lat="43.20358" lon="1.46098">
        <ele>307</ele>
        <time>2017-10-07T13:29:32Z</time>
      </trkpt>
      <trkpt lat="43.2036" lon="1.46097">
        <ele>308</ele>
        <time>2017-10-07T13:29:33Z</time>
      </trkpt>
      <trkpt lat="43.20361" lon="1.46096">
        <ele>308</ele>
        <time>2017-10-07T13:29:34Z</time>
      </trkpt>
      <trkpt lat="43.20362" lon="1.46095">
        <ele>308</ele>
        <time>2017-10-07T13:29:35Z</time>
      </trkpt>
      <trkpt lat="43.20364" lon="1.46094">
        <ele>308</ele>
        <time>2017-10-07T13:29:36Z</time>
      </trkpt>
      <trkpt lat="43.20365" lon="1.46094">
        <ele>308</ele>
        <time>2017-10-07T13:29:37Z</time>
      </trkpt>
      <trkpt lat="43.20368" lon="1.46093">
        <ele>309</ele>
        <time>2017-10-07T13:29:39Z</time>
      </trkpt>
      <trkpt lat="43.2037" lon="1.46092">
        <ele>309</ele>
        <time>2017-10-07T13:29:40Z</time>
      </trkpt>
      <trkpt lat="43.20371" lon="1.46091">
        <ele>310</ele>
        <time>2017-10-07T13:29:41Z</time>
      </trkpt>
      <trkpt lat="43.20372" lon="1.46091">
        <ele>310</ele>
        <time>2017-10-07T13:29:42Z</time>
      </trkpt>
      <trkpt lat="43.20374" lon="1.4609">
        <ele>311</ele>
        <time>2017-10-07T13:29:43Z</time>
      </trkpt>
      <trkpt lat="43.20377" lon="1.46089">
        <ele>311</ele>
        <time>2017-10-07T13:29:46Z</time>
      </trkpt>
      <trkpt lat="43.20381" lon="1.46089">
        <ele>311</ele>
        <time>2017-10-07T13:29:49Z</time>
      </trkpt>
      <trkpt lat="43.20391" lon="1.4609">
        <ele>311</ele>
        <time>2017-10-07T13:29:57Z</time>
      </trkpt>
      <trkpt lat="43.20393" lon="1.46089">
        <ele>311</ele>
        <time>2017-10-07T13:29:58Z</time>
      </trkpt>
      <trkpt lat="43.20394" lon="1.46089">
        <ele>312</ele>
        <time>2017-10-07T13:29:59Z</time>
      </trkpt>
      <trkpt lat="43.20396" lon="1.46088">
        <ele>312</ele>
        <time>2017-10-07T13:30:00Z</time>
      </trkpt>
      <trkpt lat="43.20397" lon="1.46088">
        <ele>313</ele>
        <time>2017-10-07T13:30:01Z</time>
      </trkpt>
      <trkpt lat="43.20402" lon="1.46088">
        <ele>313</ele>
        <time>2017-10-07T13:30:05Z</time>
      </trkpt>
      <trkpt lat="43.20408" lon="1.46079">
        <ele>313</ele>
        <time>2017-10-07T13:30:11Z</time>
      </trkpt>
      <trkpt lat="43.20403" lon="1.46072">
        <ele>313</ele>
        <time>2017-10-07T13:30:15Z</time>
      </trkpt>
      <trkpt lat="43.20399" lon="1.46071">
        <ele>313</ele>
        <time>2017-10-07T13:30:17Z</time>
      </trkpt>
      <trkpt lat="43.20397" lon="1.4607">
        <ele>313</ele>
        <time>2017-10-07T13:30:18Z</time>
      </trkpt>
      <trkpt lat="43.20396" lon="1.46069">
        <ele>314</ele>
        <time>2017-10-07T13:30:19Z</time>
      </trkpt>
      <trkpt lat="43.20394" lon="1.46068">
        <ele>315</ele>
        <time>2017-10-07T13:30:20Z</time>
      </trkpt>
      <trkpt lat="43.20391" lon="1.46067">
        <ele>315</ele>
        <time>2017-10-07T13:30:22Z</time>
      </trkpt>
      <trkpt lat="43.20381" lon="1.46063">
        <ele>315</ele>
        <time>2017-10-07T13:30:27Z</time>
      </trkpt>
      <trkpt lat="43.20368" lon="1.46057">
        <ele>315</ele>
        <time>2017-10-07T13:30:33Z</time>
      </trkpt>
      <trkpt lat="43.20366" lon="1.46056">
        <ele>315</ele>
        <time>2017-10-07T13:30:34Z</time>
      </trkpt>
      <trkpt lat="43.20364" lon="1.46056">
        <ele>316</ele>
        <time>2017-10-07T13:30:35Z</time>
      </trkpt>
      <trkpt lat="43.20361" lon="1.46055">
        <ele>316</ele>
        <time>2017-10-07T13:30:36Z</time>
      </trkpt>
      <trkpt lat="43.20359" lon="1.46055">
        <ele>317</ele>
        <time>2017-10-07T13:30:37Z</time>
      </trkpt>
      <trkpt lat="43.20348" lon="1.46051">
        <ele>317</ele>
        <time>2017-10-07T13:30:42Z</time>
      </trkpt>
      <trkpt lat="43.20331" lon="1.46042">
        <ele>317</ele>
        <time>2017-10-07T13:30:50Z</time>
      </trkpt>
      <trkpt lat="43.20329" lon="1.4604">
        <ele>318</ele>
        <time>2017-10-07T13:30:51Z</time>
      </trkpt>
      <trkpt lat="43.20328" lon="1.46038">
        <ele>318</ele>
        <time>2017-10-07T13:30:52Z</time>
      </trkpt>
      <trkpt lat="43.20326" lon="1.46035">
        <ele>319</ele>
        <time>2017-10-07T13:30:53Z</time>
      </trkpt>
      <trkpt lat="43.20325" lon="1.46033">
        <ele>319</ele>
        <time>2017-10-07T13:30:54Z</time>
      </trkpt>
      <trkpt lat="43.20323" lon="1.46027">
        <ele>319</ele>
        <time>2017-10-07T13:30:56Z</time>
      </trkpt>
      <trkpt lat="43.20318" lon="1.46005">
        <ele>319</ele>
        <time>2017-10-07T13:31:03Z</time>
      </trkpt>
      <trkpt lat="43.20317" lon="1.45999">
        <ele>319</ele>
        <time>2017-10-07T13:31:05Z</time>
      </trkpt>
      <trkpt lat="43.20317" lon="1.45995">
        <ele>320</ele>
        <time>2017-10-07T13:31:06Z</time>
      </trkpt>
      <trkpt lat="43.20317" lon="1.45992">
        <ele>321</ele>
        <time>2017-10-07T13:31:07Z</time>
      </trkpt>
      <trkpt lat="43.20317" lon="1.45989">
        <ele>321</ele>
        <time>2017-10-07T13:31:08Z</time>
      </trkpt>
      <trkpt lat="43.20317" lon="1.45976">
        <ele>321</ele>
        <time>2017-10-07T13:31:12Z</time>
      </trkpt>
      <trkpt lat="43.20317" lon="1.45952">
        <ele>321</ele>
        <time>2017-10-07T13:31:19Z</time>
      </trkpt>
      <trkpt lat="43.20316" lon="1.45949">
        <ele>322</ele>
        <time>2017-10-07T13:31:20Z</time>
      </trkpt>
      <trkpt lat="43.20316" lon="1.45945">
        <ele>322</ele>
        <time>2017-10-07T13:31:21Z</time>
      </trkpt>
      <trkpt lat="43.20316" lon="1.45942">
        <ele>323</ele>
        <time>2017-10-07T13:31:22Z</time>
      </trkpt>
      <trkpt lat="43.20315" lon="1.45939">
        <ele>323</ele>
        <time>2017-10-07T13:31:23Z</time>
      </trkpt>
      <trkpt lat="43.20313" lon="1.45925">
        <ele>323</ele>
        <time>2017-10-07T13:31:27Z</time>
      </trkpt>
      <trkpt lat="43.20307" lon="1.45898">
        <ele>323</ele>
        <time>2017-10-07T13:31:35Z</time>
      </trkpt>
      <trkpt lat="43.20305" lon="1.45885">
        <ele>324</ele>
        <time>2017-10-07T13:31:39Z</time>
      </trkpt>
      <trkpt lat="43.20305" lon="1.45881">
        <ele>324</ele>
        <time>2017-10-07T13:31:40Z</time>
      </trkpt>
      <trkpt lat="43.20305" lon="1.45878">
        <ele>324</ele>
        <time>2017-10-07T13:31:41Z</time>
      </trkpt>
      <trkpt lat="43.20305" lon="1.45874">
        <ele>325</ele>
        <time>2017-10-07T13:31:42Z</time>
      </trkpt>
      <trkpt lat="43.20306" lon="1.45871">
        <ele>325</ele>
        <time>2017-10-07T13:31:43Z</time>
      </trkpt>
      <trkpt lat="43.20312" lon="1.45856">
        <ele>325</ele>
        <time>2017-10-07T13:31:48Z</time>
      </trkpt>
      <trkpt lat="43.20318" lon="1.4585">
        <ele>326</ele>
        <time>2017-10-07T13:31:51Z</time>
      </trkpt>
      <trkpt lat="43.2032" lon="1.45848">
        <ele>326</ele>
        <time>2017-10-07T13:31:52Z</time>
      </trkpt>
      <trkpt lat="43.20322" lon="1.45846">
        <ele>326</ele>
        <time>2017-10-07T13:31:53Z</time>
      </trkpt>
      <trkpt lat="43.20323" lon="1.45844">
        <ele>327</ele>
        <time>2017-10-07T13:31:54Z</time>
      </trkpt>
      <trkpt lat="43.20325" lon="1.45841">
        <ele>327</ele>
        <time>2017-10-07T13:31:55Z</time>
      </trkpt>
      <trkpt lat="43.20327" lon="1.45824">
        <ele>327</ele>
        <time>2017-10-07T13:32:00Z</time>
      </trkpt>
      <trkpt lat="43.20322" lon="1.45813">
        <ele>327</ele>
        <time>2017-10-07T13:32:05Z</time>
      </trkpt>
      <trkpt lat="43.2032" lon="1.45809">
        <ele>328</ele>
        <time>2017-10-07T13:32:07Z</time>
      </trkpt>
      <trkpt lat="43.20319" lon="1.45807">
        <ele>328</ele>
        <time>2017-10-07T13:32:08Z</time>
      </trkpt>
      <trkpt lat="43.20319" lon="1.45806">
        <ele>328</ele>
        <time>2017-10-07T13:32:09Z</time>
      </trkpt>
      <trkpt lat="43.20319" lon="1.45805">
        <ele>329</ele>
        <time>2017-10-07T13:32:10Z</time>
      </trkpt>
      <trkpt lat="43.20319" lon="1.45805">
        <ele>329</ele>
        <time>2017-10-07T13:34:06Z</time>
      </trkpt>
      <trkpt lat="43.20318" lon="1.45804">
        <ele>329</ele>
        <time>2017-10-07T13:34:07Z</time>
      </trkpt>
      <trkpt lat="43.20315" lon="1.45802">
        <ele>329</ele>
        <time>2017-10-07T13:34:09Z</time>
      </trkpt>
      <trkpt lat="43.20314" lon="1.45798">
        <ele>329</ele>
        <time>2017-10-07T13:34:11Z</time>
      </trkpt>
      <trkpt lat="43.20312" lon="1.45793">
        <ele>329</ele>
        <time>2017-10-07T13:34:13Z</time>
      </trkpt>
      <trkpt lat="43.20307" lon="1.45784">
        <ele>329</ele>
        <time>2017-10-07T13:34:17Z</time>
      </trkpt>
      <trkpt lat="43.20304" lon="1.45776">
        <ele>329</ele>
        <time>2017-10-07T13:34:20Z</time>
      </trkpt>
      <trkpt lat="43.20299" lon="1.45764">
        <ele>330</ele>
        <time>2017-10-07T13:34:24Z</time>
      </trkpt>
      <trkpt lat="43.20299" lon="1.45761">
        <ele>330</ele>
        <time>2017-10-07T13:34:25Z</time>
      </trkpt>
      <trkpt lat="43.20298" lon="1.45758">
        <ele>330</ele>
        <time>2017-10-07T13:34:26Z</time>
      </trkpt>
      <trkpt lat="43.20298" lon="1.45755">
        <ele>331</ele>
        <time>2017-10-07T13:34:27Z</time>
      </trkpt>
      <trkpt lat="43.20297" lon="1.45752">
        <ele>331</ele>
        <time>2017-10-07T13:34:28Z</time>
      </trkpt>
      <trkpt lat="43.20299" lon="1.45734">
        <ele>331</ele>
        <time>2017-10-07T13:34:33Z</time>
      </trkpt>
      <trkpt lat="43.20303" lon="1.45715">
        <ele>331</ele>
        <time>2017-10-07T13:34:39Z</time>
      </trkpt>
      <trkpt lat="43.20309" lon="1.45695">
        <ele>331</ele>
        <time>2017-10-07T13:34:45Z</time>
      </trkpt>
      <trkpt lat="43.20321" lon="1.45661">
        <ele>331</ele>
        <time>2017-10-07T13:34:54Z</time>
      </trkpt>
      <trkpt lat="43.20326" lon="1.45645">
        <ele>331</ele>
        <time>2017-10-07T13:34:59Z</time>
      </trkpt>
      <trkpt lat="43.2033" lon="1.45634">
        <ele>331</ele>
        <time>2017-10-07T13:35:02Z</time>
      </trkpt>
      <trkpt lat="43.20338" lon="1.45607">
        <ele>331</ele>
        <time>2017-10-07T13:35:08Z</time>
      </trkpt>
      <trkpt lat="43.20343" lon="1.45585">
        <ele>331</ele>
        <time>2017-10-07T13:35:13Z</time>
      </trkpt>
      <trkpt lat="43.20344" lon="1.45582">
        <ele>331</ele>
        <time>2017-10-07T13:35:14Z</time>
      </trkpt>
      <trkpt lat="43.20344" lon="1.45575">
        <ele>331</ele>
        <time>2017-10-07T13:35:16Z</time>
      </trkpt>
      <trkpt lat="43.20347" lon="1.45564">
        <ele>331</ele>
        <time>2017-10-07T13:35:19Z</time>
      </trkpt>
      <trkpt lat="43.20348" lon="1.45561">
        <ele>331</ele>
        <time>2017-10-07T13:35:20Z</time>
      </trkpt>
      <trkpt lat="43.2035" lon="1.45554">
        <ele>331</ele>
        <time>2017-10-07T13:35:23Z</time>
      </trkpt>
      <trkpt lat="43.20351" lon="1.45555">
        <ele>331</ele>
        <time>2017-10-07T13:35:25Z</time>
      </trkpt>
      <trkpt lat="43.20357" lon="1.45566">
        <ele>331</ele>
        <time>2017-10-07T13:35:29Z</time>
      </trkpt>
      <trkpt lat="43.2036" lon="1.45573">
        <ele>331</ele>
        <time>2017-10-07T13:35:31Z</time>
      </trkpt>
      <trkpt lat="43.20362" lon="1.45579">
        <ele>330</ele>
        <time>2017-10-07T13:35:32Z</time>
      </trkpt>
      <trkpt lat="43.20363" lon="1.45584">
        <ele>329</ele>
        <time>2017-10-07T13:35:33Z</time>
      </trkpt>
      <trkpt lat="43.20365" lon="1.4559">
        <ele>328</ele>
        <time>2017-10-07T13:35:34Z</time>
      </trkpt>
      <trkpt lat="43.20366" lon="1.45596">
        <ele>328</ele>
        <time>2017-10-07T13:35:35Z</time>
      </trkpt>
      <trkpt lat="43.20366" lon="1.45602">
        <ele>327</ele>
        <time>2017-10-07T13:35:36Z</time>
      </trkpt>
      <trkpt lat="43.20366" lon="1.45607">
        <ele>326</ele>
        <time>2017-10-07T13:35:37Z</time>
      </trkpt>
      <trkpt lat="43.20366" lon="1.45611">
        <ele>325</ele>
        <time>2017-10-07T13:35:38Z</time>
      </trkpt>
      <trkpt lat="43.20366" lon="1.45616">
        <ele>324</ele>
        <time>2017-10-07T13:35:39Z</time>
      </trkpt>
      <trkpt lat="43.20367" lon="1.4562">
        <ele>324</ele>
        <time>2017-10-07T13:35:40Z</time>
      </trkpt>
      <trkpt lat="43.20367" lon="1.45624">
        <ele>323</ele>
        <time>2017-10-07T13:35:41Z</time>
      </trkpt>
      <trkpt lat="43.20367" lon="1.45629">
        <ele>323</ele>
        <time>2017-10-07T13:35:42Z</time>
      </trkpt>
      <trkpt lat="43.20367" lon="1.45633">
        <ele>322</ele>
        <time>2017-10-07T13:35:43Z</time>
      </trkpt>
      <trkpt lat="43.20368" lon="1.45637">
        <ele>321</ele>
        <time>2017-10-07T13:35:44Z</time>
      </trkpt>
      <trkpt lat="43.20368" lon="1.45642">
        <ele>321</ele>
        <time>2017-10-07T13:35:45Z</time>
      </trkpt>
      <trkpt lat="43.20369" lon="1.45646">
        <ele>321</ele>
        <time>2017-10-07T13:35:46Z</time>
      </trkpt>
      <trkpt lat="43.20369" lon="1.4565">
        <ele>320</ele>
        <time>2017-10-07T13:35:47Z</time>
      </trkpt>
      <trkpt lat="43.2037" lon="1.45654">
        <ele>320</ele>
        <time>2017-10-07T13:35:48Z</time>
      </trkpt>
      <trkpt lat="43.2037" lon="1.45658">
        <ele>319</ele>
        <time>2017-10-07T13:35:49Z</time>
      </trkpt>
      <trkpt lat="43.20372" lon="1.45663">
        <ele>319</ele>
        <time>2017-10-07T13:35:50Z</time>
      </trkpt>
      <trkpt lat="43.20374" lon="1.45667">
        <ele>318</ele>
        <time>2017-10-07T13:35:51Z</time>
      </trkpt>
      <trkpt lat="43.20377" lon="1.4567">
        <ele>318</ele>
        <time>2017-10-07T13:35:52Z</time>
      </trkpt>
      <trkpt lat="43.20381" lon="1.45673">
        <ele>317</ele>
        <time>2017-10-07T13:35:53Z</time>
      </trkpt>
      <trkpt lat="43.20385" lon="1.45676">
        <ele>317</ele>
        <time>2017-10-07T13:35:54Z</time>
      </trkpt>
      <trkpt lat="43.2039" lon="1.4568">
        <ele>316</ele>
        <time>2017-10-07T13:35:55Z</time>
      </trkpt>
      <trkpt lat="43.20395" lon="1.45683">
        <ele>315</ele>
        <time>2017-10-07T13:35:56Z</time>
      </trkpt>
      <trkpt lat="43.20399" lon="1.45686">
        <ele>314</ele>
        <time>2017-10-07T13:35:57Z</time>
      </trkpt>
      <trkpt lat="43.20403" lon="1.4569">
        <ele>314</ele>
        <time>2017-10-07T13:35:58Z</time>
      </trkpt>
      <trkpt lat="43.20408" lon="1.45693">
        <ele>313</ele>
        <time>2017-10-07T13:35:59Z</time>
      </trkpt>
      <trkpt lat="43.20412" lon="1.45695">
        <ele>313</ele>
        <time>2017-10-07T13:36:00Z</time>
      </trkpt>
      <trkpt lat="43.20417" lon="1.45697">
        <ele>312</ele>
        <time>2017-10-07T13:36:01Z</time>
      </trkpt>
      <trkpt lat="43.20429" lon="1.457">
        <ele>312</ele>
        <time>2017-10-07T13:36:04Z</time>
      </trkpt>
      <trkpt lat="43.20436" lon="1.457">
        <ele>312</ele>
        <time>2017-10-07T13:36:06Z</time>
      </trkpt>
      <trkpt lat="43.2045" lon="1.45697">
        <ele>312</ele>
        <time>2017-10-07T13:36:10Z</time>
      </trkpt>
      <trkpt lat="43.20464" lon="1.45692">
        <ele>312</ele>
        <time>2017-10-07T13:36:14Z</time>
      </trkpt>
      <trkpt lat="43.20471" lon="1.4569">
        <ele>312</ele>
        <time>2017-10-07T13:36:16Z</time>
      </trkpt>
      <trkpt lat="43.20485" lon="1.45686">
        <ele>312</ele>
        <time>2017-10-07T13:36:20Z</time>
      </trkpt>
      <trkpt lat="43.20491" lon="1.45684">
        <ele>312</ele>
        <time>2017-10-07T13:36:22Z</time>
      </trkpt>
      <trkpt lat="43.20504" lon="1.45682">
        <ele>312</ele>
        <time>2017-10-07T13:36:26Z</time>
      </trkpt>
      <trkpt lat="43.20512" lon="1.45681">
        <ele>312</ele>
        <time>2017-10-07T13:36:29Z</time>
      </trkpt>
      <trkpt lat="43.20524" lon="1.4568">
        <ele>312</ele>
        <time>2017-10-07T13:36:35Z</time>
      </trkpt>
      <trkpt lat="43.20527" lon="1.45681">
        <ele>312</ele>
        <time>2017-10-07T13:39:52Z</time>
      </trkpt>
      <trkpt lat="43.20529" lon="1.45681">
        <ele>312</ele>
        <time>2017-10-07T13:39:53Z</time>
      </trkpt>
      <trkpt lat="43.20533" lon="1.45683">
        <ele>312</ele>
        <time>2017-10-07T13:39:55Z</time>
      </trkpt>
      <trkpt lat="43.20535" lon="1.45685">
        <ele>312</ele>
        <time>2017-10-07T13:39:56Z</time>
      </trkpt>
      <trkpt lat="43.20544" lon="1.4569">
        <ele>312</ele>
        <time>2017-10-07T13:39:59Z</time>
      </trkpt>
      <trkpt lat="43.20546" lon="1.45692">
        <ele>312</ele>
        <time>2017-10-07T13:40:00Z</time>
      </trkpt>
      <trkpt lat="43.20548" lon="1.45693">
        <ele>311</ele>
        <time>2017-10-07T13:40:01Z</time>
      </trkpt>
      <trkpt lat="43.20551" lon="1.45695">
        <ele>311</ele>
        <time>2017-10-07T13:40:02Z</time>
      </trkpt>
      <trkpt lat="43.20553" lon="1.45697">
        <ele>310</ele>
        <time>2017-10-07T13:40:03Z</time>
      </trkpt>
      <trkpt lat="43.20557" lon="1.45699">
        <ele>310</ele>
        <time>2017-10-07T13:40:05Z</time>
      </trkpt>
      <trkpt lat="43.20559" lon="1.45699">
        <ele>310</ele>
        <time>2017-10-07T13:40:06Z</time>
      </trkpt>
      <trkpt lat="43.20563" lon="1.45698">
        <ele>309</ele>
        <time>2017-10-07T13:40:07Z</time>
      </trkpt>
      <trkpt lat="43.20566" lon="1.45698">
        <ele>309</ele>
        <time>2017-10-07T13:40:08Z</time>
      </trkpt>
      <trkpt lat="43.20568" lon="1.45697">
        <ele>308</ele>
        <time>2017-10-07T13:40:09Z</time>
      </trkpt>
      <trkpt lat="43.2057" lon="1.45696">
        <ele>308</ele>
        <time>2017-10-07T13:40:10Z</time>
      </trkpt>
      <trkpt lat="43.20572" lon="1.45694">
        <ele>308</ele>
        <time>2017-10-07T13:40:11Z</time>
      </trkpt>
      <trkpt lat="43.20578" lon="1.4568">
        <ele>307</ele>
        <time>2017-10-07T13:40:15Z</time>
      </trkpt>
      <trkpt lat="43.2058" lon="1.45676">
        <ele>307</ele>
        <time>2017-10-07T13:40:16Z</time>
      </trkpt>
      <trkpt lat="43.20581" lon="1.45673">
        <ele>307</ele>
        <time>2017-10-07T13:40:17Z</time>
      </trkpt>
      <trkpt lat="43.20581" lon="1.45669">
        <ele>306</ele>
        <time>2017-10-07T13:40:18Z</time>
      </trkpt>
      <trkpt lat="43.20582" lon="1.45666">
        <ele>306</ele>
        <time>2017-10-07T13:40:19Z</time>
      </trkpt>
      <trkpt lat="43.20583" lon="1.45663">
        <ele>306</ele>
        <time>2017-10-07T13:40:20Z</time>
      </trkpt>
      <trkpt lat="43.20584" lon="1.45661">
        <ele>305</ele>
        <time>2017-10-07T13:40:21Z</time>
      </trkpt>
      <trkpt lat="43.20584" lon="1.45659">
        <ele>305</ele>
        <time>2017-10-07T13:40:22Z</time>
      </trkpt>
      <trkpt lat="43.20584" lon="1.45656">
        <ele>304</ele>
        <time>2017-10-07T13:40:23Z</time>
      </trkpt>
      <trkpt lat="43.20585" lon="1.45653">
        <ele>304</ele>
        <time>2017-10-07T13:40:24Z</time>
      </trkpt>
      <trkpt lat="43.20586" lon="1.45649">
        <ele>304</ele>
        <time>2017-10-07T13:40:25Z</time>
      </trkpt>
      <trkpt lat="43.20587" lon="1.45645">
        <ele>304</ele>
        <time>2017-10-07T13:40:26Z</time>
      </trkpt>
      <trkpt lat="43.2059" lon="1.45637">
        <ele>303</ele>
        <time>2017-10-07T13:40:29Z</time>
      </trkpt>
      <trkpt lat="43.2059" lon="1.45634">
        <ele>303</ele>
        <time>2017-10-07T13:40:30Z</time>
      </trkpt>
      <trkpt lat="43.20591" lon="1.4563">
        <ele>302</ele>
        <time>2017-10-07T13:40:31Z</time>
      </trkpt>
      <trkpt lat="43.20592" lon="1.45626">
        <ele>302</ele>
        <time>2017-10-07T13:40:32Z</time>
      </trkpt>
      <trkpt lat="43.20593" lon="1.45623">
        <ele>301</ele>
        <time>2017-10-07T13:40:33Z</time>
      </trkpt>
      <trkpt lat="43.20594" lon="1.45609">
        <ele>301</ele>
        <time>2017-10-07T13:40:36Z</time>
      </trkpt>
      <trkpt lat="43.20595" lon="1.45603">
        <ele>301</ele>
        <time>2017-10-07T13:40:37Z</time>
      </trkpt>
      <trkpt lat="43.20596" lon="1.45596">
        <ele>301</ele>
        <time>2017-10-07T13:40:38Z</time>
      </trkpt>
      <trkpt lat="43.20597" lon="1.4559">
        <ele>301</ele>
        <time>2017-10-07T13:40:39Z</time>
      </trkpt>
      <trkpt lat="43.20599" lon="1.45585">
        <ele>300</ele>
        <time>2017-10-07T13:40:40Z</time>
      </trkpt>
      <trkpt lat="43.206" lon="1.45579">
        <ele>300</ele>
        <time>2017-10-07T13:40:41Z</time>
      </trkpt>
      <trkpt lat="43.20601" lon="1.45574">
        <ele>299</ele>
        <time>2017-10-07T13:40:42Z</time>
      </trkpt>
      <trkpt lat="43.20602" lon="1.45569">
        <ele>299</ele>
        <time>2017-10-07T13:40:43Z</time>
      </trkpt>
      <trkpt lat="43.20603" lon="1.45565">
        <ele>298</ele>
        <time>2017-10-07T13:40:44Z</time>
      </trkpt>
      <trkpt lat="43.20605" lon="1.4556">
        <ele>298</ele>
        <time>2017-10-07T13:40:45Z</time>
      </trkpt>
      <trkpt lat="43.20606" lon="1.45554">
        <ele>297</ele>
        <time>2017-10-07T13:40:46Z</time>
      </trkpt>
      <trkpt lat="43.20608" lon="1.45549">
        <ele>297</ele>
        <time>2017-10-07T13:40:47Z</time>
      </trkpt>
      <trkpt lat="43.2061" lon="1.45545">
        <ele>296</ele>
        <time>2017-10-07T13:40:48Z</time>
      </trkpt>
      <trkpt lat="43.20612" lon="1.45542">
        <ele>296</ele>
        <time>2017-10-07T13:40:49Z</time>
      </trkpt>
      <trkpt lat="43.20613" lon="1.4554">
        <ele>295</ele>
        <time>2017-10-07T13:40:50Z</time>
      </trkpt>
      <trkpt lat="43.20614" lon="1.45536">
        <ele>294</ele>
        <time>2017-10-07T13:40:51Z</time>
      </trkpt>
      <trkpt lat="43.20615" lon="1.45532">
        <ele>294</ele>
        <time>2017-10-07T13:40:52Z</time>
      </trkpt>
      <trkpt lat="43.20617" lon="1.45529">
        <ele>293</ele>
        <time>2017-10-07T13:40:53Z</time>
      </trkpt>
      <trkpt lat="43.20619" lon="1.45525">
        <ele>293</ele>
        <time>2017-10-07T13:40:54Z</time>
      </trkpt>
      <trkpt lat="43.20622" lon="1.4552">
        <ele>292</ele>
        <time>2017-10-07T13:40:55Z</time>
      </trkpt>
      <trkpt lat="43.20625" lon="1.45516">
        <ele>291</ele>
        <time>2017-10-07T13:40:56Z</time>
      </trkpt>
      <trkpt lat="43.20628" lon="1.45512">
        <ele>291</ele>
        <time>2017-10-07T13:40:57Z</time>
      </trkpt>
      <trkpt lat="43.20631" lon="1.45508">
        <ele>290</ele>
        <time>2017-10-07T13:40:58Z</time>
      </trkpt>
      <trkpt lat="43.20635" lon="1.45504">
        <ele>289</ele>
        <time>2017-10-07T13:40:59Z</time>
      </trkpt>
      <trkpt lat="43.20638" lon="1.45501">
        <ele>289</ele>
        <time>2017-10-07T13:41:00Z</time>
      </trkpt>
      <trkpt lat="43.20641" lon="1.45497">
        <ele>288</ele>
        <time>2017-10-07T13:41:01Z</time>
      </trkpt>
      <trkpt lat="43.20644" lon="1.45493">
        <ele>288</ele>
        <time>2017-10-07T13:41:02Z</time>
      </trkpt>
      <trkpt lat="43.20647" lon="1.45488">
        <ele>287</ele>
        <time>2017-10-07T13:41:03Z</time>
      </trkpt>
      <trkpt lat="43.2065" lon="1.45483">
        <ele>286</ele>
        <time>2017-10-07T13:41:04Z</time>
      </trkpt>
      <trkpt lat="43.20654" lon="1.45477">
        <ele>286</ele>
        <time>2017-10-07T13:41:05Z</time>
      </trkpt>
      <trkpt lat="43.20657" lon="1.45472">
        <ele>285</ele>
        <time>2017-10-07T13:41:06Z</time>
      </trkpt>
      <trkpt lat="43.20661" lon="1.45467">
        <ele>284</ele>
        <time>2017-10-07T13:41:07Z</time>
      </trkpt>
      <trkpt lat="43.20666" lon="1.45461">
        <ele>283</ele>
        <time>2017-10-07T13:41:08Z</time>
      </trkpt>
      <trkpt lat="43.20671" lon="1.45456">
        <ele>282</ele>
        <time>2017-10-07T13:41:09Z</time>
      </trkpt>
      <trkpt lat="43.20676" lon="1.45451">
        <ele>281</ele>
        <time>2017-10-07T13:41:10Z</time>
      </trkpt>
      <trkpt lat="43.20682" lon="1.45446">
        <ele>280</ele>
        <time>2017-10-07T13:41:11Z</time>
      </trkpt>
      <trkpt lat="43.20687" lon="1.45441">
        <ele>279</ele>
        <time>2017-10-07T13:41:12Z</time>
      </trkpt>
      <trkpt lat="43.2069" lon="1.45436">
        <ele>278</ele>
        <time>2017-10-07T13:41:13Z</time>
      </trkpt>
      <trkpt lat="43.20693" lon="1.4543">
        <ele>277</ele>
        <time>2017-10-07T13:41:14Z</time>
      </trkpt>
      <trkpt lat="43.20696" lon="1.45424">
        <ele>276</ele>
        <time>2017-10-07T13:41:15Z</time>
      </trkpt>
      <trkpt lat="43.20699" lon="1.4542">
        <ele>274</ele>
        <time>2017-10-07T13:41:16Z</time>
      </trkpt>
      <trkpt lat="43.20702" lon="1.45415">
        <ele>273</ele>
        <time>2017-10-07T13:41:17Z</time>
      </trkpt>
      <trkpt lat="43.20704" lon="1.45411">
        <ele>272</ele>
        <time>2017-10-07T13:41:18Z</time>
      </trkpt>
      <trkpt lat="43.20705" lon="1.45406">
        <ele>271</ele>
        <time>2017-10-07T13:41:19Z</time>
      </trkpt>
      <trkpt lat="43.20705" lon="1.45403">
        <ele>270</ele>
        <time>2017-10-07T13:41:20Z</time>
      </trkpt>
      <trkpt lat="43.20706" lon="1.454">
        <ele>270</ele>
        <time>2017-10-07T13:41:21Z</time>
      </trkpt>
      <trkpt lat="43.20707" lon="1.45398">
        <ele>269</ele>
        <time>2017-10-07T13:41:22Z</time>
      </trkpt>
      <trkpt lat="43.20707" lon="1.45396">
        <ele>268</ele>
        <time>2017-10-07T13:41:23Z</time>
      </trkpt>
      <trkpt lat="43.20708" lon="1.45394">
        <ele>268</ele>
        <time>2017-10-07T13:41:24Z</time>
      </trkpt>
      <trkpt lat="43.20707" lon="1.45392">
        <ele>268</ele>
        <time>2017-10-07T13:41:25Z</time>
      </trkpt>
      <trkpt lat="43.20705" lon="1.45384">
        <ele>268</ele>
        <time>2017-10-07T13:41:28Z</time>
      </trkpt>
      <trkpt lat="43.20706" lon="1.4538">
        <ele>268</ele>
        <time>2017-10-07T13:41:29Z</time>
      </trkpt>
      <trkpt lat="43.20708" lon="1.45369">
        <ele>268</ele>
        <time>2017-10-07T13:41:33Z</time>
      </trkpt>
      <trkpt lat="43.2071" lon="1.45361">
        <ele>268</ele>
        <time>2017-10-07T13:41:36Z</time>
      </trkpt>
      <trkpt lat="43.20713" lon="1.4535">
        <ele>268</ele>
        <time>2017-10-07T13:41:39Z</time>
      </trkpt>
      <trkpt lat="43.20717" lon="1.45333">
        <ele>268</ele>
        <time>2017-10-07T13:41:44Z</time>
      </trkpt>
      <trkpt lat="43.20722" lon="1.45308">
        <ele>269</ele>
        <time>2017-10-07T13:41:51Z</time>
      </trkpt>
      <trkpt lat="43.20722" lon="1.45305">
        <ele>269</ele>
        <time>2017-10-07T13:41:52Z</time>
      </trkpt>
      <trkpt lat="43.20722" lon="1.45302">
        <ele>270</ele>
        <time>2017-10-07T13:41:53Z</time>
      </trkpt>
      <trkpt lat="43.20722" lon="1.45298">
        <ele>270</ele>
        <time>2017-10-07T13:41:54Z</time>
      </trkpt>
      <trkpt lat="43.20722" lon="1.45293">
        <ele>270</ele>
        <time>2017-10-07T13:41:55Z</time>
      </trkpt>
      <trkpt lat="43.20723" lon="1.45289">
        <ele>270</ele>
        <time>2017-10-07T13:41:56Z</time>
      </trkpt>
      <trkpt lat="43.20724" lon="1.45267">
        <ele>270</ele>
        <time>2017-10-07T13:42:01Z</time>
      </trkpt>
      <trkpt lat="43.20724" lon="1.45249">
        <ele>270</ele>
        <time>2017-10-07T13:42:04Z</time>
      </trkpt>
      <trkpt lat="43.20726" lon="1.45238">
        <ele>270</ele>
        <time>2017-10-07T13:42:06Z</time>
      </trkpt>
      <trkpt lat="43.20733" lon="1.45213">
        <ele>270</ele>
        <time>2017-10-07T13:42:10Z</time>
      </trkpt>
      <trkpt lat="43.20735" lon="1.45207">
        <ele>269</ele>
        <time>2017-10-07T13:42:11Z</time>
      </trkpt>
      <trkpt lat="43.20735" lon="1.45201">
        <ele>269</ele>
        <time>2017-10-07T13:42:12Z</time>
      </trkpt>
      <trkpt lat="43.20735" lon="1.45198">
        <ele>269</ele>
        <time>2017-10-07T13:42:13Z</time>
      </trkpt>
      <trkpt lat="43.20734" lon="1.45195">
        <ele>268</ele>
        <time>2017-10-07T13:42:14Z</time>
      </trkpt>
      <trkpt lat="43.20729" lon="1.4518">
        <ele>268</ele>
        <time>2017-10-07T13:42:18Z</time>
      </trkpt>
      <trkpt lat="43.20727" lon="1.45175">
        <ele>268</ele>
        <time>2017-10-07T13:42:19Z</time>
      </trkpt>
      <trkpt lat="43.20724" lon="1.45165">
        <ele>268</ele>
        <time>2017-10-07T13:42:22Z</time>
      </trkpt>
      <trkpt lat="43.20721" lon="1.45157">
        <ele>268</ele>
        <time>2017-10-07T13:42:26Z</time>
      </trkpt>
      <trkpt lat="43.2072" lon="1.45155">
        <ele>268</ele>
        <time>2017-10-07T13:42:27Z</time>
      </trkpt>
      <trkpt lat="43.20719" lon="1.45143">
        <ele>269</ele>
        <time>2017-10-07T13:42:31Z</time>
      </trkpt>
      <trkpt lat="43.20718" lon="1.4514">
        <ele>269</ele>
        <time>2017-10-07T13:42:32Z</time>
      </trkpt>
      <trkpt lat="43.20718" lon="1.45137">
        <ele>269</ele>
        <time>2017-10-07T13:42:33Z</time>
      </trkpt>
      <trkpt lat="43.20717" lon="1.45134">
        <ele>270</ele>
        <time>2017-10-07T13:42:34Z</time>
      </trkpt>
      <trkpt lat="43.20717" lon="1.45131">
        <ele>270</ele>
        <time>2017-10-07T13:42:35Z</time>
      </trkpt>
      <trkpt lat="43.20716" lon="1.45124">
        <ele>271</ele>
        <time>2017-10-07T13:42:38Z</time>
      </trkpt>
      <trkpt lat="43.20716" lon="1.45122">
        <ele>271</ele>
        <time>2017-10-07T13:42:39Z</time>
      </trkpt>
      <trkpt lat="43.20716" lon="1.45119">
        <ele>271</ele>
        <time>2017-10-07T13:42:40Z</time>
      </trkpt>
      <trkpt lat="43.20715" lon="1.45117">
        <ele>272</ele>
        <time>2017-10-07T13:42:41Z</time>
      </trkpt>
      <trkpt lat="43.20715" lon="1.45114">
        <ele>272</ele>
        <time>2017-10-07T13:42:42Z</time>
      </trkpt>
      <trkpt lat="43.20714" lon="1.45111">
        <ele>272</ele>
        <time>2017-10-07T13:42:43Z</time>
      </trkpt>
      <trkpt lat="43.20712" lon="1.45108">
        <ele>273</ele>
        <time>2017-10-07T13:42:44Z</time>
      </trkpt>
      <trkpt lat="43.20712" lon="1.45105">
        <ele>273</ele>
        <time>2017-10-07T13:42:45Z</time>
      </trkpt>
      <trkpt lat="43.20711" lon="1.45103">
        <ele>274</ele>
        <time>2017-10-07T13:42:46Z</time>
      </trkpt>
      <trkpt lat="43.2071" lon="1.451">
        <ele>274</ele>
        <time>2017-10-07T13:42:47Z</time>
      </trkpt>
      <trkpt lat="43.20709" lon="1.45097">
        <ele>275</ele>
        <time>2017-10-07T13:42:48Z</time>
      </trkpt>
      <trkpt lat="43.20708" lon="1.45092">
        <ele>275</ele>
        <time>2017-10-07T13:42:50Z</time>
      </trkpt>
      <trkpt lat="43.20707" lon="1.45089">
        <ele>275</ele>
        <time>2017-10-07T13:42:52Z</time>
      </trkpt>
      <trkpt lat="43.20707" lon="1.45087">
        <ele>275</ele>
        <time>2017-10-07T13:42:53Z</time>
      </trkpt>
      <trkpt lat="43.20707" lon="1.45085">
        <ele>276</ele>
        <time>2017-10-07T13:42:54Z</time>
      </trkpt>
      <trkpt lat="43.20707" lon="1.45082">
        <ele>276</ele>
        <time>2017-10-07T13:42:55Z</time>
      </trkpt>
      <trkpt lat="43.20707" lon="1.45079">
        <ele>277</ele>
        <time>2017-10-07T13:42:56Z</time>
      </trkpt>
      <trkpt lat="43.20707" lon="1.45076">
        <ele>277</ele>
        <time>2017-10-07T13:42:57Z</time>
      </trkpt>
      <trkpt lat="43.20706" lon="1.45064">
        <ele>277</ele>
        <time>2017-10-07T13:43:02Z</time>
      </trkpt>
      <trkpt lat="43.20706" lon="1.45062">
        <ele>278</ele>
        <time>2017-10-07T13:43:03Z</time>
      </trkpt>
      <trkpt lat="43.20706" lon="1.4506">
        <ele>278</ele>
        <time>2017-10-07T13:43:04Z</time>
      </trkpt>
      <trkpt lat="43.20705" lon="1.45058">
        <ele>278</ele>
        <time>2017-10-07T13:43:05Z</time>
      </trkpt>
      <trkpt lat="43.20705" lon="1.45056">
        <ele>279</ele>
        <time>2017-10-07T13:43:06Z</time>
      </trkpt>
      <trkpt lat="43.20705" lon="1.45052">
        <ele>279</ele>
        <time>2017-10-07T13:43:08Z</time>
      </trkpt>
      <trkpt lat="43.20704" lon="1.45035">
        <ele>279</ele>
        <time>2017-10-07T13:43:14Z</time>
      </trkpt>
      <trkpt lat="43.20704" lon="1.45031">
        <ele>280</ele>
        <time>2017-10-07T13:43:15Z</time>
      </trkpt>
      <trkpt lat="43.20704" lon="1.45028">
        <ele>280</ele>
        <time>2017-10-07T13:43:16Z</time>
      </trkpt>
      <trkpt lat="43.20703" lon="1.45025">
        <ele>280</ele>
        <time>2017-10-07T13:43:17Z</time>
      </trkpt>
      <trkpt lat="43.20703" lon="1.45022">
        <ele>281</ele>
        <time>2017-10-07T13:43:18Z</time>
      </trkpt>
      <trkpt lat="43.20703" lon="1.45014">
        <ele>281</ele>
        <time>2017-10-07T13:43:21Z</time>
      </trkpt>
      <trkpt lat="43.20704" lon="1.45006">
        <ele>281</ele>
        <time>2017-10-07T13:43:25Z</time>
      </trkpt>
      <trkpt lat="43.20704" lon="1.45004">
        <ele>282</ele>
        <time>2017-10-07T13:43:26Z</time>
      </trkpt>
      <trkpt lat="43.20705" lon="1.45002">
        <ele>282</ele>
        <time>2017-10-07T13:43:27Z</time>
      </trkpt>
      <trkpt lat="43.20706" lon="1.44999">
        <ele>283</ele>
        <time>2017-10-07T13:43:28Z</time>
      </trkpt>
      <trkpt lat="43.20708" lon="1.44996">
        <ele>283</ele>
        <time>2017-10-07T13:43:29Z</time>
      </trkpt>
      <trkpt lat="43.20709" lon="1.4499">
        <ele>283</ele>
        <time>2017-10-07T13:43:32Z</time>
      </trkpt>
      <trkpt lat="43.20709" lon="1.44978">
        <ele>283</ele>
        <time>2017-10-07T13:43:37Z</time>
      </trkpt>
      <trkpt lat="43.20708" lon="1.44976">
        <ele>284</ele>
        <time>2017-10-07T13:43:38Z</time>
      </trkpt>
      <trkpt lat="43.20708" lon="1.44973">
        <ele>284</ele>
        <time>2017-10-07T13:43:39Z</time>
      </trkpt>
      <trkpt lat="43.20708" lon="1.44971">
        <ele>285</ele>
        <time>2017-10-07T13:43:40Z</time>
      </trkpt>
      <trkpt lat="43.20707" lon="1.44969">
        <ele>285</ele>
        <time>2017-10-07T13:43:41Z</time>
      </trkpt>
      <trkpt lat="43.20706" lon="1.44967">
        <ele>285</ele>
        <time>2017-10-07T13:43:42Z</time>
      </trkpt>
      <trkpt lat="43.20705" lon="1.44965">
        <ele>286</ele>
        <time>2017-10-07T13:43:43Z</time>
      </trkpt>
      <trkpt lat="43.20704" lon="1.44963">
        <ele>286</ele>
        <time>2017-10-07T13:43:44Z</time>
      </trkpt>
      <trkpt lat="43.20703" lon="1.44961">
        <ele>287</ele>
        <time>2017-10-07T13:43:45Z</time>
      </trkpt>
      <trkpt lat="43.20703" lon="1.4496">
        <ele>288</ele>
        <time>2017-10-07T13:43:46Z</time>
      </trkpt>
      <trkpt lat="43.20702" lon="1.44949">
        <ele>288</ele>
        <time>2017-10-07T13:43:51Z</time>
      </trkpt>
      <trkpt lat="43.20702" lon="1.44947">
        <ele>289</ele>
        <time>2017-10-07T13:43:52Z</time>
      </trkpt>
      <trkpt lat="43.20702" lon="1.44945">
        <ele>289</ele>
        <time>2017-10-07T13:43:53Z</time>
      </trkpt>
      <trkpt lat="43.20702" lon="1.44943">
        <ele>289</ele>
        <time>2017-10-07T13:43:54Z</time>
      </trkpt>
      <trkpt lat="43.20702" lon="1.44941">
        <ele>290</ele>
        <time>2017-10-07T13:43:55Z</time>
      </trkpt>
      <trkpt lat="43.20705" lon="1.44933">
        <ele>290</ele>
        <time>2017-10-07T13:44:00Z</time>
      </trkpt>
      <trkpt lat="43.20705" lon="1.44931">
        <ele>291</ele>
        <time>2017-10-07T13:44:01Z</time>
      </trkpt>
      <trkpt lat="43.20705" lon="1.44929">
        <ele>291</ele>
        <time>2017-10-07T13:44:02Z</time>
      </trkpt>
      <trkpt lat="43.20705" lon="1.44927">
        <ele>292</ele>
        <time>2017-10-07T13:44:03Z</time>
      </trkpt>
      <trkpt lat="43.20705" lon="1.44925">
        <ele>292</ele>
        <time>2017-10-07T13:44:04Z</time>
      </trkpt>
      <trkpt lat="43.20705" lon="1.44919">
        <ele>292</ele>
        <time>2017-10-07T13:44:07Z</time>
      </trkpt>
      <trkpt lat="43.20705" lon="1.44913">
        <ele>292</ele>
        <time>2017-10-07T13:44:10Z</time>
      </trkpt>
      <trkpt lat="43.20705" lon="1.44911">
        <ele>293</ele>
        <time>2017-10-07T13:44:11Z</time>
      </trkpt>
      <trkpt lat="43.20705" lon="1.4491">
        <ele>293</ele>
        <time>2017-10-07T13:44:12Z</time>
      </trkpt>
      <trkpt lat="43.20705" lon="1.44908">
        <ele>294</ele>
        <time>2017-10-07T13:44:13Z</time>
      </trkpt>
      <trkpt lat="43.20704" lon="1.44906">
        <ele>294</ele>
        <time>2017-10-07T13:44:14Z</time>
      </trkpt>
      <trkpt lat="43.20704" lon="1.44902">
        <ele>294</ele>
        <time>2017-10-07T13:44:16Z</time>
      </trkpt>
      <trkpt lat="43.20701" lon="1.44894">
        <ele>294</ele>
        <time>2017-10-07T13:44:20Z</time>
      </trkpt>
      <trkpt lat="43.20699" lon="1.44889">
        <ele>295</ele>
        <time>2017-10-07T13:44:23Z</time>
      </trkpt>
      <trkpt lat="43.20699" lon="1.44887">
        <ele>295</ele>
        <time>2017-10-07T13:44:24Z</time>
      </trkpt>
      <trkpt lat="43.20698" lon="1.44885">
        <ele>295</ele>
        <time>2017-10-07T13:44:25Z</time>
      </trkpt>
      <trkpt lat="43.20698" lon="1.44884">
        <ele>296</ele>
        <time>2017-10-07T13:44:26Z</time>
      </trkpt>
      <trkpt lat="43.20698" lon="1.44882">
        <ele>296</ele>
        <time>2017-10-07T13:44:27Z</time>
      </trkpt>
      <trkpt lat="43.20697" lon="1.44877">
        <ele>296</ele>
        <time>2017-10-07T13:44:30Z</time>
      </trkpt>
      <trkpt lat="43.20696" lon="1.4487">
        <ele>297</ele>
        <time>2017-10-07T13:44:34Z</time>
      </trkpt>
      <trkpt lat="43.20696" lon="1.44869">
        <ele>297</ele>
        <time>2017-10-07T13:44:35Z</time>
      </trkpt>
      <trkpt lat="43.20695" lon="1.44867">
        <ele>298</ele>
        <time>2017-10-07T13:44:36Z</time>
      </trkpt>
      <trkpt lat="43.20695" lon="1.44866">
        <ele>298</ele>
        <time>2017-10-07T13:44:37Z</time>
      </trkpt>
      <trkpt lat="43.20695" lon="1.44856">
        <ele>298</ele>
        <time>2017-10-07T13:44:44Z</time>
      </trkpt>
      <trkpt lat="43.20695" lon="1.44854">
        <ele>299</ele>
        <time>2017-10-07T13:44:45Z</time>
      </trkpt>
      <trkpt lat="43.20696" lon="1.44852">
        <ele>299</ele>
        <time>2017-10-07T13:44:46Z</time>
      </trkpt>
      <trkpt lat="43.20696" lon="1.44851">
        <ele>300</ele>
        <time>2017-10-07T13:44:47Z</time>
      </trkpt>
      <trkpt lat="43.20696" lon="1.44849">
        <ele>300</ele>
        <time>2017-10-07T13:44:48Z</time>
      </trkpt>
      <trkpt lat="43.20696" lon="1.44847">
        <ele>300</ele>
        <time>2017-10-07T13:44:49Z</time>
      </trkpt>
      <trkpt lat="43.20696" lon="1.44843">
        <ele>300</ele>
        <time>2017-10-07T13:44:51Z</time>
      </trkpt>
      <trkpt lat="43.20697" lon="1.44834">
        <ele>300</ele>
        <time>2017-10-07T13:44:55Z</time>
      </trkpt>
      <trkpt lat="43.20698" lon="1.44831">
        <ele>300</ele>
        <time>2017-10-07T13:44:57Z</time>
      </trkpt>
      <trkpt lat="43.20699" lon="1.4483">
        <ele>301</ele>
        <time>2017-10-07T13:44:58Z</time>
      </trkpt>
      <trkpt lat="43.207" lon="1.44828">
        <ele>301</ele>
        <time>2017-10-07T13:44:59Z</time>
      </trkpt>
      <trkpt lat="43.20701" lon="1.44826">
        <ele>302</ele>
        <time>2017-10-07T13:45:00Z</time>
      </trkpt>
      <trkpt lat="43.20701" lon="1.44824">
        <ele>303</ele>
        <time>2017-10-07T13:45:01Z</time>
      </trkpt>
      <trkpt lat="43.20703" lon="1.44819">
        <ele>303</ele>
        <time>2017-10-07T13:45:04Z</time>
      </trkpt>
      <trkpt lat="43.2071" lon="1.44804">
        <ele>303</ele>
        <time>2017-10-07T13:45:11Z</time>
      </trkpt>
      <trkpt lat="43.20716" lon="1.44791">
        <ele>303</ele>
        <time>2017-10-07T13:45:17Z</time>
      </trkpt>
      <trkpt lat="43.20716" lon="1.44789">
        <ele>303</ele>
        <time>2017-10-07T13:45:18Z</time>
      </trkpt>
      <trkpt lat="43.20717" lon="1.44787">
        <ele>303</ele>
        <time>2017-10-07T13:45:19Z</time>
      </trkpt>
      <trkpt lat="43.20718" lon="1.44785">
        <ele>304</ele>
        <time>2017-10-07T13:45:20Z</time>
      </trkpt>
      <trkpt lat="43.2072" lon="1.44783">
        <ele>304</ele>
        <time>2017-10-07T13:45:21Z</time>
      </trkpt>
      <trkpt lat="43.20721" lon="1.44781">
        <ele>305</ele>
        <time>2017-10-07T13:45:22Z</time>
      </trkpt>
      <trkpt lat="43.20724" lon="1.44773">
        <ele>305</ele>
        <time>2017-10-07T13:45:25Z</time>
      </trkpt>
      <trkpt lat="43.20731" lon="1.44758">
        <ele>305</ele>
        <time>2017-10-07T13:45:32Z</time>
      </trkpt>
      <trkpt lat="43.20733" lon="1.44754">
        <ele>305</ele>
        <time>2017-10-07T13:45:34Z</time>
      </trkpt>
      <trkpt lat="43.20735" lon="1.44752">
        <ele>306</ele>
        <time>2017-10-07T13:45:35Z</time>
      </trkpt>
      <trkpt lat="43.20736" lon="1.44751">
        <ele>306</ele>
        <time>2017-10-07T13:45:36Z</time>
      </trkpt>
      <trkpt lat="43.20736" lon="1.44749">
        <ele>306</ele>
        <time>2017-10-07T13:45:37Z</time>
      </trkpt>
      <trkpt lat="43.20737" lon="1.44747">
        <ele>307</ele>
        <time>2017-10-07T13:45:38Z</time>
      </trkpt>
      <trkpt lat="43.20739" lon="1.44737">
        <ele>307</ele>
        <time>2017-10-07T13:45:42Z</time>
      </trkpt>
      <trkpt lat="43.2074" lon="1.44733">
        <ele>307</ele>
        <time>2017-10-07T13:45:44Z</time>
      </trkpt>
      <trkpt lat="43.2074" lon="1.4473">
        <ele>308</ele>
        <time>2017-10-07T13:45:45Z</time>
      </trkpt>
      <trkpt lat="43.20741" lon="1.44728">
        <ele>308</ele>
        <time>2017-10-07T13:45:46Z</time>
      </trkpt>
      <trkpt lat="43.20742" lon="1.44726">
        <ele>308</ele>
        <time>2017-10-07T13:45:47Z</time>
      </trkpt>
      <trkpt lat="43.20742" lon="1.44723">
        <ele>309</ele>
        <time>2017-10-07T13:45:48Z</time>
      </trkpt>
      <trkpt lat="43.20742" lon="1.44721">
        <ele>309</ele>
        <time>2017-10-07T13:45:49Z</time>
      </trkpt>
      <trkpt lat="43.20743" lon="1.44719">
        <ele>309</ele>
        <time>2017-10-07T13:45:50Z</time>
      </trkpt>
      <trkpt lat="43.20743" lon="1.4471">
        <ele>309</ele>
        <time>2017-10-07T13:45:54Z</time>
      </trkpt>
      <trkpt lat="43.20743" lon="1.44707">
        <ele>310</ele>
        <time>2017-10-07T13:45:55Z</time>
      </trkpt>
      <trkpt lat="43.20743" lon="1.44705">
        <ele>310</ele>
        <time>2017-10-07T13:45:56Z</time>
      </trkpt>
      <trkpt lat="43.20743" lon="1.44702">
        <ele>311</ele>
        <time>2017-10-07T13:45:57Z</time>
      </trkpt>
      <trkpt lat="43.20743" lon="1.44699">
        <ele>311</ele>
        <time>2017-10-07T13:45:58Z</time>
      </trkpt>
      <trkpt lat="43.20744" lon="1.44697">
        <ele>311</ele>
        <time>2017-10-07T13:45:59Z</time>
      </trkpt>
      <trkpt lat="43.20745" lon="1.44688">
        <ele>311</ele>
        <time>2017-10-07T13:46:03Z</time>
      </trkpt>
      <trkpt lat="43.20745" lon="1.44686">
        <ele>312</ele>
        <time>2017-10-07T13:46:04Z</time>
      </trkpt>
      <trkpt lat="43.20745" lon="1.44685">
        <ele>312</ele>
        <time>2017-10-07T13:46:05Z</time>
      </trkpt>
      <trkpt lat="43.20745" lon="1.44682">
        <ele>313</ele>
        <time>2017-10-07T13:46:06Z</time>
      </trkpt>
      <trkpt lat="43.20745" lon="1.4468">
        <ele>313</ele>
        <time>2017-10-07T13:46:07Z</time>
      </trkpt>
      <trkpt lat="43.20746" lon="1.44664">
        <ele>314</ele>
        <time>2017-10-07T13:46:14Z</time>
      </trkpt>
      <trkpt lat="43.20746" lon="1.44662">
        <ele>314</ele>
        <time>2017-10-07T13:46:15Z</time>
      </trkpt>
      <trkpt lat="43.20746" lon="1.4466">
        <ele>315</ele>
        <time>2017-10-07T13:46:16Z</time>
      </trkpt>
      <trkpt lat="43.20747" lon="1.44657">
        <ele>315</ele>
        <time>2017-10-07T13:46:17Z</time>
      </trkpt>
      <trkpt lat="43.20747" lon="1.44649">
        <ele>315</ele>
        <time>2017-10-07T13:46:21Z</time>
      </trkpt>
      <trkpt lat="43.20747" lon="1.44636">
        <ele>315</ele>
        <time>2017-10-07T13:46:27Z</time>
      </trkpt>
      <trkpt lat="43.20748" lon="1.44616">
        <ele>315</ele>
        <time>2017-10-07T13:46:34Z</time>
      </trkpt>
      <trkpt lat="43.2075" lon="1.446">
        <ele>315</ele>
        <time>2017-10-07T13:46:39Z</time>
      </trkpt>
      <trkpt lat="43.2075" lon="1.44597">
        <ele>316</ele>
        <time>2017-10-07T13:46:40Z</time>
      </trkpt>
      <trkpt lat="43.2075" lon="1.44594">
        <ele>317</ele>
        <time>2017-10-07T13:46:41Z</time>
      </trkpt>
      <trkpt lat="43.20751" lon="1.44592">
        <ele>317</ele>
        <time>2017-10-07T13:46:42Z</time>
      </trkpt>
      <trkpt lat="43.20751" lon="1.44589">
        <ele>317</ele>
        <time>2017-10-07T13:46:43Z</time>
      </trkpt>
      <trkpt lat="43.20751" lon="1.44578">
        <ele>317</ele>
        <time>2017-10-07T13:46:47Z</time>
      </trkpt>
      <trkpt lat="43.20755" lon="1.44573">
        <ele>317</ele>
        <time>2017-10-07T13:46:50Z</time>
      </trkpt>
      <trkpt lat="43.20756" lon="1.44574">
        <ele>317</ele>
        <time>2017-10-07T13:46:51Z</time>
      </trkpt>
      <trkpt lat="43.20761" lon="1.44576">
        <ele>317</ele>
        <time>2017-10-07T13:46:55Z</time>
      </trkpt>
      <trkpt lat="43.20763" lon="1.44574">
        <ele>317</ele>
        <time>2017-10-07T13:47:03Z</time>
      </trkpt>
      <trkpt lat="43.20764" lon="1.44575">
        <ele>317</ele>
        <time>2017-10-07T13:47:05Z</time>
      </trkpt>
      <trkpt lat="43.20765" lon="1.44575">
        <ele>319</ele>
        <time>2017-10-07T13:47:55Z</time>
      </trkpt>
      <trkpt lat="43.20766" lon="1.44576">
        <ele>319</ele>
        <time>2017-10-07T13:47:56Z</time>
      </trkpt>
      <trkpt lat="43.20772" lon="1.4458">
        <ele>319</ele>
        <time>2017-10-07T13:48:00Z</time>
      </trkpt>
      <trkpt lat="43.20775" lon="1.44583">
        <ele>319</ele>
        <time>2017-10-07T13:48:02Z</time>
      </trkpt>
      <trkpt lat="43.20779" lon="1.44585">
        <ele>319</ele>
        <time>2017-10-07T13:48:04Z</time>
      </trkpt>
      <trkpt lat="43.20782" lon="1.44587">
        <ele>320</ele>
        <time>2017-10-07T13:48:06Z</time>
      </trkpt>
      <trkpt lat="43.20784" lon="1.44589">
        <ele>320</ele>
        <time>2017-10-07T13:48:07Z</time>
      </trkpt>
      <trkpt lat="43.20785" lon="1.4459">
        <ele>321</ele>
        <time>2017-10-07T13:48:08Z</time>
      </trkpt>
      <trkpt lat="43.20787" lon="1.44591">
        <ele>321</ele>
        <time>2017-10-07T13:48:09Z</time>
      </trkpt>
      <trkpt lat="43.20788" lon="1.44593">
        <ele>322</ele>
        <time>2017-10-07T13:48:10Z</time>
      </trkpt>
      <trkpt lat="43.20793" lon="1.44596">
        <ele>322</ele>
        <time>2017-10-07T13:48:13Z</time>
      </trkpt>
      <trkpt lat="43.20797" lon="1.446">
        <ele>322</ele>
        <time>2017-10-07T13:48:16Z</time>
      </trkpt>
      <trkpt lat="43.20799" lon="1.44601">
        <ele>323</ele>
        <time>2017-10-07T13:48:17Z</time>
      </trkpt>
      <trkpt lat="43.208" lon="1.44603">
        <ele>323</ele>
        <time>2017-10-07T13:48:18Z</time>
      </trkpt>
      <trkpt lat="43.20802" lon="1.44604">
        <ele>324</ele>
        <time>2017-10-07T13:48:19Z</time>
      </trkpt>
      <trkpt lat="43.20811" lon="1.44613">
        <ele>324</ele>
        <time>2017-10-07T13:48:25Z</time>
      </trkpt>
      <trkpt lat="43.20813" lon="1.44614">
        <ele>325</ele>
        <time>2017-10-07T13:48:26Z</time>
      </trkpt>
      <trkpt lat="43.20814" lon="1.44616">
        <ele>325</ele>
        <time>2017-10-07T13:48:27Z</time>
      </trkpt>
      <trkpt lat="43.20815" lon="1.44617">
        <ele>326</ele>
        <time>2017-10-07T13:48:28Z</time>
      </trkpt>
      <trkpt lat="43.20817" lon="1.44618">
        <ele>326</ele>
        <time>2017-10-07T13:48:29Z</time>
      </trkpt>
      <trkpt lat="43.20822" lon="1.44626">
        <ele>326</ele>
        <time>2017-10-07T13:48:34Z</time>
      </trkpt>
      <trkpt lat="43.20822" lon="1.44626">
        <ele>326</ele>
        <time>2017-10-07T13:48:35Z</time>
      </trkpt>
      <trkpt lat="43.20822" lon="1.44628">
        <ele>328</ele>
        <time>2017-10-07T13:48:40Z</time>
      </trkpt>
      <trkpt lat="43.20822" lon="1.44628">
        <ele>328</ele>
        <time>2017-10-07T13:48:41Z</time>
      </trkpt>
      <trkpt lat="43.20824" lon="1.44631">
        <ele>328</ele>
        <time>2017-10-07T13:48:47Z</time>
      </trkpt>
      <trkpt lat="43.20824" lon="1.44632">
        <ele>328</ele>
        <time>2017-10-07T13:48:49Z</time>
      </trkpt>
      <trkpt lat="43.20825" lon="1.44632">
        <ele>328</ele>
        <time>2017-10-07T13:48:55Z</time>
      </trkpt>
      <trkpt lat="43.20826" lon="1.44633">
        <ele>328</ele>
        <time>2017-10-07T13:48:56Z</time>
      </trkpt>
      <trkpt lat="43.20836" lon="1.44644">
        <ele>328</ele>
        <time>2017-10-07T13:49:03Z</time>
      </trkpt>
      <trkpt lat="43.20847" lon="1.44654">
        <ele>328</ele>
        <time>2017-10-07T13:49:09Z</time>
      </trkpt>
      <trkpt lat="43.20863" lon="1.44667">
        <ele>328</ele>
        <time>2017-10-07T13:49:16Z</time>
      </trkpt>
      <trkpt lat="43.20872" lon="1.44674">
        <ele>328</ele>
        <time>2017-10-07T13:49:20Z</time>
      </trkpt>
      <trkpt lat="43.20874" lon="1.44677">
        <ele>329</ele>
        <time>2017-10-07T13:49:21Z</time>
      </trkpt>
      <trkpt lat="43.20876" lon="1.44679">
        <ele>329</ele>
        <time>2017-10-07T13:49:22Z</time>
      </trkpt>
      <trkpt lat="43.20878" lon="1.44681">
        <ele>330</ele>
        <time>2017-10-07T13:49:23Z</time>
      </trkpt>
      <trkpt lat="43.2088" lon="1.44683">
        <ele>330</ele>
        <time>2017-10-07T13:49:24Z</time>
      </trkpt>
      <trkpt lat="43.20889" lon="1.44686">
        <ele>330</ele>
        <time>2017-10-07T13:49:28Z</time>
      </trkpt>
      <trkpt lat="43.20905" lon="1.44687">
        <ele>330</ele>
        <time>2017-10-07T13:49:34Z</time>
      </trkpt>
      <trkpt lat="43.20916" lon="1.44683">
        <ele>331</ele>
        <time>2017-10-07T13:49:38Z</time>
      </trkpt>
      <trkpt lat="43.20918" lon="1.44684">
        <ele>331</ele>
        <time>2017-10-07T13:49:39Z</time>
      </trkpt>
      <trkpt lat="43.20921" lon="1.44685">
        <ele>331</ele>
        <time>2017-10-07T13:49:40Z</time>
      </trkpt>
      <trkpt lat="43.20923" lon="1.44687">
        <ele>332</ele>
        <time>2017-10-07T13:49:41Z</time>
      </trkpt>
      <trkpt lat="43.20925" lon="1.44689">
        <ele>332</ele>
        <time>2017-10-07T13:49:42Z</time>
      </trkpt>
      <trkpt lat="43.20929" lon="1.44693">
        <ele>332</ele>
        <time>2017-10-07T13:49:44Z</time>
      </trkpt>
      <trkpt lat="43.20939" lon="1.44701">
        <ele>333</ele>
        <time>2017-10-07T13:49:48Z</time>
      </trkpt>
      <trkpt lat="43.20941" lon="1.44703">
        <ele>333</ele>
        <time>2017-10-07T13:49:49Z</time>
      </trkpt>
      <trkpt lat="43.20943" lon="1.44705">
        <ele>333</ele>
        <time>2017-10-07T13:49:50Z</time>
      </trkpt>
      <trkpt lat="43.20946" lon="1.44706">
        <ele>334</ele>
        <time>2017-10-07T13:49:51Z</time>
      </trkpt>
      <trkpt lat="43.20948" lon="1.44708">
        <ele>334</ele>
        <time>2017-10-07T13:49:52Z</time>
      </trkpt>
      <trkpt lat="43.20958" lon="1.44707">
        <ele>334</ele>
        <time>2017-10-07T13:49:55Z</time>
      </trkpt>
      <trkpt lat="43.20962" lon="1.44707">
        <ele>334</ele>
        <time>2017-10-07T13:49:56Z</time>
      </trkpt>
      <trkpt lat="43.20975" lon="1.44712">
        <ele>334</ele>
        <time>2017-10-07T13:49:59Z</time>
      </trkpt>
      <trkpt lat="43.20991" lon="1.44722">
        <ele>334</ele>
        <time>2017-10-07T13:50:04Z</time>
      </trkpt>
      <trkpt lat="43.21009" lon="1.44735">
        <ele>334</ele>
        <time>2017-10-07T13:50:10Z</time>
      </trkpt>
      <trkpt lat="43.21029" lon="1.44751">
        <ele>334</ele>
        <time>2017-10-07T13:50:17Z</time>
      </trkpt>
      <trkpt lat="43.21047" lon="1.44765">
        <ele>334</ele>
        <time>2017-10-07T13:50:23Z</time>
      </trkpt>
      <trkpt lat="43.21069" lon="1.44782">
        <ele>334</ele>
        <time>2017-10-07T13:50:31Z</time>
      </trkpt>
      <trkpt lat="43.21081" lon="1.4479">
        <ele>335</ele>
        <time>2017-10-07T13:50:35Z</time>
      </trkpt>
      <trkpt lat="43.21084" lon="1.44791">
        <ele>335</ele>
        <time>2017-10-07T13:50:36Z</time>
      </trkpt>
      <trkpt lat="43.21087" lon="1.44793">
        <ele>336</ele>
        <time>2017-10-07T13:50:37Z</time>
      </trkpt>
      <trkpt lat="43.2109" lon="1.44795">
        <ele>336</ele>
        <time>2017-10-07T13:50:38Z</time>
      </trkpt>
      <trkpt lat="43.21092" lon="1.44797">
        <ele>336</ele>
        <time>2017-10-07T13:50:39Z</time>
      </trkpt>
      <trkpt lat="43.21109" lon="1.4481">
        <ele>336</ele>
        <time>2017-10-07T13:50:45Z</time>
      </trkpt>
      <trkpt lat="43.21114" lon="1.44814">
        <ele>337</ele>
        <time>2017-10-07T13:50:47Z</time>
      </trkpt>
      <trkpt lat="43.21117" lon="1.44816">
        <ele>337</ele>
        <time>2017-10-07T13:50:48Z</time>
      </trkpt>
      <trkpt lat="43.21119" lon="1.44817">
        <ele>338</ele>
        <time>2017-10-07T13:50:49Z</time>
      </trkpt>
      <trkpt lat="43.21122" lon="1.44819">
        <ele>338</ele>
        <time>2017-10-07T13:50:50Z</time>
      </trkpt>
      <trkpt lat="43.21124" lon="1.44821">
        <ele>339</ele>
        <time>2017-10-07T13:50:51Z</time>
      </trkpt>
      <trkpt lat="43.21127" lon="1.44823">
        <ele>339</ele>
        <time>2017-10-07T13:50:52Z</time>
      </trkpt>
      <trkpt lat="43.21132" lon="1.44826">
        <ele>339</ele>
        <time>2017-10-07T13:50:54Z</time>
      </trkpt>
      <trkpt lat="43.21134" lon="1.44828">
        <ele>339</ele>
        <time>2017-10-07T13:50:55Z</time>
      </trkpt>
      <trkpt lat="43.21136" lon="1.44829">
        <ele>340</ele>
        <time>2017-10-07T13:50:56Z</time>
      </trkpt>
      <trkpt lat="43.21139" lon="1.44831">
        <ele>340</ele>
        <time>2017-10-07T13:50:57Z</time>
      </trkpt>
      <trkpt lat="43.21141" lon="1.44832">
        <ele>341</ele>
        <time>2017-10-07T13:50:58Z</time>
      </trkpt>
      <trkpt lat="43.21145" lon="1.44835">
        <ele>341</ele>
        <time>2017-10-07T13:51:00Z</time>
      </trkpt>
      <trkpt lat="43.21149" lon="1.44839">
        <ele>341</ele>
        <time>2017-10-07T13:51:02Z</time>
      </trkpt>
      <trkpt lat="43.21151" lon="1.4484">
        <ele>341</ele>
        <time>2017-10-07T13:51:03Z</time>
      </trkpt>
      <trkpt lat="43.21153" lon="1.44842">
        <ele>342</ele>
        <time>2017-10-07T13:51:04Z</time>
      </trkpt>
      <trkpt lat="43.21155" lon="1.44843">
        <ele>342</ele>
        <time>2017-10-07T13:51:05Z</time>
      </trkpt>
      <trkpt lat="43.21157" lon="1.44845">
        <ele>343</ele>
        <time>2017-10-07T13:51:06Z</time>
      </trkpt>
      <trkpt lat="43.21161" lon="1.44849">
        <ele>343</ele>
        <time>2017-10-07T13:51:08Z</time>
      </trkpt>
      <trkpt lat="43.21164" lon="1.44851">
        <ele>343</ele>
        <time>2017-10-07T13:51:09Z</time>
      </trkpt>
      <trkpt lat="43.21165" lon="1.44852">
        <ele>344</ele>
        <time>2017-10-07T13:51:10Z</time>
      </trkpt>
      <trkpt lat="43.21168" lon="1.44854">
        <ele>344</ele>
        <time>2017-10-07T13:51:11Z</time>
      </trkpt>
      <trkpt lat="43.2117" lon="1.44855">
        <ele>345</ele>
        <time>2017-10-07T13:51:12Z</time>
      </trkpt>
      <trkpt lat="43.21174" lon="1.44858">
        <ele>345</ele>
        <time>2017-10-07T13:51:14Z</time>
      </trkpt>
      <trkpt lat="43.21188" lon="1.44868">
        <ele>345</ele>
        <time>2017-10-07T13:51:20Z</time>
      </trkpt>
      <trkpt lat="43.2119" lon="1.44869">
        <ele>346</ele>
        <time>2017-10-07T13:51:21Z</time>
      </trkpt>
      <trkpt lat="43.21192" lon="1.44871">
        <ele>346</ele>
        <time>2017-10-07T13:51:22Z</time>
      </trkpt>
      <trkpt lat="43.21194" lon="1.44873">
        <ele>346</ele>
        <time>2017-10-07T13:51:23Z</time>
      </trkpt>
      <trkpt lat="43.21196" lon="1.44874">
        <ele>347</ele>
        <time>2017-10-07T13:51:24Z</time>
      </trkpt>
      <trkpt lat="43.21203" lon="1.44879">
        <ele>347</ele>
        <time>2017-10-07T13:51:28Z</time>
      </trkpt>
      <trkpt lat="43.21204" lon="1.4488">
        <ele>348</ele>
        <time>2017-10-07T13:51:29Z</time>
      </trkpt>
      <trkpt lat="43.21205" lon="1.44882">
        <ele>348</ele>
        <time>2017-10-07T13:51:30Z</time>
      </trkpt>
      <trkpt lat="43.21207" lon="1.44884">
        <ele>349</ele>
        <time>2017-10-07T13:51:31Z</time>
      </trkpt>
      <trkpt lat="43.21209" lon="1.44886">
        <ele>349</ele>
        <time>2017-10-07T13:51:32Z</time>
      </trkpt>
      <trkpt lat="43.21212" lon="1.44888">
        <ele>349</ele>
        <time>2017-10-07T13:51:34Z</time>
      </trkpt>
      <trkpt lat="43.21214" lon="1.4489">
        <ele>350</ele>
        <time>2017-10-07T13:51:35Z</time>
      </trkpt>
      <trkpt lat="43.21215" lon="1.44891">
        <ele>350</ele>
        <time>2017-10-07T13:51:36Z</time>
      </trkpt>
      <trkpt lat="43.21217" lon="1.44892">
        <ele>351</ele>
        <time>2017-10-07T13:51:37Z</time>
      </trkpt>
      <trkpt lat="43.21223" lon="1.44895">
        <ele>352</ele>
        <time>2017-10-07T13:51:40Z</time>
      </trkpt>
      <trkpt lat="43.21225" lon="1.44896">
        <ele>352</ele>
        <time>2017-10-07T13:51:41Z</time>
      </trkpt>
      <trkpt lat="43.21227" lon="1.44897">
        <ele>353</ele>
        <time>2017-10-07T13:51:42Z</time>
      </trkpt>
      <trkpt lat="43.21228" lon="1.44898">
        <ele>353</ele>
        <time>2017-10-07T13:51:43Z</time>
      </trkpt>
      <trkpt lat="43.2123" lon="1.44899">
        <ele>354</ele>
        <time>2017-10-07T13:51:44Z</time>
      </trkpt>
      <trkpt lat="43.21236" lon="1.449">
        <ele>354</ele>
        <time>2017-10-07T13:51:47Z</time>
      </trkpt>
      <trkpt lat="43.21239" lon="1.449">
        <ele>354</ele>
        <time>2017-10-07T13:51:48Z</time>
      </trkpt>
      <trkpt lat="43.21241" lon="1.44898">
        <ele>354</ele>
        <time>2017-10-07T13:51:49Z</time>
      </trkpt>
      <trkpt lat="43.21243" lon="1.44896">
        <ele>355</ele>
        <time>2017-10-07T13:51:50Z</time>
      </trkpt>
      <trkpt lat="43.21243" lon="1.44894">
        <ele>355</ele>
        <time>2017-10-07T13:51:51Z</time>
      </trkpt>
      <trkpt lat="43.21244" lon="1.44891">
        <ele>356</ele>
        <time>2017-10-07T13:51:52Z</time>
      </trkpt>
      <trkpt lat="43.21251" lon="1.44877">
        <ele>356</ele>
        <time>2017-10-07T13:51:57Z</time>
      </trkpt>
      <trkpt lat="43.21259" lon="1.44859">
        <ele>356</ele>
        <time>2017-10-07T13:52:03Z</time>
      </trkpt>
      <trkpt lat="43.21271" lon="1.44837">
        <ele>356</ele>
        <time>2017-10-07T13:52:10Z</time>
      </trkpt>
      <trkpt lat="43.21286" lon="1.44809">
        <ele>356</ele>
        <time>2017-10-07T13:52:18Z</time>
      </trkpt>
      <trkpt lat="43.21304" lon="1.44778">
        <ele>356</ele>
        <time>2017-10-07T13:52:26Z</time>
      </trkpt>
      <trkpt lat="43.21318" lon="1.44753">
        <ele>356</ele>
        <time>2017-10-07T13:52:32Z</time>
      </trkpt>
      <trkpt lat="43.21323" lon="1.44744">
        <ele>356</ele>
        <time>2017-10-07T13:52:34Z</time>
      </trkpt>
      <trkpt lat="43.21339" lon="1.44713">
        <ele>356</ele>
        <time>2017-10-07T13:52:41Z</time>
      </trkpt>
      <trkpt lat="43.21341" lon="1.44708">
        <ele>356</ele>
        <time>2017-10-07T13:52:42Z</time>
      </trkpt>
      <trkpt lat="43.21344" lon="1.44698">
        <ele>356</ele>
        <time>2017-10-07T13:52:44Z</time>
      </trkpt>
      <trkpt lat="43.21346" lon="1.44693">
        <ele>356</ele>
        <time>2017-10-07T13:52:45Z</time>
      </trkpt>
      <trkpt lat="43.21347" lon="1.44688">
        <ele>357</ele>
        <time>2017-10-07T13:52:46Z</time>
      </trkpt>
      <trkpt lat="43.21349" lon="1.44683">
        <ele>357</ele>
        <time>2017-10-07T13:52:47Z</time>
      </trkpt>
      <trkpt lat="43.2135" lon="1.44678">
        <ele>358</ele>
        <time>2017-10-07T13:52:48Z</time>
      </trkpt>
      <trkpt lat="43.21353" lon="1.44668">
        <ele>358</ele>
        <time>2017-10-07T13:52:50Z</time>
      </trkpt>
      <trkpt lat="43.21361" lon="1.44624">
        <ele>358</ele>
        <time>2017-10-07T13:52:59Z</time>
      </trkpt>
      <trkpt lat="43.21362" lon="1.44619">
        <ele>359</ele>
        <time>2017-10-07T13:53:00Z</time>
      </trkpt>
      <trkpt lat="43.21363" lon="1.44614">
        <ele>359</ele>
        <time>2017-10-07T13:53:01Z</time>
      </trkpt>
      <trkpt lat="43.21364" lon="1.44609">
        <ele>359</ele>
        <time>2017-10-07T13:53:02Z</time>
      </trkpt>
      <trkpt lat="43.21365" lon="1.44603">
        <ele>360</ele>
        <time>2017-10-07T13:53:03Z</time>
      </trkpt>
      <trkpt lat="43.21367" lon="1.4459">
        <ele>360</ele>
        <time>2017-10-07T13:53:05Z</time>
      </trkpt>
      <trkpt lat="43.21373" lon="1.4456">
        <ele>360</ele>
        <time>2017-10-07T13:53:09Z</time>
      </trkpt>
      <trkpt lat="43.21375" lon="1.44551">
        <ele>359</ele>
        <time>2017-10-07T13:53:10Z</time>
      </trkpt>
      <trkpt lat="43.21377" lon="1.44542">
        <ele>359</ele>
        <time>2017-10-07T13:53:11Z</time>
      </trkpt>
      <trkpt lat="43.2138" lon="1.44533">
        <ele>358</ele>
        <time>2017-10-07T13:53:12Z</time>
      </trkpt>
      <trkpt lat="43.21383" lon="1.44523">
        <ele>358</ele>
        <time>2017-10-07T13:53:13Z</time>
      </trkpt>
      <trkpt lat="43.21386" lon="1.44513">
        <ele>357</ele>
        <time>2017-10-07T13:53:14Z</time>
      </trkpt>
      <trkpt lat="43.2139" lon="1.44503">
        <ele>356</ele>
        <time>2017-10-07T13:53:15Z</time>
      </trkpt>
      <trkpt lat="43.21395" lon="1.44493">
        <ele>356</ele>
        <time>2017-10-07T13:53:16Z</time>
      </trkpt>
      <trkpt lat="43.21401" lon="1.44483">
        <ele>355</ele>
        <time>2017-10-07T13:53:17Z</time>
      </trkpt>
      <trkpt lat="43.21407" lon="1.44474">
        <ele>355</ele>
        <time>2017-10-07T13:53:18Z</time>
      </trkpt>
      <trkpt lat="43.21413" lon="1.44465">
        <ele>354</ele>
        <time>2017-10-07T13:53:19Z</time>
      </trkpt>
      <trkpt lat="43.21419" lon="1.44456">
        <ele>354</ele>
        <time>2017-10-07T13:53:20Z</time>
      </trkpt>
      <trkpt lat="43.21426" lon="1.44447">
        <ele>354</ele>
        <time>2017-10-07T13:53:21Z</time>
      </trkpt>
      <trkpt lat="43.21432" lon="1.44439">
        <ele>353</ele>
        <time>2017-10-07T13:53:22Z</time>
      </trkpt>
      <trkpt lat="43.21438" lon="1.44431">
        <ele>353</ele>
        <time>2017-10-07T13:53:23Z</time>
      </trkpt>
      <trkpt lat="43.21444" lon="1.44423">
        <ele>352</ele>
        <time>2017-10-07T13:53:24Z</time>
      </trkpt>
      <trkpt lat="43.21451" lon="1.44415">
        <ele>352</ele>
        <time>2017-10-07T13:53:25Z</time>
      </trkpt>
      <trkpt lat="43.21456" lon="1.44407">
        <ele>352</ele>
        <time>2017-10-07T13:53:26Z</time>
      </trkpt>
      <trkpt lat="43.21462" lon="1.444">
        <ele>351</ele>
        <time>2017-10-07T13:53:27Z</time>
      </trkpt>
      <trkpt lat="43.21467" lon="1.44393">
        <ele>351</ele>
        <time>2017-10-07T13:53:28Z</time>
      </trkpt>
      <trkpt lat="43.21485" lon="1.44363">
        <ele>351</ele>
        <time>2017-10-07T13:53:32Z</time>
      </trkpt>
      <trkpt lat="43.2149" lon="1.44356">
        <ele>351</ele>
        <time>2017-10-07T13:53:33Z</time>
      </trkpt>
      <trkpt lat="43.21494" lon="1.44349">
        <ele>350</ele>
        <time>2017-10-07T13:53:34Z</time>
      </trkpt>
      <trkpt lat="43.21498" lon="1.44343">
        <ele>350</ele>
        <time>2017-10-07T13:53:35Z</time>
      </trkpt>
      <trkpt lat="43.21501" lon="1.44336">
        <ele>350</ele>
        <time>2017-10-07T13:53:36Z</time>
      </trkpt>
      <trkpt lat="43.21504" lon="1.4433">
        <ele>349</ele>
        <time>2017-10-07T13:53:37Z</time>
      </trkpt>
      <trkpt lat="43.21509" lon="1.44317">
        <ele>349</ele>
        <time>2017-10-07T13:53:39Z</time>
      </trkpt>
      <trkpt lat="43.21522" lon="1.44283">
        <ele>349</ele>
        <time>2017-10-07T13:53:45Z</time>
      </trkpt>
      <trkpt lat="43.21519" lon="1.44258">
        <ele>349</ele>
        <time>2017-10-07T13:53:49Z</time>
      </trkpt>
      <trkpt lat="43.21517" lon="1.44246">
        <ele>349</ele>
        <time>2017-10-07T13:53:51Z</time>
      </trkpt>
      <trkpt lat="43.21512" lon="1.4422">
        <ele>349</ele>
        <time>2017-10-07T13:53:55Z</time>
      </trkpt>
      <trkpt lat="43.21506" lon="1.4419">
        <ele>349</ele>
        <time>2017-10-07T13:53:59Z</time>
      </trkpt>
      <trkpt lat="43.21501" lon="1.44167">
        <ele>349</ele>
        <time>2017-10-07T13:54:02Z</time>
      </trkpt>
      <trkpt lat="43.21494" lon="1.44145">
        <ele>348</ele>
        <time>2017-10-07T13:54:05Z</time>
      </trkpt>
      <trkpt lat="43.21492" lon="1.44138">
        <ele>348</ele>
        <time>2017-10-07T13:54:06Z</time>
      </trkpt>
      <trkpt lat="43.21489" lon="1.4413">
        <ele>348</ele>
        <time>2017-10-07T13:54:07Z</time>
      </trkpt>
      <trkpt lat="43.21487" lon="1.44123">
        <ele>347</ele>
        <time>2017-10-07T13:54:08Z</time>
      </trkpt>
      <trkpt lat="43.21474" lon="1.44091">
        <ele>347</ele>
        <time>2017-10-07T13:54:13Z</time>
      </trkpt>
      <trkpt lat="43.21467" lon="1.44071">
        <ele>347</ele>
        <time>2017-10-07T13:54:16Z</time>
      </trkpt>
      <trkpt lat="43.21465" lon="1.44065">
        <ele>347</ele>
        <time>2017-10-07T13:54:17Z</time>
      </trkpt>
      <trkpt lat="43.21463" lon="1.44058">
        <ele>346</ele>
        <time>2017-10-07T13:54:18Z</time>
      </trkpt>
      <trkpt lat="43.21461" lon="1.44051">
        <ele>346</ele>
        <time>2017-10-07T13:54:19Z</time>
      </trkpt>
      <trkpt lat="43.21459" lon="1.44043">
        <ele>345</ele>
        <time>2017-10-07T13:54:20Z</time>
      </trkpt>
      <trkpt lat="43.21457" lon="1.44036">
        <ele>345</ele>
        <time>2017-10-07T13:54:21Z</time>
      </trkpt>
      <trkpt lat="43.21455" lon="1.44028">
        <ele>345</ele>
        <time>2017-10-07T13:54:22Z</time>
      </trkpt>
      <trkpt lat="43.21447" lon="1.43992">
        <ele>345</ele>
        <time>2017-10-07T13:54:26Z</time>
      </trkpt>
      <trkpt lat="43.21444" lon="1.43982">
        <ele>344</ele>
        <time>2017-10-07T13:54:27Z</time>
      </trkpt>
      <trkpt lat="43.21442" lon="1.43971">
        <ele>344</ele>
        <time>2017-10-07T13:54:28Z</time>
      </trkpt>
      <trkpt lat="43.2144" lon="1.43961">
        <ele>343</ele>
        <time>2017-10-07T13:54:29Z</time>
      </trkpt>
      <trkpt lat="43.21438" lon="1.43952">
        <ele>343</ele>
        <time>2017-10-07T13:54:30Z</time>
      </trkpt>
      <trkpt lat="43.21437" lon="1.43945">
        <ele>342</ele>
        <time>2017-10-07T13:54:31Z</time>
      </trkpt>
      <trkpt lat="43.21435" lon="1.43939">
        <ele>342</ele>
        <time>2017-10-07T13:54:32Z</time>
      </trkpt>
      <trkpt lat="43.21434" lon="1.43932">
        <ele>341</ele>
        <time>2017-10-07T13:54:33Z</time>
      </trkpt>
      <trkpt lat="43.21432" lon="1.43926">
        <ele>341</ele>
        <time>2017-10-07T13:54:34Z</time>
      </trkpt>
      <trkpt lat="43.21424" lon="1.43899">
        <ele>341</ele>
        <time>2017-10-07T13:54:38Z</time>
      </trkpt>
      <trkpt lat="43.21417" lon="1.43879">
        <ele>341</ele>
        <time>2017-10-07T13:54:42Z</time>
      </trkpt>
      <trkpt lat="43.21413" lon="1.43854">
        <ele>341</ele>
        <time>2017-10-07T13:54:47Z</time>
      </trkpt>
      <trkpt lat="43.21412" lon="1.43849">
        <ele>340</ele>
        <time>2017-10-07T13:54:48Z</time>
      </trkpt>
      <trkpt lat="43.21411" lon="1.43843">
        <ele>340</ele>
        <time>2017-10-07T13:54:49Z</time>
      </trkpt>
      <trkpt lat="43.2141" lon="1.43837">
        <ele>339</ele>
        <time>2017-10-07T13:54:50Z</time>
      </trkpt>
      <trkpt lat="43.21409" lon="1.43831">
        <ele>339</ele>
        <time>2017-10-07T13:54:51Z</time>
      </trkpt>
      <trkpt lat="43.21407" lon="1.43816">
        <ele>339</ele>
        <time>2017-10-07T13:54:54Z</time>
      </trkpt>
      <trkpt lat="43.21402" lon="1.43793">
        <ele>339</ele>
        <time>2017-10-07T13:55:00Z</time>
      </trkpt>
      <trkpt lat="43.21399" lon="1.43776">
        <ele>339</ele>
        <time>2017-10-07T13:55:06Z</time>
      </trkpt>
      <trkpt lat="43.21403" lon="1.43754">
        <ele>339</ele>
        <time>2017-10-07T13:55:11Z</time>
      </trkpt>
      <trkpt lat="43.2141" lon="1.43731">
        <ele>339</ele>
        <time>2017-10-07T13:55:16Z</time>
      </trkpt>
      <trkpt lat="43.21418" lon="1.43714">
        <ele>339</ele>
        <time>2017-10-07T13:55:20Z</time>
      </trkpt>
      <trkpt lat="43.21424" lon="1.43692">
        <ele>339</ele>
        <time>2017-10-07T13:55:25Z</time>
      </trkpt>
      <trkpt lat="43.21425" lon="1.43688">
        <ele>339</ele>
        <time>2017-10-07T13:55:26Z</time>
      </trkpt>
      <trkpt lat="43.21434" lon="1.43663">
        <ele>339</ele>
        <time>2017-10-07T13:55:31Z</time>
      </trkpt>
      <trkpt lat="43.21439" lon="1.4364">
        <ele>339</ele>
        <time>2017-10-07T13:55:36Z</time>
      </trkpt>
      <trkpt lat="43.2144" lon="1.43614">
        <ele>339</ele>
        <time>2017-10-07T13:55:41Z</time>
      </trkpt>
      <trkpt lat="43.21439" lon="1.43576">
        <ele>339</ele>
        <time>2017-10-07T13:55:49Z</time>
      </trkpt>
      <trkpt lat="43.2144" lon="1.43567">
        <ele>339</ele>
        <time>2017-10-07T13:55:52Z</time>
      </trkpt>
      <trkpt lat="43.21439" lon="1.4356">
        <ele>339</ele>
        <time>2017-10-07T13:55:54Z</time>
      </trkpt>
      <trkpt lat="43.21438" lon="1.43537">
        <ele>339</ele>
        <time>2017-10-07T13:56:00Z</time>
      </trkpt>
      <trkpt lat="43.21442" lon="1.43509">
        <ele>339</ele>
        <time>2017-10-07T13:56:06Z</time>
      </trkpt>
      <trkpt lat="43.21451" lon="1.43475">
        <ele>339</ele>
        <time>2017-10-07T13:56:12Z</time>
      </trkpt>
      <trkpt lat="43.21454" lon="1.43465">
        <ele>339</ele>
        <time>2017-10-07T13:56:14Z</time>
      </trkpt>
      <trkpt lat="43.21455" lon="1.43459">
        <ele>338</ele>
        <time>2017-10-07T13:56:15Z</time>
      </trkpt>
      <trkpt lat="43.21456" lon="1.43454">
        <ele>338</ele>
        <time>2017-10-07T13:56:16Z</time>
      </trkpt>
      <trkpt lat="43.21457" lon="1.43448">
        <ele>337</ele>
        <time>2017-10-07T13:56:17Z</time>
      </trkpt>
      <trkpt lat="43.21459" lon="1.43443">
        <ele>337</ele>
        <time>2017-10-07T13:56:18Z</time>
      </trkpt>
      <trkpt lat="43.2146" lon="1.43437">
        <ele>337</ele>
        <time>2017-10-07T13:56:19Z</time>
      </trkpt>
      <trkpt lat="43.21471" lon="1.4339">
        <ele>337</ele>
        <time>2017-10-07T13:56:27Z</time>
      </trkpt>
      <trkpt lat="43.21476" lon="1.43366">
        <ele>337</ele>
        <time>2017-10-07T13:56:31Z</time>
      </trkpt>
      <trkpt lat="43.21477" lon="1.43361">
        <ele>337</ele>
        <time>2017-10-07T13:56:32Z</time>
      </trkpt>
      <trkpt lat="43.2148" lon="1.4335">
        <ele>337</ele>
        <time>2017-10-07T13:56:34Z</time>
      </trkpt>
      <trkpt lat="43.21481" lon="1.43335">
        <ele>337</ele>
        <time>2017-10-07T13:56:36Z</time>
      </trkpt>
      <trkpt lat="43.21481" lon="1.43329">
        <ele>337</ele>
        <time>2017-10-07T13:56:37Z</time>
      </trkpt>
      <trkpt lat="43.21485" lon="1.43307">
        <ele>337</ele>
        <time>2017-10-07T13:56:41Z</time>
      </trkpt>
      <trkpt lat="43.21488" lon="1.43289">
        <ele>337</ele>
        <time>2017-10-07T13:56:44Z</time>
      </trkpt>
      <trkpt lat="43.2149" lon="1.43283">
        <ele>337</ele>
        <time>2017-10-07T13:56:45Z</time>
      </trkpt>
      <trkpt lat="43.21493" lon="1.43272">
        <ele>337</ele>
        <time>2017-10-07T13:56:47Z</time>
      </trkpt>
      <trkpt lat="43.215" lon="1.43251">
        <ele>337</ele>
        <time>2017-10-07T13:56:51Z</time>
      </trkpt>
      <trkpt lat="43.21503" lon="1.43242">
        <ele>337</ele>
        <time>2017-10-07T13:56:53Z</time>
      </trkpt>
      <trkpt lat="43.21512" lon="1.4322">
        <ele>337</ele>
        <time>2017-10-07T13:56:58Z</time>
      </trkpt>
      <trkpt lat="43.21514" lon="1.43216">
        <ele>337</ele>
        <time>2017-10-07T13:56:59Z</time>
      </trkpt>
      <trkpt lat="43.21523" lon="1.43193">
        <ele>337</ele>
        <time>2017-10-07T13:57:05Z</time>
      </trkpt>
      <trkpt lat="43.21534" lon="1.43165">
        <ele>337</ele>
        <time>2017-10-07T13:57:12Z</time>
      </trkpt>
      <trkpt lat="43.21551" lon="1.43132">
        <ele>337</ele>
        <time>2017-10-07T13:57:18Z</time>
      </trkpt>
      <trkpt lat="43.21563" lon="1.43113">
        <ele>336</ele>
        <time>2017-10-07T13:57:21Z</time>
      </trkpt>
      <trkpt lat="43.21568" lon="1.43106">
        <ele>336</ele>
        <time>2017-10-07T13:57:22Z</time>
      </trkpt>
      <trkpt lat="43.21572" lon="1.43099">
        <ele>335</ele>
        <time>2017-10-07T13:57:23Z</time>
      </trkpt>
      <trkpt lat="43.21577" lon="1.43093">
        <ele>335</ele>
        <time>2017-10-07T13:57:24Z</time>
      </trkpt>
      <trkpt lat="43.21582" lon="1.43086">
        <ele>334</ele>
        <time>2017-10-07T13:57:25Z</time>
      </trkpt>
      <trkpt lat="43.21592" lon="1.43071">
        <ele>334</ele>
        <time>2017-10-07T13:57:27Z</time>
      </trkpt>
      <trkpt lat="43.21598" lon="1.43064">
        <ele>333</ele>
        <time>2017-10-07T13:57:28Z</time>
      </trkpt>
      <trkpt lat="43.21603" lon="1.43056">
        <ele>333</ele>
        <time>2017-10-07T13:57:29Z</time>
      </trkpt>
      <trkpt lat="43.21607" lon="1.43049">
        <ele>332</ele>
        <time>2017-10-07T13:57:30Z</time>
      </trkpt>
      <trkpt lat="43.21612" lon="1.43042">
        <ele>332</ele>
        <time>2017-10-07T13:57:31Z</time>
      </trkpt>
      <trkpt lat="43.2162" lon="1.43028">
        <ele>331</ele>
        <time>2017-10-07T13:57:33Z</time>
      </trkpt>
      <trkpt lat="43.21624" lon="1.43021">
        <ele>331</ele>
        <time>2017-10-07T13:57:34Z</time>
      </trkpt>
      <trkpt lat="43.21628" lon="1.43015">
        <ele>330</ele>
        <time>2017-10-07T13:57:35Z</time>
      </trkpt>
      <trkpt lat="43.21632" lon="1.43008">
        <ele>330</ele>
        <time>2017-10-07T13:57:36Z</time>
      </trkpt>
      <trkpt lat="43.21635" lon="1.43003">
        <ele>330</ele>
        <time>2017-10-07T13:57:37Z</time>
      </trkpt>
      <trkpt lat="43.21639" lon="1.42998">
        <ele>330</ele>
        <time>2017-10-07T13:57:38Z</time>
      </trkpt>
      <trkpt lat="43.21646" lon="1.42986">
        <ele>330</ele>
        <time>2017-10-07T13:57:40Z</time>
      </trkpt>
      <trkpt lat="43.21653" lon="1.42973">
        <ele>330</ele>
        <time>2017-10-07T13:57:42Z</time>
      </trkpt>
      <trkpt lat="43.21671" lon="1.42943">
        <ele>330</ele>
        <time>2017-10-07T13:57:47Z</time>
      </trkpt>
      <trkpt lat="43.21675" lon="1.42938">
        <ele>330</ele>
        <time>2017-10-07T13:57:48Z</time>
      </trkpt>
      <trkpt lat="43.21678" lon="1.42932">
        <ele>330</ele>
        <time>2017-10-07T13:57:49Z</time>
      </trkpt>
      <trkpt lat="43.21688" lon="1.42909">
        <ele>330</ele>
        <time>2017-10-07T13:57:53Z</time>
      </trkpt>
      <trkpt lat="43.2169" lon="1.42904">
        <ele>330</ele>
        <time>2017-10-07T13:57:54Z</time>
      </trkpt>
      <trkpt lat="43.21707" lon="1.42868">
        <ele>330</ele>
        <time>2017-10-07T13:58:01Z</time>
      </trkpt>
      <trkpt lat="43.21709" lon="1.42864">
        <ele>330</ele>
        <time>2017-10-07T13:58:02Z</time>
      </trkpt>
      <trkpt lat="43.21722" lon="1.42838">
        <ele>330</ele>
        <time>2017-10-07T13:58:08Z</time>
      </trkpt>
      <trkpt lat="43.21724" lon="1.42832">
        <ele>330</ele>
        <time>2017-10-07T13:58:09Z</time>
      </trkpt>
      <trkpt lat="43.21733" lon="1.42808">
        <ele>330</ele>
        <time>2017-10-07T13:58:14Z</time>
      </trkpt>
      <trkpt lat="43.21747" lon="1.42772">
        <ele>330</ele>
        <time>2017-10-07T13:58:21Z</time>
      </trkpt>
      <trkpt lat="43.21749" lon="1.42768">
        <ele>330</ele>
        <time>2017-10-07T13:58:22Z</time>
      </trkpt>
      <trkpt lat="43.21759" lon="1.42747">
        <ele>330</ele>
        <time>2017-10-07T13:58:26Z</time>
      </trkpt>
      <trkpt lat="43.21784" lon="1.42716">
        <ele>330</ele>
        <time>2017-10-07T13:58:32Z</time>
      </trkpt>
      <trkpt lat="43.21816" lon="1.42689">
        <ele>330</ele>
        <time>2017-10-07T13:58:37Z</time>
      </trkpt>
      <trkpt lat="43.21828" lon="1.42679">
        <ele>329</ele>
        <time>2017-10-07T13:58:39Z</time>
      </trkpt>
      <trkpt lat="43.21834" lon="1.42674">
        <ele>329</ele>
        <time>2017-10-07T13:58:40Z</time>
      </trkpt>
      <trkpt lat="43.2184" lon="1.42669">
        <ele>328</ele>
        <time>2017-10-07T13:58:41Z</time>
      </trkpt>
      <trkpt lat="43.21846" lon="1.42663">
        <ele>328</ele>
        <time>2017-10-07T13:58:42Z</time>
      </trkpt>
      <trkpt lat="43.21853" lon="1.42657">
        <ele>327</ele>
        <time>2017-10-07T13:58:43Z</time>
      </trkpt>
      <trkpt lat="43.21859" lon="1.42651">
        <ele>327</ele>
        <time>2017-10-07T13:58:44Z</time>
      </trkpt>
      <trkpt lat="43.21865" lon="1.42645">
        <ele>326</ele>
        <time>2017-10-07T13:58:45Z</time>
      </trkpt>
      <trkpt lat="43.21871" lon="1.42639">
        <ele>326</ele>
        <time>2017-10-07T13:58:46Z</time>
      </trkpt>
      <trkpt lat="43.21876" lon="1.42632">
        <ele>325</ele>
        <time>2017-10-07T13:58:47Z</time>
      </trkpt>
      <trkpt lat="43.21894" lon="1.42613">
        <ele>325</ele>
        <time>2017-10-07T13:58:50Z</time>
      </trkpt>
      <trkpt lat="43.219" lon="1.42607">
        <ele>325</ele>
        <time>2017-10-07T13:58:51Z</time>
      </trkpt>
      <trkpt lat="43.21906" lon="1.42599">
        <ele>324</ele>
        <time>2017-10-07T13:58:52Z</time>
      </trkpt>
      <trkpt lat="43.21911" lon="1.42592">
        <ele>324</ele>
        <time>2017-10-07T13:58:53Z</time>
      </trkpt>
      <trkpt lat="43.21917" lon="1.42584">
        <ele>323</ele>
        <time>2017-10-07T13:58:54Z</time>
      </trkpt>
      <trkpt lat="43.21923" lon="1.42577">
        <ele>323</ele>
        <time>2017-10-07T13:58:55Z</time>
      </trkpt>
      <trkpt lat="43.21943" lon="1.4255">
        <ele>322</ele>
        <time>2017-10-07T13:58:59Z</time>
      </trkpt>
      <trkpt lat="43.21948" lon="1.42545">
        <ele>321</ele>
        <time>2017-10-07T13:59:00Z</time>
      </trkpt>
      <trkpt lat="43.21952" lon="1.42538">
        <ele>321</ele>
        <time>2017-10-07T13:59:01Z</time>
      </trkpt>
      <trkpt lat="43.21956" lon="1.42532">
        <ele>320</ele>
        <time>2017-10-07T13:59:02Z</time>
      </trkpt>
      <trkpt lat="43.21968" lon="1.42514">
        <ele>320</ele>
        <time>2017-10-07T13:59:05Z</time>
      </trkpt>
      <trkpt lat="43.21979" lon="1.42499">
        <ele>320</ele>
        <time>2017-10-07T13:59:08Z</time>
      </trkpt>
      <trkpt lat="43.21985" lon="1.4249">
        <ele>320</ele>
        <time>2017-10-07T13:59:10Z</time>
      </trkpt>
      <trkpt lat="43.21988" lon="1.42485">
        <ele>321</ele>
        <time>2017-10-07T13:59:11Z</time>
      </trkpt>
      <trkpt lat="43.21991" lon="1.42481">
        <ele>321</ele>
        <time>2017-10-07T13:59:12Z</time>
      </trkpt>
      <trkpt lat="43.21994" lon="1.42477">
        <ele>322</ele>
        <time>2017-10-07T13:59:13Z</time>
      </trkpt>
      <trkpt lat="43.21997" lon="1.42472">
        <ele>322</ele>
        <time>2017-10-07T13:59:14Z</time>
      </trkpt>
      <trkpt lat="43.22" lon="1.42467">
        <ele>323</ele>
        <time>2017-10-07T13:59:15Z</time>
      </trkpt>
      <trkpt lat="43.22006" lon="1.42459">
        <ele>323</ele>
        <time>2017-10-07T13:59:17Z</time>
      </trkpt>
      <trkpt lat="43.22027" lon="1.42428">
        <ele>323</ele>
        <time>2017-10-07T13:59:24Z</time>
      </trkpt>
      <trkpt lat="43.2203" lon="1.42424">
        <ele>323</ele>
        <time>2017-10-07T13:59:25Z</time>
      </trkpt>
      <trkpt lat="43.22039" lon="1.4241">
        <ele>323</ele>
        <time>2017-10-07T13:59:28Z</time>
      </trkpt>
      <trkpt lat="43.22042" lon="1.42405">
        <ele>324</ele>
        <time>2017-10-07T13:59:29Z</time>
      </trkpt>
      <trkpt lat="43.22045" lon="1.424">
        <ele>324</ele>
        <time>2017-10-07T13:59:30Z</time>
      </trkpt>
      <trkpt lat="43.22048" lon="1.42395">
        <ele>324</ele>
        <time>2017-10-07T13:59:31Z</time>
      </trkpt>
      <trkpt lat="43.22051" lon="1.4239">
        <ele>325</ele>
        <time>2017-10-07T13:59:32Z</time>
      </trkpt>
      <trkpt lat="43.22054" lon="1.42386">
        <ele>325</ele>
        <time>2017-10-07T13:59:33Z</time>
      </trkpt>
      <trkpt lat="43.22071" lon="1.4236">
        <ele>325</ele>
        <time>2017-10-07T13:59:39Z</time>
      </trkpt>
      <trkpt lat="43.22096" lon="1.4232">
        <ele>325</ele>
        <time>2017-10-07T13:59:48Z</time>
      </trkpt>
      <trkpt lat="43.22099" lon="1.42315">
        <ele>326</ele>
        <time>2017-10-07T13:59:49Z</time>
      </trkpt>
      <trkpt lat="43.22101" lon="1.42311">
        <ele>326</ele>
        <time>2017-10-07T13:59:50Z</time>
      </trkpt>
      <trkpt lat="43.22104" lon="1.42307">
        <ele>327</ele>
        <time>2017-10-07T13:59:51Z</time>
      </trkpt>
      <trkpt lat="43.22116" lon="1.42287">
        <ele>327</ele>
        <time>2017-10-07T13:59:56Z</time>
      </trkpt>
      <trkpt lat="43.22135" lon="1.4225">
        <ele>327</ele>
        <time>2017-10-07T14:00:05Z</time>
      </trkpt>
      <trkpt lat="43.22145" lon="1.42227">
        <ele>327</ele>
        <time>2017-10-07T14:00:10Z</time>
      </trkpt>
      <trkpt lat="43.22151" lon="1.42212">
        <ele>327</ele>
        <time>2017-10-07T14:00:13Z</time>
      </trkpt>
      <trkpt lat="43.22155" lon="1.422">
        <ele>327</ele>
        <time>2017-10-07T14:00:15Z</time>
      </trkpt>
      <trkpt lat="43.22158" lon="1.42189">
        <ele>327</ele>
        <time>2017-10-07T14:00:17Z</time>
      </trkpt>
      <trkpt lat="43.2216" lon="1.42183">
        <ele>327</ele>
        <time>2017-10-07T14:00:18Z</time>
      </trkpt>
      <trkpt lat="43.2217" lon="1.42154">
        <ele>327</ele>
        <time>2017-10-07T14:00:23Z</time>
      </trkpt>
      <trkpt lat="43.2217" lon="1.42147">
        <ele>327</ele>
        <time>2017-10-07T14:00:24Z</time>
      </trkpt>
      <trkpt lat="43.22171" lon="1.42133">
        <ele>327</ele>
        <time>2017-10-07T14:00:26Z</time>
      </trkpt>
      <trkpt lat="43.22171" lon="1.4212">
        <ele>326</ele>
        <time>2017-10-07T14:00:28Z</time>
      </trkpt>
      <trkpt lat="43.22171" lon="1.42115">
        <ele>326</ele>
        <time>2017-10-07T14:00:29Z</time>
      </trkpt>
      <trkpt lat="43.22171" lon="1.4211">
        <ele>326</ele>
        <time>2017-10-07T14:00:30Z</time>
      </trkpt>
      <trkpt lat="43.22171" lon="1.42105">
        <ele>325</ele>
        <time>2017-10-07T14:00:31Z</time>
      </trkpt>
      <trkpt lat="43.22171" lon="1.421">
        <ele>325</ele>
        <time>2017-10-07T14:00:32Z</time>
      </trkpt>
      <trkpt lat="43.22169" lon="1.42082">
        <ele>325</ele>
        <time>2017-10-07T14:00:35Z</time>
      </trkpt>
      <trkpt lat="43.22166" lon="1.42058">
        <ele>324</ele>
        <time>2017-10-07T14:00:38Z</time>
      </trkpt>
      <trkpt lat="43.22166" lon="1.4205">
        <ele>324</ele>
        <time>2017-10-07T14:00:39Z</time>
      </trkpt>
      <trkpt lat="43.22165" lon="1.42042">
        <ele>323</ele>
        <time>2017-10-07T14:00:40Z</time>
      </trkpt>
      <trkpt lat="43.22163" lon="1.42026">
        <ele>323</ele>
        <time>2017-10-07T14:00:41Z</time>
      </trkpt>
      <trkpt lat="43.2216" lon="1.41994">
        <ele>323</ele>
        <time>2017-10-07T14:00:46Z</time>
      </trkpt>
      <trkpt lat="43.2216" lon="1.41988">
        <ele>323</ele>
        <time>2017-10-07T14:00:47Z</time>
      </trkpt>
      <trkpt lat="43.22159" lon="1.41982">
        <ele>323</ele>
        <time>2017-10-07T14:00:48Z</time>
      </trkpt>
      <trkpt lat="43.22159" lon="1.41955">
        <ele>323</ele>
        <time>2017-10-07T14:00:52Z</time>
      </trkpt>
      <trkpt lat="43.22159" lon="1.41943">
        <ele>323</ele>
        <time>2017-10-07T14:00:54Z</time>
      </trkpt>
      <trkpt lat="43.22158" lon="1.41937">
        <ele>323</ele>
        <time>2017-10-07T14:00:55Z</time>
      </trkpt>
      <trkpt lat="43.22159" lon="1.41914">
        <ele>323</ele>
        <time>2017-10-07T14:00:59Z</time>
      </trkpt>
      <trkpt lat="43.2216" lon="1.41904">
        <ele>323</ele>
        <time>2017-10-07T14:01:01Z</time>
      </trkpt>
      <trkpt lat="43.22161" lon="1.41889">
        <ele>323</ele>
        <time>2017-10-07T14:01:04Z</time>
      </trkpt>
      <trkpt lat="43.22165" lon="1.41878">
        <ele>323</ele>
        <time>2017-10-07T14:01:06Z</time>
      </trkpt>
      <trkpt lat="43.22167" lon="1.41871">
        <ele>323</ele>
        <time>2017-10-07T14:01:07Z</time>
      </trkpt>
      <trkpt lat="43.22169" lon="1.41866">
        <ele>324</ele>
        <time>2017-10-07T14:01:08Z</time>
      </trkpt>
      <trkpt lat="43.22171" lon="1.41861">
        <ele>324</ele>
        <time>2017-10-07T14:01:09Z</time>
      </trkpt>
      <trkpt lat="43.22173" lon="1.41855">
        <ele>324</ele>
        <time>2017-10-07T14:01:10Z</time>
      </trkpt>
      <trkpt lat="43.22175" lon="1.41849">
        <ele>325</ele>
        <time>2017-10-07T14:01:11Z</time>
      </trkpt>
      <trkpt lat="43.22177" lon="1.41843">
        <ele>325</ele>
        <time>2017-10-07T14:01:12Z</time>
      </trkpt>
      <trkpt lat="43.22186" lon="1.41809">
        <ele>325</ele>
        <time>2017-10-07T14:01:18Z</time>
      </trkpt>
      <trkpt lat="43.22189" lon="1.41798">
        <ele>325</ele>
        <time>2017-10-07T14:01:20Z</time>
      </trkpt>
      <trkpt lat="43.22208" lon="1.41756">
        <ele>325</ele>
        <time>2017-10-07T14:01:28Z</time>
      </trkpt>
      <trkpt lat="43.22213" lon="1.41744">
        <ele>325</ele>
        <time>2017-10-07T14:01:30Z</time>
      </trkpt>
      <trkpt lat="43.22217" lon="1.41731">
        <ele>325</ele>
        <time>2017-10-07T14:01:32Z</time>
      </trkpt>
      <trkpt lat="43.2222" lon="1.41718">
        <ele>325</ele>
        <time>2017-10-07T14:01:34Z</time>
      </trkpt>
      <trkpt lat="43.22233" lon="1.4166">
        <ele>324</ele>
        <time>2017-10-07T14:01:42Z</time>
      </trkpt>
      <trkpt lat="43.22234" lon="1.41653">
        <ele>324</ele>
        <time>2017-10-07T14:01:43Z</time>
      </trkpt>
      <trkpt lat="43.22235" lon="1.41646">
        <ele>324</ele>
        <time>2017-10-07T14:01:44Z</time>
      </trkpt>
      <trkpt lat="43.22237" lon="1.41639">
        <ele>323</ele>
        <time>2017-10-07T14:01:45Z</time>
      </trkpt>
      <trkpt lat="43.22238" lon="1.41633">
        <ele>323</ele>
        <time>2017-10-07T14:01:46Z</time>
      </trkpt>
      <trkpt lat="43.2224" lon="1.41627">
        <ele>323</ele>
        <time>2017-10-07T14:01:47Z</time>
      </trkpt>
      <trkpt lat="43.22246" lon="1.41615">
        <ele>323</ele>
        <time>2017-10-07T14:01:49Z</time>
      </trkpt>
      <trkpt lat="43.22262" lon="1.41587">
        <ele>323</ele>
        <time>2017-10-07T14:01:54Z</time>
      </trkpt>
      <trkpt lat="43.22266" lon="1.41582">
        <ele>323</ele>
        <time>2017-10-07T14:01:55Z</time>
      </trkpt>
      <trkpt lat="43.2227" lon="1.41577">
        <ele>323</ele>
        <time>2017-10-07T14:01:56Z</time>
      </trkpt>
      <trkpt lat="43.2228" lon="1.41561">
        <ele>322</ele>
        <time>2017-10-07T14:01:59Z</time>
      </trkpt>
      <trkpt lat="43.22283" lon="1.41556">
        <ele>322</ele>
        <time>2017-10-07T14:02:00Z</time>
      </trkpt>
      <trkpt lat="43.22287" lon="1.41551">
        <ele>322</ele>
        <time>2017-10-07T14:02:01Z</time>
      </trkpt>
      <trkpt lat="43.22289" lon="1.41546">
        <ele>321</ele>
        <time>2017-10-07T14:02:02Z</time>
      </trkpt>
      <trkpt lat="43.22291" lon="1.41541">
        <ele>321</ele>
        <time>2017-10-07T14:02:03Z</time>
      </trkpt>
      <trkpt lat="43.22294" lon="1.41537">
        <ele>321</ele>
        <time>2017-10-07T14:02:04Z</time>
      </trkpt>
      <trkpt lat="43.22298" lon="1.41535">
        <ele>321</ele>
        <time>2017-10-07T14:02:07Z</time>
      </trkpt>
      <trkpt lat="43.22298" lon="1.41536">
        <ele>321</ele>
        <time>2017-10-07T14:02:08Z</time>
      </trkpt>
      <trkpt lat="43.22303" lon="1.4154">
        <ele>321</ele>
        <time>2017-10-07T14:02:40Z</time>
      </trkpt>
      <trkpt lat="43.22305" lon="1.41543">
        <ele>321</ele>
        <time>2017-10-07T14:02:42Z</time>
      </trkpt>
      <trkpt lat="43.22308" lon="1.41544">
        <ele>321</ele>
        <time>2017-10-07T14:02:44Z</time>
      </trkpt>
      <trkpt lat="43.22311" lon="1.41545">
        <ele>321</ele>
        <time>2017-10-07T14:02:46Z</time>
      </trkpt>
      <trkpt lat="43.22312" lon="1.41546">
        <ele>321</ele>
        <time>2017-10-07T14:02:47Z</time>
      </trkpt>
      <trkpt lat="43.22324" lon="1.41555">
        <ele>321</ele>
        <time>2017-10-07T14:02:53Z</time>
      </trkpt>
      <trkpt lat="43.22326" lon="1.41557">
        <ele>321</ele>
        <time>2017-10-07T14:02:54Z</time>
      </trkpt>
      <trkpt lat="43.22329" lon="1.41558">
        <ele>320</ele>
        <time>2017-10-07T14:02:55Z</time>
      </trkpt>
      <trkpt lat="43.22332" lon="1.41561">
        <ele>320</ele>
        <time>2017-10-07T14:02:56Z</time>
      </trkpt>
      <trkpt lat="43.22334" lon="1.41563">
        <ele>320</ele>
        <time>2017-10-07T14:02:57Z</time>
      </trkpt>
      <trkpt lat="43.22337" lon="1.41565">
        <ele>319</ele>
        <time>2017-10-07T14:02:58Z</time>
      </trkpt>
      <trkpt lat="43.22339" lon="1.41567">
        <ele>319</ele>
        <time>2017-10-07T14:02:59Z</time>
      </trkpt>
      <trkpt lat="43.22342" lon="1.4157">
        <ele>318</ele>
        <time>2017-10-07T14:03:00Z</time>
      </trkpt>
      <trkpt lat="43.22345" lon="1.41572">
        <ele>318</ele>
        <time>2017-10-07T14:03:01Z</time>
      </trkpt>
      <trkpt lat="43.22348" lon="1.41575">
        <ele>317</ele>
        <time>2017-10-07T14:03:02Z</time>
      </trkpt>
      <trkpt lat="43.22351" lon="1.41577">
        <ele>317</ele>
        <time>2017-10-07T14:03:03Z</time>
      </trkpt>
      <trkpt lat="43.22354" lon="1.41579">
        <ele>316</ele>
        <time>2017-10-07T14:03:04Z</time>
      </trkpt>
      <trkpt lat="43.22357" lon="1.41581">
        <ele>315</ele>
        <time>2017-10-07T14:03:05Z</time>
      </trkpt>
      <trkpt lat="43.2236" lon="1.41584">
        <ele>315</ele>
        <time>2017-10-07T14:03:06Z</time>
      </trkpt>
      <trkpt lat="43.22365" lon="1.41586">
        <ele>313</ele>
        <time>2017-10-07T14:03:07Z</time>
      </trkpt>
      <trkpt lat="43.22369" lon="1.41589">
        <ele>312</ele>
        <time>2017-10-07T14:03:08Z</time>
      </trkpt>
      <trkpt lat="43.22373" lon="1.41592">
        <ele>312</ele>
        <time>2017-10-07T14:03:09Z</time>
      </trkpt>
      <trkpt lat="43.22377" lon="1.41596">
        <ele>310</ele>
        <time>2017-10-07T14:03:10Z</time>
      </trkpt>
      <trkpt lat="43.22382" lon="1.416">
        <ele>309</ele>
        <time>2017-10-07T14:03:11Z</time>
      </trkpt>
      <trkpt lat="43.22387" lon="1.41603">
        <ele>308</ele>
        <time>2017-10-07T14:03:12Z</time>
      </trkpt>
      <trkpt lat="43.22391" lon="1.41606">
        <ele>307</ele>
        <time>2017-10-07T14:03:13Z</time>
      </trkpt>
      <trkpt lat="43.22396" lon="1.41609">
        <ele>306</ele>
        <time>2017-10-07T14:03:14Z</time>
      </trkpt>
      <trkpt lat="43.224" lon="1.41612">
        <ele>304</ele>
        <time>2017-10-07T14:03:15Z</time>
      </trkpt>
      <trkpt lat="43.22404" lon="1.41615">
        <ele>303</ele>
        <time>2017-10-07T14:03:16Z</time>
      </trkpt>
      <trkpt lat="43.22408" lon="1.41619">
        <ele>302</ele>
        <time>2017-10-07T14:03:17Z</time>
      </trkpt>
      <trkpt lat="43.22411" lon="1.41623">
        <ele>300</ele>
        <time>2017-10-07T14:03:18Z</time>
      </trkpt>
      <trkpt lat="43.22415" lon="1.41624">
        <ele>299</ele>
        <time>2017-10-07T14:03:19Z</time>
      </trkpt>
      <trkpt lat="43.22418" lon="1.41625">
        <ele>298</ele>
        <time>2017-10-07T14:03:20Z</time>
      </trkpt>
      <trkpt lat="43.22421" lon="1.41628">
        <ele>297</ele>
        <time>2017-10-07T14:03:21Z</time>
      </trkpt>
      <trkpt lat="43.22424" lon="1.41631">
        <ele>296</ele>
        <time>2017-10-07T14:03:22Z</time>
      </trkpt>
      <trkpt lat="43.22427" lon="1.41633">
        <ele>294</ele>
        <time>2017-10-07T14:03:23Z</time>
      </trkpt>
      <trkpt lat="43.22431" lon="1.41635">
        <ele>294</ele>
        <time>2017-10-07T14:03:24Z</time>
      </trkpt>
      <trkpt lat="43.22435" lon="1.41638">
        <ele>293</ele>
        <time>2017-10-07T14:03:25Z</time>
      </trkpt>
      <trkpt lat="43.22439" lon="1.41641">
        <ele>292</ele>
        <time>2017-10-07T14:03:26Z</time>
      </trkpt>
      <trkpt lat="43.22443" lon="1.41644">
        <ele>290</ele>
        <time>2017-10-07T14:03:27Z</time>
      </trkpt>
      <trkpt lat="43.22448" lon="1.41647">
        <ele>289</ele>
        <time>2017-10-07T14:03:28Z</time>
      </trkpt>
      <trkpt lat="43.22452" lon="1.4165">
        <ele>288</ele>
        <time>2017-10-07T14:03:29Z</time>
      </trkpt>
      <trkpt lat="43.22455" lon="1.41652">
        <ele>287</ele>
        <time>2017-10-07T14:03:30Z</time>
      </trkpt>
      <trkpt lat="43.22457" lon="1.41656">
        <ele>286</ele>
        <time>2017-10-07T14:03:31Z</time>
      </trkpt>
      <trkpt lat="43.22463" lon="1.41659">
        <ele>284</ele>
        <time>2017-10-07T14:03:32Z</time>
      </trkpt>
      <trkpt lat="43.22467" lon="1.41662">
        <ele>283</ele>
        <time>2017-10-07T14:03:33Z</time>
      </trkpt>
      <trkpt lat="43.22472" lon="1.41666">
        <ele>282</ele>
        <time>2017-10-07T14:03:34Z</time>
      </trkpt>
      <trkpt lat="43.22477" lon="1.4167">
        <ele>281</ele>
        <time>2017-10-07T14:03:35Z</time>
      </trkpt>
      <trkpt lat="43.22481" lon="1.41673">
        <ele>280</ele>
        <time>2017-10-07T14:03:36Z</time>
      </trkpt>
      <trkpt lat="43.22484" lon="1.41675">
        <ele>279</ele>
        <time>2017-10-07T14:03:37Z</time>
      </trkpt>
      <trkpt lat="43.22488" lon="1.41679">
        <ele>278</ele>
        <time>2017-10-07T14:03:38Z</time>
      </trkpt>
      <trkpt lat="43.22493" lon="1.41682">
        <ele>277</ele>
        <time>2017-10-07T14:03:39Z</time>
      </trkpt>
      <trkpt lat="43.22497" lon="1.41685">
        <ele>276</ele>
        <time>2017-10-07T14:03:40Z</time>
      </trkpt>
      <trkpt lat="43.22501" lon="1.41688">
        <ele>274</ele>
        <time>2017-10-07T14:03:41Z</time>
      </trkpt>
      <trkpt lat="43.22506" lon="1.41692">
        <ele>273</ele>
        <time>2017-10-07T14:03:42Z</time>
      </trkpt>
      <trkpt lat="43.2251" lon="1.41695">
        <ele>272</ele>
        <time>2017-10-07T14:03:43Z</time>
      </trkpt>
      <trkpt lat="43.22514" lon="1.41698">
        <ele>271</ele>
        <time>2017-10-07T14:03:44Z</time>
      </trkpt>
      <trkpt lat="43.22519" lon="1.41702">
        <ele>270</ele>
        <time>2017-10-07T14:03:45Z</time>
      </trkpt>
      <trkpt lat="43.22523" lon="1.41705">
        <ele>269</ele>
        <time>2017-10-07T14:03:46Z</time>
      </trkpt>
      <trkpt lat="43.22525" lon="1.41707">
        <ele>268</ele>
        <time>2017-10-07T14:03:47Z</time>
      </trkpt>
      <trkpt lat="43.2253" lon="1.41709">
        <ele>267</ele>
        <time>2017-10-07T14:03:48Z</time>
      </trkpt>
      <trkpt lat="43.22533" lon="1.41712">
        <ele>266</ele>
        <time>2017-10-07T14:03:49Z</time>
      </trkpt>
      <trkpt lat="43.22536" lon="1.41715">
        <ele>265</ele>
        <time>2017-10-07T14:03:50Z</time>
      </trkpt>
      <trkpt lat="43.22541" lon="1.41718">
        <ele>264</ele>
        <time>2017-10-07T14:03:51Z</time>
      </trkpt>
      <trkpt lat="43.22545" lon="1.4172">
        <ele>263</ele>
        <time>2017-10-07T14:03:52Z</time>
      </trkpt>
      <trkpt lat="43.22549" lon="1.41723">
        <ele>262</ele>
        <time>2017-10-07T14:03:53Z</time>
      </trkpt>
      <trkpt lat="43.22554" lon="1.41725">
        <ele>260</ele>
        <time>2017-10-07T14:03:54Z</time>
      </trkpt>
      <trkpt lat="43.22559" lon="1.41726">
        <ele>259</ele>
        <time>2017-10-07T14:03:55Z</time>
      </trkpt>
      <trkpt lat="43.22562" lon="1.41727">
        <ele>258</ele>
        <time>2017-10-07T14:03:56Z</time>
      </trkpt>
      <trkpt lat="43.22567" lon="1.41728">
        <ele>256</ele>
        <time>2017-10-07T14:03:57Z</time>
      </trkpt>
      <trkpt lat="43.2257" lon="1.41728">
        <ele>255</ele>
        <time>2017-10-07T14:03:58Z</time>
      </trkpt>
      <trkpt lat="43.22573" lon="1.4173">
        <ele>254</ele>
        <time>2017-10-07T14:03:59Z</time>
      </trkpt>
      <trkpt lat="43.22573" lon="1.41731">
        <ele>253</ele>
        <time>2017-10-07T14:04:00Z</time>
      </trkpt>
      <trkpt lat="43.22574" lon="1.4173">
        <ele>252</ele>
        <time>2017-10-07T14:04:01Z</time>
      </trkpt>
      <trkpt lat="43.22575" lon="1.4173">
        <ele>251</ele>
        <time>2017-10-07T14:04:02Z</time>
      </trkpt>
      <trkpt lat="43.22582" lon="1.41736">
        <ele>251</ele>
        <time>2017-10-07T14:04:30Z</time>
      </trkpt>
      <trkpt lat="43.22584" lon="1.41736">
        <ele>251</ele>
        <time>2017-10-07T14:04:32Z</time>
      </trkpt>
      <trkpt lat="43.22586" lon="1.41737">
        <ele>251</ele>
        <time>2017-10-07T14:04:33Z</time>
      </trkpt>
      <trkpt lat="43.22592" lon="1.41742">
        <ele>251</ele>
        <time>2017-10-07T14:04:36Z</time>
      </trkpt>
      <trkpt lat="43.22597" lon="1.41744">
        <ele>251</ele>
        <time>2017-10-07T14:04:38Z</time>
      </trkpt>
      <trkpt lat="43.22606" lon="1.41749">
        <ele>251</ele>
        <time>2017-10-07T14:04:42Z</time>
      </trkpt>
      <trkpt lat="43.22608" lon="1.4175">
        <ele>251</ele>
        <time>2017-10-07T14:04:43Z</time>
      </trkpt>
      <trkpt lat="43.22621" lon="1.41755">
        <ele>251</ele>
        <time>2017-10-07T14:04:48Z</time>
      </trkpt>
      <trkpt lat="43.22625" lon="1.41757">
        <ele>251</ele>
        <time>2017-10-07T14:04:50Z</time>
      </trkpt>
      <trkpt lat="43.22633" lon="1.41761">
        <ele>252</ele>
        <time>2017-10-07T14:04:54Z</time>
      </trkpt>
      <trkpt lat="43.22634" lon="1.41762">
        <ele>252</ele>
        <time>2017-10-07T14:04:55Z</time>
      </trkpt>
      <trkpt lat="43.22636" lon="1.41763">
        <ele>253</ele>
        <time>2017-10-07T14:04:56Z</time>
      </trkpt>
      <trkpt lat="43.22638" lon="1.41764">
        <ele>253</ele>
        <time>2017-10-07T14:04:57Z</time>
      </trkpt>
      <trkpt lat="43.2264" lon="1.41765">
        <ele>253</ele>
        <time>2017-10-07T14:04:58Z</time>
      </trkpt>
      <trkpt lat="43.22649" lon="1.41768">
        <ele>253</ele>
        <time>2017-10-07T14:05:02Z</time>
      </trkpt>
      <trkpt lat="43.22652" lon="1.4177">
        <ele>254</ele>
        <time>2017-10-07T14:05:04Z</time>
      </trkpt>
      <trkpt lat="43.22653" lon="1.41772">
        <ele>254</ele>
        <time>2017-10-07T14:05:05Z</time>
      </trkpt>
      <trkpt lat="43.22655" lon="1.41773">
        <ele>255</ele>
        <time>2017-10-07T14:05:06Z</time>
      </trkpt>
      <trkpt lat="43.22658" lon="1.41773">
        <ele>255</ele>
        <time>2017-10-07T14:05:07Z</time>
      </trkpt>
      <trkpt lat="43.22659" lon="1.41774">
        <ele>256</ele>
        <time>2017-10-07T14:05:08Z</time>
      </trkpt>
      <trkpt lat="43.22668" lon="1.41777">
        <ele>256</ele>
        <time>2017-10-07T14:05:13Z</time>
      </trkpt>
      <trkpt lat="43.22669" lon="1.41778">
        <ele>257</ele>
        <time>2017-10-07T14:05:14Z</time>
      </trkpt>
      <trkpt lat="43.22671" lon="1.41779">
        <ele>257</ele>
        <time>2017-10-07T14:05:15Z</time>
      </trkpt>
      <trkpt lat="43.22672" lon="1.4178">
        <ele>257</ele>
        <time>2017-10-07T14:05:16Z</time>
      </trkpt>
      <trkpt lat="43.22674" lon="1.41781">
        <ele>258</ele>
        <time>2017-10-07T14:05:17Z</time>
      </trkpt>
      <trkpt lat="43.22679" lon="1.41786">
        <ele>258</ele>
        <time>2017-10-07T14:05:21Z</time>
      </trkpt>
      <trkpt lat="43.22682" lon="1.41789">
        <ele>258</ele>
        <time>2017-10-07T14:05:23Z</time>
      </trkpt>
      <trkpt lat="43.22683" lon="1.41791">
        <ele>258</ele>
        <time>2017-10-07T14:05:24Z</time>
      </trkpt>
      <trkpt lat="43.22684" lon="1.41793">
        <ele>259</ele>
        <time>2017-10-07T14:05:25Z</time>
      </trkpt>
      <trkpt lat="43.22685" lon="1.41794">
        <ele>259</ele>
        <time>2017-10-07T14:05:26Z</time>
      </trkpt>
      <trkpt lat="43.22686" lon="1.41796">
        <ele>260</ele>
        <time>2017-10-07T14:05:27Z</time>
      </trkpt>
      <trkpt lat="43.22688" lon="1.41798">
        <ele>260</ele>
        <time>2017-10-07T14:05:28Z</time>
      </trkpt>
      <trkpt lat="43.22691" lon="1.41801">
        <ele>260</ele>
        <time>2017-10-07T14:05:31Z</time>
      </trkpt>
      <trkpt lat="43.22692" lon="1.41802">
        <ele>260</ele>
        <time>2017-10-07T14:05:32Z</time>
      </trkpt>
      <trkpt lat="43.22694" lon="1.41805">
        <ele>261</ele>
        <time>2017-10-07T14:05:34Z</time>
      </trkpt>
      <trkpt lat="43.22695" lon="1.41806">
        <ele>261</ele>
        <time>2017-10-07T14:05:35Z</time>
      </trkpt>
      <trkpt lat="43.22696" lon="1.41808">
        <ele>262</ele>
        <time>2017-10-07T14:05:36Z</time>
      </trkpt>
      <trkpt lat="43.22697" lon="1.41808">
        <ele>262</ele>
        <time>2017-10-07T14:05:37Z</time>
      </trkpt>
      <trkpt lat="43.22697" lon="1.4181">
        <ele>262</ele>
        <time>2017-10-07T14:05:38Z</time>
      </trkpt>
      <trkpt lat="43.22701" lon="1.41813">
        <ele>263</ele>
        <time>2017-10-07T14:05:40Z</time>
      </trkpt>
      <trkpt lat="43.22702" lon="1.41814">
        <ele>263</ele>
        <time>2017-10-07T14:05:41Z</time>
      </trkpt>
      <trkpt lat="43.22703" lon="1.41815">
        <ele>263</ele>
        <time>2017-10-07T14:05:42Z</time>
      </trkpt>
      <trkpt lat="43.22704" lon="1.41816">
        <ele>264</ele>
        <time>2017-10-07T14:05:43Z</time>
      </trkpt>
      <trkpt lat="43.22705" lon="1.41817">
        <ele>264</ele>
        <time>2017-10-07T14:05:44Z</time>
      </trkpt>
      <trkpt lat="43.22709" lon="1.4182">
        <ele>264</ele>
        <time>2017-10-07T14:05:47Z</time>
      </trkpt>
      <trkpt lat="43.22717" lon="1.41827">
        <ele>264</ele>
        <time>2017-10-07T14:05:52Z</time>
      </trkpt>
      <trkpt lat="43.22723" lon="1.41832">
        <ele>265</ele>
        <time>2017-10-07T14:05:56Z</time>
      </trkpt>
      <trkpt lat="43.22724" lon="1.41833">
        <ele>265</ele>
        <time>2017-10-07T14:05:57Z</time>
      </trkpt>
      <trkpt lat="43.22725" lon="1.41834">
        <ele>266</ele>
        <time>2017-10-07T14:05:58Z</time>
      </trkpt>
      <trkpt lat="43.22726" lon="1.41835">
        <ele>266</ele>
        <time>2017-10-07T14:05:59Z</time>
      </trkpt>
      <trkpt lat="43.22728" lon="1.41837">
        <ele>266</ele>
        <time>2017-10-07T14:06:00Z</time>
      </trkpt>
      <trkpt lat="43.22735" lon="1.41844">
        <ele>267</ele>
        <time>2017-10-07T14:06:06Z</time>
      </trkpt>
      <trkpt lat="43.22736" lon="1.41845">
        <ele>267</ele>
        <time>2017-10-07T14:06:07Z</time>
      </trkpt>
      <trkpt lat="43.22738" lon="1.41846">
        <ele>268</ele>
        <time>2017-10-07T14:06:08Z</time>
      </trkpt>
      <trkpt lat="43.22739" lon="1.41848">
        <ele>268</ele>
        <time>2017-10-07T14:06:09Z</time>
      </trkpt>
      <trkpt lat="43.2274" lon="1.41849">
        <ele>268</ele>
        <time>2017-10-07T14:06:10Z</time>
      </trkpt>
      <trkpt lat="43.22744" lon="1.41852">
        <ele>268</ele>
        <time>2017-10-07T14:06:13Z</time>
      </trkpt>
      <trkpt lat="43.22746" lon="1.41853">
        <ele>269</ele>
        <time>2017-10-07T14:06:14Z</time>
      </trkpt>
      <trkpt lat="43.22746" lon="1.41854">
        <ele>269</ele>
        <time>2017-10-07T14:06:15Z</time>
      </trkpt>
      <trkpt lat="43.22748" lon="1.41855">
        <ele>270</ele>
        <time>2017-10-07T14:06:16Z</time>
      </trkpt>
      <trkpt lat="43.22749" lon="1.41857">
        <ele>270</ele>
        <time>2017-10-07T14:06:17Z</time>
      </trkpt>
      <trkpt lat="43.2275" lon="1.41858">
        <ele>270</ele>
        <time>2017-10-07T14:06:18Z</time>
      </trkpt>
      <trkpt lat="43.22755" lon="1.41863">
        <ele>270</ele>
        <time>2017-10-07T14:06:22Z</time>
      </trkpt>
      <trkpt lat="43.22759" lon="1.41868">
        <ele>271</ele>
        <time>2017-10-07T14:06:25Z</time>
      </trkpt>
      <trkpt lat="43.2276" lon="1.41869">
        <ele>271</ele>
        <time>2017-10-07T14:06:26Z</time>
      </trkpt>
      <trkpt lat="43.22761" lon="1.41871">
        <ele>272</ele>
        <time>2017-10-07T14:06:27Z</time>
      </trkpt>
      <trkpt lat="43.22762" lon="1.41873">
        <ele>272</ele>
        <time>2017-10-07T14:06:28Z</time>
      </trkpt>
      <trkpt lat="43.22764" lon="1.41875">
        <ele>273</ele>
        <time>2017-10-07T14:06:29Z</time>
      </trkpt>
      <trkpt lat="43.22766" lon="1.41878">
        <ele>273</ele>
        <time>2017-10-07T14:06:31Z</time>
      </trkpt>
      <trkpt lat="43.22772" lon="1.41889">
        <ele>273</ele>
        <time>2017-10-07T14:06:37Z</time>
      </trkpt>
      <trkpt lat="43.22773" lon="1.41891">
        <ele>274</ele>
        <time>2017-10-07T14:06:38Z</time>
      </trkpt>
      <trkpt lat="43.22774" lon="1.41892">
        <ele>274</ele>
        <time>2017-10-07T14:06:39Z</time>
      </trkpt>
      <trkpt lat="43.22775" lon="1.41894">
        <ele>274</ele>
        <time>2017-10-07T14:06:40Z</time>
      </trkpt>
      <trkpt lat="43.22776" lon="1.41895">
        <ele>275</ele>
        <time>2017-10-07T14:06:41Z</time>
      </trkpt>
      <trkpt lat="43.22781" lon="1.41904">
        <ele>275</ele>
        <time>2017-10-07T14:06:46Z</time>
      </trkpt>
      <trkpt lat="43.22782" lon="1.41907">
        <ele>275</ele>
        <time>2017-10-07T14:06:48Z</time>
      </trkpt>
      <trkpt lat="43.22783" lon="1.41909">
        <ele>276</ele>
        <time>2017-10-07T14:06:49Z</time>
      </trkpt>
      <trkpt lat="43.22784" lon="1.4191">
        <ele>276</ele>
        <time>2017-10-07T14:06:50Z</time>
      </trkpt>
      <trkpt lat="43.22785" lon="1.41912">
        <ele>277</ele>
        <time>2017-10-07T14:06:51Z</time>
      </trkpt>
      <trkpt lat="43.22788" lon="1.41916">
        <ele>277</ele>
        <time>2017-10-07T14:06:54Z</time>
      </trkpt>
      <trkpt lat="43.22789" lon="1.41917">
        <ele>277</ele>
        <time>2017-10-07T14:06:55Z</time>
      </trkpt>
      <trkpt lat="43.2279" lon="1.41919">
        <ele>278</ele>
        <time>2017-10-07T14:06:56Z</time>
      </trkpt>
      <trkpt lat="43.22791" lon="1.41921">
        <ele>278</ele>
        <time>2017-10-07T14:06:57Z</time>
      </trkpt>
      <trkpt lat="43.22792" lon="1.41922">
        <ele>279</ele>
        <time>2017-10-07T14:06:58Z</time>
      </trkpt>
      <trkpt lat="43.22793" lon="1.41923">
        <ele>279</ele>
        <time>2017-10-07T14:06:59Z</time>
      </trkpt>
      <trkpt lat="43.22797" lon="1.41929">
        <ele>280</ele>
        <time>2017-10-07T14:07:03Z</time>
      </trkpt>
      <trkpt lat="43.22798" lon="1.41931">
        <ele>280</ele>
        <time>2017-10-07T14:07:04Z</time>
      </trkpt>
      <trkpt lat="43.22799" lon="1.41932">
        <ele>280</ele>
        <time>2017-10-07T14:07:05Z</time>
      </trkpt>
      <trkpt lat="43.228" lon="1.41933">
        <ele>281</ele>
        <time>2017-10-07T14:07:06Z</time>
      </trkpt>
      <trkpt lat="43.22801" lon="1.41934">
        <ele>281</ele>
        <time>2017-10-07T14:07:07Z</time>
      </trkpt>
      <trkpt lat="43.22802" lon="1.41936">
        <ele>281</ele>
        <time>2017-10-07T14:07:08Z</time>
      </trkpt>
      <trkpt lat="43.22803" lon="1.41937">
        <ele>281</ele>
        <time>2017-10-07T14:07:09Z</time>
      </trkpt>
      <trkpt lat="43.22805" lon="1.41941">
        <ele>282</ele>
        <time>2017-10-07T14:07:11Z</time>
      </trkpt>
      <trkpt lat="43.22807" lon="1.41942">
        <ele>282</ele>
        <time>2017-10-07T14:07:12Z</time>
      </trkpt>
      <trkpt lat="43.22808" lon="1.41944">
        <ele>282</ele>
        <time>2017-10-07T14:07:13Z</time>
      </trkpt>
      <trkpt lat="43.22809" lon="1.41945">
        <ele>283</ele>
        <time>2017-10-07T14:07:14Z</time>
      </trkpt>
      <trkpt lat="43.2281" lon="1.41947">
        <ele>283</ele>
        <time>2017-10-07T14:07:15Z</time>
      </trkpt>
      <trkpt lat="43.22814" lon="1.41952">
        <ele>284</ele>
        <time>2017-10-07T14:07:19Z</time>
      </trkpt>
      <trkpt lat="43.22815" lon="1.41953">
        <ele>284</ele>
        <time>2017-10-07T14:07:20Z</time>
      </trkpt>
      <trkpt lat="43.22817" lon="1.41955">
        <ele>284</ele>
        <time>2017-10-07T14:07:21Z</time>
      </trkpt>
      <trkpt lat="43.22817" lon="1.41956">
        <ele>285</ele>
        <time>2017-10-07T14:07:22Z</time>
      </trkpt>
      <trkpt lat="43.22818" lon="1.41957">
        <ele>285</ele>
        <time>2017-10-07T14:07:23Z</time>
      </trkpt>
      <trkpt lat="43.22821" lon="1.4196">
        <ele>285</ele>
        <time>2017-10-07T14:07:26Z</time>
      </trkpt>
      <trkpt lat="43.22823" lon="1.41964">
        <ele>285</ele>
        <time>2017-10-07T14:07:28Z</time>
      </trkpt>
      <trkpt lat="43.22827" lon="1.41968">
        <ele>286</ele>
        <time>2017-10-07T14:07:32Z</time>
      </trkpt>
      <trkpt lat="43.22829" lon="1.41969">
        <ele>286</ele>
        <time>2017-10-07T14:07:33Z</time>
      </trkpt>
      <trkpt lat="43.2283" lon="1.4197">
        <ele>287</ele>
        <time>2017-10-07T14:07:34Z</time>
      </trkpt>
      <trkpt lat="43.22831" lon="1.4197">
        <ele>287</ele>
        <time>2017-10-07T14:07:35Z</time>
      </trkpt>
      <trkpt lat="43.22833" lon="1.4197">
        <ele>287</ele>
        <time>2017-10-07T14:07:36Z</time>
      </trkpt>
      <trkpt lat="43.22834" lon="1.41971">
        <ele>287</ele>
        <time>2017-10-07T14:07:37Z</time>
      </trkpt>
      <trkpt lat="43.22836" lon="1.41974">
        <ele>287</ele>
        <time>2017-10-07T14:07:38Z</time>
      </trkpt>
      <trkpt lat="43.22836" lon="1.4198">
        <ele>288</ele>
        <time>2017-10-07T14:07:41Z</time>
      </trkpt>
      <trkpt lat="43.22836" lon="1.4198">
        <ele>288</ele>
        <time>2017-10-07T14:07:42Z</time>
      </trkpt>
      <trkpt lat="43.22835" lon="1.41981">
        <ele>289</ele>
        <time>2017-10-07T14:07:43Z</time>
      </trkpt>
      <trkpt lat="43.22834" lon="1.41981">
        <ele>289</ele>
        <time>2017-10-07T14:07:44Z</time>
      </trkpt>
      <trkpt lat="43.22833" lon="1.41981">
        <ele>290</ele>
        <time>2017-10-07T14:07:45Z</time>
      </trkpt>
      <trkpt lat="43.22832" lon="1.41982">
        <ele>290</ele>
        <time>2017-10-07T14:07:46Z</time>
      </trkpt>
      <trkpt lat="43.22831" lon="1.41983">
        <ele>290</ele>
        <time>2017-10-07T14:07:47Z</time>
      </trkpt>
      <trkpt lat="43.2283" lon="1.41984">
        <ele>290</ele>
        <time>2017-10-07T14:07:48Z</time>
      </trkpt>
      <trkpt lat="43.22831" lon="1.41984">
        <ele>292</ele>
        <time>2017-10-07T14:07:54Z</time>
      </trkpt>
      <trkpt lat="43.22831" lon="1.41985">
        <ele>292</ele>
        <time>2017-10-07T14:07:55Z</time>
      </trkpt>
      <trkpt lat="43.22831" lon="1.41986">
        <ele>292</ele>
        <time>2017-10-07T14:07:58Z</time>
      </trkpt>
      <trkpt lat="43.22833" lon="1.41989">
        <ele>292</ele>
        <time>2017-10-07T14:08:41Z</time>
      </trkpt>
      <trkpt lat="43.22834" lon="1.4199">
        <ele>292</ele>
        <time>2017-10-07T14:08:42Z</time>
      </trkpt>
      <trkpt lat="43.22837" lon="1.41999">
        <ele>292</ele>
        <time>2017-10-07T14:08:46Z</time>
      </trkpt>
      <trkpt lat="43.22838" lon="1.42001">
        <ele>293</ele>
        <time>2017-10-07T14:08:47Z</time>
      </trkpt>
      <trkpt lat="43.22839" lon="1.42003">
        <ele>293</ele>
        <time>2017-10-07T14:08:48Z</time>
      </trkpt>
      <trkpt lat="43.22839" lon="1.42005">
        <ele>293</ele>
        <time>2017-10-07T14:08:49Z</time>
      </trkpt>
      <trkpt lat="43.22839" lon="1.42007">
        <ele>294</ele>
        <time>2017-10-07T14:08:50Z</time>
      </trkpt>
      <trkpt lat="43.2284" lon="1.42011">
        <ele>294</ele>
        <time>2017-10-07T14:08:52Z</time>
      </trkpt>
      <trkpt lat="43.22842" lon="1.42016">
        <ele>294</ele>
        <time>2017-10-07T14:08:54Z</time>
      </trkpt>
      <trkpt lat="43.22843" lon="1.42019">
        <ele>295</ele>
        <time>2017-10-07T14:08:55Z</time>
      </trkpt>
      <trkpt lat="43.22844" lon="1.42022">
        <ele>295</ele>
        <time>2017-10-07T14:08:56Z</time>
      </trkpt>
      <trkpt lat="43.22845" lon="1.42024">
        <ele>296</ele>
        <time>2017-10-07T14:08:57Z</time>
      </trkpt>
      <trkpt lat="43.22845" lon="1.42027">
        <ele>296</ele>
        <time>2017-10-07T14:08:58Z</time>
      </trkpt>
      <trkpt lat="43.22844" lon="1.42033">
        <ele>296</ele>
        <time>2017-10-07T14:09:01Z</time>
      </trkpt>
      <trkpt lat="43.22844" lon="1.42044">
        <ele>296</ele>
        <time>2017-10-07T14:09:06Z</time>
      </trkpt>
      <trkpt lat="43.22845" lon="1.42049">
        <ele>296</ele>
        <time>2017-10-07T14:09:08Z</time>
      </trkpt>
      <trkpt lat="43.22845" lon="1.42051">
        <ele>297</ele>
        <time>2017-10-07T14:09:09Z</time>
      </trkpt>
      <trkpt lat="43.22844" lon="1.42054">
        <ele>297</ele>
        <time>2017-10-07T14:09:10Z</time>
      </trkpt>
      <trkpt lat="43.22844" lon="1.42057">
        <ele>298</ele>
        <time>2017-10-07T14:09:11Z</time>
      </trkpt>
      <trkpt lat="43.22844" lon="1.4206">
        <ele>298</ele>
        <time>2017-10-07T14:09:12Z</time>
      </trkpt>
      <trkpt lat="43.22843" lon="1.42062">
        <ele>298</ele>
        <time>2017-10-07T14:09:13Z</time>
      </trkpt>
      <trkpt lat="43.22839" lon="1.42081">
        <ele>298</ele>
        <time>2017-10-07T14:09:20Z</time>
      </trkpt>
      <trkpt lat="43.22838" lon="1.42084">
        <ele>299</ele>
        <time>2017-10-07T14:09:21Z</time>
      </trkpt>
      <trkpt lat="43.22837" lon="1.42087">
        <ele>299</ele>
        <time>2017-10-07T14:09:22Z</time>
      </trkpt>
      <trkpt lat="43.22837" lon="1.42089">
        <ele>300</ele>
        <time>2017-10-07T14:09:23Z</time>
      </trkpt>
      <trkpt lat="43.22836" lon="1.42091">
        <ele>300</ele>
        <time>2017-10-07T14:09:24Z</time>
      </trkpt>
      <trkpt lat="43.22834" lon="1.42095">
        <ele>300</ele>
        <time>2017-10-07T14:09:26Z</time>
      </trkpt>
      <trkpt lat="43.22828" lon="1.42104">
        <ele>301</ele>
        <time>2017-10-07T14:09:31Z</time>
      </trkpt>
      <trkpt lat="43.22827" lon="1.42105">
        <ele>301</ele>
        <time>2017-10-07T14:09:32Z</time>
      </trkpt>
      <trkpt lat="43.22825" lon="1.42105">
        <ele>301</ele>
        <time>2017-10-07T14:09:33Z</time>
      </trkpt>
      <trkpt lat="43.22823" lon="1.42105">
        <ele>302</ele>
        <time>2017-10-07T14:09:34Z</time>
      </trkpt>
      <trkpt lat="43.22822" lon="1.42104">
        <ele>302</ele>
        <time>2017-10-07T14:09:35Z</time>
      </trkpt>
      <trkpt lat="43.22817" lon="1.42107">
        <ele>302</ele>
        <time>2017-10-07T14:09:38Z</time>
      </trkpt>
      <trkpt lat="43.22816" lon="1.4211">
        <ele>302</ele>
        <time>2017-10-07T14:09:40Z</time>
      </trkpt>
      <trkpt lat="43.22818" lon="1.42114">
        <ele>302</ele>
        <time>2017-10-07T14:09:42Z</time>
      </trkpt>
      <trkpt lat="43.22822" lon="1.42117">
        <ele>303</ele>
        <time>2017-10-07T14:09:44Z</time>
      </trkpt>
      <trkpt lat="43.22824" lon="1.42118">
        <ele>303</ele>
        <time>2017-10-07T14:09:45Z</time>
      </trkpt>
      <trkpt lat="43.22826" lon="1.4212">
        <ele>304</ele>
        <time>2017-10-07T14:09:46Z</time>
      </trkpt>
      <trkpt lat="43.22828" lon="1.42121">
        <ele>304</ele>
        <time>2017-10-07T14:09:47Z</time>
      </trkpt>
      <trkpt lat="43.2283" lon="1.42123">
        <ele>304</ele>
        <time>2017-10-07T14:09:48Z</time>
      </trkpt>
      <trkpt lat="43.22845" lon="1.42133">
        <ele>304</ele>
        <time>2017-10-07T14:09:55Z</time>
      </trkpt>
      <trkpt lat="43.22856" lon="1.42139">
        <ele>305</ele>
        <time>2017-10-07T14:10:00Z</time>
      </trkpt>
      <trkpt lat="43.22859" lon="1.42141">
        <ele>305</ele>
        <time>2017-10-07T14:10:01Z</time>
      </trkpt>
      <trkpt lat="43.2286" lon="1.42142">
        <ele>306</ele>
        <time>2017-10-07T14:10:02Z</time>
      </trkpt>
      <trkpt lat="43.22862" lon="1.42144">
        <ele>306</ele>
        <time>2017-10-07T14:10:03Z</time>
      </trkpt>
      <trkpt lat="43.22864" lon="1.42145">
        <ele>306</ele>
        <time>2017-10-07T14:10:04Z</time>
      </trkpt>
      <trkpt lat="43.22873" lon="1.4215">
        <ele>306</ele>
        <time>2017-10-07T14:10:08Z</time>
      </trkpt>
      <trkpt lat="43.22877" lon="1.42152">
        <ele>307</ele>
        <time>2017-10-07T14:10:10Z</time>
      </trkpt>
      <trkpt lat="43.22879" lon="1.42153">
        <ele>307</ele>
        <time>2017-10-07T14:10:11Z</time>
      </trkpt>
      <trkpt lat="43.22881" lon="1.42154">
        <ele>308</ele>
        <time>2017-10-07T14:10:12Z</time>
      </trkpt>
      <trkpt lat="43.22883" lon="1.42156">
        <ele>308</ele>
        <time>2017-10-07T14:10:13Z</time>
      </trkpt>
      <trkpt lat="43.22885" lon="1.42157">
        <ele>309</ele>
        <time>2017-10-07T14:10:14Z</time>
      </trkpt>
      <trkpt lat="43.22888" lon="1.4216">
        <ele>309</ele>
        <time>2017-10-07T14:10:16Z</time>
      </trkpt>
      <trkpt lat="43.22892" lon="1.42163">
        <ele>309</ele>
        <time>2017-10-07T14:10:18Z</time>
      </trkpt>
      <trkpt lat="43.22894" lon="1.42165">
        <ele>309</ele>
        <time>2017-10-07T14:10:19Z</time>
      </trkpt>
      <trkpt lat="43.22895" lon="1.42167">
        <ele>310</ele>
        <time>2017-10-07T14:10:20Z</time>
      </trkpt>
      <trkpt lat="43.22896" lon="1.4217">
        <ele>310</ele>
        <time>2017-10-07T14:10:21Z</time>
      </trkpt>
      <trkpt lat="43.22897" lon="1.42173">
        <ele>311</ele>
        <time>2017-10-07T14:10:22Z</time>
      </trkpt>
      <trkpt lat="43.22899" lon="1.42181">
        <ele>311</ele>
        <time>2017-10-07T14:10:25Z</time>
      </trkpt>
      <trkpt lat="43.229" lon="1.42184">
        <ele>312</ele>
        <time>2017-10-07T14:10:26Z</time>
      </trkpt>
      <trkpt lat="43.22901" lon="1.42186">
        <ele>312</ele>
        <time>2017-10-07T14:10:27Z</time>
      </trkpt>
      <trkpt lat="43.22901" lon="1.42189">
        <ele>312</ele>
        <time>2017-10-07T14:10:28Z</time>
      </trkpt>
      <trkpt lat="43.22902" lon="1.42192">
        <ele>313</ele>
        <time>2017-10-07T14:10:29Z</time>
      </trkpt>
      <trkpt lat="43.22903" lon="1.42195">
        <ele>313</ele>
        <time>2017-10-07T14:10:30Z</time>
      </trkpt>
      <trkpt lat="43.22905" lon="1.422">
        <ele>313</ele>
        <time>2017-10-07T14:10:32Z</time>
      </trkpt>
      <trkpt lat="43.22906" lon="1.42203">
        <ele>314</ele>
        <time>2017-10-07T14:10:33Z</time>
      </trkpt>
      <trkpt lat="43.22906" lon="1.42205">
        <ele>315</ele>
        <time>2017-10-07T14:10:34Z</time>
      </trkpt>
      <trkpt lat="43.22907" lon="1.42208">
        <ele>315</ele>
        <time>2017-10-07T14:10:35Z</time>
      </trkpt>
      <trkpt lat="43.22909" lon="1.42213">
        <ele>316</ele>
        <time>2017-10-07T14:10:37Z</time>
      </trkpt>
      <trkpt lat="43.2291" lon="1.42215">
        <ele>316</ele>
        <time>2017-10-07T14:10:38Z</time>
      </trkpt>
      <trkpt lat="43.22911" lon="1.42218">
        <ele>317</ele>
        <time>2017-10-07T14:10:39Z</time>
      </trkpt>
      <trkpt lat="43.22913" lon="1.4222">
        <ele>317</ele>
        <time>2017-10-07T14:10:40Z</time>
      </trkpt>
      <trkpt lat="43.22914" lon="1.42222">
        <ele>317</ele>
        <time>2017-10-07T14:10:41Z</time>
      </trkpt>
      <trkpt lat="43.22917" lon="1.42226">
        <ele>318</ele>
        <time>2017-10-07T14:10:43Z</time>
      </trkpt>
      <trkpt lat="43.22919" lon="1.42228">
        <ele>318</ele>
        <time>2017-10-07T14:10:44Z</time>
      </trkpt>
      <trkpt lat="43.2292" lon="1.4223">
        <ele>319</ele>
        <time>2017-10-07T14:10:45Z</time>
      </trkpt>
      <trkpt lat="43.22921" lon="1.42232">
        <ele>319</ele>
        <time>2017-10-07T14:10:46Z</time>
      </trkpt>
      <trkpt lat="43.22923" lon="1.42234">
        <ele>320</ele>
        <time>2017-10-07T14:10:47Z</time>
      </trkpt>
      <trkpt lat="43.22926" lon="1.42238">
        <ele>320</ele>
        <time>2017-10-07T14:10:49Z</time>
      </trkpt>
      <trkpt lat="43.22927" lon="1.42239">
        <ele>320</ele>
        <time>2017-10-07T14:10:50Z</time>
      </trkpt>
      <trkpt lat="43.22929" lon="1.42241">
        <ele>321</ele>
        <time>2017-10-07T14:10:51Z</time>
      </trkpt>
      <trkpt lat="43.22931" lon="1.42242">
        <ele>321</ele>
        <time>2017-10-07T14:10:52Z</time>
      </trkpt>
      <trkpt lat="43.22932" lon="1.42244">
        <ele>322</ele>
        <time>2017-10-07T14:10:53Z</time>
      </trkpt>
      <trkpt lat="43.22941" lon="1.4225">
        <ele>322</ele>
        <time>2017-10-07T14:10:58Z</time>
      </trkpt>
      <trkpt lat="43.22943" lon="1.4225">
        <ele>323</ele>
        <time>2017-10-07T14:10:59Z</time>
      </trkpt>
      <trkpt lat="43.22945" lon="1.42249">
        <ele>323</ele>
        <time>2017-10-07T14:11:00Z</time>
      </trkpt>
      <trkpt lat="43.22947" lon="1.42247">
        <ele>323</ele>
        <time>2017-10-07T14:11:01Z</time>
      </trkpt>
      <trkpt lat="43.22948" lon="1.42244">
        <ele>324</ele>
        <time>2017-10-07T14:11:02Z</time>
      </trkpt>
      <trkpt lat="43.22953" lon="1.42227">
        <ele>324</ele>
        <time>2017-10-07T14:11:07Z</time>
      </trkpt>
      <trkpt lat="43.22953" lon="1.42224">
        <ele>324</ele>
        <time>2017-10-07T14:11:08Z</time>
      </trkpt>
      <trkpt lat="43.2296" lon="1.42189">
        <ele>324</ele>
        <time>2017-10-07T14:11:16Z</time>
      </trkpt>
      <trkpt lat="43.2297" lon="1.42156">
        <ele>324</ele>
        <time>2017-10-07T14:11:23Z</time>
      </trkpt>
      <trkpt lat="43.22978" lon="1.42124">
        <ele>324</ele>
        <time>2017-10-07T14:11:29Z</time>
      </trkpt>
      <trkpt lat="43.22983" lon="1.421">
        <ele>323</ele>
        <time>2017-10-07T14:11:34Z</time>
      </trkpt>
      <trkpt lat="43.22984" lon="1.42095">
        <ele>323</ele>
        <time>2017-10-07T14:11:35Z</time>
      </trkpt>
      <trkpt lat="43.22985" lon="1.42089">
        <ele>323</ele>
        <time>2017-10-07T14:11:36Z</time>
      </trkpt>
      <trkpt lat="43.22986" lon="1.42084">
        <ele>322</ele>
        <time>2017-10-07T14:11:37Z</time>
      </trkpt>
      <trkpt lat="43.22987" lon="1.42079">
        <ele>322</ele>
        <time>2017-10-07T14:11:38Z</time>
      </trkpt>
      <trkpt lat="43.22989" lon="1.42063">
        <ele>322</ele>
        <time>2017-10-07T14:11:41Z</time>
      </trkpt>
      <trkpt lat="43.22989" lon="1.42058">
        <ele>322</ele>
        <time>2017-10-07T14:11:42Z</time>
      </trkpt>
      <trkpt lat="43.22995" lon="1.42025">
        <ele>322</ele>
        <time>2017-10-07T14:11:48Z</time>
      </trkpt>
      <trkpt lat="43.22998" lon="1.42004">
        <ele>321</ele>
        <time>2017-10-07T14:11:52Z</time>
      </trkpt>
      <trkpt lat="43.22999" lon="1.41999">
        <ele>321</ele>
        <time>2017-10-07T14:11:53Z</time>
      </trkpt>
      <trkpt lat="43.22999" lon="1.41994">
        <ele>321</ele>
        <time>2017-10-07T14:11:54Z</time>
      </trkpt>
      <trkpt lat="43.23" lon="1.41988">
        <ele>320</ele>
        <time>2017-10-07T14:11:55Z</time>
      </trkpt>
      <trkpt lat="43.23" lon="1.41983">
        <ele>320</ele>
        <time>2017-10-07T14:11:56Z</time>
      </trkpt>
      <trkpt lat="43.23" lon="1.41966">
        <ele>320</ele>
        <time>2017-10-07T14:11:59Z</time>
      </trkpt>
      <trkpt lat="43.23" lon="1.4196">
        <ele>320</ele>
        <time>2017-10-07T14:12:00Z</time>
      </trkpt>
      <trkpt lat="43.23004" lon="1.41933">
        <ele>320</ele>
        <time>2017-10-07T14:12:05Z</time>
      </trkpt>
      <trkpt lat="43.23008" lon="1.41923">
        <ele>320</ele>
        <time>2017-10-07T14:12:07Z</time>
      </trkpt>
      <trkpt lat="43.23014" lon="1.4191">
        <ele>319</ele>
        <time>2017-10-07T14:12:10Z</time>
      </trkpt>
      <trkpt lat="43.23016" lon="1.41906">
        <ele>319</ele>
        <time>2017-10-07T14:12:11Z</time>
      </trkpt>
      <trkpt lat="43.23019" lon="1.41904">
        <ele>318</ele>
        <time>2017-10-07T14:12:12Z</time>
      </trkpt>
      <trkpt lat="43.23021" lon="1.41902">
        <ele>318</ele>
        <time>2017-10-07T14:12:13Z</time>
      </trkpt>
      <trkpt lat="43.23033" lon="1.41894">
        <ele>318</ele>
        <time>2017-10-07T14:12:19Z</time>
      </trkpt>
      <trkpt lat="43.23039" lon="1.41881">
        <ele>318</ele>
        <time>2017-10-07T14:12:23Z</time>
      </trkpt>
      <trkpt lat="43.23042" lon="1.41874">
        <ele>318</ele>
        <time>2017-10-07T14:12:25Z</time>
      </trkpt>
      <trkpt lat="43.23051" lon="1.41847">
        <ele>318</ele>
        <time>2017-10-07T14:12:31Z</time>
      </trkpt>
      <trkpt lat="43.23056" lon="1.41831">
        <ele>317</ele>
        <time>2017-10-07T14:12:34Z</time>
      </trkpt>
      <trkpt lat="43.23057" lon="1.41826">
        <ele>317</ele>
        <time>2017-10-07T14:12:35Z</time>
      </trkpt>
      <trkpt lat="43.23059" lon="1.4182">
        <ele>316</ele>
        <time>2017-10-07T14:12:36Z</time>
      </trkpt>
      <trkpt lat="43.23061" lon="1.41815">
        <ele>315</ele>
        <time>2017-10-07T14:12:37Z</time>
      </trkpt>
      <trkpt lat="43.23067" lon="1.41792">
        <ele>315</ele>
        <time>2017-10-07T14:12:41Z</time>
      </trkpt>
      <trkpt lat="43.23069" lon="1.41785">
        <ele>314</ele>
        <time>2017-10-07T14:12:42Z</time>
      </trkpt>
      <trkpt lat="43.23071" lon="1.41777">
        <ele>314</ele>
        <time>2017-10-07T14:12:43Z</time>
      </trkpt>
      <trkpt lat="43.23073" lon="1.41769">
        <ele>313</ele>
        <time>2017-10-07T14:12:44Z</time>
      </trkpt>
      <trkpt lat="43.23075" lon="1.41761">
        <ele>313</ele>
        <time>2017-10-07T14:12:45Z</time>
      </trkpt>
      <trkpt lat="43.23076" lon="1.41753">
        <ele>313</ele>
        <time>2017-10-07T14:12:46Z</time>
      </trkpt>
      <trkpt lat="43.23078" lon="1.41745">
        <ele>312</ele>
        <time>2017-10-07T14:12:47Z</time>
      </trkpt>
      <trkpt lat="43.23079" lon="1.41737">
        <ele>312</ele>
        <time>2017-10-07T14:12:48Z</time>
      </trkpt>
      <trkpt lat="43.2308" lon="1.41729">
        <ele>311</ele>
        <time>2017-10-07T14:12:49Z</time>
      </trkpt>
      <trkpt lat="43.23081" lon="1.4172">
        <ele>311</ele>
        <time>2017-10-07T14:12:50Z</time>
      </trkpt>
      <trkpt lat="43.23084" lon="1.41702">
        <ele>310</ele>
        <time>2017-10-07T14:12:52Z</time>
      </trkpt>
      <trkpt lat="43.23085" lon="1.41693">
        <ele>310</ele>
        <time>2017-10-07T14:12:53Z</time>
      </trkpt>
      <trkpt lat="43.23086" lon="1.41683">
        <ele>309</ele>
        <time>2017-10-07T14:12:54Z</time>
      </trkpt>
      <trkpt lat="43.23088" lon="1.41674">
        <ele>309</ele>
        <time>2017-10-07T14:12:55Z</time>
      </trkpt>
      <trkpt lat="43.23089" lon="1.41664">
        <ele>308</ele>
        <time>2017-10-07T14:12:56Z</time>
      </trkpt>
      <trkpt lat="43.23091" lon="1.41654">
        <ele>308</ele>
        <time>2017-10-07T14:12:57Z</time>
      </trkpt>
      <trkpt lat="43.23092" lon="1.41643">
        <ele>307</ele>
        <time>2017-10-07T14:12:58Z</time>
      </trkpt>
      <trkpt lat="43.23094" lon="1.41633">
        <ele>307</ele>
        <time>2017-10-07T14:12:59Z</time>
      </trkpt>
      <trkpt lat="43.23095" lon="1.41622">
        <ele>306</ele>
        <time>2017-10-07T14:13:00Z</time>
      </trkpt>
      <trkpt lat="43.23097" lon="1.41613">
        <ele>305</ele>
        <time>2017-10-07T14:13:01Z</time>
      </trkpt>
      <trkpt lat="43.23098" lon="1.41603">
        <ele>304</ele>
        <time>2017-10-07T14:13:02Z</time>
      </trkpt>
      <trkpt lat="43.231" lon="1.41594">
        <ele>304</ele>
        <time>2017-10-07T14:13:03Z</time>
      </trkpt>
      <trkpt lat="43.23101" lon="1.41585">
        <ele>303</ele>
        <time>2017-10-07T14:13:04Z</time>
      </trkpt>
      <trkpt lat="43.23103" lon="1.41576">
        <ele>302</ele>
        <time>2017-10-07T14:13:05Z</time>
      </trkpt>
      <trkpt lat="43.23104" lon="1.41566">
        <ele>302</ele>
        <time>2017-10-07T14:13:06Z</time>
      </trkpt>
      <trkpt lat="43.23103" lon="1.41555">
        <ele>301</ele>
        <time>2017-10-07T14:13:07Z</time>
      </trkpt>
      <trkpt lat="43.23103" lon="1.41544">
        <ele>300</ele>
        <time>2017-10-07T14:13:08Z</time>
      </trkpt>
      <trkpt lat="43.23103" lon="1.41533">
        <ele>300</ele>
        <time>2017-10-07T14:13:09Z</time>
      </trkpt>
      <trkpt lat="43.23103" lon="1.41522">
        <ele>299</ele>
        <time>2017-10-07T14:13:10Z</time>
      </trkpt>
      <trkpt lat="43.23104" lon="1.41511">
        <ele>298</ele>
        <time>2017-10-07T14:13:11Z</time>
      </trkpt>
      <trkpt lat="43.23104" lon="1.415">
        <ele>297</ele>
        <time>2017-10-07T14:13:12Z</time>
      </trkpt>
      <trkpt lat="43.23105" lon="1.41489">
        <ele>296</ele>
        <time>2017-10-07T14:13:13Z</time>
      </trkpt>
      <trkpt lat="43.23105" lon="1.41478">
        <ele>295</ele>
        <time>2017-10-07T14:13:14Z</time>
      </trkpt>
      <trkpt lat="43.23105" lon="1.41466">
        <ele>295</ele>
        <time>2017-10-07T14:13:15Z</time>
      </trkpt>
      <trkpt lat="43.23106" lon="1.41456">
        <ele>294</ele>
        <time>2017-10-07T14:13:16Z</time>
      </trkpt>
      <trkpt lat="43.23106" lon="1.41445">
        <ele>293</ele>
        <time>2017-10-07T14:13:17Z</time>
      </trkpt>
      <trkpt lat="43.23107" lon="1.41436">
        <ele>293</ele>
        <time>2017-10-07T14:13:18Z</time>
      </trkpt>
      <trkpt lat="43.23107" lon="1.41426">
        <ele>292</ele>
        <time>2017-10-07T14:13:19Z</time>
      </trkpt>
      <trkpt lat="43.23108" lon="1.41417">
        <ele>292</ele>
        <time>2017-10-07T14:13:20Z</time>
      </trkpt>
      <trkpt lat="43.23108" lon="1.41408">
        <ele>291</ele>
        <time>2017-10-07T14:13:21Z</time>
      </trkpt>
      <trkpt lat="43.23111" lon="1.41369">
        <ele>290</ele>
        <time>2017-10-07T14:13:26Z</time>
      </trkpt>
      <trkpt lat="43.23112" lon="1.41362">
        <ele>290</ele>
        <time>2017-10-07T14:13:27Z</time>
      </trkpt>
      <trkpt lat="43.23113" lon="1.41354">
        <ele>289</ele>
        <time>2017-10-07T14:13:28Z</time>
      </trkpt>
      <trkpt lat="43.23114" lon="1.41347">
        <ele>289</ele>
        <time>2017-10-07T14:13:29Z</time>
      </trkpt>
      <trkpt lat="43.23115" lon="1.41328">
        <ele>289</ele>
        <time>2017-10-07T14:13:31Z</time>
      </trkpt>
      <trkpt lat="43.23116" lon="1.41318">
        <ele>289</ele>
        <time>2017-10-07T14:13:32Z</time>
      </trkpt>
      <trkpt lat="43.23116" lon="1.41308">
        <ele>288</ele>
        <time>2017-10-07T14:13:33Z</time>
      </trkpt>
      <trkpt lat="43.23116" lon="1.41297">
        <ele>288</ele>
        <time>2017-10-07T14:13:34Z</time>
      </trkpt>
      <trkpt lat="43.23116" lon="1.41286">
        <ele>287</ele>
        <time>2017-10-07T14:13:35Z</time>
      </trkpt>
      <trkpt lat="43.23116" lon="1.41275">
        <ele>287</ele>
        <time>2017-10-07T14:13:36Z</time>
      </trkpt>
      <trkpt lat="43.23117" lon="1.41264">
        <ele>287</ele>
        <time>2017-10-07T14:13:37Z</time>
      </trkpt>
      <trkpt lat="43.23118" lon="1.41254">
        <ele>286</ele>
        <time>2017-10-07T14:13:38Z</time>
      </trkpt>
      <trkpt lat="43.23118" lon="1.41245">
        <ele>286</ele>
        <time>2017-10-07T14:13:39Z</time>
      </trkpt>
      <trkpt lat="43.23118" lon="1.41237">
        <ele>285</ele>
        <time>2017-10-07T14:13:40Z</time>
      </trkpt>
      <trkpt lat="43.23117" lon="1.4123">
        <ele>285</ele>
        <time>2017-10-07T14:13:41Z</time>
      </trkpt>
      <trkpt lat="43.23119" lon="1.41223">
        <ele>284</ele>
        <time>2017-10-07T14:13:42Z</time>
      </trkpt>
      <trkpt lat="43.23121" lon="1.41216">
        <ele>283</ele>
        <time>2017-10-07T14:13:43Z</time>
      </trkpt>
      <trkpt lat="43.23123" lon="1.41207">
        <ele>283</ele>
        <time>2017-10-07T14:13:44Z</time>
      </trkpt>
      <trkpt lat="43.23124" lon="1.41198">
        <ele>282</ele>
        <time>2017-10-07T14:13:45Z</time>
      </trkpt>
      <trkpt lat="43.23124" lon="1.41189">
        <ele>281</ele>
        <time>2017-10-07T14:13:46Z</time>
      </trkpt>
      <trkpt lat="43.23125" lon="1.4118">
        <ele>281</ele>
        <time>2017-10-07T14:13:47Z</time>
      </trkpt>
      <trkpt lat="43.23125" lon="1.41173">
        <ele>280</ele>
        <time>2017-10-07T14:13:48Z</time>
      </trkpt>
      <trkpt lat="43.23126" lon="1.41167">
        <ele>279</ele>
        <time>2017-10-07T14:13:49Z</time>
      </trkpt>
      <trkpt lat="43.23127" lon="1.41161">
        <ele>277</ele>
        <time>2017-10-07T14:13:50Z</time>
      </trkpt>
      <trkpt lat="43.23128" lon="1.41155">
        <ele>276</ele>
        <time>2017-10-07T14:13:51Z</time>
      </trkpt>
      <trkpt lat="43.2313" lon="1.41149">
        <ele>275</ele>
        <time>2017-10-07T14:13:52Z</time>
      </trkpt>
      <trkpt lat="43.23131" lon="1.41143">
        <ele>274</ele>
        <time>2017-10-07T14:13:53Z</time>
      </trkpt>
      <trkpt lat="43.23131" lon="1.41137">
        <ele>273</ele>
        <time>2017-10-07T14:13:54Z</time>
      </trkpt>
      <trkpt lat="43.23133" lon="1.4113">
        <ele>272</ele>
        <time>2017-10-07T14:13:55Z</time>
      </trkpt>
      <trkpt lat="43.23134" lon="1.41122">
        <ele>271</ele>
        <time>2017-10-07T14:13:56Z</time>
      </trkpt>
      <trkpt lat="43.23135" lon="1.41115">
        <ele>270</ele>
        <time>2017-10-07T14:13:57Z</time>
      </trkpt>
      <trkpt lat="43.23137" lon="1.41107">
        <ele>268</ele>
        <time>2017-10-07T14:13:58Z</time>
      </trkpt>
      <trkpt lat="43.23138" lon="1.411">
        <ele>267</ele>
        <time>2017-10-07T14:13:59Z</time>
      </trkpt>
      <trkpt lat="43.2314" lon="1.41094">
        <ele>266</ele>
        <time>2017-10-07T14:14:00Z</time>
      </trkpt>
      <trkpt lat="43.23143" lon="1.41089">
        <ele>265</ele>
        <time>2017-10-07T14:14:01Z</time>
      </trkpt>
      <trkpt lat="43.23145" lon="1.41084">
        <ele>264</ele>
        <time>2017-10-07T14:14:02Z</time>
      </trkpt>
      <trkpt lat="43.23147" lon="1.41079">
        <ele>263</ele>
        <time>2017-10-07T14:14:03Z</time>
      </trkpt>
      <trkpt lat="43.23151" lon="1.41073">
        <ele>262</ele>
        <time>2017-10-07T14:14:04Z</time>
      </trkpt>
      <trkpt lat="43.23155" lon="1.41068">
        <ele>261</ele>
        <time>2017-10-07T14:14:05Z</time>
      </trkpt>
      <trkpt lat="43.23159" lon="1.41063">
        <ele>260</ele>
        <time>2017-10-07T14:14:06Z</time>
      </trkpt>
      <trkpt lat="43.23162" lon="1.41058">
        <ele>259</ele>
        <time>2017-10-07T14:14:07Z</time>
      </trkpt>
      <trkpt lat="43.23166" lon="1.41053">
        <ele>257</ele>
        <time>2017-10-07T14:14:08Z</time>
      </trkpt>
      <trkpt lat="43.2317" lon="1.41047">
        <ele>256</ele>
        <time>2017-10-07T14:14:09Z</time>
      </trkpt>
      <trkpt lat="43.23173" lon="1.41042">
        <ele>255</ele>
        <time>2017-10-07T14:14:10Z</time>
      </trkpt>
      <trkpt lat="43.23174" lon="1.41036">
        <ele>254</ele>
        <time>2017-10-07T14:14:11Z</time>
      </trkpt>
      <trkpt lat="43.23176" lon="1.4103">
        <ele>253</ele>
        <time>2017-10-07T14:14:12Z</time>
      </trkpt>
      <trkpt lat="43.23179" lon="1.41023">
        <ele>252</ele>
        <time>2017-10-07T14:14:13Z</time>
      </trkpt>
      <trkpt lat="43.23182" lon="1.41017">
        <ele>250</ele>
        <time>2017-10-07T14:14:14Z</time>
      </trkpt>
      <trkpt lat="43.23185" lon="1.41011">
        <ele>248</ele>
        <time>2017-10-07T14:14:15Z</time>
      </trkpt>
      <trkpt lat="43.23188" lon="1.41006">
        <ele>247</ele>
        <time>2017-10-07T14:14:16Z</time>
      </trkpt>
      <trkpt lat="43.2319" lon="1.41003">
        <ele>246</ele>
        <time>2017-10-07T14:14:17Z</time>
      </trkpt>
      <trkpt lat="43.23191" lon="1.41">
        <ele>245</ele>
        <time>2017-10-07T14:14:18Z</time>
      </trkpt>
      <trkpt lat="43.23191" lon="1.40999">
        <ele>244</ele>
        <time>2017-10-07T14:14:19Z</time>
      </trkpt>
      <trkpt lat="43.23191" lon="1.40997">
        <ele>243</ele>
        <time>2017-10-07T14:14:20Z</time>
      </trkpt>
      <trkpt lat="43.23191" lon="1.40995">
        <ele>242</ele>
        <time>2017-10-07T14:14:21Z</time>
      </trkpt>
      <trkpt lat="43.23191" lon="1.40994">
        <ele>241</ele>
        <time>2017-10-07T14:14:22Z</time>
      </trkpt>
      <trkpt lat="43.2319" lon="1.40993">
        <ele>240</ele>
        <time>2017-10-07T14:14:23Z</time>
      </trkpt>
      <trkpt lat="43.2319" lon="1.40991">
        <ele>240</ele>
        <time>2017-10-07T14:14:24Z</time>
      </trkpt>
      <trkpt lat="43.23191" lon="1.40989">
        <ele>240</ele>
        <time>2017-10-07T14:14:26Z</time>
      </trkpt>
      <trkpt lat="43.232" lon="1.40984">
        <ele>240</ele>
        <time>2017-10-07T14:14:31Z</time>
      </trkpt>
      <trkpt lat="43.23212" lon="1.40972">
        <ele>240</ele>
        <time>2017-10-07T14:14:37Z</time>
      </trkpt>
      <trkpt lat="43.23224" lon="1.4096">
        <ele>240</ele>
        <time>2017-10-07T14:14:43Z</time>
      </trkpt>
      <trkpt lat="43.23226" lon="1.40958">
        <ele>240</ele>
        <time>2017-10-07T14:14:44Z</time>
      </trkpt>
      <trkpt lat="43.23237" lon="1.40945">
        <ele>240</ele>
        <time>2017-10-07T14:14:50Z</time>
      </trkpt>
      <trkpt lat="43.23245" lon="1.40934">
        <ele>240</ele>
        <time>2017-10-07T14:14:55Z</time>
      </trkpt>
      <trkpt lat="43.23247" lon="1.40932">
        <ele>240</ele>
        <time>2017-10-07T14:14:56Z</time>
      </trkpt>
      <trkpt lat="43.23249" lon="1.4093">
        <ele>241</ele>
        <time>2017-10-07T14:14:57Z</time>
      </trkpt>
      <trkpt lat="43.23251" lon="1.40928">
        <ele>241</ele>
        <time>2017-10-07T14:14:58Z</time>
      </trkpt>
      <trkpt lat="43.23253" lon="1.40926">
        <ele>242</ele>
        <time>2017-10-07T14:14:59Z</time>
      </trkpt>
      <trkpt lat="43.23257" lon="1.40921">
        <ele>242</ele>
        <time>2017-10-07T14:15:01Z</time>
      </trkpt>
      <trkpt lat="43.23268" lon="1.40907">
        <ele>242</ele>
        <time>2017-10-07T14:15:07Z</time>
      </trkpt>
      <trkpt lat="43.23279" lon="1.40892">
        <ele>242</ele>
        <time>2017-10-07T14:15:12Z</time>
      </trkpt>
      <trkpt lat="43.23293" lon="1.40873">
        <ele>242</ele>
        <time>2017-10-07T14:15:17Z</time>
      </trkpt>
      <trkpt lat="43.23296" lon="1.40869">
        <ele>242</ele>
        <time>2017-10-07T14:15:18Z</time>
      </trkpt>
      <trkpt lat="43.23299" lon="1.40865">
        <ele>243</ele>
        <time>2017-10-07T14:15:19Z</time>
      </trkpt>
      <trkpt lat="43.23301" lon="1.40862">
        <ele>243</ele>
        <time>2017-10-07T14:15:20Z</time>
      </trkpt>
      <trkpt lat="43.23304" lon="1.40858">
        <ele>244</ele>
        <time>2017-10-07T14:15:21Z</time>
      </trkpt>
      <trkpt lat="43.23314" lon="1.40844">
        <ele>244</ele>
        <time>2017-10-07T14:15:25Z</time>
      </trkpt>
      <trkpt lat="43.23326" lon="1.40823">
        <ele>244</ele>
        <time>2017-10-07T14:15:31Z</time>
      </trkpt>
      <trkpt lat="43.23339" lon="1.40806">
        <ele>244</ele>
        <time>2017-10-07T14:15:37Z</time>
      </trkpt>
      <trkpt lat="43.23351" lon="1.40789">
        <ele>244</ele>
        <time>2017-10-07T14:15:43Z</time>
      </trkpt>
      <trkpt lat="43.23361" lon="1.40768">
        <ele>244</ele>
        <time>2017-10-07T14:15:48Z</time>
      </trkpt>
      <trkpt lat="43.23363" lon="1.40765">
        <ele>244</ele>
        <time>2017-10-07T14:15:49Z</time>
      </trkpt>
      <trkpt lat="43.23367" lon="1.40759">
        <ele>243</ele>
        <time>2017-10-07T14:15:51Z</time>
      </trkpt>
      <trkpt lat="43.23369" lon="1.40756">
        <ele>243</ele>
        <time>2017-10-07T14:15:52Z</time>
      </trkpt>
      <trkpt lat="43.2337" lon="1.40752">
        <ele>242</ele>
        <time>2017-10-07T14:15:53Z</time>
      </trkpt>
      <trkpt lat="43.23371" lon="1.40746">
        <ele>241</ele>
        <time>2017-10-07T14:15:54Z</time>
      </trkpt>
      <trkpt lat="43.23373" lon="1.40741">
        <ele>241</ele>
        <time>2017-10-07T14:15:55Z</time>
      </trkpt>
      <trkpt lat="43.23375" lon="1.40736">
        <ele>240</ele>
        <time>2017-10-07T14:15:56Z</time>
      </trkpt>
      <trkpt lat="43.23377" lon="1.40732">
        <ele>240</ele>
        <time>2017-10-07T14:15:57Z</time>
      </trkpt>
      <trkpt lat="43.23378" lon="1.40727">
        <ele>239</ele>
        <time>2017-10-07T14:15:58Z</time>
      </trkpt>
      <trkpt lat="43.23385" lon="1.40708">
        <ele>239</ele>
        <time>2017-10-07T14:16:02Z</time>
      </trkpt>
      <trkpt lat="43.23387" lon="1.40703">
        <ele>238</ele>
        <time>2017-10-07T14:16:03Z</time>
      </trkpt>
      <trkpt lat="43.23388" lon="1.40697">
        <ele>238</ele>
        <time>2017-10-07T14:16:04Z</time>
      </trkpt>
      <trkpt lat="43.23389" lon="1.40691">
        <ele>238</ele>
        <time>2017-10-07T14:16:05Z</time>
      </trkpt>
      <trkpt lat="43.23391" lon="1.40685">
        <ele>237</ele>
        <time>2017-10-07T14:16:06Z</time>
      </trkpt>
      <trkpt lat="43.23393" lon="1.40673">
        <ele>237</ele>
        <time>2017-10-07T14:16:08Z</time>
      </trkpt>
      <trkpt lat="43.23394" lon="1.40665">
        <ele>237</ele>
        <time>2017-10-07T14:16:09Z</time>
      </trkpt>
      <trkpt lat="43.23395" lon="1.4064">
        <ele>237</ele>
        <time>2017-10-07T14:16:13Z</time>
      </trkpt>
      <trkpt lat="43.23396" lon="1.40629">
        <ele>237</ele>
        <time>2017-10-07T14:16:15Z</time>
      </trkpt>
      <trkpt lat="43.23397" lon="1.40618">
        <ele>237</ele>
        <time>2017-10-07T14:16:17Z</time>
      </trkpt>
      <trkpt lat="43.23397" lon="1.40612">
        <ele>236</ele>
        <time>2017-10-07T14:16:18Z</time>
      </trkpt>
      <trkpt lat="43.23397" lon="1.40606">
        <ele>235</ele>
        <time>2017-10-07T14:16:19Z</time>
      </trkpt>
      <trkpt lat="43.23398" lon="1.40601">
        <ele>235</ele>
        <time>2017-10-07T14:16:20Z</time>
      </trkpt>
      <trkpt lat="43.23399" lon="1.4059">
        <ele>235</ele>
        <time>2017-10-07T14:16:22Z</time>
      </trkpt>
      <trkpt lat="43.23408" lon="1.40571">
        <ele>235</ele>
        <time>2017-10-07T14:16:26Z</time>
      </trkpt>
      <trkpt lat="43.2341" lon="1.40567">
        <ele>235</ele>
        <time>2017-10-07T14:16:27Z</time>
      </trkpt>
      <trkpt lat="43.23426" lon="1.40532">
        <ele>235</ele>
        <time>2017-10-07T14:16:35Z</time>
      </trkpt>
      <trkpt lat="43.23431" lon="1.40513">
        <ele>235</ele>
        <time>2017-10-07T14:16:39Z</time>
      </trkpt>
      <trkpt lat="43.23432" lon="1.40507">
        <ele>235</ele>
        <time>2017-10-07T14:16:40Z</time>
      </trkpt>
      <trkpt lat="43.23436" lon="1.4049">
        <ele>235</ele>
        <time>2017-10-07T14:16:43Z</time>
      </trkpt>
      <trkpt lat="43.23439" lon="1.40474">
        <ele>235</ele>
        <time>2017-10-07T14:16:46Z</time>
      </trkpt>
      <trkpt lat="43.23443" lon="1.4046">
        <ele>235</ele>
        <time>2017-10-07T14:16:50Z</time>
      </trkpt>
      <trkpt lat="43.23445" lon="1.40441">
        <ele>235</ele>
        <time>2017-10-07T14:16:54Z</time>
      </trkpt>
      <trkpt lat="43.23445" lon="1.40435">
        <ele>235</ele>
        <time>2017-10-07T14:16:55Z</time>
      </trkpt>
      <trkpt lat="43.23445" lon="1.40429">
        <ele>234</ele>
        <time>2017-10-07T14:16:56Z</time>
      </trkpt>
      <trkpt lat="43.23446" lon="1.40423">
        <ele>234</ele>
        <time>2017-10-07T14:16:57Z</time>
      </trkpt>
      <trkpt lat="43.23447" lon="1.40417">
        <ele>233</ele>
        <time>2017-10-07T14:16:58Z</time>
      </trkpt>
      <trkpt lat="43.23447" lon="1.40412">
        <ele>233</ele>
        <time>2017-10-07T14:16:59Z</time>
      </trkpt>
      <trkpt lat="43.23448" lon="1.40401">
        <ele>233</ele>
        <time>2017-10-07T14:17:03Z</time>
      </trkpt>
      <trkpt lat="43.23449" lon="1.4038">
        <ele>233</ele>
        <time>2017-10-07T14:17:07Z</time>
      </trkpt>
      <trkpt lat="43.23452" lon="1.40354">
        <ele>233</ele>
        <time>2017-10-07T14:17:12Z</time>
      </trkpt>
      <trkpt lat="43.23454" lon="1.40329">
        <ele>233</ele>
        <time>2017-10-07T14:17:17Z</time>
      </trkpt>
      <trkpt lat="43.23456" lon="1.40295">
        <ele>233</ele>
        <time>2017-10-07T14:17:22Z</time>
      </trkpt>
      <trkpt lat="43.23456" lon="1.4028">
        <ele>233</ele>
        <time>2017-10-07T14:17:24Z</time>
      </trkpt>
      <trkpt lat="43.23455" lon="1.40267">
        <ele>233</ele>
        <time>2017-10-07T14:17:26Z</time>
      </trkpt>
      <trkpt lat="43.23456" lon="1.40245">
        <ele>233</ele>
        <time>2017-10-07T14:17:30Z</time>
      </trkpt>
      <trkpt lat="43.23459" lon="1.40225">
        <ele>233</ele>
        <time>2017-10-07T14:17:35Z</time>
      </trkpt>
      <trkpt lat="43.23462" lon="1.4021">
        <ele>233</ele>
        <time>2017-10-07T14:17:38Z</time>
      </trkpt>
      <trkpt lat="43.23465" lon="1.40198">
        <ele>233</ele>
        <time>2017-10-07T14:17:40Z</time>
      </trkpt>
      <trkpt lat="43.23473" lon="1.40182">
        <ele>233</ele>
        <time>2017-10-07T14:17:44Z</time>
      </trkpt>
      <trkpt lat="43.23475" lon="1.40176">
        <ele>233</ele>
        <time>2017-10-07T14:17:46Z</time>
      </trkpt>
      <trkpt lat="43.23474" lon="1.40164">
        <ele>233</ele>
        <time>2017-10-07T14:17:49Z</time>
      </trkpt>
      <trkpt lat="43.23472" lon="1.40144">
        <ele>233</ele>
        <time>2017-10-07T14:17:55Z</time>
      </trkpt>
      <trkpt lat="43.23471" lon="1.4014">
        <ele>233</ele>
        <time>2017-10-07T14:17:57Z</time>
      </trkpt>
      <trkpt lat="43.2347" lon="1.40139">
        <ele>234</ele>
        <time>2017-10-07T14:17:58Z</time>
      </trkpt>
      <trkpt lat="43.2347" lon="1.40136">
        <ele>234</ele>
        <time>2017-10-07T14:17:59Z</time>
      </trkpt>
      <trkpt lat="43.2347" lon="1.40134">
        <ele>234</ele>
        <time>2017-10-07T14:18:00Z</time>
      </trkpt>
      <trkpt lat="43.2347" lon="1.40132">
        <ele>235</ele>
        <time>2017-10-07T14:18:01Z</time>
      </trkpt>
      <trkpt lat="43.2347" lon="1.40126">
        <ele>235</ele>
        <time>2017-10-07T14:18:04Z</time>
      </trkpt>
      <trkpt lat="43.23469" lon="1.40124">
        <ele>236</ele>
        <time>2017-10-07T14:18:05Z</time>
      </trkpt>
      <trkpt lat="43.23469" lon="1.40122">
        <ele>236</ele>
        <time>2017-10-07T14:18:06Z</time>
      </trkpt>
      <trkpt lat="43.23469" lon="1.40121">
        <ele>236</ele>
        <time>2017-10-07T14:18:07Z</time>
      </trkpt>
      <trkpt lat="43.23468" lon="1.40119">
        <ele>237</ele>
        <time>2017-10-07T14:18:08Z</time>
      </trkpt>
      <trkpt lat="43.23467" lon="1.40113">
        <ele>237</ele>
        <time>2017-10-07T14:18:11Z</time>
      </trkpt>
      <trkpt lat="43.23466" lon="1.40111">
        <ele>238</ele>
        <time>2017-10-07T14:18:12Z</time>
      </trkpt>
      <trkpt lat="43.23465" lon="1.40109">
        <ele>238</ele>
        <time>2017-10-07T14:18:13Z</time>
      </trkpt>
      <trkpt lat="43.23464" lon="1.40107">
        <ele>239</ele>
        <time>2017-10-07T14:18:14Z</time>
      </trkpt>
      <trkpt lat="43.23463" lon="1.40104">
        <ele>239</ele>
        <time>2017-10-07T14:18:15Z</time>
      </trkpt>
      <trkpt lat="43.23458" lon="1.4009">
        <ele>239</ele>
        <time>2017-10-07T14:18:19Z</time>
      </trkpt>
      <trkpt lat="43.23451" lon="1.40069">
        <ele>239</ele>
        <time>2017-10-07T14:18:25Z</time>
      </trkpt>
      <trkpt lat="43.23442" lon="1.40045">
        <ele>239</ele>
        <time>2017-10-07T14:18:31Z</time>
      </trkpt>
      <trkpt lat="43.23436" lon="1.40025">
        <ele>239</ele>
        <time>2017-10-07T14:18:37Z</time>
      </trkpt>
      <trkpt lat="43.2343" lon="1.40006">
        <ele>239</ele>
        <time>2017-10-07T14:18:42Z</time>
      </trkpt>
      <trkpt lat="43.23422" lon="1.39989">
        <ele>239</ele>
        <time>2017-10-07T14:18:47Z</time>
      </trkpt>
      <trkpt lat="43.23411" lon="1.39971">
        <ele>240</ele>
        <time>2017-10-07T14:18:52Z</time>
      </trkpt>
      <trkpt lat="43.2341" lon="1.39968">
        <ele>240</ele>
        <time>2017-10-07T14:18:53Z</time>
      </trkpt>
      <trkpt lat="43.23408" lon="1.39965">
        <ele>240</ele>
        <time>2017-10-07T14:18:54Z</time>
      </trkpt>
      <trkpt lat="43.23406" lon="1.39961">
        <ele>241</ele>
        <time>2017-10-07T14:18:55Z</time>
      </trkpt>
      <trkpt lat="43.23404" lon="1.39957">
        <ele>241</ele>
        <time>2017-10-07T14:18:56Z</time>
      </trkpt>
      <trkpt lat="43.234" lon="1.39948">
        <ele>241</ele>
        <time>2017-10-07T14:18:59Z</time>
      </trkpt>
      <trkpt lat="43.23401" lon="1.39931">
        <ele>241</ele>
        <time>2017-10-07T14:19:04Z</time>
      </trkpt>
      <trkpt lat="43.23402" lon="1.39927">
        <ele>241</ele>
        <time>2017-10-07T14:19:05Z</time>
      </trkpt>
      <trkpt lat="43.23406" lon="1.39909">
        <ele>241</ele>
        <time>2017-10-07T14:19:10Z</time>
      </trkpt>
      <trkpt lat="43.23413" lon="1.39892">
        <ele>241</ele>
        <time>2017-10-07T14:19:14Z</time>
      </trkpt>
      <trkpt lat="43.23416" lon="1.39889">
        <ele>241</ele>
        <time>2017-10-07T14:19:15Z</time>
      </trkpt>
      <trkpt lat="43.23426" lon="1.39871">
        <ele>241</ele>
        <time>2017-10-07T14:19:20Z</time>
      </trkpt>
      <trkpt lat="43.23427" lon="1.39869">
        <ele>241</ele>
        <time>2017-10-07T14:19:21Z</time>
      </trkpt>
      <trkpt lat="43.23427" lon="1.39863">
        <ele>241</ele>
        <time>2017-10-07T14:19:25Z</time>
      </trkpt>
      <trkpt lat="43.23426" lon="1.39863">
        <ele>241</ele>
        <time>2017-10-07T14:19:26Z</time>
      </trkpt>
      <trkpt lat="43.23421" lon="1.39867">
        <ele>241</ele>
        <time>2017-10-07T14:19:29Z</time>
      </trkpt>
      <trkpt lat="43.23419" lon="1.3987">
        <ele>241</ele>
        <time>2017-10-07T14:19:30Z</time>
      </trkpt>
      <trkpt lat="43.23417" lon="1.39872">
        <ele>240</ele>
        <time>2017-10-07T14:19:31Z</time>
      </trkpt>
      <trkpt lat="43.23413" lon="1.39875">
        <ele>240</ele>
        <time>2017-10-07T14:19:32Z</time>
      </trkpt>
      <trkpt lat="43.23409" lon="1.39878">
        <ele>240</ele>
        <time>2017-10-07T14:19:33Z</time>
      </trkpt>
      <trkpt lat="43.23406" lon="1.39883">
        <ele>239</ele>
        <time>2017-10-07T14:19:34Z</time>
      </trkpt>
      <trkpt lat="43.23402" lon="1.39886">
        <ele>239</ele>
        <time>2017-10-07T14:19:35Z</time>
      </trkpt>
      <trkpt lat="43.23399" lon="1.39889">
        <ele>238</ele>
        <time>2017-10-07T14:19:36Z</time>
      </trkpt>
      <trkpt lat="43.23396" lon="1.39894">
        <ele>237</ele>
        <time>2017-10-07T14:19:37Z</time>
      </trkpt>
      <trkpt lat="43.23394" lon="1.39899">
        <ele>237</ele>
        <time>2017-10-07T14:19:38Z</time>
      </trkpt>
      <trkpt lat="43.23386" lon="1.39916">
        <ele>237</ele>
        <time>2017-10-07T14:19:41Z</time>
      </trkpt>
      <trkpt lat="43.23384" lon="1.39922">
        <ele>237</ele>
        <time>2017-10-07T14:19:42Z</time>
      </trkpt>
      <trkpt lat="43.23381" lon="1.39929">
        <ele>237</ele>
        <time>2017-10-07T14:19:43Z</time>
      </trkpt>
      <trkpt lat="43.23378" lon="1.39936">
        <ele>236</ele>
        <time>2017-10-07T14:19:44Z</time>
      </trkpt>
      <trkpt lat="43.23376" lon="1.39943">
        <ele>236</ele>
        <time>2017-10-07T14:19:45Z</time>
      </trkpt>
      <trkpt lat="43.23375" lon="1.39949">
        <ele>235</ele>
        <time>2017-10-07T14:19:46Z</time>
      </trkpt>
      <trkpt lat="43.23374" lon="1.39953">
        <ele>235</ele>
        <time>2017-10-07T14:19:47Z</time>
      </trkpt>
      <trkpt lat="43.2337" lon="1.39956">
        <ele>234</ele>
        <time>2017-10-07T14:19:48Z</time>
      </trkpt>
      <trkpt lat="43.23366" lon="1.39957">
        <ele>233</ele>
        <time>2017-10-07T14:19:49Z</time>
      </trkpt>
      <trkpt lat="43.23363" lon="1.39955">
        <ele>233</ele>
        <time>2017-10-07T14:19:50Z</time>
      </trkpt>
      <trkpt lat="43.2336" lon="1.39951">
        <ele>232</ele>
        <time>2017-10-07T14:19:51Z</time>
      </trkpt>
      <trkpt lat="43.23357" lon="1.39948">
        <ele>232</ele>
        <time>2017-10-07T14:19:52Z</time>
      </trkpt>
      <trkpt lat="43.23353" lon="1.39945">
        <ele>232</ele>
        <time>2017-10-07T14:19:53Z</time>
      </trkpt>
      <trkpt lat="43.23349" lon="1.39943">
        <ele>231</ele>
        <time>2017-10-07T14:19:54Z</time>
      </trkpt>
      <trkpt lat="43.23345" lon="1.3994">
        <ele>231</ele>
        <time>2017-10-07T14:19:55Z</time>
      </trkpt>
      <trkpt lat="43.23341" lon="1.39938">
        <ele>231</ele>
        <time>2017-10-07T14:19:56Z</time>
      </trkpt>
      <trkpt lat="43.23336" lon="1.39936">
        <ele>230</ele>
        <time>2017-10-07T14:19:57Z</time>
      </trkpt>
      <trkpt lat="43.23333" lon="1.39929">
        <ele>230</ele>
        <time>2017-10-07T14:20:00Z</time>
      </trkpt>
      <trkpt lat="43.23329" lon="1.39919">
        <ele>230</ele>
        <time>2017-10-07T14:20:04Z</time>
      </trkpt>
      <trkpt lat="43.23327" lon="1.39916">
        <ele>230</ele>
        <time>2017-10-07T14:20:05Z</time>
      </trkpt>
      <trkpt lat="43.2332" lon="1.39905">
        <ele>230</ele>
        <time>2017-10-07T14:20:08Z</time>
      </trkpt>
      <trkpt lat="43.23315" lon="1.39899">
        <ele>230</ele>
        <time>2017-10-07T14:20:10Z</time>
      </trkpt>
      <trkpt lat="43.23306" lon="1.39887">
        <ele>230</ele>
        <time>2017-10-07T14:20:15Z</time>
      </trkpt>
      <trkpt lat="43.23292" lon="1.3987">
        <ele>230</ele>
        <time>2017-10-07T14:20:21Z</time>
      </trkpt>
      <trkpt lat="43.23277" lon="1.39852">
        <ele>230</ele>
        <time>2017-10-07T14:20:26Z</time>
      </trkpt>
      <trkpt lat="43.23252" lon="1.39827">
        <ele>230</ele>
        <time>2017-10-07T14:20:33Z</time>
      </trkpt>
      <trkpt lat="43.23245" lon="1.3982">
        <ele>230</ele>
        <time>2017-10-07T14:20:35Z</time>
      </trkpt>
      <trkpt lat="43.23231" lon="1.39806">
        <ele>230</ele>
        <time>2017-10-07T14:20:39Z</time>
      </trkpt>
      <trkpt lat="43.23206" lon="1.39775">
        <ele>230</ele>
        <time>2017-10-07T14:20:46Z</time>
      </trkpt>
      <trkpt lat="43.23191" lon="1.39752">
        <ele>230</ele>
        <time>2017-10-07T14:20:51Z</time>
      </trkpt>
      <trkpt lat="43.23182" lon="1.39741">
        <ele>230</ele>
        <time>2017-10-07T14:20:54Z</time>
      </trkpt>
      <trkpt lat="43.2318" lon="1.39737">
        <ele>230</ele>
        <time>2017-10-07T14:20:55Z</time>
      </trkpt>
      <trkpt lat="43.2317" lon="1.39728">
        <ele>230</ele>
        <time>2017-10-07T14:20:58Z</time>
      </trkpt>
      <trkpt lat="43.2315" lon="1.39713">
        <ele>230</ele>
        <time>2017-10-07T14:21:03Z</time>
      </trkpt>
      <trkpt lat="43.23137" lon="1.39704">
        <ele>230</ele>
        <time>2017-10-07T14:21:06Z</time>
      </trkpt>
      <trkpt lat="43.23128" lon="1.39698">
        <ele>230</ele>
        <time>2017-10-07T14:21:08Z</time>
      </trkpt>
      <trkpt lat="43.23117" lon="1.3969">
        <ele>230</ele>
        <time>2017-10-07T14:21:11Z</time>
      </trkpt>
      <trkpt lat="43.23112" lon="1.39685">
        <ele>230</ele>
        <time>2017-10-07T14:21:13Z</time>
      </trkpt>
      <trkpt lat="43.231" lon="1.39671">
        <ele>230</ele>
        <time>2017-10-07T14:21:17Z</time>
      </trkpt>
      <trkpt lat="43.23095" lon="1.39668">
        <ele>230</ele>
        <time>2017-10-07T14:21:18Z</time>
      </trkpt>
      <trkpt lat="43.23068" lon="1.3965">
        <ele>230</ele>
        <time>2017-10-07T14:21:24Z</time>
      </trkpt>
      <trkpt lat="43.23064" lon="1.39646">
        <ele>229</ele>
        <time>2017-10-07T14:21:25Z</time>
      </trkpt>
      <trkpt lat="43.2306" lon="1.39642">
        <ele>229</ele>
        <time>2017-10-07T14:21:26Z</time>
      </trkpt>
      <trkpt lat="43.23056" lon="1.39638">
        <ele>228</ele>
        <time>2017-10-07T14:21:27Z</time>
      </trkpt>
      <trkpt lat="43.23051" lon="1.39635">
        <ele>228</ele>
        <time>2017-10-07T14:21:28Z</time>
      </trkpt>
      <trkpt lat="43.23041" lon="1.39628">
        <ele>228</ele>
        <time>2017-10-07T14:21:30Z</time>
      </trkpt>
      <trkpt lat="43.23032" lon="1.39621">
        <ele>228</ele>
        <time>2017-10-07T14:21:32Z</time>
      </trkpt>
      <trkpt lat="43.23023" lon="1.39614">
        <ele>227</ele>
        <time>2017-10-07T14:21:34Z</time>
      </trkpt>
      <trkpt lat="43.23018" lon="1.39611">
        <ele>227</ele>
        <time>2017-10-07T14:21:35Z</time>
      </trkpt>
      <trkpt lat="43.23013" lon="1.39608">
        <ele>226</ele>
        <time>2017-10-07T14:21:36Z</time>
      </trkpt>
      <trkpt lat="43.23009" lon="1.39605">
        <ele>226</ele>
        <time>2017-10-07T14:21:37Z</time>
      </trkpt>
      <trkpt lat="43.23005" lon="1.39601">
        <ele>226</ele>
        <time>2017-10-07T14:21:38Z</time>
      </trkpt>
      <trkpt lat="43.22997" lon="1.39596">
        <ele>226</ele>
        <time>2017-10-07T14:21:40Z</time>
      </trkpt>
      <trkpt lat="43.22973" lon="1.39576">
        <ele>226</ele>
        <time>2017-10-07T14:21:45Z</time>
      </trkpt>
      <trkpt lat="43.2297" lon="1.39571">
        <ele>226</ele>
        <time>2017-10-07T14:21:46Z</time>
      </trkpt>
      <trkpt lat="43.22958" lon="1.39559">
        <ele>226</ele>
        <time>2017-10-07T14:21:49Z</time>
      </trkpt>
      <trkpt lat="43.22944" lon="1.3954">
        <ele>226</ele>
        <time>2017-10-07T14:21:53Z</time>
      </trkpt>
      <trkpt lat="43.22941" lon="1.39535">
        <ele>226</ele>
        <time>2017-10-07T14:21:54Z</time>
      </trkpt>
      <trkpt lat="43.2293" lon="1.39517">
        <ele>226</ele>
        <time>2017-10-07T14:21:58Z</time>
      </trkpt>
      <trkpt lat="43.22926" lon="1.3951">
        <ele>226</ele>
        <time>2017-10-07T14:22:00Z</time>
      </trkpt>
      <trkpt lat="43.2292" lon="1.39502">
        <ele>226</ele>
        <time>2017-10-07T14:22:03Z</time>
      </trkpt>
      <trkpt lat="43.22919" lon="1.395">
        <ele>226</ele>
        <time>2017-10-07T14:22:04Z</time>
      </trkpt>
      <trkpt lat="43.22917" lon="1.39498">
        <ele>227</ele>
        <time>2017-10-07T14:22:05Z</time>
      </trkpt>
      <trkpt lat="43.22914" lon="1.39498">
        <ele>228</ele>
        <time>2017-10-07T14:22:06Z</time>
      </trkpt>
      <trkpt lat="43.22907" lon="1.39497">
        <ele>228</ele>
        <time>2017-10-07T14:22:09Z</time>
      </trkpt>
      <trkpt lat="43.22901" lon="1.39495">
        <ele>228</ele>
        <time>2017-10-07T14:22:11Z</time>
      </trkpt>
      <trkpt lat="43.229" lon="1.39493">
        <ele>228</ele>
        <time>2017-10-07T14:22:12Z</time>
      </trkpt>
      <trkpt lat="43.22898" lon="1.39491">
        <ele>228</ele>
        <time>2017-10-07T14:22:13Z</time>
      </trkpt>
      <trkpt lat="43.22897" lon="1.39489">
        <ele>229</ele>
        <time>2017-10-07T14:22:14Z</time>
      </trkpt>
      <trkpt lat="43.22896" lon="1.39486">
        <ele>229</ele>
        <time>2017-10-07T14:22:15Z</time>
      </trkpt>
      <trkpt lat="43.22895" lon="1.39484">
        <ele>230</ele>
        <time>2017-10-07T14:22:16Z</time>
      </trkpt>
      <trkpt lat="43.22893" lon="1.39482">
        <ele>230</ele>
        <time>2017-10-07T14:22:17Z</time>
      </trkpt>
      <trkpt lat="43.22892" lon="1.39481">
        <ele>230</ele>
        <time>2017-10-07T14:22:18Z</time>
      </trkpt>
      <trkpt lat="43.2289" lon="1.39479">
        <ele>231</ele>
        <time>2017-10-07T14:22:19Z</time>
      </trkpt>
      <trkpt lat="43.22888" lon="1.39478">
        <ele>231</ele>
        <time>2017-10-07T14:22:20Z</time>
      </trkpt>
      <trkpt lat="43.22886" lon="1.39477">
        <ele>232</ele>
        <time>2017-10-07T14:22:21Z</time>
      </trkpt>
      <trkpt lat="43.22884" lon="1.39476">
        <ele>232</ele>
        <time>2017-10-07T14:22:22Z</time>
      </trkpt>
      <trkpt lat="43.22876" lon="1.39473">
        <ele>232</ele>
        <time>2017-10-07T14:22:26Z</time>
      </trkpt>
      <trkpt lat="43.22875" lon="1.39472">
        <ele>233</ele>
        <time>2017-10-07T14:22:27Z</time>
      </trkpt>
      <trkpt lat="43.22872" lon="1.39471">
        <ele>233</ele>
        <time>2017-10-07T14:22:28Z</time>
      </trkpt>
      <trkpt lat="43.22871" lon="1.39471">
        <ele>234</ele>
        <time>2017-10-07T14:22:29Z</time>
      </trkpt>
      <trkpt lat="43.22863" lon="1.39467">
        <ele>234</ele>
        <time>2017-10-07T14:22:33Z</time>
      </trkpt>
      <trkpt lat="43.22857" lon="1.39463">
        <ele>234</ele>
        <time>2017-10-07T14:22:37Z</time>
      </trkpt>
      <trkpt lat="43.22855" lon="1.39461">
        <ele>234</ele>
        <time>2017-10-07T14:22:39Z</time>
      </trkpt>
      <trkpt lat="43.22853" lon="1.39461">
        <ele>235</ele>
        <time>2017-10-07T14:22:40Z</time>
      </trkpt>
      <trkpt lat="43.22851" lon="1.3946">
        <ele>235</ele>
        <time>2017-10-07T14:22:41Z</time>
      </trkpt>
      <trkpt lat="43.22849" lon="1.39459">
        <ele>236</ele>
        <time>2017-10-07T14:22:42Z</time>
      </trkpt>
      <trkpt lat="43.22847" lon="1.39459">
        <ele>236</ele>
        <time>2017-10-07T14:22:43Z</time>
      </trkpt>
      <trkpt lat="43.22846" lon="1.39458">
        <ele>236</ele>
        <time>2017-10-07T14:22:44Z</time>
      </trkpt>
      <trkpt lat="43.22843" lon="1.39456">
        <ele>236</ele>
        <time>2017-10-07T14:22:46Z</time>
      </trkpt>
      <trkpt lat="43.22841" lon="1.39455">
        <ele>236</ele>
        <time>2017-10-07T14:22:48Z</time>
      </trkpt>
      <trkpt lat="43.2284" lon="1.39454">
        <ele>237</ele>
        <time>2017-10-07T14:22:49Z</time>
      </trkpt>
      <trkpt lat="43.22839" lon="1.39453">
        <ele>237</ele>
        <time>2017-10-07T14:22:50Z</time>
      </trkpt>
      <trkpt lat="43.22837" lon="1.39453">
        <ele>238</ele>
        <time>2017-10-07T14:22:51Z</time>
      </trkpt>
      <trkpt lat="43.22835" lon="1.39452">
        <ele>238</ele>
        <time>2017-10-07T14:22:52Z</time>
      </trkpt>
      <trkpt lat="43.22833" lon="1.39449">
        <ele>238</ele>
        <time>2017-10-07T14:22:54Z</time>
      </trkpt>
      <trkpt lat="43.22832" lon="1.39448">
        <ele>238</ele>
        <time>2017-10-07T14:22:55Z</time>
      </trkpt>
      <trkpt lat="43.22827" lon="1.39442">
        <ele>239</ele>
        <time>2017-10-07T14:22:58Z</time>
      </trkpt>
      <trkpt lat="43.22826" lon="1.3944">
        <ele>239</ele>
        <time>2017-10-07T14:22:59Z</time>
      </trkpt>
      <trkpt lat="43.22826" lon="1.39438">
        <ele>239</ele>
        <time>2017-10-07T14:23:00Z</time>
      </trkpt>
      <trkpt lat="43.22827" lon="1.39436">
        <ele>240</ele>
        <time>2017-10-07T14:23:01Z</time>
      </trkpt>
      <trkpt lat="43.22828" lon="1.39435">
        <ele>240</ele>
        <time>2017-10-07T14:23:02Z</time>
      </trkpt>
      <trkpt lat="43.22831" lon="1.39434">
        <ele>240</ele>
        <time>2017-10-07T14:23:05Z</time>
      </trkpt>
      <trkpt lat="43.22833" lon="1.39432">
        <ele>241</ele>
        <time>2017-10-07T14:23:07Z</time>
      </trkpt>
      <trkpt lat="43.22834" lon="1.3943">
        <ele>241</ele>
        <time>2017-10-07T14:23:08Z</time>
      </trkpt>
      <trkpt lat="43.22835" lon="1.39429">
        <ele>241</ele>
        <time>2017-10-07T14:23:09Z</time>
      </trkpt>
      <trkpt lat="43.22836" lon="1.39428">
        <ele>242</ele>
        <time>2017-10-07T14:23:10Z</time>
      </trkpt>
      <trkpt lat="43.22838" lon="1.39427">
        <ele>242</ele>
        <time>2017-10-07T14:23:11Z</time>
      </trkpt>
      <trkpt lat="43.22842" lon="1.39423">
        <ele>243</ele>
        <time>2017-10-07T14:23:15Z</time>
      </trkpt>
      <trkpt lat="43.22843" lon="1.39422">
        <ele>243</ele>
        <time>2017-10-07T14:23:16Z</time>
      </trkpt>
      <trkpt lat="43.22844" lon="1.39421">
        <ele>244</ele>
        <time>2017-10-07T14:23:17Z</time>
      </trkpt>
      <trkpt lat="43.22845" lon="1.3942">
        <ele>244</ele>
        <time>2017-10-07T14:23:18Z</time>
      </trkpt>
      <trkpt lat="43.22846" lon="1.39418">
        <ele>244</ele>
        <time>2017-10-07T14:23:19Z</time>
      </trkpt>
      <trkpt lat="43.2285" lon="1.39413">
        <ele>245</ele>
        <time>2017-10-07T14:23:23Z</time>
      </trkpt>
      <trkpt lat="43.22851" lon="1.39412">
        <ele>245</ele>
        <time>2017-10-07T14:23:24Z</time>
      </trkpt>
      <trkpt lat="43.22852" lon="1.3941">
        <ele>246</ele>
        <time>2017-10-07T14:23:25Z</time>
      </trkpt>
      <trkpt lat="43.22853" lon="1.39409">
        <ele>246</ele>
        <time>2017-10-07T14:23:26Z</time>
      </trkpt>
      <trkpt lat="43.22855" lon="1.39408">
        <ele>246</ele>
        <time>2017-10-07T14:23:27Z</time>
      </trkpt>
      <trkpt lat="43.2286" lon="1.39402">
        <ele>246</ele>
        <time>2017-10-07T14:23:32Z</time>
      </trkpt>
      <trkpt lat="43.22861" lon="1.39401">
        <ele>247</ele>
        <time>2017-10-07T14:23:33Z</time>
      </trkpt>
      <trkpt lat="43.22862" lon="1.394">
        <ele>247</ele>
        <time>2017-10-07T14:23:34Z</time>
      </trkpt>
      <trkpt lat="43.22863" lon="1.39399">
        <ele>248</ele>
        <time>2017-10-07T14:23:35Z</time>
      </trkpt>
      <trkpt lat="43.22864" lon="1.39398">
        <ele>248</ele>
        <time>2017-10-07T14:23:36Z</time>
      </trkpt>
      <trkpt lat="43.22865" lon="1.39396">
        <ele>249</ele>
        <time>2017-10-07T14:23:37Z</time>
      </trkpt>
      <trkpt lat="43.22867" lon="1.39394">
        <ele>249</ele>
        <time>2017-10-07T14:23:39Z</time>
      </trkpt>
      <trkpt lat="43.22872" lon="1.39389">
        <ele>249</ele>
        <time>2017-10-07T14:23:43Z</time>
      </trkpt>
      <trkpt lat="43.22872" lon="1.39388">
        <ele>250</ele>
        <time>2017-10-07T14:23:44Z</time>
      </trkpt>
      <trkpt lat="43.22873" lon="1.39387">
        <ele>250</ele>
        <time>2017-10-07T14:23:45Z</time>
      </trkpt>
      <trkpt lat="43.22874" lon="1.39386">
        <ele>251</ele>
        <time>2017-10-07T14:23:46Z</time>
      </trkpt>
      <trkpt lat="43.22882" lon="1.39379">
        <ele>251</ele>
        <time>2017-10-07T14:23:53Z</time>
      </trkpt>
      <trkpt lat="43.22883" lon="1.39378">
        <ele>252</ele>
        <time>2017-10-07T14:23:54Z</time>
      </trkpt>
      <trkpt lat="43.22885" lon="1.39378">
        <ele>252</ele>
        <time>2017-10-07T14:23:55Z</time>
      </trkpt>
      <trkpt lat="43.22886" lon="1.39377">
        <ele>252</ele>
        <time>2017-10-07T14:23:56Z</time>
      </trkpt>
      <trkpt lat="43.22887" lon="1.39376">
        <ele>253</ele>
        <time>2017-10-07T14:23:57Z</time>
      </trkpt>
      <trkpt lat="43.22891" lon="1.39374">
        <ele>253</ele>
        <time>2017-10-07T14:24:00Z</time>
      </trkpt>
      <trkpt lat="43.22896" lon="1.3937">
        <ele>253</ele>
        <time>2017-10-07T14:24:04Z</time>
      </trkpt>
      <trkpt lat="43.22897" lon="1.39369">
        <ele>254</ele>
        <time>2017-10-07T14:24:05Z</time>
      </trkpt>
      <trkpt lat="43.22899" lon="1.39369">
        <ele>254</ele>
        <time>2017-10-07T14:24:06Z</time>
      </trkpt>
      <trkpt lat="43.229" lon="1.39368">
        <ele>255</ele>
        <time>2017-10-07T14:24:07Z</time>
      </trkpt>
      <trkpt lat="43.22901" lon="1.39367">
        <ele>255</ele>
        <time>2017-10-07T14:24:08Z</time>
      </trkpt>
      <trkpt lat="43.22909" lon="1.3936">
        <ele>255</ele>
        <time>2017-10-07T14:24:13Z</time>
      </trkpt>
      <trkpt lat="43.22911" lon="1.39359">
        <ele>256</ele>
        <time>2017-10-07T14:24:14Z</time>
      </trkpt>
      <trkpt lat="43.22913" lon="1.39358">
        <ele>256</ele>
        <time>2017-10-07T14:24:15Z</time>
      </trkpt>
      <trkpt lat="43.22915" lon="1.39357">
        <ele>257</ele>
        <time>2017-10-07T14:24:16Z</time>
      </trkpt>
      <trkpt lat="43.22917" lon="1.39356">
        <ele>257</ele>
        <time>2017-10-07T14:24:17Z</time>
      </trkpt>
      <trkpt lat="43.22925" lon="1.39352">
        <ele>257</ele>
        <time>2017-10-07T14:24:21Z</time>
      </trkpt>
      <trkpt lat="43.22929" lon="1.3935">
        <ele>257</ele>
        <time>2017-10-07T14:24:23Z</time>
      </trkpt>
      <trkpt lat="43.22931" lon="1.39349">
        <ele>258</ele>
        <time>2017-10-07T14:24:24Z</time>
      </trkpt>
      <trkpt lat="43.22933" lon="1.39348">
        <ele>258</ele>
        <time>2017-10-07T14:24:25Z</time>
      </trkpt>
      <trkpt lat="43.22934" lon="1.39348">
        <ele>259</ele>
        <time>2017-10-07T14:24:26Z</time>
      </trkpt>
      <trkpt lat="43.22936" lon="1.39347">
        <ele>259</ele>
        <time>2017-10-07T14:24:27Z</time>
      </trkpt>
      <trkpt lat="43.2295" lon="1.39342">
        <ele>260</ele>
        <time>2017-10-07T14:24:34Z</time>
      </trkpt>
      <trkpt lat="43.22952" lon="1.39342">
        <ele>260</ele>
        <time>2017-10-07T14:24:35Z</time>
      </trkpt>
      <trkpt lat="43.22954" lon="1.39341">
        <ele>260</ele>
        <time>2017-10-07T14:24:36Z</time>
      </trkpt>
      <trkpt lat="43.22956" lon="1.3934">
        <ele>261</ele>
        <time>2017-10-07T14:24:37Z</time>
      </trkpt>
      <trkpt lat="43.22958" lon="1.39339">
        <ele>261</ele>
        <time>2017-10-07T14:24:38Z</time>
      </trkpt>
      <trkpt lat="43.22968" lon="1.39336">
        <ele>261</ele>
        <time>2017-10-07T14:24:43Z</time>
      </trkpt>
      <trkpt lat="43.22975" lon="1.39333">
        <ele>262</ele>
        <time>2017-10-07T14:24:47Z</time>
      </trkpt>
      <trkpt lat="43.22977" lon="1.39332">
        <ele>262</ele>
        <time>2017-10-07T14:24:48Z</time>
      </trkpt>
      <trkpt lat="43.2298" lon="1.39332">
        <ele>263</ele>
        <time>2017-10-07T14:24:49Z</time>
      </trkpt>
      <trkpt lat="43.22982" lon="1.39331">
        <ele>263</ele>
        <time>2017-10-07T14:24:50Z</time>
      </trkpt>
      <trkpt lat="43.22984" lon="1.3933">
        <ele>263</ele>
        <time>2017-10-07T14:24:51Z</time>
      </trkpt>
      <trkpt lat="43.22996" lon="1.39327">
        <ele>263</ele>
        <time>2017-10-07T14:24:57Z</time>
      </trkpt>
      <trkpt lat="43.22998" lon="1.39326">
        <ele>264</ele>
        <time>2017-10-07T14:24:58Z</time>
      </trkpt>
      <trkpt lat="43.23" lon="1.39326">
        <ele>265</ele>
        <time>2017-10-07T14:24:59Z</time>
      </trkpt>
      <trkpt lat="43.23002" lon="1.39325">
        <ele>265</ele>
        <time>2017-10-07T14:25:00Z</time>
      </trkpt>
      <trkpt lat="43.23004" lon="1.39324">
        <ele>266</ele>
        <time>2017-10-07T14:25:01Z</time>
      </trkpt>
      <trkpt lat="43.2301" lon="1.39323">
        <ele>266</ele>
        <time>2017-10-07T14:25:04Z</time>
      </trkpt>
      <trkpt lat="43.23018" lon="1.39321">
        <ele>266</ele>
        <time>2017-10-07T14:25:08Z</time>
      </trkpt>
      <trkpt lat="43.2302" lon="1.39321">
        <ele>266</ele>
        <time>2017-10-07T14:25:09Z</time>
      </trkpt>
      <trkpt lat="43.23022" lon="1.3932">
        <ele>267</ele>
        <time>2017-10-07T14:25:10Z</time>
      </trkpt>
      <trkpt lat="43.23024" lon="1.39319">
        <ele>267</ele>
        <time>2017-10-07T14:25:11Z</time>
      </trkpt>
      <trkpt lat="43.23026" lon="1.39318">
        <ele>268</ele>
        <time>2017-10-07T14:25:12Z</time>
      </trkpt>
      <trkpt lat="43.23036" lon="1.39315">
        <ele>268</ele>
        <time>2017-10-07T14:25:17Z</time>
      </trkpt>
      <trkpt lat="43.23038" lon="1.39315">
        <ele>268</ele>
        <time>2017-10-07T14:25:18Z</time>
      </trkpt>
      <trkpt lat="43.2304" lon="1.39314">
        <ele>269</ele>
        <time>2017-10-07T14:25:20Z</time>
      </trkpt>
      <trkpt lat="43.23042" lon="1.39314">
        <ele>269</ele>
        <time>2017-10-07T14:25:21Z</time>
      </trkpt>
      <trkpt lat="43.23044" lon="1.39313">
        <ele>269</ele>
        <time>2017-10-07T14:25:22Z</time>
      </trkpt>
      <trkpt lat="43.23045" lon="1.39312">
        <ele>270</ele>
        <time>2017-10-07T14:25:23Z</time>
      </trkpt>
      <trkpt lat="43.2305" lon="1.39309">
        <ele>270</ele>
        <time>2017-10-07T14:25:26Z</time>
      </trkpt>
      <trkpt lat="43.23055" lon="1.39306">
        <ele>270</ele>
        <time>2017-10-07T14:25:29Z</time>
      </trkpt>
      <trkpt lat="43.23057" lon="1.39305">
        <ele>271</ele>
        <time>2017-10-07T14:25:30Z</time>
      </trkpt>
      <trkpt lat="43.23059" lon="1.39304">
        <ele>271</ele>
        <time>2017-10-07T14:25:31Z</time>
      </trkpt>
      <trkpt lat="43.23062" lon="1.39304">
        <ele>271</ele>
        <time>2017-10-07T14:25:32Z</time>
      </trkpt>
      <trkpt lat="43.23064" lon="1.39303">
        <ele>272</ele>
        <time>2017-10-07T14:25:33Z</time>
      </trkpt>
      <trkpt lat="43.23081" lon="1.393">
        <ele>272</ele>
        <time>2017-10-07T14:25:40Z</time>
      </trkpt>
      <trkpt lat="43.23083" lon="1.39299">
        <ele>272</ele>
        <time>2017-10-07T14:25:41Z</time>
      </trkpt>
      <trkpt lat="43.23086" lon="1.39298">
        <ele>273</ele>
        <time>2017-10-07T14:25:42Z</time>
      </trkpt>
      <trkpt lat="43.23089" lon="1.39297">
        <ele>273</ele>
        <time>2017-10-07T14:25:43Z</time>
      </trkpt>
      <trkpt lat="43.23091" lon="1.39297">
        <ele>274</ele>
        <time>2017-10-07T14:25:44Z</time>
      </trkpt>
      <trkpt lat="43.23094" lon="1.39297">
        <ele>274</ele>
        <time>2017-10-07T14:25:45Z</time>
      </trkpt>
      <trkpt lat="43.23099" lon="1.39296">
        <ele>274</ele>
        <time>2017-10-07T14:25:47Z</time>
      </trkpt>
      <trkpt lat="43.23118" lon="1.39292">
        <ele>274</ele>
        <time>2017-10-07T14:25:54Z</time>
      </trkpt>
      <trkpt lat="43.2312" lon="1.39291">
        <ele>275</ele>
        <time>2017-10-07T14:25:55Z</time>
      </trkpt>
      <trkpt lat="43.23123" lon="1.39291">
        <ele>275</ele>
        <time>2017-10-07T14:25:56Z</time>
      </trkpt>
      <trkpt lat="43.23126" lon="1.39291">
        <ele>276</ele>
        <time>2017-10-07T14:25:57Z</time>
      </trkpt>
      <trkpt lat="43.23129" lon="1.3929">
        <ele>276</ele>
        <time>2017-10-07T14:25:58Z</time>
      </trkpt>
      <trkpt lat="43.23136" lon="1.39288">
        <ele>276</ele>
        <time>2017-10-07T14:26:01Z</time>
      </trkpt>
      <trkpt lat="43.23156" lon="1.39285">
        <ele>276</ele>
        <time>2017-10-07T14:26:09Z</time>
      </trkpt>
      <trkpt lat="43.23163" lon="1.39284">
        <ele>276</ele>
        <time>2017-10-07T14:26:12Z</time>
      </trkpt>
      <trkpt lat="43.23166" lon="1.39283">
        <ele>277</ele>
        <time>2017-10-07T14:26:13Z</time>
      </trkpt>
      <trkpt lat="43.23169" lon="1.39282">
        <ele>278</ele>
        <time>2017-10-07T14:26:14Z</time>
      </trkpt>
      <trkpt lat="43.23171" lon="1.39283">
        <ele>278</ele>
        <time>2017-10-07T14:26:15Z</time>
      </trkpt>
      <trkpt lat="43.23174" lon="1.39282">
        <ele>278</ele>
        <time>2017-10-07T14:26:16Z</time>
      </trkpt>
      <trkpt lat="43.23195" lon="1.39279">
        <ele>278</ele>
        <time>2017-10-07T14:26:22Z</time>
      </trkpt>
      <trkpt lat="43.23225" lon="1.39275">
        <ele>278</ele>
        <time>2017-10-07T14:26:30Z</time>
      </trkpt>
      <trkpt lat="43.23236" lon="1.39273">
        <ele>279</ele>
        <time>2017-10-07T14:26:33Z</time>
      </trkpt>
      <trkpt lat="43.2324" lon="1.39273">
        <ele>279</ele>
        <time>2017-10-07T14:26:34Z</time>
      </trkpt>
      <trkpt lat="43.23243" lon="1.39273">
        <ele>279</ele>
        <time>2017-10-07T14:26:35Z</time>
      </trkpt>
      <trkpt lat="43.23247" lon="1.39273">
        <ele>280</ele>
        <time>2017-10-07T14:26:36Z</time>
      </trkpt>
      <trkpt lat="43.23251" lon="1.39273">
        <ele>280</ele>
        <time>2017-10-07T14:26:37Z</time>
      </trkpt>
      <trkpt lat="43.23254" lon="1.39273">
        <ele>280</ele>
        <time>2017-10-07T14:26:38Z</time>
      </trkpt>
      <trkpt lat="43.2327" lon="1.39274">
        <ele>280</ele>
        <time>2017-10-07T14:26:44Z</time>
      </trkpt>
      <trkpt lat="43.23271" lon="1.39274">
        <ele>281</ele>
        <time>2017-10-07T14:26:45Z</time>
      </trkpt>
      <trkpt lat="43.23272" lon="1.39273">
        <ele>281</ele>
        <time>2017-10-07T14:26:46Z</time>
      </trkpt>
      <trkpt lat="43.23272" lon="1.39272">
        <ele>281</ele>
        <time>2017-10-07T14:26:47Z</time>
      </trkpt>
      <trkpt lat="43.23273" lon="1.39271">
        <ele>282</ele>
        <time>2017-10-07T14:26:48Z</time>
      </trkpt>
      <trkpt lat="43.23273" lon="1.3927">
        <ele>282</ele>
        <time>2017-10-07T14:26:49Z</time>
      </trkpt>
      <trkpt lat="43.23273" lon="1.39264">
        <ele>282</ele>
        <time>2017-10-07T14:26:53Z</time>
      </trkpt>
      <trkpt lat="43.23274" lon="1.39258">
        <ele>282</ele>
        <time>2017-10-07T14:26:55Z</time>
      </trkpt>
      <trkpt lat="43.23276" lon="1.39249">
        <ele>282</ele>
        <time>2017-10-07T14:26:59Z</time>
      </trkpt>
      <trkpt lat="43.23277" lon="1.39244">
        <ele>282</ele>
        <time>2017-10-07T14:27:01Z</time>
      </trkpt>
      <trkpt lat="43.23278" lon="1.39241">
        <ele>282</ele>
        <time>2017-10-07T14:27:04Z</time>
      </trkpt>
      <trkpt lat="43.23278" lon="1.39238">
        <ele>282</ele>
        <time>2017-10-07T14:27:15Z</time>
      </trkpt>
      <trkpt lat="43.23278" lon="1.39236">
        <ele>282</ele>
        <time>2017-10-07T14:27:16Z</time>
      </trkpt>
      <trkpt lat="43.23278" lon="1.39236">
        <ele>282</ele>
        <time>2017-10-07T14:27:17Z</time>
      </trkpt>
      <trkpt lat="43.23278" lon="1.39236">
        <ele>282</ele>
        <time>2017-10-07T14:27:53Z</time>
      </trkpt>
      <trkpt lat="43.23278" lon="1.39233">
        <ele>282</ele>
        <time>2017-10-07T14:27:54Z</time>
      </trkpt>
      <trkpt lat="43.23279" lon="1.39227">
        <ele>282</ele>
        <time>2017-10-07T14:27:56Z</time>
      </trkpt>
      <trkpt lat="43.2328" lon="1.3922">
        <ele>282</ele>
        <time>2017-10-07T14:27:58Z</time>
      </trkpt>
      <trkpt lat="43.23281" lon="1.39212">
        <ele>282</ele>
        <time>2017-10-07T14:28:00Z</time>
      </trkpt>
      <trkpt lat="43.23284" lon="1.39192">
        <ele>282</ele>
        <time>2017-10-07T14:28:05Z</time>
      </trkpt>
      <trkpt lat="43.23289" lon="1.39166">
        <ele>282</ele>
        <time>2017-10-07T14:28:11Z</time>
      </trkpt>
      <trkpt lat="43.23294" lon="1.39154">
        <ele>282</ele>
        <time>2017-10-07T14:28:14Z</time>
      </trkpt>
      <trkpt lat="43.23296" lon="1.3915">
        <ele>281</ele>
        <time>2017-10-07T14:28:15Z</time>
      </trkpt>
      <trkpt lat="43.23298" lon="1.39147">
        <ele>281</ele>
        <time>2017-10-07T14:28:16Z</time>
      </trkpt>
      <trkpt lat="43.233" lon="1.39144">
        <ele>280</ele>
        <time>2017-10-07T14:28:17Z</time>
      </trkpt>
      <trkpt lat="43.23305" lon="1.39135">
        <ele>280</ele>
        <time>2017-10-07T14:28:20Z</time>
      </trkpt>
      <trkpt lat="43.23307" lon="1.39128">
        <ele>280</ele>
        <time>2017-10-07T14:28:22Z</time>
      </trkpt>
      <trkpt lat="43.23307" lon="1.39124">
        <ele>281</ele>
        <time>2017-10-07T14:28:23Z</time>
      </trkpt>
      <trkpt lat="43.23307" lon="1.3912">
        <ele>281</ele>
        <time>2017-10-07T14:28:24Z</time>
      </trkpt>
      <trkpt lat="43.23308" lon="1.39115">
        <ele>282</ele>
        <time>2017-10-07T14:28:25Z</time>
      </trkpt>
      <trkpt lat="43.23308" lon="1.39111">
        <ele>282</ele>
        <time>2017-10-07T14:28:26Z</time>
      </trkpt>
      <trkpt lat="43.23309" lon="1.39107">
        <ele>283</ele>
        <time>2017-10-07T14:28:27Z</time>
      </trkpt>
      <trkpt lat="43.23311" lon="1.39083">
        <ele>283</ele>
        <time>2017-10-07T14:28:32Z</time>
      </trkpt>
      <trkpt lat="43.23313" lon="1.39051">
        <ele>283</ele>
        <time>2017-10-07T14:28:38Z</time>
      </trkpt>
      <trkpt lat="43.23315" lon="1.39029">
        <ele>283</ele>
        <time>2017-10-07T14:28:43Z</time>
      </trkpt>
      <trkpt lat="43.23323" lon="1.38993">
        <ele>283</ele>
        <time>2017-10-07T14:28:51Z</time>
      </trkpt>
      <trkpt lat="43.23326" lon="1.38979">
        <ele>283</ele>
        <time>2017-10-07T14:28:56Z</time>
      </trkpt>
      <trkpt lat="43.23326" lon="1.38979">
        <ele>283</ele>
        <time>2017-10-07T14:28:57Z</time>
      </trkpt>
      <trkpt lat="43.23326" lon="1.38978">
        <ele>283</ele>
        <time>2017-10-07T14:28:58Z</time>
      </trkpt>
      <trkpt lat="43.23326" lon="1.38979">
        <ele>283</ele>
        <time>2017-10-07T14:29:01Z</time>
      </trkpt>
      <trkpt lat="43.23326" lon="1.3898">
        <ele>283</ele>
        <time>2017-10-07T14:29:03Z</time>
      </trkpt>
      <trkpt lat="43.23327" lon="1.3898">
        <ele>283</ele>
        <time>2017-10-07T14:29:04Z</time>
      </trkpt>
      <trkpt lat="43.23328" lon="1.38978">
        <ele>283</ele>
        <time>2017-10-07T14:29:20Z</time>
      </trkpt>
      <trkpt lat="43.23328" lon="1.38978">
        <ele>283</ele>
        <time>2017-10-07T14:29:21Z</time>
      </trkpt>
      <trkpt lat="43.23328" lon="1.38979">
        <ele>280</ele>
        <time>2017-10-07T14:30:41Z</time>
      </trkpt>
      <trkpt lat="43.23328" lon="1.38979">
        <ele>280</ele>
        <time>2017-10-07T14:30:42Z</time>
      </trkpt>
      <trkpt lat="43.23325" lon="1.38982">
        <ele>280</ele>
        <time>2017-10-07T14:30:48Z</time>
      </trkpt>
      <trkpt lat="43.23325" lon="1.3898">
        <ele>280</ele>
        <time>2017-10-07T14:36:05Z</time>
      </trkpt>
      <trkpt lat="43.23326" lon="1.38978">
        <ele>280</ele>
        <time>2017-10-07T14:36:06Z</time>
      </trkpt>
      <trkpt lat="43.23327" lon="1.38971">
        <ele>280</ele>
        <time>2017-10-07T14:36:08Z</time>
      </trkpt>
      <trkpt lat="43.23335" lon="1.38943">
        <ele>280</ele>
        <time>2017-10-07T14:36:14Z</time>
      </trkpt>
      <trkpt lat="43.23337" lon="1.38938">
        <ele>280</ele>
        <time>2017-10-07T14:36:15Z</time>
      </trkpt>
      <trkpt lat="43.23338" lon="1.3893">
        <ele>280</ele>
        <time>2017-10-07T14:36:16Z</time>
      </trkpt>
      <trkpt lat="43.2334" lon="1.38923">
        <ele>279</ele>
        <time>2017-10-07T14:36:17Z</time>
      </trkpt>
      <trkpt lat="43.23341" lon="1.38915">
        <ele>278</ele>
        <time>2017-10-07T14:36:18Z</time>
      </trkpt>
      <trkpt lat="43.23342" lon="1.38908">
        <ele>278</ele>
        <time>2017-10-07T14:36:19Z</time>
      </trkpt>
      <trkpt lat="43.23343" lon="1.38901">
        <ele>277</ele>
        <time>2017-10-07T14:36:20Z</time>
      </trkpt>
      <trkpt lat="43.23343" lon="1.38894">
        <ele>276</ele>
        <time>2017-10-07T14:36:21Z</time>
      </trkpt>
      <trkpt lat="43.23344" lon="1.38889">
        <ele>276</ele>
        <time>2017-10-07T14:36:22Z</time>
      </trkpt>
      <trkpt lat="43.23345" lon="1.38883">
        <ele>275</ele>
        <time>2017-10-07T14:36:23Z</time>
      </trkpt>
      <trkpt lat="43.23347" lon="1.38877">
        <ele>274</ele>
        <time>2017-10-07T14:36:24Z</time>
      </trkpt>
      <trkpt lat="43.23348" lon="1.38871">
        <ele>273</ele>
        <time>2017-10-07T14:36:25Z</time>
      </trkpt>
      <trkpt lat="43.23349" lon="1.38865">
        <ele>272</ele>
        <time>2017-10-07T14:36:26Z</time>
      </trkpt>
      <trkpt lat="43.23351" lon="1.38859">
        <ele>271</ele>
        <time>2017-10-07T14:36:27Z</time>
      </trkpt>
      <trkpt lat="43.23352" lon="1.38851">
        <ele>270</ele>
        <time>2017-10-07T14:36:28Z</time>
      </trkpt>
      <trkpt lat="43.23353" lon="1.38842">
        <ele>269</ele>
        <time>2017-10-07T14:36:29Z</time>
      </trkpt>
      <trkpt lat="43.23353" lon="1.38833">
        <ele>268</ele>
        <time>2017-10-07T14:36:30Z</time>
      </trkpt>
      <trkpt lat="43.23355" lon="1.38824">
        <ele>267</ele>
        <time>2017-10-07T14:36:31Z</time>
      </trkpt>
      <trkpt lat="43.23357" lon="1.38816">
        <ele>266</ele>
        <time>2017-10-07T14:36:32Z</time>
      </trkpt>
      <trkpt lat="43.23364" lon="1.38789">
        <ele>265</ele>
        <time>2017-10-07T14:36:36Z</time>
      </trkpt>
      <trkpt lat="43.23366" lon="1.38783">
        <ele>265</ele>
        <time>2017-10-07T14:36:37Z</time>
      </trkpt>
      <trkpt lat="43.23367" lon="1.38778">
        <ele>264</ele>
        <time>2017-10-07T14:36:38Z</time>
      </trkpt>
      <trkpt lat="43.23368" lon="1.38773">
        <ele>264</ele>
        <time>2017-10-07T14:36:39Z</time>
      </trkpt>
      <trkpt lat="43.23369" lon="1.38768">
        <ele>263</ele>
        <time>2017-10-07T14:36:40Z</time>
      </trkpt>
      <trkpt lat="43.23371" lon="1.38762">
        <ele>263</ele>
        <time>2017-10-07T14:36:41Z</time>
      </trkpt>
      <trkpt lat="43.23377" lon="1.38745">
        <ele>263</ele>
        <time>2017-10-07T14:36:45Z</time>
      </trkpt>
      <trkpt lat="43.23381" lon="1.3874">
        <ele>263</ele>
        <time>2017-10-07T14:36:47Z</time>
      </trkpt>
      <trkpt lat="43.23392" lon="1.38743">
        <ele>263</ele>
        <time>2017-10-07T14:36:50Z</time>
      </trkpt>
      <trkpt lat="43.234" lon="1.38743">
        <ele>263</ele>
        <time>2017-10-07T14:36:52Z</time>
      </trkpt>
      <trkpt lat="43.23405" lon="1.38744">
        <ele>262</ele>
        <time>2017-10-07T14:36:53Z</time>
      </trkpt>
      <trkpt lat="43.2341" lon="1.38745">
        <ele>261</ele>
        <time>2017-10-07T14:36:54Z</time>
      </trkpt>
      <trkpt lat="43.23414" lon="1.38746">
        <ele>260</ele>
        <time>2017-10-07T14:36:55Z</time>
      </trkpt>
      <trkpt lat="43.2342" lon="1.38747">
        <ele>259</ele>
        <time>2017-10-07T14:36:56Z</time>
      </trkpt>
      <trkpt lat="43.23424" lon="1.38748">
        <ele>258</ele>
        <time>2017-10-07T14:36:57Z</time>
      </trkpt>
      <trkpt lat="43.23429" lon="1.3875">
        <ele>257</ele>
        <time>2017-10-07T14:36:58Z</time>
      </trkpt>
      <trkpt lat="43.23434" lon="1.38751">
        <ele>255</ele>
        <time>2017-10-07T14:36:59Z</time>
      </trkpt>
      <trkpt lat="43.23438" lon="1.38752">
        <ele>254</ele>
        <time>2017-10-07T14:37:00Z</time>
      </trkpt>
      <trkpt lat="43.23442" lon="1.38753">
        <ele>253</ele>
        <time>2017-10-07T14:37:01Z</time>
      </trkpt>
      <trkpt lat="43.23445" lon="1.38755">
        <ele>251</ele>
        <time>2017-10-07T14:37:02Z</time>
      </trkpt>
      <trkpt lat="43.2345" lon="1.38757">
        <ele>250</ele>
        <time>2017-10-07T14:37:03Z</time>
      </trkpt>
      <trkpt lat="43.23454" lon="1.38757">
        <ele>249</ele>
        <time>2017-10-07T14:37:04Z</time>
      </trkpt>
      <trkpt lat="43.23459" lon="1.38757">
        <ele>247</ele>
        <time>2017-10-07T14:37:05Z</time>
      </trkpt>
      <trkpt lat="43.23464" lon="1.38758">
        <ele>246</ele>
        <time>2017-10-07T14:37:06Z</time>
      </trkpt>
      <trkpt lat="43.2347" lon="1.3876">
        <ele>244</ele>
        <time>2017-10-07T14:37:07Z</time>
      </trkpt>
      <trkpt lat="43.23474" lon="1.38761">
        <ele>243</ele>
        <time>2017-10-07T14:37:08Z</time>
      </trkpt>
      <trkpt lat="43.23478" lon="1.38762">
        <ele>241</ele>
        <time>2017-10-07T14:37:09Z</time>
      </trkpt>
      <trkpt lat="43.23483" lon="1.38762">
        <ele>240</ele>
        <time>2017-10-07T14:37:10Z</time>
      </trkpt>
      <trkpt lat="43.23489" lon="1.38761">
        <ele>239</ele>
        <time>2017-10-07T14:37:11Z</time>
      </trkpt>
      <trkpt lat="43.23493" lon="1.38758">
        <ele>238</ele>
        <time>2017-10-07T14:37:12Z</time>
      </trkpt>
      <trkpt lat="43.23498" lon="1.38752">
        <ele>237</ele>
        <time>2017-10-07T14:37:13Z</time>
      </trkpt>
      <trkpt lat="43.23503" lon="1.38747">
        <ele>236</ele>
        <time>2017-10-07T14:37:14Z</time>
      </trkpt>
      <trkpt lat="43.23508" lon="1.38743">
        <ele>236</ele>
        <time>2017-10-07T14:37:15Z</time>
      </trkpt>
      <trkpt lat="43.23514" lon="1.3874">
        <ele>235</ele>
        <time>2017-10-07T14:37:16Z</time>
      </trkpt>
      <trkpt lat="43.2352" lon="1.38736">
        <ele>234</ele>
        <time>2017-10-07T14:37:17Z</time>
      </trkpt>
      <trkpt lat="43.23527" lon="1.38733">
        <ele>234</ele>
        <time>2017-10-07T14:37:18Z</time>
      </trkpt>
      <trkpt lat="43.23534" lon="1.38732">
        <ele>233</ele>
        <time>2017-10-07T14:37:19Z</time>
      </trkpt>
      <trkpt lat="43.2354" lon="1.38729">
        <ele>232</ele>
        <time>2017-10-07T14:37:20Z</time>
      </trkpt>
      <trkpt lat="43.23546" lon="1.38726">
        <ele>232</ele>
        <time>2017-10-07T14:37:21Z</time>
      </trkpt>
      <trkpt lat="43.2355" lon="1.38723">
        <ele>232</ele>
        <time>2017-10-07T14:37:22Z</time>
      </trkpt>
      <trkpt lat="43.23565" lon="1.38712">
        <ele>232</ele>
        <time>2017-10-07T14:37:26Z</time>
      </trkpt>
      <trkpt lat="43.23577" lon="1.38706">
        <ele>232</ele>
        <time>2017-10-07T14:37:30Z</time>
      </trkpt>
      <trkpt lat="43.2358" lon="1.38702">
        <ele>232</ele>
        <time>2017-10-07T14:37:32Z</time>
      </trkpt>
      <trkpt lat="43.23583" lon="1.38698">
        <ele>232</ele>
        <time>2017-10-07T14:37:34Z</time>
      </trkpt>
      <trkpt lat="43.23583" lon="1.38697">
        <ele>232</ele>
        <time>2017-10-07T14:37:35Z</time>
      </trkpt>
      <trkpt lat="43.23585" lon="1.38695">
        <ele>233</ele>
        <time>2017-10-07T14:37:36Z</time>
      </trkpt>
      <trkpt lat="43.23583" lon="1.38693">
        <ele>233</ele>
        <time>2017-10-07T14:37:37Z</time>
      </trkpt>
      <trkpt lat="43.23582" lon="1.38691">
        <ele>233</ele>
        <time>2017-10-07T14:37:38Z</time>
      </trkpt>
      <trkpt lat="43.23581" lon="1.38688">
        <ele>234</ele>
        <time>2017-10-07T14:37:39Z</time>
      </trkpt>
      <trkpt lat="43.23579" lon="1.38683">
        <ele>234</ele>
        <time>2017-10-07T14:37:41Z</time>
      </trkpt>
      <trkpt lat="43.23576" lon="1.38677">
        <ele>234</ele>
        <time>2017-10-07T14:37:43Z</time>
      </trkpt>
      <trkpt lat="43.23565" lon="1.38657">
        <ele>234</ele>
        <time>2017-10-07T14:37:49Z</time>
      </trkpt>
      <trkpt lat="43.23563" lon="1.3865">
        <ele>234</ele>
        <time>2017-10-07T14:37:54Z</time>
      </trkpt>
      <trkpt lat="43.23563" lon="1.38651">
        <ele>234</ele>
        <time>2017-10-07T14:37:55Z</time>
      </trkpt>
      <trkpt lat="43.23563" lon="1.38649">
        <ele>232</ele>
        <time>2017-10-07T14:38:03Z</time>
      </trkpt>
      <trkpt lat="43.23562" lon="1.38642">
        <ele>232</ele>
        <time>2017-10-07T14:38:05Z</time>
      </trkpt>
      <trkpt lat="43.23556" lon="1.38628">
        <ele>232</ele>
        <time>2017-10-07T14:38:08Z</time>
      </trkpt>
      <trkpt lat="43.23552" lon="1.38616">
        <ele>232</ele>
        <time>2017-10-07T14:38:10Z</time>
      </trkpt>
      <trkpt lat="43.2354" lon="1.3858">
        <ele>231</ele>
        <time>2017-10-07T14:38:15Z</time>
      </trkpt>
      <trkpt lat="43.23537" lon="1.38572">
        <ele>231</ele>
        <time>2017-10-07T14:38:16Z</time>
      </trkpt>
      <trkpt lat="43.23534" lon="1.38564">
        <ele>230</ele>
        <time>2017-10-07T14:38:17Z</time>
      </trkpt>
      <trkpt lat="43.23531" lon="1.38555">
        <ele>230</ele>
        <time>2017-10-07T14:38:18Z</time>
      </trkpt>
      <trkpt lat="43.23528" lon="1.38546">
        <ele>230</ele>
        <time>2017-10-07T14:38:19Z</time>
      </trkpt>
      <trkpt lat="43.23521" lon="1.38528">
        <ele>230</ele>
        <time>2017-10-07T14:38:21Z</time>
      </trkpt>
      <trkpt lat="43.23517" lon="1.38518">
        <ele>229</ele>
        <time>2017-10-07T14:38:22Z</time>
      </trkpt>
      <trkpt lat="43.23514" lon="1.38508">
        <ele>229</ele>
        <time>2017-10-07T14:38:23Z</time>
      </trkpt>
      <trkpt lat="43.23511" lon="1.38498">
        <ele>228</ele>
        <time>2017-10-07T14:38:24Z</time>
      </trkpt>
      <trkpt lat="43.23507" lon="1.38488">
        <ele>228</ele>
        <time>2017-10-07T14:38:25Z</time>
      </trkpt>
      <trkpt lat="43.23503" lon="1.38478">
        <ele>227</ele>
        <time>2017-10-07T14:38:26Z</time>
      </trkpt>
      <trkpt lat="43.23492" lon="1.38447">
        <ele>227</ele>
        <time>2017-10-07T14:38:29Z</time>
      </trkpt>
      <trkpt lat="43.23487" lon="1.38437">
        <ele>227</ele>
        <time>2017-10-07T14:38:30Z</time>
      </trkpt>
      <trkpt lat="43.23482" lon="1.38428">
        <ele>226</ele>
        <time>2017-10-07T14:38:31Z</time>
      </trkpt>
      <trkpt lat="43.23477" lon="1.38421">
        <ele>226</ele>
        <time>2017-10-07T14:38:32Z</time>
      </trkpt>
      <trkpt lat="43.2347" lon="1.38414">
        <ele>225</ele>
        <time>2017-10-07T14:38:33Z</time>
      </trkpt>
      <trkpt lat="43.23463" lon="1.38409">
        <ele>224</ele>
        <time>2017-10-07T14:38:34Z</time>
      </trkpt>
      <trkpt lat="43.23454" lon="1.38405">
        <ele>224</ele>
        <time>2017-10-07T14:38:35Z</time>
      </trkpt>
      <trkpt lat="43.23445" lon="1.38401">
        <ele>223</ele>
        <time>2017-10-07T14:38:36Z</time>
      </trkpt>
      <trkpt lat="43.23438" lon="1.38398">
        <ele>222</ele>
        <time>2017-10-07T14:38:37Z</time>
      </trkpt>
      <trkpt lat="43.23432" lon="1.38394">
        <ele>222</ele>
        <time>2017-10-07T14:38:38Z</time>
      </trkpt>
      <trkpt lat="43.23427" lon="1.38389">
        <ele>221</ele>
        <time>2017-10-07T14:38:39Z</time>
      </trkpt>
      <trkpt lat="43.23425" lon="1.38382">
        <ele>220</ele>
        <time>2017-10-07T14:38:40Z</time>
      </trkpt>
      <trkpt lat="43.23425" lon="1.38374">
        <ele>219</ele>
        <time>2017-10-07T14:38:41Z</time>
      </trkpt>
      <trkpt lat="43.23425" lon="1.38367">
        <ele>219</ele>
        <time>2017-10-07T14:38:42Z</time>
      </trkpt>
      <trkpt lat="43.23428" lon="1.3836">
        <ele>218</ele>
        <time>2017-10-07T14:38:43Z</time>
      </trkpt>
      <trkpt lat="43.23431" lon="1.38354">
        <ele>218</ele>
        <time>2017-10-07T14:38:44Z</time>
      </trkpt>
      <trkpt lat="43.23435" lon="1.38347">
        <ele>217</ele>
        <time>2017-10-07T14:38:45Z</time>
      </trkpt>
      <trkpt lat="43.23445" lon="1.38328">
        <ele>217</ele>
        <time>2017-10-07T14:38:48Z</time>
      </trkpt>
      <trkpt lat="43.23457" lon="1.38311">
        <ele>217</ele>
        <time>2017-10-07T14:38:51Z</time>
      </trkpt>
      <trkpt lat="43.2346" lon="1.38305">
        <ele>217</ele>
        <time>2017-10-07T14:38:52Z</time>
      </trkpt>
      <trkpt lat="43.23481" lon="1.38272">
        <ele>217</ele>
        <time>2017-10-07T14:38:59Z</time>
      </trkpt>
      <trkpt lat="43.2349" lon="1.38257">
        <ele>217</ele>
        <time>2017-10-07T14:39:04Z</time>
      </trkpt>
      <trkpt lat="43.23491" lon="1.38255">
        <ele>217</ele>
        <time>2017-10-07T14:39:05Z</time>
      </trkpt>
      <trkpt lat="43.23487" lon="1.38256">
        <ele>217</ele>
        <time>2017-10-07T14:39:08Z</time>
      </trkpt>
      <trkpt lat="43.23483" lon="1.38267">
        <ele>217</ele>
        <time>2017-10-07T14:39:12Z</time>
      </trkpt>
      <trkpt lat="43.23482" lon="1.38269">
        <ele>217</ele>
        <time>2017-10-07T14:39:13Z</time>
      </trkpt>
      <trkpt lat="43.23483" lon="1.38269">
        <ele>217</ele>
        <time>2017-10-07T14:39:14Z</time>
      </trkpt>
      <trkpt lat="43.23484" lon="1.38263">
        <ele>217</ele>
        <time>2017-10-07T14:43:13Z</time>
      </trkpt>
      <trkpt lat="43.23485" lon="1.38262">
        <ele>217</ele>
        <time>2017-10-07T14:43:14Z</time>
      </trkpt>
      <trkpt lat="43.23491" lon="1.38253">
        <ele>217</ele>
        <time>2017-10-07T14:43:17Z</time>
      </trkpt>
      <trkpt lat="43.23493" lon="1.38249">
        <ele>217</ele>
        <time>2017-10-07T14:43:18Z</time>
      </trkpt>
      <trkpt lat="43.23509" lon="1.38225">
        <ele>217</ele>
        <time>2017-10-07T14:43:24Z</time>
      </trkpt>
      <trkpt lat="43.23528" lon="1.38195">
        <ele>217</ele>
        <time>2017-10-07T14:43:31Z</time>
      </trkpt>
      <trkpt lat="43.23547" lon="1.38167">
        <ele>217</ele>
        <time>2017-10-07T14:43:38Z</time>
      </trkpt>
      <trkpt lat="43.23551" lon="1.38163">
        <ele>217</ele>
        <time>2017-10-07T14:43:39Z</time>
      </trkpt>
      <trkpt lat="43.2356" lon="1.3815">
        <ele>217</ele>
        <time>2017-10-07T14:43:42Z</time>
      </trkpt>
      <trkpt lat="43.23566" lon="1.38141">
        <ele>217</ele>
        <time>2017-10-07T14:43:44Z</time>
      </trkpt>
      <trkpt lat="43.23589" lon="1.38107">
        <ele>217</ele>
        <time>2017-10-07T14:43:51Z</time>
      </trkpt>
      <trkpt lat="43.23593" lon="1.38102">
        <ele>217</ele>
        <time>2017-10-07T14:43:52Z</time>
      </trkpt>
      <trkpt lat="43.23615" lon="1.38071">
        <ele>217</ele>
        <time>2017-10-07T14:43:58Z</time>
      </trkpt>
      <trkpt lat="43.23623" lon="1.38061">
        <ele>217</ele>
        <time>2017-10-07T14:44:00Z</time>
      </trkpt>
      <trkpt lat="43.23627" lon="1.38056">
        <ele>216</ele>
        <time>2017-10-07T14:44:01Z</time>
      </trkpt>
      <trkpt lat="43.23631" lon="1.38051">
        <ele>216</ele>
        <time>2017-10-07T14:44:02Z</time>
      </trkpt>
      <trkpt lat="43.23635" lon="1.38046">
        <ele>215</ele>
        <time>2017-10-07T14:44:03Z</time>
      </trkpt>
      <trkpt lat="43.23639" lon="1.38041">
        <ele>215</ele>
        <time>2017-10-07T14:44:04Z</time>
      </trkpt>
      <trkpt lat="43.23658" lon="1.38016">
        <ele>215</ele>
        <time>2017-10-07T14:44:09Z</time>
      </trkpt>
      <trkpt lat="43.2368" lon="1.37985">
        <ele>215</ele>
        <time>2017-10-07T14:44:15Z</time>
      </trkpt>
      <trkpt lat="43.23711" lon="1.37955">
        <ele>215</ele>
        <time>2017-10-07T14:44:22Z</time>
      </trkpt>
      <trkpt lat="43.23746" lon="1.37936">
        <ele>215</ele>
        <time>2017-10-07T14:44:29Z</time>
      </trkpt>
      <trkpt lat="43.23788" lon="1.37917">
        <ele>215</ele>
        <time>2017-10-07T14:44:37Z</time>
      </trkpt>
      <trkpt lat="43.23798" lon="1.37913">
        <ele>215</ele>
        <time>2017-10-07T14:44:39Z</time>
      </trkpt>
      <trkpt lat="43.23819" lon="1.37904">
        <ele>215</ele>
        <time>2017-10-07T14:44:43Z</time>
      </trkpt>
      <trkpt lat="43.23854" lon="1.37892">
        <ele>215</ele>
        <time>2017-10-07T14:44:50Z</time>
      </trkpt>
      <trkpt lat="43.23867" lon="1.37888">
        <ele>215</ele>
        <time>2017-10-07T14:44:53Z</time>
      </trkpt>
      <trkpt lat="43.23884" lon="1.37885">
        <ele>215</ele>
        <time>2017-10-07T14:44:57Z</time>
      </trkpt>
      <trkpt lat="43.23898" lon="1.37884">
        <ele>215</ele>
        <time>2017-10-07T14:45:00Z</time>
      </trkpt>
      <trkpt lat="43.23912" lon="1.37884">
        <ele>215</ele>
        <time>2017-10-07T14:45:03Z</time>
      </trkpt>
      <trkpt lat="43.23916" lon="1.37884">
        <ele>216</ele>
        <time>2017-10-07T14:45:04Z</time>
      </trkpt>
      <trkpt lat="43.23921" lon="1.37885">
        <ele>216</ele>
        <time>2017-10-07T14:45:05Z</time>
      </trkpt>
      <trkpt lat="43.23926" lon="1.37884">
        <ele>217</ele>
        <time>2017-10-07T14:45:06Z</time>
      </trkpt>
      <trkpt lat="43.2393" lon="1.37884">
        <ele>217</ele>
        <time>2017-10-07T14:45:07Z</time>
      </trkpt>
      <trkpt lat="43.23949" lon="1.37882">
        <ele>217</ele>
        <time>2017-10-07T14:45:11Z</time>
      </trkpt>
      <trkpt lat="43.23953" lon="1.37882">
        <ele>217</ele>
        <time>2017-10-07T14:45:12Z</time>
      </trkpt>
      <trkpt lat="43.23968" lon="1.3788">
        <ele>217</ele>
        <time>2017-10-07T14:45:16Z</time>
      </trkpt>
      <trkpt lat="43.23977" lon="1.37879">
        <ele>217</ele>
        <time>2017-10-07T14:45:21Z</time>
      </trkpt>
      <trkpt lat="43.23977" lon="1.3788">
        <ele>217</ele>
        <time>2017-10-07T14:45:23Z</time>
      </trkpt>
      <trkpt lat="43.23977" lon="1.37879">
        <ele>217</ele>
        <time>2017-10-07T14:45:46Z</time>
      </trkpt>
      <trkpt lat="43.23975" lon="1.37879">
        <ele>217</ele>
        <time>2017-10-07T14:45:47Z</time>
      </trkpt>
      <trkpt lat="43.23966" lon="1.37881">
        <ele>217</ele>
        <time>2017-10-07T14:45:53Z</time>
      </trkpt>
      <trkpt lat="43.23957" lon="1.37882">
        <ele>217</ele>
        <time>2017-10-07T14:45:58Z</time>
      </trkpt>
      <trkpt lat="43.23955" lon="1.37883">
        <ele>217</ele>
        <time>2017-10-07T14:45:59Z</time>
      </trkpt>
      <trkpt lat="43.23932" lon="1.37883">
        <ele>217</ele>
        <time>2017-10-07T14:46:06Z</time>
      </trkpt>
      <trkpt lat="43.2392" lon="1.37883">
        <ele>217</ele>
        <time>2017-10-07T14:46:09Z</time>
      </trkpt>
      <trkpt lat="43.23916" lon="1.37883">
        <ele>217</ele>
        <time>2017-10-07T14:46:11Z</time>
      </trkpt>
      <trkpt lat="43.23912" lon="1.37885">
        <ele>217</ele>
        <time>2017-10-07T14:46:14Z</time>
      </trkpt>
      <trkpt lat="43.23911" lon="1.37886">
        <ele>217</ele>
        <time>2017-10-07T14:46:15Z</time>
      </trkpt>
      <trkpt lat="43.23911" lon="1.37888">
        <ele>217</ele>
        <time>2017-10-07T14:46:16Z</time>
      </trkpt>
      <trkpt lat="43.23914" lon="1.37897">
        <ele>217</ele>
        <time>2017-10-07T14:46:20Z</time>
      </trkpt>
      <trkpt lat="43.23914" lon="1.37906">
        <ele>217</ele>
        <time>2017-10-07T14:46:23Z</time>
      </trkpt>
      <trkpt lat="43.23915" lon="1.37912">
        <ele>217</ele>
        <time>2017-10-07T14:46:25Z</time>
      </trkpt>
      <trkpt lat="43.23915" lon="1.37938">
        <ele>217</ele>
        <time>2017-10-07T14:46:32Z</time>
      </trkpt>
      <trkpt lat="43.23922" lon="1.37955">
        <ele>217</ele>
        <time>2017-10-07T14:46:37Z</time>
      </trkpt>
      <trkpt lat="43.23928" lon="1.37963">
        <ele>217</ele>
        <time>2017-10-07T14:46:41Z</time>
      </trkpt>
      <trkpt lat="43.23931" lon="1.37967">
        <ele>218</ele>
        <time>2017-10-07T14:46:43Z</time>
      </trkpt>
      <trkpt lat="43.23933" lon="1.37968">
        <ele>219</ele>
        <time>2017-10-07T14:46:44Z</time>
      </trkpt>
      <trkpt lat="43.23935" lon="1.3797">
        <ele>219</ele>
        <time>2017-10-07T14:46:45Z</time>
      </trkpt>
      <trkpt lat="43.23936" lon="1.37971">
        <ele>219</ele>
        <time>2017-10-07T14:46:46Z</time>
      </trkpt>
      <trkpt lat="43.2394" lon="1.37974">
        <ele>219</ele>
        <time>2017-10-07T14:46:48Z</time>
      </trkpt>
      <trkpt lat="43.23942" lon="1.37977">
        <ele>220</ele>
        <time>2017-10-07T14:46:50Z</time>
      </trkpt>
      <trkpt lat="43.23944" lon="1.37979">
        <ele>220</ele>
        <time>2017-10-07T14:46:51Z</time>
      </trkpt>
      <trkpt lat="43.23945" lon="1.3798">
        <ele>221</ele>
        <time>2017-10-07T14:46:52Z</time>
      </trkpt>
      <trkpt lat="43.23946" lon="1.37982">
        <ele>221</ele>
        <time>2017-10-07T14:46:53Z</time>
      </trkpt>
      <trkpt lat="43.23947" lon="1.37984">
        <ele>222</ele>
        <time>2017-10-07T14:46:54Z</time>
      </trkpt>
      <trkpt lat="43.23947" lon="1.3799">
        <ele>222</ele>
        <time>2017-10-07T14:46:57Z</time>
      </trkpt>
      <trkpt lat="43.23947" lon="1.38006">
        <ele>222</ele>
        <time>2017-10-07T14:47:04Z</time>
      </trkpt>
      <trkpt lat="43.23946" lon="1.38016">
        <ele>222</ele>
        <time>2017-10-07T14:47:08Z</time>
      </trkpt>
      <trkpt lat="43.23946" lon="1.38019">
        <ele>223</ele>
        <time>2017-10-07T14:47:09Z</time>
      </trkpt>
      <trkpt lat="43.23946" lon="1.38022">
        <ele>223</ele>
        <time>2017-10-07T14:47:10Z</time>
      </trkpt>
      <trkpt lat="43.23946" lon="1.38024">
        <ele>224</ele>
        <time>2017-10-07T14:47:11Z</time>
      </trkpt>
      <trkpt lat="43.23945" lon="1.38029">
        <ele>224</ele>
        <time>2017-10-07T14:47:13Z</time>
      </trkpt>
      <trkpt lat="43.23945" lon="1.38048">
        <ele>224</ele>
        <time>2017-10-07T14:47:20Z</time>
      </trkpt>
      <trkpt lat="43.23944" lon="1.38063">
        <ele>224</ele>
        <time>2017-10-07T14:47:25Z</time>
      </trkpt>
      <trkpt lat="43.23945" lon="1.3808">
        <ele>224</ele>
        <time>2017-10-07T14:47:31Z</time>
      </trkpt>
      <trkpt lat="43.23945" lon="1.38083">
        <ele>225</ele>
        <time>2017-10-07T14:47:32Z</time>
      </trkpt>
      <trkpt lat="43.23945" lon="1.38086">
        <ele>225</ele>
        <time>2017-10-07T14:47:33Z</time>
      </trkpt>
      <trkpt lat="43.23945" lon="1.38089">
        <ele>226</ele>
        <time>2017-10-07T14:47:34Z</time>
      </trkpt>
      <trkpt lat="43.23946" lon="1.38106">
        <ele>226</ele>
        <time>2017-10-07T14:47:40Z</time>
      </trkpt>
      <trkpt lat="43.23946" lon="1.38119">
        <ele>226</ele>
        <time>2017-10-07T14:47:44Z</time>
      </trkpt>
      <trkpt lat="43.23946" lon="1.38122">
        <ele>227</ele>
        <time>2017-10-07T14:47:45Z</time>
      </trkpt>
      <trkpt lat="43.23945" lon="1.38125">
        <ele>227</ele>
        <time>2017-10-07T14:47:46Z</time>
      </trkpt>
      <trkpt lat="43.23945" lon="1.38128">
        <ele>227</ele>
        <time>2017-10-07T14:47:47Z</time>
      </trkpt>
      <trkpt lat="43.23945" lon="1.38131">
        <ele>228</ele>
        <time>2017-10-07T14:47:48Z</time>
      </trkpt>
      <trkpt lat="43.23944" lon="1.38148">
        <ele>228</ele>
        <time>2017-10-07T14:47:54Z</time>
      </trkpt>
      <trkpt lat="43.23943" lon="1.38167">
        <ele>228</ele>
        <time>2017-10-07T14:48:00Z</time>
      </trkpt>
      <trkpt lat="43.23943" lon="1.3817">
        <ele>229</ele>
        <time>2017-10-07T14:48:01Z</time>
      </trkpt>
      <trkpt lat="43.23943" lon="1.38172">
        <ele>229</ele>
        <time>2017-10-07T14:48:02Z</time>
      </trkpt>
      <trkpt lat="43.23943" lon="1.38176">
        <ele>229</ele>
        <time>2017-10-07T14:48:03Z</time>
      </trkpt>
      <trkpt lat="43.23943" lon="1.38179">
        <ele>230</ele>
        <time>2017-10-07T14:48:04Z</time>
      </trkpt>
      <trkpt lat="43.23942" lon="1.38195">
        <ele>230</ele>
        <time>2017-10-07T14:48:09Z</time>
      </trkpt>
      <trkpt lat="43.2394" lon="1.3822">
        <ele>230</ele>
        <time>2017-10-07T14:48:17Z</time>
      </trkpt>
      <trkpt lat="43.23939" lon="1.38226">
        <ele>230</ele>
        <time>2017-10-07T14:48:19Z</time>
      </trkpt>
      <trkpt lat="43.23939" lon="1.38229">
        <ele>231</ele>
        <time>2017-10-07T14:48:20Z</time>
      </trkpt>
      <trkpt lat="43.23938" lon="1.38233">
        <ele>231</ele>
        <time>2017-10-07T14:48:21Z</time>
      </trkpt>
      <trkpt lat="43.23938" lon="1.38236">
        <ele>231</ele>
        <time>2017-10-07T14:48:22Z</time>
      </trkpt>
      <trkpt lat="43.23938" lon="1.38239">
        <ele>232</ele>
        <time>2017-10-07T14:48:23Z</time>
      </trkpt>
      <trkpt lat="43.23935" lon="1.38257">
        <ele>232</ele>
        <time>2017-10-07T14:48:29Z</time>
      </trkpt>
      <trkpt lat="43.23931" lon="1.38275">
        <ele>232</ele>
        <time>2017-10-07T14:48:35Z</time>
      </trkpt>
      <trkpt lat="43.2393" lon="1.38278">
        <ele>233</ele>
        <time>2017-10-07T14:48:36Z</time>
      </trkpt>
      <trkpt lat="43.2393" lon="1.38281">
        <ele>233</ele>
        <time>2017-10-07T14:48:37Z</time>
      </trkpt>
      <trkpt lat="43.23929" lon="1.38283">
        <ele>234</ele>
        <time>2017-10-07T14:48:38Z</time>
      </trkpt>
      <trkpt lat="43.23928" lon="1.38286">
        <ele>234</ele>
        <time>2017-10-07T14:48:39Z</time>
      </trkpt>
      <trkpt lat="43.23925" lon="1.38298">
        <ele>234</ele>
        <time>2017-10-07T14:48:43Z</time>
      </trkpt>
      <trkpt lat="43.23922" lon="1.38313">
        <ele>234</ele>
        <time>2017-10-07T14:48:48Z</time>
      </trkpt>
      <trkpt lat="43.23921" lon="1.38318">
        <ele>234</ele>
        <time>2017-10-07T14:48:50Z</time>
      </trkpt>
      <trkpt lat="43.2392" lon="1.38321">
        <ele>235</ele>
        <time>2017-10-07T14:48:51Z</time>
      </trkpt>
      <trkpt lat="43.23919" lon="1.38324">
        <ele>235</ele>
        <time>2017-10-07T14:48:52Z</time>
      </trkpt>
      <trkpt lat="43.23919" lon="1.38327">
        <ele>236</ele>
        <time>2017-10-07T14:48:53Z</time>
      </trkpt>
      <trkpt lat="43.23918" lon="1.3833">
        <ele>236</ele>
        <time>2017-10-07T14:48:54Z</time>
      </trkpt>
      <trkpt lat="43.23918" lon="1.38334">
        <ele>236</ele>
        <time>2017-10-07T14:48:55Z</time>
      </trkpt>
      <trkpt lat="43.23916" lon="1.38357">
        <ele>236</ele>
        <time>2017-10-07T14:49:02Z</time>
      </trkpt>
      <trkpt lat="43.23914" lon="1.3837">
        <ele>236</ele>
        <time>2017-10-07T14:49:06Z</time>
      </trkpt>
      <trkpt lat="43.23914" lon="1.38372">
        <ele>237</ele>
        <time>2017-10-07T14:49:07Z</time>
      </trkpt>
      <trkpt lat="43.23913" lon="1.38375">
        <ele>237</ele>
        <time>2017-10-07T14:49:08Z</time>
      </trkpt>
      <trkpt lat="43.23913" lon="1.38377">
        <ele>238</ele>
        <time>2017-10-07T14:49:09Z</time>
      </trkpt>
      <trkpt lat="43.23913" lon="1.38379">
        <ele>238</ele>
        <time>2017-10-07T14:49:10Z</time>
      </trkpt>
      <trkpt lat="43.23911" lon="1.38389">
        <ele>238</ele>
        <time>2017-10-07T14:49:15Z</time>
      </trkpt>
      <trkpt lat="43.23912" lon="1.38391">
        <ele>238</ele>
        <time>2017-10-07T14:49:16Z</time>
      </trkpt>
      <trkpt lat="43.23913" lon="1.38395">
        <ele>238</ele>
        <time>2017-10-07T14:49:18Z</time>
      </trkpt>
      <trkpt lat="43.23914" lon="1.38397">
        <ele>239</ele>
        <time>2017-10-07T14:49:19Z</time>
      </trkpt>
      <trkpt lat="43.23914" lon="1.384">
        <ele>239</ele>
        <time>2017-10-07T14:49:20Z</time>
      </trkpt>
      <trkpt lat="43.23914" lon="1.38402">
        <ele>240</ele>
        <time>2017-10-07T14:49:21Z</time>
      </trkpt>
      <trkpt lat="43.23915" lon="1.38404">
        <ele>240</ele>
        <time>2017-10-07T14:49:22Z</time>
      </trkpt>
      <trkpt lat="43.23915" lon="1.38409">
        <ele>240</ele>
        <time>2017-10-07T14:49:25Z</time>
      </trkpt>
      <trkpt lat="43.23915" lon="1.3841">
        <ele>241</ele>
        <time>2017-10-07T14:49:26Z</time>
      </trkpt>
      <trkpt lat="43.23915" lon="1.38412">
        <ele>241</ele>
        <time>2017-10-07T14:49:27Z</time>
      </trkpt>
      <trkpt lat="43.23915" lon="1.38414">
        <ele>241</ele>
        <time>2017-10-07T14:49:28Z</time>
      </trkpt>
      <trkpt lat="43.23915" lon="1.38416">
        <ele>242</ele>
        <time>2017-10-07T14:49:29Z</time>
      </trkpt>
      <trkpt lat="43.23915" lon="1.38418">
        <ele>242</ele>
        <time>2017-10-07T14:49:30Z</time>
      </trkpt>
      <trkpt lat="43.23914" lon="1.38424">
        <ele>242</ele>
        <time>2017-10-07T14:49:33Z</time>
      </trkpt>
      <trkpt lat="43.23915" lon="1.38431">
        <ele>243</ele>
        <time>2017-10-07T14:49:37Z</time>
      </trkpt>
      <trkpt lat="43.23915" lon="1.38432">
        <ele>244</ele>
        <time>2017-10-07T14:49:38Z</time>
      </trkpt>
      <trkpt lat="43.23915" lon="1.38434">
        <ele>244</ele>
        <time>2017-10-07T14:49:39Z</time>
      </trkpt>
      <trkpt lat="43.23914" lon="1.38436">
        <ele>245</ele>
        <time>2017-10-07T14:49:40Z</time>
      </trkpt>
      <trkpt lat="43.23914" lon="1.38449">
        <ele>245</ele>
        <time>2017-10-07T14:49:47Z</time>
      </trkpt>
      <trkpt lat="43.23914" lon="1.38451">
        <ele>245</ele>
        <time>2017-10-07T14:49:48Z</time>
      </trkpt>
      <trkpt lat="43.23914" lon="1.38453">
        <ele>246</ele>
        <time>2017-10-07T14:49:49Z</time>
      </trkpt>
      <trkpt lat="43.23913" lon="1.38454">
        <ele>246</ele>
        <time>2017-10-07T14:49:50Z</time>
      </trkpt>
      <trkpt lat="43.23913" lon="1.38455">
        <ele>247</ele>
        <time>2017-10-07T14:49:51Z</time>
      </trkpt>
      <trkpt lat="43.23912" lon="1.3846">
        <ele>247</ele>
        <time>2017-10-07T14:49:54Z</time>
      </trkpt>
      <trkpt lat="43.23913" lon="1.38474">
        <ele>248</ele>
        <time>2017-10-07T14:50:01Z</time>
      </trkpt>
      <trkpt lat="43.23913" lon="1.38476">
        <ele>248</ele>
        <time>2017-10-07T14:50:02Z</time>
      </trkpt>
      <trkpt lat="43.23913" lon="1.38478">
        <ele>248</ele>
        <time>2017-10-07T14:50:03Z</time>
      </trkpt>
      <trkpt lat="43.23913" lon="1.3848">
        <ele>249</ele>
        <time>2017-10-07T14:50:04Z</time>
      </trkpt>
      <trkpt lat="43.23914" lon="1.38491">
        <ele>249</ele>
        <time>2017-10-07T14:50:09Z</time>
      </trkpt>
      <trkpt lat="43.23914" lon="1.38496">
        <ele>249</ele>
        <time>2017-10-07T14:50:11Z</time>
      </trkpt>
      <trkpt lat="43.23914" lon="1.38498">
        <ele>250</ele>
        <time>2017-10-07T14:50:12Z</time>
      </trkpt>
      <trkpt lat="43.23913" lon="1.385">
        <ele>250</ele>
        <time>2017-10-07T14:50:13Z</time>
      </trkpt>
      <trkpt lat="43.23914" lon="1.38501">
        <ele>250</ele>
        <time>2017-10-07T14:50:14Z</time>
      </trkpt>
      <trkpt lat="43.23914" lon="1.38503">
        <ele>251</ele>
        <time>2017-10-07T14:50:15Z</time>
      </trkpt>
      <trkpt lat="43.23913" lon="1.38509">
        <ele>251</ele>
        <time>2017-10-07T14:50:18Z</time>
      </trkpt>
      <trkpt lat="43.23912" lon="1.38519">
        <ele>251</ele>
        <time>2017-10-07T14:50:23Z</time>
      </trkpt>
      <trkpt lat="43.23912" lon="1.38521">
        <ele>252</ele>
        <time>2017-10-07T14:50:24Z</time>
      </trkpt>
      <trkpt lat="43.23912" lon="1.38523">
        <ele>252</ele>
        <time>2017-10-07T14:50:25Z</time>
      </trkpt>
      <trkpt lat="43.23912" lon="1.38524">
        <ele>253</ele>
        <time>2017-10-07T14:50:26Z</time>
      </trkpt>
      <trkpt lat="43.23911" lon="1.38537">
        <ele>253</ele>
        <time>2017-10-07T14:50:33Z</time>
      </trkpt>
      <trkpt lat="43.23911" lon="1.38539">
        <ele>254</ele>
        <time>2017-10-07T14:50:34Z</time>
      </trkpt>
      <trkpt lat="43.2391" lon="1.3854">
        <ele>254</ele>
        <time>2017-10-07T14:50:35Z</time>
      </trkpt>
      <trkpt lat="43.23909" lon="1.38542">
        <ele>255</ele>
        <time>2017-10-07T14:50:36Z</time>
      </trkpt>
      <trkpt lat="43.23909" lon="1.38543">
        <ele>255</ele>
        <time>2017-10-07T14:50:37Z</time>
      </trkpt>
      <trkpt lat="43.23908" lon="1.38546">
        <ele>255</ele>
        <time>2017-10-07T14:50:39Z</time>
      </trkpt>
      <trkpt lat="43.23907" lon="1.38553">
        <ele>255</ele>
        <time>2017-10-07T14:50:43Z</time>
      </trkpt>
      <trkpt lat="43.23906" lon="1.38554">
        <ele>256</ele>
        <time>2017-10-07T14:50:44Z</time>
      </trkpt>
      <trkpt lat="43.23906" lon="1.38556">
        <ele>256</ele>
        <time>2017-10-07T14:50:45Z</time>
      </trkpt>
      <trkpt lat="43.23906" lon="1.38557">
        <ele>257</ele>
        <time>2017-10-07T14:50:46Z</time>
      </trkpt>
      <trkpt lat="43.23906" lon="1.38559">
        <ele>257</ele>
        <time>2017-10-07T14:50:47Z</time>
      </trkpt>
      <trkpt lat="43.23905" lon="1.38563">
        <ele>257</ele>
        <time>2017-10-07T14:50:49Z</time>
      </trkpt>
      <trkpt lat="43.23905" lon="1.38566">
        <ele>257</ele>
        <time>2017-10-07T14:50:51Z</time>
      </trkpt>
      <trkpt lat="43.23904" lon="1.38573">
        <ele>258</ele>
        <time>2017-10-07T14:50:55Z</time>
      </trkpt>
      <trkpt lat="43.23904" lon="1.38574">
        <ele>258</ele>
        <time>2017-10-07T14:50:56Z</time>
      </trkpt>
      <trkpt lat="43.23904" lon="1.38574">
        <ele>258</ele>
        <time>2017-10-07T14:50:57Z</time>
      </trkpt>
      <trkpt lat="43.23903" lon="1.38575">
        <ele>259</ele>
        <time>2017-10-07T14:51:10Z</time>
      </trkpt>
      <trkpt lat="43.23903" lon="1.38576">
        <ele>259</ele>
        <time>2017-10-07T14:51:11Z</time>
      </trkpt>
      <trkpt lat="43.23903" lon="1.38577">
        <ele>259</ele>
        <time>2017-10-07T14:51:13Z</time>
      </trkpt>
      <trkpt lat="43.23903" lon="1.38577">
        <ele>259</ele>
        <time>2017-10-07T14:51:15Z</time>
      </trkpt>
      <trkpt lat="43.23903" lon="1.38577">
        <ele>259</ele>
        <time>2017-10-07T14:51:16Z</time>
      </trkpt>
      <trkpt lat="43.23903" lon="1.38574">
        <ele>259</ele>
        <time>2017-10-07T14:51:18Z</time>
      </trkpt>
      <trkpt lat="43.23903" lon="1.38565">
        <ele>259</ele>
        <time>2017-10-07T14:51:21Z</time>
      </trkpt>
      <trkpt lat="43.23903" lon="1.38562">
        <ele>259</ele>
        <time>2017-10-07T14:51:22Z</time>
      </trkpt>
      <trkpt lat="43.23907" lon="1.38543">
        <ele>259</ele>
        <time>2017-10-07T14:51:27Z</time>
      </trkpt>
      <trkpt lat="43.23907" lon="1.3854">
        <ele>259</ele>
        <time>2017-10-07T14:51:28Z</time>
      </trkpt>
      <trkpt lat="43.23908" lon="1.38536">
        <ele>258</ele>
        <time>2017-10-07T14:51:29Z</time>
      </trkpt>
      <trkpt lat="43.23909" lon="1.38533">
        <ele>258</ele>
        <time>2017-10-07T14:51:30Z</time>
      </trkpt>
      <trkpt lat="43.23909" lon="1.38529">
        <ele>258</ele>
        <time>2017-10-07T14:51:31Z</time>
      </trkpt>
      <trkpt lat="43.2391" lon="1.38524">
        <ele>257</ele>
        <time>2017-10-07T14:51:32Z</time>
      </trkpt>
      <trkpt lat="43.23911" lon="1.38519">
        <ele>257</ele>
        <time>2017-10-07T14:51:33Z</time>
      </trkpt>
      <trkpt lat="43.23912" lon="1.38513">
        <ele>256</ele>
        <time>2017-10-07T14:51:34Z</time>
      </trkpt>
      <trkpt lat="43.23912" lon="1.38507">
        <ele>256</ele>
        <time>2017-10-07T14:51:35Z</time>
      </trkpt>
      <trkpt lat="43.23912" lon="1.38501">
        <ele>255</ele>
        <time>2017-10-07T14:51:36Z</time>
      </trkpt>
      <trkpt lat="43.23913" lon="1.38497">
        <ele>255</ele>
        <time>2017-10-07T14:51:37Z</time>
      </trkpt>
      <trkpt lat="43.23913" lon="1.38493">
        <ele>255</ele>
        <time>2017-10-07T14:51:38Z</time>
      </trkpt>
      <trkpt lat="43.23913" lon="1.3849">
        <ele>254</ele>
        <time>2017-10-07T14:51:39Z</time>
      </trkpt>
      <trkpt lat="43.23913" lon="1.38488">
        <ele>253</ele>
        <time>2017-10-07T14:51:40Z</time>
      </trkpt>
      <trkpt lat="43.23913" lon="1.38486">
        <ele>253</ele>
        <time>2017-10-07T14:51:41Z</time>
      </trkpt>
      <trkpt lat="43.23913" lon="1.38478">
        <ele>252</ele>
        <time>2017-10-07T14:51:43Z</time>
      </trkpt>
      <trkpt lat="43.23913" lon="1.38473">
        <ele>252</ele>
        <time>2017-10-07T14:51:44Z</time>
      </trkpt>
      <trkpt lat="43.23913" lon="1.38467">
        <ele>251</ele>
        <time>2017-10-07T14:51:45Z</time>
      </trkpt>
      <trkpt lat="43.23913" lon="1.38461">
        <ele>251</ele>
        <time>2017-10-07T14:51:46Z</time>
      </trkpt>
      <trkpt lat="43.23913" lon="1.38454">
        <ele>250</ele>
        <time>2017-10-07T14:51:47Z</time>
      </trkpt>
      <trkpt lat="43.23913" lon="1.38448">
        <ele>250</ele>
        <time>2017-10-07T14:51:48Z</time>
      </trkpt>
      <trkpt lat="43.23913" lon="1.38441">
        <ele>250</ele>
        <time>2017-10-07T14:51:49Z</time>
      </trkpt>
      <trkpt lat="43.23913" lon="1.38435">
        <ele>249</ele>
        <time>2017-10-07T14:51:50Z</time>
      </trkpt>
      <trkpt lat="43.23913" lon="1.38427">
        <ele>249</ele>
        <time>2017-10-07T14:51:51Z</time>
      </trkpt>
      <trkpt lat="43.23913" lon="1.3842">
        <ele>248</ele>
        <time>2017-10-07T14:51:52Z</time>
      </trkpt>
      <trkpt lat="43.23913" lon="1.38414">
        <ele>248</ele>
        <time>2017-10-07T14:51:53Z</time>
      </trkpt>
      <trkpt lat="43.23913" lon="1.38408">
        <ele>247</ele>
        <time>2017-10-07T14:51:54Z</time>
      </trkpt>
      <trkpt lat="43.23913" lon="1.38403">
        <ele>247</ele>
        <time>2017-10-07T14:51:55Z</time>
      </trkpt>
      <trkpt lat="43.23912" lon="1.38397">
        <ele>246</ele>
        <time>2017-10-07T14:51:56Z</time>
      </trkpt>
      <trkpt lat="43.23911" lon="1.38393">
        <ele>245</ele>
        <time>2017-10-07T14:51:57Z</time>
      </trkpt>
      <trkpt lat="43.2391" lon="1.38389">
        <ele>245</ele>
        <time>2017-10-07T14:51:58Z</time>
      </trkpt>
      <trkpt lat="43.23909" lon="1.38388">
        <ele>244</ele>
        <time>2017-10-07T14:51:59Z</time>
      </trkpt>
      <trkpt lat="43.23908" lon="1.38387">
        <ele>243</ele>
        <time>2017-10-07T14:52:00Z</time>
      </trkpt>
      <trkpt lat="43.23907" lon="1.38388">
        <ele>243</ele>
        <time>2017-10-07T14:52:01Z</time>
      </trkpt>
      <trkpt lat="43.23907" lon="1.38387">
        <ele>242</ele>
        <time>2017-10-07T14:52:02Z</time>
      </trkpt>
      <trkpt lat="43.23907" lon="1.38387">
        <ele>242</ele>
        <time>2017-10-07T14:52:03Z</time>
      </trkpt>
      <trkpt lat="43.23909" lon="1.38389">
        <ele>240</ele>
        <time>2017-10-07T14:52:28Z</time>
      </trkpt>
      <trkpt lat="43.2391" lon="1.38389">
        <ele>240</ele>
        <time>2017-10-07T14:52:29Z</time>
      </trkpt>
      <trkpt lat="43.23912" lon="1.3839">
        <ele>240</ele>
        <time>2017-10-07T14:52:32Z</time>
      </trkpt>
      <trkpt lat="43.23912" lon="1.3839">
        <ele>240</ele>
        <time>2017-10-07T14:52:33Z</time>
      </trkpt>
      <trkpt lat="43.23914" lon="1.38386">
        <ele>240</ele>
        <time>2017-10-07T14:52:37Z</time>
      </trkpt>
      <trkpt lat="43.23917" lon="1.38384">
        <ele>240</ele>
        <time>2017-10-07T14:52:39Z</time>
      </trkpt>
      <trkpt lat="43.23918" lon="1.38384">
        <ele>241</ele>
        <time>2017-10-07T14:52:40Z</time>
      </trkpt>
      <trkpt lat="43.23919" lon="1.38383">
        <ele>241</ele>
        <time>2017-10-07T14:52:41Z</time>
      </trkpt>
      <trkpt lat="43.2392" lon="1.38382">
        <ele>242</ele>
        <time>2017-10-07T14:52:42Z</time>
      </trkpt>
      <trkpt lat="43.23921" lon="1.38382">
        <ele>242</ele>
        <time>2017-10-07T14:52:43Z</time>
      </trkpt>
      <trkpt lat="43.23924" lon="1.38379">
        <ele>242</ele>
        <time>2017-10-07T14:52:48Z</time>
      </trkpt>
      <trkpt lat="43.23925" lon="1.38378">
        <ele>242</ele>
        <time>2017-10-07T14:52:49Z</time>
      </trkpt>
      <trkpt lat="43.23925" lon="1.38377">
        <ele>243</ele>
        <time>2017-10-07T14:52:50Z</time>
      </trkpt>
      <trkpt lat="43.23926" lon="1.38376">
        <ele>243</ele>
        <time>2017-10-07T14:52:51Z</time>
      </trkpt>
      <trkpt lat="43.23927" lon="1.38375">
        <ele>244</ele>
        <time>2017-10-07T14:52:52Z</time>
      </trkpt>
      <trkpt lat="43.23927" lon="1.38374">
        <ele>244</ele>
        <time>2017-10-07T14:52:53Z</time>
      </trkpt>
      <trkpt lat="43.2393" lon="1.3837">
        <ele>244</ele>
        <time>2017-10-07T14:52:57Z</time>
      </trkpt>
      <trkpt lat="43.23931" lon="1.38369">
        <ele>244</ele>
        <time>2017-10-07T14:52:59Z</time>
      </trkpt>
      <trkpt lat="43.23932" lon="1.38369">
        <ele>245</ele>
        <time>2017-10-07T14:53:03Z</time>
      </trkpt>
      <trkpt lat="43.23934" lon="1.38369">
        <ele>246</ele>
        <time>2017-10-07T14:53:04Z</time>
      </trkpt>
      <trkpt lat="43.23934" lon="1.38369">
        <ele>246</ele>
        <time>2017-10-07T14:53:05Z</time>
      </trkpt>
      <trkpt lat="43.23933" lon="1.3837">
        <ele>246</ele>
        <time>2017-10-07T14:53:19Z</time>
      </trkpt>
      <trkpt lat="43.23923" lon="1.38382">
        <ele>246</ele>
        <time>2017-10-07T14:53:25Z</time>
      </trkpt>
      <trkpt lat="43.23921" lon="1.38384">
        <ele>246</ele>
        <time>2017-10-07T14:53:26Z</time>
      </trkpt>
      <trkpt lat="43.23919" lon="1.38386">
        <ele>245</ele>
        <time>2017-10-07T14:53:27Z</time>
      </trkpt>
      <trkpt lat="43.23917" lon="1.38387">
        <ele>245</ele>
        <time>2017-10-07T14:53:28Z</time>
      </trkpt>
      <trkpt lat="43.23915" lon="1.38389">
        <ele>244</ele>
        <time>2017-10-07T14:53:29Z</time>
      </trkpt>
      <trkpt lat="43.23914" lon="1.38391">
        <ele>244</ele>
        <time>2017-10-07T14:53:30Z</time>
      </trkpt>
      <trkpt lat="43.23912" lon="1.38392">
        <ele>243</ele>
        <time>2017-10-07T14:53:31Z</time>
      </trkpt>
      <trkpt lat="43.2391" lon="1.3839">
        <ele>242</ele>
        <time>2017-10-07T14:53:32Z</time>
      </trkpt>
      <trkpt lat="43.2391" lon="1.38387">
        <ele>242</ele>
        <time>2017-10-07T14:53:33Z</time>
      </trkpt>
      <trkpt lat="43.23911" lon="1.38383">
        <ele>241</ele>
        <time>2017-10-07T14:53:34Z</time>
      </trkpt>
      <trkpt lat="43.23913" lon="1.38375">
        <ele>241</ele>
        <time>2017-10-07T14:53:36Z</time>
      </trkpt>
      <trkpt lat="43.23913" lon="1.3837">
        <ele>241</ele>
        <time>2017-10-07T14:53:37Z</time>
      </trkpt>
      <trkpt lat="43.23914" lon="1.38364">
        <ele>240</ele>
        <time>2017-10-07T14:53:38Z</time>
      </trkpt>
      <trkpt lat="43.23915" lon="1.38358">
        <ele>240</ele>
        <time>2017-10-07T14:53:39Z</time>
      </trkpt>
      <trkpt lat="43.23915" lon="1.38353">
        <ele>240</ele>
        <time>2017-10-07T14:53:40Z</time>
      </trkpt>
      <trkpt lat="43.23916" lon="1.38346">
        <ele>239</ele>
        <time>2017-10-07T14:53:41Z</time>
      </trkpt>
      <trkpt lat="43.23919" lon="1.38326">
        <ele>239</ele>
        <time>2017-10-07T14:53:44Z</time>
      </trkpt>
      <trkpt lat="43.23922" lon="1.38313">
        <ele>239</ele>
        <time>2017-10-07T14:53:46Z</time>
      </trkpt>
      <trkpt lat="43.23924" lon="1.38306">
        <ele>239</ele>
        <time>2017-10-07T14:53:47Z</time>
      </trkpt>
      <trkpt lat="43.23926" lon="1.38298">
        <ele>238</ele>
        <time>2017-10-07T14:53:48Z</time>
      </trkpt>
      <trkpt lat="43.23928" lon="1.38291">
        <ele>238</ele>
        <time>2017-10-07T14:53:49Z</time>
      </trkpt>
      <trkpt lat="43.2393" lon="1.38284">
        <ele>237</ele>
        <time>2017-10-07T14:53:50Z</time>
      </trkpt>
      <trkpt lat="43.23932" lon="1.38277">
        <ele>237</ele>
        <time>2017-10-07T14:53:51Z</time>
      </trkpt>
      <trkpt lat="43.23934" lon="1.38268">
        <ele>237</ele>
        <time>2017-10-07T14:53:52Z</time>
      </trkpt>
      <trkpt lat="43.23938" lon="1.38242">
        <ele>236</ele>
        <time>2017-10-07T14:53:55Z</time>
      </trkpt>
      <trkpt lat="43.2394" lon="1.38234">
        <ele>236</ele>
        <time>2017-10-07T14:53:56Z</time>
      </trkpt>
      <trkpt lat="43.23941" lon="1.38225">
        <ele>235</ele>
        <time>2017-10-07T14:53:57Z</time>
      </trkpt>
      <trkpt lat="43.23941" lon="1.38216">
        <ele>235</ele>
        <time>2017-10-07T14:53:58Z</time>
      </trkpt>
      <trkpt lat="43.23942" lon="1.38207">
        <ele>235</ele>
        <time>2017-10-07T14:53:59Z</time>
      </trkpt>
      <trkpt lat="43.23944" lon="1.38163">
        <ele>234</ele>
        <time>2017-10-07T14:54:04Z</time>
      </trkpt>
      <trkpt lat="43.23945" lon="1.38154">
        <ele>234</ele>
        <time>2017-10-07T14:54:05Z</time>
      </trkpt>
      <trkpt lat="43.23945" lon="1.38145">
        <ele>233</ele>
        <time>2017-10-07T14:54:06Z</time>
      </trkpt>
      <trkpt lat="43.23946" lon="1.38136">
        <ele>233</ele>
        <time>2017-10-07T14:54:07Z</time>
      </trkpt>
      <trkpt lat="43.23946" lon="1.38126">
        <ele>232</ele>
        <time>2017-10-07T14:54:08Z</time>
      </trkpt>
      <trkpt lat="43.23947" lon="1.38108">
        <ele>232</ele>
        <time>2017-10-07T14:54:10Z</time>
      </trkpt>
      <trkpt lat="43.23947" lon="1.38099">
        <ele>231</ele>
        <time>2017-10-07T14:54:11Z</time>
      </trkpt>
      <trkpt lat="43.23947" lon="1.3809">
        <ele>231</ele>
        <time>2017-10-07T14:54:12Z</time>
      </trkpt>
      <trkpt lat="43.23948" lon="1.38081">
        <ele>230</ele>
        <time>2017-10-07T14:54:13Z</time>
      </trkpt>
      <trkpt lat="43.23948" lon="1.38071">
        <ele>230</ele>
        <time>2017-10-07T14:54:14Z</time>
      </trkpt>
      <trkpt lat="43.23948" lon="1.38051">
        <ele>229</ele>
        <time>2017-10-07T14:54:16Z</time>
      </trkpt>
      <trkpt lat="43.23947" lon="1.3804">
        <ele>229</ele>
        <time>2017-10-07T14:54:17Z</time>
      </trkpt>
      <trkpt lat="43.23947" lon="1.38031">
        <ele>229</ele>
        <time>2017-10-07T14:54:18Z</time>
      </trkpt>
      <trkpt lat="43.23947" lon="1.38021">
        <ele>228</ele>
        <time>2017-10-07T14:54:19Z</time>
      </trkpt>
      <trkpt lat="43.23947" lon="1.38011">
        <ele>228</ele>
        <time>2017-10-07T14:54:20Z</time>
      </trkpt>
      <trkpt lat="43.23948" lon="1.38003">
        <ele>227</ele>
        <time>2017-10-07T14:54:21Z</time>
      </trkpt>
      <trkpt lat="43.23948" lon="1.37995">
        <ele>227</ele>
        <time>2017-10-07T14:54:22Z</time>
      </trkpt>
      <trkpt lat="43.23949" lon="1.37991">
        <ele>226</ele>
        <time>2017-10-07T14:54:23Z</time>
      </trkpt>
      <trkpt lat="43.23949" lon="1.37988">
        <ele>226</ele>
        <time>2017-10-07T14:54:24Z</time>
      </trkpt>
      <trkpt lat="43.23948" lon="1.37986">
        <ele>225</ele>
        <time>2017-10-07T14:54:25Z</time>
      </trkpt>
      <trkpt lat="43.23949" lon="1.37981">
        <ele>225</ele>
        <time>2017-10-07T14:54:27Z</time>
      </trkpt>
      <trkpt lat="43.23951" lon="1.37974">
        <ele>225</ele>
        <time>2017-10-07T14:54:29Z</time>
      </trkpt>
      <trkpt lat="43.23953" lon="1.3797">
        <ele>224</ele>
        <time>2017-10-07T14:54:30Z</time>
      </trkpt>
      <trkpt lat="43.23954" lon="1.37965">
        <ele>224</ele>
        <time>2017-10-07T14:54:31Z</time>
      </trkpt>
      <trkpt lat="43.23956" lon="1.3796">
        <ele>224</ele>
        <time>2017-10-07T14:54:32Z</time>
      </trkpt>
      <trkpt lat="43.23957" lon="1.37955">
        <ele>223</ele>
        <time>2017-10-07T14:54:33Z</time>
      </trkpt>
      <trkpt lat="43.2396" lon="1.37945">
        <ele>223</ele>
        <time>2017-10-07T14:54:35Z</time>
      </trkpt>
      <trkpt lat="43.23965" lon="1.37933">
        <ele>223</ele>
        <time>2017-10-07T14:54:38Z</time>
      </trkpt>
      <trkpt lat="43.23976" lon="1.37923">
        <ele>223</ele>
        <time>2017-10-07T14:54:42Z</time>
      </trkpt>
      <trkpt lat="43.2398" lon="1.3792">
        <ele>223</ele>
        <time>2017-10-07T14:54:44Z</time>
      </trkpt>
      <trkpt lat="43.23983" lon="1.37917">
        <ele>223</ele>
        <time>2017-10-07T14:54:46Z</time>
      </trkpt>
      <trkpt lat="43.23991" lon="1.37909">
        <ele>223</ele>
        <time>2017-10-07T14:54:50Z</time>
      </trkpt>
      <trkpt lat="43.23993" lon="1.37908">
        <ele>223</ele>
        <time>2017-10-07T14:54:51Z</time>
      </trkpt>
      <trkpt lat="43.24001" lon="1.37901">
        <ele>223</ele>
        <time>2017-10-07T14:54:54Z</time>
      </trkpt>
      <trkpt lat="43.24005" lon="1.37897">
        <ele>223</ele>
        <time>2017-10-07T14:54:56Z</time>
      </trkpt>
      <trkpt lat="43.24007" lon="1.37894">
        <ele>224</ele>
        <time>2017-10-07T14:54:57Z</time>
      </trkpt>
      <trkpt lat="43.24009" lon="1.37893">
        <ele>224</ele>
        <time>2017-10-07T14:54:58Z</time>
      </trkpt>
      <trkpt lat="43.24009" lon="1.37893">
        <ele>225</ele>
        <time>2017-10-07T14:54:59Z</time>
      </trkpt>
      <trkpt lat="43.24009" lon="1.37893">
        <ele>225</ele>
        <time>2017-10-07T14:55:00Z</time>
      </trkpt>
      <trkpt lat="43.24012" lon="1.3789">
        <ele>225</ele>
        <time>2017-10-07T14:55:08Z</time>
      </trkpt>
      <trkpt lat="43.24013" lon="1.37889">
        <ele>225</ele>
        <time>2017-10-07T14:55:09Z</time>
      </trkpt>
      <trkpt lat="43.24015" lon="1.37885">
        <ele>225</ele>
        <time>2017-10-07T14:55:13Z</time>
      </trkpt>
      <trkpt lat="43.24015" lon="1.37883">
        <ele>225</ele>
        <time>2017-10-07T14:55:17Z</time>
      </trkpt>
      <trkpt lat="43.24024" lon="1.3787">
        <ele>225</ele>
        <time>2017-10-07T14:55:22Z</time>
      </trkpt>
      <trkpt lat="43.24037" lon="1.37852">
        <ele>225</ele>
        <time>2017-10-07T14:55:26Z</time>
      </trkpt>
      <trkpt lat="43.24041" lon="1.37846">
        <ele>225</ele>
        <time>2017-10-07T14:55:27Z</time>
      </trkpt>
      <trkpt lat="43.24051" lon="1.3784">
        <ele>225</ele>
        <time>2017-10-07T14:55:29Z</time>
      </trkpt>
      <trkpt lat="43.24055" lon="1.37839">
        <ele>225</ele>
        <time>2017-10-07T14:55:30Z</time>
      </trkpt>
      <trkpt lat="43.24063" lon="1.37836">
        <ele>225</ele>
        <time>2017-10-07T14:55:32Z</time>
      </trkpt>
      <trkpt lat="43.24074" lon="1.37834">
        <ele>225</ele>
        <time>2017-10-07T14:55:35Z</time>
      </trkpt>
      <trkpt lat="43.241" lon="1.3783">
        <ele>225</ele>
        <time>2017-10-07T14:55:42Z</time>
      </trkpt>
      <trkpt lat="43.24126" lon="1.37826">
        <ele>225</ele>
        <time>2017-10-07T14:55:49Z</time>
      </trkpt>
      <trkpt lat="43.24146" lon="1.37821">
        <ele>225</ele>
        <time>2017-10-07T14:55:54Z</time>
      </trkpt>
      <trkpt lat="43.24151" lon="1.3782">
        <ele>225</ele>
        <time>2017-10-07T14:55:55Z</time>
      </trkpt>
      <trkpt lat="43.2417" lon="1.37811">
        <ele>226</ele>
        <time>2017-10-07T14:56:00Z</time>
      </trkpt>
      <trkpt lat="43.24174" lon="1.37808">
        <ele>226</ele>
        <time>2017-10-07T14:56:01Z</time>
      </trkpt>
      <trkpt lat="43.24177" lon="1.37805">
        <ele>227</ele>
        <time>2017-10-07T14:56:02Z</time>
      </trkpt>
      <trkpt lat="43.24181" lon="1.37802">
        <ele>227</ele>
        <time>2017-10-07T14:56:03Z</time>
      </trkpt>
      <trkpt lat="43.24184" lon="1.378">
        <ele>227</ele>
        <time>2017-10-07T14:56:04Z</time>
      </trkpt>
      <trkpt lat="43.24199" lon="1.37788">
        <ele>227</ele>
        <time>2017-10-07T14:56:08Z</time>
      </trkpt>
      <trkpt lat="43.24224" lon="1.37768">
        <ele>227</ele>
        <time>2017-10-07T14:56:15Z</time>
      </trkpt>
      <trkpt lat="43.24259" lon="1.37749">
        <ele>227</ele>
        <time>2017-10-07T14:56:25Z</time>
      </trkpt>
      <trkpt lat="43.24272" lon="1.37741">
        <ele>227</ele>
        <time>2017-10-07T14:56:28Z</time>
      </trkpt>
      <trkpt lat="43.24281" lon="1.37733">
        <ele>227</ele>
        <time>2017-10-07T14:56:30Z</time>
      </trkpt>
      <trkpt lat="43.24313" lon="1.37706">
        <ele>227</ele>
        <time>2017-10-07T14:56:36Z</time>
      </trkpt>
      <trkpt lat="43.24333" lon="1.3769">
        <ele>227</ele>
        <time>2017-10-07T14:56:39Z</time>
      </trkpt>
      <trkpt lat="43.2434" lon="1.37683">
        <ele>227</ele>
        <time>2017-10-07T14:56:40Z</time>
      </trkpt>
      <trkpt lat="43.24347" lon="1.37676">
        <ele>227</ele>
        <time>2017-10-07T14:56:41Z</time>
      </trkpt>
      <trkpt lat="43.24354" lon="1.37669">
        <ele>226</ele>
        <time>2017-10-07T14:56:42Z</time>
      </trkpt>
      <trkpt lat="43.24361" lon="1.37663">
        <ele>226</ele>
        <time>2017-10-07T14:56:43Z</time>
      </trkpt>
      <trkpt lat="43.24368" lon="1.37657">
        <ele>225</ele>
        <time>2017-10-07T14:56:44Z</time>
      </trkpt>
      <trkpt lat="43.24376" lon="1.37653">
        <ele>225</ele>
        <time>2017-10-07T14:56:45Z</time>
      </trkpt>
      <trkpt lat="43.24385" lon="1.37649">
        <ele>224</ele>
        <time>2017-10-07T14:56:46Z</time>
      </trkpt>
      <trkpt lat="43.24394" lon="1.37645">
        <ele>223</ele>
        <time>2017-10-07T14:56:47Z</time>
      </trkpt>
      <trkpt lat="43.24403" lon="1.37642">
        <ele>223</ele>
        <time>2017-10-07T14:56:48Z</time>
      </trkpt>
      <trkpt lat="43.24413" lon="1.3764">
        <ele>222</ele>
        <time>2017-10-07T14:56:49Z</time>
      </trkpt>
      <trkpt lat="43.24422" lon="1.37639">
        <ele>222</ele>
        <time>2017-10-07T14:56:50Z</time>
      </trkpt>
      <trkpt lat="43.2443" lon="1.37638">
        <ele>221</ele>
        <time>2017-10-07T14:56:51Z</time>
      </trkpt>
      <trkpt lat="43.24439" lon="1.37636">
        <ele>220</ele>
        <time>2017-10-07T14:56:52Z</time>
      </trkpt>
      <trkpt lat="43.24448" lon="1.37636">
        <ele>220</ele>
        <time>2017-10-07T14:56:53Z</time>
      </trkpt>
      <trkpt lat="43.24456" lon="1.37634">
        <ele>219</ele>
        <time>2017-10-07T14:56:54Z</time>
      </trkpt>
      <trkpt lat="43.24463" lon="1.37633">
        <ele>218</ele>
        <time>2017-10-07T14:56:55Z</time>
      </trkpt>
      <trkpt lat="43.24469" lon="1.37632">
        <ele>218</ele>
        <time>2017-10-07T14:56:56Z</time>
      </trkpt>
      <trkpt lat="43.24474" lon="1.37631">
        <ele>217</ele>
        <time>2017-10-07T14:56:57Z</time>
      </trkpt>
      <trkpt lat="43.24478" lon="1.37631">
        <ele>217</ele>
        <time>2017-10-07T14:56:58Z</time>
      </trkpt>
      <trkpt lat="43.24483" lon="1.3763">
        <ele>216</ele>
        <time>2017-10-07T14:56:59Z</time>
      </trkpt>
      <trkpt lat="43.24487" lon="1.37629">
        <ele>216</ele>
        <time>2017-10-07T14:57:00Z</time>
      </trkpt>
      <trkpt lat="43.24491" lon="1.37627">
        <ele>216</ele>
        <time>2017-10-07T14:57:01Z</time>
      </trkpt>
      <trkpt lat="43.24502" lon="1.3762">
        <ele>216</ele>
        <time>2017-10-07T14:57:04Z</time>
      </trkpt>
      <trkpt lat="43.24513" lon="1.37613">
        <ele>216</ele>
        <time>2017-10-07T14:57:07Z</time>
      </trkpt>
      <trkpt lat="43.24517" lon="1.3761">
        <ele>216</ele>
        <time>2017-10-07T14:57:08Z</time>
      </trkpt>
      <trkpt lat="43.24534" lon="1.37597">
        <ele>216</ele>
        <time>2017-10-07T14:57:13Z</time>
      </trkpt>
      <trkpt lat="43.24545" lon="1.37589">
        <ele>216</ele>
        <time>2017-10-07T14:57:16Z</time>
      </trkpt>
      <trkpt lat="43.24557" lon="1.3758">
        <ele>216</ele>
        <time>2017-10-07T14:57:20Z</time>
      </trkpt>
      <trkpt lat="43.2456" lon="1.37578">
        <ele>217</ele>
        <time>2017-10-07T14:57:21Z</time>
      </trkpt>
      <trkpt lat="43.24563" lon="1.37575">
        <ele>217</ele>
        <time>2017-10-07T14:57:22Z</time>
      </trkpt>
      <trkpt lat="43.24566" lon="1.37573">
        <ele>217</ele>
        <time>2017-10-07T14:57:23Z</time>
      </trkpt>
      <trkpt lat="43.24569" lon="1.3757">
        <ele>218</ele>
        <time>2017-10-07T14:57:24Z</time>
      </trkpt>
      <trkpt lat="43.24579" lon="1.37563">
        <ele>218</ele>
        <time>2017-10-07T14:57:27Z</time>
      </trkpt>
      <trkpt lat="43.24583" lon="1.3756">
        <ele>219</ele>
        <time>2017-10-07T14:57:28Z</time>
      </trkpt>
      <trkpt lat="43.24586" lon="1.37558">
        <ele>219</ele>
        <time>2017-10-07T14:57:29Z</time>
      </trkpt>
      <trkpt lat="43.24589" lon="1.37556">
        <ele>220</ele>
        <time>2017-10-07T14:57:30Z</time>
      </trkpt>
      <trkpt lat="43.24592" lon="1.37554">
        <ele>220</ele>
        <time>2017-10-07T14:57:31Z</time>
      </trkpt>
      <trkpt lat="43.24606" lon="1.37545">
        <ele>220</ele>
        <time>2017-10-07T14:57:36Z</time>
      </trkpt>
      <trkpt lat="43.24609" lon="1.37544">
        <ele>220</ele>
        <time>2017-10-07T14:57:37Z</time>
      </trkpt>
      <trkpt lat="43.24634" lon="1.3753">
        <ele>220</ele>
        <time>2017-10-07T14:57:45Z</time>
      </trkpt>
      <trkpt lat="43.24638" lon="1.37528">
        <ele>221</ele>
        <time>2017-10-07T14:57:46Z</time>
      </trkpt>
      <trkpt lat="43.24641" lon="1.37526">
        <ele>221</ele>
        <time>2017-10-07T14:57:47Z</time>
      </trkpt>
      <trkpt lat="43.24644" lon="1.37524">
        <ele>222</ele>
        <time>2017-10-07T14:57:48Z</time>
      </trkpt>
      <trkpt lat="43.24648" lon="1.37522">
        <ele>222</ele>
        <time>2017-10-07T14:57:49Z</time>
      </trkpt>
      <trkpt lat="43.24659" lon="1.37516">
        <ele>222</ele>
        <time>2017-10-07T14:57:52Z</time>
      </trkpt>
      <trkpt lat="43.24686" lon="1.37503">
        <ele>222</ele>
        <time>2017-10-07T14:58:00Z</time>
      </trkpt>
      <trkpt lat="43.24692" lon="1.375">
        <ele>222</ele>
        <time>2017-10-07T14:58:02Z</time>
      </trkpt>
      <trkpt lat="43.24696" lon="1.37498">
        <ele>223</ele>
        <time>2017-10-07T14:58:03Z</time>
      </trkpt>
      <trkpt lat="43.24699" lon="1.37496">
        <ele>223</ele>
        <time>2017-10-07T14:58:04Z</time>
      </trkpt>
      <trkpt lat="43.24703" lon="1.37494">
        <ele>224</ele>
        <time>2017-10-07T14:58:05Z</time>
      </trkpt>
      <trkpt lat="43.24706" lon="1.37492">
        <ele>224</ele>
        <time>2017-10-07T14:58:06Z</time>
      </trkpt>
      <trkpt lat="43.2471" lon="1.3749">
        <ele>224</ele>
        <time>2017-10-07T14:58:07Z</time>
      </trkpt>
      <trkpt lat="43.24733" lon="1.37479">
        <ele>224</ele>
        <time>2017-10-07T14:58:14Z</time>
      </trkpt>
      <trkpt lat="43.24761" lon="1.37462">
        <ele>224</ele>
        <time>2017-10-07T14:58:22Z</time>
      </trkpt>
      <trkpt lat="43.24769" lon="1.37456">
        <ele>224</ele>
        <time>2017-10-07T14:58:24Z</time>
      </trkpt>
      <trkpt lat="43.24777" lon="1.37448">
        <ele>224</ele>
        <time>2017-10-07T14:58:26Z</time>
      </trkpt>
      <trkpt lat="43.24785" lon="1.3744">
        <ele>224</ele>
        <time>2017-10-07T14:58:28Z</time>
      </trkpt>
      <trkpt lat="43.24793" lon="1.3743">
        <ele>224</ele>
        <time>2017-10-07T14:58:30Z</time>
      </trkpt>
      <trkpt lat="43.24812" lon="1.37409">
        <ele>224</ele>
        <time>2017-10-07T14:58:34Z</time>
      </trkpt>
      <trkpt lat="43.24828" lon="1.37394">
        <ele>224</ele>
        <time>2017-10-07T14:58:37Z</time>
      </trkpt>
      <trkpt lat="43.24833" lon="1.3739">
        <ele>224</ele>
        <time>2017-10-07T14:58:38Z</time>
      </trkpt>
      <trkpt lat="43.24844" lon="1.37382">
        <ele>224</ele>
        <time>2017-10-07T14:58:40Z</time>
      </trkpt>
      <trkpt lat="43.2485" lon="1.37379">
        <ele>224</ele>
        <time>2017-10-07T14:58:41Z</time>
      </trkpt>
      <trkpt lat="43.24862" lon="1.37375">
        <ele>224</ele>
        <time>2017-10-07T14:58:43Z</time>
      </trkpt>
      <trkpt lat="43.24868" lon="1.37373">
        <ele>223</ele>
        <time>2017-10-07T14:58:44Z</time>
      </trkpt>
      <trkpt lat="43.24874" lon="1.37372">
        <ele>223</ele>
        <time>2017-10-07T14:58:45Z</time>
      </trkpt>
      <trkpt lat="43.2488" lon="1.3737">
        <ele>222</ele>
        <time>2017-10-07T14:58:46Z</time>
      </trkpt>
      <trkpt lat="43.24885" lon="1.37369">
        <ele>222</ele>
        <time>2017-10-07T14:58:47Z</time>
      </trkpt>
      <trkpt lat="43.24896" lon="1.37363">
        <ele>222</ele>
        <time>2017-10-07T14:58:49Z</time>
      </trkpt>
      <trkpt lat="43.24901" lon="1.37358">
        <ele>222</ele>
        <time>2017-10-07T14:58:50Z</time>
      </trkpt>
      <trkpt lat="43.24914" lon="1.3734">
        <ele>222</ele>
        <time>2017-10-07T14:58:53Z</time>
      </trkpt>
      <trkpt lat="43.24918" lon="1.37334">
        <ele>222</ele>
        <time>2017-10-07T14:58:54Z</time>
      </trkpt>
      <trkpt lat="43.24942" lon="1.37321">
        <ele>222</ele>
        <time>2017-10-07T14:58:58Z</time>
      </trkpt>
      <trkpt lat="43.24959" lon="1.3732">
        <ele>222</ele>
        <time>2017-10-07T14:59:01Z</time>
      </trkpt>
      <trkpt lat="43.2497" lon="1.37317">
        <ele>222</ele>
        <time>2017-10-07T14:59:03Z</time>
      </trkpt>
      <trkpt lat="43.25003" lon="1.37302">
        <ele>222</ele>
        <time>2017-10-07T14:59:10Z</time>
      </trkpt>
      <trkpt lat="43.25032" lon="1.37289">
        <ele>222</ele>
        <time>2017-10-07T14:59:16Z</time>
      </trkpt>
      <trkpt lat="43.25064" lon="1.37285">
        <ele>222</ele>
        <time>2017-10-07T14:59:22Z</time>
      </trkpt>
      <trkpt lat="43.25089" lon="1.37284">
        <ele>222</ele>
        <time>2017-10-07T14:59:26Z</time>
      </trkpt>
      <trkpt lat="43.25097" lon="1.37285">
        <ele>221</ele>
        <time>2017-10-07T14:59:27Z</time>
      </trkpt>
      <trkpt lat="43.25105" lon="1.37287">
        <ele>221</ele>
        <time>2017-10-07T14:59:28Z</time>
      </trkpt>
      <trkpt lat="43.25113" lon="1.3729">
        <ele>220</ele>
        <time>2017-10-07T14:59:29Z</time>
      </trkpt>
      <trkpt lat="43.25121" lon="1.37294">
        <ele>219</ele>
        <time>2017-10-07T14:59:30Z</time>
      </trkpt>
      <trkpt lat="43.25129" lon="1.37298">
        <ele>219</ele>
        <time>2017-10-07T14:59:31Z</time>
      </trkpt>
      <trkpt lat="43.25138" lon="1.37302">
        <ele>219</ele>
        <time>2017-10-07T14:59:32Z</time>
      </trkpt>
      <trkpt lat="43.25147" lon="1.37306">
        <ele>218</ele>
        <time>2017-10-07T14:59:33Z</time>
      </trkpt>
      <trkpt lat="43.25157" lon="1.37309">
        <ele>218</ele>
        <time>2017-10-07T14:59:34Z</time>
      </trkpt>
      <trkpt lat="43.25167" lon="1.37311">
        <ele>217</ele>
        <time>2017-10-07T14:59:35Z</time>
      </trkpt>
      <trkpt lat="43.25178" lon="1.37309">
        <ele>216</ele>
        <time>2017-10-07T14:59:36Z</time>
      </trkpt>
      <trkpt lat="43.25188" lon="1.37304">
        <ele>216</ele>
        <time>2017-10-07T14:59:37Z</time>
      </trkpt>
      <trkpt lat="43.25197" lon="1.37296">
        <ele>215</ele>
        <time>2017-10-07T14:59:38Z</time>
      </trkpt>
      <trkpt lat="43.25212" lon="1.3728">
        <ele>215</ele>
        <time>2017-10-07T14:59:40Z</time>
      </trkpt>
      <trkpt lat="43.25219" lon="1.37273">
        <ele>214</ele>
        <time>2017-10-07T14:59:41Z</time>
      </trkpt>
      <trkpt lat="43.25227" lon="1.37267">
        <ele>214</ele>
        <time>2017-10-07T14:59:42Z</time>
      </trkpt>
      <trkpt lat="43.25233" lon="1.37262">
        <ele>213</ele>
        <time>2017-10-07T14:59:43Z</time>
      </trkpt>
      <trkpt lat="43.2524" lon="1.37258">
        <ele>213</ele>
        <time>2017-10-07T14:59:44Z</time>
      </trkpt>
      <trkpt lat="43.25253" lon="1.3725">
        <ele>213</ele>
        <time>2017-10-07T14:59:46Z</time>
      </trkpt>
      <trkpt lat="43.25288" lon="1.37233">
        <ele>212</ele>
        <time>2017-10-07T14:59:52Z</time>
      </trkpt>
      <trkpt lat="43.25294" lon="1.37231">
        <ele>212</ele>
        <time>2017-10-07T14:59:53Z</time>
      </trkpt>
      <trkpt lat="43.253" lon="1.37228">
        <ele>212</ele>
        <time>2017-10-07T14:59:54Z</time>
      </trkpt>
      <trkpt lat="43.25306" lon="1.37226">
        <ele>211</ele>
        <time>2017-10-07T14:59:55Z</time>
      </trkpt>
      <trkpt lat="43.25327" lon="1.37215">
        <ele>211</ele>
        <time>2017-10-07T14:59:59Z</time>
      </trkpt>
      <trkpt lat="43.25341" lon="1.37207">
        <ele>211</ele>
        <time>2017-10-07T15:00:02Z</time>
      </trkpt>
      <trkpt lat="43.25346" lon="1.37204">
        <ele>211</ele>
        <time>2017-10-07T15:00:03Z</time>
      </trkpt>
      <trkpt lat="43.2535" lon="1.37201">
        <ele>212</ele>
        <time>2017-10-07T15:00:04Z</time>
      </trkpt>
      <trkpt lat="43.25354" lon="1.37198">
        <ele>212</ele>
        <time>2017-10-07T15:00:05Z</time>
      </trkpt>
      <trkpt lat="43.25358" lon="1.37195">
        <ele>212</ele>
        <time>2017-10-07T15:00:06Z</time>
      </trkpt>
      <trkpt lat="43.25361" lon="1.37191">
        <ele>213</ele>
        <time>2017-10-07T15:00:07Z</time>
      </trkpt>
      <trkpt lat="43.25369" lon="1.3718">
        <ele>213</ele>
        <time>2017-10-07T15:00:10Z</time>
      </trkpt>
      <trkpt lat="43.25381" lon="1.37161">
        <ele>213</ele>
        <time>2017-10-07T15:00:14Z</time>
      </trkpt>
      <trkpt lat="43.25384" lon="1.37156">
        <ele>213</ele>
        <time>2017-10-07T15:00:15Z</time>
      </trkpt>
      <trkpt lat="43.25386" lon="1.37151">
        <ele>214</ele>
        <time>2017-10-07T15:00:16Z</time>
      </trkpt>
      <trkpt lat="43.25388" lon="1.37147">
        <ele>214</ele>
        <time>2017-10-07T15:00:17Z</time>
      </trkpt>
      <trkpt lat="43.25391" lon="1.37142">
        <ele>215</ele>
        <time>2017-10-07T15:00:18Z</time>
      </trkpt>
      <trkpt lat="43.25393" lon="1.37138">
        <ele>215</ele>
        <time>2017-10-07T15:00:19Z</time>
      </trkpt>
      <trkpt lat="43.25402" lon="1.37116">
        <ele>215</ele>
        <time>2017-10-07T15:00:23Z</time>
      </trkpt>
      <trkpt lat="43.2542" lon="1.37077">
        <ele>215</ele>
        <time>2017-10-07T15:00:30Z</time>
      </trkpt>
      <trkpt lat="43.25433" lon="1.37049">
        <ele>215</ele>
        <time>2017-10-07T15:00:35Z</time>
      </trkpt>
      <trkpt lat="43.25436" lon="1.37044">
        <ele>215</ele>
        <time>2017-10-07T15:00:36Z</time>
      </trkpt>
      <trkpt lat="43.25463" lon="1.3701">
        <ele>215</ele>
        <time>2017-10-07T15:00:43Z</time>
      </trkpt>
      <trkpt lat="43.25487" lon="1.36983">
        <ele>215</ele>
        <time>2017-10-07T15:00:49Z</time>
      </trkpt>
      <trkpt lat="43.25491" lon="1.36978">
        <ele>215</ele>
        <time>2017-10-07T15:00:50Z</time>
      </trkpt>
      <trkpt lat="43.25522" lon="1.36951">
        <ele>215</ele>
        <time>2017-10-07T15:00:57Z</time>
      </trkpt>
      <trkpt lat="43.25547" lon="1.36935">
        <ele>215</ele>
        <time>2017-10-07T15:01:03Z</time>
      </trkpt>
      <trkpt lat="43.2558" lon="1.36914">
        <ele>215</ele>
        <time>2017-10-07T15:01:11Z</time>
      </trkpt>
      <trkpt lat="43.25593" lon="1.36908">
        <ele>215</ele>
        <time>2017-10-07T15:01:14Z</time>
      </trkpt>
      <trkpt lat="43.25602" lon="1.36902">
        <ele>215</ele>
        <time>2017-10-07T15:01:16Z</time>
      </trkpt>
      <trkpt lat="43.2561" lon="1.36897">
        <ele>215</ele>
        <time>2017-10-07T15:01:18Z</time>
      </trkpt>
      <trkpt lat="43.2563" lon="1.36878">
        <ele>215</ele>
        <time>2017-10-07T15:01:23Z</time>
      </trkpt>
      <trkpt lat="43.25657" lon="1.36857">
        <ele>215</ele>
        <time>2017-10-07T15:01:30Z</time>
      </trkpt>
      <trkpt lat="43.25684" lon="1.36848">
        <ele>215</ele>
        <time>2017-10-07T15:01:36Z</time>
      </trkpt>
      <trkpt lat="43.25717" lon="1.36828">
        <ele>215</ele>
        <time>2017-10-07T15:01:44Z</time>
      </trkpt>
      <trkpt lat="43.25721" lon="1.36824">
        <ele>215</ele>
        <time>2017-10-07T15:01:45Z</time>
      </trkpt>
      <trkpt lat="43.25729" lon="1.36818">
        <ele>215</ele>
        <time>2017-10-07T15:01:47Z</time>
      </trkpt>
      <trkpt lat="43.25732" lon="1.36814">
        <ele>216</ele>
        <time>2017-10-07T15:01:48Z</time>
      </trkpt>
      <trkpt lat="43.25736" lon="1.36811">
        <ele>216</ele>
        <time>2017-10-07T15:01:49Z</time>
      </trkpt>
      <trkpt lat="43.2574" lon="1.36807">
        <ele>217</ele>
        <time>2017-10-07T15:01:50Z</time>
      </trkpt>
      <trkpt lat="43.25744" lon="1.36804">
        <ele>217</ele>
        <time>2017-10-07T15:01:51Z</time>
      </trkpt>
      <trkpt lat="43.2578" lon="1.36777">
        <ele>217</ele>
        <time>2017-10-07T15:02:00Z</time>
      </trkpt>
      <trkpt lat="43.25788" lon="1.36772">
        <ele>217</ele>
        <time>2017-10-07T15:02:02Z</time>
      </trkpt>
      <trkpt lat="43.25807" lon="1.36761">
        <ele>217</ele>
        <time>2017-10-07T15:02:06Z</time>
      </trkpt>
      <trkpt lat="43.25838" lon="1.36748">
        <ele>217</ele>
        <time>2017-10-07T15:02:13Z</time>
      </trkpt>
      <trkpt lat="43.25862" lon="1.36743">
        <ele>217</ele>
        <time>2017-10-07T15:02:18Z</time>
      </trkpt>
      <trkpt lat="43.25871" lon="1.36742">
        <ele>217</ele>
        <time>2017-10-07T15:02:20Z</time>
      </trkpt>
      <trkpt lat="43.25905" lon="1.36739">
        <ele>217</ele>
        <time>2017-10-07T15:02:26Z</time>
      </trkpt>
      <trkpt lat="43.2591" lon="1.36738">
        <ele>217</ele>
        <time>2017-10-07T15:02:27Z</time>
      </trkpt>
      <trkpt lat="43.25914" lon="1.36738">
        <ele>216</ele>
        <time>2017-10-07T15:02:28Z</time>
      </trkpt>
      <trkpt lat="43.25918" lon="1.36738">
        <ele>216</ele>
        <time>2017-10-07T15:02:29Z</time>
      </trkpt>
      <trkpt lat="43.25921" lon="1.3674">
        <ele>215</ele>
        <time>2017-10-07T15:02:30Z</time>
      </trkpt>
      <trkpt lat="43.25924" lon="1.36742">
        <ele>215</ele>
        <time>2017-10-07T15:02:31Z</time>
      </trkpt>
      <trkpt lat="43.25926" lon="1.3675">
        <ele>215</ele>
        <time>2017-10-07T15:02:34Z</time>
      </trkpt>
      <trkpt lat="43.25924" lon="1.3676">
        <ele>215</ele>
        <time>2017-10-07T15:02:37Z</time>
      </trkpt>
      <trkpt lat="43.25924" lon="1.36763">
        <ele>215</ele>
        <time>2017-10-07T15:02:38Z</time>
      </trkpt>
      <trkpt lat="43.25922" lon="1.36776">
        <ele>215</ele>
        <time>2017-10-07T15:02:42Z</time>
      </trkpt>
      <trkpt lat="43.25921" lon="1.36782">
        <ele>215</ele>
        <time>2017-10-07T15:02:44Z</time>
      </trkpt>
      <trkpt lat="43.25921" lon="1.36785">
        <ele>215</ele>
        <time>2017-10-07T15:02:45Z</time>
      </trkpt>
      <trkpt lat="43.25921" lon="1.36788">
        <ele>215</ele>
        <time>2017-10-07T15:02:46Z</time>
      </trkpt>
      <trkpt lat="43.2592" lon="1.36791">
        <ele>216</ele>
        <time>2017-10-07T15:02:47Z</time>
      </trkpt>
      <trkpt lat="43.2592" lon="1.36794">
        <ele>217</ele>
        <time>2017-10-07T15:02:48Z</time>
      </trkpt>
      <trkpt lat="43.25918" lon="1.368">
        <ele>217</ele>
        <time>2017-10-07T15:02:50Z</time>
      </trkpt>
      <trkpt lat="43.25916" lon="1.36813">
        <ele>217</ele>
        <time>2017-10-07T15:02:55Z</time>
      </trkpt>
      <trkpt lat="43.25916" lon="1.36815">
        <ele>218</ele>
        <time>2017-10-07T15:02:56Z</time>
      </trkpt>
      <trkpt lat="43.25915" lon="1.36818">
        <ele>218</ele>
        <time>2017-10-07T15:02:57Z</time>
      </trkpt>
      <trkpt lat="43.25915" lon="1.36821">
        <ele>218</ele>
        <time>2017-10-07T15:02:58Z</time>
      </trkpt>
      <trkpt lat="43.25914" lon="1.36823">
        <ele>219</ele>
        <time>2017-10-07T15:02:59Z</time>
      </trkpt>
      <trkpt lat="43.25912" lon="1.36835">
        <ele>219</ele>
        <time>2017-10-07T15:03:04Z</time>
      </trkpt>
      <trkpt lat="43.25912" lon="1.36838">
        <ele>219</ele>
        <time>2017-10-07T15:03:05Z</time>
      </trkpt>
      <trkpt lat="43.25911" lon="1.3684">
        <ele>220</ele>
        <time>2017-10-07T15:03:06Z</time>
      </trkpt>
      <trkpt lat="43.2591" lon="1.36843">
        <ele>220</ele>
        <time>2017-10-07T15:03:07Z</time>
      </trkpt>
      <trkpt lat="43.2591" lon="1.36845">
        <ele>220</ele>
        <time>2017-10-07T15:03:08Z</time>
      </trkpt>
      <trkpt lat="43.25909" lon="1.36848">
        <ele>221</ele>
        <time>2017-10-07T15:03:09Z</time>
      </trkpt>
      <trkpt lat="43.25908" lon="1.36853">
        <ele>221</ele>
        <time>2017-10-07T15:03:11Z</time>
      </trkpt>
      <trkpt lat="43.25906" lon="1.36862">
        <ele>221</ele>
        <time>2017-10-07T15:03:15Z</time>
      </trkpt>
      <trkpt lat="43.25906" lon="1.36865">
        <ele>222</ele>
        <time>2017-10-07T15:03:16Z</time>
      </trkpt>
      <trkpt lat="43.25905" lon="1.36867">
        <ele>222</ele>
        <time>2017-10-07T15:03:17Z</time>
      </trkpt>
      <trkpt lat="43.25905" lon="1.3687">
        <ele>223</ele>
        <time>2017-10-07T15:03:18Z</time>
      </trkpt>
      <trkpt lat="43.25904" lon="1.36872">
        <ele>223</ele>
        <time>2017-10-07T15:03:19Z</time>
      </trkpt>
      <trkpt lat="43.25904" lon="1.36875">
        <ele>223</ele>
        <time>2017-10-07T15:03:20Z</time>
      </trkpt>
      <trkpt lat="43.25901" lon="1.36887">
        <ele>223</ele>
        <time>2017-10-07T15:03:25Z</time>
      </trkpt>
      <trkpt lat="43.25901" lon="1.36889">
        <ele>224</ele>
        <time>2017-10-07T15:03:26Z</time>
      </trkpt>
      <trkpt lat="43.25901" lon="1.36891">
        <ele>224</ele>
        <time>2017-10-07T15:03:27Z</time>
      </trkpt>
      <trkpt lat="43.259" lon="1.36894">
        <ele>225</ele>
        <time>2017-10-07T15:03:28Z</time>
      </trkpt>
      <trkpt lat="43.259" lon="1.36896">
        <ele>225</ele>
        <time>2017-10-07T15:03:29Z</time>
      </trkpt>
      <trkpt lat="43.25897" lon="1.3691">
        <ele>225</ele>
        <time>2017-10-07T15:03:35Z</time>
      </trkpt>
      <trkpt lat="43.25896" lon="1.36913">
        <ele>226</ele>
        <time>2017-10-07T15:03:36Z</time>
      </trkpt>
      <trkpt lat="43.25895" lon="1.36915">
        <ele>227</ele>
        <time>2017-10-07T15:03:37Z</time>
      </trkpt>
      <trkpt lat="43.25895" lon="1.36917">
        <ele>227</ele>
        <time>2017-10-07T15:03:38Z</time>
      </trkpt>
      <trkpt lat="43.25892" lon="1.36927">
        <ele>227</ele>
        <time>2017-10-07T15:03:42Z</time>
      </trkpt>
      <trkpt lat="43.25892" lon="1.36934">
        <ele>227</ele>
        <time>2017-10-07T15:03:45Z</time>
      </trkpt>
      <trkpt lat="43.25891" lon="1.36936">
        <ele>228</ele>
        <time>2017-10-07T15:03:46Z</time>
      </trkpt>
      <trkpt lat="43.2589" lon="1.36938">
        <ele>228</ele>
        <time>2017-10-07T15:03:47Z</time>
      </trkpt>
      <trkpt lat="43.2589" lon="1.36941">
        <ele>229</ele>
        <time>2017-10-07T15:03:48Z</time>
      </trkpt>
      <trkpt lat="43.2589" lon="1.36943">
        <ele>229</ele>
        <time>2017-10-07T15:03:49Z</time>
      </trkpt>
      <trkpt lat="43.25886" lon="1.36957">
        <ele>229</ele>
        <time>2017-10-07T15:03:55Z</time>
      </trkpt>
      <trkpt lat="43.25884" lon="1.36962">
        <ele>229</ele>
        <time>2017-10-07T15:03:57Z</time>
      </trkpt>
      <trkpt lat="43.25883" lon="1.36964">
        <ele>230</ele>
        <time>2017-10-07T15:03:58Z</time>
      </trkpt>
      <trkpt lat="43.25882" lon="1.36966">
        <ele>230</ele>
        <time>2017-10-07T15:03:59Z</time>
      </trkpt>
      <trkpt lat="43.25881" lon="1.36968">
        <ele>231</ele>
        <time>2017-10-07T15:04:00Z</time>
      </trkpt>
      <trkpt lat="43.2588" lon="1.36971">
        <ele>231</ele>
        <time>2017-10-07T15:04:01Z</time>
      </trkpt>
      <trkpt lat="43.25878" lon="1.36975">
        <ele>231</ele>
        <time>2017-10-07T15:04:03Z</time>
      </trkpt>
      <trkpt lat="43.25873" lon="1.36986">
        <ele>232</ele>
        <time>2017-10-07T15:04:08Z</time>
      </trkpt>
      <trkpt lat="43.25872" lon="1.36987">
        <ele>232</ele>
        <time>2017-10-07T15:04:09Z</time>
      </trkpt>
      <trkpt lat="43.25871" lon="1.36989">
        <ele>232</ele>
        <time>2017-10-07T15:04:10Z</time>
      </trkpt>
      <trkpt lat="43.2587" lon="1.36991">
        <ele>233</ele>
        <time>2017-10-07T15:04:11Z</time>
      </trkpt>
      <trkpt lat="43.25869" lon="1.36993">
        <ele>233</ele>
        <time>2017-10-07T15:04:12Z</time>
      </trkpt>
      <trkpt lat="43.25859" lon="1.37009">
        <ele>233</ele>
        <time>2017-10-07T15:04:20Z</time>
      </trkpt>
      <trkpt lat="43.25858" lon="1.37011">
        <ele>234</ele>
        <time>2017-10-07T15:04:21Z</time>
      </trkpt>
      <trkpt lat="43.25856" lon="1.37013">
        <ele>234</ele>
        <time>2017-10-07T15:04:22Z</time>
      </trkpt>
      <trkpt lat="43.25855" lon="1.37015">
        <ele>234</ele>
        <time>2017-10-07T15:04:23Z</time>
      </trkpt>
      <trkpt lat="43.25854" lon="1.37017">
        <ele>235</ele>
        <time>2017-10-07T15:04:24Z</time>
      </trkpt>
      <trkpt lat="43.25852" lon="1.37019">
        <ele>235</ele>
        <time>2017-10-07T15:04:25Z</time>
      </trkpt>
      <trkpt lat="43.25848" lon="1.37026">
        <ele>235</ele>
        <time>2017-10-07T15:04:29Z</time>
      </trkpt>
      <trkpt lat="43.25844" lon="1.37032">
        <ele>236</ele>
        <time>2017-10-07T15:04:32Z</time>
      </trkpt>
      <trkpt lat="43.25842" lon="1.37033">
        <ele>236</ele>
        <time>2017-10-07T15:04:33Z</time>
      </trkpt>
      <trkpt lat="43.25841" lon="1.37035">
        <ele>236</ele>
        <time>2017-10-07T15:04:34Z</time>
      </trkpt>
      <trkpt lat="43.2584" lon="1.37037">
        <ele>237</ele>
        <time>2017-10-07T15:04:35Z</time>
      </trkpt>
      <trkpt lat="43.25839" lon="1.37039">
        <ele>237</ele>
        <time>2017-10-07T15:04:36Z</time>
      </trkpt>
      <trkpt lat="43.25833" lon="1.37048">
        <ele>238</ele>
        <time>2017-10-07T15:04:41Z</time>
      </trkpt>
      <trkpt lat="43.25832" lon="1.3705">
        <ele>238</ele>
        <time>2017-10-07T15:04:42Z</time>
      </trkpt>
      <trkpt lat="43.25831" lon="1.37052">
        <ele>239</ele>
        <time>2017-10-07T15:04:43Z</time>
      </trkpt>
      <trkpt lat="43.25829" lon="1.37053">
        <ele>239</ele>
        <time>2017-10-07T15:04:44Z</time>
      </trkpt>
      <trkpt lat="43.25828" lon="1.37055">
        <ele>239</ele>
        <time>2017-10-07T15:04:45Z</time>
      </trkpt>
      <trkpt lat="43.25825" lon="1.37062">
        <ele>239</ele>
        <time>2017-10-07T15:04:48Z</time>
      </trkpt>
      <trkpt lat="43.25826" lon="1.37064">
        <ele>240</ele>
        <time>2017-10-07T15:04:49Z</time>
      </trkpt>
      <trkpt lat="43.25826" lon="1.37066">
        <ele>240</ele>
        <time>2017-10-07T15:04:50Z</time>
      </trkpt>
      <trkpt lat="43.25827" lon="1.37069">
        <ele>241</ele>
        <time>2017-10-07T15:04:51Z</time>
      </trkpt>
      <trkpt lat="43.25827" lon="1.37071">
        <ele>241</ele>
        <time>2017-10-07T15:04:52Z</time>
      </trkpt>
      <trkpt lat="43.25829" lon="1.37073">
        <ele>241</ele>
        <time>2017-10-07T15:04:53Z</time>
      </trkpt>
      <trkpt lat="43.2583" lon="1.37075">
        <ele>241</ele>
        <time>2017-10-07T15:04:54Z</time>
      </trkpt>
      <trkpt lat="43.25834" lon="1.37079">
        <ele>242</ele>
        <time>2017-10-07T15:04:57Z</time>
      </trkpt>
      <trkpt lat="43.25836" lon="1.37081">
        <ele>242</ele>
        <time>2017-10-07T15:04:58Z</time>
      </trkpt>
      <trkpt lat="43.25838" lon="1.37082">
        <ele>243</ele>
        <time>2017-10-07T15:04:59Z</time>
      </trkpt>
      <trkpt lat="43.25839" lon="1.37083">
        <ele>243</ele>
        <time>2017-10-07T15:05:00Z</time>
      </trkpt>
      <trkpt lat="43.25841" lon="1.37084">
        <ele>244</ele>
        <time>2017-10-07T15:05:01Z</time>
      </trkpt>
      <trkpt lat="43.25847" lon="1.37089">
        <ele>244</ele>
        <time>2017-10-07T15:05:05Z</time>
      </trkpt>
      <trkpt lat="43.25848" lon="1.3709">
        <ele>244</ele>
        <time>2017-10-07T15:05:06Z</time>
      </trkpt>
      <trkpt lat="43.2585" lon="1.37091">
        <ele>245</ele>
        <time>2017-10-07T15:05:07Z</time>
      </trkpt>
      <trkpt lat="43.25851" lon="1.37092">
        <ele>245</ele>
        <time>2017-10-07T15:05:08Z</time>
      </trkpt>
      <trkpt lat="43.25852" lon="1.37093">
        <ele>246</ele>
        <time>2017-10-07T15:05:09Z</time>
      </trkpt>
      <trkpt lat="43.25859" lon="1.37098">
        <ele>246</ele>
        <time>2017-10-07T15:05:13Z</time>
      </trkpt>
      <trkpt lat="43.2586" lon="1.37099">
        <ele>247</ele>
        <time>2017-10-07T15:05:14Z</time>
      </trkpt>
      <trkpt lat="43.25862" lon="1.371">
        <ele>247</ele>
        <time>2017-10-07T15:05:15Z</time>
      </trkpt>
      <trkpt lat="43.25863" lon="1.37101">
        <ele>248</ele>
        <time>2017-10-07T15:05:16Z</time>
      </trkpt>
      <trkpt lat="43.25868" lon="1.37106">
        <ele>248</ele>
        <time>2017-10-07T15:05:19Z</time>
      </trkpt>
      <trkpt lat="43.25869" lon="1.37107">
        <ele>249</ele>
        <time>2017-10-07T15:05:20Z</time>
      </trkpt>
      <trkpt lat="43.25871" lon="1.37109">
        <ele>249</ele>
        <time>2017-10-07T15:05:21Z</time>
      </trkpt>
      <trkpt lat="43.25873" lon="1.3711">
        <ele>250</ele>
        <time>2017-10-07T15:05:22Z</time>
      </trkpt>
      <trkpt lat="43.25874" lon="1.37111">
        <ele>250</ele>
        <time>2017-10-07T15:05:23Z</time>
      </trkpt>
      <trkpt lat="43.25885" lon="1.37118">
        <ele>250</ele>
        <time>2017-10-07T15:05:29Z</time>
      </trkpt>
      <trkpt lat="43.25887" lon="1.37119">
        <ele>251</ele>
        <time>2017-10-07T15:05:30Z</time>
      </trkpt>
      <trkpt lat="43.25889" lon="1.37121">
        <ele>251</ele>
        <time>2017-10-07T15:05:31Z</time>
      </trkpt>
      <trkpt lat="43.2589" lon="1.37122">
        <ele>252</ele>
        <time>2017-10-07T15:05:32Z</time>
      </trkpt>
      <trkpt lat="43.25892" lon="1.37124">
        <ele>252</ele>
        <time>2017-10-07T15:05:33Z</time>
      </trkpt>
      <trkpt lat="43.25902" lon="1.37132">
        <ele>252</ele>
        <time>2017-10-07T15:05:38Z</time>
      </trkpt>
      <trkpt lat="43.2591" lon="1.37139">
        <ele>253</ele>
        <time>2017-10-07T15:05:43Z</time>
      </trkpt>
      <trkpt lat="43.25912" lon="1.3714">
        <ele>253</ele>
        <time>2017-10-07T15:05:44Z</time>
      </trkpt>
      <trkpt lat="43.25914" lon="1.37142">
        <ele>253</ele>
        <time>2017-10-07T15:05:45Z</time>
      </trkpt>
      <trkpt lat="43.25915" lon="1.37143">
        <ele>254</ele>
        <time>2017-10-07T15:05:46Z</time>
      </trkpt>
      <trkpt lat="43.25917" lon="1.37145">
        <ele>254</ele>
        <time>2017-10-07T15:05:47Z</time>
      </trkpt>
      <trkpt lat="43.25924" lon="1.37149">
        <ele>254</ele>
        <time>2017-10-07T15:05:51Z</time>
      </trkpt>
      <trkpt lat="43.25929" lon="1.37152">
        <ele>255</ele>
        <time>2017-10-07T15:05:54Z</time>
      </trkpt>
      <trkpt lat="43.25931" lon="1.37153">
        <ele>255</ele>
        <time>2017-10-07T15:05:55Z</time>
      </trkpt>
      <trkpt lat="43.25932" lon="1.37155">
        <ele>256</ele>
        <time>2017-10-07T15:05:56Z</time>
      </trkpt>
      <trkpt lat="43.25934" lon="1.37156">
        <ele>256</ele>
        <time>2017-10-07T15:05:57Z</time>
      </trkpt>
      <trkpt lat="43.25936" lon="1.37157">
        <ele>256</ele>
        <time>2017-10-07T15:05:58Z</time>
      </trkpt>
      <trkpt lat="43.25937" lon="1.37159">
        <ele>256</ele>
        <time>2017-10-07T15:05:59Z</time>
      </trkpt>
      <trkpt lat="43.25944" lon="1.37164">
        <ele>257</ele>
        <time>2017-10-07T15:06:03Z</time>
      </trkpt>
      <trkpt lat="43.25946" lon="1.37165">
        <ele>257</ele>
        <time>2017-10-07T15:06:04Z</time>
      </trkpt>
      <trkpt lat="43.25948" lon="1.37166">
        <ele>258</ele>
        <time>2017-10-07T15:06:05Z</time>
      </trkpt>
      <trkpt lat="43.25949" lon="1.37167">
        <ele>258</ele>
        <time>2017-10-07T15:06:06Z</time>
      </trkpt>
      <trkpt lat="43.25951" lon="1.37169">
        <ele>258</ele>
        <time>2017-10-07T15:06:07Z</time>
      </trkpt>
      <trkpt lat="43.25958" lon="1.37184">
        <ele>258</ele>
        <time>2017-10-07T15:06:13Z</time>
      </trkpt>
      <trkpt lat="43.25957" lon="1.3719">
        <ele>259</ele>
        <time>2017-10-07T15:06:15Z</time>
      </trkpt>
      <trkpt lat="43.25957" lon="1.37193">
        <ele>259</ele>
        <time>2017-10-07T15:06:16Z</time>
      </trkpt>
      <trkpt lat="43.25957" lon="1.37196">
        <ele>260</ele>
        <time>2017-10-07T15:06:17Z</time>
      </trkpt>
      <trkpt lat="43.25957" lon="1.37199">
        <ele>260</ele>
        <time>2017-10-07T15:06:18Z</time>
      </trkpt>
      <trkpt lat="43.25957" lon="1.37202">
        <ele>260</ele>
        <time>2017-10-07T15:06:19Z</time>
      </trkpt>
      <trkpt lat="43.25955" lon="1.37214">
        <ele>261</ele>
        <time>2017-10-07T15:06:24Z</time>
      </trkpt>
      <trkpt lat="43.25954" lon="1.37216">
        <ele>261</ele>
        <time>2017-10-07T15:06:25Z</time>
      </trkpt>
      <trkpt lat="43.25954" lon="1.37218">
        <ele>262</ele>
        <time>2017-10-07T15:06:26Z</time>
      </trkpt>
      <trkpt lat="43.25955" lon="1.3722">
        <ele>262</ele>
        <time>2017-10-07T15:06:27Z</time>
      </trkpt>
      <trkpt lat="43.25954" lon="1.37223">
        <ele>263</ele>
        <time>2017-10-07T15:06:28Z</time>
      </trkpt>
      <trkpt lat="43.25954" lon="1.3723">
        <ele>263</ele>
        <time>2017-10-07T15:06:31Z</time>
      </trkpt>
      <trkpt lat="43.25954" lon="1.37232">
        <ele>263</ele>
        <time>2017-10-07T15:06:32Z</time>
      </trkpt>
      <trkpt lat="43.25953" lon="1.37235">
        <ele>264</ele>
        <time>2017-10-07T15:06:33Z</time>
      </trkpt>
      <trkpt lat="43.25953" lon="1.37237">
        <ele>264</ele>
        <time>2017-10-07T15:06:34Z</time>
      </trkpt>
      <trkpt lat="43.25953" lon="1.37239">
        <ele>265</ele>
        <time>2017-10-07T15:06:35Z</time>
      </trkpt>
      <trkpt lat="43.25953" lon="1.37242">
        <ele>265</ele>
        <time>2017-10-07T15:06:36Z</time>
      </trkpt>
      <trkpt lat="43.25952" lon="1.37252">
        <ele>265</ele>
        <time>2017-10-07T15:06:40Z</time>
      </trkpt>
      <trkpt lat="43.25952" lon="1.37254">
        <ele>265</ele>
        <time>2017-10-07T15:06:41Z</time>
      </trkpt>
      <trkpt lat="43.25952" lon="1.37257">
        <ele>266</ele>
        <time>2017-10-07T15:06:42Z</time>
      </trkpt>
      <trkpt lat="43.25952" lon="1.37259">
        <ele>266</ele>
        <time>2017-10-07T15:06:43Z</time>
      </trkpt>
      <trkpt lat="43.25952" lon="1.37261">
        <ele>267</ele>
        <time>2017-10-07T15:06:44Z</time>
      </trkpt>
      <trkpt lat="43.25952" lon="1.37263">
        <ele>267</ele>
        <time>2017-10-07T15:06:45Z</time>
      </trkpt>
      <trkpt lat="43.25951" lon="1.37268">
        <ele>267</ele>
        <time>2017-10-07T15:06:47Z</time>
      </trkpt>
      <trkpt lat="43.2595" lon="1.37271">
        <ele>267</ele>
        <time>2017-10-07T15:06:48Z</time>
      </trkpt>
      <trkpt lat="43.2595" lon="1.37274">
        <ele>268</ele>
        <time>2017-10-07T15:06:49Z</time>
      </trkpt>
      <trkpt lat="43.2595" lon="1.37276">
        <ele>268</ele>
        <time>2017-10-07T15:06:50Z</time>
      </trkpt>
      <trkpt lat="43.2595" lon="1.37278">
        <ele>269</ele>
        <time>2017-10-07T15:06:51Z</time>
      </trkpt>
      <trkpt lat="43.2595" lon="1.3728">
        <ele>269</ele>
        <time>2017-10-07T15:06:52Z</time>
      </trkpt>
      <trkpt lat="43.2595" lon="1.37288">
        <ele>269</ele>
        <time>2017-10-07T15:06:55Z</time>
      </trkpt>
      <trkpt lat="43.25951" lon="1.37294">
        <ele>270</ele>
        <time>2017-10-07T15:06:57Z</time>
      </trkpt>
      <trkpt lat="43.2595" lon="1.37296">
        <ele>270</ele>
        <time>2017-10-07T15:06:58Z</time>
      </trkpt>
      <trkpt lat="43.2595" lon="1.37299">
        <ele>270</ele>
        <time>2017-10-07T15:06:59Z</time>
      </trkpt>
      <trkpt lat="43.25951" lon="1.37302">
        <ele>271</ele>
        <time>2017-10-07T15:07:00Z</time>
      </trkpt>
      <trkpt lat="43.25951" lon="1.37305">
        <ele>271</ele>
        <time>2017-10-07T15:07:01Z</time>
      </trkpt>
      <trkpt lat="43.25954" lon="1.37323">
        <ele>271</ele>
        <time>2017-10-07T15:07:06Z</time>
      </trkpt>
      <trkpt lat="43.25962" lon="1.37342">
        <ele>271</ele>
        <time>2017-10-07T15:07:10Z</time>
      </trkpt>
      <trkpt lat="43.25966" lon="1.37346">
        <ele>271</ele>
        <time>2017-10-07T15:07:11Z</time>
      </trkpt>
      <trkpt lat="43.25978" lon="1.37354">
        <ele>271</ele>
        <time>2017-10-07T15:07:14Z</time>
      </trkpt>
      <trkpt lat="43.25986" lon="1.37358">
        <ele>271</ele>
        <time>2017-10-07T15:07:16Z</time>
      </trkpt>
      <trkpt lat="43.26001" lon="1.37367">
        <ele>271</ele>
        <time>2017-10-07T15:07:21Z</time>
      </trkpt>
      <trkpt lat="43.26023" lon="1.37386">
        <ele>271</ele>
        <time>2017-10-07T15:07:29Z</time>
      </trkpt>
      <trkpt lat="43.26035" lon="1.374">
        <ele>271</ele>
        <time>2017-10-07T15:07:35Z</time>
      </trkpt>
      <trkpt lat="43.26038" lon="1.37403">
        <ele>272</ele>
        <time>2017-10-07T15:07:37Z</time>
      </trkpt>
      <trkpt lat="43.2604" lon="1.37405">
        <ele>272</ele>
        <time>2017-10-07T15:07:38Z</time>
      </trkpt>
      <trkpt lat="43.26042" lon="1.37407">
        <ele>273</ele>
        <time>2017-10-07T15:07:39Z</time>
      </trkpt>
      <trkpt lat="43.26044" lon="1.37409">
        <ele>273</ele>
        <time>2017-10-07T15:07:40Z</time>
      </trkpt>
      <trkpt lat="43.26046" lon="1.37412">
        <ele>273</ele>
        <time>2017-10-07T15:07:41Z</time>
      </trkpt>
      <trkpt lat="43.2605" lon="1.37416">
        <ele>273</ele>
        <time>2017-10-07T15:07:43Z</time>
      </trkpt>
      <trkpt lat="43.26052" lon="1.37418">
        <ele>274</ele>
        <time>2017-10-07T15:07:44Z</time>
      </trkpt>
      <trkpt lat="43.26054" lon="1.3742">
        <ele>274</ele>
        <time>2017-10-07T15:07:45Z</time>
      </trkpt>
      <trkpt lat="43.26056" lon="1.37422">
        <ele>275</ele>
        <time>2017-10-07T15:07:46Z</time>
      </trkpt>
      <trkpt lat="43.26058" lon="1.37425">
        <ele>275</ele>
        <time>2017-10-07T15:07:47Z</time>
      </trkpt>
      <trkpt lat="43.2606" lon="1.37427">
        <ele>275</ele>
        <time>2017-10-07T15:07:48Z</time>
      </trkpt>
      <trkpt lat="43.26064" lon="1.37431">
        <ele>275</ele>
        <time>2017-10-07T15:07:50Z</time>
      </trkpt>
      <trkpt lat="43.26074" lon="1.37441">
        <ele>276</ele>
        <time>2017-10-07T15:07:55Z</time>
      </trkpt>
      <trkpt lat="43.26077" lon="1.37444">
        <ele>276</ele>
        <time>2017-10-07T15:07:56Z</time>
      </trkpt>
      <trkpt lat="43.26078" lon="1.37447">
        <ele>277</ele>
        <time>2017-10-07T15:07:57Z</time>
      </trkpt>
      <trkpt lat="43.2608" lon="1.3745">
        <ele>277</ele>
        <time>2017-10-07T15:07:58Z</time>
      </trkpt>
      <trkpt lat="43.26083" lon="1.37452">
        <ele>278</ele>
        <time>2017-10-07T15:07:59Z</time>
      </trkpt>
      <trkpt lat="43.26094" lon="1.37462">
        <ele>278</ele>
        <time>2017-10-07T15:08:04Z</time>
      </trkpt>
      <trkpt lat="43.26108" lon="1.37475">
        <ele>278</ele>
        <time>2017-10-07T15:08:10Z</time>
      </trkpt>
      <trkpt lat="43.2611" lon="1.37477">
        <ele>279</ele>
        <time>2017-10-07T15:08:11Z</time>
      </trkpt>
      <trkpt lat="43.26112" lon="1.3748">
        <ele>279</ele>
        <time>2017-10-07T15:08:12Z</time>
      </trkpt>
      <trkpt lat="43.26115" lon="1.37482">
        <ele>279</ele>
        <time>2017-10-07T15:08:13Z</time>
      </trkpt>
      <trkpt lat="43.26117" lon="1.37484">
        <ele>280</ele>
        <time>2017-10-07T15:08:14Z</time>
      </trkpt>
      <trkpt lat="43.26124" lon="1.37491">
        <ele>280</ele>
        <time>2017-10-07T15:08:17Z</time>
      </trkpt>
      <trkpt lat="43.26133" lon="1.375">
        <ele>280</ele>
        <time>2017-10-07T15:08:21Z</time>
      </trkpt>
      <trkpt lat="43.26135" lon="1.37502">
        <ele>281</ele>
        <time>2017-10-07T15:08:22Z</time>
      </trkpt>
      <trkpt lat="43.26138" lon="1.37504">
        <ele>281</ele>
        <time>2017-10-07T15:08:23Z</time>
      </trkpt>
      <trkpt lat="43.2614" lon="1.37506">
        <ele>281</ele>
        <time>2017-10-07T15:08:24Z</time>
      </trkpt>
      <trkpt lat="43.26143" lon="1.37508">
        <ele>282</ele>
        <time>2017-10-07T15:08:25Z</time>
      </trkpt>
      <trkpt lat="43.26154" lon="1.37519">
        <ele>282</ele>
        <time>2017-10-07T15:08:30Z</time>
      </trkpt>
      <trkpt lat="43.26157" lon="1.37521">
        <ele>283</ele>
        <time>2017-10-07T15:08:31Z</time>
      </trkpt>
      <trkpt lat="43.26159" lon="1.37523">
        <ele>283</ele>
        <time>2017-10-07T15:08:32Z</time>
      </trkpt>
      <trkpt lat="43.26161" lon="1.37524">
        <ele>284</ele>
        <time>2017-10-07T15:08:33Z</time>
      </trkpt>
      <trkpt lat="43.26172" lon="1.37533">
        <ele>285</ele>
        <time>2017-10-07T15:08:38Z</time>
      </trkpt>
      <trkpt lat="43.26174" lon="1.37534">
        <ele>285</ele>
        <time>2017-10-07T15:08:39Z</time>
      </trkpt>
      <trkpt lat="43.26177" lon="1.37536">
        <ele>285</ele>
        <time>2017-10-07T15:08:40Z</time>
      </trkpt>
      <trkpt lat="43.26179" lon="1.37538">
        <ele>286</ele>
        <time>2017-10-07T15:08:41Z</time>
      </trkpt>
      <trkpt lat="43.26181" lon="1.3754">
        <ele>286</ele>
        <time>2017-10-07T15:08:42Z</time>
      </trkpt>
      <trkpt lat="43.26188" lon="1.37545">
        <ele>286</ele>
        <time>2017-10-07T15:08:45Z</time>
      </trkpt>
      <trkpt lat="43.26203" lon="1.37558">
        <ele>287</ele>
        <time>2017-10-07T15:08:51Z</time>
      </trkpt>
      <trkpt lat="43.26207" lon="1.3756">
        <ele>287</ele>
        <time>2017-10-07T15:08:52Z</time>
      </trkpt>
      <trkpt lat="43.2621" lon="1.37563">
        <ele>287</ele>
        <time>2017-10-07T15:08:53Z</time>
      </trkpt>
      <trkpt lat="43.26213" lon="1.37565">
        <ele>288</ele>
        <time>2017-10-07T15:08:54Z</time>
      </trkpt>
      <trkpt lat="43.26217" lon="1.37567">
        <ele>288</ele>
        <time>2017-10-07T15:08:55Z</time>
      </trkpt>
      <trkpt lat="43.26227" lon="1.37575">
        <ele>288</ele>
        <time>2017-10-07T15:08:58Z</time>
      </trkpt>
      <trkpt lat="43.26236" lon="1.37584">
        <ele>288</ele>
        <time>2017-10-07T15:09:01Z</time>
      </trkpt>
      <trkpt lat="43.26245" lon="1.37594">
        <ele>288</ele>
        <time>2017-10-07T15:09:04Z</time>
      </trkpt>
      <trkpt lat="43.26265" lon="1.3762">
        <ele>288</ele>
        <time>2017-10-07T15:09:11Z</time>
      </trkpt>
      <trkpt lat="43.26284" lon="1.37642">
        <ele>288</ele>
        <time>2017-10-07T15:09:18Z</time>
      </trkpt>
      <trkpt lat="43.26289" lon="1.37649">
        <ele>289</ele>
        <time>2017-10-07T15:09:20Z</time>
      </trkpt>
      <trkpt lat="43.26292" lon="1.37652">
        <ele>289</ele>
        <time>2017-10-07T15:09:21Z</time>
      </trkpt>
      <trkpt lat="43.26295" lon="1.37655">
        <ele>289</ele>
        <time>2017-10-07T15:09:22Z</time>
      </trkpt>
      <trkpt lat="43.26298" lon="1.37659">
        <ele>290</ele>
        <time>2017-10-07T15:09:23Z</time>
      </trkpt>
      <trkpt lat="43.26304" lon="1.37664">
        <ele>290</ele>
        <time>2017-10-07T15:09:25Z</time>
      </trkpt>
      <trkpt lat="43.26326" lon="1.37685">
        <ele>290</ele>
        <time>2017-10-07T15:09:32Z</time>
      </trkpt>
      <trkpt lat="43.26344" lon="1.37701">
        <ele>290</ele>
        <time>2017-10-07T15:09:38Z</time>
      </trkpt>
      <trkpt lat="43.26358" lon="1.3772">
        <ele>290</ele>
        <time>2017-10-07T15:09:44Z</time>
      </trkpt>
      <trkpt lat="43.26361" lon="1.37724">
        <ele>291</ele>
        <time>2017-10-07T15:09:45Z</time>
      </trkpt>
      <trkpt lat="43.26364" lon="1.37728">
        <ele>291</ele>
        <time>2017-10-07T15:09:46Z</time>
      </trkpt>
      <trkpt lat="43.26366" lon="1.37732">
        <ele>292</ele>
        <time>2017-10-07T15:09:47Z</time>
      </trkpt>
      <trkpt lat="43.2637" lon="1.37736">
        <ele>292</ele>
        <time>2017-10-07T15:09:48Z</time>
      </trkpt>
      <trkpt lat="43.26373" lon="1.3774">
        <ele>292</ele>
        <time>2017-10-07T15:09:49Z</time>
      </trkpt>
      <trkpt lat="43.26375" lon="1.37745">
        <ele>292</ele>
        <time>2017-10-07T15:09:50Z</time>
      </trkpt>
      <trkpt lat="43.26382" lon="1.37765">
        <ele>292</ele>
        <time>2017-10-07T15:09:54Z</time>
      </trkpt>
      <trkpt lat="43.26394" lon="1.37794">
        <ele>292</ele>
        <time>2017-10-07T15:09:58Z</time>
      </trkpt>
      <trkpt lat="43.26398" lon="1.37803">
        <ele>292</ele>
        <time>2017-10-07T15:09:59Z</time>
      </trkpt>
      <trkpt lat="43.26402" lon="1.37813">
        <ele>291</ele>
        <time>2017-10-07T15:10:00Z</time>
      </trkpt>
      <trkpt lat="43.26406" lon="1.37823">
        <ele>291</ele>
        <time>2017-10-07T15:10:01Z</time>
      </trkpt>
      <trkpt lat="43.2641" lon="1.37833">
        <ele>290</ele>
        <time>2017-10-07T15:10:02Z</time>
      </trkpt>
      <trkpt lat="43.26414" lon="1.37843">
        <ele>289</ele>
        <time>2017-10-07T15:10:03Z</time>
      </trkpt>
      <trkpt lat="43.26418" lon="1.37853">
        <ele>289</ele>
        <time>2017-10-07T15:10:04Z</time>
      </trkpt>
      <trkpt lat="43.26422" lon="1.37863">
        <ele>288</ele>
        <time>2017-10-07T15:10:05Z</time>
      </trkpt>
      <trkpt lat="43.26426" lon="1.37871">
        <ele>288</ele>
        <time>2017-10-07T15:10:06Z</time>
      </trkpt>
      <trkpt lat="43.26429" lon="1.37877">
        <ele>288</ele>
        <time>2017-10-07T15:10:07Z</time>
      </trkpt>
      <trkpt lat="43.26436" lon="1.37892">
        <ele>288</ele>
        <time>2017-10-07T15:10:09Z</time>
      </trkpt>
      <trkpt lat="43.26442" lon="1.37905">
        <ele>288</ele>
        <time>2017-10-07T15:10:11Z</time>
      </trkpt>
      <trkpt lat="43.26445" lon="1.37912">
        <ele>288</ele>
        <time>2017-10-07T15:10:12Z</time>
      </trkpt>
      <trkpt lat="43.26454" lon="1.37932">
        <ele>288</ele>
        <time>2017-10-07T15:10:15Z</time>
      </trkpt>
      <trkpt lat="43.26462" lon="1.37948">
        <ele>288</ele>
        <time>2017-10-07T15:10:17Z</time>
      </trkpt>
      <trkpt lat="43.26483" lon="1.37997">
        <ele>288</ele>
        <time>2017-10-07T15:10:22Z</time>
      </trkpt>
      <trkpt lat="43.26502" lon="1.38036">
        <ele>288</ele>
        <time>2017-10-07T15:10:27Z</time>
      </trkpt>
      <trkpt lat="43.26514" lon="1.38049">
        <ele>288</ele>
        <time>2017-10-07T15:10:31Z</time>
      </trkpt>
      <trkpt lat="43.26525" lon="1.38041">
        <ele>288</ele>
        <time>2017-10-07T15:10:34Z</time>
      </trkpt>
      <trkpt lat="43.26533" lon="1.38032">
        <ele>288</ele>
        <time>2017-10-07T15:10:36Z</time>
      </trkpt>
      <trkpt lat="43.26546" lon="1.38018">
        <ele>288</ele>
        <time>2017-10-07T15:10:39Z</time>
      </trkpt>
      <trkpt lat="43.26572" lon="1.37991">
        <ele>287</ele>
        <time>2017-10-07T15:10:45Z</time>
      </trkpt>
      <trkpt lat="43.26576" lon="1.37986">
        <ele>287</ele>
        <time>2017-10-07T15:10:46Z</time>
      </trkpt>
      <trkpt lat="43.26581" lon="1.37982">
        <ele>287</ele>
        <time>2017-10-07T15:10:47Z</time>
      </trkpt>
      <trkpt lat="43.26585" lon="1.37977">
        <ele>286</ele>
        <time>2017-10-07T15:10:48Z</time>
      </trkpt>
      <trkpt lat="43.26589" lon="1.37972">
        <ele>286</ele>
        <time>2017-10-07T15:10:49Z</time>
      </trkpt>
      <trkpt lat="43.26593" lon="1.37967">
        <ele>286</ele>
        <time>2017-10-07T15:10:50Z</time>
      </trkpt>
      <trkpt lat="43.26614" lon="1.37944">
        <ele>286</ele>
        <time>2017-10-07T15:10:55Z</time>
      </trkpt>
      <trkpt lat="43.26622" lon="1.37935">
        <ele>286</ele>
        <time>2017-10-07T15:10:57Z</time>
      </trkpt>
      <trkpt lat="43.26645" lon="1.37909">
        <ele>286</ele>
        <time>2017-10-07T15:11:03Z</time>
      </trkpt>
      <trkpt lat="43.26665" lon="1.37891">
        <ele>286</ele>
        <time>2017-10-07T15:11:07Z</time>
      </trkpt>
      <trkpt lat="43.26689" lon="1.37865">
        <ele>286</ele>
        <time>2017-10-07T15:11:12Z</time>
      </trkpt>
      <trkpt lat="43.26693" lon="1.37861">
        <ele>286</ele>
        <time>2017-10-07T15:11:13Z</time>
      </trkpt>
      <trkpt lat="43.26709" lon="1.37844">
        <ele>286</ele>
        <time>2017-10-07T15:11:17Z</time>
      </trkpt>
      <trkpt lat="43.26725" lon="1.37827">
        <ele>286</ele>
        <time>2017-10-07T15:11:21Z</time>
      </trkpt>
      <trkpt lat="43.26752" lon="1.37799">
        <ele>286</ele>
        <time>2017-10-07T15:11:28Z</time>
      </trkpt>
      <trkpt lat="43.26755" lon="1.37795">
        <ele>286</ele>
        <time>2017-10-07T15:11:29Z</time>
      </trkpt>
      <trkpt lat="43.26759" lon="1.37791">
        <ele>286</ele>
        <time>2017-10-07T15:11:30Z</time>
      </trkpt>
      <trkpt lat="43.26763" lon="1.37787">
        <ele>287</ele>
        <time>2017-10-07T15:11:31Z</time>
      </trkpt>
      <trkpt lat="43.26767" lon="1.37783">
        <ele>287</ele>
        <time>2017-10-07T15:11:32Z</time>
      </trkpt>
      <trkpt lat="43.2677" lon="1.37779">
        <ele>288</ele>
        <time>2017-10-07T15:11:33Z</time>
      </trkpt>
      <trkpt lat="43.26774" lon="1.37775">
        <ele>288</ele>
        <time>2017-10-07T15:11:34Z</time>
      </trkpt>
      <trkpt lat="43.26788" lon="1.3776">
        <ele>288</ele>
        <time>2017-10-07T15:11:38Z</time>
      </trkpt>
      <trkpt lat="43.26801" lon="1.37746">
        <ele>288</ele>
        <time>2017-10-07T15:11:42Z</time>
      </trkpt>
      <trkpt lat="43.26804" lon="1.37743">
        <ele>289</ele>
        <time>2017-10-07T15:11:43Z</time>
      </trkpt>
      <trkpt lat="43.26808" lon="1.3774">
        <ele>289</ele>
        <time>2017-10-07T15:11:44Z</time>
      </trkpt>
      <trkpt lat="43.26811" lon="1.37737">
        <ele>290</ele>
        <time>2017-10-07T15:11:45Z</time>
      </trkpt>
      <trkpt lat="43.26815" lon="1.37733">
        <ele>290</ele>
        <time>2017-10-07T15:11:46Z</time>
      </trkpt>
      <trkpt lat="43.26818" lon="1.37729">
        <ele>290</ele>
        <time>2017-10-07T15:11:47Z</time>
      </trkpt>
      <trkpt lat="43.26827" lon="1.37717">
        <ele>291</ele>
        <time>2017-10-07T15:11:50Z</time>
      </trkpt>
      <trkpt lat="43.26829" lon="1.37713">
        <ele>291</ele>
        <time>2017-10-07T15:11:51Z</time>
      </trkpt>
      <trkpt lat="43.26832" lon="1.3771">
        <ele>292</ele>
        <time>2017-10-07T15:11:52Z</time>
      </trkpt>
      <trkpt lat="43.26834" lon="1.37706">
        <ele>292</ele>
        <time>2017-10-07T15:11:53Z</time>
      </trkpt>
      <trkpt lat="43.26841" lon="1.37695">
        <ele>293</ele>
        <time>2017-10-07T15:11:56Z</time>
      </trkpt>
      <trkpt lat="43.26843" lon="1.37691">
        <ele>293</ele>
        <time>2017-10-07T15:11:57Z</time>
      </trkpt>
      <trkpt lat="43.26846" lon="1.37686">
        <ele>294</ele>
        <time>2017-10-07T15:11:58Z</time>
      </trkpt>
      <trkpt lat="43.26848" lon="1.37681">
        <ele>294</ele>
        <time>2017-10-07T15:11:59Z</time>
      </trkpt>
      <trkpt lat="43.26851" lon="1.37677">
        <ele>294</ele>
        <time>2017-10-07T15:12:00Z</time>
      </trkpt>
      <trkpt lat="43.26859" lon="1.37663">
        <ele>294</ele>
        <time>2017-10-07T15:12:03Z</time>
      </trkpt>
      <trkpt lat="43.26867" lon="1.37645">
        <ele>295</ele>
        <time>2017-10-07T15:12:07Z</time>
      </trkpt>
      <trkpt lat="43.26868" lon="1.3764">
        <ele>295</ele>
        <time>2017-10-07T15:12:08Z</time>
      </trkpt>
      <trkpt lat="43.2687" lon="1.37636">
        <ele>296</ele>
        <time>2017-10-07T15:12:09Z</time>
      </trkpt>
      <trkpt lat="43.26872" lon="1.37632">
        <ele>296</ele>
        <time>2017-10-07T15:12:10Z</time>
      </trkpt>
      <trkpt lat="43.26873" lon="1.37627">
        <ele>297</ele>
        <time>2017-10-07T15:12:11Z</time>
      </trkpt>
      <trkpt lat="43.26885" lon="1.37598">
        <ele>297</ele>
        <time>2017-10-07T15:12:17Z</time>
      </trkpt>
      <trkpt lat="43.26896" lon="1.37572">
        <ele>297</ele>
        <time>2017-10-07T15:12:23Z</time>
      </trkpt>
      <trkpt lat="43.26907" lon="1.37538">
        <ele>297</ele>
        <time>2017-10-07T15:12:30Z</time>
      </trkpt>
      <trkpt lat="43.26913" lon="1.37525">
        <ele>297</ele>
        <time>2017-10-07T15:12:33Z</time>
      </trkpt>
      <trkpt lat="43.26915" lon="1.37521">
        <ele>298</ele>
        <time>2017-10-07T15:12:34Z</time>
      </trkpt>
      <trkpt lat="43.26917" lon="1.37517">
        <ele>298</ele>
        <time>2017-10-07T15:12:35Z</time>
      </trkpt>
      <trkpt lat="43.26919" lon="1.37512">
        <ele>298</ele>
        <time>2017-10-07T15:12:36Z</time>
      </trkpt>
      <trkpt lat="43.26921" lon="1.37507">
        <ele>299</ele>
        <time>2017-10-07T15:12:37Z</time>
      </trkpt>
      <trkpt lat="43.26933" lon="1.37478">
        <ele>299</ele>
        <time>2017-10-07T15:12:43Z</time>
      </trkpt>
      <trkpt lat="43.26935" lon="1.37473">
        <ele>299</ele>
        <time>2017-10-07T15:12:44Z</time>
      </trkpt>
      <trkpt lat="43.26942" lon="1.37453">
        <ele>299</ele>
        <time>2017-10-07T15:12:48Z</time>
      </trkpt>
      <trkpt lat="43.26949" lon="1.37437">
        <ele>299</ele>
        <time>2017-10-07T15:12:51Z</time>
      </trkpt>
      <trkpt lat="43.26962" lon="1.37406">
        <ele>299</ele>
        <time>2017-10-07T15:12:57Z</time>
      </trkpt>
      <trkpt lat="43.2697" lon="1.37386">
        <ele>299</ele>
        <time>2017-10-07T15:13:01Z</time>
      </trkpt>
      <trkpt lat="43.26974" lon="1.37377">
        <ele>299</ele>
        <time>2017-10-07T15:13:03Z</time>
      </trkpt>
      <trkpt lat="43.2698" lon="1.37363">
        <ele>299</ele>
        <time>2017-10-07T15:13:06Z</time>
      </trkpt>
      <trkpt lat="43.26986" lon="1.37347">
        <ele>299</ele>
        <time>2017-10-07T15:13:09Z</time>
      </trkpt>
      <trkpt lat="43.26992" lon="1.37331">
        <ele>299</ele>
        <time>2017-10-07T15:13:12Z</time>
      </trkpt>
      <trkpt lat="43.26995" lon="1.37326">
        <ele>299</ele>
        <time>2017-10-07T15:13:13Z</time>
      </trkpt>
      <trkpt lat="43.27" lon="1.37314">
        <ele>299</ele>
        <time>2017-10-07T15:13:15Z</time>
      </trkpt>
      <trkpt lat="43.27015" lon="1.37274">
        <ele>299</ele>
        <time>2017-10-07T15:13:21Z</time>
      </trkpt>
      <trkpt lat="43.27019" lon="1.37259">
        <ele>298</ele>
        <time>2017-10-07T15:13:23Z</time>
      </trkpt>
      <trkpt lat="43.27021" lon="1.3725">
        <ele>298</ele>
        <time>2017-10-07T15:13:24Z</time>
      </trkpt>
      <trkpt lat="43.27024" lon="1.37242">
        <ele>297</ele>
        <time>2017-10-07T15:13:25Z</time>
      </trkpt>
      <trkpt lat="43.27026" lon="1.37234">
        <ele>297</ele>
        <time>2017-10-07T15:13:26Z</time>
      </trkpt>
      <trkpt lat="43.27028" lon="1.37226">
        <ele>297</ele>
        <time>2017-10-07T15:13:27Z</time>
      </trkpt>
      <trkpt lat="43.27036" lon="1.37204">
        <ele>296</ele>
        <time>2017-10-07T15:13:30Z</time>
      </trkpt>
      <trkpt lat="43.27039" lon="1.37196">
        <ele>295</ele>
        <time>2017-10-07T15:13:31Z</time>
      </trkpt>
      <trkpt lat="43.27041" lon="1.37188">
        <ele>295</ele>
        <time>2017-10-07T15:13:32Z</time>
      </trkpt>
      <trkpt lat="43.27044" lon="1.3718">
        <ele>294</ele>
        <time>2017-10-07T15:13:33Z</time>
      </trkpt>
      <trkpt lat="43.27051" lon="1.37152">
        <ele>294</ele>
        <time>2017-10-07T15:13:36Z</time>
      </trkpt>
      <trkpt lat="43.27059" lon="1.37123">
        <ele>294</ele>
        <time>2017-10-07T15:13:39Z</time>
      </trkpt>
      <trkpt lat="43.2707" lon="1.37081">
        <ele>294</ele>
        <time>2017-10-07T15:13:43Z</time>
      </trkpt>
      <trkpt lat="43.27078" lon="1.37039">
        <ele>294</ele>
        <time>2017-10-07T15:13:47Z</time>
      </trkpt>
      <trkpt lat="43.2708" lon="1.37029">
        <ele>294</ele>
        <time>2017-10-07T15:13:48Z</time>
      </trkpt>
      <trkpt lat="43.27082" lon="1.3702">
        <ele>293</ele>
        <time>2017-10-07T15:13:49Z</time>
      </trkpt>
      <trkpt lat="43.27083" lon="1.37011">
        <ele>293</ele>
        <time>2017-10-07T15:13:50Z</time>
      </trkpt>
      <trkpt lat="43.27085" lon="1.37002">
        <ele>292</ele>
        <time>2017-10-07T15:13:51Z</time>
      </trkpt>
      <trkpt lat="43.2709" lon="1.36974">
        <ele>292</ele>
        <time>2017-10-07T15:13:54Z</time>
      </trkpt>
      <trkpt lat="43.27092" lon="1.36965">
        <ele>292</ele>
        <time>2017-10-07T15:13:55Z</time>
      </trkpt>
      <trkpt lat="43.27102" lon="1.36915">
        <ele>292</ele>
        <time>2017-10-07T15:14:01Z</time>
      </trkpt>
      <trkpt lat="43.27119" lon="1.36853">
        <ele>292</ele>
        <time>2017-10-07T15:14:09Z</time>
      </trkpt>
      <trkpt lat="43.27121" lon="1.36846">
        <ele>292</ele>
        <time>2017-10-07T15:14:10Z</time>
      </trkpt>
      <trkpt lat="43.27123" lon="1.36839">
        <ele>292</ele>
        <time>2017-10-07T15:14:11Z</time>
      </trkpt>
      <trkpt lat="43.27125" lon="1.36833">
        <ele>291</ele>
        <time>2017-10-07T15:14:12Z</time>
      </trkpt>
      <trkpt lat="43.27127" lon="1.36826">
        <ele>291</ele>
        <time>2017-10-07T15:14:13Z</time>
      </trkpt>
      <trkpt lat="43.2713" lon="1.36818">
        <ele>290</ele>
        <time>2017-10-07T15:14:14Z</time>
      </trkpt>
      <trkpt lat="43.27134" lon="1.36803">
        <ele>290</ele>
        <time>2017-10-07T15:14:16Z</time>
      </trkpt>
      <trkpt lat="43.27141" lon="1.36773">
        <ele>289</ele>
        <time>2017-10-07T15:14:20Z</time>
      </trkpt>
      <trkpt lat="43.27143" lon="1.36765">
        <ele>289</ele>
        <time>2017-10-07T15:14:21Z</time>
      </trkpt>
      <trkpt lat="43.27145" lon="1.36758">
        <ele>288</ele>
        <time>2017-10-07T15:14:22Z</time>
      </trkpt>
      <trkpt lat="43.27147" lon="1.36749">
        <ele>288</ele>
        <time>2017-10-07T15:14:23Z</time>
      </trkpt>
      <trkpt lat="43.27152" lon="1.36725">
        <ele>288</ele>
        <time>2017-10-07T15:14:26Z</time>
      </trkpt>
      <trkpt lat="43.27154" lon="1.36717">
        <ele>287</ele>
        <time>2017-10-07T15:14:27Z</time>
      </trkpt>
      <trkpt lat="43.27156" lon="1.36709">
        <ele>287</ele>
        <time>2017-10-07T15:14:28Z</time>
      </trkpt>
      <trkpt lat="43.27157" lon="1.367">
        <ele>286</ele>
        <time>2017-10-07T15:14:29Z</time>
      </trkpt>
      <trkpt lat="43.2716" lon="1.36692">
        <ele>286</ele>
        <time>2017-10-07T15:14:30Z</time>
      </trkpt>
      <trkpt lat="43.27162" lon="1.36683">
        <ele>286</ele>
        <time>2017-10-07T15:14:31Z</time>
      </trkpt>
      <trkpt lat="43.27169" lon="1.36657">
        <ele>285</ele>
        <time>2017-10-07T15:14:34Z</time>
      </trkpt>
      <trkpt lat="43.27171" lon="1.36647">
        <ele>285</ele>
        <time>2017-10-07T15:14:35Z</time>
      </trkpt>
      <trkpt lat="43.27173" lon="1.36638">
        <ele>284</ele>
        <time>2017-10-07T15:14:36Z</time>
      </trkpt>
      <trkpt lat="43.27174" lon="1.36629">
        <ele>284</ele>
        <time>2017-10-07T15:14:37Z</time>
      </trkpt>
      <trkpt lat="43.27176" lon="1.36619">
        <ele>283</ele>
        <time>2017-10-07T15:14:38Z</time>
      </trkpt>
      <trkpt lat="43.27181" lon="1.3659">
        <ele>283</ele>
        <time>2017-10-07T15:14:41Z</time>
      </trkpt>
      <trkpt lat="43.27183" lon="1.36581">
        <ele>283</ele>
        <time>2017-10-07T15:14:42Z</time>
      </trkpt>
      <trkpt lat="43.27186" lon="1.36573">
        <ele>282</ele>
        <time>2017-10-07T15:14:43Z</time>
      </trkpt>
      <trkpt lat="43.27189" lon="1.36564">
        <ele>282</ele>
        <time>2017-10-07T15:14:44Z</time>
      </trkpt>
      <trkpt lat="43.27191" lon="1.36557">
        <ele>281</ele>
        <time>2017-10-07T15:14:45Z</time>
      </trkpt>
      <trkpt lat="43.27192" lon="1.36547">
        <ele>281</ele>
        <time>2017-10-07T15:14:46Z</time>
      </trkpt>
      <trkpt lat="43.27194" lon="1.36529">
        <ele>281</ele>
        <time>2017-10-07T15:14:48Z</time>
      </trkpt>
      <trkpt lat="43.27196" lon="1.36475">
        <ele>281</ele>
        <time>2017-10-07T15:14:54Z</time>
      </trkpt>
      <trkpt lat="43.27197" lon="1.36467">
        <ele>281</ele>
        <time>2017-10-07T15:14:55Z</time>
      </trkpt>
      <trkpt lat="43.27197" lon="1.36452">
        <ele>281</ele>
        <time>2017-10-07T15:14:57Z</time>
      </trkpt>
      <trkpt lat="43.27195" lon="1.36431">
        <ele>281</ele>
        <time>2017-10-07T15:15:00Z</time>
      </trkpt>
      <trkpt lat="43.27195" lon="1.36423">
        <ele>280</ele>
        <time>2017-10-07T15:15:01Z</time>
      </trkpt>
      <trkpt lat="43.27194" lon="1.36416">
        <ele>280</ele>
        <time>2017-10-07T15:15:02Z</time>
      </trkpt>
      <trkpt lat="43.27195" lon="1.36409">
        <ele>279</ele>
        <time>2017-10-07T15:15:03Z</time>
      </trkpt>
      <trkpt lat="43.27194" lon="1.36402">
        <ele>279</ele>
        <time>2017-10-07T15:15:04Z</time>
      </trkpt>
      <trkpt lat="43.27195" lon="1.36387">
        <ele>279</ele>
        <time>2017-10-07T15:15:07Z</time>
      </trkpt>
      <trkpt lat="43.27198" lon="1.36379">
        <ele>279</ele>
        <time>2017-10-07T15:15:09Z</time>
      </trkpt>
      <trkpt lat="43.27199" lon="1.36375">
        <ele>278</ele>
        <time>2017-10-07T15:15:10Z</time>
      </trkpt>
      <trkpt lat="43.27201" lon="1.36372">
        <ele>278</ele>
        <time>2017-10-07T15:15:11Z</time>
      </trkpt>
      <trkpt lat="43.27204" lon="1.36369">
        <ele>277</ele>
        <time>2017-10-07T15:15:12Z</time>
      </trkpt>
      <trkpt lat="43.27206" lon="1.36366">
        <ele>277</ele>
        <time>2017-10-07T15:15:13Z</time>
      </trkpt>
      <trkpt lat="43.27208" lon="1.36362">
        <ele>276</ele>
        <time>2017-10-07T15:15:14Z</time>
      </trkpt>
      <trkpt lat="43.2721" lon="1.36358">
        <ele>276</ele>
        <time>2017-10-07T15:15:15Z</time>
      </trkpt>
      <trkpt lat="43.27212" lon="1.36353">
        <ele>275</ele>
        <time>2017-10-07T15:15:16Z</time>
      </trkpt>
      <trkpt lat="43.27214" lon="1.36347">
        <ele>274</ele>
        <time>2017-10-07T15:15:17Z</time>
      </trkpt>
      <trkpt lat="43.27216" lon="1.3634">
        <ele>274</ele>
        <time>2017-10-07T15:15:18Z</time>
      </trkpt>
      <trkpt lat="43.27218" lon="1.36334">
        <ele>273</ele>
        <time>2017-10-07T15:15:19Z</time>
      </trkpt>
      <trkpt lat="43.27221" lon="1.36328">
        <ele>273</ele>
        <time>2017-10-07T15:15:20Z</time>
      </trkpt>
      <trkpt lat="43.27223" lon="1.36321">
        <ele>272</ele>
        <time>2017-10-07T15:15:21Z</time>
      </trkpt>
      <trkpt lat="43.27225" lon="1.36315">
        <ele>271</ele>
        <time>2017-10-07T15:15:22Z</time>
      </trkpt>
      <trkpt lat="43.27226" lon="1.36309">
        <ele>271</ele>
        <time>2017-10-07T15:15:23Z</time>
      </trkpt>
      <trkpt lat="43.27228" lon="1.36302">
        <ele>270</ele>
        <time>2017-10-07T15:15:24Z</time>
      </trkpt>
      <trkpt lat="43.2723" lon="1.36296">
        <ele>269</ele>
        <time>2017-10-07T15:15:25Z</time>
      </trkpt>
      <trkpt lat="43.27234" lon="1.36289">
        <ele>268</ele>
        <time>2017-10-07T15:15:26Z</time>
      </trkpt>
      <trkpt lat="43.27238" lon="1.36282">
        <ele>268</ele>
        <time>2017-10-07T15:15:27Z</time>
      </trkpt>
      <trkpt lat="43.27242" lon="1.36277">
        <ele>267</ele>
        <time>2017-10-07T15:15:28Z</time>
      </trkpt>
      <trkpt lat="43.27247" lon="1.36271">
        <ele>266</ele>
        <time>2017-10-07T15:15:29Z</time>
      </trkpt>
      <trkpt lat="43.27251" lon="1.36266">
        <ele>266</ele>
        <time>2017-10-07T15:15:30Z</time>
      </trkpt>
      <trkpt lat="43.27254" lon="1.3626">
        <ele>265</ele>
        <time>2017-10-07T15:15:31Z</time>
      </trkpt>
      <trkpt lat="43.27258" lon="1.36255">
        <ele>264</ele>
        <time>2017-10-07T15:15:32Z</time>
      </trkpt>
      <trkpt lat="43.27263" lon="1.3625">
        <ele>263</ele>
        <time>2017-10-07T15:15:33Z</time>
      </trkpt>
      <trkpt lat="43.27267" lon="1.36245">
        <ele>262</ele>
        <time>2017-10-07T15:15:34Z</time>
      </trkpt>
      <trkpt lat="43.27271" lon="1.36239">
        <ele>261</ele>
        <time>2017-10-07T15:15:35Z</time>
      </trkpt>
      <trkpt lat="43.27275" lon="1.36233">
        <ele>260</ele>
        <time>2017-10-07T15:15:36Z</time>
      </trkpt>
      <trkpt lat="43.2728" lon="1.36227">
        <ele>259</ele>
        <time>2017-10-07T15:15:37Z</time>
      </trkpt>
      <trkpt lat="43.27284" lon="1.36222">
        <ele>258</ele>
        <time>2017-10-07T15:15:38Z</time>
      </trkpt>
      <trkpt lat="43.27289" lon="1.36216">
        <ele>257</ele>
        <time>2017-10-07T15:15:39Z</time>
      </trkpt>
      <trkpt lat="43.27293" lon="1.3621">
        <ele>256</ele>
        <time>2017-10-07T15:15:40Z</time>
      </trkpt>
      <trkpt lat="43.27298" lon="1.36204">
        <ele>255</ele>
        <time>2017-10-07T15:15:41Z</time>
      </trkpt>
      <trkpt lat="43.27302" lon="1.36197">
        <ele>254</ele>
        <time>2017-10-07T15:15:42Z</time>
      </trkpt>
      <trkpt lat="43.27307" lon="1.36191">
        <ele>253</ele>
        <time>2017-10-07T15:15:43Z</time>
      </trkpt>
      <trkpt lat="43.27312" lon="1.36185">
        <ele>252</ele>
        <time>2017-10-07T15:15:44Z</time>
      </trkpt>
      <trkpt lat="43.27317" lon="1.3618">
        <ele>252</ele>
        <time>2017-10-07T15:15:45Z</time>
      </trkpt>
      <trkpt lat="43.27321" lon="1.36175">
        <ele>251</ele>
        <time>2017-10-07T15:15:46Z</time>
      </trkpt>
      <trkpt lat="43.27324" lon="1.36171">
        <ele>250</ele>
        <time>2017-10-07T15:15:47Z</time>
      </trkpt>
      <trkpt lat="43.27327" lon="1.36166">
        <ele>249</ele>
        <time>2017-10-07T15:15:48Z</time>
      </trkpt>
      <trkpt lat="43.27332" lon="1.3616">
        <ele>248</ele>
        <time>2017-10-07T15:15:49Z</time>
      </trkpt>
      <trkpt lat="43.27336" lon="1.36155">
        <ele>247</ele>
        <time>2017-10-07T15:15:50Z</time>
      </trkpt>
      <trkpt lat="43.2734" lon="1.36149">
        <ele>246</ele>
        <time>2017-10-07T15:15:51Z</time>
      </trkpt>
      <trkpt lat="43.27344" lon="1.36143">
        <ele>245</ele>
        <time>2017-10-07T15:15:52Z</time>
      </trkpt>
      <trkpt lat="43.27348" lon="1.36136">
        <ele>245</ele>
        <time>2017-10-07T15:15:53Z</time>
      </trkpt>
      <trkpt lat="43.27352" lon="1.3613">
        <ele>244</ele>
        <time>2017-10-07T15:15:54Z</time>
      </trkpt>
      <trkpt lat="43.27357" lon="1.36123">
        <ele>243</ele>
        <time>2017-10-07T15:15:55Z</time>
      </trkpt>
      <trkpt lat="43.2736" lon="1.36117">
        <ele>242</ele>
        <time>2017-10-07T15:15:56Z</time>
      </trkpt>
      <trkpt lat="43.27365" lon="1.3611">
        <ele>241</ele>
        <time>2017-10-07T15:15:57Z</time>
      </trkpt>
      <trkpt lat="43.27369" lon="1.36103">
        <ele>240</ele>
        <time>2017-10-07T15:15:58Z</time>
      </trkpt>
      <trkpt lat="43.27373" lon="1.36096">
        <ele>238</ele>
        <time>2017-10-07T15:15:59Z</time>
      </trkpt>
      <trkpt lat="43.27377" lon="1.36089">
        <ele>237</ele>
        <time>2017-10-07T15:16:00Z</time>
      </trkpt>
      <trkpt lat="43.27381" lon="1.36081">
        <ele>236</ele>
        <time>2017-10-07T15:16:01Z</time>
      </trkpt>
      <trkpt lat="43.27385" lon="1.36073">
        <ele>236</ele>
        <time>2017-10-07T15:16:02Z</time>
      </trkpt>
      <trkpt lat="43.27389" lon="1.36067">
        <ele>235</ele>
        <time>2017-10-07T15:16:03Z</time>
      </trkpt>
      <trkpt lat="43.27393" lon="1.36059">
        <ele>234</ele>
        <time>2017-10-07T15:16:04Z</time>
      </trkpt>
      <trkpt lat="43.27396" lon="1.36053">
        <ele>233</ele>
        <time>2017-10-07T15:16:05Z</time>
      </trkpt>
      <trkpt lat="43.274" lon="1.36047">
        <ele>232</ele>
        <time>2017-10-07T15:16:06Z</time>
      </trkpt>
      <trkpt lat="43.27404" lon="1.36039">
        <ele>231</ele>
        <time>2017-10-07T15:16:07Z</time>
      </trkpt>
      <trkpt lat="43.27407" lon="1.36032">
        <ele>230</ele>
        <time>2017-10-07T15:16:08Z</time>
      </trkpt>
      <trkpt lat="43.27411" lon="1.36023">
        <ele>229</ele>
        <time>2017-10-07T15:16:09Z</time>
      </trkpt>
      <trkpt lat="43.27414" lon="1.36016">
        <ele>228</ele>
        <time>2017-10-07T15:16:10Z</time>
      </trkpt>
      <trkpt lat="43.27417" lon="1.36009">
        <ele>227</ele>
        <time>2017-10-07T15:16:11Z</time>
      </trkpt>
      <trkpt lat="43.27421" lon="1.36001">
        <ele>226</ele>
        <time>2017-10-07T15:16:12Z</time>
      </trkpt>
      <trkpt lat="43.27423" lon="1.35994">
        <ele>224</ele>
        <time>2017-10-07T15:16:13Z</time>
      </trkpt>
      <trkpt lat="43.27427" lon="1.35985">
        <ele>223</ele>
        <time>2017-10-07T15:16:14Z</time>
      </trkpt>
      <trkpt lat="43.2743" lon="1.35977">
        <ele>222</ele>
        <time>2017-10-07T15:16:15Z</time>
      </trkpt>
      <trkpt lat="43.27433" lon="1.35969">
        <ele>221</ele>
        <time>2017-10-07T15:16:16Z</time>
      </trkpt>
      <trkpt lat="43.27436" lon="1.35962">
        <ele>220</ele>
        <time>2017-10-07T15:16:17Z</time>
      </trkpt>
      <trkpt lat="43.27438" lon="1.35956">
        <ele>219</ele>
        <time>2017-10-07T15:16:18Z</time>
      </trkpt>
      <trkpt lat="43.27439" lon="1.35951">
        <ele>218</ele>
        <time>2017-10-07T15:16:19Z</time>
      </trkpt>
      <trkpt lat="43.27441" lon="1.35947">
        <ele>217</ele>
        <time>2017-10-07T15:16:20Z</time>
      </trkpt>
      <trkpt lat="43.27443" lon="1.35941">
        <ele>216</ele>
        <time>2017-10-07T15:16:21Z</time>
      </trkpt>
      <trkpt lat="43.27444" lon="1.35936">
        <ele>215</ele>
        <time>2017-10-07T15:16:22Z</time>
      </trkpt>
      <trkpt lat="43.27444" lon="1.35929">
        <ele>214</ele>
        <time>2017-10-07T15:16:23Z</time>
      </trkpt>
      <trkpt lat="43.27444" lon="1.35923">
        <ele>213</ele>
        <time>2017-10-07T15:16:24Z</time>
      </trkpt>
      <trkpt lat="43.27442" lon="1.35917">
        <ele>212</ele>
        <time>2017-10-07T15:16:25Z</time>
      </trkpt>
      <trkpt lat="43.2744" lon="1.3591">
        <ele>212</ele>
        <time>2017-10-07T15:16:26Z</time>
      </trkpt>
      <trkpt lat="43.27438" lon="1.35903">
        <ele>211</ele>
        <time>2017-10-07T15:16:27Z</time>
      </trkpt>
      <trkpt lat="43.27436" lon="1.35896">
        <ele>211</ele>
        <time>2017-10-07T15:16:28Z</time>
      </trkpt>
      <trkpt lat="43.27434" lon="1.35889">
        <ele>211</ele>
        <time>2017-10-07T15:16:29Z</time>
      </trkpt>
      <trkpt lat="43.27428" lon="1.35858">
        <ele>210</ele>
        <time>2017-10-07T15:16:33Z</time>
      </trkpt>
      <trkpt lat="43.27427" lon="1.35851">
        <ele>210</ele>
        <time>2017-10-07T15:16:34Z</time>
      </trkpt>
      <trkpt lat="43.27427" lon="1.35843">
        <ele>209</ele>
        <time>2017-10-07T15:16:35Z</time>
      </trkpt>
      <trkpt lat="43.27426" lon="1.35837">
        <ele>209</ele>
        <time>2017-10-07T15:16:36Z</time>
      </trkpt>
      <trkpt lat="43.27426" lon="1.35831">
        <ele>208</ele>
        <time>2017-10-07T15:16:37Z</time>
      </trkpt>
      <trkpt lat="43.27426" lon="1.35822">
        <ele>208</ele>
        <time>2017-10-07T15:16:38Z</time>
      </trkpt>
      <trkpt lat="43.27427" lon="1.35814">
        <ele>207</ele>
        <time>2017-10-07T15:16:39Z</time>
      </trkpt>
      <trkpt lat="43.27428" lon="1.35807">
        <ele>207</ele>
        <time>2017-10-07T15:16:40Z</time>
      </trkpt>
      <trkpt lat="43.27428" lon="1.35798">
        <ele>207</ele>
        <time>2017-10-07T15:16:41Z</time>
      </trkpt>
      <trkpt lat="43.27428" lon="1.35789">
        <ele>206</ele>
        <time>2017-10-07T15:16:42Z</time>
      </trkpt>
      <trkpt lat="43.27428" lon="1.3578">
        <ele>206</ele>
        <time>2017-10-07T15:16:43Z</time>
      </trkpt>
      <trkpt lat="43.27429" lon="1.35761">
        <ele>206</ele>
        <time>2017-10-07T15:16:45Z</time>
      </trkpt>
      <trkpt lat="43.2743" lon="1.35752">
        <ele>205</ele>
        <time>2017-10-07T15:16:46Z</time>
      </trkpt>
      <trkpt lat="43.27431" lon="1.35743">
        <ele>204</ele>
        <time>2017-10-07T15:16:47Z</time>
      </trkpt>
      <trkpt lat="43.27432" lon="1.35724">
        <ele>204</ele>
        <time>2017-10-07T15:16:49Z</time>
      </trkpt>
      <trkpt lat="43.27435" lon="1.35685">
        <ele>204</ele>
        <time>2017-10-07T15:16:53Z</time>
      </trkpt>
      <trkpt lat="43.27435" lon="1.35675">
        <ele>203</ele>
        <time>2017-10-07T15:16:54Z</time>
      </trkpt>
      <trkpt lat="43.27436" lon="1.35665">
        <ele>203</ele>
        <time>2017-10-07T15:16:55Z</time>
      </trkpt>
      <trkpt lat="43.27437" lon="1.35656">
        <ele>202</ele>
        <time>2017-10-07T15:16:56Z</time>
      </trkpt>
      <trkpt lat="43.27437" lon="1.35647">
        <ele>202</ele>
        <time>2017-10-07T15:16:57Z</time>
      </trkpt>
      <trkpt lat="43.27439" lon="1.35616">
        <ele>202</ele>
        <time>2017-10-07T15:17:00Z</time>
      </trkpt>
      <trkpt lat="43.2744" lon="1.35594">
        <ele>202</ele>
        <time>2017-10-07T15:17:02Z</time>
      </trkpt>
      <trkpt lat="43.27447" lon="1.35537">
        <ele>202</ele>
        <time>2017-10-07T15:17:08Z</time>
      </trkpt>
      <trkpt lat="43.27449" lon="1.35527">
        <ele>202</ele>
        <time>2017-10-07T15:17:09Z</time>
      </trkpt>
      <trkpt lat="43.27454" lon="1.35486">
        <ele>202</ele>
        <time>2017-10-07T15:17:14Z</time>
      </trkpt>
      <trkpt lat="43.27455" lon="1.35478">
        <ele>201</ele>
        <time>2017-10-07T15:17:15Z</time>
      </trkpt>
      <trkpt lat="43.27456" lon="1.35471">
        <ele>201</ele>
        <time>2017-10-07T15:17:16Z</time>
      </trkpt>
      <trkpt lat="43.27457" lon="1.35463">
        <ele>200</ele>
        <time>2017-10-07T15:17:17Z</time>
      </trkpt>
      <trkpt lat="43.27458" lon="1.35456">
        <ele>200</ele>
        <time>2017-10-07T15:17:18Z</time>
      </trkpt>
      <trkpt lat="43.27459" lon="1.35436">
        <ele>200</ele>
        <time>2017-10-07T15:17:21Z</time>
      </trkpt>
      <trkpt lat="43.27462" lon="1.35402">
        <ele>200</ele>
        <time>2017-10-07T15:17:26Z</time>
      </trkpt>
      <trkpt lat="43.27463" lon="1.35396">
        <ele>200</ele>
        <time>2017-10-07T15:17:27Z</time>
      </trkpt>
      <trkpt lat="43.27466" lon="1.35339">
        <ele>200</ele>
        <time>2017-10-07T15:17:35Z</time>
      </trkpt>
      <trkpt lat="43.27467" lon="1.35333">
        <ele>200</ele>
        <time>2017-10-07T15:17:36Z</time>
      </trkpt>
      <trkpt lat="43.27464" lon="1.35304">
        <ele>200</ele>
        <time>2017-10-07T15:17:40Z</time>
      </trkpt>
      <trkpt lat="43.27456" lon="1.35276">
        <ele>200</ele>
        <time>2017-10-07T15:17:44Z</time>
      </trkpt>
      <trkpt lat="43.27451" lon="1.35256">
        <ele>200</ele>
        <time>2017-10-07T15:17:47Z</time>
      </trkpt>
      <trkpt lat="43.27447" lon="1.35227">
        <ele>200</ele>
        <time>2017-10-07T15:17:51Z</time>
      </trkpt>
      <trkpt lat="43.27449" lon="1.3522">
        <ele>200</ele>
        <time>2017-10-07T15:17:52Z</time>
      </trkpt>
      <trkpt lat="43.27463" lon="1.35201">
        <ele>200</ele>
        <time>2017-10-07T15:17:56Z</time>
      </trkpt>
      <trkpt lat="43.27485" lon="1.3516">
        <ele>200</ele>
        <time>2017-10-07T15:18:03Z</time>
      </trkpt>
      <trkpt lat="43.27492" lon="1.35141">
        <ele>200</ele>
        <time>2017-10-07T15:18:06Z</time>
      </trkpt>
      <trkpt lat="43.27498" lon="1.35122">
        <ele>200</ele>
        <time>2017-10-07T15:18:09Z</time>
      </trkpt>
      <trkpt lat="43.27504" lon="1.35081">
        <ele>200</ele>
        <time>2017-10-07T15:18:15Z</time>
      </trkpt>
      <trkpt lat="43.27504" lon="1.35074">
        <ele>201</ele>
        <time>2017-10-07T15:18:16Z</time>
      </trkpt>
      <trkpt lat="43.27505" lon="1.35068">
        <ele>201</ele>
        <time>2017-10-07T15:18:17Z</time>
      </trkpt>
      <trkpt lat="43.27505" lon="1.35061">
        <ele>202</ele>
        <time>2017-10-07T15:18:18Z</time>
      </trkpt>
      <trkpt lat="43.27505" lon="1.35054">
        <ele>202</ele>
        <time>2017-10-07T15:18:19Z</time>
      </trkpt>
      <trkpt lat="43.27506" lon="1.35029">
        <ele>202</ele>
        <time>2017-10-07T15:18:23Z</time>
      </trkpt>
      <trkpt lat="43.27507" lon="1.34981">
        <ele>202</ele>
        <time>2017-10-07T15:18:30Z</time>
      </trkpt>
      <trkpt lat="43.27508" lon="1.34968">
        <ele>202</ele>
        <time>2017-10-07T15:18:32Z</time>
      </trkpt>
      <trkpt lat="43.27508" lon="1.34961">
        <ele>203</ele>
        <time>2017-10-07T15:18:33Z</time>
      </trkpt>
      <trkpt lat="43.27508" lon="1.34955">
        <ele>203</ele>
        <time>2017-10-07T15:18:34Z</time>
      </trkpt>
      <trkpt lat="43.27508" lon="1.34949">
        <ele>204</ele>
        <time>2017-10-07T15:18:35Z</time>
      </trkpt>
      <trkpt lat="43.27508" lon="1.34942">
        <ele>204</ele>
        <time>2017-10-07T15:18:36Z</time>
      </trkpt>
      <trkpt lat="43.27508" lon="1.3491">
        <ele>204</ele>
        <time>2017-10-07T15:18:42Z</time>
      </trkpt>
      <trkpt lat="43.2751" lon="1.34888">
        <ele>204</ele>
        <time>2017-10-07T15:18:48Z</time>
      </trkpt>
      <trkpt lat="43.27509" lon="1.34882">
        <ele>204</ele>
        <time>2017-10-07T15:18:50Z</time>
      </trkpt>
      <trkpt lat="43.27512" lon="1.34878">
        <ele>204</ele>
        <time>2017-10-07T15:18:52Z</time>
      </trkpt>
      <trkpt lat="43.2752" lon="1.34881">
        <ele>204</ele>
        <time>2017-10-07T15:18:56Z</time>
      </trkpt>
      <trkpt lat="43.27522" lon="1.34882">
        <ele>204</ele>
        <time>2017-10-07T15:18:57Z</time>
      </trkpt>
      <trkpt lat="43.27528" lon="1.34885">
        <ele>204</ele>
        <time>2017-10-07T15:19:00Z</time>
      </trkpt>
      <trkpt lat="43.2753" lon="1.34886">
        <ele>204</ele>
        <time>2017-10-07T15:19:01Z</time>
      </trkpt>
      <trkpt lat="43.27542" lon="1.34894">
        <ele>204</ele>
        <time>2017-10-07T15:19:07Z</time>
      </trkpt>
      <trkpt lat="43.27545" lon="1.34896">
        <ele>204</ele>
        <time>2017-10-07T15:19:08Z</time>
      </trkpt>
      <trkpt lat="43.2756" lon="1.34907">
        <ele>204</ele>
        <time>2017-10-07T15:19:14Z</time>
      </trkpt>
      <trkpt lat="43.27563" lon="1.34909">
        <ele>204</ele>
        <time>2017-10-07T15:19:15Z</time>
      </trkpt>
      <trkpt lat="43.27578" lon="1.34915">
        <ele>204</ele>
        <time>2017-10-07T15:19:19Z</time>
      </trkpt>
      <trkpt lat="43.27582" lon="1.34916">
        <ele>204</ele>
        <time>2017-10-07T15:19:20Z</time>
      </trkpt>
      <trkpt lat="43.27592" lon="1.34917">
        <ele>204</ele>
        <time>2017-10-07T15:19:22Z</time>
      </trkpt>
      <trkpt lat="43.27606" lon="1.34913">
        <ele>204</ele>
        <time>2017-10-07T15:19:25Z</time>
      </trkpt>
      <trkpt lat="43.27631" lon="1.34909">
        <ele>204</ele>
        <time>2017-10-07T15:19:30Z</time>
      </trkpt>
      <trkpt lat="43.27664" lon="1.34896">
        <ele>204</ele>
        <time>2017-10-07T15:19:37Z</time>
      </trkpt>
      <trkpt lat="43.27668" lon="1.34893">
        <ele>204</ele>
        <time>2017-10-07T15:19:38Z</time>
      </trkpt>
      <trkpt lat="43.27697" lon="1.34872">
        <ele>204</ele>
        <time>2017-10-07T15:19:44Z</time>
      </trkpt>
      <trkpt lat="43.27702" lon="1.34868">
        <ele>204</ele>
        <time>2017-10-07T15:19:45Z</time>
      </trkpt>
      <trkpt lat="43.27717" lon="1.3485">
        <ele>204</ele>
        <time>2017-10-07T15:19:49Z</time>
      </trkpt>
      <trkpt lat="43.2772" lon="1.34845">
        <ele>204</ele>
        <time>2017-10-07T15:19:50Z</time>
      </trkpt>
      <trkpt lat="43.27734" lon="1.34822">
        <ele>204</ele>
        <time>2017-10-07T15:19:55Z</time>
      </trkpt>
      <trkpt lat="43.27743" lon="1.34803">
        <ele>204</ele>
        <time>2017-10-07T15:20:00Z</time>
      </trkpt>
      <trkpt lat="43.27746" lon="1.34798">
        <ele>204</ele>
        <time>2017-10-07T15:20:02Z</time>
      </trkpt>
      <trkpt lat="43.27751" lon="1.34796">
        <ele>204</ele>
        <time>2017-10-07T15:20:04Z</time>
      </trkpt>
      <trkpt lat="43.27758" lon="1.34796">
        <ele>204</ele>
        <time>2017-10-07T15:20:07Z</time>
      </trkpt>
      <trkpt lat="43.27763" lon="1.34798">
        <ele>204</ele>
        <time>2017-10-07T15:20:09Z</time>
      </trkpt>
      <trkpt lat="43.27764" lon="1.348">
        <ele>204</ele>
        <time>2017-10-07T15:20:10Z</time>
      </trkpt>
      <trkpt lat="43.27765" lon="1.34801">
        <ele>204</ele>
        <time>2017-10-07T15:20:11Z</time>
      </trkpt>
    </trkseg>
  </trk>
</gpx>